<?xml version="1.0" encoding="UTF-8" standalone="no" ?>
<gpx xmlns="http://www.topografix.com/GPX/1/1" xmlns:xsi="http://www.w3.org/2001/XMLSchema-instance" xsi:schemaLocation="http://www.topografix.com/GPX/1/1 http://www.topografix.com/GPX/1/1/gpx.xsd" version="1.1" creator="VisuGPX - https://www.visugpx.com">
  <metadata>
    <name>Sortie moto coté saint jeoire</name>
    <desc><![CDATA[Sortie moto coté saint jeoire]]></desc>
  </metadata>
  <wpt lat="46.05945" lon="6.37353">
    <ele>475</ele>
  </wpt>
  <wpt lat="46.10808" lon="6.41789">
    <ele>894</ele>
  </wpt>
  <trk>
    <name><![CDATA[Sortie moto coté saint jeoire_1]]></name>
    <trkseg>
      <trkpt lat="46.05945" lon="6.37353">
        <ele>475</ele>
        <time>2011-04-30T08:17:27Z</time>
      </trkpt>
      <trkpt lat="46.05954" lon="6.37357">
        <ele>475</ele>
        <time>2011-04-30T08:18:58Z</time>
      </trkpt>
      <trkpt lat="46.05963" lon="6.37357">
        <ele>484</ele>
        <time>2011-04-30T08:19:57Z</time>
      </trkpt>
      <trkpt lat="46.05973" lon="6.37359">
        <ele>484</ele>
        <time>2011-04-30T08:20:17Z</time>
      </trkpt>
      <trkpt lat="46.05982" lon="6.37361">
        <ele>484</ele>
        <time>2011-04-30T08:20:26Z</time>
      </trkpt>
      <trkpt lat="46.05971" lon="6.37358">
        <ele>484</ele>
        <time>2011-04-30T08:20:58Z</time>
      </trkpt>
      <trkpt lat="46.05961" lon="6.37357">
        <ele>484</ele>
        <time>2011-04-30T08:21:20Z</time>
      </trkpt>
      <trkpt lat="46.05952" lon="6.37355">
        <ele>484</ele>
        <time>2011-04-30T08:21:27Z</time>
      </trkpt>
      <trkpt lat="46.05961" lon="6.3736">
        <ele>484</ele>
        <time>2011-04-30T08:21:56Z</time>
      </trkpt>
      <trkpt lat="46.05952" lon="6.37359">
        <ele>484</ele>
        <time>2011-04-30T08:22:54Z</time>
      </trkpt>
      <trkpt lat="46.05961" lon="6.3736">
        <ele>484</ele>
        <time>2011-04-30T08:23:29Z</time>
      </trkpt>
      <trkpt lat="46.05953" lon="6.37355">
        <ele>484</ele>
        <time>2011-04-30T08:26:06Z</time>
      </trkpt>
      <trkpt lat="46.0596" lon="6.37363">
        <ele>484</ele>
        <time>2011-04-30T08:26:50Z</time>
      </trkpt>
      <trkpt lat="46.05955" lon="6.3735">
        <ele>479</ele>
        <time>2011-04-30T08:26:59Z</time>
      </trkpt>
      <trkpt lat="46.05956" lon="6.37337">
        <ele>479</ele>
        <time>2011-04-30T08:27:01Z</time>
      </trkpt>
      <trkpt lat="46.05965" lon="6.37331">
        <ele>479</ele>
        <time>2011-04-30T08:27:04Z</time>
      </trkpt>
      <trkpt lat="46.05977" lon="6.37335">
        <ele>479</ele>
        <time>2011-04-30T08:27:06Z</time>
      </trkpt>
      <trkpt lat="46.05992" lon="6.37341">
        <ele>479</ele>
        <time>2011-04-30T08:27:08Z</time>
      </trkpt>
      <trkpt lat="46.06011" lon="6.37347">
        <ele>479</ele>
        <time>2011-04-30T08:27:10Z</time>
      </trkpt>
      <trkpt lat="46.06022" lon="6.37349">
        <ele>479</ele>
        <time>2011-04-30T08:27:11Z</time>
      </trkpt>
      <trkpt lat="46.06033" lon="6.37353">
        <ele>479</ele>
        <time>2011-04-30T08:27:12Z</time>
      </trkpt>
      <trkpt lat="46.06043" lon="6.37356">
        <ele>479</ele>
        <time>2011-04-30T08:27:13Z</time>
      </trkpt>
      <trkpt lat="46.06055" lon="6.37358">
        <ele>479</ele>
        <time>2011-04-30T08:27:14Z</time>
      </trkpt>
      <trkpt lat="46.06065" lon="6.37362">
        <ele>479</ele>
        <time>2011-04-30T08:27:15Z</time>
      </trkpt>
      <trkpt lat="46.06075" lon="6.37365">
        <ele>484</ele>
        <time>2011-04-30T08:27:16Z</time>
      </trkpt>
      <trkpt lat="46.06086" lon="6.37366">
        <ele>484</ele>
        <time>2011-04-30T08:27:17Z</time>
      </trkpt>
      <trkpt lat="46.06097" lon="6.37369">
        <ele>484</ele>
        <time>2011-04-30T08:27:18Z</time>
      </trkpt>
      <trkpt lat="46.06108" lon="6.37371">
        <ele>484</ele>
        <time>2011-04-30T08:27:19Z</time>
      </trkpt>
      <trkpt lat="46.06119" lon="6.37374">
        <ele>484</ele>
        <time>2011-04-30T08:27:20Z</time>
      </trkpt>
      <trkpt lat="46.06131" lon="6.37377">
        <ele>484</ele>
        <time>2011-04-30T08:27:21Z</time>
      </trkpt>
      <trkpt lat="46.06143" lon="6.37381">
        <ele>484</ele>
        <time>2011-04-30T08:27:22Z</time>
      </trkpt>
      <trkpt lat="46.06156" lon="6.37383">
        <ele>484</ele>
        <time>2011-04-30T08:27:23Z</time>
      </trkpt>
      <trkpt lat="46.06168" lon="6.37383">
        <ele>484</ele>
        <time>2011-04-30T08:27:24Z</time>
      </trkpt>
      <trkpt lat="46.0618" lon="6.37383">
        <ele>484</ele>
        <time>2011-04-30T08:27:25Z</time>
      </trkpt>
      <trkpt lat="46.06192" lon="6.37383">
        <ele>484</ele>
        <time>2011-04-30T08:27:26Z</time>
      </trkpt>
      <trkpt lat="46.06205" lon="6.37382">
        <ele>484</ele>
        <time>2011-04-30T08:27:27Z</time>
      </trkpt>
      <trkpt lat="46.06219" lon="6.37379">
        <ele>484</ele>
        <time>2011-04-30T08:27:28Z</time>
      </trkpt>
      <trkpt lat="46.06232" lon="6.37377">
        <ele>484</ele>
        <time>2011-04-30T08:27:29Z</time>
      </trkpt>
      <trkpt lat="46.06245" lon="6.37375">
        <ele>484</ele>
        <time>2011-04-30T08:27:30Z</time>
      </trkpt>
      <trkpt lat="46.06258" lon="6.37373">
        <ele>484</ele>
        <time>2011-04-30T08:27:31Z</time>
      </trkpt>
      <trkpt lat="46.06271" lon="6.37368">
        <ele>484</ele>
        <time>2011-04-30T08:27:32Z</time>
      </trkpt>
      <trkpt lat="46.06284" lon="6.37363">
        <ele>484</ele>
        <time>2011-04-30T08:27:33Z</time>
      </trkpt>
      <trkpt lat="46.06297" lon="6.37358">
        <ele>484</ele>
        <time>2011-04-30T08:27:34Z</time>
      </trkpt>
      <trkpt lat="46.06309" lon="6.37355">
        <ele>484</ele>
        <time>2011-04-30T08:27:35Z</time>
      </trkpt>
      <trkpt lat="46.06322" lon="6.37352">
        <ele>484</ele>
        <time>2011-04-30T08:27:36Z</time>
      </trkpt>
      <trkpt lat="46.06333" lon="6.37349">
        <ele>484</ele>
        <time>2011-04-30T08:27:37Z</time>
      </trkpt>
      <trkpt lat="46.06343" lon="6.37348">
        <ele>484</ele>
        <time>2011-04-30T08:27:38Z</time>
      </trkpt>
      <trkpt lat="46.06352" lon="6.37348">
        <ele>484</ele>
        <time>2011-04-30T08:27:39Z</time>
      </trkpt>
      <trkpt lat="46.06365" lon="6.37348">
        <ele>484</ele>
        <time>2011-04-30T08:27:41Z</time>
      </trkpt>
      <trkpt lat="46.06376" lon="6.37354">
        <ele>484</ele>
        <time>2011-04-30T08:27:43Z</time>
      </trkpt>
      <trkpt lat="46.06384" lon="6.37369">
        <ele>484</ele>
        <time>2011-04-30T08:27:45Z</time>
      </trkpt>
      <trkpt lat="46.0639" lon="6.3739">
        <ele>484</ele>
        <time>2011-04-30T08:27:47Z</time>
      </trkpt>
      <trkpt lat="46.06397" lon="6.37413">
        <ele>484</ele>
        <time>2011-04-30T08:27:49Z</time>
      </trkpt>
      <trkpt lat="46.064" lon="6.37426">
        <ele>484</ele>
        <time>2011-04-30T08:27:50Z</time>
      </trkpt>
      <trkpt lat="46.06404" lon="6.37439">
        <ele>479</ele>
        <time>2011-04-30T08:27:51Z</time>
      </trkpt>
      <trkpt lat="46.06408" lon="6.37453">
        <ele>479</ele>
        <time>2011-04-30T08:27:52Z</time>
      </trkpt>
      <trkpt lat="46.06412" lon="6.37467">
        <ele>479</ele>
        <time>2011-04-30T08:27:53Z</time>
      </trkpt>
      <trkpt lat="46.06416" lon="6.37481">
        <ele>479</ele>
        <time>2011-04-30T08:27:54Z</time>
      </trkpt>
      <trkpt lat="46.0642" lon="6.37496">
        <ele>479</ele>
        <time>2011-04-30T08:27:55Z</time>
      </trkpt>
      <trkpt lat="46.06425" lon="6.37512">
        <ele>479</ele>
        <time>2011-04-30T08:27:56Z</time>
      </trkpt>
      <trkpt lat="46.06431" lon="6.37528">
        <ele>479</ele>
        <time>2011-04-30T08:27:57Z</time>
      </trkpt>
      <trkpt lat="46.06436" lon="6.37546">
        <ele>479</ele>
        <time>2011-04-30T08:27:58Z</time>
      </trkpt>
      <trkpt lat="46.06442" lon="6.37562">
        <ele>479</ele>
        <time>2011-04-30T08:27:59Z</time>
      </trkpt>
      <trkpt lat="46.06448" lon="6.37578">
        <ele>479</ele>
        <time>2011-04-30T08:28:00Z</time>
      </trkpt>
      <trkpt lat="46.06456" lon="6.37595">
        <ele>479</ele>
        <time>2011-04-30T08:28:01Z</time>
      </trkpt>
      <trkpt lat="46.06465" lon="6.37609">
        <ele>479</ele>
        <time>2011-04-30T08:28:02Z</time>
      </trkpt>
      <trkpt lat="46.06477" lon="6.37623">
        <ele>479</ele>
        <time>2011-04-30T08:28:03Z</time>
      </trkpt>
      <trkpt lat="46.06489" lon="6.37637">
        <ele>479</ele>
        <time>2011-04-30T08:28:04Z</time>
      </trkpt>
      <trkpt lat="46.06502" lon="6.37649">
        <ele>479</ele>
        <time>2011-04-30T08:28:05Z</time>
      </trkpt>
      <trkpt lat="46.06514" lon="6.37663">
        <ele>479</ele>
        <time>2011-04-30T08:28:06Z</time>
      </trkpt>
      <trkpt lat="46.06524" lon="6.37677">
        <ele>479</ele>
        <time>2011-04-30T08:28:07Z</time>
      </trkpt>
      <trkpt lat="46.06534" lon="6.37693">
        <ele>479</ele>
        <time>2011-04-30T08:28:08Z</time>
      </trkpt>
      <trkpt lat="46.06541" lon="6.37711">
        <ele>474</ele>
        <time>2011-04-30T08:28:09Z</time>
      </trkpt>
      <trkpt lat="46.06547" lon="6.37731">
        <ele>474</ele>
        <time>2011-04-30T08:28:10Z</time>
      </trkpt>
      <trkpt lat="46.06552" lon="6.37753">
        <ele>474</ele>
        <time>2011-04-30T08:28:11Z</time>
      </trkpt>
      <trkpt lat="46.06557" lon="6.37774">
        <ele>474</ele>
        <time>2011-04-30T08:28:12Z</time>
      </trkpt>
      <trkpt lat="46.0656" lon="6.37796">
        <ele>474</ele>
        <time>2011-04-30T08:28:13Z</time>
      </trkpt>
      <trkpt lat="46.06561" lon="6.37819">
        <ele>474</ele>
        <time>2011-04-30T08:28:14Z</time>
      </trkpt>
      <trkpt lat="46.06559" lon="6.37843">
        <ele>474</ele>
        <time>2011-04-30T08:28:15Z</time>
      </trkpt>
      <trkpt lat="46.06556" lon="6.37867">
        <ele>474</ele>
        <time>2011-04-30T08:28:16Z</time>
      </trkpt>
      <trkpt lat="46.06552" lon="6.37892">
        <ele>474</ele>
        <time>2011-04-30T08:28:17Z</time>
      </trkpt>
      <trkpt lat="46.06549" lon="6.37915">
        <ele>474</ele>
        <time>2011-04-30T08:28:18Z</time>
      </trkpt>
      <trkpt lat="46.06546" lon="6.37937">
        <ele>474</ele>
        <time>2011-04-30T08:28:19Z</time>
      </trkpt>
      <trkpt lat="46.06544" lon="6.37956">
        <ele>474</ele>
        <time>2011-04-30T08:28:20Z</time>
      </trkpt>
      <trkpt lat="46.06544" lon="6.37971">
        <ele>469</ele>
        <time>2011-04-30T08:28:21Z</time>
      </trkpt>
      <trkpt lat="46.06547" lon="6.37986">
        <ele>469</ele>
        <time>2011-04-30T08:28:22Z</time>
      </trkpt>
      <trkpt lat="46.06553" lon="6.37999">
        <ele>469</ele>
        <time>2011-04-30T08:28:23Z</time>
      </trkpt>
      <trkpt lat="46.06564" lon="6.3801">
        <ele>469</ele>
        <time>2011-04-30T08:28:24Z</time>
      </trkpt>
      <trkpt lat="46.06577" lon="6.3802">
        <ele>469</ele>
        <time>2011-04-30T08:28:25Z</time>
      </trkpt>
      <trkpt lat="46.06592" lon="6.38028">
        <ele>469</ele>
        <time>2011-04-30T08:28:26Z</time>
      </trkpt>
      <trkpt lat="46.06604" lon="6.38036">
        <ele>469</ele>
        <time>2011-04-30T08:28:27Z</time>
      </trkpt>
      <trkpt lat="46.06615" lon="6.38043">
        <ele>469</ele>
        <time>2011-04-30T08:28:28Z</time>
      </trkpt>
      <trkpt lat="46.06625" lon="6.38052">
        <ele>469</ele>
        <time>2011-04-30T08:28:29Z</time>
      </trkpt>
      <trkpt lat="46.06635" lon="6.38062">
        <ele>469</ele>
        <time>2011-04-30T08:28:30Z</time>
      </trkpt>
      <trkpt lat="46.06644" lon="6.38074">
        <ele>469</ele>
        <time>2011-04-30T08:28:31Z</time>
      </trkpt>
      <trkpt lat="46.06652" lon="6.3809">
        <ele>469</ele>
        <time>2011-04-30T08:28:32Z</time>
      </trkpt>
      <trkpt lat="46.06659" lon="6.38106">
        <ele>469</ele>
        <time>2011-04-30T08:28:33Z</time>
      </trkpt>
      <trkpt lat="46.06666" lon="6.38123">
        <ele>469</ele>
        <time>2011-04-30T08:28:34Z</time>
      </trkpt>
      <trkpt lat="46.06674" lon="6.38139">
        <ele>469</ele>
        <time>2011-04-30T08:28:35Z</time>
      </trkpt>
      <trkpt lat="46.06682" lon="6.38153">
        <ele>469</ele>
        <time>2011-04-30T08:28:36Z</time>
      </trkpt>
      <trkpt lat="46.06691" lon="6.38164">
        <ele>469</ele>
        <time>2011-04-30T08:28:37Z</time>
      </trkpt>
      <trkpt lat="46.06702" lon="6.38173">
        <ele>469</ele>
        <time>2011-04-30T08:28:38Z</time>
      </trkpt>
      <trkpt lat="46.06713" lon="6.3818">
        <ele>469</ele>
        <time>2011-04-30T08:28:39Z</time>
      </trkpt>
      <trkpt lat="46.06725" lon="6.38186">
        <ele>469</ele>
        <time>2011-04-30T08:28:40Z</time>
      </trkpt>
      <trkpt lat="46.06738" lon="6.3819">
        <ele>469</ele>
        <time>2011-04-30T08:28:41Z</time>
      </trkpt>
      <trkpt lat="46.06749" lon="6.38196">
        <ele>469</ele>
        <time>2011-04-30T08:28:42Z</time>
      </trkpt>
      <trkpt lat="46.06761" lon="6.382">
        <ele>469</ele>
        <time>2011-04-30T08:28:43Z</time>
      </trkpt>
      <trkpt lat="46.06772" lon="6.38205">
        <ele>469</ele>
        <time>2011-04-30T08:28:44Z</time>
      </trkpt>
      <trkpt lat="46.06782" lon="6.38208">
        <ele>469</ele>
        <time>2011-04-30T08:28:45Z</time>
      </trkpt>
      <trkpt lat="46.06791" lon="6.38212">
        <ele>469</ele>
        <time>2011-04-30T08:28:46Z</time>
      </trkpt>
      <trkpt lat="46.06806" lon="6.38217">
        <ele>469</ele>
        <time>2011-04-30T08:28:48Z</time>
      </trkpt>
      <trkpt lat="46.06818" lon="6.38222">
        <ele>469</ele>
        <time>2011-04-30T08:28:50Z</time>
      </trkpt>
      <trkpt lat="46.06825" lon="6.3823">
        <ele>469</ele>
        <time>2011-04-30T08:28:54Z</time>
      </trkpt>
      <trkpt lat="46.06828" lon="6.38246">
        <ele>469</ele>
        <time>2011-04-30T08:29:02Z</time>
      </trkpt>
      <trkpt lat="46.06829" lon="6.38268">
        <ele>469</ele>
        <time>2011-04-30T08:29:04Z</time>
      </trkpt>
      <trkpt lat="46.06829" lon="6.38294">
        <ele>469</ele>
        <time>2011-04-30T08:29:06Z</time>
      </trkpt>
      <trkpt lat="46.06829" lon="6.3831">
        <ele>469</ele>
        <time>2011-04-30T08:29:07Z</time>
      </trkpt>
      <trkpt lat="46.06828" lon="6.38326">
        <ele>469</ele>
        <time>2011-04-30T08:29:08Z</time>
      </trkpt>
      <trkpt lat="46.06826" lon="6.38343">
        <ele>469</ele>
        <time>2011-04-30T08:29:09Z</time>
      </trkpt>
      <trkpt lat="46.06824" lon="6.3836">
        <ele>469</ele>
        <time>2011-04-30T08:29:10Z</time>
      </trkpt>
      <trkpt lat="46.06822" lon="6.38379">
        <ele>469</ele>
        <time>2011-04-30T08:29:11Z</time>
      </trkpt>
      <trkpt lat="46.06819" lon="6.38399">
        <ele>469</ele>
        <time>2011-04-30T08:29:12Z</time>
      </trkpt>
      <trkpt lat="46.06814" lon="6.38418">
        <ele>469</ele>
        <time>2011-04-30T08:29:13Z</time>
      </trkpt>
      <trkpt lat="46.06809" lon="6.38439">
        <ele>469</ele>
        <time>2011-04-30T08:29:14Z</time>
      </trkpt>
      <trkpt lat="46.06804" lon="6.3846">
        <ele>469</ele>
        <time>2011-04-30T08:29:15Z</time>
      </trkpt>
      <trkpt lat="46.06799" lon="6.3848">
        <ele>469</ele>
        <time>2011-04-30T08:29:16Z</time>
      </trkpt>
      <trkpt lat="46.06794" lon="6.38499">
        <ele>469</ele>
        <time>2011-04-30T08:29:17Z</time>
      </trkpt>
      <trkpt lat="46.06788" lon="6.38518">
        <ele>469</ele>
        <time>2011-04-30T08:29:18Z</time>
      </trkpt>
      <trkpt lat="46.06783" lon="6.38535">
        <ele>469</ele>
        <time>2011-04-30T08:29:19Z</time>
      </trkpt>
      <trkpt lat="46.06779" lon="6.38552">
        <ele>469</ele>
        <time>2011-04-30T08:29:20Z</time>
      </trkpt>
      <trkpt lat="46.06775" lon="6.38568">
        <ele>469</ele>
        <time>2011-04-30T08:29:21Z</time>
      </trkpt>
      <trkpt lat="46.06772" lon="6.38585">
        <ele>469</ele>
        <time>2011-04-30T08:29:22Z</time>
      </trkpt>
      <trkpt lat="46.06769" lon="6.38601">
        <ele>469</ele>
        <time>2011-04-30T08:29:23Z</time>
      </trkpt>
      <trkpt lat="46.06766" lon="6.38617">
        <ele>469</ele>
        <time>2011-04-30T08:29:24Z</time>
      </trkpt>
      <trkpt lat="46.06763" lon="6.38632">
        <ele>469</ele>
        <time>2011-04-30T08:29:25Z</time>
      </trkpt>
      <trkpt lat="46.06759" lon="6.38648">
        <ele>469</ele>
        <time>2011-04-30T08:29:26Z</time>
      </trkpt>
      <trkpt lat="46.06754" lon="6.38665">
        <ele>469</ele>
        <time>2011-04-30T08:29:27Z</time>
      </trkpt>
      <trkpt lat="46.0675" lon="6.38683">
        <ele>469</ele>
        <time>2011-04-30T08:29:28Z</time>
      </trkpt>
      <trkpt lat="46.06745" lon="6.38702">
        <ele>469</ele>
        <time>2011-04-30T08:29:29Z</time>
      </trkpt>
      <trkpt lat="46.06739" lon="6.38721">
        <ele>469</ele>
        <time>2011-04-30T08:29:30Z</time>
      </trkpt>
      <trkpt lat="46.06734" lon="6.3874">
        <ele>469</ele>
        <time>2011-04-30T08:29:31Z</time>
      </trkpt>
      <trkpt lat="46.06728" lon="6.3876">
        <ele>469</ele>
        <time>2011-04-30T08:29:32Z</time>
      </trkpt>
      <trkpt lat="46.06721" lon="6.38779">
        <ele>469</ele>
        <time>2011-04-30T08:29:33Z</time>
      </trkpt>
      <trkpt lat="46.06715" lon="6.38798">
        <ele>469</ele>
        <time>2011-04-30T08:29:34Z</time>
      </trkpt>
      <trkpt lat="46.06709" lon="6.38816">
        <ele>469</ele>
        <time>2011-04-30T08:29:35Z</time>
      </trkpt>
      <trkpt lat="46.06703" lon="6.38834">
        <ele>469</ele>
        <time>2011-04-30T08:29:36Z</time>
      </trkpt>
      <trkpt lat="46.06698" lon="6.3885">
        <ele>469</ele>
        <time>2011-04-30T08:29:37Z</time>
      </trkpt>
      <trkpt lat="46.06693" lon="6.38865">
        <ele>469</ele>
        <time>2011-04-30T08:29:38Z</time>
      </trkpt>
      <trkpt lat="46.06688" lon="6.38877">
        <ele>469</ele>
        <time>2011-04-30T08:29:39Z</time>
      </trkpt>
      <trkpt lat="46.06684" lon="6.3889">
        <ele>469</ele>
        <time>2011-04-30T08:29:40Z</time>
      </trkpt>
      <trkpt lat="46.06676" lon="6.3891">
        <ele>469</ele>
        <time>2011-04-30T08:29:42Z</time>
      </trkpt>
      <trkpt lat="46.06671" lon="6.38921">
        <ele>469</ele>
        <time>2011-04-30T08:29:45Z</time>
      </trkpt>
      <trkpt lat="46.06681" lon="6.38931">
        <ele>469</ele>
        <time>2011-04-30T08:30:07Z</time>
      </trkpt>
      <trkpt lat="46.06688" lon="6.38939">
        <ele>469</ele>
        <time>2011-04-30T08:30:08Z</time>
      </trkpt>
      <trkpt lat="46.06701" lon="6.38952">
        <ele>469</ele>
        <time>2011-04-30T08:30:09Z</time>
      </trkpt>
      <trkpt lat="46.06716" lon="6.38966">
        <ele>469</ele>
        <time>2011-04-30T08:30:10Z</time>
      </trkpt>
      <trkpt lat="46.06736" lon="6.38985">
        <ele>469</ele>
        <time>2011-04-30T08:30:11Z</time>
      </trkpt>
      <trkpt lat="46.06757" lon="6.39006">
        <ele>469</ele>
        <time>2011-04-30T08:30:12Z</time>
      </trkpt>
      <trkpt lat="46.06775" lon="6.39024">
        <ele>469</ele>
        <time>2011-04-30T08:30:13Z</time>
      </trkpt>
      <trkpt lat="46.06792" lon="6.39042">
        <ele>469</ele>
        <time>2011-04-30T08:30:14Z</time>
      </trkpt>
      <trkpt lat="46.06809" lon="6.39059">
        <ele>469</ele>
        <time>2011-04-30T08:30:15Z</time>
      </trkpt>
      <trkpt lat="46.06826" lon="6.39076">
        <ele>469</ele>
        <time>2011-04-30T08:30:16Z</time>
      </trkpt>
      <trkpt lat="46.06844" lon="6.39092">
        <ele>469</ele>
        <time>2011-04-30T08:30:17Z</time>
      </trkpt>
      <trkpt lat="46.0686" lon="6.39107">
        <ele>469</ele>
        <time>2011-04-30T08:30:18Z</time>
      </trkpt>
      <trkpt lat="46.06876" lon="6.39123">
        <ele>469</ele>
        <time>2011-04-30T08:30:19Z</time>
      </trkpt>
      <trkpt lat="46.06892" lon="6.39139">
        <ele>469</ele>
        <time>2011-04-30T08:30:20Z</time>
      </trkpt>
      <trkpt lat="46.06908" lon="6.39155">
        <ele>469</ele>
        <time>2011-04-30T08:30:21Z</time>
      </trkpt>
      <trkpt lat="46.06924" lon="6.3917">
        <ele>469</ele>
        <time>2011-04-30T08:30:22Z</time>
      </trkpt>
      <trkpt lat="46.0694" lon="6.39186">
        <ele>469</ele>
        <time>2011-04-30T08:30:23Z</time>
      </trkpt>
      <trkpt lat="46.06956" lon="6.39201">
        <ele>469</ele>
        <time>2011-04-30T08:30:24Z</time>
      </trkpt>
      <trkpt lat="46.06973" lon="6.39216">
        <ele>469</ele>
        <time>2011-04-30T08:30:25Z</time>
      </trkpt>
      <trkpt lat="46.06988" lon="6.39231">
        <ele>469</ele>
        <time>2011-04-30T08:30:26Z</time>
      </trkpt>
      <trkpt lat="46.07003" lon="6.39247">
        <ele>469</ele>
        <time>2011-04-30T08:30:27Z</time>
      </trkpt>
      <trkpt lat="46.0702" lon="6.39262">
        <ele>469</ele>
        <time>2011-04-30T08:30:28Z</time>
      </trkpt>
      <trkpt lat="46.07036" lon="6.39278">
        <ele>469</ele>
        <time>2011-04-30T08:30:29Z</time>
      </trkpt>
      <trkpt lat="46.07053" lon="6.39294">
        <ele>469</ele>
        <time>2011-04-30T08:30:30Z</time>
      </trkpt>
      <trkpt lat="46.0707" lon="6.39311">
        <ele>469</ele>
        <time>2011-04-30T08:30:31Z</time>
      </trkpt>
      <trkpt lat="46.07087" lon="6.39329">
        <ele>469</ele>
        <time>2011-04-30T08:30:32Z</time>
      </trkpt>
      <trkpt lat="46.07104" lon="6.39345">
        <ele>469</ele>
        <time>2011-04-30T08:30:33Z</time>
      </trkpt>
      <trkpt lat="46.0712" lon="6.39362">
        <ele>469</ele>
        <time>2011-04-30T08:30:34Z</time>
      </trkpt>
      <trkpt lat="46.07136" lon="6.39378">
        <ele>469</ele>
        <time>2011-04-30T08:30:35Z</time>
      </trkpt>
      <trkpt lat="46.07151" lon="6.39393">
        <ele>469</ele>
        <time>2011-04-30T08:30:36Z</time>
      </trkpt>
      <trkpt lat="46.07166" lon="6.39408">
        <ele>469</ele>
        <time>2011-04-30T08:30:37Z</time>
      </trkpt>
      <trkpt lat="46.07181" lon="6.39423">
        <ele>469</ele>
        <time>2011-04-30T08:30:38Z</time>
      </trkpt>
      <trkpt lat="46.07194" lon="6.39436">
        <ele>469</ele>
        <time>2011-04-30T08:30:39Z</time>
      </trkpt>
      <trkpt lat="46.07207" lon="6.39449">
        <ele>469</ele>
        <time>2011-04-30T08:30:40Z</time>
      </trkpt>
      <trkpt lat="46.0722" lon="6.39461">
        <ele>469</ele>
        <time>2011-04-30T08:30:41Z</time>
      </trkpt>
      <trkpt lat="46.07231" lon="6.39473">
        <ele>469</ele>
        <time>2011-04-30T08:30:42Z</time>
      </trkpt>
      <trkpt lat="46.07243" lon="6.39485">
        <ele>469</ele>
        <time>2011-04-30T08:30:43Z</time>
      </trkpt>
      <trkpt lat="46.07254" lon="6.39495">
        <ele>469</ele>
        <time>2011-04-30T08:30:44Z</time>
      </trkpt>
      <trkpt lat="46.07264" lon="6.39504">
        <ele>469</ele>
        <time>2011-04-30T08:30:45Z</time>
      </trkpt>
      <trkpt lat="46.07272" lon="6.39512">
        <ele>469</ele>
        <time>2011-04-30T08:30:46Z</time>
      </trkpt>
      <trkpt lat="46.0728" lon="6.3952">
        <ele>469</ele>
        <time>2011-04-30T08:30:47Z</time>
      </trkpt>
      <trkpt lat="46.07292" lon="6.39531">
        <ele>469</ele>
        <time>2011-04-30T08:30:49Z</time>
      </trkpt>
      <trkpt lat="46.073" lon="6.39539">
        <ele>469</ele>
        <time>2011-04-30T08:30:51Z</time>
      </trkpt>
      <trkpt lat="46.07292" lon="6.39527">
        <ele>461</ele>
        <time>2011-04-30T08:31:17Z</time>
      </trkpt>
      <trkpt lat="46.07276" lon="6.39511">
        <ele>461</ele>
        <time>2011-04-30T08:31:19Z</time>
      </trkpt>
      <trkpt lat="46.07266" lon="6.395">
        <ele>461</ele>
        <time>2011-04-30T08:31:20Z</time>
      </trkpt>
      <trkpt lat="46.07255" lon="6.39489">
        <ele>461</ele>
        <time>2011-04-30T08:31:21Z</time>
      </trkpt>
      <trkpt lat="46.07245" lon="6.39478">
        <ele>461</ele>
        <time>2011-04-30T08:31:22Z</time>
      </trkpt>
      <trkpt lat="46.07235" lon="6.39468">
        <ele>455</ele>
        <time>2011-04-30T08:31:23Z</time>
      </trkpt>
      <trkpt lat="46.07226" lon="6.3946">
        <ele>455</ele>
        <time>2011-04-30T08:31:24Z</time>
      </trkpt>
      <trkpt lat="46.07218" lon="6.39452">
        <ele>455</ele>
        <time>2011-04-30T08:31:25Z</time>
      </trkpt>
      <trkpt lat="46.07207" lon="6.39438">
        <ele>455</ele>
        <time>2011-04-30T08:31:27Z</time>
      </trkpt>
      <trkpt lat="46.07201" lon="6.39428">
        <ele>455</ele>
        <time>2011-04-30T08:31:29Z</time>
      </trkpt>
      <trkpt lat="46.07206" lon="6.39442">
        <ele>455</ele>
        <time>2011-04-30T08:31:36Z</time>
      </trkpt>
      <trkpt lat="46.07223" lon="6.39461">
        <ele>461</ele>
        <time>2011-04-30T08:31:38Z</time>
      </trkpt>
      <trkpt lat="46.07237" lon="6.39476">
        <ele>461</ele>
        <time>2011-04-30T08:31:39Z</time>
      </trkpt>
      <trkpt lat="46.07251" lon="6.39493">
        <ele>461</ele>
        <time>2011-04-30T08:31:40Z</time>
      </trkpt>
      <trkpt lat="46.07265" lon="6.39506">
        <ele>461</ele>
        <time>2011-04-30T08:31:41Z</time>
      </trkpt>
      <trkpt lat="46.07278" lon="6.39519">
        <ele>461</ele>
        <time>2011-04-30T08:31:42Z</time>
      </trkpt>
      <trkpt lat="46.0729" lon="6.3953">
        <ele>461</ele>
        <time>2011-04-30T08:31:43Z</time>
      </trkpt>
      <trkpt lat="46.07298" lon="6.39538">
        <ele>461</ele>
        <time>2011-04-30T08:31:44Z</time>
      </trkpt>
      <trkpt lat="46.07307" lon="6.39547">
        <ele>461</ele>
        <time>2011-04-30T08:32:05Z</time>
      </trkpt>
      <trkpt lat="46.07318" lon="6.39557">
        <ele>461</ele>
        <time>2011-04-30T08:32:07Z</time>
      </trkpt>
      <trkpt lat="46.07332" lon="6.3957">
        <ele>461</ele>
        <time>2011-04-30T08:32:09Z</time>
      </trkpt>
      <trkpt lat="46.07343" lon="6.3958">
        <ele>461</ele>
        <time>2011-04-30T08:32:11Z</time>
      </trkpt>
      <trkpt lat="46.07354" lon="6.3959">
        <ele>461</ele>
        <time>2011-04-30T08:32:14Z</time>
      </trkpt>
      <trkpt lat="46.07365" lon="6.39597">
        <ele>461</ele>
        <time>2011-04-30T08:32:27Z</time>
      </trkpt>
      <trkpt lat="46.07373" lon="6.39603">
        <ele>461</ele>
        <time>2011-04-30T08:32:29Z</time>
      </trkpt>
      <trkpt lat="46.07388" lon="6.39614">
        <ele>461</ele>
        <time>2011-04-30T08:32:31Z</time>
      </trkpt>
      <trkpt lat="46.07397" lon="6.39623">
        <ele>461</ele>
        <time>2011-04-30T08:32:32Z</time>
      </trkpt>
      <trkpt lat="46.07408" lon="6.39633">
        <ele>461</ele>
        <time>2011-04-30T08:32:33Z</time>
      </trkpt>
      <trkpt lat="46.07418" lon="6.39643">
        <ele>461</ele>
        <time>2011-04-30T08:32:34Z</time>
      </trkpt>
      <trkpt lat="46.07427" lon="6.3965">
        <ele>461</ele>
        <time>2011-04-30T08:32:35Z</time>
      </trkpt>
      <trkpt lat="46.07439" lon="6.3966">
        <ele>461</ele>
        <time>2011-04-30T08:32:37Z</time>
      </trkpt>
      <trkpt lat="46.07447" lon="6.39671">
        <ele>451</ele>
        <time>2011-04-30T08:33:28Z</time>
      </trkpt>
      <trkpt lat="46.07457" lon="6.3968">
        <ele>451</ele>
        <time>2011-04-30T08:33:31Z</time>
      </trkpt>
      <trkpt lat="46.07468" lon="6.3969">
        <ele>451</ele>
        <time>2011-04-30T08:33:34Z</time>
      </trkpt>
      <trkpt lat="46.07475" lon="6.39698">
        <ele>451</ele>
        <time>2011-04-30T08:33:36Z</time>
      </trkpt>
      <trkpt lat="46.07486" lon="6.39706">
        <ele>451</ele>
        <time>2011-04-30T08:33:40Z</time>
      </trkpt>
      <trkpt lat="46.07495" lon="6.39713">
        <ele>451</ele>
        <time>2011-04-30T08:33:42Z</time>
      </trkpt>
      <trkpt lat="46.07505" lon="6.39722">
        <ele>451</ele>
        <time>2011-04-30T08:33:44Z</time>
      </trkpt>
      <trkpt lat="46.07515" lon="6.3973">
        <ele>451</ele>
        <time>2011-04-30T08:33:46Z</time>
      </trkpt>
      <trkpt lat="46.07525" lon="6.3974">
        <ele>451</ele>
        <time>2011-04-30T08:33:49Z</time>
      </trkpt>
      <trkpt lat="46.07523" lon="6.39753">
        <ele>451</ele>
        <time>2011-04-30T08:33:52Z</time>
      </trkpt>
      <trkpt lat="46.07533" lon="6.39767">
        <ele>451</ele>
        <time>2011-04-30T08:33:56Z</time>
      </trkpt>
      <trkpt lat="46.07543" lon="6.39778">
        <ele>451</ele>
        <time>2011-04-30T08:33:58Z</time>
      </trkpt>
      <trkpt lat="46.07558" lon="6.39791">
        <ele>456</ele>
        <time>2011-04-30T08:34:00Z</time>
      </trkpt>
      <trkpt lat="46.07573" lon="6.39806">
        <ele>456</ele>
        <time>2011-04-30T08:34:02Z</time>
      </trkpt>
      <trkpt lat="46.07582" lon="6.39814">
        <ele>456</ele>
        <time>2011-04-30T08:34:03Z</time>
      </trkpt>
      <trkpt lat="46.07591" lon="6.39823">
        <ele>456</ele>
        <time>2011-04-30T08:34:04Z</time>
      </trkpt>
      <trkpt lat="46.07598" lon="6.39832">
        <ele>456</ele>
        <time>2011-04-30T08:34:05Z</time>
      </trkpt>
      <trkpt lat="46.07612" lon="6.39848">
        <ele>456</ele>
        <time>2011-04-30T08:34:07Z</time>
      </trkpt>
      <trkpt lat="46.07621" lon="6.39857">
        <ele>456</ele>
        <time>2011-04-30T08:34:08Z</time>
      </trkpt>
      <trkpt lat="46.0763" lon="6.39865">
        <ele>456</ele>
        <time>2011-04-30T08:34:09Z</time>
      </trkpt>
      <trkpt lat="46.0764" lon="6.39873">
        <ele>456</ele>
        <time>2011-04-30T08:34:10Z</time>
      </trkpt>
      <trkpt lat="46.0765" lon="6.39882">
        <ele>456</ele>
        <time>2011-04-30T08:34:11Z</time>
      </trkpt>
      <trkpt lat="46.0766" lon="6.39888">
        <ele>456</ele>
        <time>2011-04-30T08:34:12Z</time>
      </trkpt>
      <trkpt lat="46.07669" lon="6.39895">
        <ele>456</ele>
        <time>2011-04-30T08:34:13Z</time>
      </trkpt>
      <trkpt lat="46.07678" lon="6.39902">
        <ele>456</ele>
        <time>2011-04-30T08:34:14Z</time>
      </trkpt>
      <trkpt lat="46.07688" lon="6.39909">
        <ele>456</ele>
        <time>2011-04-30T08:34:15Z</time>
      </trkpt>
      <trkpt lat="46.07697" lon="6.39915">
        <ele>456</ele>
        <time>2011-04-30T08:34:16Z</time>
      </trkpt>
      <trkpt lat="46.07707" lon="6.3992">
        <ele>456</ele>
        <time>2011-04-30T08:34:17Z</time>
      </trkpt>
      <trkpt lat="46.07717" lon="6.39926">
        <ele>456</ele>
        <time>2011-04-30T08:34:18Z</time>
      </trkpt>
      <trkpt lat="46.07727" lon="6.39931">
        <ele>456</ele>
        <time>2011-04-30T08:34:19Z</time>
      </trkpt>
      <trkpt lat="46.07742" lon="6.39938">
        <ele>456</ele>
        <time>2011-04-30T08:34:21Z</time>
      </trkpt>
      <trkpt lat="46.07757" lon="6.39945">
        <ele>456</ele>
        <time>2011-04-30T08:34:23Z</time>
      </trkpt>
      <trkpt lat="46.07766" lon="6.39949">
        <ele>456</ele>
        <time>2011-04-30T08:34:24Z</time>
      </trkpt>
      <trkpt lat="46.07777" lon="6.39954">
        <ele>456</ele>
        <time>2011-04-30T08:34:25Z</time>
      </trkpt>
      <trkpt lat="46.07788" lon="6.39957">
        <ele>456</ele>
        <time>2011-04-30T08:34:26Z</time>
      </trkpt>
      <trkpt lat="46.07799" lon="6.39961">
        <ele>456</ele>
        <time>2011-04-30T08:34:27Z</time>
      </trkpt>
      <trkpt lat="46.0781" lon="6.39964">
        <ele>456</ele>
        <time>2011-04-30T08:34:28Z</time>
      </trkpt>
      <trkpt lat="46.07822" lon="6.39969">
        <ele>456</ele>
        <time>2011-04-30T08:34:29Z</time>
      </trkpt>
      <trkpt lat="46.07834" lon="6.39972">
        <ele>456</ele>
        <time>2011-04-30T08:34:30Z</time>
      </trkpt>
      <trkpt lat="46.07845" lon="6.39974">
        <ele>456</ele>
        <time>2011-04-30T08:34:31Z</time>
      </trkpt>
      <trkpt lat="46.07856" lon="6.39976">
        <ele>456</ele>
        <time>2011-04-30T08:34:32Z</time>
      </trkpt>
      <trkpt lat="46.07868" lon="6.39979">
        <ele>451</ele>
        <time>2011-04-30T08:34:33Z</time>
      </trkpt>
      <trkpt lat="46.07879" lon="6.39982">
        <ele>451</ele>
        <time>2011-04-30T08:34:34Z</time>
      </trkpt>
      <trkpt lat="46.0789" lon="6.39983">
        <ele>451</ele>
        <time>2011-04-30T08:34:35Z</time>
      </trkpt>
      <trkpt lat="46.07899" lon="6.39984">
        <ele>451</ele>
        <time>2011-04-30T08:34:36Z</time>
      </trkpt>
      <trkpt lat="46.07916" lon="6.39982">
        <ele>451</ele>
        <time>2011-04-30T08:34:38Z</time>
      </trkpt>
      <trkpt lat="46.07927" lon="6.39979">
        <ele>451</ele>
        <time>2011-04-30T08:34:40Z</time>
      </trkpt>
      <trkpt lat="46.0793" lon="6.39994">
        <ele>451</ele>
        <time>2011-04-30T08:34:47Z</time>
      </trkpt>
      <trkpt lat="46.07927" lon="6.40015">
        <ele>451</ele>
        <time>2011-04-30T08:34:49Z</time>
      </trkpt>
      <trkpt lat="46.07925" lon="6.40028">
        <ele>451</ele>
        <time>2011-04-30T08:34:50Z</time>
      </trkpt>
      <trkpt lat="46.07922" lon="6.40043">
        <ele>451</ele>
        <time>2011-04-30T08:34:51Z</time>
      </trkpt>
      <trkpt lat="46.0792" lon="6.4006">
        <ele>451</ele>
        <time>2011-04-30T08:34:52Z</time>
      </trkpt>
      <trkpt lat="46.07917" lon="6.40074">
        <ele>451</ele>
        <time>2011-04-30T08:34:53Z</time>
      </trkpt>
      <trkpt lat="46.07915" lon="6.40087">
        <ele>451</ele>
        <time>2011-04-30T08:34:54Z</time>
      </trkpt>
      <trkpt lat="46.07912" lon="6.401">
        <ele>451</ele>
        <time>2011-04-30T08:34:55Z</time>
      </trkpt>
      <trkpt lat="46.07909" lon="6.40122">
        <ele>451</ele>
        <time>2011-04-30T08:34:57Z</time>
      </trkpt>
      <trkpt lat="46.07905" lon="6.40145">
        <ele>451</ele>
        <time>2011-04-30T08:34:59Z</time>
      </trkpt>
      <trkpt lat="46.079" lon="6.40166">
        <ele>451</ele>
        <time>2011-04-30T08:35:01Z</time>
      </trkpt>
      <trkpt lat="46.07895" lon="6.40189">
        <ele>451</ele>
        <time>2011-04-30T08:35:03Z</time>
      </trkpt>
      <trkpt lat="46.07894" lon="6.40202">
        <ele>451</ele>
        <time>2011-04-30T08:35:04Z</time>
      </trkpt>
      <trkpt lat="46.07891" lon="6.40216">
        <ele>451</ele>
        <time>2011-04-30T08:35:05Z</time>
      </trkpt>
      <trkpt lat="46.07889" lon="6.4023">
        <ele>451</ele>
        <time>2011-04-30T08:35:06Z</time>
      </trkpt>
      <trkpt lat="46.07887" lon="6.40243">
        <ele>451</ele>
        <time>2011-04-30T08:35:07Z</time>
      </trkpt>
      <trkpt lat="46.07884" lon="6.40255">
        <ele>451</ele>
        <time>2011-04-30T08:35:08Z</time>
      </trkpt>
      <trkpt lat="46.07879" lon="6.40274">
        <ele>451</ele>
        <time>2011-04-30T08:35:10Z</time>
      </trkpt>
      <trkpt lat="46.07877" lon="6.4029">
        <ele>451</ele>
        <time>2011-04-30T08:35:12Z</time>
      </trkpt>
      <trkpt lat="46.07879" lon="6.40305">
        <ele>451</ele>
        <time>2011-04-30T08:35:14Z</time>
      </trkpt>
      <trkpt lat="46.07886" lon="6.40322">
        <ele>451</ele>
        <time>2011-04-30T08:35:16Z</time>
      </trkpt>
      <trkpt lat="46.07894" lon="6.40341">
        <ele>451</ele>
        <time>2011-04-30T08:35:18Z</time>
      </trkpt>
      <trkpt lat="46.07902" lon="6.40362">
        <ele>451</ele>
        <time>2011-04-30T08:35:20Z</time>
      </trkpt>
      <trkpt lat="46.0791" lon="6.40384">
        <ele>451</ele>
        <time>2011-04-30T08:35:22Z</time>
      </trkpt>
      <trkpt lat="46.07917" lon="6.40402">
        <ele>451</ele>
        <time>2011-04-30T08:35:24Z</time>
      </trkpt>
      <trkpt lat="46.07922" lon="6.40415">
        <ele>451</ele>
        <time>2011-04-30T08:35:26Z</time>
      </trkpt>
      <trkpt lat="46.0793" lon="6.40425">
        <ele>451</ele>
        <time>2011-04-30T08:35:30Z</time>
      </trkpt>
      <trkpt lat="46.0794" lon="6.40428">
        <ele>451</ele>
        <time>2011-04-30T08:35:34Z</time>
      </trkpt>
      <trkpt lat="46.07938" lon="6.40444">
        <ele>451</ele>
        <time>2011-04-30T08:35:37Z</time>
      </trkpt>
      <trkpt lat="46.0794" lon="6.40462">
        <ele>451</ele>
        <time>2011-04-30T08:35:39Z</time>
      </trkpt>
      <trkpt lat="46.07949" lon="6.40484">
        <ele>451</ele>
        <time>2011-04-30T08:35:41Z</time>
      </trkpt>
      <trkpt lat="46.07953" lon="6.40497">
        <ele>451</ele>
        <time>2011-04-30T08:35:42Z</time>
      </trkpt>
      <trkpt lat="46.07957" lon="6.40511">
        <ele>451</ele>
        <time>2011-04-30T08:35:43Z</time>
      </trkpt>
      <trkpt lat="46.07962" lon="6.40525">
        <ele>451</ele>
        <time>2011-04-30T08:35:44Z</time>
      </trkpt>
      <trkpt lat="46.07965" lon="6.40539">
        <ele>451</ele>
        <time>2011-04-30T08:35:45Z</time>
      </trkpt>
      <trkpt lat="46.07967" lon="6.40553">
        <ele>451</ele>
        <time>2011-04-30T08:35:46Z</time>
      </trkpt>
      <trkpt lat="46.0797" lon="6.40565">
        <ele>451</ele>
        <time>2011-04-30T08:35:47Z</time>
      </trkpt>
      <trkpt lat="46.07973" lon="6.40585">
        <ele>451</ele>
        <time>2011-04-30T08:35:49Z</time>
      </trkpt>
      <trkpt lat="46.07985" lon="6.40591">
        <ele>445</ele>
        <time>2011-04-30T08:36:00Z</time>
      </trkpt>
      <trkpt lat="46.08001" lon="6.40583">
        <ele>445</ele>
        <time>2011-04-30T08:36:02Z</time>
      </trkpt>
      <trkpt lat="46.08012" lon="6.40579">
        <ele>445</ele>
        <time>2011-04-30T08:36:03Z</time>
      </trkpt>
      <trkpt lat="46.08023" lon="6.40576">
        <ele>445</ele>
        <time>2011-04-30T08:36:04Z</time>
      </trkpt>
      <trkpt lat="46.08035" lon="6.40574">
        <ele>445</ele>
        <time>2011-04-30T08:36:05Z</time>
      </trkpt>
      <trkpt lat="46.08046" lon="6.40572">
        <ele>445</ele>
        <time>2011-04-30T08:36:06Z</time>
      </trkpt>
      <trkpt lat="46.08059" lon="6.40567">
        <ele>445</ele>
        <time>2011-04-30T08:36:07Z</time>
      </trkpt>
      <trkpt lat="46.08071" lon="6.40563">
        <ele>445</ele>
        <time>2011-04-30T08:36:08Z</time>
      </trkpt>
      <trkpt lat="46.08083" lon="6.40558">
        <ele>445</ele>
        <time>2011-04-30T08:36:09Z</time>
      </trkpt>
      <trkpt lat="46.08095" lon="6.40554">
        <ele>445</ele>
        <time>2011-04-30T08:36:10Z</time>
      </trkpt>
      <trkpt lat="46.08105" lon="6.40551">
        <ele>445</ele>
        <time>2011-04-30T08:36:11Z</time>
      </trkpt>
      <trkpt lat="46.08115" lon="6.40548">
        <ele>445</ele>
        <time>2011-04-30T08:36:12Z</time>
      </trkpt>
      <trkpt lat="46.08125" lon="6.40546">
        <ele>445</ele>
        <time>2011-04-30T08:36:13Z</time>
      </trkpt>
      <trkpt lat="46.08135" lon="6.40548">
        <ele>445</ele>
        <time>2011-04-30T08:36:14Z</time>
      </trkpt>
      <trkpt lat="46.08146" lon="6.40555">
        <ele>445</ele>
        <time>2011-04-30T08:36:15Z</time>
      </trkpt>
      <trkpt lat="46.08159" lon="6.40565">
        <ele>445</ele>
        <time>2011-04-30T08:36:16Z</time>
      </trkpt>
      <trkpt lat="46.08171" lon="6.40579">
        <ele>445</ele>
        <time>2011-04-30T08:36:17Z</time>
      </trkpt>
      <trkpt lat="46.08184" lon="6.40591">
        <ele>445</ele>
        <time>2011-04-30T08:36:18Z</time>
      </trkpt>
      <trkpt lat="46.08196" lon="6.40604">
        <ele>445</ele>
        <time>2011-04-30T08:36:19Z</time>
      </trkpt>
      <trkpt lat="46.08207" lon="6.40619">
        <ele>445</ele>
        <time>2011-04-30T08:36:20Z</time>
      </trkpt>
      <trkpt lat="46.08218" lon="6.40634">
        <ele>451</ele>
        <time>2011-04-30T08:36:21Z</time>
      </trkpt>
      <trkpt lat="46.08229" lon="6.40646">
        <ele>451</ele>
        <time>2011-04-30T08:36:22Z</time>
      </trkpt>
      <trkpt lat="46.08239" lon="6.40658">
        <ele>451</ele>
        <time>2011-04-30T08:36:23Z</time>
      </trkpt>
      <trkpt lat="46.08249" lon="6.40669">
        <ele>451</ele>
        <time>2011-04-30T08:36:24Z</time>
      </trkpt>
      <trkpt lat="46.08259" lon="6.40679">
        <ele>451</ele>
        <time>2011-04-30T08:36:25Z</time>
      </trkpt>
      <trkpt lat="46.08269" lon="6.40689">
        <ele>451</ele>
        <time>2011-04-30T08:36:26Z</time>
      </trkpt>
      <trkpt lat="46.0828" lon="6.40699">
        <ele>451</ele>
        <time>2011-04-30T08:36:27Z</time>
      </trkpt>
      <trkpt lat="46.08291" lon="6.40709">
        <ele>451</ele>
        <time>2011-04-30T08:36:28Z</time>
      </trkpt>
      <trkpt lat="46.08303" lon="6.40719">
        <ele>451</ele>
        <time>2011-04-30T08:36:29Z</time>
      </trkpt>
      <trkpt lat="46.08317" lon="6.40728">
        <ele>456</ele>
        <time>2011-04-30T08:36:30Z</time>
      </trkpt>
      <trkpt lat="46.08332" lon="6.40737">
        <ele>456</ele>
        <time>2011-04-30T08:36:31Z</time>
      </trkpt>
      <trkpt lat="46.08347" lon="6.40747">
        <ele>456</ele>
        <time>2011-04-30T08:36:32Z</time>
      </trkpt>
      <trkpt lat="46.08361" lon="6.40756">
        <ele>456</ele>
        <time>2011-04-30T08:36:33Z</time>
      </trkpt>
      <trkpt lat="46.08374" lon="6.40763">
        <ele>456</ele>
        <time>2011-04-30T08:36:34Z</time>
      </trkpt>
      <trkpt lat="46.08387" lon="6.40768">
        <ele>456</ele>
        <time>2011-04-30T08:36:35Z</time>
      </trkpt>
      <trkpt lat="46.08401" lon="6.40772">
        <ele>456</ele>
        <time>2011-04-30T08:36:36Z</time>
      </trkpt>
      <trkpt lat="46.08413" lon="6.40774">
        <ele>456</ele>
        <time>2011-04-30T08:36:37Z</time>
      </trkpt>
      <trkpt lat="46.08424" lon="6.40774">
        <ele>456</ele>
        <time>2011-04-30T08:36:38Z</time>
      </trkpt>
      <trkpt lat="46.08432" lon="6.4077">
        <ele>456</ele>
        <time>2011-04-30T08:36:39Z</time>
      </trkpt>
      <trkpt lat="46.08441" lon="6.40764">
        <ele>456</ele>
        <time>2011-04-30T08:36:40Z</time>
      </trkpt>
      <trkpt lat="46.08447" lon="6.40754">
        <ele>456</ele>
        <time>2011-04-30T08:36:41Z</time>
      </trkpt>
      <trkpt lat="46.08452" lon="6.4074">
        <ele>456</ele>
        <time>2011-04-30T08:36:42Z</time>
      </trkpt>
      <trkpt lat="46.08457" lon="6.40728">
        <ele>456</ele>
        <time>2011-04-30T08:36:43Z</time>
      </trkpt>
      <trkpt lat="46.08469" lon="6.40709">
        <ele>456</ele>
        <time>2011-04-30T08:36:45Z</time>
      </trkpt>
      <trkpt lat="46.08484" lon="6.40705">
        <ele>456</ele>
        <time>2011-04-30T08:36:47Z</time>
      </trkpt>
      <trkpt lat="46.08494" lon="6.40716">
        <ele>456</ele>
        <time>2011-04-30T08:36:49Z</time>
      </trkpt>
      <trkpt lat="46.08498" lon="6.40732">
        <ele>456</ele>
        <time>2011-04-30T08:36:51Z</time>
      </trkpt>
      <trkpt lat="46.08497" lon="6.40752">
        <ele>456</ele>
        <time>2011-04-30T08:36:53Z</time>
      </trkpt>
      <trkpt lat="46.08496" lon="6.40769">
        <ele>456</ele>
        <time>2011-04-30T08:36:55Z</time>
      </trkpt>
      <trkpt lat="46.08494" lon="6.40786">
        <ele>456</ele>
        <time>2011-04-30T08:36:57Z</time>
      </trkpt>
      <trkpt lat="46.0849" lon="6.40814">
        <ele>456</ele>
        <time>2011-04-30T08:36:59Z</time>
      </trkpt>
      <trkpt lat="46.08487" lon="6.40831">
        <ele>456</ele>
        <time>2011-04-30T08:37:00Z</time>
      </trkpt>
      <trkpt lat="46.08485" lon="6.40849">
        <ele>456</ele>
        <time>2011-04-30T08:37:01Z</time>
      </trkpt>
      <trkpt lat="46.08482" lon="6.40868">
        <ele>456</ele>
        <time>2011-04-30T08:37:02Z</time>
      </trkpt>
      <trkpt lat="46.0848" lon="6.40885">
        <ele>456</ele>
        <time>2011-04-30T08:37:03Z</time>
      </trkpt>
      <trkpt lat="46.08477" lon="6.40901">
        <ele>456</ele>
        <time>2011-04-30T08:37:04Z</time>
      </trkpt>
      <trkpt lat="46.08476" lon="6.40916">
        <ele>456</ele>
        <time>2011-04-30T08:37:05Z</time>
      </trkpt>
      <trkpt lat="46.08474" lon="6.4093">
        <ele>456</ele>
        <time>2011-04-30T08:37:06Z</time>
      </trkpt>
      <trkpt lat="46.08468" lon="6.40952">
        <ele>456</ele>
        <time>2011-04-30T08:37:08Z</time>
      </trkpt>
      <trkpt lat="46.08461" lon="6.4097">
        <ele>456</ele>
        <time>2011-04-30T08:37:10Z</time>
      </trkpt>
      <trkpt lat="46.08466" lon="6.40983">
        <ele>456</ele>
        <time>2011-04-30T08:37:13Z</time>
      </trkpt>
      <trkpt lat="46.08477" lon="6.40971">
        <ele>456</ele>
        <time>2011-04-30T08:37:15Z</time>
      </trkpt>
      <trkpt lat="46.08483" lon="6.40961">
        <ele>456</ele>
        <time>2011-04-30T08:37:16Z</time>
      </trkpt>
      <trkpt lat="46.08489" lon="6.4095">
        <ele>456</ele>
        <time>2011-04-30T08:37:17Z</time>
      </trkpt>
      <trkpt lat="46.08495" lon="6.4094">
        <ele>456</ele>
        <time>2011-04-30T08:37:18Z</time>
      </trkpt>
      <trkpt lat="46.08502" lon="6.4093">
        <ele>456</ele>
        <time>2011-04-30T08:37:19Z</time>
      </trkpt>
      <trkpt lat="46.0851" lon="6.40922">
        <ele>456</ele>
        <time>2011-04-30T08:37:20Z</time>
      </trkpt>
      <trkpt lat="46.08524" lon="6.40914">
        <ele>456</ele>
        <time>2011-04-30T08:37:22Z</time>
      </trkpt>
      <trkpt lat="46.08539" lon="6.40917">
        <ele>456</ele>
        <time>2011-04-30T08:37:24Z</time>
      </trkpt>
      <trkpt lat="46.08548" lon="6.40924">
        <ele>456</ele>
        <time>2011-04-30T08:37:25Z</time>
      </trkpt>
      <trkpt lat="46.08557" lon="6.4093">
        <ele>456</ele>
        <time>2011-04-30T08:37:26Z</time>
      </trkpt>
      <trkpt lat="46.08567" lon="6.40939">
        <ele>456</ele>
        <time>2011-04-30T08:37:27Z</time>
      </trkpt>
      <trkpt lat="46.08577" lon="6.40947">
        <ele>456</ele>
        <time>2011-04-30T08:37:28Z</time>
      </trkpt>
      <trkpt lat="46.08587" lon="6.40955">
        <ele>462</ele>
        <time>2011-04-30T08:37:29Z</time>
      </trkpt>
      <trkpt lat="46.08597" lon="6.40963">
        <ele>462</ele>
        <time>2011-04-30T08:37:30Z</time>
      </trkpt>
      <trkpt lat="46.08605" lon="6.4097">
        <ele>462</ele>
        <time>2011-04-30T08:37:31Z</time>
      </trkpt>
      <trkpt lat="46.08618" lon="6.40974">
        <ele>462</ele>
        <time>2011-04-30T08:37:33Z</time>
      </trkpt>
      <trkpt lat="46.0863" lon="6.40961">
        <ele>462</ele>
        <time>2011-04-30T08:37:35Z</time>
      </trkpt>
      <trkpt lat="46.08636" lon="6.40951">
        <ele>467</ele>
        <time>2011-04-30T08:37:36Z</time>
      </trkpt>
      <trkpt lat="46.08642" lon="6.40941">
        <ele>467</ele>
        <time>2011-04-30T08:37:37Z</time>
      </trkpt>
      <trkpt lat="46.08651" lon="6.4093">
        <ele>467</ele>
        <time>2011-04-30T08:37:38Z</time>
      </trkpt>
      <trkpt lat="46.08659" lon="6.4092">
        <ele>467</ele>
        <time>2011-04-30T08:37:39Z</time>
      </trkpt>
      <trkpt lat="46.08667" lon="6.40913">
        <ele>472</ele>
        <time>2011-04-30T08:37:40Z</time>
      </trkpt>
      <trkpt lat="46.08676" lon="6.40908">
        <ele>472</ele>
        <time>2011-04-30T08:37:41Z</time>
      </trkpt>
      <trkpt lat="46.0869" lon="6.40904">
        <ele>472</ele>
        <time>2011-04-30T08:37:43Z</time>
      </trkpt>
      <trkpt lat="46.08699" lon="6.40903">
        <ele>481</ele>
        <time>2011-04-30T08:37:46Z</time>
      </trkpt>
      <trkpt lat="46.08699" lon="6.4092">
        <ele>481</ele>
        <time>2011-04-30T08:37:50Z</time>
      </trkpt>
      <trkpt lat="46.08695" lon="6.4094">
        <ele>481</ele>
        <time>2011-04-30T08:37:52Z</time>
      </trkpt>
      <trkpt lat="46.08689" lon="6.40961">
        <ele>486</ele>
        <time>2011-04-30T08:37:54Z</time>
      </trkpt>
      <trkpt lat="46.08684" lon="6.40984">
        <ele>486</ele>
        <time>2011-04-30T08:37:56Z</time>
      </trkpt>
      <trkpt lat="46.08681" lon="6.40997">
        <ele>486</ele>
        <time>2011-04-30T08:37:57Z</time>
      </trkpt>
      <trkpt lat="46.08678" lon="6.41022">
        <ele>486</ele>
        <time>2011-04-30T08:37:59Z</time>
      </trkpt>
      <trkpt lat="46.08676" lon="6.41042">
        <ele>486</ele>
        <time>2011-04-30T08:38:01Z</time>
      </trkpt>
      <trkpt lat="46.08674" lon="6.41057">
        <ele>492</ele>
        <time>2011-04-30T08:38:03Z</time>
      </trkpt>
      <trkpt lat="46.08675" lon="6.4107">
        <ele>492</ele>
        <time>2011-04-30T08:38:06Z</time>
      </trkpt>
      <trkpt lat="46.08675" lon="6.41057">
        <ele>492</ele>
        <time>2011-04-30T08:40:28Z</time>
      </trkpt>
      <trkpt lat="46.08677" lon="6.41039">
        <ele>492</ele>
        <time>2011-04-30T08:40:31Z</time>
      </trkpt>
      <trkpt lat="46.08679" lon="6.41022">
        <ele>492</ele>
        <time>2011-04-30T08:40:33Z</time>
      </trkpt>
      <trkpt lat="46.08681" lon="6.41004">
        <ele>492</ele>
        <time>2011-04-30T08:40:35Z</time>
      </trkpt>
      <trkpt lat="46.08684" lon="6.40985">
        <ele>492</ele>
        <time>2011-04-30T08:40:37Z</time>
      </trkpt>
      <trkpt lat="46.08689" lon="6.40965">
        <ele>487</ele>
        <time>2011-04-30T08:40:39Z</time>
      </trkpt>
      <trkpt lat="46.08694" lon="6.40947">
        <ele>487</ele>
        <time>2011-04-30T08:40:41Z</time>
      </trkpt>
      <trkpt lat="46.08697" lon="6.4093">
        <ele>487</ele>
        <time>2011-04-30T08:40:43Z</time>
      </trkpt>
      <trkpt lat="46.087" lon="6.40911">
        <ele>487</ele>
        <time>2011-04-30T08:40:45Z</time>
      </trkpt>
      <trkpt lat="46.08702" lon="6.40898">
        <ele>487</ele>
        <time>2011-04-30T08:40:47Z</time>
      </trkpt>
      <trkpt lat="46.08714" lon="6.40888">
        <ele>487</ele>
        <time>2011-04-30T08:40:50Z</time>
      </trkpt>
      <trkpt lat="46.08725" lon="6.40889">
        <ele>487</ele>
        <time>2011-04-30T08:40:52Z</time>
      </trkpt>
      <trkpt lat="46.08738" lon="6.40896">
        <ele>487</ele>
        <time>2011-04-30T08:40:54Z</time>
      </trkpt>
      <trkpt lat="46.08753" lon="6.40905">
        <ele>487</ele>
        <time>2011-04-30T08:40:56Z</time>
      </trkpt>
      <trkpt lat="46.08762" lon="6.4091">
        <ele>487</ele>
        <time>2011-04-30T08:40:57Z</time>
      </trkpt>
      <trkpt lat="46.08771" lon="6.40916">
        <ele>487</ele>
        <time>2011-04-30T08:40:58Z</time>
      </trkpt>
      <trkpt lat="46.0878" lon="6.4092">
        <ele>487</ele>
        <time>2011-04-30T08:40:59Z</time>
      </trkpt>
      <trkpt lat="46.08789" lon="6.40926">
        <ele>492</ele>
        <time>2011-04-30T08:41:00Z</time>
      </trkpt>
      <trkpt lat="46.08798" lon="6.4093">
        <ele>492</ele>
        <time>2011-04-30T08:41:01Z</time>
      </trkpt>
      <trkpt lat="46.08809" lon="6.40936">
        <ele>492</ele>
        <time>2011-04-30T08:41:03Z</time>
      </trkpt>
      <trkpt lat="46.08812" lon="6.40949">
        <ele>501</ele>
        <time>2011-04-30T08:41:07Z</time>
      </trkpt>
      <trkpt lat="46.08806" lon="6.40936">
        <ele>507</ele>
        <time>2011-04-30T08:41:32Z</time>
      </trkpt>
      <trkpt lat="46.08797" lon="6.40933">
        <ele>507</ele>
        <time>2011-04-30T08:41:35Z</time>
      </trkpt>
      <trkpt lat="46.08787" lon="6.40926">
        <ele>507</ele>
        <time>2011-04-30T08:41:37Z</time>
      </trkpt>
      <trkpt lat="46.08775" lon="6.40917">
        <ele>507</ele>
        <time>2011-04-30T08:41:39Z</time>
      </trkpt>
      <trkpt lat="46.08762" lon="6.4091">
        <ele>501</ele>
        <time>2011-04-30T08:41:41Z</time>
      </trkpt>
      <trkpt lat="46.08749" lon="6.409">
        <ele>501</ele>
        <time>2011-04-30T08:41:43Z</time>
      </trkpt>
      <trkpt lat="46.08736" lon="6.40892">
        <ele>501</ele>
        <time>2011-04-30T08:41:45Z</time>
      </trkpt>
      <trkpt lat="46.08725" lon="6.40885">
        <ele>494</ele>
        <time>2011-04-30T08:41:47Z</time>
      </trkpt>
      <trkpt lat="46.08714" lon="6.40883">
        <ele>494</ele>
        <time>2011-04-30T08:41:49Z</time>
      </trkpt>
      <trkpt lat="46.08702" lon="6.40889">
        <ele>494</ele>
        <time>2011-04-30T08:41:52Z</time>
      </trkpt>
      <trkpt lat="46.08696" lon="6.40909">
        <ele>488</ele>
        <time>2011-04-30T08:41:55Z</time>
      </trkpt>
      <trkpt lat="46.08694" lon="6.40922">
        <ele>488</ele>
        <time>2011-04-30T08:41:56Z</time>
      </trkpt>
      <trkpt lat="46.08691" lon="6.40939">
        <ele>488</ele>
        <time>2011-04-30T08:41:57Z</time>
      </trkpt>
      <trkpt lat="46.08687" lon="6.40957">
        <ele>488</ele>
        <time>2011-04-30T08:41:58Z</time>
      </trkpt>
      <trkpt lat="46.08682" lon="6.40976">
        <ele>488</ele>
        <time>2011-04-30T08:41:59Z</time>
      </trkpt>
      <trkpt lat="46.08679" lon="6.40995">
        <ele>488</ele>
        <time>2011-04-30T08:42:00Z</time>
      </trkpt>
      <trkpt lat="46.08677" lon="6.41014">
        <ele>488</ele>
        <time>2011-04-30T08:42:01Z</time>
      </trkpt>
      <trkpt lat="46.08676" lon="6.41036">
        <ele>488</ele>
        <time>2011-04-30T08:42:02Z</time>
      </trkpt>
      <trkpt lat="46.08673" lon="6.41059">
        <ele>488</ele>
        <time>2011-04-30T08:42:03Z</time>
      </trkpt>
      <trkpt lat="46.08671" lon="6.41083">
        <ele>488</ele>
        <time>2011-04-30T08:42:04Z</time>
      </trkpt>
      <trkpt lat="46.08669" lon="6.41105">
        <ele>488</ele>
        <time>2011-04-30T08:42:05Z</time>
      </trkpt>
      <trkpt lat="46.08668" lon="6.41125">
        <ele>488</ele>
        <time>2011-04-30T08:42:06Z</time>
      </trkpt>
      <trkpt lat="46.08667" lon="6.41141">
        <ele>488</ele>
        <time>2011-04-30T08:42:07Z</time>
      </trkpt>
      <trkpt lat="46.08665" lon="6.41163">
        <ele>488</ele>
        <time>2011-04-30T08:42:09Z</time>
      </trkpt>
      <trkpt lat="46.08666" lon="6.41183">
        <ele>494</ele>
        <time>2011-04-30T08:42:11Z</time>
      </trkpt>
      <trkpt lat="46.08665" lon="6.4121">
        <ele>494</ele>
        <time>2011-04-30T08:42:13Z</time>
      </trkpt>
      <trkpt lat="46.08666" lon="6.41226">
        <ele>494</ele>
        <time>2011-04-30T08:42:14Z</time>
      </trkpt>
      <trkpt lat="46.08668" lon="6.41242">
        <ele>494</ele>
        <time>2011-04-30T08:42:15Z</time>
      </trkpt>
      <trkpt lat="46.0867" lon="6.41257">
        <ele>494</ele>
        <time>2011-04-30T08:42:16Z</time>
      </trkpt>
      <trkpt lat="46.08671" lon="6.41271">
        <ele>499</ele>
        <time>2011-04-30T08:42:17Z</time>
      </trkpt>
      <trkpt lat="46.08674" lon="6.41287">
        <ele>499</ele>
        <time>2011-04-30T08:42:19Z</time>
      </trkpt>
      <trkpt lat="46.08681" lon="6.41295">
        <ele>499</ele>
        <time>2011-04-30T08:42:21Z</time>
      </trkpt>
      <trkpt lat="46.08695" lon="6.41301">
        <ele>505</ele>
        <time>2011-04-30T08:42:23Z</time>
      </trkpt>
      <trkpt lat="46.08708" lon="6.41309">
        <ele>505</ele>
        <time>2011-04-30T08:42:25Z</time>
      </trkpt>
      <trkpt lat="46.08716" lon="6.41322">
        <ele>510</ele>
        <time>2011-04-30T08:42:28Z</time>
      </trkpt>
      <trkpt lat="46.08718" lon="6.41335">
        <ele>510</ele>
        <time>2011-04-30T08:42:30Z</time>
      </trkpt>
      <trkpt lat="46.08721" lon="6.4135">
        <ele>510</ele>
        <time>2011-04-30T08:42:32Z</time>
      </trkpt>
      <trkpt lat="46.08722" lon="6.41368">
        <ele>510</ele>
        <time>2011-04-30T08:42:34Z</time>
      </trkpt>
      <trkpt lat="46.08723" lon="6.41385">
        <ele>515</ele>
        <time>2011-04-30T08:42:36Z</time>
      </trkpt>
      <trkpt lat="46.08725" lon="6.41405">
        <ele>515</ele>
        <time>2011-04-30T08:42:38Z</time>
      </trkpt>
      <trkpt lat="46.08726" lon="6.4143">
        <ele>515</ele>
        <time>2011-04-30T08:42:40Z</time>
      </trkpt>
      <trkpt lat="46.08725" lon="6.41444">
        <ele>515</ele>
        <time>2011-04-30T08:42:41Z</time>
      </trkpt>
      <trkpt lat="46.08724" lon="6.41458">
        <ele>515</ele>
        <time>2011-04-30T08:42:42Z</time>
      </trkpt>
      <trkpt lat="46.08722" lon="6.41473">
        <ele>515</ele>
        <time>2011-04-30T08:42:43Z</time>
      </trkpt>
      <trkpt lat="46.08719" lon="6.41493">
        <ele>521</ele>
        <time>2011-04-30T08:42:45Z</time>
      </trkpt>
      <trkpt lat="46.08729" lon="6.415">
        <ele>521</ele>
        <time>2011-04-30T08:42:50Z</time>
      </trkpt>
      <trkpt lat="46.08739" lon="6.41495">
        <ele>521</ele>
        <time>2011-04-30T08:42:52Z</time>
      </trkpt>
      <trkpt lat="46.08752" lon="6.41483">
        <ele>521</ele>
        <time>2011-04-30T08:42:54Z</time>
      </trkpt>
      <trkpt lat="46.08764" lon="6.41462">
        <ele>521</ele>
        <time>2011-04-30T08:42:56Z</time>
      </trkpt>
      <trkpt lat="46.08768" lon="6.41447">
        <ele>521</ele>
        <time>2011-04-30T08:42:57Z</time>
      </trkpt>
      <trkpt lat="46.08772" lon="6.4143">
        <ele>521</ele>
        <time>2011-04-30T08:42:58Z</time>
      </trkpt>
      <trkpt lat="46.08774" lon="6.41413">
        <ele>521</ele>
        <time>2011-04-30T08:42:59Z</time>
      </trkpt>
      <trkpt lat="46.08777" lon="6.414">
        <ele>521</ele>
        <time>2011-04-30T08:43:00Z</time>
      </trkpt>
      <trkpt lat="46.08781" lon="6.41378">
        <ele>527</ele>
        <time>2011-04-30T08:43:02Z</time>
      </trkpt>
      <trkpt lat="46.08787" lon="6.41367">
        <ele>527</ele>
        <time>2011-04-30T08:43:04Z</time>
      </trkpt>
      <trkpt lat="46.08792" lon="6.4135">
        <ele>527</ele>
        <time>2011-04-30T08:43:06Z</time>
      </trkpt>
      <trkpt lat="46.08794" lon="6.41338">
        <ele>527</ele>
        <time>2011-04-30T08:43:07Z</time>
      </trkpt>
      <trkpt lat="46.08798" lon="6.41324">
        <ele>527</ele>
        <time>2011-04-30T08:43:08Z</time>
      </trkpt>
      <trkpt lat="46.08802" lon="6.41312">
        <ele>527</ele>
        <time>2011-04-30T08:43:09Z</time>
      </trkpt>
      <trkpt lat="46.08807" lon="6.41299">
        <ele>527</ele>
        <time>2011-04-30T08:43:10Z</time>
      </trkpt>
      <trkpt lat="46.08812" lon="6.41287">
        <ele>527</ele>
        <time>2011-04-30T08:43:11Z</time>
      </trkpt>
      <trkpt lat="46.08818" lon="6.41276">
        <ele>527</ele>
        <time>2011-04-30T08:43:12Z</time>
      </trkpt>
      <trkpt lat="46.08824" lon="6.41252">
        <ele>527</ele>
        <time>2011-04-30T08:43:14Z</time>
      </trkpt>
      <trkpt lat="46.08823" lon="6.41238">
        <ele>527</ele>
        <time>2011-04-30T08:43:15Z</time>
      </trkpt>
      <trkpt lat="46.08819" lon="6.41226">
        <ele>527</ele>
        <time>2011-04-30T08:43:16Z</time>
      </trkpt>
      <trkpt lat="46.08812" lon="6.41214">
        <ele>527</ele>
        <time>2011-04-30T08:43:17Z</time>
      </trkpt>
      <trkpt lat="46.08803" lon="6.41205">
        <ele>527</ele>
        <time>2011-04-30T08:43:18Z</time>
      </trkpt>
      <trkpt lat="46.08794" lon="6.41196">
        <ele>527</ele>
        <time>2011-04-30T08:43:19Z</time>
      </trkpt>
      <trkpt lat="46.08781" lon="6.4118">
        <ele>527</ele>
        <time>2011-04-30T08:43:21Z</time>
      </trkpt>
      <trkpt lat="46.08772" lon="6.41162">
        <ele>527</ele>
        <time>2011-04-30T08:43:23Z</time>
      </trkpt>
      <trkpt lat="46.08768" lon="6.41148">
        <ele>527</ele>
        <time>2011-04-30T08:43:25Z</time>
      </trkpt>
      <trkpt lat="46.08779" lon="6.41147">
        <ele>518</ele>
        <time>2011-04-30T08:43:32Z</time>
      </trkpt>
      <trkpt lat="46.08789" lon="6.41152">
        <ele>518</ele>
        <time>2011-04-30T08:43:34Z</time>
      </trkpt>
      <trkpt lat="46.08799" lon="6.41156">
        <ele>518</ele>
        <time>2011-04-30T08:43:36Z</time>
      </trkpt>
      <trkpt lat="46.08812" lon="6.41157">
        <ele>518</ele>
        <time>2011-04-30T08:43:38Z</time>
      </trkpt>
      <trkpt lat="46.08827" lon="6.41153">
        <ele>525</ele>
        <time>2011-04-30T08:43:40Z</time>
      </trkpt>
      <trkpt lat="46.08842" lon="6.41149">
        <ele>525</ele>
        <time>2011-04-30T08:43:42Z</time>
      </trkpt>
      <trkpt lat="46.08856" lon="6.41146">
        <ele>533</ele>
        <time>2011-04-30T08:43:44Z</time>
      </trkpt>
      <trkpt lat="46.08868" lon="6.41143">
        <ele>533</ele>
        <time>2011-04-30T08:43:46Z</time>
      </trkpt>
      <trkpt lat="46.08881" lon="6.41136">
        <ele>539</ele>
        <time>2011-04-30T08:43:48Z</time>
      </trkpt>
      <trkpt lat="46.08891" lon="6.41131">
        <ele>539</ele>
        <time>2011-04-30T08:43:50Z</time>
      </trkpt>
      <trkpt lat="46.08902" lon="6.41135">
        <ele>539</ele>
        <time>2011-04-30T08:43:52Z</time>
      </trkpt>
      <trkpt lat="46.08912" lon="6.41138">
        <ele>546</ele>
        <time>2011-04-30T08:43:54Z</time>
      </trkpt>
      <trkpt lat="46.08921" lon="6.41127">
        <ele>546</ele>
        <time>2011-04-30T08:43:57Z</time>
      </trkpt>
      <trkpt lat="46.08929" lon="6.41116">
        <ele>553</ele>
        <time>2011-04-30T08:43:59Z</time>
      </trkpt>
      <trkpt lat="46.08939" lon="6.41107">
        <ele>553</ele>
        <time>2011-04-30T08:44:01Z</time>
      </trkpt>
      <trkpt lat="46.08948" lon="6.41111">
        <ele>562</ele>
        <time>2011-04-30T08:44:04Z</time>
      </trkpt>
      <trkpt lat="46.08959" lon="6.4112">
        <ele>569</ele>
        <time>2011-04-30T08:44:08Z</time>
      </trkpt>
      <trkpt lat="46.08971" lon="6.41127">
        <ele>569</ele>
        <time>2011-04-30T08:44:11Z</time>
      </trkpt>
      <trkpt lat="46.08981" lon="6.4112">
        <ele>582</ele>
        <time>2011-04-30T08:44:16Z</time>
      </trkpt>
      <trkpt lat="46.08992" lon="6.41118">
        <ele>591</ele>
        <time>2011-04-30T08:44:20Z</time>
      </trkpt>
      <trkpt lat="46.09002" lon="6.41119">
        <ele>591</ele>
        <time>2011-04-30T08:44:22Z</time>
      </trkpt>
      <trkpt lat="46.09012" lon="6.41122">
        <ele>591</ele>
        <time>2011-04-30T08:44:26Z</time>
      </trkpt>
      <trkpt lat="46.09024" lon="6.41129">
        <ele>600</ele>
        <time>2011-04-30T08:44:31Z</time>
      </trkpt>
      <trkpt lat="46.09035" lon="6.41125">
        <ele>600</ele>
        <time>2011-04-30T08:44:34Z</time>
      </trkpt>
      <trkpt lat="46.09044" lon="6.41125">
        <ele>609</ele>
        <time>2011-04-30T08:44:38Z</time>
      </trkpt>
      <trkpt lat="46.09035" lon="6.41123">
        <ele>624</ele>
        <time>2011-04-30T08:45:19Z</time>
      </trkpt>
      <trkpt lat="46.09044" lon="6.41123">
        <ele>624</ele>
        <time>2011-04-30T08:45:38Z</time>
      </trkpt>
      <trkpt lat="46.09056" lon="6.4112">
        <ele>624</ele>
        <time>2011-04-30T08:45:41Z</time>
      </trkpt>
      <trkpt lat="46.09068" lon="6.41121">
        <ele>616</ele>
        <time>2011-04-30T08:45:45Z</time>
      </trkpt>
      <trkpt lat="46.09078" lon="6.41124">
        <ele>616</ele>
        <time>2011-04-30T08:45:48Z</time>
      </trkpt>
      <trkpt lat="46.09087" lon="6.41129">
        <ele>616</ele>
        <time>2011-04-30T08:45:50Z</time>
      </trkpt>
      <trkpt lat="46.09098" lon="6.41132">
        <ele>616</ele>
        <time>2011-04-30T08:45:52Z</time>
      </trkpt>
      <trkpt lat="46.09111" lon="6.41137">
        <ele>616</ele>
        <time>2011-04-30T08:45:54Z</time>
      </trkpt>
      <trkpt lat="46.09122" lon="6.41143">
        <ele>621</ele>
        <time>2011-04-30T08:45:56Z</time>
      </trkpt>
      <trkpt lat="46.09134" lon="6.41139">
        <ele>621</ele>
        <time>2011-04-30T08:45:59Z</time>
      </trkpt>
      <trkpt lat="46.09143" lon="6.41129">
        <ele>621</ele>
        <time>2011-04-30T08:46:03Z</time>
      </trkpt>
      <trkpt lat="46.09156" lon="6.41123">
        <ele>621</ele>
        <time>2011-04-30T08:46:06Z</time>
      </trkpt>
      <trkpt lat="46.09168" lon="6.41122">
        <ele>627</ele>
        <time>2011-04-30T08:46:08Z</time>
      </trkpt>
      <trkpt lat="46.09177" lon="6.41126">
        <ele>627</ele>
        <time>2011-04-30T08:46:10Z</time>
      </trkpt>
      <trkpt lat="46.09187" lon="6.41129">
        <ele>633</ele>
        <time>2011-04-30T08:46:12Z</time>
      </trkpt>
      <trkpt lat="46.09197" lon="6.41128">
        <ele>633</ele>
        <time>2011-04-30T08:46:14Z</time>
      </trkpt>
      <trkpt lat="46.09206" lon="6.41127">
        <ele>641</ele>
        <time>2011-04-30T08:46:18Z</time>
      </trkpt>
      <trkpt lat="46.09202" lon="6.41113">
        <ele>641</ele>
        <time>2011-04-30T08:46:27Z</time>
      </trkpt>
      <trkpt lat="46.09209" lon="6.41122">
        <ele>641</ele>
        <time>2011-04-30T08:51:43Z</time>
      </trkpt>
      <trkpt lat="46.0922" lon="6.41127">
        <ele>641</ele>
        <time>2011-04-30T08:51:46Z</time>
      </trkpt>
      <trkpt lat="46.09232" lon="6.41134">
        <ele>641</ele>
        <time>2011-04-30T08:51:49Z</time>
      </trkpt>
      <trkpt lat="46.09241" lon="6.41144">
        <ele>649</ele>
        <time>2011-04-30T08:51:51Z</time>
      </trkpt>
      <trkpt lat="46.0925" lon="6.41155">
        <ele>649</ele>
        <time>2011-04-30T08:51:53Z</time>
      </trkpt>
      <trkpt lat="46.09257" lon="6.41164">
        <ele>649</ele>
        <time>2011-04-30T08:51:55Z</time>
      </trkpt>
      <trkpt lat="46.09266" lon="6.41167">
        <ele>658</ele>
        <time>2011-04-30T08:51:57Z</time>
      </trkpt>
      <trkpt lat="46.09277" lon="6.41173">
        <ele>665</ele>
        <time>2011-04-30T08:52:00Z</time>
      </trkpt>
      <trkpt lat="46.09287" lon="6.41182">
        <ele>671</ele>
        <time>2011-04-30T08:52:03Z</time>
      </trkpt>
      <trkpt lat="46.09297" lon="6.41178">
        <ele>683</ele>
        <time>2011-04-30T08:52:09Z</time>
      </trkpt>
      <trkpt lat="46.09307" lon="6.4117">
        <ele>683</ele>
        <time>2011-04-30T08:52:12Z</time>
      </trkpt>
      <trkpt lat="46.09316" lon="6.41174">
        <ele>689</ele>
        <time>2011-04-30T08:52:15Z</time>
      </trkpt>
      <trkpt lat="46.09307" lon="6.41167">
        <ele>708</ele>
        <time>2011-04-30T08:53:14Z</time>
      </trkpt>
      <trkpt lat="46.09317" lon="6.41177">
        <ele>692</ele>
        <time>2011-04-30T08:55:40Z</time>
      </trkpt>
      <trkpt lat="46.09327" lon="6.4118">
        <ele>692</ele>
        <time>2011-04-30T08:55:52Z</time>
      </trkpt>
      <trkpt lat="46.09339" lon="6.41182">
        <ele>692</ele>
        <time>2011-04-30T08:56:24Z</time>
      </trkpt>
      <trkpt lat="46.09347" lon="6.41186">
        <ele>692</ele>
        <time>2011-04-30T08:56:34Z</time>
      </trkpt>
      <trkpt lat="46.09357" lon="6.41186">
        <ele>702</ele>
        <time>2011-04-30T08:56:54Z</time>
      </trkpt>
      <trkpt lat="46.09369" lon="6.41189">
        <ele>702</ele>
        <time>2011-04-30T08:57:00Z</time>
      </trkpt>
      <trkpt lat="46.09377" lon="6.41195">
        <ele>702</ele>
        <time>2011-04-30T08:57:02Z</time>
      </trkpt>
      <trkpt lat="46.09387" lon="6.41205">
        <ele>707</ele>
        <time>2011-04-30T08:57:04Z</time>
      </trkpt>
      <trkpt lat="46.09397" lon="6.41212">
        <ele>707</ele>
        <time>2011-04-30T08:57:06Z</time>
      </trkpt>
      <trkpt lat="46.09406" lon="6.41215">
        <ele>707</ele>
        <time>2011-04-30T08:57:08Z</time>
      </trkpt>
      <trkpt lat="46.09417" lon="6.41221">
        <ele>716</ele>
        <time>2011-04-30T08:57:11Z</time>
      </trkpt>
      <trkpt lat="46.09427" lon="6.41226">
        <ele>716</ele>
        <time>2011-04-30T08:57:14Z</time>
      </trkpt>
      <trkpt lat="46.09437" lon="6.41224">
        <ele>723</ele>
        <time>2011-04-30T08:57:16Z</time>
      </trkpt>
      <trkpt lat="46.09446" lon="6.41221">
        <ele>723</ele>
        <time>2011-04-30T08:57:18Z</time>
      </trkpt>
      <trkpt lat="46.09455" lon="6.41226">
        <ele>730</ele>
        <time>2011-04-30T08:57:20Z</time>
      </trkpt>
      <trkpt lat="46.09464" lon="6.41229">
        <ele>730</ele>
        <time>2011-04-30T08:57:22Z</time>
      </trkpt>
      <trkpt lat="46.09472" lon="6.41238">
        <ele>737</ele>
        <time>2011-04-30T08:57:25Z</time>
      </trkpt>
      <trkpt lat="46.09476" lon="6.41255">
        <ele>743</ele>
        <time>2011-04-30T08:57:28Z</time>
      </trkpt>
      <trkpt lat="46.09484" lon="6.41264">
        <ele>743</ele>
        <time>2011-04-30T08:57:31Z</time>
      </trkpt>
      <trkpt lat="46.09494" lon="6.41259">
        <ele>749</ele>
        <time>2011-04-30T08:57:34Z</time>
      </trkpt>
      <trkpt lat="46.09502" lon="6.41253">
        <ele>749</ele>
        <time>2011-04-30T08:58:54Z</time>
      </trkpt>
      <trkpt lat="46.09511" lon="6.41243">
        <ele>749</ele>
        <time>2011-04-30T08:58:56Z</time>
      </trkpt>
      <trkpt lat="46.09521" lon="6.41235">
        <ele>749</ele>
        <time>2011-04-30T08:58:58Z</time>
      </trkpt>
      <trkpt lat="46.09535" lon="6.41235">
        <ele>749</ele>
        <time>2011-04-30T08:59:00Z</time>
      </trkpt>
      <trkpt lat="46.09549" lon="6.41233">
        <ele>749</ele>
        <time>2011-04-30T08:59:02Z</time>
      </trkpt>
      <trkpt lat="46.09564" lon="6.41226">
        <ele>749</ele>
        <time>2011-04-30T08:59:04Z</time>
      </trkpt>
      <trkpt lat="46.09579" lon="6.41217">
        <ele>749</ele>
        <time>2011-04-30T08:59:06Z</time>
      </trkpt>
      <trkpt lat="46.09596" lon="6.41213">
        <ele>756</ele>
        <time>2011-04-30T08:59:08Z</time>
      </trkpt>
      <trkpt lat="46.09612" lon="6.41209">
        <ele>756</ele>
        <time>2011-04-30T08:59:10Z</time>
      </trkpt>
      <trkpt lat="46.09623" lon="6.41209">
        <ele>763</ele>
        <time>2011-04-30T08:59:12Z</time>
      </trkpt>
      <trkpt lat="46.09635" lon="6.41215">
        <ele>769</ele>
        <time>2011-04-30T08:59:15Z</time>
      </trkpt>
      <trkpt lat="46.09646" lon="6.41218">
        <ele>777</ele>
        <time>2011-04-30T08:59:19Z</time>
      </trkpt>
      <trkpt lat="46.09656" lon="6.41223">
        <ele>783</ele>
        <time>2011-04-30T08:59:23Z</time>
      </trkpt>
      <trkpt lat="46.09664" lon="6.41226">
        <ele>790</ele>
        <time>2011-04-30T08:59:52Z</time>
      </trkpt>
      <trkpt lat="46.09674" lon="6.41233">
        <ele>790</ele>
        <time>2011-04-30T08:59:56Z</time>
      </trkpt>
      <trkpt lat="46.09682" lon="6.41226">
        <ele>796</ele>
        <time>2011-04-30T09:00:00Z</time>
      </trkpt>
      <trkpt lat="46.09685" lon="6.41209">
        <ele>796</ele>
        <time>2011-04-30T09:00:04Z</time>
      </trkpt>
      <trkpt lat="46.09692" lon="6.41196">
        <ele>803</ele>
        <time>2011-04-30T09:00:08Z</time>
      </trkpt>
      <trkpt lat="46.09699" lon="6.41185">
        <ele>803</ele>
        <time>2011-04-30T09:00:11Z</time>
      </trkpt>
      <trkpt lat="46.09706" lon="6.41176">
        <ele>803</ele>
        <time>2011-04-30T09:00:13Z</time>
      </trkpt>
      <trkpt lat="46.09712" lon="6.41167">
        <ele>803</ele>
        <time>2011-04-30T09:00:15Z</time>
      </trkpt>
      <trkpt lat="46.09719" lon="6.41158">
        <ele>809</ele>
        <time>2011-04-30T09:00:17Z</time>
      </trkpt>
      <trkpt lat="46.09726" lon="6.41148">
        <ele>816</ele>
        <time>2011-04-30T09:01:00Z</time>
      </trkpt>
      <trkpt lat="46.09737" lon="6.41138">
        <ele>816</ele>
        <time>2011-04-30T09:01:04Z</time>
      </trkpt>
      <trkpt lat="46.09746" lon="6.41126">
        <ele>816</ele>
        <time>2011-04-30T09:01:07Z</time>
      </trkpt>
      <trkpt lat="46.09755" lon="6.4112">
        <ele>816</ele>
        <time>2011-04-30T09:01:10Z</time>
      </trkpt>
      <trkpt lat="46.09766" lon="6.4112">
        <ele>825</ele>
        <time>2011-04-30T09:01:13Z</time>
      </trkpt>
      <trkpt lat="46.09774" lon="6.41125">
        <ele>825</ele>
        <time>2011-04-30T09:01:17Z</time>
      </trkpt>
      <trkpt lat="46.09772" lon="6.41112">
        <ele>856</ele>
        <time>2011-04-30T09:02:46Z</time>
      </trkpt>
      <trkpt lat="46.09774" lon="6.41126">
        <ele>844</ele>
        <time>2011-04-30T09:04:02Z</time>
      </trkpt>
      <trkpt lat="46.09784" lon="6.4113">
        <ele>844</ele>
        <time>2011-04-30T09:04:06Z</time>
      </trkpt>
      <trkpt lat="46.09792" lon="6.41137">
        <ele>844</ele>
        <time>2011-04-30T09:04:09Z</time>
      </trkpt>
      <trkpt lat="46.098" lon="6.41149">
        <ele>844</ele>
        <time>2011-04-30T09:04:13Z</time>
      </trkpt>
      <trkpt lat="46.09812" lon="6.4116">
        <ele>844</ele>
        <time>2011-04-30T09:04:16Z</time>
      </trkpt>
      <trkpt lat="46.09823" lon="6.41168">
        <ele>844</ele>
        <time>2011-04-30T09:04:18Z</time>
      </trkpt>
      <trkpt lat="46.0983" lon="6.41178">
        <ele>844</ele>
        <time>2011-04-30T09:04:20Z</time>
      </trkpt>
      <trkpt lat="46.09834" lon="6.41194">
        <ele>850</ele>
        <time>2011-04-30T09:04:23Z</time>
      </trkpt>
      <trkpt lat="46.09843" lon="6.41201">
        <ele>850</ele>
        <time>2011-04-30T09:04:28Z</time>
      </trkpt>
      <trkpt lat="46.09837" lon="6.41211">
        <ele>868</ele>
        <time>2011-04-30T09:06:07Z</time>
      </trkpt>
      <trkpt lat="46.09834" lon="6.41198">
        <ele>868</ele>
        <time>2011-04-30T09:06:23Z</time>
      </trkpt>
      <trkpt lat="46.09842" lon="6.41206">
        <ele>846</ele>
        <time>2011-04-30T09:08:37Z</time>
      </trkpt>
      <trkpt lat="46.09833" lon="6.41206">
        <ele>872</ele>
        <time>2011-04-30T09:09:01Z</time>
      </trkpt>
      <trkpt lat="46.09842" lon="6.41206">
        <ele>866</ele>
        <time>2011-04-30T09:09:42Z</time>
      </trkpt>
      <trkpt lat="46.09851" lon="6.41201">
        <ele>879</ele>
        <time>2011-04-30T09:10:20Z</time>
      </trkpt>
      <trkpt lat="46.0986" lon="6.41207">
        <ele>869</ele>
        <time>2011-04-30T09:11:31Z</time>
      </trkpt>
      <trkpt lat="46.09854" lon="6.41217">
        <ele>890</ele>
        <time>2011-04-30T09:12:30Z</time>
      </trkpt>
      <trkpt lat="46.09862" lon="6.41224">
        <ele>883</ele>
        <time>2011-04-30T09:13:51Z</time>
      </trkpt>
      <trkpt lat="46.09868" lon="6.41213">
        <ele>871</ele>
        <time>2011-04-30T09:14:27Z</time>
      </trkpt>
      <trkpt lat="46.09861" lon="6.41221">
        <ele>886</ele>
        <time>2011-04-30T09:14:53Z</time>
      </trkpt>
      <trkpt lat="46.09854" lon="6.41232">
        <ele>909</ele>
        <time>2011-04-30T09:15:15Z</time>
      </trkpt>
      <trkpt lat="46.09858" lon="6.41218">
        <ele>900</ele>
        <time>2011-04-30T09:15:24Z</time>
      </trkpt>
      <trkpt lat="46.09864" lon="6.41208">
        <ele>885</ele>
        <time>2011-04-30T09:15:34Z</time>
      </trkpt>
      <trkpt lat="46.09869" lon="6.41196">
        <ele>885</ele>
        <time>2011-04-30T09:16:04Z</time>
      </trkpt>
      <trkpt lat="46.09864" lon="6.41208">
        <ele>900</ele>
        <time>2011-04-30T09:16:26Z</time>
      </trkpt>
      <trkpt lat="46.09857" lon="6.41217">
        <ele>894</ele>
        <time>2011-04-30T09:16:47Z</time>
      </trkpt>
      <trkpt lat="46.09851" lon="6.41226">
        <ele>870</ele>
        <time>2011-04-30T09:18:05Z</time>
      </trkpt>
      <trkpt lat="46.09859" lon="6.41218">
        <ele>877</ele>
        <time>2011-04-30T09:18:24Z</time>
      </trkpt>
      <trkpt lat="46.09869" lon="6.41218">
        <ele>877</ele>
        <time>2011-04-30T09:19:39Z</time>
      </trkpt>
      <trkpt lat="46.0986" lon="6.41214">
        <ele>877</ele>
        <time>2011-04-30T09:19:49Z</time>
      </trkpt>
      <trkpt lat="46.09863" lon="6.41226">
        <ele>893</ele>
        <time>2011-04-30T09:20:04Z</time>
      </trkpt>
      <trkpt lat="46.09855" lon="6.41233">
        <ele>900</ele>
        <time>2011-04-30T09:20:20Z</time>
      </trkpt>
      <trkpt lat="46.09849" lon="6.41244">
        <ele>907</ele>
        <time>2011-04-30T09:20:38Z</time>
      </trkpt>
      <trkpt lat="46.09853" lon="6.41231">
        <ele>890</ele>
        <time>2011-04-30T09:21:24Z</time>
      </trkpt>
      <trkpt lat="46.09856" lon="6.41218">
        <ele>884</ele>
        <time>2011-04-30T09:22:42Z</time>
      </trkpt>
      <trkpt lat="46.09865" lon="6.41215">
        <ele>873</ele>
        <time>2011-04-30T09:23:30Z</time>
      </trkpt>
      <trkpt lat="46.09872" lon="6.41224">
        <ele>873</ele>
        <time>2011-04-30T09:23:34Z</time>
      </trkpt>
      <trkpt lat="46.09878" lon="6.41236">
        <ele>873</ele>
        <time>2011-04-30T09:23:39Z</time>
      </trkpt>
      <trkpt lat="46.09874" lon="6.41248">
        <ele>883</ele>
        <time>2011-04-30T09:23:51Z</time>
      </trkpt>
      <trkpt lat="46.09881" lon="6.41257">
        <ele>883</ele>
        <time>2011-04-30T09:25:15Z</time>
      </trkpt>
      <trkpt lat="46.09883" lon="6.4127">
        <ele>883</ele>
        <time>2011-04-30T09:25:24Z</time>
      </trkpt>
      <trkpt lat="46.0989" lon="6.4128">
        <ele>883</ele>
        <time>2011-04-30T09:25:27Z</time>
      </trkpt>
      <trkpt lat="46.09899" lon="6.41287">
        <ele>883</ele>
        <time>2011-04-30T09:25:31Z</time>
      </trkpt>
      <trkpt lat="46.09907" lon="6.41291">
        <ele>889</ele>
        <time>2011-04-30T09:25:36Z</time>
      </trkpt>
      <trkpt lat="46.09899" lon="6.41296">
        <ele>927</ele>
        <time>2011-04-30T09:27:08Z</time>
      </trkpt>
      <trkpt lat="46.09909" lon="6.41295">
        <ele>897</ele>
        <time>2011-04-30T09:27:42Z</time>
      </trkpt>
      <trkpt lat="46.09917" lon="6.41288">
        <ele>872</ele>
        <time>2011-04-30T09:28:54Z</time>
      </trkpt>
      <trkpt lat="46.09911" lon="6.41299">
        <ele>909</ele>
        <time>2011-04-30T09:31:44Z</time>
      </trkpt>
      <trkpt lat="46.0992" lon="6.41301">
        <ele>897</ele>
        <time>2011-04-30T09:32:05Z</time>
      </trkpt>
      <trkpt lat="46.09912" lon="6.41309">
        <ele>905</ele>
        <time>2011-04-30T09:32:32Z</time>
      </trkpt>
      <trkpt lat="46.0992" lon="6.41301">
        <ele>905</ele>
        <time>2011-04-30T09:34:13Z</time>
      </trkpt>
      <trkpt lat="46.09927" lon="6.41291">
        <ele>905</ele>
        <time>2011-04-30T09:34:28Z</time>
      </trkpt>
      <trkpt lat="46.09918" lon="6.41295">
        <ele>905</ele>
        <time>2011-04-30T09:36:55Z</time>
      </trkpt>
      <trkpt lat="46.09927" lon="6.41288">
        <ele>905</ele>
        <time>2011-04-30T09:37:36Z</time>
      </trkpt>
      <trkpt lat="46.09927" lon="6.41275">
        <ele>895</ele>
        <time>2011-04-30T09:45:51Z</time>
      </trkpt>
      <trkpt lat="46.09927" lon="6.41261">
        <ele>895</ele>
        <time>2011-04-30T09:45:54Z</time>
      </trkpt>
      <trkpt lat="46.09925" lon="6.41243">
        <ele>895</ele>
        <time>2011-04-30T09:45:57Z</time>
      </trkpt>
      <trkpt lat="46.09923" lon="6.41225">
        <ele>895</ele>
        <time>2011-04-30T09:46:00Z</time>
      </trkpt>
      <trkpt lat="46.09915" lon="6.41232">
        <ele>909</ele>
        <time>2011-04-30T09:47:35Z</time>
      </trkpt>
      <trkpt lat="46.09921" lon="6.41219">
        <ele>909</ele>
        <time>2011-04-30T09:48:15Z</time>
      </trkpt>
      <trkpt lat="46.09924" lon="6.41207">
        <ele>909</ele>
        <time>2011-04-30T09:48:21Z</time>
      </trkpt>
      <trkpt lat="46.09932" lon="6.41202">
        <ele>900</ele>
        <time>2011-04-30T09:48:34Z</time>
      </trkpt>
      <trkpt lat="46.09939" lon="6.41192">
        <ele>914</ele>
        <time>2011-04-30T09:48:54Z</time>
      </trkpt>
      <trkpt lat="46.09928" lon="6.41188">
        <ele>914</ele>
        <time>2011-04-30T09:49:51Z</time>
      </trkpt>
      <trkpt lat="46.09926" lon="6.41173">
        <ele>914</ele>
        <time>2011-04-30T09:49:54Z</time>
      </trkpt>
      <trkpt lat="46.09927" lon="6.41158">
        <ele>914</ele>
        <time>2011-04-30T09:50:00Z</time>
      </trkpt>
      <trkpt lat="46.09927" lon="6.41145">
        <ele>914</ele>
        <time>2011-04-30T09:50:03Z</time>
      </trkpt>
      <trkpt lat="46.09925" lon="6.41124">
        <ele>914</ele>
        <time>2011-04-30T09:50:06Z</time>
      </trkpt>
      <trkpt lat="46.09928" lon="6.41107">
        <ele>914</ele>
        <time>2011-04-30T09:50:08Z</time>
      </trkpt>
      <trkpt lat="46.09931" lon="6.41094">
        <ele>914</ele>
        <time>2011-04-30T09:50:10Z</time>
      </trkpt>
      <trkpt lat="46.09933" lon="6.41077">
        <ele>914</ele>
        <time>2011-04-30T09:50:13Z</time>
      </trkpt>
      <trkpt lat="46.09929" lon="6.4109">
        <ele>940</ele>
        <time>2011-04-30T09:50:26Z</time>
      </trkpt>
      <trkpt lat="46.09933" lon="6.41071">
        <ele>940</ele>
        <time>2011-04-30T09:50:53Z</time>
      </trkpt>
      <trkpt lat="46.09932" lon="6.41057">
        <ele>940</ele>
        <time>2011-04-30T09:50:55Z</time>
      </trkpt>
      <trkpt lat="46.09926" lon="6.4104">
        <ele>940</ele>
        <time>2011-04-30T09:50:57Z</time>
      </trkpt>
      <trkpt lat="46.09924" lon="6.41022">
        <ele>940</ele>
        <time>2011-04-30T09:50:59Z</time>
      </trkpt>
      <trkpt lat="46.09931" lon="6.4101">
        <ele>940</ele>
        <time>2011-04-30T09:51:04Z</time>
      </trkpt>
      <trkpt lat="46.09942" lon="6.41007">
        <ele>940</ele>
        <time>2011-04-30T09:51:07Z</time>
      </trkpt>
      <trkpt lat="46.09952" lon="6.41007">
        <ele>940</ele>
        <time>2011-04-30T09:51:09Z</time>
      </trkpt>
      <trkpt lat="46.09962" lon="6.41008">
        <ele>940</ele>
        <time>2011-04-30T09:51:11Z</time>
      </trkpt>
      <trkpt lat="46.09972" lon="6.41011">
        <ele>945</ele>
        <time>2011-04-30T09:51:19Z</time>
      </trkpt>
      <trkpt lat="46.09961" lon="6.41013">
        <ele>953</ele>
        <time>2011-04-30T10:04:57Z</time>
      </trkpt>
      <trkpt lat="46.09967" lon="6.41003">
        <ele>953</ele>
        <time>2011-04-30T10:05:02Z</time>
      </trkpt>
      <trkpt lat="46.09976" lon="6.41004">
        <ele>953</ele>
        <time>2011-04-30T10:05:16Z</time>
      </trkpt>
      <trkpt lat="46.09986" lon="6.41006">
        <ele>953</ele>
        <time>2011-04-30T10:05:21Z</time>
      </trkpt>
      <trkpt lat="46.09997" lon="6.41008">
        <ele>953</ele>
        <time>2011-04-30T10:05:23Z</time>
      </trkpt>
      <trkpt lat="46.1001" lon="6.41012">
        <ele>953</ele>
        <time>2011-04-30T10:05:25Z</time>
      </trkpt>
      <trkpt lat="46.10023" lon="6.41013">
        <ele>947</ele>
        <time>2011-04-30T10:05:27Z</time>
      </trkpt>
      <trkpt lat="46.10035" lon="6.41009">
        <ele>947</ele>
        <time>2011-04-30T10:05:29Z</time>
      </trkpt>
      <trkpt lat="46.1005" lon="6.41001">
        <ele>940</ele>
        <time>2011-04-30T10:05:31Z</time>
      </trkpt>
      <trkpt lat="46.10059" lon="6.40995">
        <ele>940</ele>
        <time>2011-04-30T10:05:32Z</time>
      </trkpt>
      <trkpt lat="46.10067" lon="6.40987">
        <ele>934</ele>
        <time>2011-04-30T10:05:33Z</time>
      </trkpt>
      <trkpt lat="46.10076" lon="6.40979">
        <ele>934</ele>
        <time>2011-04-30T10:05:34Z</time>
      </trkpt>
      <trkpt lat="46.10084" lon="6.40973">
        <ele>934</ele>
        <time>2011-04-30T10:05:35Z</time>
      </trkpt>
      <trkpt lat="46.10099" lon="6.40966">
        <ele>928</ele>
        <time>2011-04-30T10:05:37Z</time>
      </trkpt>
      <trkpt lat="46.10109" lon="6.40966">
        <ele>928</ele>
        <time>2011-04-30T10:05:45Z</time>
      </trkpt>
      <trkpt lat="46.10118" lon="6.4097">
        <ele>933</ele>
        <time>2011-04-30T10:05:48Z</time>
      </trkpt>
      <trkpt lat="46.10131" lon="6.40969">
        <ele>933</ele>
        <time>2011-04-30T10:05:50Z</time>
      </trkpt>
      <trkpt lat="46.10142" lon="6.40969">
        <ele>933</ele>
        <time>2011-04-30T10:05:52Z</time>
      </trkpt>
      <trkpt lat="46.10154" lon="6.40971">
        <ele>933</ele>
        <time>2011-04-30T10:05:54Z</time>
      </trkpt>
      <trkpt lat="46.10166" lon="6.40979">
        <ele>933</ele>
        <time>2011-04-30T10:05:56Z</time>
      </trkpt>
      <trkpt lat="46.10179" lon="6.40989">
        <ele>933</ele>
        <time>2011-04-30T10:05:58Z</time>
      </trkpt>
      <trkpt lat="46.10195" lon="6.41">
        <ele>942</ele>
        <time>2011-04-30T10:06:00Z</time>
      </trkpt>
      <trkpt lat="46.10204" lon="6.41007">
        <ele>942</ele>
        <time>2011-04-30T10:06:01Z</time>
      </trkpt>
      <trkpt lat="46.10212" lon="6.41014">
        <ele>948</ele>
        <time>2011-04-30T10:06:02Z</time>
      </trkpt>
      <trkpt lat="46.1022" lon="6.41021">
        <ele>948</ele>
        <time>2011-04-30T10:06:03Z</time>
      </trkpt>
      <trkpt lat="46.10229" lon="6.41025">
        <ele>948</ele>
        <time>2011-04-30T10:06:04Z</time>
      </trkpt>
      <trkpt lat="46.10244" lon="6.41033">
        <ele>962</ele>
        <time>2011-04-30T10:06:06Z</time>
      </trkpt>
      <trkpt lat="46.10255" lon="6.41042">
        <ele>962</ele>
        <time>2011-04-30T10:06:08Z</time>
      </trkpt>
      <trkpt lat="46.10263" lon="6.41057">
        <ele>976</ele>
        <time>2011-04-30T10:06:11Z</time>
      </trkpt>
      <trkpt lat="46.10256" lon="6.41069">
        <ele>995</ele>
        <time>2011-04-30T10:06:15Z</time>
      </trkpt>
      <trkpt lat="46.10241" lon="6.41066">
        <ele>995</ele>
        <time>2011-04-30T10:06:17Z</time>
      </trkpt>
      <trkpt lat="46.10229" lon="6.41063">
        <ele>1001</ele>
        <time>2011-04-30T10:06:19Z</time>
      </trkpt>
      <trkpt lat="46.10214" lon="6.41062">
        <ele>1001</ele>
        <time>2011-04-30T10:06:21Z</time>
      </trkpt>
      <trkpt lat="46.10204" lon="6.41061">
        <ele>1001</ele>
        <time>2011-04-30T10:06:22Z</time>
      </trkpt>
      <trkpt lat="46.10194" lon="6.41062">
        <ele>1006</ele>
        <time>2011-04-30T10:06:23Z</time>
      </trkpt>
      <trkpt lat="46.10177" lon="6.41065">
        <ele>1006</ele>
        <time>2011-04-30T10:06:25Z</time>
      </trkpt>
      <trkpt lat="46.10167" lon="6.41068">
        <ele>1006</ele>
        <time>2011-04-30T10:06:26Z</time>
      </trkpt>
      <trkpt lat="46.10158" lon="6.41073">
        <ele>1006</ele>
        <time>2011-04-30T10:06:27Z</time>
      </trkpt>
      <trkpt lat="46.10146" lon="6.41086">
        <ele>1006</ele>
        <time>2011-04-30T10:06:29Z</time>
      </trkpt>
      <trkpt lat="46.10137" lon="6.41103">
        <ele>1006</ele>
        <time>2011-04-30T10:06:31Z</time>
      </trkpt>
      <trkpt lat="46.10131" lon="6.4112">
        <ele>1012</ele>
        <time>2011-04-30T10:06:33Z</time>
      </trkpt>
      <trkpt lat="46.10129" lon="6.41135">
        <ele>1012</ele>
        <time>2011-04-30T10:06:35Z</time>
      </trkpt>
      <trkpt lat="46.10127" lon="6.41148">
        <ele>1017</ele>
        <time>2011-04-30T10:06:38Z</time>
      </trkpt>
      <trkpt lat="46.10122" lon="6.4116">
        <ele>1017</ele>
        <time>2011-04-30T10:06:41Z</time>
      </trkpt>
      <trkpt lat="46.10117" lon="6.41173">
        <ele>1023</ele>
        <time>2011-04-30T10:06:43Z</time>
      </trkpt>
      <trkpt lat="46.10114" lon="6.41191">
        <ele>1023</ele>
        <time>2011-04-30T10:06:45Z</time>
      </trkpt>
      <trkpt lat="46.10116" lon="6.41211">
        <ele>1028</ele>
        <time>2011-04-30T10:06:47Z</time>
      </trkpt>
      <trkpt lat="46.1012" lon="6.41233">
        <ele>1028</ele>
        <time>2011-04-30T10:06:49Z</time>
      </trkpt>
      <trkpt lat="46.10131" lon="6.4125">
        <ele>1028</ele>
        <time>2011-04-30T10:06:51Z</time>
      </trkpt>
      <trkpt lat="46.10139" lon="6.41263">
        <ele>1034</ele>
        <time>2011-04-30T10:06:53Z</time>
      </trkpt>
      <trkpt lat="46.10145" lon="6.41279">
        <ele>1034</ele>
        <time>2011-04-30T10:06:55Z</time>
      </trkpt>
      <trkpt lat="46.10152" lon="6.41297">
        <ele>1041</ele>
        <time>2011-04-30T10:06:57Z</time>
      </trkpt>
      <trkpt lat="46.10161" lon="6.4131">
        <ele>1041</ele>
        <time>2011-04-30T10:06:59Z</time>
      </trkpt>
      <trkpt lat="46.1017" lon="6.41325">
        <ele>1048</ele>
        <time>2011-04-30T10:07:01Z</time>
      </trkpt>
      <trkpt lat="46.10182" lon="6.41345">
        <ele>1048</ele>
        <time>2011-04-30T10:07:03Z</time>
      </trkpt>
      <trkpt lat="46.10189" lon="6.41355">
        <ele>1048</ele>
        <time>2011-04-30T10:07:04Z</time>
      </trkpt>
      <trkpt lat="46.10197" lon="6.41365">
        <ele>1048</ele>
        <time>2011-04-30T10:07:05Z</time>
      </trkpt>
      <trkpt lat="46.10204" lon="6.41375">
        <ele>1048</ele>
        <time>2011-04-30T10:07:06Z</time>
      </trkpt>
      <trkpt lat="46.10212" lon="6.41383">
        <ele>1048</ele>
        <time>2011-04-30T10:07:07Z</time>
      </trkpt>
      <trkpt lat="46.10221" lon="6.41392">
        <ele>1048</ele>
        <time>2011-04-30T10:07:08Z</time>
      </trkpt>
      <trkpt lat="46.1023" lon="6.414">
        <ele>1048</ele>
        <time>2011-04-30T10:07:09Z</time>
      </trkpt>
      <trkpt lat="46.10239" lon="6.41409">
        <ele>1048</ele>
        <time>2011-04-30T10:07:10Z</time>
      </trkpt>
      <trkpt lat="46.10248" lon="6.41417">
        <ele>1048</ele>
        <time>2011-04-30T10:07:11Z</time>
      </trkpt>
      <trkpt lat="46.10259" lon="6.41429">
        <ele>1056</ele>
        <time>2011-04-30T10:07:13Z</time>
      </trkpt>
      <trkpt lat="46.10264" lon="6.41441">
        <ele>1056</ele>
        <time>2011-04-30T10:07:15Z</time>
      </trkpt>
      <trkpt lat="46.10261" lon="6.41458">
        <ele>1056</ele>
        <time>2011-04-30T10:07:17Z</time>
      </trkpt>
      <trkpt lat="46.10264" lon="6.41478">
        <ele>1056</ele>
        <time>2011-04-30T10:07:20Z</time>
      </trkpt>
      <trkpt lat="46.10265" lon="6.41495">
        <ele>1056</ele>
        <time>2011-04-30T10:07:22Z</time>
      </trkpt>
      <trkpt lat="46.10269" lon="6.41512">
        <ele>1056</ele>
        <time>2011-04-30T10:07:24Z</time>
      </trkpt>
      <trkpt lat="46.1027" lon="6.41529">
        <ele>1056</ele>
        <time>2011-04-30T10:07:26Z</time>
      </trkpt>
      <trkpt lat="46.10268" lon="6.41544">
        <ele>1062</ele>
        <time>2011-04-30T10:07:28Z</time>
      </trkpt>
      <trkpt lat="46.10267" lon="6.41559">
        <ele>1062</ele>
        <time>2011-04-30T10:07:31Z</time>
      </trkpt>
      <trkpt lat="46.10266" lon="6.41572">
        <ele>1069</ele>
        <time>2011-04-30T10:07:36Z</time>
      </trkpt>
      <trkpt lat="46.10268" lon="6.41559">
        <ele>1069</ele>
        <time>2011-04-30T10:08:44Z</time>
      </trkpt>
      <trkpt lat="46.10267" lon="6.41544">
        <ele>1069</ele>
        <time>2011-04-30T10:09:01Z</time>
      </trkpt>
      <trkpt lat="46.1027" lon="6.41532">
        <ele>1069</ele>
        <time>2011-04-30T10:09:06Z</time>
      </trkpt>
      <trkpt lat="46.10269" lon="6.41515">
        <ele>1060</ele>
        <time>2011-04-30T10:09:10Z</time>
      </trkpt>
      <trkpt lat="46.10265" lon="6.41502">
        <ele>1060</ele>
        <time>2011-04-30T10:09:12Z</time>
      </trkpt>
      <trkpt lat="46.1026" lon="6.41486">
        <ele>1053</ele>
        <time>2011-04-30T10:09:15Z</time>
      </trkpt>
      <trkpt lat="46.10256" lon="6.41474">
        <ele>1053</ele>
        <time>2011-04-30T10:09:18Z</time>
      </trkpt>
      <trkpt lat="46.10253" lon="6.41461">
        <ele>1046</ele>
        <time>2011-04-30T10:09:21Z</time>
      </trkpt>
      <trkpt lat="46.1025" lon="6.41447">
        <ele>1046</ele>
        <time>2011-04-30T10:09:25Z</time>
      </trkpt>
      <trkpt lat="46.10254" lon="6.41434">
        <ele>1068</ele>
        <time>2011-04-30T10:09:57Z</time>
      </trkpt>
      <trkpt lat="46.10261" lon="6.41447">
        <ele>1068</ele>
        <time>2011-04-30T10:10:13Z</time>
      </trkpt>
      <trkpt lat="46.10272" lon="6.41448">
        <ele>1060</ele>
        <time>2011-04-30T10:10:15Z</time>
      </trkpt>
      <trkpt lat="46.10284" lon="6.4145">
        <ele>1060</ele>
        <time>2011-04-30T10:10:17Z</time>
      </trkpt>
      <trkpt lat="46.10294" lon="6.41455">
        <ele>1052</ele>
        <time>2011-04-30T10:10:19Z</time>
      </trkpt>
      <trkpt lat="46.103" lon="6.41472">
        <ele>1044</ele>
        <time>2011-04-30T10:10:22Z</time>
      </trkpt>
      <trkpt lat="46.10305" lon="6.41489">
        <ele>1036</ele>
        <time>2011-04-30T10:10:25Z</time>
      </trkpt>
      <trkpt lat="46.10314" lon="6.41502">
        <ele>1036</ele>
        <time>2011-04-30T10:10:27Z</time>
      </trkpt>
      <trkpt lat="46.10325" lon="6.41518">
        <ele>1026</ele>
        <time>2011-04-30T10:10:29Z</time>
      </trkpt>
      <trkpt lat="46.10337" lon="6.41537">
        <ele>1019</ele>
        <time>2011-04-30T10:10:31Z</time>
      </trkpt>
      <trkpt lat="46.10345" lon="6.4156">
        <ele>1013</ele>
        <time>2011-04-30T10:10:33Z</time>
      </trkpt>
      <trkpt lat="46.10354" lon="6.41577">
        <ele>1013</ele>
        <time>2011-04-30T10:10:35Z</time>
      </trkpt>
      <trkpt lat="46.10363" lon="6.41588">
        <ele>1008</ele>
        <time>2011-04-30T10:10:37Z</time>
      </trkpt>
      <trkpt lat="46.10377" lon="6.41595">
        <ele>1008</ele>
        <time>2011-04-30T10:10:39Z</time>
      </trkpt>
      <trkpt lat="46.10388" lon="6.41607">
        <ele>999</ele>
        <time>2011-04-30T10:10:41Z</time>
      </trkpt>
      <trkpt lat="46.10397" lon="6.4162">
        <ele>999</ele>
        <time>2011-04-30T10:10:43Z</time>
      </trkpt>
      <trkpt lat="46.10405" lon="6.41633">
        <ele>991</ele>
        <time>2011-04-30T10:10:45Z</time>
      </trkpt>
      <trkpt lat="46.10412" lon="6.41644">
        <ele>991</ele>
        <time>2011-04-30T10:10:47Z</time>
      </trkpt>
      <trkpt lat="46.10424" lon="6.41658">
        <ele>991</ele>
        <time>2011-04-30T10:10:49Z</time>
      </trkpt>
      <trkpt lat="46.10435" lon="6.41668">
        <ele>991</ele>
        <time>2011-04-30T10:10:51Z</time>
      </trkpt>
      <trkpt lat="46.10444" lon="6.41674">
        <ele>991</ele>
        <time>2011-04-30T10:10:53Z</time>
      </trkpt>
      <trkpt lat="46.10455" lon="6.41686">
        <ele>983</ele>
        <time>2011-04-30T10:10:56Z</time>
      </trkpt>
      <trkpt lat="46.10462" lon="6.41699">
        <ele>983</ele>
        <time>2011-04-30T10:10:58Z</time>
      </trkpt>
      <trkpt lat="46.10469" lon="6.41711">
        <ele>976</ele>
        <time>2011-04-30T10:11:01Z</time>
      </trkpt>
      <trkpt lat="46.10472" lon="6.41723">
        <ele>976</ele>
        <time>2011-04-30T10:11:04Z</time>
      </trkpt>
      <trkpt lat="46.10482" lon="6.41739">
        <ele>971</ele>
        <time>2011-04-30T10:11:07Z</time>
      </trkpt>
      <trkpt lat="46.10492" lon="6.41749">
        <ele>971</ele>
        <time>2011-04-30T10:11:09Z</time>
      </trkpt>
      <trkpt lat="46.10503" lon="6.41759">
        <ele>971</ele>
        <time>2011-04-30T10:11:11Z</time>
      </trkpt>
      <trkpt lat="46.10512" lon="6.41763">
        <ele>971</ele>
        <time>2011-04-30T10:11:13Z</time>
      </trkpt>
      <trkpt lat="46.10523" lon="6.4177">
        <ele>965</ele>
        <time>2011-04-30T10:11:16Z</time>
      </trkpt>
      <trkpt lat="46.1053" lon="6.41779">
        <ele>965</ele>
        <time>2011-04-30T10:11:18Z</time>
      </trkpt>
      <trkpt lat="46.10539" lon="6.41791">
        <ele>958</ele>
        <time>2011-04-30T10:11:20Z</time>
      </trkpt>
      <trkpt lat="46.10546" lon="6.41802">
        <ele>953</ele>
        <time>2011-04-30T10:11:22Z</time>
      </trkpt>
      <trkpt lat="46.10554" lon="6.41815">
        <ele>953</ele>
        <time>2011-04-30T10:11:24Z</time>
      </trkpt>
      <trkpt lat="46.10561" lon="6.41826">
        <ele>948</ele>
        <time>2011-04-30T10:11:26Z</time>
      </trkpt>
      <trkpt lat="46.1057" lon="6.41832">
        <ele>948</ele>
        <time>2011-04-30T10:11:31Z</time>
      </trkpt>
      <trkpt lat="46.10569" lon="6.41847">
        <ele>955</ele>
        <time>2011-04-30T10:11:43Z</time>
      </trkpt>
      <trkpt lat="46.10567" lon="6.41865">
        <ele>955</ele>
        <time>2011-04-30T10:11:45Z</time>
      </trkpt>
      <trkpt lat="46.10567" lon="6.41882">
        <ele>955</ele>
        <time>2011-04-30T10:11:47Z</time>
      </trkpt>
      <trkpt lat="46.10564" lon="6.41899">
        <ele>955</ele>
        <time>2011-04-30T10:11:49Z</time>
      </trkpt>
      <trkpt lat="46.1056" lon="6.4192">
        <ele>955</ele>
        <time>2011-04-30T10:11:51Z</time>
      </trkpt>
      <trkpt lat="46.10558" lon="6.41946">
        <ele>955</ele>
        <time>2011-04-30T10:11:53Z</time>
      </trkpt>
      <trkpt lat="46.10557" lon="6.4196">
        <ele>955</ele>
        <time>2011-04-30T10:11:54Z</time>
      </trkpt>
      <trkpt lat="46.10555" lon="6.41983">
        <ele>955</ele>
        <time>2011-04-30T10:11:56Z</time>
      </trkpt>
      <trkpt lat="46.10554" lon="6.41997">
        <ele>955</ele>
        <time>2011-04-30T10:11:58Z</time>
      </trkpt>
      <trkpt lat="46.10564" lon="6.41995">
        <ele>963</ele>
        <time>2011-04-30T10:12:19Z</time>
      </trkpt>
      <trkpt lat="46.10554" lon="6.41999">
        <ele>963</ele>
        <time>2011-04-30T10:12:54Z</time>
      </trkpt>
      <trkpt lat="46.10563" lon="6.41998">
        <ele>963</ele>
        <time>2011-04-30T10:15:06Z</time>
      </trkpt>
      <trkpt lat="46.10566" lon="6.4198">
        <ele>957</ele>
        <time>2011-04-30T10:15:10Z</time>
      </trkpt>
      <trkpt lat="46.10567" lon="6.41962">
        <ele>957</ele>
        <time>2011-04-30T10:15:12Z</time>
      </trkpt>
      <trkpt lat="46.10567" lon="6.41942">
        <ele>957</ele>
        <time>2011-04-30T10:15:14Z</time>
      </trkpt>
      <trkpt lat="46.10567" lon="6.41919">
        <ele>957</ele>
        <time>2011-04-30T10:15:16Z</time>
      </trkpt>
      <trkpt lat="46.10568" lon="6.41899">
        <ele>951</ele>
        <time>2011-04-30T10:15:18Z</time>
      </trkpt>
      <trkpt lat="46.1057" lon="6.41886">
        <ele>951</ele>
        <time>2011-04-30T10:15:20Z</time>
      </trkpt>
      <trkpt lat="46.10571" lon="6.41871">
        <ele>951</ele>
        <time>2011-04-30T10:15:22Z</time>
      </trkpt>
      <trkpt lat="46.1057" lon="6.41854">
        <ele>951</ele>
        <time>2011-04-30T10:15:24Z</time>
      </trkpt>
      <trkpt lat="46.1057" lon="6.41837">
        <ele>951</ele>
        <time>2011-04-30T10:15:26Z</time>
      </trkpt>
      <trkpt lat="46.10569" lon="6.41824">
        <ele>951</ele>
        <time>2011-04-30T10:15:28Z</time>
      </trkpt>
      <trkpt lat="46.10573" lon="6.41808">
        <ele>942</ele>
        <time>2011-04-30T10:15:32Z</time>
      </trkpt>
      <trkpt lat="46.10578" lon="6.41794">
        <ele>942</ele>
        <time>2011-04-30T10:15:35Z</time>
      </trkpt>
      <trkpt lat="46.10581" lon="6.4178">
        <ele>942</ele>
        <time>2011-04-30T10:15:38Z</time>
      </trkpt>
      <trkpt lat="46.10585" lon="6.41767">
        <ele>934</ele>
        <time>2011-04-30T10:15:41Z</time>
      </trkpt>
      <trkpt lat="46.10593" lon="6.41754">
        <ele>934</ele>
        <time>2011-04-30T10:15:44Z</time>
      </trkpt>
      <trkpt lat="46.10601" lon="6.41739">
        <ele>929</ele>
        <time>2011-04-30T10:15:47Z</time>
      </trkpt>
      <trkpt lat="46.1061" lon="6.41727">
        <ele>929</ele>
        <time>2011-04-30T10:15:50Z</time>
      </trkpt>
      <trkpt lat="46.10619" lon="6.41717">
        <ele>920</ele>
        <time>2011-04-30T10:15:53Z</time>
      </trkpt>
      <trkpt lat="46.10627" lon="6.4171">
        <ele>920</ele>
        <time>2011-04-30T10:15:56Z</time>
      </trkpt>
      <trkpt lat="46.10637" lon="6.41708">
        <ele>911</ele>
        <time>2011-04-30T10:15:59Z</time>
      </trkpt>
      <trkpt lat="46.1064" lon="6.41695">
        <ele>905</ele>
        <time>2011-04-30T10:16:15Z</time>
      </trkpt>
      <trkpt lat="46.10642" lon="6.41681">
        <ele>905</ele>
        <time>2011-04-30T10:16:18Z</time>
      </trkpt>
      <trkpt lat="46.10639" lon="6.41668">
        <ele>905</ele>
        <time>2011-04-30T10:16:21Z</time>
      </trkpt>
      <trkpt lat="46.1063" lon="6.41654">
        <ele>905</ele>
        <time>2011-04-30T10:16:24Z</time>
      </trkpt>
      <trkpt lat="46.10624" lon="6.41641">
        <ele>905</ele>
        <time>2011-04-30T10:16:27Z</time>
      </trkpt>
      <trkpt lat="46.1062" lon="6.41626">
        <ele>905</ele>
        <time>2011-04-30T10:16:30Z</time>
      </trkpt>
      <trkpt lat="46.10621" lon="6.41607">
        <ele>905</ele>
        <time>2011-04-30T10:16:33Z</time>
      </trkpt>
      <trkpt lat="46.10625" lon="6.4159">
        <ele>905</ele>
        <time>2011-04-30T10:16:35Z</time>
      </trkpt>
      <trkpt lat="46.10631" lon="6.41569">
        <ele>905</ele>
        <time>2011-04-30T10:16:37Z</time>
      </trkpt>
      <trkpt lat="46.10638" lon="6.41545">
        <ele>898</ele>
        <time>2011-04-30T10:16:39Z</time>
      </trkpt>
      <trkpt lat="46.10645" lon="6.41524">
        <ele>898</ele>
        <time>2011-04-30T10:16:41Z</time>
      </trkpt>
      <trkpt lat="46.10654" lon="6.41503">
        <ele>898</ele>
        <time>2011-04-30T10:16:43Z</time>
      </trkpt>
      <trkpt lat="46.10664" lon="6.41486">
        <ele>890</ele>
        <time>2011-04-30T10:16:45Z</time>
      </trkpt>
      <trkpt lat="46.10675" lon="6.41473">
        <ele>890</ele>
        <time>2011-04-30T10:16:47Z</time>
      </trkpt>
      <trkpt lat="46.10684" lon="6.41464">
        <ele>890</ele>
        <time>2011-04-30T10:16:49Z</time>
      </trkpt>
      <trkpt lat="46.10694" lon="6.41462">
        <ele>883</ele>
        <time>2011-04-30T10:16:52Z</time>
      </trkpt>
      <trkpt lat="46.10697" lon="6.41483">
        <ele>883</ele>
        <time>2011-04-30T10:16:55Z</time>
      </trkpt>
      <trkpt lat="46.10696" lon="6.41504">
        <ele>883</ele>
        <time>2011-04-30T10:16:57Z</time>
      </trkpt>
      <trkpt lat="46.10697" lon="6.41528">
        <ele>883</ele>
        <time>2011-04-30T10:16:59Z</time>
      </trkpt>
      <trkpt lat="46.10699" lon="6.41543">
        <ele>883</ele>
        <time>2011-04-30T10:17:00Z</time>
      </trkpt>
      <trkpt lat="46.10701" lon="6.41558">
        <ele>883</ele>
        <time>2011-04-30T10:17:01Z</time>
      </trkpt>
      <trkpt lat="46.10704" lon="6.41572">
        <ele>883</ele>
        <time>2011-04-30T10:17:02Z</time>
      </trkpt>
      <trkpt lat="46.10707" lon="6.41587">
        <ele>883</ele>
        <time>2011-04-30T10:17:03Z</time>
      </trkpt>
      <trkpt lat="46.1071" lon="6.416">
        <ele>883</ele>
        <time>2011-04-30T10:17:04Z</time>
      </trkpt>
      <trkpt lat="46.10715" lon="6.41613">
        <ele>883</ele>
        <time>2011-04-30T10:17:05Z</time>
      </trkpt>
      <trkpt lat="46.1072" lon="6.41625">
        <ele>883</ele>
        <time>2011-04-30T10:17:06Z</time>
      </trkpt>
      <trkpt lat="46.10726" lon="6.41638">
        <ele>883</ele>
        <time>2011-04-30T10:17:07Z</time>
      </trkpt>
      <trkpt lat="46.10731" lon="6.4165">
        <ele>883</ele>
        <time>2011-04-30T10:17:08Z</time>
      </trkpt>
      <trkpt lat="46.10737" lon="6.41662">
        <ele>883</ele>
        <time>2011-04-30T10:17:09Z</time>
      </trkpt>
      <trkpt lat="46.10742" lon="6.41675">
        <ele>883</ele>
        <time>2011-04-30T10:17:10Z</time>
      </trkpt>
      <trkpt lat="46.10747" lon="6.41688">
        <ele>883</ele>
        <time>2011-04-30T10:17:11Z</time>
      </trkpt>
      <trkpt lat="46.10752" lon="6.41703">
        <ele>888</ele>
        <time>2011-04-30T10:17:12Z</time>
      </trkpt>
      <trkpt lat="46.10757" lon="6.41716">
        <ele>888</ele>
        <time>2011-04-30T10:17:13Z</time>
      </trkpt>
      <trkpt lat="46.10762" lon="6.4173">
        <ele>888</ele>
        <time>2011-04-30T10:17:14Z</time>
      </trkpt>
      <trkpt lat="46.10767" lon="6.41743">
        <ele>888</ele>
        <time>2011-04-30T10:17:15Z</time>
      </trkpt>
      <trkpt lat="46.1077" lon="6.41756">
        <ele>888</ele>
        <time>2011-04-30T10:17:16Z</time>
      </trkpt>
      <trkpt lat="46.10776" lon="6.41779">
        <ele>888</ele>
        <time>2011-04-30T10:17:18Z</time>
      </trkpt>
      <trkpt lat="46.10785" lon="6.41793">
        <ele>888</ele>
        <time>2011-04-30T10:17:20Z</time>
      </trkpt>
      <trkpt lat="46.10797" lon="6.41796">
        <ele>888</ele>
        <time>2011-04-30T10:17:22Z</time>
      </trkpt>
      <trkpt lat="46.10808" lon="6.41789">
        <ele>894</ele>
        <time>2011-04-30T10:17:24Z</time>
      </trkpt>
      <trkpt lat="46.1097" lon="6.41757">
        <ele>914</ele>
        <time>2011-04-30T10:18:31Z</time>
      </trkpt>
      <trkpt lat="46.10963" lon="6.41746">
        <ele>914</ele>
        <time>2011-04-30T10:20:06Z</time>
      </trkpt>
      <trkpt lat="46.10951" lon="6.41738">
        <ele>914</ele>
        <time>2011-04-30T10:20:09Z</time>
      </trkpt>
      <trkpt lat="46.1094" lon="6.41733">
        <ele>914</ele>
        <time>2011-04-30T10:20:12Z</time>
      </trkpt>
      <trkpt lat="46.10928" lon="6.41743">
        <ele>914</ele>
        <time>2011-04-30T10:20:15Z</time>
      </trkpt>
      <trkpt lat="46.10918" lon="6.41758">
        <ele>914</ele>
        <time>2011-04-30T10:20:17Z</time>
      </trkpt>
      <trkpt lat="46.10912" lon="6.41769">
        <ele>914</ele>
        <time>2011-04-30T10:20:18Z</time>
      </trkpt>
      <trkpt lat="46.10905" lon="6.41782">
        <ele>914</ele>
        <time>2011-04-30T10:20:19Z</time>
      </trkpt>
      <trkpt lat="46.10897" lon="6.41796">
        <ele>914</ele>
        <time>2011-04-30T10:20:20Z</time>
      </trkpt>
      <trkpt lat="46.10888" lon="6.41811">
        <ele>914</ele>
        <time>2011-04-30T10:20:21Z</time>
      </trkpt>
      <trkpt lat="46.1088" lon="6.41829">
        <ele>914</ele>
        <time>2011-04-30T10:20:22Z</time>
      </trkpt>
      <trkpt lat="46.10872" lon="6.41848">
        <ele>914</ele>
        <time>2011-04-30T10:20:23Z</time>
      </trkpt>
      <trkpt lat="46.10863" lon="6.41867">
        <ele>920</ele>
        <time>2011-04-30T10:20:24Z</time>
      </trkpt>
      <trkpt lat="46.10854" lon="6.41888">
        <ele>920</ele>
        <time>2011-04-30T10:20:25Z</time>
      </trkpt>
      <trkpt lat="46.10845" lon="6.41908">
        <ele>920</ele>
        <time>2011-04-30T10:20:26Z</time>
      </trkpt>
      <trkpt lat="46.10836" lon="6.41929">
        <ele>920</ele>
        <time>2011-04-30T10:20:27Z</time>
      </trkpt>
      <trkpt lat="46.10827" lon="6.41949">
        <ele>926</ele>
        <time>2011-04-30T10:20:28Z</time>
      </trkpt>
      <trkpt lat="46.10818" lon="6.41968">
        <ele>926</ele>
        <time>2011-04-30T10:20:29Z</time>
      </trkpt>
      <trkpt lat="46.1081" lon="6.41986">
        <ele>926</ele>
        <time>2011-04-30T10:20:30Z</time>
      </trkpt>
      <trkpt lat="46.10803" lon="6.42003">
        <ele>926</ele>
        <time>2011-04-30T10:20:31Z</time>
      </trkpt>
      <trkpt lat="46.10795" lon="6.42019">
        <ele>931</ele>
        <time>2011-04-30T10:20:32Z</time>
      </trkpt>
      <trkpt lat="46.10789" lon="6.42035">
        <ele>931</ele>
        <time>2011-04-30T10:20:33Z</time>
      </trkpt>
      <trkpt lat="46.10784" lon="6.42051">
        <ele>931</ele>
        <time>2011-04-30T10:20:34Z</time>
      </trkpt>
      <trkpt lat="46.1078" lon="6.42067">
        <ele>931</ele>
        <time>2011-04-30T10:20:35Z</time>
      </trkpt>
      <trkpt lat="46.10776" lon="6.42084">
        <ele>931</ele>
        <time>2011-04-30T10:20:36Z</time>
      </trkpt>
      <trkpt lat="46.10772" lon="6.42101">
        <ele>937</ele>
        <time>2011-04-30T10:20:37Z</time>
      </trkpt>
      <trkpt lat="46.1077" lon="6.4212">
        <ele>937</ele>
        <time>2011-04-30T10:20:38Z</time>
      </trkpt>
      <trkpt lat="46.10768" lon="6.42139">
        <ele>937</ele>
        <time>2011-04-30T10:20:39Z</time>
      </trkpt>
      <trkpt lat="46.10767" lon="6.4216">
        <ele>937</ele>
        <time>2011-04-30T10:20:40Z</time>
      </trkpt>
      <trkpt lat="46.10767" lon="6.4218">
        <ele>937</ele>
        <time>2011-04-30T10:20:41Z</time>
      </trkpt>
      <trkpt lat="46.10765" lon="6.42198">
        <ele>942</ele>
        <time>2011-04-30T10:20:42Z</time>
      </trkpt>
      <trkpt lat="46.10762" lon="6.42215">
        <ele>942</ele>
        <time>2011-04-30T10:20:43Z</time>
      </trkpt>
      <trkpt lat="46.10757" lon="6.42229">
        <ele>942</ele>
        <time>2011-04-30T10:20:44Z</time>
      </trkpt>
      <trkpt lat="46.1075" lon="6.42242">
        <ele>942</ele>
        <time>2011-04-30T10:20:45Z</time>
      </trkpt>
      <trkpt lat="46.10744" lon="6.42256">
        <ele>942</ele>
        <time>2011-04-30T10:20:46Z</time>
      </trkpt>
      <trkpt lat="46.10737" lon="6.42272">
        <ele>949</ele>
        <time>2011-04-30T10:20:47Z</time>
      </trkpt>
      <trkpt lat="46.10733" lon="6.4229">
        <ele>949</ele>
        <time>2011-04-30T10:20:48Z</time>
      </trkpt>
      <trkpt lat="46.10729" lon="6.42309">
        <ele>949</ele>
        <time>2011-04-30T10:20:49Z</time>
      </trkpt>
      <trkpt lat="46.10724" lon="6.42329">
        <ele>949</ele>
        <time>2011-04-30T10:20:50Z</time>
      </trkpt>
      <trkpt lat="46.10721" lon="6.42349">
        <ele>954</ele>
        <time>2011-04-30T10:20:51Z</time>
      </trkpt>
      <trkpt lat="46.10718" lon="6.42371">
        <ele>954</ele>
        <time>2011-04-30T10:20:52Z</time>
      </trkpt>
      <trkpt lat="46.10715" lon="6.42393">
        <ele>954</ele>
        <time>2011-04-30T10:20:53Z</time>
      </trkpt>
      <trkpt lat="46.10714" lon="6.42416">
        <ele>954</ele>
        <time>2011-04-30T10:20:54Z</time>
      </trkpt>
      <trkpt lat="46.10712" lon="6.42437">
        <ele>959</ele>
        <time>2011-04-30T10:20:55Z</time>
      </trkpt>
      <trkpt lat="46.10712" lon="6.42457">
        <ele>959</ele>
        <time>2011-04-30T10:20:56Z</time>
      </trkpt>
      <trkpt lat="46.1071" lon="6.42477">
        <ele>959</ele>
        <time>2011-04-30T10:20:57Z</time>
      </trkpt>
      <trkpt lat="46.10707" lon="6.42496">
        <ele>959</ele>
        <time>2011-04-30T10:20:58Z</time>
      </trkpt>
      <trkpt lat="46.10702" lon="6.42513">
        <ele>959</ele>
        <time>2011-04-30T10:20:59Z</time>
      </trkpt>
      <trkpt lat="46.10694" lon="6.4253">
        <ele>965</ele>
        <time>2011-04-30T10:21:00Z</time>
      </trkpt>
      <trkpt lat="46.10685" lon="6.42544">
        <ele>965</ele>
        <time>2011-04-30T10:21:01Z</time>
      </trkpt>
      <trkpt lat="46.10676" lon="6.42555">
        <ele>965</ele>
        <time>2011-04-30T10:21:02Z</time>
      </trkpt>
      <trkpt lat="46.10667" lon="6.42564">
        <ele>965</ele>
        <time>2011-04-30T10:21:03Z</time>
      </trkpt>
      <trkpt lat="46.10658" lon="6.4257">
        <ele>965</ele>
        <time>2011-04-30T10:21:04Z</time>
      </trkpt>
      <trkpt lat="46.10649" lon="6.42576">
        <ele>965</ele>
        <time>2011-04-30T10:21:05Z</time>
      </trkpt>
      <trkpt lat="46.10636" lon="6.42587">
        <ele>971</ele>
        <time>2011-04-30T10:21:07Z</time>
      </trkpt>
      <trkpt lat="46.10632" lon="6.42603">
        <ele>971</ele>
        <time>2011-04-30T10:21:09Z</time>
      </trkpt>
      <trkpt lat="46.10639" lon="6.42615">
        <ele>971</ele>
        <time>2011-04-30T10:21:11Z</time>
      </trkpt>
      <trkpt lat="46.10658" lon="6.42615">
        <ele>971</ele>
        <time>2011-04-30T10:21:13Z</time>
      </trkpt>
      <trkpt lat="46.10669" lon="6.4261">
        <ele>971</ele>
        <time>2011-04-30T10:21:14Z</time>
      </trkpt>
      <trkpt lat="46.10679" lon="6.42606">
        <ele>971</ele>
        <time>2011-04-30T10:21:15Z</time>
      </trkpt>
      <trkpt lat="46.10692" lon="6.42604">
        <ele>977</ele>
        <time>2011-04-30T10:21:16Z</time>
      </trkpt>
      <trkpt lat="46.10705" lon="6.42603">
        <ele>977</ele>
        <time>2011-04-30T10:21:17Z</time>
      </trkpt>
      <trkpt lat="46.10718" lon="6.42598">
        <ele>977</ele>
        <time>2011-04-30T10:21:18Z</time>
      </trkpt>
      <trkpt lat="46.10731" lon="6.42591">
        <ele>977</ele>
        <time>2011-04-30T10:21:19Z</time>
      </trkpt>
      <trkpt lat="46.10745" lon="6.42582">
        <ele>977</ele>
        <time>2011-04-30T10:21:20Z</time>
      </trkpt>
      <trkpt lat="46.10759" lon="6.42572">
        <ele>982</ele>
        <time>2011-04-30T10:21:21Z</time>
      </trkpt>
      <trkpt lat="46.10772" lon="6.42561">
        <ele>982</ele>
        <time>2011-04-30T10:21:22Z</time>
      </trkpt>
      <trkpt lat="46.10783" lon="6.42549">
        <ele>982</ele>
        <time>2011-04-30T10:21:23Z</time>
      </trkpt>
      <trkpt lat="46.10792" lon="6.42534">
        <ele>982</ele>
        <time>2011-04-30T10:21:24Z</time>
      </trkpt>
      <trkpt lat="46.108" lon="6.42517">
        <ele>982</ele>
        <time>2011-04-30T10:21:25Z</time>
      </trkpt>
      <trkpt lat="46.10808" lon="6.42504">
        <ele>987</ele>
        <time>2011-04-30T10:21:26Z</time>
      </trkpt>
      <trkpt lat="46.10817" lon="6.42493">
        <ele>987</ele>
        <time>2011-04-30T10:21:27Z</time>
      </trkpt>
      <trkpt lat="46.10825" lon="6.42487">
        <ele>987</ele>
        <time>2011-04-30T10:21:28Z</time>
      </trkpt>
      <trkpt lat="46.10835" lon="6.42486">
        <ele>987</ele>
        <time>2011-04-30T10:21:29Z</time>
      </trkpt>
      <trkpt lat="46.10845" lon="6.42491">
        <ele>987</ele>
        <time>2011-04-30T10:21:30Z</time>
      </trkpt>
      <trkpt lat="46.10857" lon="6.42502">
        <ele>987</ele>
        <time>2011-04-30T10:21:31Z</time>
      </trkpt>
      <trkpt lat="46.10868" lon="6.42514">
        <ele>993</ele>
        <time>2011-04-30T10:21:32Z</time>
      </trkpt>
      <trkpt lat="46.1088" lon="6.42526">
        <ele>993</ele>
        <time>2011-04-30T10:21:33Z</time>
      </trkpt>
      <trkpt lat="46.10893" lon="6.42537">
        <ele>993</ele>
        <time>2011-04-30T10:21:34Z</time>
      </trkpt>
      <trkpt lat="46.10904" lon="6.42547">
        <ele>993</ele>
        <time>2011-04-30T10:21:35Z</time>
      </trkpt>
      <trkpt lat="46.10914" lon="6.42555">
        <ele>993</ele>
        <time>2011-04-30T10:21:36Z</time>
      </trkpt>
      <trkpt lat="46.10923" lon="6.4256">
        <ele>999</ele>
        <time>2011-04-30T10:21:37Z</time>
      </trkpt>
      <trkpt lat="46.10932" lon="6.42564">
        <ele>999</ele>
        <time>2011-04-30T10:21:38Z</time>
      </trkpt>
      <trkpt lat="46.10947" lon="6.42562">
        <ele>999</ele>
        <time>2011-04-30T10:21:40Z</time>
      </trkpt>
      <trkpt lat="46.10957" lon="6.42543">
        <ele>999</ele>
        <time>2011-04-30T10:21:42Z</time>
      </trkpt>
      <trkpt lat="46.10964" lon="6.42521">
        <ele>999</ele>
        <time>2011-04-30T10:21:44Z</time>
      </trkpt>
      <trkpt lat="46.10975" lon="6.42507">
        <ele>999</ele>
        <time>2011-04-30T10:21:46Z</time>
      </trkpt>
      <trkpt lat="46.10987" lon="6.42495">
        <ele>1006</ele>
        <time>2011-04-30T10:21:48Z</time>
      </trkpt>
      <trkpt lat="46.10996" lon="6.42483">
        <ele>1006</ele>
        <time>2011-04-30T10:21:50Z</time>
      </trkpt>
      <trkpt lat="46.11002" lon="6.42469">
        <ele>1006</ele>
        <time>2011-04-30T10:21:53Z</time>
      </trkpt>
      <trkpt lat="46.11005" lon="6.42455">
        <ele>1006</ele>
        <time>2011-04-30T10:21:57Z</time>
      </trkpt>
      <trkpt lat="46.10998" lon="6.42471">
        <ele>1006</ele>
        <time>2011-04-30T10:22:14Z</time>
      </trkpt>
      <trkpt lat="46.10991" lon="6.42487">
        <ele>1006</ele>
        <time>2011-04-30T10:22:16Z</time>
      </trkpt>
      <trkpt lat="46.10978" lon="6.425">
        <ele>1006</ele>
        <time>2011-04-30T10:22:18Z</time>
      </trkpt>
      <trkpt lat="46.10967" lon="6.42509">
        <ele>1006</ele>
        <time>2011-04-30T10:22:20Z</time>
      </trkpt>
      <trkpt lat="46.10958" lon="6.4252">
        <ele>1006</ele>
        <time>2011-04-30T10:22:22Z</time>
      </trkpt>
      <trkpt lat="46.10952" lon="6.42536">
        <ele>1006</ele>
        <time>2011-04-30T10:22:24Z</time>
      </trkpt>
      <trkpt lat="46.10947" lon="6.42551">
        <ele>1006</ele>
        <time>2011-04-30T10:22:26Z</time>
      </trkpt>
      <trkpt lat="46.10938" lon="6.42561">
        <ele>1000</ele>
        <time>2011-04-30T10:22:30Z</time>
      </trkpt>
      <trkpt lat="46.10949" lon="6.42547">
        <ele>1000</ele>
        <time>2011-04-30T10:22:36Z</time>
      </trkpt>
      <trkpt lat="46.10956" lon="6.42525">
        <ele>1000</ele>
        <time>2011-04-30T10:22:38Z</time>
      </trkpt>
      <trkpt lat="46.10963" lon="6.42512">
        <ele>1000</ele>
        <time>2011-04-30T10:22:40Z</time>
      </trkpt>
      <trkpt lat="46.10975" lon="6.42505">
        <ele>1000</ele>
        <time>2011-04-30T10:22:44Z</time>
      </trkpt>
      <trkpt lat="46.10987" lon="6.42493">
        <ele>1000</ele>
        <time>2011-04-30T10:22:46Z</time>
      </trkpt>
      <trkpt lat="46.10993" lon="6.42482">
        <ele>1000</ele>
        <time>2011-04-30T10:22:47Z</time>
      </trkpt>
      <trkpt lat="46.10998" lon="6.4247">
        <ele>1000</ele>
        <time>2011-04-30T10:22:48Z</time>
      </trkpt>
      <trkpt lat="46.11002" lon="6.42456">
        <ele>1000</ele>
        <time>2011-04-30T10:22:49Z</time>
      </trkpt>
      <trkpt lat="46.11003" lon="6.42442">
        <ele>1000</ele>
        <time>2011-04-30T10:22:50Z</time>
      </trkpt>
      <trkpt lat="46.11005" lon="6.42428">
        <ele>1000</ele>
        <time>2011-04-30T10:22:51Z</time>
      </trkpt>
      <trkpt lat="46.11007" lon="6.42413">
        <ele>1000</ele>
        <time>2011-04-30T10:22:52Z</time>
      </trkpt>
      <trkpt lat="46.11009" lon="6.42401">
        <ele>1006</ele>
        <time>2011-04-30T10:22:53Z</time>
      </trkpt>
      <trkpt lat="46.11017" lon="6.42384">
        <ele>1006</ele>
        <time>2011-04-30T10:22:55Z</time>
      </trkpt>
      <trkpt lat="46.1103" lon="6.42383">
        <ele>1006</ele>
        <time>2011-04-30T10:22:57Z</time>
      </trkpt>
      <trkpt lat="46.11037" lon="6.42392">
        <ele>1006</ele>
        <time>2011-04-30T10:22:58Z</time>
      </trkpt>
      <trkpt lat="46.11037" lon="6.42405">
        <ele>1006</ele>
        <time>2011-04-30T10:22:59Z</time>
      </trkpt>
      <trkpt lat="46.11035" lon="6.42422">
        <ele>1006</ele>
        <time>2011-04-30T10:23:00Z</time>
      </trkpt>
      <trkpt lat="46.11032" lon="6.42441">
        <ele>1006</ele>
        <time>2011-04-30T10:23:01Z</time>
      </trkpt>
      <trkpt lat="46.1103" lon="6.42462">
        <ele>1006</ele>
        <time>2011-04-30T10:23:02Z</time>
      </trkpt>
      <trkpt lat="46.11028" lon="6.42485">
        <ele>1006</ele>
        <time>2011-04-30T10:23:03Z</time>
      </trkpt>
      <trkpt lat="46.11027" lon="6.42508">
        <ele>1011</ele>
        <time>2011-04-30T10:23:04Z</time>
      </trkpt>
      <trkpt lat="46.11023" lon="6.42534">
        <ele>1011</ele>
        <time>2011-04-30T10:23:05Z</time>
      </trkpt>
      <trkpt lat="46.11018" lon="6.42558">
        <ele>1011</ele>
        <time>2011-04-30T10:23:06Z</time>
      </trkpt>
      <trkpt lat="46.11012" lon="6.4258">
        <ele>1011</ele>
        <time>2011-04-30T10:23:07Z</time>
      </trkpt>
      <trkpt lat="46.11002" lon="6.42602">
        <ele>1011</ele>
        <time>2011-04-30T10:23:08Z</time>
      </trkpt>
      <trkpt lat="46.10993" lon="6.42622">
        <ele>1017</ele>
        <time>2011-04-30T10:23:09Z</time>
      </trkpt>
      <trkpt lat="46.10984" lon="6.42641">
        <ele>1017</ele>
        <time>2011-04-30T10:23:10Z</time>
      </trkpt>
      <trkpt lat="46.10977" lon="6.42663">
        <ele>1017</ele>
        <time>2011-04-30T10:23:11Z</time>
      </trkpt>
      <trkpt lat="46.1097" lon="6.42685">
        <ele>1017</ele>
        <time>2011-04-30T10:23:12Z</time>
      </trkpt>
      <trkpt lat="46.10964" lon="6.42707">
        <ele>1022</ele>
        <time>2011-04-30T10:23:13Z</time>
      </trkpt>
      <trkpt lat="46.10958" lon="6.42726">
        <ele>1022</ele>
        <time>2011-04-30T10:23:14Z</time>
      </trkpt>
      <trkpt lat="46.10953" lon="6.42743">
        <ele>1022</ele>
        <time>2011-04-30T10:23:15Z</time>
      </trkpt>
      <trkpt lat="46.10947" lon="6.42758">
        <ele>1022</ele>
        <time>2011-04-30T10:23:16Z</time>
      </trkpt>
      <trkpt lat="46.1094" lon="6.42772">
        <ele>1022</ele>
        <time>2011-04-30T10:23:17Z</time>
      </trkpt>
      <trkpt lat="46.10933" lon="6.42786">
        <ele>1028</ele>
        <time>2011-04-30T10:23:18Z</time>
      </trkpt>
      <trkpt lat="46.10927" lon="6.42799">
        <ele>1028</ele>
        <time>2011-04-30T10:23:19Z</time>
      </trkpt>
      <trkpt lat="46.10921" lon="6.4281">
        <ele>1028</ele>
        <time>2011-04-30T10:23:20Z</time>
      </trkpt>
      <trkpt lat="46.10915" lon="6.42821">
        <ele>1028</ele>
        <time>2011-04-30T10:23:21Z</time>
      </trkpt>
      <trkpt lat="46.10908" lon="6.42831">
        <ele>1028</ele>
        <time>2011-04-30T10:23:22Z</time>
      </trkpt>
      <trkpt lat="46.109" lon="6.42841">
        <ele>1028</ele>
        <time>2011-04-30T10:23:23Z</time>
      </trkpt>
      <trkpt lat="46.10891" lon="6.42851">
        <ele>1028</ele>
        <time>2011-04-30T10:23:24Z</time>
      </trkpt>
      <trkpt lat="46.10881" lon="6.42861">
        <ele>1034</ele>
        <time>2011-04-30T10:23:25Z</time>
      </trkpt>
      <trkpt lat="46.10871" lon="6.42871">
        <ele>1034</ele>
        <time>2011-04-30T10:23:26Z</time>
      </trkpt>
      <trkpt lat="46.10861" lon="6.42882">
        <ele>1034</ele>
        <time>2011-04-30T10:23:27Z</time>
      </trkpt>
      <trkpt lat="46.10851" lon="6.42893">
        <ele>1034</ele>
        <time>2011-04-30T10:23:28Z</time>
      </trkpt>
      <trkpt lat="46.10842" lon="6.42904">
        <ele>1034</ele>
        <time>2011-04-30T10:23:29Z</time>
      </trkpt>
      <trkpt lat="46.10834" lon="6.42913">
        <ele>1034</ele>
        <time>2011-04-30T10:23:30Z</time>
      </trkpt>
      <trkpt lat="46.10824" lon="6.4293">
        <ele>1034</ele>
        <time>2011-04-30T10:23:32Z</time>
      </trkpt>
      <trkpt lat="46.10819" lon="6.42945">
        <ele>1039</ele>
        <time>2011-04-30T10:23:34Z</time>
      </trkpt>
      <trkpt lat="46.10815" lon="6.42959">
        <ele>1039</ele>
        <time>2011-04-30T10:23:36Z</time>
      </trkpt>
      <trkpt lat="46.1081" lon="6.42975">
        <ele>1039</ele>
        <time>2011-04-30T10:23:38Z</time>
      </trkpt>
      <trkpt lat="46.10805" lon="6.42986">
        <ele>1039</ele>
        <time>2011-04-30T10:23:41Z</time>
      </trkpt>
      <trkpt lat="46.10805" lon="6.43">
        <ele>1047</ele>
        <time>2011-04-30T10:23:54Z</time>
      </trkpt>
      <trkpt lat="46.10798" lon="6.4302">
        <ele>1047</ele>
        <time>2011-04-30T10:23:56Z</time>
      </trkpt>
      <trkpt lat="46.10793" lon="6.43033">
        <ele>1047</ele>
        <time>2011-04-30T10:23:57Z</time>
      </trkpt>
      <trkpt lat="46.10786" lon="6.43049">
        <ele>1047</ele>
        <time>2011-04-30T10:23:58Z</time>
      </trkpt>
      <trkpt lat="46.10778" lon="6.4307">
        <ele>1047</ele>
        <time>2011-04-30T10:23:59Z</time>
      </trkpt>
      <trkpt lat="46.10771" lon="6.43088">
        <ele>1047</ele>
        <time>2011-04-30T10:24:00Z</time>
      </trkpt>
      <trkpt lat="46.10765" lon="6.43103">
        <ele>1047</ele>
        <time>2011-04-30T10:24:01Z</time>
      </trkpt>
      <trkpt lat="46.10755" lon="6.43123">
        <ele>1047</ele>
        <time>2011-04-30T10:24:03Z</time>
      </trkpt>
      <trkpt lat="46.10749" lon="6.43134">
        <ele>1047</ele>
        <time>2011-04-30T10:24:04Z</time>
      </trkpt>
      <trkpt lat="46.10743" lon="6.43143">
        <ele>1053</ele>
        <time>2011-04-30T10:24:05Z</time>
      </trkpt>
      <trkpt lat="46.10735" lon="6.43153">
        <ele>1053</ele>
        <time>2011-04-30T10:24:06Z</time>
      </trkpt>
      <trkpt lat="46.10726" lon="6.43163">
        <ele>1053</ele>
        <time>2011-04-30T10:24:07Z</time>
      </trkpt>
      <trkpt lat="46.10716" lon="6.43172">
        <ele>1053</ele>
        <time>2011-04-30T10:24:08Z</time>
      </trkpt>
      <trkpt lat="46.10705" lon="6.4318">
        <ele>1053</ele>
        <time>2011-04-30T10:24:09Z</time>
      </trkpt>
      <trkpt lat="46.10694" lon="6.43188">
        <ele>1059</ele>
        <time>2011-04-30T10:24:10Z</time>
      </trkpt>
      <trkpt lat="46.10681" lon="6.43194">
        <ele>1059</ele>
        <time>2011-04-30T10:24:11Z</time>
      </trkpt>
      <trkpt lat="46.10669" lon="6.43198">
        <ele>1059</ele>
        <time>2011-04-30T10:24:12Z</time>
      </trkpt>
      <trkpt lat="46.10657" lon="6.43202">
        <ele>1059</ele>
        <time>2011-04-30T10:24:13Z</time>
      </trkpt>
      <trkpt lat="46.10645" lon="6.43203">
        <ele>1064</ele>
        <time>2011-04-30T10:24:14Z</time>
      </trkpt>
      <trkpt lat="46.10635" lon="6.43201">
        <ele>1064</ele>
        <time>2011-04-30T10:24:15Z</time>
      </trkpt>
      <trkpt lat="46.10625" lon="6.43196">
        <ele>1064</ele>
        <time>2011-04-30T10:24:16Z</time>
      </trkpt>
      <trkpt lat="46.10612" lon="6.43179">
        <ele>1064</ele>
        <time>2011-04-30T10:24:18Z</time>
      </trkpt>
      <trkpt lat="46.10601" lon="6.43165">
        <ele>1064</ele>
        <time>2011-04-30T10:24:20Z</time>
      </trkpt>
      <trkpt lat="46.10589" lon="6.4317">
        <ele>1064</ele>
        <time>2011-04-30T10:24:22Z</time>
      </trkpt>
      <trkpt lat="46.10585" lon="6.43193">
        <ele>1064</ele>
        <time>2011-04-30T10:24:24Z</time>
      </trkpt>
      <trkpt lat="46.10592" lon="6.43216">
        <ele>1064</ele>
        <time>2011-04-30T10:24:26Z</time>
      </trkpt>
      <trkpt lat="46.10597" lon="6.4323">
        <ele>1064</ele>
        <time>2011-04-30T10:24:27Z</time>
      </trkpt>
      <trkpt lat="46.10605" lon="6.43243">
        <ele>1064</ele>
        <time>2011-04-30T10:24:28Z</time>
      </trkpt>
      <trkpt lat="46.10617" lon="6.43257">
        <ele>1070</ele>
        <time>2011-04-30T10:24:29Z</time>
      </trkpt>
      <trkpt lat="46.10631" lon="6.4327">
        <ele>1070</ele>
        <time>2011-04-30T10:24:30Z</time>
      </trkpt>
      <trkpt lat="46.10645" lon="6.43283">
        <ele>1070</ele>
        <time>2011-04-30T10:24:31Z</time>
      </trkpt>
      <trkpt lat="46.10659" lon="6.43293">
        <ele>1076</ele>
        <time>2011-04-30T10:24:32Z</time>
      </trkpt>
      <trkpt lat="46.10672" lon="6.43301">
        <ele>1076</ele>
        <time>2011-04-30T10:24:33Z</time>
      </trkpt>
      <trkpt lat="46.10685" lon="6.43304">
        <ele>1076</ele>
        <time>2011-04-30T10:24:34Z</time>
      </trkpt>
      <trkpt lat="46.10696" lon="6.43305">
        <ele>1076</ele>
        <time>2011-04-30T10:24:35Z</time>
      </trkpt>
      <trkpt lat="46.10705" lon="6.43307">
        <ele>1076</ele>
        <time>2011-04-30T10:24:36Z</time>
      </trkpt>
      <trkpt lat="46.10714" lon="6.43311">
        <ele>1082</ele>
        <time>2011-04-30T10:24:37Z</time>
      </trkpt>
      <trkpt lat="46.10724" lon="6.43325">
        <ele>1082</ele>
        <time>2011-04-30T10:24:39Z</time>
      </trkpt>
      <trkpt lat="46.10718" lon="6.4334">
        <ele>1082</ele>
        <time>2011-04-30T10:24:41Z</time>
      </trkpt>
      <trkpt lat="46.10707" lon="6.43344">
        <ele>1082</ele>
        <time>2011-04-30T10:24:42Z</time>
      </trkpt>
      <trkpt lat="46.10692" lon="6.43344">
        <ele>1082</ele>
        <time>2011-04-30T10:24:43Z</time>
      </trkpt>
      <trkpt lat="46.10678" lon="6.43345">
        <ele>1087</ele>
        <time>2011-04-30T10:24:44Z</time>
      </trkpt>
      <trkpt lat="46.10664" lon="6.43347">
        <ele>1087</ele>
        <time>2011-04-30T10:24:45Z</time>
      </trkpt>
      <trkpt lat="46.10649" lon="6.43348">
        <ele>1087</ele>
        <time>2011-04-30T10:24:46Z</time>
      </trkpt>
      <trkpt lat="46.10634" lon="6.4335">
        <ele>1087</ele>
        <time>2011-04-30T10:24:47Z</time>
      </trkpt>
      <trkpt lat="46.1062" lon="6.43353">
        <ele>1093</ele>
        <time>2011-04-30T10:24:48Z</time>
      </trkpt>
      <trkpt lat="46.10607" lon="6.43356">
        <ele>1093</ele>
        <time>2011-04-30T10:24:49Z</time>
      </trkpt>
      <trkpt lat="46.10594" lon="6.43362">
        <ele>1093</ele>
        <time>2011-04-30T10:24:50Z</time>
      </trkpt>
      <trkpt lat="46.10582" lon="6.43368">
        <ele>1093</ele>
        <time>2011-04-30T10:24:51Z</time>
      </trkpt>
      <trkpt lat="46.10571" lon="6.43373">
        <ele>1093</ele>
        <time>2011-04-30T10:24:52Z</time>
      </trkpt>
      <trkpt lat="46.10562" lon="6.43377">
        <ele>1093</ele>
        <time>2011-04-30T10:24:53Z</time>
      </trkpt>
      <trkpt lat="46.10545" lon="6.43377">
        <ele>1099</ele>
        <time>2011-04-30T10:24:55Z</time>
      </trkpt>
      <trkpt lat="46.1053" lon="6.43364">
        <ele>1099</ele>
        <time>2011-04-30T10:24:57Z</time>
      </trkpt>
      <trkpt lat="46.10518" lon="6.43347">
        <ele>1099</ele>
        <time>2011-04-30T10:24:59Z</time>
      </trkpt>
      <trkpt lat="46.10505" lon="6.43333">
        <ele>1099</ele>
        <time>2011-04-30T10:25:01Z</time>
      </trkpt>
      <trkpt lat="46.10488" lon="6.43328">
        <ele>1105</ele>
        <time>2011-04-30T10:25:03Z</time>
      </trkpt>
      <trkpt lat="46.10479" lon="6.4333">
        <ele>1105</ele>
        <time>2011-04-30T10:25:04Z</time>
      </trkpt>
      <trkpt lat="46.10469" lon="6.43337">
        <ele>1105</ele>
        <time>2011-04-30T10:25:05Z</time>
      </trkpt>
      <trkpt lat="46.1046" lon="6.43343">
        <ele>1105</ele>
        <time>2011-04-30T10:25:06Z</time>
      </trkpt>
      <trkpt lat="46.1045" lon="6.43349">
        <ele>1105</ele>
        <time>2011-04-30T10:25:07Z</time>
      </trkpt>
      <trkpt lat="46.1044" lon="6.43355">
        <ele>1105</ele>
        <time>2011-04-30T10:25:08Z</time>
      </trkpt>
      <trkpt lat="46.10429" lon="6.43362">
        <ele>1110</ele>
        <time>2011-04-30T10:25:09Z</time>
      </trkpt>
      <trkpt lat="46.10418" lon="6.43368">
        <ele>1110</ele>
        <time>2011-04-30T10:25:10Z</time>
      </trkpt>
      <trkpt lat="46.10408" lon="6.43374">
        <ele>1110</ele>
        <time>2011-04-30T10:25:11Z</time>
      </trkpt>
      <trkpt lat="46.10399" lon="6.43381">
        <ele>1110</ele>
        <time>2011-04-30T10:25:12Z</time>
      </trkpt>
      <trkpt lat="46.1039" lon="6.43387">
        <ele>1110</ele>
        <time>2011-04-30T10:25:13Z</time>
      </trkpt>
      <trkpt lat="46.10381" lon="6.43392">
        <ele>1110</ele>
        <time>2011-04-30T10:25:14Z</time>
      </trkpt>
      <trkpt lat="46.10372" lon="6.43397">
        <ele>1110</ele>
        <time>2011-04-30T10:25:15Z</time>
      </trkpt>
      <trkpt lat="46.10357" lon="6.43404">
        <ele>1116</ele>
        <time>2011-04-30T10:25:17Z</time>
      </trkpt>
      <trkpt lat="46.10342" lon="6.43409">
        <ele>1116</ele>
        <time>2011-04-30T10:25:19Z</time>
      </trkpt>
      <trkpt lat="46.10325" lon="6.43415">
        <ele>1116</ele>
        <time>2011-04-30T10:25:21Z</time>
      </trkpt>
      <trkpt lat="46.10315" lon="6.43417">
        <ele>1116</ele>
        <time>2011-04-30T10:25:22Z</time>
      </trkpt>
      <trkpt lat="46.10307" lon="6.43421">
        <ele>1116</ele>
        <time>2011-04-30T10:25:23Z</time>
      </trkpt>
      <trkpt lat="46.10292" lon="6.43426">
        <ele>1122</ele>
        <time>2011-04-30T10:25:25Z</time>
      </trkpt>
      <trkpt lat="46.10277" lon="6.43431">
        <ele>1122</ele>
        <time>2011-04-30T10:25:27Z</time>
      </trkpt>
      <trkpt lat="46.10264" lon="6.43438">
        <ele>1122</ele>
        <time>2011-04-30T10:25:29Z</time>
      </trkpt>
      <trkpt lat="46.10254" lon="6.43453">
        <ele>1122</ele>
        <time>2011-04-30T10:25:31Z</time>
      </trkpt>
      <trkpt lat="46.10245" lon="6.43474">
        <ele>1122</ele>
        <time>2011-04-30T10:25:33Z</time>
      </trkpt>
      <trkpt lat="46.10238" lon="6.43495">
        <ele>1127</ele>
        <time>2011-04-30T10:25:35Z</time>
      </trkpt>
      <trkpt lat="46.10231" lon="6.43514">
        <ele>1127</ele>
        <time>2011-04-30T10:25:37Z</time>
      </trkpt>
      <trkpt lat="46.10224" lon="6.43535">
        <ele>1127</ele>
        <time>2011-04-30T10:25:39Z</time>
      </trkpt>
      <trkpt lat="46.10216" lon="6.43559">
        <ele>1127</ele>
        <time>2011-04-30T10:25:41Z</time>
      </trkpt>
      <trkpt lat="46.10211" lon="6.43572">
        <ele>1127</ele>
        <time>2011-04-30T10:25:42Z</time>
      </trkpt>
      <trkpt lat="46.10207" lon="6.43585">
        <ele>1133</ele>
        <time>2011-04-30T10:25:43Z</time>
      </trkpt>
      <trkpt lat="46.10203" lon="6.43597">
        <ele>1133</ele>
        <time>2011-04-30T10:25:44Z</time>
      </trkpt>
      <trkpt lat="46.10198" lon="6.4361">
        <ele>1133</ele>
        <time>2011-04-30T10:25:45Z</time>
      </trkpt>
      <trkpt lat="46.10187" lon="6.43632">
        <ele>1133</ele>
        <time>2011-04-30T10:25:47Z</time>
      </trkpt>
      <trkpt lat="46.1018" lon="6.43643">
        <ele>1133</ele>
        <time>2011-04-30T10:25:48Z</time>
      </trkpt>
      <trkpt lat="46.10171" lon="6.43654">
        <ele>1138</ele>
        <time>2011-04-30T10:25:49Z</time>
      </trkpt>
      <trkpt lat="46.10161" lon="6.43663">
        <ele>1138</ele>
        <time>2011-04-30T10:25:50Z</time>
      </trkpt>
      <trkpt lat="46.10151" lon="6.43672">
        <ele>1138</ele>
        <time>2011-04-30T10:25:51Z</time>
      </trkpt>
      <trkpt lat="46.10141" lon="6.43679">
        <ele>1138</ele>
        <time>2011-04-30T10:25:52Z</time>
      </trkpt>
      <trkpt lat="46.10129" lon="6.43684">
        <ele>1138</ele>
        <time>2011-04-30T10:25:53Z</time>
      </trkpt>
      <trkpt lat="46.10116" lon="6.43688">
        <ele>1144</ele>
        <time>2011-04-30T10:25:54Z</time>
      </trkpt>
      <trkpt lat="46.10103" lon="6.43691">
        <ele>1144</ele>
        <time>2011-04-30T10:25:55Z</time>
      </trkpt>
      <trkpt lat="46.10091" lon="6.43692">
        <ele>1144</ele>
        <time>2011-04-30T10:25:56Z</time>
      </trkpt>
      <trkpt lat="46.10079" lon="6.43693">
        <ele>1144</ele>
        <time>2011-04-30T10:25:57Z</time>
      </trkpt>
      <trkpt lat="46.10068" lon="6.43694">
        <ele>1144</ele>
        <time>2011-04-30T10:25:58Z</time>
      </trkpt>
      <trkpt lat="46.10058" lon="6.43696">
        <ele>1149</ele>
        <time>2011-04-30T10:25:59Z</time>
      </trkpt>
      <trkpt lat="46.10048" lon="6.437">
        <ele>1149</ele>
        <time>2011-04-30T10:26:00Z</time>
      </trkpt>
      <trkpt lat="46.10037" lon="6.43705">
        <ele>1149</ele>
        <time>2011-04-30T10:26:01Z</time>
      </trkpt>
      <trkpt lat="46.10026" lon="6.43712">
        <ele>1149</ele>
        <time>2011-04-30T10:26:02Z</time>
      </trkpt>
      <trkpt lat="46.10014" lon="6.4372">
        <ele>1149</ele>
        <time>2011-04-30T10:26:03Z</time>
      </trkpt>
      <trkpt lat="46.10002" lon="6.43727">
        <ele>1149</ele>
        <time>2011-04-30T10:26:04Z</time>
      </trkpt>
      <trkpt lat="46.09991" lon="6.43734">
        <ele>1155</ele>
        <time>2011-04-30T10:26:05Z</time>
      </trkpt>
      <trkpt lat="46.09982" lon="6.4374">
        <ele>1155</ele>
        <time>2011-04-30T10:26:06Z</time>
      </trkpt>
      <trkpt lat="46.09974" lon="6.43746">
        <ele>1155</ele>
        <time>2011-04-30T10:26:07Z</time>
      </trkpt>
      <trkpt lat="46.09959" lon="6.43762">
        <ele>1155</ele>
        <time>2011-04-30T10:26:09Z</time>
      </trkpt>
      <trkpt lat="46.09952" lon="6.43772">
        <ele>1155</ele>
        <time>2011-04-30T10:26:10Z</time>
      </trkpt>
      <trkpt lat="46.09946" lon="6.43782">
        <ele>1155</ele>
        <time>2011-04-30T10:26:11Z</time>
      </trkpt>
      <trkpt lat="46.09936" lon="6.43797">
        <ele>1160</ele>
        <time>2011-04-30T10:26:13Z</time>
      </trkpt>
      <trkpt lat="46.09927" lon="6.4381">
        <ele>1160</ele>
        <time>2011-04-30T10:26:15Z</time>
      </trkpt>
      <trkpt lat="46.09919" lon="6.43819">
        <ele>1160</ele>
        <time>2011-04-30T10:26:17Z</time>
      </trkpt>
      <trkpt lat="46.09912" lon="6.4383">
        <ele>1160</ele>
        <time>2011-04-30T10:26:20Z</time>
      </trkpt>
      <trkpt lat="46.09922" lon="6.43821">
        <ele>1160</ele>
        <time>2011-04-30T10:26:52Z</time>
      </trkpt>
      <trkpt lat="46.09931" lon="6.43809">
        <ele>1160</ele>
        <time>2011-04-30T10:26:54Z</time>
      </trkpt>
      <trkpt lat="46.09939" lon="6.43796">
        <ele>1160</ele>
        <time>2011-04-30T10:26:56Z</time>
      </trkpt>
      <trkpt lat="46.0995" lon="6.43779">
        <ele>1160</ele>
        <time>2011-04-30T10:26:58Z</time>
      </trkpt>
      <trkpt lat="46.09963" lon="6.4376">
        <ele>1160</ele>
        <time>2011-04-30T10:27:00Z</time>
      </trkpt>
      <trkpt lat="46.09971" lon="6.43751">
        <ele>1160</ele>
        <time>2011-04-30T10:27:01Z</time>
      </trkpt>
      <trkpt lat="46.09979" lon="6.43743">
        <ele>1160</ele>
        <time>2011-04-30T10:27:02Z</time>
      </trkpt>
      <trkpt lat="46.09989" lon="6.43735">
        <ele>1160</ele>
        <time>2011-04-30T10:27:03Z</time>
      </trkpt>
      <trkpt lat="46.10001" lon="6.43729">
        <ele>1160</ele>
        <time>2011-04-30T10:27:04Z</time>
      </trkpt>
      <trkpt lat="46.10012" lon="6.43722">
        <ele>1160</ele>
        <time>2011-04-30T10:27:05Z</time>
      </trkpt>
      <trkpt lat="46.10024" lon="6.43714">
        <ele>1160</ele>
        <time>2011-04-30T10:27:06Z</time>
      </trkpt>
      <trkpt lat="46.10035" lon="6.43707">
        <ele>1155</ele>
        <time>2011-04-30T10:27:07Z</time>
      </trkpt>
      <trkpt lat="46.10046" lon="6.437">
        <ele>1155</ele>
        <time>2011-04-30T10:27:08Z</time>
      </trkpt>
      <trkpt lat="46.10057" lon="6.43696">
        <ele>1155</ele>
        <time>2011-04-30T10:27:09Z</time>
      </trkpt>
      <trkpt lat="46.10069" lon="6.43693">
        <ele>1155</ele>
        <time>2011-04-30T10:27:10Z</time>
      </trkpt>
      <trkpt lat="46.10082" lon="6.43691">
        <ele>1155</ele>
        <time>2011-04-30T10:27:11Z</time>
      </trkpt>
      <trkpt lat="46.10094" lon="6.4369">
        <ele>1150</ele>
        <time>2011-04-30T10:27:12Z</time>
      </trkpt>
      <trkpt lat="46.10106" lon="6.43688">
        <ele>1150</ele>
        <time>2011-04-30T10:27:13Z</time>
      </trkpt>
      <trkpt lat="46.10118" lon="6.43686">
        <ele>1150</ele>
        <time>2011-04-30T10:27:14Z</time>
      </trkpt>
      <trkpt lat="46.10129" lon="6.43683">
        <ele>1150</ele>
        <time>2011-04-30T10:27:15Z</time>
      </trkpt>
      <trkpt lat="46.10141" lon="6.43679">
        <ele>1150</ele>
        <time>2011-04-30T10:27:16Z</time>
      </trkpt>
      <trkpt lat="46.10151" lon="6.43672">
        <ele>1150</ele>
        <time>2011-04-30T10:27:17Z</time>
      </trkpt>
      <trkpt lat="46.10162" lon="6.43663">
        <ele>1143</ele>
        <time>2011-04-30T10:27:18Z</time>
      </trkpt>
      <trkpt lat="46.10174" lon="6.43652">
        <ele>1143</ele>
        <time>2011-04-30T10:27:19Z</time>
      </trkpt>
      <trkpt lat="46.10184" lon="6.43639">
        <ele>1143</ele>
        <time>2011-04-30T10:27:20Z</time>
      </trkpt>
      <trkpt lat="46.10193" lon="6.43626">
        <ele>1143</ele>
        <time>2011-04-30T10:27:21Z</time>
      </trkpt>
      <trkpt lat="46.10201" lon="6.43609">
        <ele>1138</ele>
        <time>2011-04-30T10:27:22Z</time>
      </trkpt>
      <trkpt lat="46.10209" lon="6.43591">
        <ele>1138</ele>
        <time>2011-04-30T10:27:23Z</time>
      </trkpt>
      <trkpt lat="46.10216" lon="6.43572">
        <ele>1138</ele>
        <time>2011-04-30T10:27:24Z</time>
      </trkpt>
      <trkpt lat="46.10222" lon="6.43554">
        <ele>1138</ele>
        <time>2011-04-30T10:27:25Z</time>
      </trkpt>
      <trkpt lat="46.10229" lon="6.43537">
        <ele>1133</ele>
        <time>2011-04-30T10:27:26Z</time>
      </trkpt>
      <trkpt lat="46.10235" lon="6.4352">
        <ele>1133</ele>
        <time>2011-04-30T10:27:27Z</time>
      </trkpt>
      <trkpt lat="46.1024" lon="6.43505">
        <ele>1133</ele>
        <time>2011-04-30T10:27:28Z</time>
      </trkpt>
      <trkpt lat="46.10246" lon="6.4349">
        <ele>1133</ele>
        <time>2011-04-30T10:27:29Z</time>
      </trkpt>
      <trkpt lat="46.10251" lon="6.43477">
        <ele>1133</ele>
        <time>2011-04-30T10:27:30Z</time>
      </trkpt>
      <trkpt lat="46.10256" lon="6.43463">
        <ele>1128</ele>
        <time>2011-04-30T10:27:31Z</time>
      </trkpt>
      <trkpt lat="46.10267" lon="6.43444">
        <ele>1128</ele>
        <time>2011-04-30T10:27:33Z</time>
      </trkpt>
      <trkpt lat="46.1028" lon="6.43434">
        <ele>1128</ele>
        <time>2011-04-30T10:27:35Z</time>
      </trkpt>
      <trkpt lat="46.10297" lon="6.43427">
        <ele>1128</ele>
        <time>2011-04-30T10:27:37Z</time>
      </trkpt>
      <trkpt lat="46.10309" lon="6.43425">
        <ele>1122</ele>
        <time>2011-04-30T10:27:38Z</time>
      </trkpt>
      <trkpt lat="46.1032" lon="6.43421">
        <ele>1122</ele>
        <time>2011-04-30T10:27:39Z</time>
      </trkpt>
      <trkpt lat="46.10332" lon="6.43417">
        <ele>1122</ele>
        <time>2011-04-30T10:27:40Z</time>
      </trkpt>
      <trkpt lat="46.10344" lon="6.43413">
        <ele>1122</ele>
        <time>2011-04-30T10:27:41Z</time>
      </trkpt>
      <trkpt lat="46.10354" lon="6.43409">
        <ele>1122</ele>
        <time>2011-04-30T10:27:42Z</time>
      </trkpt>
      <trkpt lat="46.10365" lon="6.43404">
        <ele>1122</ele>
        <time>2011-04-30T10:27:43Z</time>
      </trkpt>
      <trkpt lat="46.10377" lon="6.43399">
        <ele>1122</ele>
        <time>2011-04-30T10:27:44Z</time>
      </trkpt>
      <trkpt lat="46.1039" lon="6.43393">
        <ele>1122</ele>
        <time>2011-04-30T10:27:45Z</time>
      </trkpt>
      <trkpt lat="46.10402" lon="6.43385">
        <ele>1122</ele>
        <time>2011-04-30T10:27:46Z</time>
      </trkpt>
      <trkpt lat="46.10415" lon="6.43378">
        <ele>1122</ele>
        <time>2011-04-30T10:27:47Z</time>
      </trkpt>
      <trkpt lat="46.10427" lon="6.4337">
        <ele>1116</ele>
        <time>2011-04-30T10:27:48Z</time>
      </trkpt>
      <trkpt lat="46.10439" lon="6.43363">
        <ele>1116</ele>
        <time>2011-04-30T10:27:49Z</time>
      </trkpt>
      <trkpt lat="46.10451" lon="6.43355">
        <ele>1116</ele>
        <time>2011-04-30T10:27:50Z</time>
      </trkpt>
      <trkpt lat="46.10462" lon="6.43348">
        <ele>1116</ele>
        <time>2011-04-30T10:27:51Z</time>
      </trkpt>
      <trkpt lat="46.10473" lon="6.43342">
        <ele>1116</ele>
        <time>2011-04-30T10:27:52Z</time>
      </trkpt>
      <trkpt lat="46.10484" lon="6.43336">
        <ele>1110</ele>
        <time>2011-04-30T10:27:53Z</time>
      </trkpt>
      <trkpt lat="46.10494" lon="6.43332">
        <ele>1110</ele>
        <time>2011-04-30T10:27:54Z</time>
      </trkpt>
      <trkpt lat="46.10504" lon="6.43331">
        <ele>1110</ele>
        <time>2011-04-30T10:27:55Z</time>
      </trkpt>
      <trkpt lat="46.10515" lon="6.43333">
        <ele>1110</ele>
        <time>2011-04-30T10:27:56Z</time>
      </trkpt>
      <trkpt lat="46.10524" lon="6.4334">
        <ele>1105</ele>
        <time>2011-04-30T10:27:57Z</time>
      </trkpt>
      <trkpt lat="46.10535" lon="6.43362">
        <ele>1105</ele>
        <time>2011-04-30T10:27:59Z</time>
      </trkpt>
      <trkpt lat="46.10547" lon="6.43376">
        <ele>1105</ele>
        <time>2011-04-30T10:28:01Z</time>
      </trkpt>
      <trkpt lat="46.10562" lon="6.43381">
        <ele>1098</ele>
        <time>2011-04-30T10:28:03Z</time>
      </trkpt>
      <trkpt lat="46.10575" lon="6.43375">
        <ele>1098</ele>
        <time>2011-04-30T10:28:05Z</time>
      </trkpt>
      <trkpt lat="46.10584" lon="6.43368">
        <ele>1098</ele>
        <time>2011-04-30T10:28:07Z</time>
      </trkpt>
      <trkpt lat="46.1059" lon="6.43358">
        <ele>1098</ele>
        <time>2011-04-30T10:28:10Z</time>
      </trkpt>
      <trkpt lat="46.10597" lon="6.43372">
        <ele>1098</ele>
        <time>2011-04-30T10:29:11Z</time>
      </trkpt>
      <trkpt lat="46.10605" lon="6.43391">
        <ele>1098</ele>
        <time>2011-04-30T10:29:13Z</time>
      </trkpt>
      <trkpt lat="46.10612" lon="6.43403">
        <ele>1098</ele>
        <time>2011-04-30T10:29:14Z</time>
      </trkpt>
      <trkpt lat="46.10618" lon="6.43416">
        <ele>1098</ele>
        <time>2011-04-30T10:29:15Z</time>
      </trkpt>
      <trkpt lat="46.10624" lon="6.43427">
        <ele>1098</ele>
        <time>2011-04-30T10:29:16Z</time>
      </trkpt>
      <trkpt lat="46.1063" lon="6.43452">
        <ele>1105</ele>
        <time>2011-04-30T10:29:18Z</time>
      </trkpt>
      <trkpt lat="46.10632" lon="6.43465">
        <ele>1105</ele>
        <time>2011-04-30T10:29:19Z</time>
      </trkpt>
      <trkpt lat="46.10629" lon="6.43489">
        <ele>1112</ele>
        <time>2011-04-30T10:29:21Z</time>
      </trkpt>
      <trkpt lat="46.10627" lon="6.4351">
        <ele>1112</ele>
        <time>2011-04-30T10:29:23Z</time>
      </trkpt>
      <trkpt lat="46.10627" lon="6.43528">
        <ele>1121</ele>
        <time>2011-04-30T10:29:25Z</time>
      </trkpt>
      <trkpt lat="46.10627" lon="6.43541">
        <ele>1121</ele>
        <time>2011-04-30T10:29:27Z</time>
      </trkpt>
      <trkpt lat="46.10624" lon="6.43555">
        <ele>1130</ele>
        <time>2011-04-30T10:29:29Z</time>
      </trkpt>
      <trkpt lat="46.1062" lon="6.43571">
        <ele>1135</ele>
        <time>2011-04-30T10:29:31Z</time>
      </trkpt>
      <trkpt lat="46.10616" lon="6.43591">
        <ele>1140</ele>
        <time>2011-04-30T10:29:33Z</time>
      </trkpt>
      <trkpt lat="46.10612" lon="6.4361">
        <ele>1140</ele>
        <time>2011-04-30T10:29:35Z</time>
      </trkpt>
      <trkpt lat="46.10605" lon="6.43627">
        <ele>1150</ele>
        <time>2011-04-30T10:29:37Z</time>
      </trkpt>
      <trkpt lat="46.10599" lon="6.43645">
        <ele>1156</ele>
        <time>2011-04-30T10:29:39Z</time>
      </trkpt>
      <trkpt lat="46.10594" lon="6.43659">
        <ele>1156</ele>
        <time>2011-04-30T10:29:41Z</time>
      </trkpt>
      <trkpt lat="46.10592" lon="6.43676">
        <ele>1165</ele>
        <time>2011-04-30T10:29:43Z</time>
      </trkpt>
      <trkpt lat="46.10589" lon="6.43694">
        <ele>1165</ele>
        <time>2011-04-30T10:29:45Z</time>
      </trkpt>
      <trkpt lat="46.10587" lon="6.43713">
        <ele>1175</ele>
        <time>2011-04-30T10:29:47Z</time>
      </trkpt>
      <trkpt lat="46.10588" lon="6.43729">
        <ele>1175</ele>
        <time>2011-04-30T10:29:49Z</time>
      </trkpt>
      <trkpt lat="46.10591" lon="6.43745">
        <ele>1186</ele>
        <time>2011-04-30T10:29:51Z</time>
      </trkpt>
      <trkpt lat="46.10594" lon="6.43762">
        <ele>1192</ele>
        <time>2011-04-30T10:29:53Z</time>
      </trkpt>
      <trkpt lat="46.10598" lon="6.43779">
        <ele>1192</ele>
        <time>2011-04-30T10:29:55Z</time>
      </trkpt>
      <trkpt lat="46.10601" lon="6.43797">
        <ele>1202</ele>
        <time>2011-04-30T10:29:57Z</time>
      </trkpt>
      <trkpt lat="46.10604" lon="6.43814">
        <ele>1207</ele>
        <time>2011-04-30T10:29:59Z</time>
      </trkpt>
      <trkpt lat="46.10607" lon="6.43826">
        <ele>1212</ele>
        <time>2011-04-30T10:30:01Z</time>
      </trkpt>
      <trkpt lat="46.10616" lon="6.43841">
        <ele>1218</ele>
        <time>2011-04-30T10:30:04Z</time>
      </trkpt>
      <trkpt lat="46.10622" lon="6.43852">
        <ele>1218</ele>
        <time>2011-04-30T10:30:06Z</time>
      </trkpt>
      <trkpt lat="46.10617" lon="6.43867">
        <ele>1234</ele>
        <time>2011-04-30T10:30:12Z</time>
      </trkpt>
      <trkpt lat="46.10607" lon="6.43873">
        <ele>1234</ele>
        <time>2011-04-30T10:30:14Z</time>
      </trkpt>
      <trkpt lat="46.1061" lon="6.43859">
        <ele>1282</ele>
        <time>2011-04-30T10:32:44Z</time>
      </trkpt>
      <trkpt lat="46.10602" lon="6.43867">
        <ele>1273</ele>
        <time>2011-04-30T10:33:19Z</time>
      </trkpt>
      <trkpt lat="46.106" lon="6.43879">
        <ele>1257</ele>
        <time>2011-04-30T10:33:36Z</time>
      </trkpt>
      <trkpt lat="46.1059" lon="6.43882">
        <ele>1226</ele>
        <time>2011-04-30T10:34:45Z</time>
      </trkpt>
      <trkpt lat="46.106" lon="6.43882">
        <ele>1235</ele>
        <time>2011-04-30T10:35:17Z</time>
      </trkpt>
      <trkpt lat="46.1059" lon="6.43879">
        <ele>1245</ele>
        <time>2011-04-30T10:36:09Z</time>
      </trkpt>
      <trkpt lat="46.1058" lon="6.43878">
        <ele>1245</ele>
        <time>2011-04-30T10:36:11Z</time>
      </trkpt>
      <trkpt lat="46.10565" lon="6.43881">
        <ele>1245</ele>
        <time>2011-04-30T10:36:13Z</time>
      </trkpt>
      <trkpt lat="46.10548" lon="6.43886">
        <ele>1245</ele>
        <time>2011-04-30T10:36:15Z</time>
      </trkpt>
      <trkpt lat="46.10536" lon="6.43891">
        <ele>1245</ele>
        <time>2011-04-30T10:36:16Z</time>
      </trkpt>
      <trkpt lat="46.10524" lon="6.43894">
        <ele>1245</ele>
        <time>2011-04-30T10:36:17Z</time>
      </trkpt>
      <trkpt lat="46.10512" lon="6.43899">
        <ele>1245</ele>
        <time>2011-04-30T10:36:18Z</time>
      </trkpt>
      <trkpt lat="46.10502" lon="6.43902">
        <ele>1251</ele>
        <time>2011-04-30T10:36:19Z</time>
      </trkpt>
      <trkpt lat="46.10491" lon="6.43903">
        <ele>1251</ele>
        <time>2011-04-30T10:36:20Z</time>
      </trkpt>
      <trkpt lat="46.10482" lon="6.43904">
        <ele>1251</ele>
        <time>2011-04-30T10:36:21Z</time>
      </trkpt>
      <trkpt lat="46.10465" lon="6.4391">
        <ele>1251</ele>
        <time>2011-04-30T10:36:23Z</time>
      </trkpt>
      <trkpt lat="46.10453" lon="6.43922">
        <ele>1251</ele>
        <time>2011-04-30T10:36:25Z</time>
      </trkpt>
      <trkpt lat="46.10442" lon="6.43939">
        <ele>1251</ele>
        <time>2011-04-30T10:36:27Z</time>
      </trkpt>
      <trkpt lat="46.10435" lon="6.43951">
        <ele>1251</ele>
        <time>2011-04-30T10:36:28Z</time>
      </trkpt>
      <trkpt lat="46.1043" lon="6.43963">
        <ele>1251</ele>
        <time>2011-04-30T10:36:29Z</time>
      </trkpt>
      <trkpt lat="46.10425" lon="6.43976">
        <ele>1251</ele>
        <time>2011-04-30T10:36:30Z</time>
      </trkpt>
      <trkpt lat="46.1042" lon="6.4399">
        <ele>1251</ele>
        <time>2011-04-30T10:36:31Z</time>
      </trkpt>
      <trkpt lat="46.10416" lon="6.44002">
        <ele>1257</ele>
        <time>2011-04-30T10:36:32Z</time>
      </trkpt>
      <trkpt lat="46.10409" lon="6.44022">
        <ele>1257</ele>
        <time>2011-04-30T10:36:34Z</time>
      </trkpt>
      <trkpt lat="46.10403" lon="6.44032">
        <ele>1257</ele>
        <time>2011-04-30T10:36:36Z</time>
      </trkpt>
      <trkpt lat="46.1039" lon="6.44026">
        <ele>1257</ele>
        <time>2011-04-30T10:36:38Z</time>
      </trkpt>
      <trkpt lat="46.1038" lon="6.44026">
        <ele>1264</ele>
        <time>2011-04-30T10:36:41Z</time>
      </trkpt>
      <trkpt lat="46.10388" lon="6.44036">
        <ele>1264</ele>
        <time>2011-04-30T10:36:44Z</time>
      </trkpt>
      <trkpt lat="46.10399" lon="6.44047">
        <ele>1272</ele>
        <time>2011-04-30T10:36:46Z</time>
      </trkpt>
      <trkpt lat="46.1041" lon="6.44057">
        <ele>1272</ele>
        <time>2011-04-30T10:36:48Z</time>
      </trkpt>
      <trkpt lat="46.1042" lon="6.4406">
        <ele>1272</ele>
        <time>2011-04-30T10:36:50Z</time>
      </trkpt>
      <trkpt lat="46.10426" lon="6.44045">
        <ele>1272</ele>
        <time>2011-04-30T10:36:52Z</time>
      </trkpt>
      <trkpt lat="46.10431" lon="6.44023">
        <ele>1272</ele>
        <time>2011-04-30T10:36:54Z</time>
      </trkpt>
      <trkpt lat="46.1044" lon="6.44">
        <ele>1272</ele>
        <time>2011-04-30T10:36:56Z</time>
      </trkpt>
      <trkpt lat="46.10453" lon="6.43989">
        <ele>1272</ele>
        <time>2011-04-30T10:36:58Z</time>
      </trkpt>
      <trkpt lat="46.10467" lon="6.43979">
        <ele>1272</ele>
        <time>2011-04-30T10:37:00Z</time>
      </trkpt>
      <trkpt lat="46.10482" lon="6.43975">
        <ele>1278</ele>
        <time>2011-04-30T10:37:02Z</time>
      </trkpt>
      <trkpt lat="46.10492" lon="6.43977">
        <ele>1278</ele>
        <time>2011-04-30T10:37:03Z</time>
      </trkpt>
      <trkpt lat="46.10503" lon="6.4398">
        <ele>1278</ele>
        <time>2011-04-30T10:37:04Z</time>
      </trkpt>
      <trkpt lat="46.10513" lon="6.43982">
        <ele>1278</ele>
        <time>2011-04-30T10:37:05Z</time>
      </trkpt>
      <trkpt lat="46.10523" lon="6.43985">
        <ele>1278</ele>
        <time>2011-04-30T10:37:06Z</time>
      </trkpt>
      <trkpt lat="46.10532" lon="6.4399">
        <ele>1278</ele>
        <time>2011-04-30T10:37:07Z</time>
      </trkpt>
      <trkpt lat="46.10548" lon="6.43997">
        <ele>1284</ele>
        <time>2011-04-30T10:37:09Z</time>
      </trkpt>
      <trkpt lat="46.10557" lon="6.44">
        <ele>1284</ele>
        <time>2011-04-30T10:37:10Z</time>
      </trkpt>
      <trkpt lat="46.10572" lon="6.4401">
        <ele>1284</ele>
        <time>2011-04-30T10:37:12Z</time>
      </trkpt>
      <trkpt lat="46.10586" lon="6.44021">
        <ele>1290</ele>
        <time>2011-04-30T10:37:14Z</time>
      </trkpt>
      <trkpt lat="46.10601" lon="6.44031">
        <ele>1290</ele>
        <time>2011-04-30T10:37:16Z</time>
      </trkpt>
      <trkpt lat="46.10617" lon="6.44038">
        <ele>1297</ele>
        <time>2011-04-30T10:37:18Z</time>
      </trkpt>
      <trkpt lat="46.10633" lon="6.44045">
        <ele>1297</ele>
        <time>2011-04-30T10:37:20Z</time>
      </trkpt>
      <trkpt lat="46.10649" lon="6.44053">
        <ele>1297</ele>
        <time>2011-04-30T10:37:22Z</time>
      </trkpt>
      <trkpt lat="46.10664" lon="6.44059">
        <ele>1304</ele>
        <time>2011-04-30T10:37:24Z</time>
      </trkpt>
      <trkpt lat="46.10681" lon="6.44063">
        <ele>1304</ele>
        <time>2011-04-30T10:37:26Z</time>
      </trkpt>
      <trkpt lat="46.10691" lon="6.44065">
        <ele>1309</ele>
        <time>2011-04-30T10:37:27Z</time>
      </trkpt>
      <trkpt lat="46.107" lon="6.44069">
        <ele>1309</ele>
        <time>2011-04-30T10:37:28Z</time>
      </trkpt>
      <trkpt lat="46.10717" lon="6.44071">
        <ele>1315</ele>
        <time>2011-04-30T10:37:30Z</time>
      </trkpt>
      <trkpt lat="46.10727" lon="6.44074">
        <ele>1315</ele>
        <time>2011-04-30T10:37:32Z</time>
      </trkpt>
      <trkpt lat="46.10737" lon="6.44067">
        <ele>1315</ele>
        <time>2011-04-30T10:37:35Z</time>
      </trkpt>
      <trkpt lat="46.10739" lon="6.44051">
        <ele>1315</ele>
        <time>2011-04-30T10:37:38Z</time>
      </trkpt>
      <trkpt lat="46.10745" lon="6.44038">
        <ele>1321</ele>
        <time>2011-04-30T10:37:41Z</time>
      </trkpt>
      <trkpt lat="46.10752" lon="6.44027">
        <ele>1321</ele>
        <time>2011-04-30T10:37:43Z</time>
      </trkpt>
      <trkpt lat="46.10759" lon="6.44015">
        <ele>1321</ele>
        <time>2011-04-30T10:37:45Z</time>
      </trkpt>
      <trkpt lat="46.10767" lon="6.44003">
        <ele>1328</ele>
        <time>2011-04-30T10:37:47Z</time>
      </trkpt>
      <trkpt lat="46.10774" lon="6.43991">
        <ele>1328</ele>
        <time>2011-04-30T10:37:49Z</time>
      </trkpt>
      <trkpt lat="46.10781" lon="6.43979">
        <ele>1328</ele>
        <time>2011-04-30T10:37:51Z</time>
      </trkpt>
      <trkpt lat="46.10788" lon="6.43965">
        <ele>1334</ele>
        <time>2011-04-30T10:37:53Z</time>
      </trkpt>
      <trkpt lat="46.10794" lon="6.43951">
        <ele>1334</ele>
        <time>2011-04-30T10:37:55Z</time>
      </trkpt>
      <trkpt lat="46.10797" lon="6.43936">
        <ele>1334</ele>
        <time>2011-04-30T10:37:57Z</time>
      </trkpt>
      <trkpt lat="46.10798" lon="6.4392">
        <ele>1341</ele>
        <time>2011-04-30T10:37:59Z</time>
      </trkpt>
      <trkpt lat="46.10805" lon="6.4393">
        <ele>1348</ele>
        <time>2011-04-30T10:38:07Z</time>
      </trkpt>
      <trkpt lat="46.10807" lon="6.43947">
        <ele>1348</ele>
        <time>2011-04-30T10:38:09Z</time>
      </trkpt>
      <trkpt lat="46.10809" lon="6.43965">
        <ele>1348</ele>
        <time>2011-04-30T10:38:11Z</time>
      </trkpt>
      <trkpt lat="46.10809" lon="6.43982">
        <ele>1348</ele>
        <time>2011-04-30T10:38:13Z</time>
      </trkpt>
      <trkpt lat="46.10805" lon="6.43997">
        <ele>1348</ele>
        <time>2011-04-30T10:38:15Z</time>
      </trkpt>
      <trkpt lat="46.10802" lon="6.44014">
        <ele>1354</ele>
        <time>2011-04-30T10:38:17Z</time>
      </trkpt>
      <trkpt lat="46.108" lon="6.4403">
        <ele>1354</ele>
        <time>2011-04-30T10:38:19Z</time>
      </trkpt>
      <trkpt lat="46.10798" lon="6.44046">
        <ele>1359</ele>
        <time>2011-04-30T10:38:21Z</time>
      </trkpt>
      <trkpt lat="46.10797" lon="6.44063">
        <ele>1359</ele>
        <time>2011-04-30T10:38:23Z</time>
      </trkpt>
      <trkpt lat="46.10798" lon="6.44079">
        <ele>1367</ele>
        <time>2011-04-30T10:38:26Z</time>
      </trkpt>
      <trkpt lat="46.10805" lon="6.44068">
        <ele>1373</ele>
        <time>2011-04-30T10:38:33Z</time>
      </trkpt>
      <trkpt lat="46.10811" lon="6.44057">
        <ele>1373</ele>
        <time>2011-04-30T10:38:35Z</time>
      </trkpt>
      <trkpt lat="46.10818" lon="6.44044">
        <ele>1373</ele>
        <time>2011-04-30T10:38:37Z</time>
      </trkpt>
      <trkpt lat="46.10828" lon="6.4403">
        <ele>1379</ele>
        <time>2011-04-30T10:38:39Z</time>
      </trkpt>
      <trkpt lat="46.10839" lon="6.44017">
        <ele>1379</ele>
        <time>2011-04-30T10:38:41Z</time>
      </trkpt>
      <trkpt lat="46.10849" lon="6.44">
        <ele>1385</ele>
        <time>2011-04-30T10:38:43Z</time>
      </trkpt>
      <trkpt lat="46.10857" lon="6.43983">
        <ele>1385</ele>
        <time>2011-04-30T10:38:45Z</time>
      </trkpt>
      <trkpt lat="46.10862" lon="6.4397">
        <ele>1385</ele>
        <time>2011-04-30T10:38:47Z</time>
      </trkpt>
      <trkpt lat="46.10868" lon="6.43981">
        <ele>1393</ele>
        <time>2011-04-30T10:38:53Z</time>
      </trkpt>
      <trkpt lat="46.10868" lon="6.43998">
        <ele>1393</ele>
        <time>2011-04-30T10:38:57Z</time>
      </trkpt>
      <trkpt lat="46.10868" lon="6.44013">
        <ele>1398</ele>
        <time>2011-04-30T10:39:00Z</time>
      </trkpt>
      <trkpt lat="46.10866" lon="6.4403">
        <ele>1398</ele>
        <time>2011-04-30T10:39:03Z</time>
      </trkpt>
      <trkpt lat="46.1086" lon="6.44045">
        <ele>1398</ele>
        <time>2011-04-30T10:40:40Z</time>
      </trkpt>
      <trkpt lat="46.10855" lon="6.44067">
        <ele>1398</ele>
        <time>2011-04-30T10:40:42Z</time>
      </trkpt>
      <trkpt lat="46.10853" lon="6.44081">
        <ele>1403</ele>
        <time>2011-04-30T10:40:43Z</time>
      </trkpt>
      <trkpt lat="46.10852" lon="6.44096">
        <ele>1403</ele>
        <time>2011-04-30T10:40:44Z</time>
      </trkpt>
      <trkpt lat="46.10851" lon="6.44113">
        <ele>1403</ele>
        <time>2011-04-30T10:40:45Z</time>
      </trkpt>
      <trkpt lat="46.10852" lon="6.44132">
        <ele>1403</ele>
        <time>2011-04-30T10:40:46Z</time>
      </trkpt>
      <trkpt lat="46.10852" lon="6.44151">
        <ele>1409</ele>
        <time>2011-04-30T10:40:47Z</time>
      </trkpt>
      <trkpt lat="46.10852" lon="6.4417">
        <ele>1409</ele>
        <time>2011-04-30T10:40:48Z</time>
      </trkpt>
      <trkpt lat="46.10852" lon="6.44188">
        <ele>1409</ele>
        <time>2011-04-30T10:40:49Z</time>
      </trkpt>
      <trkpt lat="46.10852" lon="6.44205">
        <ele>1409</ele>
        <time>2011-04-30T10:40:50Z</time>
      </trkpt>
      <trkpt lat="46.10852" lon="6.44221">
        <ele>1414</ele>
        <time>2011-04-30T10:40:51Z</time>
      </trkpt>
      <trkpt lat="46.10851" lon="6.44235">
        <ele>1414</ele>
        <time>2011-04-30T10:40:52Z</time>
      </trkpt>
      <trkpt lat="46.1085" lon="6.44249">
        <ele>1414</ele>
        <time>2011-04-30T10:40:53Z</time>
      </trkpt>
      <trkpt lat="46.10848" lon="6.44263">
        <ele>1414</ele>
        <time>2011-04-30T10:40:54Z</time>
      </trkpt>
      <trkpt lat="46.10845" lon="6.44287">
        <ele>1423</ele>
        <time>2011-04-30T10:40:56Z</time>
      </trkpt>
      <trkpt lat="46.1084" lon="6.44306">
        <ele>1423</ele>
        <time>2011-04-30T10:40:58Z</time>
      </trkpt>
      <trkpt lat="46.10831" lon="6.44319">
        <ele>1431</ele>
        <time>2011-04-30T10:41:00Z</time>
      </trkpt>
      <trkpt lat="46.10819" lon="6.44327">
        <ele>1431</ele>
        <time>2011-04-30T10:41:02Z</time>
      </trkpt>
      <trkpt lat="46.10802" lon="6.44324">
        <ele>1437</ele>
        <time>2011-04-30T10:41:04Z</time>
      </trkpt>
      <trkpt lat="46.10792" lon="6.44322">
        <ele>1437</ele>
        <time>2011-04-30T10:41:05Z</time>
      </trkpt>
      <trkpt lat="46.10775" lon="6.44321">
        <ele>1437</ele>
        <time>2011-04-30T10:41:07Z</time>
      </trkpt>
      <trkpt lat="46.10757" lon="6.44327">
        <ele>1443</ele>
        <time>2011-04-30T10:41:09Z</time>
      </trkpt>
      <trkpt lat="46.10749" lon="6.4433">
        <ele>1443</ele>
        <time>2011-04-30T10:41:10Z</time>
      </trkpt>
      <trkpt lat="46.10739" lon="6.44336">
        <ele>1443</ele>
        <time>2011-04-30T10:41:11Z</time>
      </trkpt>
      <trkpt lat="46.1073" lon="6.44343">
        <ele>1450</ele>
        <time>2011-04-30T10:41:12Z</time>
      </trkpt>
      <trkpt lat="46.1072" lon="6.4435">
        <ele>1450</ele>
        <time>2011-04-30T10:41:13Z</time>
      </trkpt>
      <trkpt lat="46.10712" lon="6.44357">
        <ele>1450</ele>
        <time>2011-04-30T10:41:14Z</time>
      </trkpt>
      <trkpt lat="46.10704" lon="6.44363">
        <ele>1456</ele>
        <time>2011-04-30T10:41:15Z</time>
      </trkpt>
      <trkpt lat="46.10689" lon="6.44374">
        <ele>1456</ele>
        <time>2011-04-30T10:41:17Z</time>
      </trkpt>
      <trkpt lat="46.10675" lon="6.44383">
        <ele>1466</ele>
        <time>2011-04-30T10:41:19Z</time>
      </trkpt>
      <trkpt lat="46.10663" lon="6.44394">
        <ele>1466</ele>
        <time>2011-04-30T10:41:21Z</time>
      </trkpt>
      <trkpt lat="46.10659" lon="6.44409">
        <ele>1472</ele>
        <time>2011-04-30T10:41:23Z</time>
      </trkpt>
      <trkpt lat="46.10664" lon="6.44433">
        <ele>1472</ele>
        <time>2011-04-30T10:41:25Z</time>
      </trkpt>
      <trkpt lat="46.10665" lon="6.44459">
        <ele>1481</ele>
        <time>2011-04-30T10:41:27Z</time>
      </trkpt>
      <trkpt lat="46.10668" lon="6.44473">
        <ele>1481</ele>
        <time>2011-04-30T10:41:28Z</time>
      </trkpt>
      <trkpt lat="46.10669" lon="6.44487">
        <ele>1481</ele>
        <time>2011-04-30T10:41:29Z</time>
      </trkpt>
      <trkpt lat="46.1067" lon="6.44501">
        <ele>1487</ele>
        <time>2011-04-30T10:41:30Z</time>
      </trkpt>
      <trkpt lat="46.1067" lon="6.44514">
        <ele>1487</ele>
        <time>2011-04-30T10:41:31Z</time>
      </trkpt>
      <trkpt lat="46.1067" lon="6.44528">
        <ele>1487</ele>
        <time>2011-04-30T10:41:32Z</time>
      </trkpt>
      <trkpt lat="46.1067" lon="6.44541">
        <ele>1494</ele>
        <time>2011-04-30T10:41:33Z</time>
      </trkpt>
      <trkpt lat="46.10669" lon="6.44555">
        <ele>1494</ele>
        <time>2011-04-30T10:41:34Z</time>
      </trkpt>
      <trkpt lat="46.10662" lon="6.4457">
        <ele>1500</ele>
        <time>2011-04-30T10:41:36Z</time>
      </trkpt>
      <trkpt lat="46.10652" lon="6.44572">
        <ele>1513</ele>
        <time>2011-04-30T10:41:39Z</time>
      </trkpt>
      <trkpt lat="46.10659" lon="6.44563">
        <ele>1521</ele>
        <time>2011-04-30T10:41:43Z</time>
      </trkpt>
      <trkpt lat="46.10675" lon="6.44552">
        <ele>1521</ele>
        <time>2011-04-30T10:41:45Z</time>
      </trkpt>
      <trkpt lat="46.10684" lon="6.44544">
        <ele>1521</ele>
        <time>2011-04-30T10:41:46Z</time>
      </trkpt>
      <trkpt lat="46.10693" lon="6.44535">
        <ele>1521</ele>
        <time>2011-04-30T10:41:47Z</time>
      </trkpt>
      <trkpt lat="46.10707" lon="6.4452">
        <ele>1521</ele>
        <time>2011-04-30T10:41:49Z</time>
      </trkpt>
      <trkpt lat="46.10719" lon="6.44507">
        <ele>1527</ele>
        <time>2011-04-30T10:41:51Z</time>
      </trkpt>
      <trkpt lat="46.10729" lon="6.445">
        <ele>1527</ele>
        <time>2011-04-30T10:41:53Z</time>
      </trkpt>
      <trkpt lat="46.10739" lon="6.44495">
        <ele>1527</ele>
        <time>2011-04-30T10:41:55Z</time>
      </trkpt>
      <trkpt lat="46.10752" lon="6.44499">
        <ele>1527</ele>
        <time>2011-04-30T10:41:57Z</time>
      </trkpt>
      <trkpt lat="46.10765" lon="6.44504">
        <ele>1527</ele>
        <time>2011-04-30T10:41:59Z</time>
      </trkpt>
      <trkpt lat="46.10779" lon="6.44511">
        <ele>1534</ele>
        <time>2011-04-30T10:42:01Z</time>
      </trkpt>
      <trkpt lat="46.10792" lon="6.44519">
        <ele>1534</ele>
        <time>2011-04-30T10:42:03Z</time>
      </trkpt>
      <trkpt lat="46.10805" lon="6.44531">
        <ele>1541</ele>
        <time>2011-04-30T10:42:05Z</time>
      </trkpt>
      <trkpt lat="46.10819" lon="6.44539">
        <ele>1541</ele>
        <time>2011-04-30T10:42:07Z</time>
      </trkpt>
      <trkpt lat="46.1083" lon="6.44539">
        <ele>1541</ele>
        <time>2011-04-30T10:42:08Z</time>
      </trkpt>
      <trkpt lat="46.10839" lon="6.44539">
        <ele>1546</ele>
        <time>2011-04-30T10:42:09Z</time>
      </trkpt>
      <trkpt lat="46.1085" lon="6.4453">
        <ele>1546</ele>
        <time>2011-04-30T10:42:10Z</time>
      </trkpt>
      <trkpt lat="46.10863" lon="6.44525">
        <ele>1546</ele>
        <time>2011-04-30T10:42:11Z</time>
      </trkpt>
      <trkpt lat="46.10875" lon="6.4452">
        <ele>1546</ele>
        <time>2011-04-30T10:42:12Z</time>
      </trkpt>
      <trkpt lat="46.10887" lon="6.44514">
        <ele>1546</ele>
        <time>2011-04-30T10:42:13Z</time>
      </trkpt>
      <trkpt lat="46.10897" lon="6.44509">
        <ele>1546</ele>
        <time>2011-04-30T10:42:14Z</time>
      </trkpt>
      <trkpt lat="46.10907" lon="6.44504">
        <ele>1546</ele>
        <time>2011-04-30T10:42:15Z</time>
      </trkpt>
      <trkpt lat="46.10916" lon="6.445">
        <ele>1546</ele>
        <time>2011-04-30T10:42:16Z</time>
      </trkpt>
      <trkpt lat="46.10925" lon="6.44495">
        <ele>1552</ele>
        <time>2011-04-30T10:42:17Z</time>
      </trkpt>
      <trkpt lat="46.10935" lon="6.44491">
        <ele>1552</ele>
        <time>2011-04-30T10:42:18Z</time>
      </trkpt>
      <trkpt lat="46.10945" lon="6.44486">
        <ele>1552</ele>
        <time>2011-04-30T10:42:19Z</time>
      </trkpt>
      <trkpt lat="46.10957" lon="6.44485">
        <ele>1552</ele>
        <time>2011-04-30T10:42:20Z</time>
      </trkpt>
      <trkpt lat="46.10968" lon="6.44484">
        <ele>1552</ele>
        <time>2011-04-30T10:42:21Z</time>
      </trkpt>
      <trkpt lat="46.1098" lon="6.44484">
        <ele>1558</ele>
        <time>2011-04-30T10:42:22Z</time>
      </trkpt>
      <trkpt lat="46.10991" lon="6.44484">
        <ele>1558</ele>
        <time>2011-04-30T10:42:23Z</time>
      </trkpt>
      <trkpt lat="46.11006" lon="6.44482">
        <ele>1558</ele>
        <time>2011-04-30T10:42:25Z</time>
      </trkpt>
      <trkpt lat="46.1102" lon="6.44469">
        <ele>1567</ele>
        <time>2011-04-30T10:42:27Z</time>
      </trkpt>
      <trkpt lat="46.11035" lon="6.44456">
        <ele>1567</ele>
        <time>2011-04-30T10:42:29Z</time>
      </trkpt>
      <trkpt lat="46.11044" lon="6.44448">
        <ele>1574</ele>
        <time>2011-04-30T10:42:30Z</time>
      </trkpt>
      <trkpt lat="46.11053" lon="6.4444">
        <ele>1574</ele>
        <time>2011-04-30T10:42:31Z</time>
      </trkpt>
      <trkpt lat="46.11063" lon="6.44433">
        <ele>1580</ele>
        <time>2011-04-30T10:42:32Z</time>
      </trkpt>
      <trkpt lat="46.11072" lon="6.44424">
        <ele>1580</ele>
        <time>2011-04-30T10:42:33Z</time>
      </trkpt>
      <trkpt lat="46.11082" lon="6.44416">
        <ele>1588</ele>
        <time>2011-04-30T10:42:34Z</time>
      </trkpt>
      <trkpt lat="46.1109" lon="6.44408">
        <ele>1588</ele>
        <time>2011-04-30T10:42:35Z</time>
      </trkpt>
      <trkpt lat="46.111" lon="6.444">
        <ele>1596</ele>
        <time>2011-04-30T10:42:36Z</time>
      </trkpt>
      <trkpt lat="46.11109" lon="6.44392">
        <ele>1596</ele>
        <time>2011-04-30T10:42:37Z</time>
      </trkpt>
      <trkpt lat="46.11118" lon="6.44385">
        <ele>1605</ele>
        <time>2011-04-30T10:42:38Z</time>
      </trkpt>
      <trkpt lat="46.11127" lon="6.44377">
        <ele>1605</ele>
        <time>2011-04-30T10:42:39Z</time>
      </trkpt>
      <trkpt lat="46.11134" lon="6.44369">
        <ele>1612</ele>
        <time>2011-04-30T10:42:40Z</time>
      </trkpt>
      <trkpt lat="46.11142" lon="6.44361">
        <ele>1612</ele>
        <time>2011-04-30T10:42:41Z</time>
      </trkpt>
      <trkpt lat="46.11157" lon="6.44347">
        <ele>1622</ele>
        <time>2011-04-30T10:42:43Z</time>
      </trkpt>
      <trkpt lat="46.1117" lon="6.44333">
        <ele>1627</ele>
        <time>2011-04-30T10:42:45Z</time>
      </trkpt>
      <trkpt lat="46.11176" lon="6.44324">
        <ele>1627</ele>
        <time>2011-04-30T10:42:46Z</time>
      </trkpt>
      <trkpt lat="46.11188" lon="6.4431">
        <ele>1633</ele>
        <time>2011-04-30T10:42:48Z</time>
      </trkpt>
      <trkpt lat="46.11196" lon="6.443">
        <ele>1633</ele>
        <time>2011-04-30T10:42:50Z</time>
      </trkpt>
      <trkpt lat="46.11185" lon="6.44301">
        <ele>1639</ele>
        <time>2011-04-30T11:19:19Z</time>
      </trkpt>
      <trkpt lat="46.11178" lon="6.44314">
        <ele>1639</ele>
        <time>2011-04-30T11:19:22Z</time>
      </trkpt>
      <trkpt lat="46.1117" lon="6.44327">
        <ele>1639</ele>
        <time>2011-04-30T11:19:25Z</time>
      </trkpt>
      <trkpt lat="46.11163" lon="6.44336">
        <ele>1639</ele>
        <time>2011-04-30T11:19:27Z</time>
      </trkpt>
      <trkpt lat="46.11155" lon="6.44345">
        <ele>1631</ele>
        <time>2011-04-30T11:19:29Z</time>
      </trkpt>
      <trkpt lat="46.11145" lon="6.44355">
        <ele>1631</ele>
        <time>2011-04-30T11:19:31Z</time>
      </trkpt>
      <trkpt lat="46.11135" lon="6.44366">
        <ele>1624</ele>
        <time>2011-04-30T11:19:33Z</time>
      </trkpt>
      <trkpt lat="46.11122" lon="6.44379">
        <ele>1624</ele>
        <time>2011-04-30T11:19:35Z</time>
      </trkpt>
      <trkpt lat="46.11107" lon="6.44392">
        <ele>1612</ele>
        <time>2011-04-30T11:19:37Z</time>
      </trkpt>
      <trkpt lat="46.1109" lon="6.44404">
        <ele>1604</ele>
        <time>2011-04-30T11:19:39Z</time>
      </trkpt>
      <trkpt lat="46.11075" lon="6.44416">
        <ele>1597</ele>
        <time>2011-04-30T11:19:41Z</time>
      </trkpt>
      <trkpt lat="46.1106" lon="6.44429">
        <ele>1590</ele>
        <time>2011-04-30T11:19:43Z</time>
      </trkpt>
      <trkpt lat="46.11045" lon="6.44442">
        <ele>1584</ele>
        <time>2011-04-30T11:19:45Z</time>
      </trkpt>
      <trkpt lat="46.11032" lon="6.44454">
        <ele>1578</ele>
        <time>2011-04-30T11:19:47Z</time>
      </trkpt>
      <trkpt lat="46.11022" lon="6.44463">
        <ele>1578</ele>
        <time>2011-04-30T11:19:49Z</time>
      </trkpt>
      <trkpt lat="46.11013" lon="6.44472">
        <ele>1569</ele>
        <time>2011-04-30T11:19:51Z</time>
      </trkpt>
      <trkpt lat="46.11008" lon="6.44484">
        <ele>1569</ele>
        <time>2011-04-30T11:19:53Z</time>
      </trkpt>
      <trkpt lat="46.11008" lon="6.44497">
        <ele>1564</ele>
        <time>2011-04-30T11:19:55Z</time>
      </trkpt>
      <trkpt lat="46.11011" lon="6.4451">
        <ele>1564</ele>
        <time>2011-04-30T11:19:57Z</time>
      </trkpt>
      <trkpt lat="46.11017" lon="6.44522">
        <ele>1564</ele>
        <time>2011-04-30T11:19:59Z</time>
      </trkpt>
      <trkpt lat="46.11027" lon="6.44538">
        <ele>1564</ele>
        <time>2011-04-30T11:20:01Z</time>
      </trkpt>
      <trkpt lat="46.11034" lon="6.4455">
        <ele>1564</ele>
        <time>2011-04-30T11:20:03Z</time>
      </trkpt>
      <trkpt lat="46.11047" lon="6.44557">
        <ele>1569</ele>
        <time>2011-04-30T11:20:06Z</time>
      </trkpt>
      <trkpt lat="46.1106" lon="6.44558">
        <ele>1569</ele>
        <time>2011-04-30T11:20:08Z</time>
      </trkpt>
      <trkpt lat="46.11074" lon="6.44559">
        <ele>1569</ele>
        <time>2011-04-30T11:20:10Z</time>
      </trkpt>
      <trkpt lat="46.11092" lon="6.44556">
        <ele>1569</ele>
        <time>2011-04-30T11:20:12Z</time>
      </trkpt>
      <trkpt lat="46.11101" lon="6.44554">
        <ele>1569</ele>
        <time>2011-04-30T11:20:13Z</time>
      </trkpt>
      <trkpt lat="46.11118" lon="6.4455">
        <ele>1563</ele>
        <time>2011-04-30T11:20:15Z</time>
      </trkpt>
      <trkpt lat="46.11135" lon="6.44548">
        <ele>1563</ele>
        <time>2011-04-30T11:20:17Z</time>
      </trkpt>
      <trkpt lat="46.11144" lon="6.44545">
        <ele>1563</ele>
        <time>2011-04-30T11:20:18Z</time>
      </trkpt>
      <trkpt lat="46.11153" lon="6.44542">
        <ele>1563</ele>
        <time>2011-04-30T11:20:19Z</time>
      </trkpt>
      <trkpt lat="46.11164" lon="6.44539">
        <ele>1563</ele>
        <time>2011-04-30T11:20:20Z</time>
      </trkpt>
      <trkpt lat="46.11173" lon="6.44537">
        <ele>1557</ele>
        <time>2011-04-30T11:20:21Z</time>
      </trkpt>
      <trkpt lat="46.11184" lon="6.44535">
        <ele>1557</ele>
        <time>2011-04-30T11:20:22Z</time>
      </trkpt>
      <trkpt lat="46.11193" lon="6.44533">
        <ele>1557</ele>
        <time>2011-04-30T11:20:23Z</time>
      </trkpt>
      <trkpt lat="46.11203" lon="6.4453">
        <ele>1557</ele>
        <time>2011-04-30T11:20:24Z</time>
      </trkpt>
      <trkpt lat="46.1122" lon="6.44523">
        <ele>1557</ele>
        <time>2011-04-30T11:20:26Z</time>
      </trkpt>
      <trkpt lat="46.11236" lon="6.44515">
        <ele>1551</ele>
        <time>2011-04-30T11:20:28Z</time>
      </trkpt>
      <trkpt lat="46.11251" lon="6.44502">
        <ele>1551</ele>
        <time>2011-04-30T11:20:30Z</time>
      </trkpt>
      <trkpt lat="46.11259" lon="6.44494">
        <ele>1551</ele>
        <time>2011-04-30T11:20:31Z</time>
      </trkpt>
      <trkpt lat="46.11266" lon="6.44485">
        <ele>1551</ele>
        <time>2011-04-30T11:20:32Z</time>
      </trkpt>
      <trkpt lat="46.11275" lon="6.44476">
        <ele>1545</ele>
        <time>2011-04-30T11:20:33Z</time>
      </trkpt>
      <trkpt lat="46.11282" lon="6.44466">
        <ele>1545</ele>
        <time>2011-04-30T11:20:34Z</time>
      </trkpt>
      <trkpt lat="46.1129" lon="6.44457">
        <ele>1545</ele>
        <time>2011-04-30T11:20:35Z</time>
      </trkpt>
      <trkpt lat="46.11298" lon="6.44447">
        <ele>1545</ele>
        <time>2011-04-30T11:20:36Z</time>
      </trkpt>
      <trkpt lat="46.11306" lon="6.44437">
        <ele>1545</ele>
        <time>2011-04-30T11:20:37Z</time>
      </trkpt>
      <trkpt lat="46.11318" lon="6.44429">
        <ele>1545</ele>
        <time>2011-04-30T11:20:38Z</time>
      </trkpt>
      <trkpt lat="46.11328" lon="6.44421">
        <ele>1545</ele>
        <time>2011-04-30T11:20:39Z</time>
      </trkpt>
      <trkpt lat="46.11338" lon="6.44415">
        <ele>1545</ele>
        <time>2011-04-30T11:20:40Z</time>
      </trkpt>
      <trkpt lat="46.11347" lon="6.44407">
        <ele>1539</ele>
        <time>2011-04-30T11:20:41Z</time>
      </trkpt>
      <trkpt lat="46.11356" lon="6.44398">
        <ele>1539</ele>
        <time>2011-04-30T11:20:42Z</time>
      </trkpt>
      <trkpt lat="46.11364" lon="6.44391">
        <ele>1539</ele>
        <time>2011-04-30T11:20:43Z</time>
      </trkpt>
      <trkpt lat="46.11372" lon="6.44384">
        <ele>1539</ele>
        <time>2011-04-30T11:20:44Z</time>
      </trkpt>
      <trkpt lat="46.1138" lon="6.44375">
        <ele>1539</ele>
        <time>2011-04-30T11:20:45Z</time>
      </trkpt>
      <trkpt lat="46.11388" lon="6.44365">
        <ele>1533</ele>
        <time>2011-04-30T11:20:46Z</time>
      </trkpt>
      <trkpt lat="46.11398" lon="6.44356">
        <ele>1533</ele>
        <time>2011-04-30T11:20:47Z</time>
      </trkpt>
      <trkpt lat="46.11406" lon="6.44346">
        <ele>1533</ele>
        <time>2011-04-30T11:20:48Z</time>
      </trkpt>
      <trkpt lat="46.11413" lon="6.44336">
        <ele>1533</ele>
        <time>2011-04-30T11:20:49Z</time>
      </trkpt>
      <trkpt lat="46.11421" lon="6.44325">
        <ele>1527</ele>
        <time>2011-04-30T11:20:50Z</time>
      </trkpt>
      <trkpt lat="46.11428" lon="6.44315">
        <ele>1527</ele>
        <time>2011-04-30T11:20:51Z</time>
      </trkpt>
      <trkpt lat="46.11435" lon="6.44296">
        <ele>1527</ele>
        <time>2011-04-30T11:20:53Z</time>
      </trkpt>
      <trkpt lat="46.11441" lon="6.44273">
        <ele>1527</ele>
        <time>2011-04-30T11:20:55Z</time>
      </trkpt>
      <trkpt lat="46.11446" lon="6.44251">
        <ele>1519</ele>
        <time>2011-04-30T11:20:57Z</time>
      </trkpt>
      <trkpt lat="46.11455" lon="6.44236">
        <ele>1519</ele>
        <time>2011-04-30T11:20:59Z</time>
      </trkpt>
      <trkpt lat="46.11462" lon="6.44221">
        <ele>1519</ele>
        <time>2011-04-30T11:21:01Z</time>
      </trkpt>
      <trkpt lat="46.11467" lon="6.44197">
        <ele>1513</ele>
        <time>2011-04-30T11:21:03Z</time>
      </trkpt>
      <trkpt lat="46.11469" lon="6.44184">
        <ele>1513</ele>
        <time>2011-04-30T11:21:04Z</time>
      </trkpt>
      <trkpt lat="46.11471" lon="6.4417">
        <ele>1513</ele>
        <time>2011-04-30T11:21:05Z</time>
      </trkpt>
      <trkpt lat="46.11472" lon="6.44157">
        <ele>1513</ele>
        <time>2011-04-30T11:21:06Z</time>
      </trkpt>
      <trkpt lat="46.11473" lon="6.44143">
        <ele>1508</ele>
        <time>2011-04-30T11:21:07Z</time>
      </trkpt>
      <trkpt lat="46.11472" lon="6.4412">
        <ele>1508</ele>
        <time>2011-04-30T11:21:09Z</time>
      </trkpt>
      <trkpt lat="46.11469" lon="6.44101">
        <ele>1500</ele>
        <time>2011-04-30T11:21:11Z</time>
      </trkpt>
      <trkpt lat="46.11469" lon="6.44084">
        <ele>1500</ele>
        <time>2011-04-30T11:21:13Z</time>
      </trkpt>
      <trkpt lat="46.11475" lon="6.44067">
        <ele>1494</ele>
        <time>2011-04-30T11:21:15Z</time>
      </trkpt>
      <trkpt lat="46.11479" lon="6.44047">
        <ele>1494</ele>
        <time>2011-04-30T11:21:17Z</time>
      </trkpt>
      <trkpt lat="46.11482" lon="6.44022">
        <ele>1487</ele>
        <time>2011-04-30T11:21:19Z</time>
      </trkpt>
      <trkpt lat="46.11483" lon="6.43999">
        <ele>1487</ele>
        <time>2011-04-30T11:21:21Z</time>
      </trkpt>
      <trkpt lat="46.11486" lon="6.43984">
        <ele>1487</ele>
        <time>2011-04-30T11:21:23Z</time>
      </trkpt>
      <trkpt lat="46.11494" lon="6.43992">
        <ele>1487</ele>
        <time>2011-04-30T11:22:02Z</time>
      </trkpt>
      <trkpt lat="46.11501" lon="6.44001">
        <ele>1487</ele>
        <time>2011-04-30T11:22:22Z</time>
      </trkpt>
      <trkpt lat="46.11504" lon="6.44018">
        <ele>1487</ele>
        <time>2011-04-30T11:22:46Z</time>
      </trkpt>
      <trkpt lat="46.11505" lon="6.44032">
        <ele>1487</ele>
        <time>2011-04-30T11:22:48Z</time>
      </trkpt>
      <trkpt lat="46.1151" lon="6.44054">
        <ele>1482</ele>
        <time>2011-04-30T11:22:50Z</time>
      </trkpt>
      <trkpt lat="46.11513" lon="6.44068">
        <ele>1482</ele>
        <time>2011-04-30T11:22:51Z</time>
      </trkpt>
      <trkpt lat="46.11516" lon="6.44081">
        <ele>1482</ele>
        <time>2011-04-30T11:22:52Z</time>
      </trkpt>
      <trkpt lat="46.11519" lon="6.44095">
        <ele>1482</ele>
        <time>2011-04-30T11:22:53Z</time>
      </trkpt>
      <trkpt lat="46.11523" lon="6.44107">
        <ele>1482</ele>
        <time>2011-04-30T11:22:54Z</time>
      </trkpt>
      <trkpt lat="46.11526" lon="6.4412">
        <ele>1482</ele>
        <time>2011-04-30T11:22:55Z</time>
      </trkpt>
      <trkpt lat="46.11533" lon="6.4414">
        <ele>1482</ele>
        <time>2011-04-30T11:22:57Z</time>
      </trkpt>
      <trkpt lat="46.11532" lon="6.4416">
        <ele>1482</ele>
        <time>2011-04-30T11:22:59Z</time>
      </trkpt>
      <trkpt lat="46.1153" lon="6.44185">
        <ele>1482</ele>
        <time>2011-04-30T11:23:01Z</time>
      </trkpt>
      <trkpt lat="46.11533" lon="6.4421">
        <ele>1482</ele>
        <time>2011-04-30T11:23:03Z</time>
      </trkpt>
      <trkpt lat="46.11537" lon="6.44231">
        <ele>1482</ele>
        <time>2011-04-30T11:23:05Z</time>
      </trkpt>
      <trkpt lat="46.11541" lon="6.44251">
        <ele>1482</ele>
        <time>2011-04-30T11:23:07Z</time>
      </trkpt>
      <trkpt lat="46.11546" lon="6.4427">
        <ele>1476</ele>
        <time>2011-04-30T11:23:09Z</time>
      </trkpt>
      <trkpt lat="46.11551" lon="6.44286">
        <ele>1476</ele>
        <time>2011-04-30T11:23:11Z</time>
      </trkpt>
      <trkpt lat="46.11558" lon="6.44301">
        <ele>1476</ele>
        <time>2011-04-30T11:23:13Z</time>
      </trkpt>
      <trkpt lat="46.1156" lon="6.44319">
        <ele>1471</ele>
        <time>2011-04-30T11:23:15Z</time>
      </trkpt>
      <trkpt lat="46.11559" lon="6.44336">
        <ele>1471</ele>
        <time>2011-04-30T11:23:17Z</time>
      </trkpt>
      <trkpt lat="46.11568" lon="6.44327">
        <ele>1457</ele>
        <time>2011-04-30T11:23:25Z</time>
      </trkpt>
      <trkpt lat="46.11576" lon="6.4431">
        <ele>1457</ele>
        <time>2011-04-30T11:23:27Z</time>
      </trkpt>
      <trkpt lat="46.11582" lon="6.44291">
        <ele>1452</ele>
        <time>2011-04-30T11:23:29Z</time>
      </trkpt>
      <trkpt lat="46.11589" lon="6.4427">
        <ele>1452</ele>
        <time>2011-04-30T11:23:31Z</time>
      </trkpt>
      <trkpt lat="46.11595" lon="6.44248">
        <ele>1452</ele>
        <time>2011-04-30T11:23:33Z</time>
      </trkpt>
      <trkpt lat="46.11602" lon="6.44229">
        <ele>1444</ele>
        <time>2011-04-30T11:23:35Z</time>
      </trkpt>
      <trkpt lat="46.11609" lon="6.44206">
        <ele>1444</ele>
        <time>2011-04-30T11:23:37Z</time>
      </trkpt>
      <trkpt lat="46.11614" lon="6.44182">
        <ele>1437</ele>
        <time>2011-04-30T11:23:39Z</time>
      </trkpt>
      <trkpt lat="46.11616" lon="6.44168">
        <ele>1437</ele>
        <time>2011-04-30T11:23:40Z</time>
      </trkpt>
      <trkpt lat="46.11619" lon="6.44153">
        <ele>1437</ele>
        <time>2011-04-30T11:23:41Z</time>
      </trkpt>
      <trkpt lat="46.11621" lon="6.44139">
        <ele>1437</ele>
        <time>2011-04-30T11:23:42Z</time>
      </trkpt>
      <trkpt lat="46.11625" lon="6.44115">
        <ele>1431</ele>
        <time>2011-04-30T11:23:44Z</time>
      </trkpt>
      <trkpt lat="46.1163" lon="6.44095">
        <ele>1431</ele>
        <time>2011-04-30T11:23:46Z</time>
      </trkpt>
      <trkpt lat="46.11638" lon="6.44086">
        <ele>1431</ele>
        <time>2011-04-30T11:23:49Z</time>
      </trkpt>
      <trkpt lat="46.11645" lon="6.44101">
        <ele>1425</ele>
        <time>2011-04-30T11:23:52Z</time>
      </trkpt>
      <trkpt lat="46.11649" lon="6.44118">
        <ele>1425</ele>
        <time>2011-04-30T11:23:54Z</time>
      </trkpt>
      <trkpt lat="46.11655" lon="6.44137">
        <ele>1419</ele>
        <time>2011-04-30T11:23:56Z</time>
      </trkpt>
      <trkpt lat="46.11659" lon="6.44159">
        <ele>1419</ele>
        <time>2011-04-30T11:23:58Z</time>
      </trkpt>
      <trkpt lat="46.11667" lon="6.4418">
        <ele>1419</ele>
        <time>2011-04-30T11:24:00Z</time>
      </trkpt>
      <trkpt lat="46.11676" lon="6.44195">
        <ele>1411</ele>
        <time>2011-04-30T11:24:02Z</time>
      </trkpt>
      <trkpt lat="46.11683" lon="6.44204">
        <ele>1411</ele>
        <time>2011-04-30T11:24:05Z</time>
      </trkpt>
      <trkpt lat="46.11691" lon="6.44217">
        <ele>1411</ele>
        <time>2011-04-30T11:24:10Z</time>
      </trkpt>
      <trkpt lat="46.117" lon="6.44217">
        <ele>1405</ele>
        <time>2011-04-30T11:24:16Z</time>
      </trkpt>
      <trkpt lat="46.11706" lon="6.44207">
        <ele>1405</ele>
        <time>2011-04-30T11:24:20Z</time>
      </trkpt>
      <trkpt lat="46.11709" lon="6.44195">
        <ele>1405</ele>
        <time>2011-04-30T11:24:23Z</time>
      </trkpt>
      <trkpt lat="46.11709" lon="6.44181">
        <ele>1405</ele>
        <time>2011-04-30T11:24:26Z</time>
      </trkpt>
      <trkpt lat="46.11718" lon="6.44193">
        <ele>1405</ele>
        <time>2011-04-30T11:24:42Z</time>
      </trkpt>
      <trkpt lat="46.1172" lon="6.44206">
        <ele>1399</ele>
        <time>2011-04-30T11:24:44Z</time>
      </trkpt>
      <trkpt lat="46.11721" lon="6.44226">
        <ele>1399</ele>
        <time>2011-04-30T11:24:47Z</time>
      </trkpt>
      <trkpt lat="46.11721" lon="6.44239">
        <ele>1399</ele>
        <time>2011-04-30T11:24:49Z</time>
      </trkpt>
      <trkpt lat="46.1172" lon="6.44253">
        <ele>1393</ele>
        <time>2011-04-30T11:24:51Z</time>
      </trkpt>
      <trkpt lat="46.11723" lon="6.44269">
        <ele>1393</ele>
        <time>2011-04-30T11:24:54Z</time>
      </trkpt>
      <trkpt lat="46.11734" lon="6.44272">
        <ele>1393</ele>
        <time>2011-04-30T11:25:12Z</time>
      </trkpt>
      <trkpt lat="46.11743" lon="6.44265">
        <ele>1388</ele>
        <time>2011-04-30T11:25:14Z</time>
      </trkpt>
      <trkpt lat="46.11754" lon="6.44258">
        <ele>1388</ele>
        <time>2011-04-30T11:25:17Z</time>
      </trkpt>
      <trkpt lat="46.11756" lon="6.44273">
        <ele>1388</ele>
        <time>2011-04-30T11:25:21Z</time>
      </trkpt>
      <trkpt lat="46.11748" lon="6.44283">
        <ele>1382</ele>
        <time>2011-04-30T11:25:23Z</time>
      </trkpt>
      <trkpt lat="46.11733" lon="6.44295">
        <ele>1382</ele>
        <time>2011-04-30T11:25:25Z</time>
      </trkpt>
      <trkpt lat="46.11718" lon="6.44309">
        <ele>1382</ele>
        <time>2011-04-30T11:25:27Z</time>
      </trkpt>
      <trkpt lat="46.11703" lon="6.44324">
        <ele>1382</ele>
        <time>2011-04-30T11:25:29Z</time>
      </trkpt>
      <trkpt lat="46.11696" lon="6.44333">
        <ele>1382</ele>
        <time>2011-04-30T11:25:30Z</time>
      </trkpt>
      <trkpt lat="46.11684" lon="6.44348">
        <ele>1382</ele>
        <time>2011-04-30T11:25:32Z</time>
      </trkpt>
      <trkpt lat="46.11677" lon="6.44362">
        <ele>1377</ele>
        <time>2011-04-30T11:25:34Z</time>
      </trkpt>
      <trkpt lat="46.11686" lon="6.4437">
        <ele>1377</ele>
        <time>2011-04-30T11:25:44Z</time>
      </trkpt>
      <trkpt lat="46.11686" lon="6.44383">
        <ele>1377</ele>
        <time>2011-04-30T11:25:47Z</time>
      </trkpt>
      <trkpt lat="46.11686" lon="6.444">
        <ele>1377</ele>
        <time>2011-04-30T11:25:50Z</time>
      </trkpt>
      <trkpt lat="46.11686" lon="6.44417">
        <ele>1368</ele>
        <time>2011-04-30T11:25:53Z</time>
      </trkpt>
      <trkpt lat="46.11683" lon="6.44433">
        <ele>1368</ele>
        <time>2011-04-30T11:25:56Z</time>
      </trkpt>
      <trkpt lat="46.11676" lon="6.44451">
        <ele>1359</ele>
        <time>2011-04-30T11:25:59Z</time>
      </trkpt>
      <trkpt lat="46.11665" lon="6.44469">
        <ele>1353</ele>
        <time>2011-04-30T11:26:02Z</time>
      </trkpt>
      <trkpt lat="46.11655" lon="6.44483">
        <ele>1347</ele>
        <time>2011-04-30T11:26:04Z</time>
      </trkpt>
      <trkpt lat="46.11646" lon="6.445">
        <ele>1347</ele>
        <time>2011-04-30T11:26:06Z</time>
      </trkpt>
      <trkpt lat="46.11638" lon="6.44522">
        <ele>1338</ele>
        <time>2011-04-30T11:26:08Z</time>
      </trkpt>
      <trkpt lat="46.11632" lon="6.44544">
        <ele>1338</ele>
        <time>2011-04-30T11:26:10Z</time>
      </trkpt>
      <trkpt lat="46.11626" lon="6.44563">
        <ele>1331</ele>
        <time>2011-04-30T11:26:12Z</time>
      </trkpt>
      <trkpt lat="46.11619" lon="6.44582">
        <ele>1331</ele>
        <time>2011-04-30T11:26:14Z</time>
      </trkpt>
      <trkpt lat="46.11608" lon="6.44601">
        <ele>1323</ele>
        <time>2011-04-30T11:26:16Z</time>
      </trkpt>
      <trkpt lat="46.11603" lon="6.44613">
        <ele>1323</ele>
        <time>2011-04-30T11:26:17Z</time>
      </trkpt>
      <trkpt lat="46.11592" lon="6.44636">
        <ele>1317</ele>
        <time>2011-04-30T11:26:19Z</time>
      </trkpt>
      <trkpt lat="46.11587" lon="6.44647">
        <ele>1317</ele>
        <time>2011-04-30T11:26:20Z</time>
      </trkpt>
      <trkpt lat="46.11578" lon="6.44667">
        <ele>1310</ele>
        <time>2011-04-30T11:26:22Z</time>
      </trkpt>
      <trkpt lat="46.11567" lon="6.44687">
        <ele>1310</ele>
        <time>2011-04-30T11:26:24Z</time>
      </trkpt>
      <trkpt lat="46.1156" lon="6.44696">
        <ele>1304</ele>
        <time>2011-04-30T11:26:25Z</time>
      </trkpt>
      <trkpt lat="46.11549" lon="6.4471">
        <ele>1304</ele>
        <time>2011-04-30T11:26:27Z</time>
      </trkpt>
      <trkpt lat="46.11543" lon="6.44726">
        <ele>1296</ele>
        <time>2011-04-30T11:26:29Z</time>
      </trkpt>
      <trkpt lat="46.1154" lon="6.44745">
        <ele>1296</ele>
        <time>2011-04-30T11:26:31Z</time>
      </trkpt>
      <trkpt lat="46.11538" lon="6.44759">
        <ele>1291</ele>
        <time>2011-04-30T11:26:33Z</time>
      </trkpt>
      <trkpt lat="46.11536" lon="6.44774">
        <ele>1291</ele>
        <time>2011-04-30T11:26:36Z</time>
      </trkpt>
      <trkpt lat="46.11535" lon="6.44791">
        <ele>1291</ele>
        <time>2011-04-30T11:26:46Z</time>
      </trkpt>
      <trkpt lat="46.11533" lon="6.44804">
        <ele>1291</ele>
        <time>2011-04-30T11:26:48Z</time>
      </trkpt>
      <trkpt lat="46.11529" lon="6.44822">
        <ele>1291</ele>
        <time>2011-04-30T11:26:50Z</time>
      </trkpt>
      <trkpt lat="46.11525" lon="6.44837">
        <ele>1284</ele>
        <time>2011-04-30T11:26:52Z</time>
      </trkpt>
      <trkpt lat="46.11523" lon="6.44852">
        <ele>1284</ele>
        <time>2011-04-30T11:26:54Z</time>
      </trkpt>
      <trkpt lat="46.11522" lon="6.44867">
        <ele>1284</ele>
        <time>2011-04-30T11:26:56Z</time>
      </trkpt>
      <trkpt lat="46.11519" lon="6.44886">
        <ele>1276</ele>
        <time>2011-04-30T11:26:58Z</time>
      </trkpt>
      <trkpt lat="46.11515" lon="6.44903">
        <ele>1276</ele>
        <time>2011-04-30T11:27:00Z</time>
      </trkpt>
      <trkpt lat="46.1151" lon="6.44919">
        <ele>1268</ele>
        <time>2011-04-30T11:27:02Z</time>
      </trkpt>
      <trkpt lat="46.11508" lon="6.44935">
        <ele>1268</ele>
        <time>2011-04-30T11:27:04Z</time>
      </trkpt>
      <trkpt lat="46.1151" lon="6.44952">
        <ele>1268</ele>
        <time>2011-04-30T11:27:06Z</time>
      </trkpt>
      <trkpt lat="46.11514" lon="6.44965">
        <ele>1268</ele>
        <time>2011-04-30T11:27:08Z</time>
      </trkpt>
      <trkpt lat="46.11519" lon="6.44981">
        <ele>1263</ele>
        <time>2011-04-30T11:27:11Z</time>
      </trkpt>
      <trkpt lat="46.11526" lon="6.44995">
        <ele>1263</ele>
        <time>2011-04-30T11:27:13Z</time>
      </trkpt>
      <trkpt lat="46.11534" lon="6.4501">
        <ele>1256</ele>
        <time>2011-04-30T11:27:15Z</time>
      </trkpt>
      <trkpt lat="46.11542" lon="6.45027">
        <ele>1256</ele>
        <time>2011-04-30T11:27:17Z</time>
      </trkpt>
      <trkpt lat="46.11549" lon="6.45042">
        <ele>1256</ele>
        <time>2011-04-30T11:27:19Z</time>
      </trkpt>
      <trkpt lat="46.11558" lon="6.45052">
        <ele>1248</ele>
        <time>2011-04-30T11:27:21Z</time>
      </trkpt>
      <trkpt lat="46.11568" lon="6.45059">
        <ele>1248</ele>
        <time>2011-04-30T11:27:23Z</time>
      </trkpt>
      <trkpt lat="46.11578" lon="6.45058">
        <ele>1239</ele>
        <time>2011-04-30T11:27:25Z</time>
      </trkpt>
      <trkpt lat="46.11588" lon="6.45052">
        <ele>1230</ele>
        <time>2011-04-30T11:27:27Z</time>
      </trkpt>
      <trkpt lat="46.116" lon="6.45047">
        <ele>1230</ele>
        <time>2011-04-30T11:27:29Z</time>
      </trkpt>
      <trkpt lat="46.11611" lon="6.45047">
        <ele>1223</ele>
        <time>2011-04-30T11:27:31Z</time>
      </trkpt>
      <trkpt lat="46.11621" lon="6.45052">
        <ele>1223</ele>
        <time>2011-04-30T11:27:33Z</time>
      </trkpt>
      <trkpt lat="46.11633" lon="6.45051">
        <ele>1215</ele>
        <time>2011-04-30T11:27:35Z</time>
      </trkpt>
      <trkpt lat="46.11644" lon="6.45049">
        <ele>1215</ele>
        <time>2011-04-30T11:27:37Z</time>
      </trkpt>
      <trkpt lat="46.11654" lon="6.45049">
        <ele>1215</ele>
        <time>2011-04-30T11:27:39Z</time>
      </trkpt>
      <trkpt lat="46.11663" lon="6.45052">
        <ele>1215</ele>
        <time>2011-04-30T11:27:41Z</time>
      </trkpt>
      <trkpt lat="46.11673" lon="6.45049">
        <ele>1208</ele>
        <time>2011-04-30T11:27:45Z</time>
      </trkpt>
      <trkpt lat="46.11665" lon="6.45036">
        <ele>1208</ele>
        <time>2011-04-30T11:27:50Z</time>
      </trkpt>
      <trkpt lat="46.11654" lon="6.4503">
        <ele>1208</ele>
        <time>2011-04-30T11:27:53Z</time>
      </trkpt>
      <trkpt lat="46.11643" lon="6.45017">
        <ele>1208</ele>
        <time>2011-04-30T11:27:56Z</time>
      </trkpt>
      <trkpt lat="46.11636" lon="6.45007">
        <ele>1208</ele>
        <time>2011-04-30T11:27:58Z</time>
      </trkpt>
      <trkpt lat="46.11629" lon="6.44996">
        <ele>1208</ele>
        <time>2011-04-30T11:28:01Z</time>
      </trkpt>
      <trkpt lat="46.11641" lon="6.44999">
        <ele>1208</ele>
        <time>2011-04-30T11:28:24Z</time>
      </trkpt>
      <trkpt lat="46.11651" lon="6.45009">
        <ele>1208</ele>
        <time>2011-04-30T11:28:26Z</time>
      </trkpt>
      <trkpt lat="46.11661" lon="6.45021">
        <ele>1208</ele>
        <time>2011-04-30T11:28:28Z</time>
      </trkpt>
      <trkpt lat="46.11673" lon="6.45031">
        <ele>1208</ele>
        <time>2011-04-30T11:28:30Z</time>
      </trkpt>
      <trkpt lat="46.11689" lon="6.45039">
        <ele>1202</ele>
        <time>2011-04-30T11:28:32Z</time>
      </trkpt>
      <trkpt lat="46.11705" lon="6.4505">
        <ele>1202</ele>
        <time>2011-04-30T11:28:34Z</time>
      </trkpt>
      <trkpt lat="46.11714" lon="6.45053">
        <ele>1202</ele>
        <time>2011-04-30T11:28:35Z</time>
      </trkpt>
      <trkpt lat="46.11729" lon="6.4506">
        <ele>1202</ele>
        <time>2011-04-30T11:28:37Z</time>
      </trkpt>
      <trkpt lat="46.11742" lon="6.45067">
        <ele>1202</ele>
        <time>2011-04-30T11:28:39Z</time>
      </trkpt>
      <trkpt lat="46.11751" lon="6.45073">
        <ele>1195</ele>
        <time>2011-04-30T11:28:41Z</time>
      </trkpt>
      <trkpt lat="46.1176" lon="6.45077">
        <ele>1195</ele>
        <time>2011-04-30T11:28:43Z</time>
      </trkpt>
      <trkpt lat="46.11772" lon="6.4508">
        <ele>1188</ele>
        <time>2011-04-30T11:28:45Z</time>
      </trkpt>
      <trkpt lat="46.11787" lon="6.4508">
        <ele>1188</ele>
        <time>2011-04-30T11:28:47Z</time>
      </trkpt>
      <trkpt lat="46.11803" lon="6.45074">
        <ele>1181</ele>
        <time>2011-04-30T11:28:49Z</time>
      </trkpt>
      <trkpt lat="46.11818" lon="6.45071">
        <ele>1181</ele>
        <time>2011-04-30T11:28:51Z</time>
      </trkpt>
      <trkpt lat="46.11834" lon="6.45071">
        <ele>1181</ele>
        <time>2011-04-30T11:28:53Z</time>
      </trkpt>
      <trkpt lat="46.11849" lon="6.45075">
        <ele>1174</ele>
        <time>2011-04-30T11:28:55Z</time>
      </trkpt>
      <trkpt lat="46.11858" lon="6.45081">
        <ele>1174</ele>
        <time>2011-04-30T11:28:57Z</time>
      </trkpt>
      <trkpt lat="46.1187" lon="6.4508">
        <ele>1174</ele>
        <time>2011-04-30T11:29:00Z</time>
      </trkpt>
      <trkpt lat="46.11879" lon="6.45073">
        <ele>1165</ele>
        <time>2011-04-30T11:29:02Z</time>
      </trkpt>
      <trkpt lat="46.11888" lon="6.45064">
        <ele>1165</ele>
        <time>2011-04-30T11:29:04Z</time>
      </trkpt>
      <trkpt lat="46.11901" lon="6.45065">
        <ele>1165</ele>
        <time>2011-04-30T11:29:07Z</time>
      </trkpt>
      <trkpt lat="46.11914" lon="6.45067">
        <ele>1158</ele>
        <time>2011-04-30T11:29:09Z</time>
      </trkpt>
      <trkpt lat="46.11929" lon="6.45069">
        <ele>1152</ele>
        <time>2011-04-30T11:29:12Z</time>
      </trkpt>
      <trkpt lat="46.11942" lon="6.45067">
        <ele>1147</ele>
        <time>2011-04-30T11:29:15Z</time>
      </trkpt>
      <trkpt lat="46.11952" lon="6.45066">
        <ele>1147</ele>
        <time>2011-04-30T11:29:17Z</time>
      </trkpt>
      <trkpt lat="46.11961" lon="6.45061">
        <ele>1141</ele>
        <time>2011-04-30T11:29:19Z</time>
      </trkpt>
      <trkpt lat="46.11971" lon="6.45055">
        <ele>1141</ele>
        <time>2011-04-30T11:29:21Z</time>
      </trkpt>
      <trkpt lat="46.11979" lon="6.45049">
        <ele>1135</ele>
        <time>2011-04-30T11:29:23Z</time>
      </trkpt>
      <trkpt lat="46.11989" lon="6.45039">
        <ele>1135</ele>
        <time>2011-04-30T11:29:25Z</time>
      </trkpt>
      <trkpt lat="46.12001" lon="6.45033">
        <ele>1135</ele>
        <time>2011-04-30T11:29:27Z</time>
      </trkpt>
      <trkpt lat="46.12011" lon="6.45029">
        <ele>1135</ele>
        <time>2011-04-30T11:29:29Z</time>
      </trkpt>
      <trkpt lat="46.12021" lon="6.45022">
        <ele>1130</ele>
        <time>2011-04-30T11:29:31Z</time>
      </trkpt>
      <trkpt lat="46.12029" lon="6.45016">
        <ele>1130</ele>
        <time>2011-04-30T11:29:33Z</time>
      </trkpt>
      <trkpt lat="46.1204" lon="6.4501">
        <ele>1123</ele>
        <time>2011-04-30T11:29:35Z</time>
      </trkpt>
      <trkpt lat="46.12052" lon="6.45007">
        <ele>1123</ele>
        <time>2011-04-30T11:29:37Z</time>
      </trkpt>
      <trkpt lat="46.12064" lon="6.45007">
        <ele>1123</ele>
        <time>2011-04-30T11:29:39Z</time>
      </trkpt>
      <trkpt lat="46.12075" lon="6.45006">
        <ele>1113</ele>
        <time>2011-04-30T11:29:41Z</time>
      </trkpt>
      <trkpt lat="46.12082" lon="6.44995">
        <ele>1108</ele>
        <time>2011-04-30T11:29:43Z</time>
      </trkpt>
      <trkpt lat="46.12089" lon="6.44986">
        <ele>1108</ele>
        <time>2011-04-30T11:29:46Z</time>
      </trkpt>
      <trkpt lat="46.12081" lon="6.44976">
        <ele>1108</ele>
        <time>2011-04-30T11:29:58Z</time>
      </trkpt>
      <trkpt lat="46.12067" lon="6.44972">
        <ele>1101</ele>
        <time>2011-04-30T11:30:01Z</time>
      </trkpt>
      <trkpt lat="46.12057" lon="6.44965">
        <ele>1101</ele>
        <time>2011-04-30T11:30:03Z</time>
      </trkpt>
      <trkpt lat="46.12046" lon="6.44957">
        <ele>1101</ele>
        <time>2011-04-30T11:30:05Z</time>
      </trkpt>
      <trkpt lat="46.12035" lon="6.44951">
        <ele>1101</ele>
        <time>2011-04-30T11:30:07Z</time>
      </trkpt>
      <trkpt lat="46.12022" lon="6.44939">
        <ele>1096</ele>
        <time>2011-04-30T11:30:09Z</time>
      </trkpt>
      <trkpt lat="46.12015" lon="6.44931">
        <ele>1096</ele>
        <time>2011-04-30T11:30:10Z</time>
      </trkpt>
      <trkpt lat="46.12002" lon="6.44925">
        <ele>1096</ele>
        <time>2011-04-30T11:30:12Z</time>
      </trkpt>
      <trkpt lat="46.11989" lon="6.44917">
        <ele>1096</ele>
        <time>2011-04-30T11:30:14Z</time>
      </trkpt>
      <trkpt lat="46.11979" lon="6.4491">
        <ele>1096</ele>
        <time>2011-04-30T11:30:16Z</time>
      </trkpt>
      <trkpt lat="46.11972" lon="6.44901">
        <ele>1096</ele>
        <time>2011-04-30T11:30:20Z</time>
      </trkpt>
      <trkpt lat="46.11982" lon="6.44908">
        <ele>1090</ele>
        <time>2011-04-30T11:30:32Z</time>
      </trkpt>
      <trkpt lat="46.11994" lon="6.44902">
        <ele>1090</ele>
        <time>2011-04-30T11:30:35Z</time>
      </trkpt>
      <trkpt lat="46.12003" lon="6.449">
        <ele>1090</ele>
        <time>2011-04-30T11:30:37Z</time>
      </trkpt>
      <trkpt lat="46.12016" lon="6.44897">
        <ele>1085</ele>
        <time>2011-04-30T11:30:40Z</time>
      </trkpt>
      <trkpt lat="46.12027" lon="6.44898">
        <ele>1085</ele>
        <time>2011-04-30T11:30:43Z</time>
      </trkpt>
      <trkpt lat="46.12039" lon="6.44897">
        <ele>1075</ele>
        <time>2011-04-30T11:30:45Z</time>
      </trkpt>
      <trkpt lat="46.12053" lon="6.44895">
        <ele>1068</ele>
        <time>2011-04-30T11:30:47Z</time>
      </trkpt>
      <trkpt lat="46.12062" lon="6.44892">
        <ele>1068</ele>
        <time>2011-04-30T11:30:48Z</time>
      </trkpt>
      <trkpt lat="46.12079" lon="6.44893">
        <ele>1063</ele>
        <time>2011-04-30T11:30:50Z</time>
      </trkpt>
      <trkpt lat="46.12094" lon="6.44893">
        <ele>1055</ele>
        <time>2011-04-30T11:30:52Z</time>
      </trkpt>
      <trkpt lat="46.12107" lon="6.44892">
        <ele>1055</ele>
        <time>2011-04-30T11:30:54Z</time>
      </trkpt>
      <trkpt lat="46.12122" lon="6.44886">
        <ele>1049</ele>
        <time>2011-04-30T11:30:56Z</time>
      </trkpt>
      <trkpt lat="46.12135" lon="6.44882">
        <ele>1049</ele>
        <time>2011-04-30T11:30:58Z</time>
      </trkpt>
      <trkpt lat="46.12148" lon="6.44877">
        <ele>1049</ele>
        <time>2011-04-30T11:31:00Z</time>
      </trkpt>
      <trkpt lat="46.1216" lon="6.44871">
        <ele>1042</ele>
        <time>2011-04-30T11:31:02Z</time>
      </trkpt>
      <trkpt lat="46.12174" lon="6.44867">
        <ele>1042</ele>
        <time>2011-04-30T11:31:04Z</time>
      </trkpt>
      <trkpt lat="46.12185" lon="6.44861">
        <ele>1042</ele>
        <time>2011-04-30T11:31:06Z</time>
      </trkpt>
      <trkpt lat="46.12194" lon="6.44857">
        <ele>1035</ele>
        <time>2011-04-30T11:31:08Z</time>
      </trkpt>
      <trkpt lat="46.12204" lon="6.44855">
        <ele>1035</ele>
        <time>2011-04-30T11:31:10Z</time>
      </trkpt>
      <trkpt lat="46.12218" lon="6.44856">
        <ele>1027</ele>
        <time>2011-04-30T11:31:13Z</time>
      </trkpt>
      <trkpt lat="46.1223" lon="6.44857">
        <ele>1027</ele>
        <time>2011-04-30T11:31:15Z</time>
      </trkpt>
      <trkpt lat="46.12243" lon="6.44857">
        <ele>1021</ele>
        <time>2011-04-30T11:31:17Z</time>
      </trkpt>
      <trkpt lat="46.12257" lon="6.44857">
        <ele>1021</ele>
        <time>2011-04-30T11:31:19Z</time>
      </trkpt>
      <trkpt lat="46.12271" lon="6.44859">
        <ele>1012</ele>
        <time>2011-04-30T11:31:21Z</time>
      </trkpt>
      <trkpt lat="46.12283" lon="6.44859">
        <ele>1012</ele>
        <time>2011-04-30T11:31:23Z</time>
      </trkpt>
      <trkpt lat="46.12296" lon="6.44862">
        <ele>1012</ele>
        <time>2011-04-30T11:31:25Z</time>
      </trkpt>
      <trkpt lat="46.12306" lon="6.44865">
        <ele>1005</ele>
        <time>2011-04-30T11:31:27Z</time>
      </trkpt>
      <trkpt lat="46.12318" lon="6.44869">
        <ele>1005</ele>
        <time>2011-04-30T11:31:29Z</time>
      </trkpt>
      <trkpt lat="46.12331" lon="6.44873">
        <ele>997</ele>
        <time>2011-04-30T11:31:31Z</time>
      </trkpt>
      <trkpt lat="46.12345" lon="6.44875">
        <ele>997</ele>
        <time>2011-04-30T11:31:33Z</time>
      </trkpt>
      <trkpt lat="46.1236" lon="6.44877">
        <ele>991</ele>
        <time>2011-04-30T11:31:35Z</time>
      </trkpt>
      <trkpt lat="46.12375" lon="6.44877">
        <ele>991</ele>
        <time>2011-04-30T11:31:37Z</time>
      </trkpt>
      <trkpt lat="46.1239" lon="6.44877">
        <ele>991</ele>
        <time>2011-04-30T11:31:39Z</time>
      </trkpt>
      <trkpt lat="46.12402" lon="6.44879">
        <ele>985</ele>
        <time>2011-04-30T11:31:41Z</time>
      </trkpt>
      <trkpt lat="46.12414" lon="6.44883">
        <ele>985</ele>
        <time>2011-04-30T11:31:43Z</time>
      </trkpt>
      <trkpt lat="46.12427" lon="6.44882">
        <ele>979</ele>
        <time>2011-04-30T11:31:45Z</time>
      </trkpt>
      <trkpt lat="46.12439" lon="6.44881">
        <ele>979</ele>
        <time>2011-04-30T11:31:47Z</time>
      </trkpt>
      <trkpt lat="46.12452" lon="6.44882">
        <ele>974</ele>
        <time>2011-04-30T11:31:49Z</time>
      </trkpt>
      <trkpt lat="46.12465" lon="6.44884">
        <ele>974</ele>
        <time>2011-04-30T11:31:51Z</time>
      </trkpt>
      <trkpt lat="46.12477" lon="6.44884">
        <ele>974</ele>
        <time>2011-04-30T11:31:53Z</time>
      </trkpt>
      <trkpt lat="46.1249" lon="6.44884">
        <ele>966</ele>
        <time>2011-04-30T11:31:56Z</time>
      </trkpt>
      <trkpt lat="46.12499" lon="6.44885">
        <ele>966</ele>
        <time>2011-04-30T11:31:58Z</time>
      </trkpt>
      <trkpt lat="46.1251" lon="6.44883">
        <ele>966</ele>
        <time>2011-04-30T11:32:00Z</time>
      </trkpt>
      <trkpt lat="46.12521" lon="6.44884">
        <ele>966</ele>
        <time>2011-04-30T11:32:02Z</time>
      </trkpt>
      <trkpt lat="46.12533" lon="6.44889">
        <ele>958</ele>
        <time>2011-04-30T11:32:05Z</time>
      </trkpt>
      <trkpt lat="46.12545" lon="6.449">
        <ele>948</ele>
        <time>2011-04-30T11:32:08Z</time>
      </trkpt>
      <trkpt lat="46.12556" lon="6.44909">
        <ele>941</ele>
        <time>2011-04-30T11:32:10Z</time>
      </trkpt>
      <trkpt lat="46.12566" lon="6.44918">
        <ele>936</ele>
        <time>2011-04-30T11:32:12Z</time>
      </trkpt>
      <trkpt lat="46.12575" lon="6.44925">
        <ele>936</ele>
        <time>2011-04-30T11:32:14Z</time>
      </trkpt>
      <trkpt lat="46.12584" lon="6.44937">
        <ele>927</ele>
        <time>2011-04-30T11:32:17Z</time>
      </trkpt>
      <trkpt lat="46.12591" lon="6.44928">
        <ele>927</ele>
        <time>2011-04-30T11:32:23Z</time>
      </trkpt>
      <trkpt lat="46.1259" lon="6.44943">
        <ele>935</ele>
        <time>2011-04-30T11:32:50Z</time>
      </trkpt>
      <trkpt lat="46.12599" lon="6.44948">
        <ele>935</ele>
        <time>2011-04-30T11:32:54Z</time>
      </trkpt>
      <trkpt lat="46.12608" lon="6.44955">
        <ele>935</ele>
        <time>2011-04-30T11:33:11Z</time>
      </trkpt>
      <trkpt lat="46.12619" lon="6.44966">
        <ele>929</ele>
        <time>2011-04-30T11:33:15Z</time>
      </trkpt>
      <trkpt lat="46.12628" lon="6.44976">
        <ele>929</ele>
        <time>2011-04-30T11:33:17Z</time>
      </trkpt>
      <trkpt lat="46.12638" lon="6.4499">
        <ele>929</ele>
        <time>2011-04-30T11:33:19Z</time>
      </trkpt>
      <trkpt lat="46.12647" lon="6.45003">
        <ele>923</ele>
        <time>2011-04-30T11:33:21Z</time>
      </trkpt>
      <trkpt lat="46.12654" lon="6.45015">
        <ele>923</ele>
        <time>2011-04-30T11:33:23Z</time>
      </trkpt>
      <trkpt lat="46.12658" lon="6.45028">
        <ele>915</ele>
        <time>2011-04-30T11:33:25Z</time>
      </trkpt>
      <trkpt lat="46.12662" lon="6.45041">
        <ele>915</ele>
        <time>2011-04-30T11:33:27Z</time>
      </trkpt>
      <trkpt lat="46.12661" lon="6.45054">
        <ele>905</ele>
        <time>2011-04-30T11:33:29Z</time>
      </trkpt>
      <trkpt lat="46.12655" lon="6.4507">
        <ele>905</ele>
        <time>2011-04-30T11:33:31Z</time>
      </trkpt>
      <trkpt lat="46.12646" lon="6.45083">
        <ele>895</ele>
        <time>2011-04-30T11:33:33Z</time>
      </trkpt>
      <trkpt lat="46.12636" lon="6.45097">
        <ele>895</ele>
        <time>2011-04-30T11:33:35Z</time>
      </trkpt>
      <trkpt lat="46.12628" lon="6.45109">
        <ele>888</ele>
        <time>2011-04-30T11:33:37Z</time>
      </trkpt>
      <trkpt lat="46.12623" lon="6.45123">
        <ele>888</ele>
        <time>2011-04-30T11:33:40Z</time>
      </trkpt>
      <trkpt lat="46.12634" lon="6.45122">
        <ele>888</ele>
        <time>2011-04-30T11:33:45Z</time>
      </trkpt>
      <trkpt lat="46.12645" lon="6.45118">
        <ele>879</ele>
        <time>2011-04-30T11:33:48Z</time>
      </trkpt>
      <trkpt lat="46.12656" lon="6.45116">
        <ele>879</ele>
        <time>2011-04-30T11:33:51Z</time>
      </trkpt>
      <trkpt lat="46.12667" lon="6.45112">
        <ele>872</ele>
        <time>2011-04-30T11:33:53Z</time>
      </trkpt>
      <trkpt lat="46.12678" lon="6.45109">
        <ele>872</ele>
        <time>2011-04-30T11:33:55Z</time>
      </trkpt>
      <trkpt lat="46.12691" lon="6.45107">
        <ele>872</ele>
        <time>2011-04-30T11:33:57Z</time>
      </trkpt>
      <trkpt lat="46.12701" lon="6.45108">
        <ele>866</ele>
        <time>2011-04-30T11:33:59Z</time>
      </trkpt>
      <trkpt lat="46.1271" lon="6.45105">
        <ele>866</ele>
        <time>2011-04-30T11:34:01Z</time>
      </trkpt>
      <trkpt lat="46.12707" lon="6.45118">
        <ele>853</ele>
        <time>2011-04-30T11:34:08Z</time>
      </trkpt>
      <trkpt lat="46.12696" lon="6.4513">
        <ele>853</ele>
        <time>2011-04-30T11:34:11Z</time>
      </trkpt>
      <trkpt lat="46.1269" lon="6.45144">
        <ele>844</ele>
        <time>2011-04-30T11:34:14Z</time>
      </trkpt>
      <trkpt lat="46.1269" lon="6.4516">
        <ele>844</ele>
        <time>2011-04-30T11:34:17Z</time>
      </trkpt>
      <trkpt lat="46.12698" lon="6.45152">
        <ele>835</ele>
        <time>2011-04-30T11:34:20Z</time>
      </trkpt>
      <trkpt lat="46.12707" lon="6.45144">
        <ele>835</ele>
        <time>2011-04-30T11:34:22Z</time>
      </trkpt>
      <trkpt lat="46.12719" lon="6.45139">
        <ele>830</ele>
        <time>2011-04-30T11:34:24Z</time>
      </trkpt>
      <trkpt lat="46.12731" lon="6.45134">
        <ele>830</ele>
        <time>2011-04-30T11:34:26Z</time>
      </trkpt>
      <trkpt lat="46.12744" lon="6.45134">
        <ele>830</ele>
        <time>2011-04-30T11:34:28Z</time>
      </trkpt>
      <trkpt lat="46.12757" lon="6.45136">
        <ele>822</ele>
        <time>2011-04-30T11:34:30Z</time>
      </trkpt>
      <trkpt lat="46.12769" lon="6.45137">
        <ele>822</ele>
        <time>2011-04-30T11:34:32Z</time>
      </trkpt>
      <trkpt lat="46.12781" lon="6.45138">
        <ele>822</ele>
        <time>2011-04-30T11:34:34Z</time>
      </trkpt>
      <trkpt lat="46.12792" lon="6.45137">
        <ele>822</ele>
        <time>2011-04-30T11:34:36Z</time>
      </trkpt>
      <trkpt lat="46.12805" lon="6.45136">
        <ele>813</ele>
        <time>2011-04-30T11:34:39Z</time>
      </trkpt>
      <trkpt lat="46.12814" lon="6.45138">
        <ele>813</ele>
        <time>2011-04-30T11:34:41Z</time>
      </trkpt>
      <trkpt lat="46.12824" lon="6.45142">
        <ele>807</ele>
        <time>2011-04-30T11:34:43Z</time>
      </trkpt>
      <trkpt lat="46.12837" lon="6.45147">
        <ele>807</ele>
        <time>2011-04-30T11:34:46Z</time>
      </trkpt>
      <trkpt lat="46.12849" lon="6.45148">
        <ele>802</ele>
        <time>2011-04-30T11:34:49Z</time>
      </trkpt>
      <trkpt lat="46.12861" lon="6.45152">
        <ele>802</ele>
        <time>2011-04-30T11:34:52Z</time>
      </trkpt>
      <trkpt lat="46.12871" lon="6.4516">
        <ele>795</ele>
        <time>2011-04-30T11:34:54Z</time>
      </trkpt>
      <trkpt lat="46.12884" lon="6.45166">
        <ele>795</ele>
        <time>2011-04-30T11:34:56Z</time>
      </trkpt>
      <trkpt lat="46.12894" lon="6.45171">
        <ele>795</ele>
        <time>2011-04-30T11:34:58Z</time>
      </trkpt>
      <trkpt lat="46.12904" lon="6.45181">
        <ele>787</ele>
        <time>2011-04-30T11:35:01Z</time>
      </trkpt>
      <trkpt lat="46.12899" lon="6.45193">
        <ele>780</ele>
        <time>2011-04-30T11:35:06Z</time>
      </trkpt>
      <trkpt lat="46.12886" lon="6.45188">
        <ele>775</ele>
        <time>2011-04-30T11:35:08Z</time>
      </trkpt>
      <trkpt lat="46.12872" lon="6.45187">
        <ele>775</ele>
        <time>2011-04-30T11:35:10Z</time>
      </trkpt>
      <trkpt lat="46.12858" lon="6.45189">
        <ele>765</ele>
        <time>2011-04-30T11:35:12Z</time>
      </trkpt>
      <trkpt lat="46.12845" lon="6.45193">
        <ele>765</ele>
        <time>2011-04-30T11:35:14Z</time>
      </trkpt>
      <trkpt lat="46.12833" lon="6.45196">
        <ele>760</ele>
        <time>2011-04-30T11:35:16Z</time>
      </trkpt>
      <trkpt lat="46.12819" lon="6.45204">
        <ele>760</ele>
        <time>2011-04-30T11:35:18Z</time>
      </trkpt>
      <trkpt lat="46.12809" lon="6.4521">
        <ele>760</ele>
        <time>2011-04-30T11:35:20Z</time>
      </trkpt>
      <trkpt lat="46.128" lon="6.45219">
        <ele>760</ele>
        <time>2011-04-30T11:35:23Z</time>
      </trkpt>
      <trkpt lat="46.12804" lon="6.45231">
        <ele>760</ele>
        <time>2011-04-30T11:35:30Z</time>
      </trkpt>
      <trkpt lat="46.12817" lon="6.45242">
        <ele>760</ele>
        <time>2011-04-30T11:35:33Z</time>
      </trkpt>
      <trkpt lat="46.12829" lon="6.45251">
        <ele>760</ele>
        <time>2011-04-30T11:35:35Z</time>
      </trkpt>
      <trkpt lat="46.1284" lon="6.45256">
        <ele>760</ele>
        <time>2011-04-30T11:35:37Z</time>
      </trkpt>
      <trkpt lat="46.12852" lon="6.45258">
        <ele>760</ele>
        <time>2011-04-30T11:35:38Z</time>
      </trkpt>
      <trkpt lat="46.12866" lon="6.45264">
        <ele>760</ele>
        <time>2011-04-30T11:35:40Z</time>
      </trkpt>
      <trkpt lat="46.12877" lon="6.45269">
        <ele>753</ele>
        <time>2011-04-30T11:35:42Z</time>
      </trkpt>
      <trkpt lat="46.12889" lon="6.45273">
        <ele>753</ele>
        <time>2011-04-30T11:35:44Z</time>
      </trkpt>
      <trkpt lat="46.12903" lon="6.45275">
        <ele>753</ele>
        <time>2011-04-30T11:35:46Z</time>
      </trkpt>
      <trkpt lat="46.12917" lon="6.45273">
        <ele>747</ele>
        <time>2011-04-30T11:35:48Z</time>
      </trkpt>
      <trkpt lat="46.12932" lon="6.4527">
        <ele>747</ele>
        <time>2011-04-30T11:35:50Z</time>
      </trkpt>
      <trkpt lat="46.12943" lon="6.45272">
        <ele>740</ele>
        <time>2011-04-30T11:35:52Z</time>
      </trkpt>
      <trkpt lat="46.12956" lon="6.45272">
        <ele>740</ele>
        <time>2011-04-30T11:35:54Z</time>
      </trkpt>
      <trkpt lat="46.12967" lon="6.45272">
        <ele>732</ele>
        <time>2011-04-30T11:35:56Z</time>
      </trkpt>
      <trkpt lat="46.12979" lon="6.45269">
        <ele>732</ele>
        <time>2011-04-30T11:35:58Z</time>
      </trkpt>
      <trkpt lat="46.12993" lon="6.4526">
        <ele>723</ele>
        <time>2011-04-30T11:36:00Z</time>
      </trkpt>
      <trkpt lat="46.13001" lon="6.45251">
        <ele>723</ele>
        <time>2011-04-30T11:36:02Z</time>
      </trkpt>
      <trkpt lat="46.13008" lon="6.4524">
        <ele>716</ele>
        <time>2011-04-30T11:36:04Z</time>
      </trkpt>
      <trkpt lat="46.13009" lon="6.45224">
        <ele>716</ele>
        <time>2011-04-30T11:36:06Z</time>
      </trkpt>
      <trkpt lat="46.13004" lon="6.45203">
        <ele>716</ele>
        <time>2011-04-30T11:36:08Z</time>
      </trkpt>
      <trkpt lat="46.13001" lon="6.45184">
        <ele>708</ele>
        <time>2011-04-30T11:36:10Z</time>
      </trkpt>
      <trkpt lat="46.12996" lon="6.45162">
        <ele>708</ele>
        <time>2011-04-30T11:36:12Z</time>
      </trkpt>
      <trkpt lat="46.12991" lon="6.45139">
        <ele>701</ele>
        <time>2011-04-30T11:36:14Z</time>
      </trkpt>
      <trkpt lat="46.12989" lon="6.45118">
        <ele>701</ele>
        <time>2011-04-30T11:36:16Z</time>
      </trkpt>
      <trkpt lat="46.12987" lon="6.45098">
        <ele>693</ele>
        <time>2011-04-30T11:36:18Z</time>
      </trkpt>
      <trkpt lat="46.12988" lon="6.45081">
        <ele>693</ele>
        <time>2011-04-30T11:36:20Z</time>
      </trkpt>
      <trkpt lat="46.12994" lon="6.45069">
        <ele>686</ele>
        <time>2011-04-30T11:36:22Z</time>
      </trkpt>
      <trkpt lat="46.13005" lon="6.45061">
        <ele>686</ele>
        <time>2011-04-30T11:36:24Z</time>
      </trkpt>
      <trkpt lat="46.13019" lon="6.45061">
        <ele>686</ele>
        <time>2011-04-30T11:36:28Z</time>
      </trkpt>
      <trkpt lat="46.1303" lon="6.45069">
        <ele>680</ele>
        <time>2011-04-30T11:36:31Z</time>
      </trkpt>
      <trkpt lat="46.13039" lon="6.45073">
        <ele>680</ele>
        <time>2011-04-30T11:36:33Z</time>
      </trkpt>
      <trkpt lat="46.1305" lon="6.45076">
        <ele>680</ele>
        <time>2011-04-30T11:36:35Z</time>
      </trkpt>
      <trkpt lat="46.13059" lon="6.45077">
        <ele>688</ele>
        <time>2011-04-30T11:36:41Z</time>
      </trkpt>
      <trkpt lat="46.13069" lon="6.45087">
        <ele>688</ele>
        <time>2011-04-30T11:37:12Z</time>
      </trkpt>
      <trkpt lat="46.13077" lon="6.45095">
        <ele>688</ele>
        <time>2011-04-30T11:37:14Z</time>
      </trkpt>
      <trkpt lat="46.13087" lon="6.45102">
        <ele>688</ele>
        <time>2011-04-30T11:37:16Z</time>
      </trkpt>
      <trkpt lat="46.13097" lon="6.45104">
        <ele>688</ele>
        <time>2011-04-30T11:37:18Z</time>
      </trkpt>
      <trkpt lat="46.13108" lon="6.45106">
        <ele>677</ele>
        <time>2011-04-30T11:37:22Z</time>
      </trkpt>
      <trkpt lat="46.1312" lon="6.45113">
        <ele>672</ele>
        <time>2011-04-30T11:37:26Z</time>
      </trkpt>
      <trkpt lat="46.1313" lon="6.45113">
        <ele>672</ele>
        <time>2011-04-30T11:37:29Z</time>
      </trkpt>
      <trkpt lat="46.1314" lon="6.45114">
        <ele>672</ele>
        <time>2011-04-30T11:37:32Z</time>
      </trkpt>
      <trkpt lat="46.13151" lon="6.45115">
        <ele>665</ele>
        <time>2011-04-30T11:37:35Z</time>
      </trkpt>
      <trkpt lat="46.13163" lon="6.45115">
        <ele>665</ele>
        <time>2011-04-30T11:37:38Z</time>
      </trkpt>
      <trkpt lat="46.13177" lon="6.45121">
        <ele>660</ele>
        <time>2011-04-30T11:37:41Z</time>
      </trkpt>
      <trkpt lat="46.13188" lon="6.45127">
        <ele>660</ele>
        <time>2011-04-30T11:37:43Z</time>
      </trkpt>
      <trkpt lat="46.13199" lon="6.45135">
        <ele>654</ele>
        <time>2011-04-30T11:37:45Z</time>
      </trkpt>
      <trkpt lat="46.13212" lon="6.45142">
        <ele>654</ele>
        <time>2011-04-30T11:37:47Z</time>
      </trkpt>
      <trkpt lat="46.13224" lon="6.45149">
        <ele>648</ele>
        <time>2011-04-30T11:37:49Z</time>
      </trkpt>
      <trkpt lat="46.13237" lon="6.45156">
        <ele>648</ele>
        <time>2011-04-30T11:37:51Z</time>
      </trkpt>
      <trkpt lat="46.13249" lon="6.45165">
        <ele>643</ele>
        <time>2011-04-30T11:37:53Z</time>
      </trkpt>
      <trkpt lat="46.1326" lon="6.45175">
        <ele>643</ele>
        <time>2011-04-30T11:37:55Z</time>
      </trkpt>
      <trkpt lat="46.1327" lon="6.45187">
        <ele>637</ele>
        <time>2011-04-30T11:37:57Z</time>
      </trkpt>
      <trkpt lat="46.1328" lon="6.452">
        <ele>637</ele>
        <time>2011-04-30T11:37:59Z</time>
      </trkpt>
      <trkpt lat="46.1329" lon="6.45211">
        <ele>637</ele>
        <time>2011-04-30T11:38:01Z</time>
      </trkpt>
      <trkpt lat="46.13301" lon="6.45223">
        <ele>630</ele>
        <time>2011-04-30T11:38:03Z</time>
      </trkpt>
      <trkpt lat="46.13313" lon="6.45236">
        <ele>630</ele>
        <time>2011-04-30T11:38:05Z</time>
      </trkpt>
      <trkpt lat="46.13327" lon="6.45248">
        <ele>624</ele>
        <time>2011-04-30T11:38:07Z</time>
      </trkpt>
      <trkpt lat="46.13342" lon="6.4526">
        <ele>624</ele>
        <time>2011-04-30T11:38:09Z</time>
      </trkpt>
      <trkpt lat="46.13357" lon="6.45271">
        <ele>619</ele>
        <time>2011-04-30T11:38:11Z</time>
      </trkpt>
      <trkpt lat="46.1337" lon="6.45281">
        <ele>619</ele>
        <time>2011-04-30T11:38:13Z</time>
      </trkpt>
      <trkpt lat="46.13382" lon="6.45291">
        <ele>619</ele>
        <time>2011-04-30T11:38:15Z</time>
      </trkpt>
      <trkpt lat="46.13392" lon="6.453">
        <ele>612</ele>
        <time>2011-04-30T11:38:17Z</time>
      </trkpt>
      <trkpt lat="46.13401" lon="6.45308">
        <ele>612</ele>
        <time>2011-04-30T11:38:19Z</time>
      </trkpt>
      <trkpt lat="46.1341" lon="6.45314">
        <ele>612</ele>
        <time>2011-04-30T11:38:21Z</time>
      </trkpt>
      <trkpt lat="46.13421" lon="6.45319">
        <ele>612</ele>
        <time>2011-04-30T11:38:23Z</time>
      </trkpt>
      <trkpt lat="46.13431" lon="6.45323">
        <ele>606</ele>
        <time>2011-04-30T11:38:25Z</time>
      </trkpt>
      <trkpt lat="46.13443" lon="6.45325">
        <ele>606</ele>
        <time>2011-04-30T11:38:28Z</time>
      </trkpt>
      <trkpt lat="46.13453" lon="6.45327">
        <ele>606</ele>
        <time>2011-04-30T11:38:31Z</time>
      </trkpt>
      <trkpt lat="46.1346" lon="6.45342">
        <ele>606</ele>
        <time>2011-04-30T11:39:22Z</time>
      </trkpt>
      <trkpt lat="46.13459" lon="6.45368">
        <ele>606</ele>
        <time>2011-04-30T11:39:24Z</time>
      </trkpt>
      <trkpt lat="46.13459" lon="6.45385">
        <ele>601</ele>
        <time>2011-04-30T11:39:25Z</time>
      </trkpt>
      <trkpt lat="46.13458" lon="6.45404">
        <ele>601</ele>
        <time>2011-04-30T11:39:26Z</time>
      </trkpt>
      <trkpt lat="46.13458" lon="6.45424">
        <ele>601</ele>
        <time>2011-04-30T11:39:27Z</time>
      </trkpt>
      <trkpt lat="46.13458" lon="6.45446">
        <ele>601</ele>
        <time>2011-04-30T11:39:28Z</time>
      </trkpt>
      <trkpt lat="46.13458" lon="6.45468">
        <ele>601</ele>
        <time>2011-04-30T11:39:29Z</time>
      </trkpt>
      <trkpt lat="46.13458" lon="6.45491">
        <ele>601</ele>
        <time>2011-04-30T11:39:30Z</time>
      </trkpt>
      <trkpt lat="46.13457" lon="6.45514">
        <ele>601</ele>
        <time>2011-04-30T11:39:31Z</time>
      </trkpt>
      <trkpt lat="46.13457" lon="6.45537">
        <ele>601</ele>
        <time>2011-04-30T11:39:32Z</time>
      </trkpt>
      <trkpt lat="46.13457" lon="6.45561">
        <ele>595</ele>
        <time>2011-04-30T11:39:33Z</time>
      </trkpt>
      <trkpt lat="46.13456" lon="6.45584">
        <ele>595</ele>
        <time>2011-04-30T11:39:34Z</time>
      </trkpt>
      <trkpt lat="46.13456" lon="6.45608">
        <ele>595</ele>
        <time>2011-04-30T11:39:35Z</time>
      </trkpt>
      <trkpt lat="46.13456" lon="6.45633">
        <ele>595</ele>
        <time>2011-04-30T11:39:36Z</time>
      </trkpt>
      <trkpt lat="46.13456" lon="6.45657">
        <ele>595</ele>
        <time>2011-04-30T11:39:37Z</time>
      </trkpt>
      <trkpt lat="46.13456" lon="6.45684">
        <ele>595</ele>
        <time>2011-04-30T11:39:38Z</time>
      </trkpt>
      <trkpt lat="46.13456" lon="6.45711">
        <ele>590</ele>
        <time>2011-04-30T11:39:39Z</time>
      </trkpt>
      <trkpt lat="46.13456" lon="6.45738">
        <ele>590</ele>
        <time>2011-04-30T11:39:40Z</time>
      </trkpt>
      <trkpt lat="46.13456" lon="6.45763">
        <ele>590</ele>
        <time>2011-04-30T11:39:41Z</time>
      </trkpt>
      <trkpt lat="46.13456" lon="6.45787">
        <ele>590</ele>
        <time>2011-04-30T11:39:42Z</time>
      </trkpt>
      <trkpt lat="46.13456" lon="6.4581">
        <ele>590</ele>
        <time>2011-04-30T11:39:43Z</time>
      </trkpt>
      <trkpt lat="46.13455" lon="6.4583">
        <ele>590</ele>
        <time>2011-04-30T11:39:44Z</time>
      </trkpt>
      <trkpt lat="46.13454" lon="6.45851">
        <ele>584</ele>
        <time>2011-04-30T11:39:45Z</time>
      </trkpt>
      <trkpt lat="46.13453" lon="6.4587">
        <ele>584</ele>
        <time>2011-04-30T11:39:46Z</time>
      </trkpt>
      <trkpt lat="46.13451" lon="6.45887">
        <ele>584</ele>
        <time>2011-04-30T11:39:47Z</time>
      </trkpt>
      <trkpt lat="46.1345" lon="6.45903">
        <ele>584</ele>
        <time>2011-04-30T11:39:48Z</time>
      </trkpt>
      <trkpt lat="46.1345" lon="6.45918">
        <ele>584</ele>
        <time>2011-04-30T11:39:49Z</time>
      </trkpt>
      <trkpt lat="46.13449" lon="6.45933">
        <ele>584</ele>
        <time>2011-04-30T11:39:50Z</time>
      </trkpt>
      <trkpt lat="46.13446" lon="6.45958">
        <ele>579</ele>
        <time>2011-04-30T11:39:52Z</time>
      </trkpt>
      <trkpt lat="46.1344" lon="6.45979">
        <ele>579</ele>
        <time>2011-04-30T11:39:54Z</time>
      </trkpt>
      <trkpt lat="46.1344" lon="6.45998">
        <ele>579</ele>
        <time>2011-04-30T11:39:56Z</time>
      </trkpt>
      <trkpt lat="46.1345" lon="6.46009">
        <ele>579</ele>
        <time>2011-04-30T11:39:58Z</time>
      </trkpt>
      <trkpt lat="46.13465" lon="6.46007">
        <ele>579</ele>
        <time>2011-04-30T11:40:00Z</time>
      </trkpt>
      <trkpt lat="46.13477" lon="6.46004">
        <ele>579</ele>
        <time>2011-04-30T11:40:02Z</time>
      </trkpt>
      <trkpt lat="46.13485" lon="6.46016">
        <ele>573</ele>
        <time>2011-04-30T11:40:05Z</time>
      </trkpt>
      <trkpt lat="46.13484" lon="6.4603">
        <ele>573</ele>
        <time>2011-04-30T11:40:07Z</time>
      </trkpt>
      <trkpt lat="46.13481" lon="6.46046">
        <ele>573</ele>
        <time>2011-04-30T11:40:09Z</time>
      </trkpt>
      <trkpt lat="46.13478" lon="6.46061">
        <ele>573</ele>
        <time>2011-04-30T11:40:11Z</time>
      </trkpt>
      <trkpt lat="46.13475" lon="6.46076">
        <ele>573</ele>
        <time>2011-04-30T11:40:13Z</time>
      </trkpt>
      <trkpt lat="46.13473" lon="6.46089">
        <ele>573</ele>
        <time>2011-04-30T11:40:15Z</time>
      </trkpt>
      <trkpt lat="46.13471" lon="6.46103">
        <ele>573</ele>
        <time>2011-04-30T11:40:17Z</time>
      </trkpt>
      <trkpt lat="46.1347" lon="6.46121">
        <ele>573</ele>
        <time>2011-04-30T11:40:20Z</time>
      </trkpt>
      <trkpt lat="46.13468" lon="6.46138">
        <ele>573</ele>
        <time>2011-04-30T11:40:23Z</time>
      </trkpt>
      <trkpt lat="46.13471" lon="6.46151">
        <ele>573</ele>
        <time>2011-04-30T11:40:26Z</time>
      </trkpt>
      <trkpt lat="46.13477" lon="6.46139">
        <ele>568</ele>
        <time>2011-04-30T11:40:32Z</time>
      </trkpt>
      <trkpt lat="46.13476" lon="6.46126">
        <ele>583</ele>
        <time>2011-04-30T11:49:49Z</time>
      </trkpt>
      <trkpt lat="46.13476" lon="6.46112">
        <ele>583</ele>
        <time>2011-04-30T11:49:51Z</time>
      </trkpt>
      <trkpt lat="46.13479" lon="6.46089">
        <ele>583</ele>
        <time>2011-04-30T11:49:53Z</time>
      </trkpt>
      <trkpt lat="46.13481" lon="6.46076">
        <ele>583</ele>
        <time>2011-04-30T11:49:54Z</time>
      </trkpt>
      <trkpt lat="46.13484" lon="6.46061">
        <ele>583</ele>
        <time>2011-04-30T11:49:55Z</time>
      </trkpt>
      <trkpt lat="46.13486" lon="6.46049">
        <ele>583</ele>
        <time>2011-04-30T11:49:56Z</time>
      </trkpt>
      <trkpt lat="46.1349" lon="6.4603">
        <ele>583</ele>
        <time>2011-04-30T11:49:58Z</time>
      </trkpt>
      <trkpt lat="46.13493" lon="6.46015">
        <ele>583</ele>
        <time>2011-04-30T11:50:00Z</time>
      </trkpt>
      <trkpt lat="46.13496" lon="6.46003">
        <ele>583</ele>
        <time>2011-04-30T11:50:06Z</time>
      </trkpt>
      <trkpt lat="46.13506" lon="6.45997">
        <ele>583</ele>
        <time>2011-04-30T11:50:19Z</time>
      </trkpt>
      <trkpt lat="46.13517" lon="6.45997">
        <ele>583</ele>
        <time>2011-04-30T11:50:21Z</time>
      </trkpt>
      <trkpt lat="46.13535" lon="6.46003">
        <ele>583</ele>
        <time>2011-04-30T11:50:23Z</time>
      </trkpt>
      <trkpt lat="46.13545" lon="6.46008">
        <ele>583</ele>
        <time>2011-04-30T11:50:24Z</time>
      </trkpt>
      <trkpt lat="46.13555" lon="6.46014">
        <ele>583</ele>
        <time>2011-04-30T11:50:25Z</time>
      </trkpt>
      <trkpt lat="46.13566" lon="6.46018">
        <ele>583</ele>
        <time>2011-04-30T11:50:26Z</time>
      </trkpt>
      <trkpt lat="46.13577" lon="6.46021">
        <ele>583</ele>
        <time>2011-04-30T11:50:27Z</time>
      </trkpt>
      <trkpt lat="46.13587" lon="6.46023">
        <ele>583</ele>
        <time>2011-04-30T11:50:28Z</time>
      </trkpt>
      <trkpt lat="46.13597" lon="6.46025">
        <ele>583</ele>
        <time>2011-04-30T11:50:29Z</time>
      </trkpt>
      <trkpt lat="46.13608" lon="6.46027">
        <ele>583</ele>
        <time>2011-04-30T11:50:30Z</time>
      </trkpt>
      <trkpt lat="46.13618" lon="6.46028">
        <ele>583</ele>
        <time>2011-04-30T11:50:31Z</time>
      </trkpt>
      <trkpt lat="46.13629" lon="6.46029">
        <ele>583</ele>
        <time>2011-04-30T11:50:32Z</time>
      </trkpt>
      <trkpt lat="46.13639" lon="6.4603">
        <ele>583</ele>
        <time>2011-04-30T11:50:33Z</time>
      </trkpt>
      <trkpt lat="46.13649" lon="6.46029">
        <ele>583</ele>
        <time>2011-04-30T11:50:34Z</time>
      </trkpt>
      <trkpt lat="46.13666" lon="6.46024">
        <ele>583</ele>
        <time>2011-04-30T11:50:36Z</time>
      </trkpt>
      <trkpt lat="46.13676" lon="6.4602">
        <ele>583</ele>
        <time>2011-04-30T11:50:38Z</time>
      </trkpt>
      <trkpt lat="46.13685" lon="6.46015">
        <ele>583</ele>
        <time>2011-04-30T11:50:41Z</time>
      </trkpt>
      <trkpt lat="46.13689" lon="6.45997">
        <ele>583</ele>
        <time>2011-04-30T11:50:45Z</time>
      </trkpt>
      <trkpt lat="46.13692" lon="6.45972">
        <ele>583</ele>
        <time>2011-04-30T11:50:47Z</time>
      </trkpt>
      <trkpt lat="46.13693" lon="6.45957">
        <ele>583</ele>
        <time>2011-04-30T11:50:48Z</time>
      </trkpt>
      <trkpt lat="46.13694" lon="6.45942">
        <ele>583</ele>
        <time>2011-04-30T11:50:49Z</time>
      </trkpt>
      <trkpt lat="46.13695" lon="6.45926">
        <ele>583</ele>
        <time>2011-04-30T11:50:50Z</time>
      </trkpt>
      <trkpt lat="46.13696" lon="6.4591">
        <ele>583</ele>
        <time>2011-04-30T11:50:51Z</time>
      </trkpt>
      <trkpt lat="46.13697" lon="6.45895">
        <ele>583</ele>
        <time>2011-04-30T11:50:52Z</time>
      </trkpt>
      <trkpt lat="46.13698" lon="6.45882">
        <ele>583</ele>
        <time>2011-04-30T11:50:53Z</time>
      </trkpt>
      <trkpt lat="46.13698" lon="6.45859">
        <ele>583</ele>
        <time>2011-04-30T11:50:55Z</time>
      </trkpt>
      <trkpt lat="46.137" lon="6.45841">
        <ele>583</ele>
        <time>2011-04-30T11:50:57Z</time>
      </trkpt>
      <trkpt lat="46.13714" lon="6.45834">
        <ele>583</ele>
        <time>2011-04-30T11:51:00Z</time>
      </trkpt>
      <trkpt lat="46.13726" lon="6.45837">
        <ele>583</ele>
        <time>2011-04-30T11:51:01Z</time>
      </trkpt>
      <trkpt lat="46.13737" lon="6.45838">
        <ele>583</ele>
        <time>2011-04-30T11:51:02Z</time>
      </trkpt>
      <trkpt lat="46.13747" lon="6.45838">
        <ele>583</ele>
        <time>2011-04-30T11:51:03Z</time>
      </trkpt>
      <trkpt lat="46.13757" lon="6.45838">
        <ele>583</ele>
        <time>2011-04-30T11:51:04Z</time>
      </trkpt>
      <trkpt lat="46.13775" lon="6.45835">
        <ele>583</ele>
        <time>2011-04-30T11:51:06Z</time>
      </trkpt>
      <trkpt lat="46.1379" lon="6.45832">
        <ele>589</ele>
        <time>2011-04-30T11:51:08Z</time>
      </trkpt>
      <trkpt lat="46.13802" lon="6.4583">
        <ele>589</ele>
        <time>2011-04-30T11:51:10Z</time>
      </trkpt>
      <trkpt lat="46.13813" lon="6.45831">
        <ele>589</ele>
        <time>2011-04-30T11:51:13Z</time>
      </trkpt>
      <trkpt lat="46.13822" lon="6.45829">
        <ele>589</ele>
        <time>2011-04-30T11:51:17Z</time>
      </trkpt>
      <trkpt lat="46.13828" lon="6.45811">
        <ele>589</ele>
        <time>2011-04-30T11:51:20Z</time>
      </trkpt>
      <trkpt lat="46.13834" lon="6.45794">
        <ele>589</ele>
        <time>2011-04-30T11:51:22Z</time>
      </trkpt>
      <trkpt lat="46.13839" lon="6.45782">
        <ele>589</ele>
        <time>2011-04-30T11:51:24Z</time>
      </trkpt>
      <trkpt lat="46.13854" lon="6.4578">
        <ele>595</ele>
        <time>2011-04-30T11:51:27Z</time>
      </trkpt>
      <trkpt lat="46.13866" lon="6.45781">
        <ele>595</ele>
        <time>2011-04-30T11:51:29Z</time>
      </trkpt>
      <trkpt lat="46.13876" lon="6.45781">
        <ele>595</ele>
        <time>2011-04-30T11:51:31Z</time>
      </trkpt>
      <trkpt lat="46.13874" lon="6.45767">
        <ele>595</ele>
        <time>2011-04-30T11:51:37Z</time>
      </trkpt>
      <trkpt lat="46.13865" lon="6.45776">
        <ele>595</ele>
        <time>2011-04-30T11:51:41Z</time>
      </trkpt>
      <trkpt lat="46.13854" lon="6.45776">
        <ele>595</ele>
        <time>2011-04-30T11:51:44Z</time>
      </trkpt>
      <trkpt lat="46.13844" lon="6.45774">
        <ele>595</ele>
        <time>2011-04-30T11:51:47Z</time>
      </trkpt>
      <trkpt lat="46.13834" lon="6.45783">
        <ele>595</ele>
        <time>2011-04-30T11:51:52Z</time>
      </trkpt>
      <trkpt lat="46.13829" lon="6.45797">
        <ele>595</ele>
        <time>2011-04-30T11:51:54Z</time>
      </trkpt>
      <trkpt lat="46.13821" lon="6.45817">
        <ele>595</ele>
        <time>2011-04-30T11:51:56Z</time>
      </trkpt>
      <trkpt lat="46.13818" lon="6.45829">
        <ele>595</ele>
        <time>2011-04-30T11:51:57Z</time>
      </trkpt>
      <trkpt lat="46.13815" lon="6.45843">
        <ele>595</ele>
        <time>2011-04-30T11:51:58Z</time>
      </trkpt>
      <trkpt lat="46.13812" lon="6.45856">
        <ele>595</ele>
        <time>2011-04-30T11:51:59Z</time>
      </trkpt>
      <trkpt lat="46.13809" lon="6.45878">
        <ele>595</ele>
        <time>2011-04-30T11:52:01Z</time>
      </trkpt>
      <trkpt lat="46.13808" lon="6.45898">
        <ele>595</ele>
        <time>2011-04-30T11:52:03Z</time>
      </trkpt>
      <trkpt lat="46.13808" lon="6.45915">
        <ele>595</ele>
        <time>2011-04-30T11:52:05Z</time>
      </trkpt>
      <trkpt lat="46.13807" lon="6.45929">
        <ele>595</ele>
        <time>2011-04-30T11:52:07Z</time>
      </trkpt>
      <trkpt lat="46.13807" lon="6.45944">
        <ele>595</ele>
        <time>2011-04-30T11:52:10Z</time>
      </trkpt>
      <trkpt lat="46.13817" lon="6.45952">
        <ele>595</ele>
        <time>2011-04-30T11:52:14Z</time>
      </trkpt>
      <trkpt lat="46.13829" lon="6.45954">
        <ele>595</ele>
        <time>2011-04-30T11:52:16Z</time>
      </trkpt>
      <trkpt lat="46.13838" lon="6.45959">
        <ele>602</ele>
        <time>2011-04-30T11:52:19Z</time>
      </trkpt>
      <trkpt lat="46.13836" lon="6.45944">
        <ele>609</ele>
        <time>2011-04-30T11:52:54Z</time>
      </trkpt>
      <trkpt lat="46.13828" lon="6.45935">
        <ele>603</ele>
        <time>2011-04-30T11:53:00Z</time>
      </trkpt>
      <trkpt lat="46.13827" lon="6.45951">
        <ele>593</ele>
        <time>2011-04-30T12:41:31Z</time>
      </trkpt>
      <trkpt lat="46.13836" lon="6.45957">
        <ele>593</ele>
        <time>2011-04-30T12:41:34Z</time>
      </trkpt>
      <trkpt lat="46.13841" lon="6.45969">
        <ele>593</ele>
        <time>2011-04-30T12:41:37Z</time>
      </trkpt>
      <trkpt lat="46.13843" lon="6.45982">
        <ele>593</ele>
        <time>2011-04-30T12:41:39Z</time>
      </trkpt>
      <trkpt lat="46.13846" lon="6.46004">
        <ele>593</ele>
        <time>2011-04-30T12:41:41Z</time>
      </trkpt>
      <trkpt lat="46.13847" lon="6.46027">
        <ele>593</ele>
        <time>2011-04-30T12:41:43Z</time>
      </trkpt>
      <trkpt lat="46.13848" lon="6.46041">
        <ele>593</ele>
        <time>2011-04-30T12:41:44Z</time>
      </trkpt>
      <trkpt lat="46.13849" lon="6.46056">
        <ele>599</ele>
        <time>2011-04-30T12:41:45Z</time>
      </trkpt>
      <trkpt lat="46.1385" lon="6.4607">
        <ele>599</ele>
        <time>2011-04-30T12:41:46Z</time>
      </trkpt>
      <trkpt lat="46.13851" lon="6.46085">
        <ele>599</ele>
        <time>2011-04-30T12:41:47Z</time>
      </trkpt>
      <trkpt lat="46.13854" lon="6.46098">
        <ele>599</ele>
        <time>2011-04-30T12:41:48Z</time>
      </trkpt>
      <trkpt lat="46.13857" lon="6.46111">
        <ele>599</ele>
        <time>2011-04-30T12:41:49Z</time>
      </trkpt>
      <trkpt lat="46.13862" lon="6.46123">
        <ele>599</ele>
        <time>2011-04-30T12:41:50Z</time>
      </trkpt>
      <trkpt lat="46.13868" lon="6.46136">
        <ele>604</ele>
        <time>2011-04-30T12:41:51Z</time>
      </trkpt>
      <trkpt lat="46.13874" lon="6.46149">
        <ele>604</ele>
        <time>2011-04-30T12:41:52Z</time>
      </trkpt>
      <trkpt lat="46.1388" lon="6.46163">
        <ele>604</ele>
        <time>2011-04-30T12:41:53Z</time>
      </trkpt>
      <trkpt lat="46.13887" lon="6.46176">
        <ele>604</ele>
        <time>2011-04-30T12:41:54Z</time>
      </trkpt>
      <trkpt lat="46.13893" lon="6.46189">
        <ele>604</ele>
        <time>2011-04-30T12:41:55Z</time>
      </trkpt>
      <trkpt lat="46.13899" lon="6.46201">
        <ele>604</ele>
        <time>2011-04-30T12:41:56Z</time>
      </trkpt>
      <trkpt lat="46.13905" lon="6.46214">
        <ele>604</ele>
        <time>2011-04-30T12:41:57Z</time>
      </trkpt>
      <trkpt lat="46.13913" lon="6.46225">
        <ele>604</ele>
        <time>2011-04-30T12:41:58Z</time>
      </trkpt>
      <trkpt lat="46.13925" lon="6.4624">
        <ele>609</ele>
        <time>2011-04-30T12:42:00Z</time>
      </trkpt>
      <trkpt lat="46.13934" lon="6.46255">
        <ele>609</ele>
        <time>2011-04-30T12:42:02Z</time>
      </trkpt>
      <trkpt lat="46.13939" lon="6.4627">
        <ele>609</ele>
        <time>2011-04-30T12:42:04Z</time>
      </trkpt>
      <trkpt lat="46.13937" lon="6.46283">
        <ele>609</ele>
        <time>2011-04-30T12:42:07Z</time>
      </trkpt>
      <trkpt lat="46.1393" lon="6.46293">
        <ele>609</ele>
        <time>2011-04-30T12:42:10Z</time>
      </trkpt>
      <trkpt lat="46.13923" lon="6.46305">
        <ele>609</ele>
        <time>2011-04-30T12:42:13Z</time>
      </trkpt>
      <trkpt lat="46.13914" lon="6.46313">
        <ele>609</ele>
        <time>2011-04-30T12:42:16Z</time>
      </trkpt>
      <trkpt lat="46.13924" lon="6.46306">
        <ele>609</ele>
        <time>2011-04-30T12:42:43Z</time>
      </trkpt>
      <trkpt lat="46.13932" lon="6.46292">
        <ele>609</ele>
        <time>2011-04-30T12:42:45Z</time>
      </trkpt>
      <trkpt lat="46.1394" lon="6.46277">
        <ele>609</ele>
        <time>2011-04-30T12:42:47Z</time>
      </trkpt>
      <trkpt lat="46.13947" lon="6.46265">
        <ele>609</ele>
        <time>2011-04-30T12:42:50Z</time>
      </trkpt>
      <trkpt lat="46.13938" lon="6.46255">
        <ele>609</ele>
        <time>2011-04-30T12:43:06Z</time>
      </trkpt>
      <trkpt lat="46.13949" lon="6.46255">
        <ele>609</ele>
        <time>2011-04-30T12:43:11Z</time>
      </trkpt>
      <trkpt lat="46.13957" lon="6.46262">
        <ele>609</ele>
        <time>2011-04-30T12:43:13Z</time>
      </trkpt>
      <trkpt lat="46.13965" lon="6.46272">
        <ele>616</ele>
        <time>2011-04-30T12:43:16Z</time>
      </trkpt>
      <trkpt lat="46.13974" lon="6.46283">
        <ele>616</ele>
        <time>2011-04-30T12:43:26Z</time>
      </trkpt>
      <trkpt lat="46.13982" lon="6.46297">
        <ele>616</ele>
        <time>2011-04-30T12:43:29Z</time>
      </trkpt>
      <trkpt lat="46.13989" lon="6.46312">
        <ele>622</ele>
        <time>2011-04-30T12:43:32Z</time>
      </trkpt>
      <trkpt lat="46.13994" lon="6.46328">
        <ele>622</ele>
        <time>2011-04-30T12:43:34Z</time>
      </trkpt>
      <trkpt lat="46.13997" lon="6.46344">
        <ele>622</ele>
        <time>2011-04-30T12:43:36Z</time>
      </trkpt>
      <trkpt lat="46.14" lon="6.46362">
        <ele>622</ele>
        <time>2011-04-30T12:43:38Z</time>
      </trkpt>
      <trkpt lat="46.14004" lon="6.46378">
        <ele>622</ele>
        <time>2011-04-30T12:43:40Z</time>
      </trkpt>
      <trkpt lat="46.14011" lon="6.46395">
        <ele>628</ele>
        <time>2011-04-30T12:43:42Z</time>
      </trkpt>
      <trkpt lat="46.14016" lon="6.46407">
        <ele>628</ele>
        <time>2011-04-30T12:43:43Z</time>
      </trkpt>
      <trkpt lat="46.14022" lon="6.46421">
        <ele>628</ele>
        <time>2011-04-30T12:43:44Z</time>
      </trkpt>
      <trkpt lat="46.14027" lon="6.46437">
        <ele>628</ele>
        <time>2011-04-30T12:43:45Z</time>
      </trkpt>
      <trkpt lat="46.14032" lon="6.46454">
        <ele>633</ele>
        <time>2011-04-30T12:43:46Z</time>
      </trkpt>
      <trkpt lat="46.14037" lon="6.46471">
        <ele>633</ele>
        <time>2011-04-30T12:43:47Z</time>
      </trkpt>
      <trkpt lat="46.14042" lon="6.46487">
        <ele>633</ele>
        <time>2011-04-30T12:43:48Z</time>
      </trkpt>
      <trkpt lat="46.14046" lon="6.46503">
        <ele>633</ele>
        <time>2011-04-30T12:43:49Z</time>
      </trkpt>
      <trkpt lat="46.14052" lon="6.46519">
        <ele>639</ele>
        <time>2011-04-30T12:43:50Z</time>
      </trkpt>
      <trkpt lat="46.14058" lon="6.46537">
        <ele>639</ele>
        <time>2011-04-30T12:43:51Z</time>
      </trkpt>
      <trkpt lat="46.14066" lon="6.46555">
        <ele>639</ele>
        <time>2011-04-30T12:43:52Z</time>
      </trkpt>
      <trkpt lat="46.14075" lon="6.46574">
        <ele>639</ele>
        <time>2011-04-30T12:43:53Z</time>
      </trkpt>
      <trkpt lat="46.14083" lon="6.46591">
        <ele>639</ele>
        <time>2011-04-30T12:43:54Z</time>
      </trkpt>
      <trkpt lat="46.1409" lon="6.46606">
        <ele>639</ele>
        <time>2011-04-30T12:43:55Z</time>
      </trkpt>
      <trkpt lat="46.14097" lon="6.46618">
        <ele>644</ele>
        <time>2011-04-30T12:43:56Z</time>
      </trkpt>
      <trkpt lat="46.14106" lon="6.46636">
        <ele>644</ele>
        <time>2011-04-30T12:43:58Z</time>
      </trkpt>
      <trkpt lat="46.14113" lon="6.46648">
        <ele>644</ele>
        <time>2011-04-30T12:44:01Z</time>
      </trkpt>
      <trkpt lat="46.14125" lon="6.46654">
        <ele>650</ele>
        <time>2011-04-30T12:44:16Z</time>
      </trkpt>
      <trkpt lat="46.14138" lon="6.46661">
        <ele>650</ele>
        <time>2011-04-30T12:44:18Z</time>
      </trkpt>
      <trkpt lat="46.14153" lon="6.46671">
        <ele>650</ele>
        <time>2011-04-30T12:44:20Z</time>
      </trkpt>
      <trkpt lat="46.14163" lon="6.46678">
        <ele>650</ele>
        <time>2011-04-30T12:44:21Z</time>
      </trkpt>
      <trkpt lat="46.14174" lon="6.46686">
        <ele>650</ele>
        <time>2011-04-30T12:44:22Z</time>
      </trkpt>
      <trkpt lat="46.14186" lon="6.46695">
        <ele>650</ele>
        <time>2011-04-30T12:44:23Z</time>
      </trkpt>
      <trkpt lat="46.14199" lon="6.46704">
        <ele>650</ele>
        <time>2011-04-30T12:44:24Z</time>
      </trkpt>
      <trkpt lat="46.14213" lon="6.46714">
        <ele>650</ele>
        <time>2011-04-30T12:44:25Z</time>
      </trkpt>
      <trkpt lat="46.14226" lon="6.46724">
        <ele>650</ele>
        <time>2011-04-30T12:44:26Z</time>
      </trkpt>
      <trkpt lat="46.1424" lon="6.46735">
        <ele>650</ele>
        <time>2011-04-30T12:44:27Z</time>
      </trkpt>
      <trkpt lat="46.14253" lon="6.46748">
        <ele>645</ele>
        <time>2011-04-30T12:44:28Z</time>
      </trkpt>
      <trkpt lat="46.14266" lon="6.46763">
        <ele>645</ele>
        <time>2011-04-30T12:44:29Z</time>
      </trkpt>
      <trkpt lat="46.14278" lon="6.46779">
        <ele>645</ele>
        <time>2011-04-30T12:44:30Z</time>
      </trkpt>
      <trkpt lat="46.14291" lon="6.46794">
        <ele>645</ele>
        <time>2011-04-30T12:44:31Z</time>
      </trkpt>
      <trkpt lat="46.14304" lon="6.46809">
        <ele>645</ele>
        <time>2011-04-30T12:44:32Z</time>
      </trkpt>
      <trkpt lat="46.14318" lon="6.46822">
        <ele>645</ele>
        <time>2011-04-30T12:44:33Z</time>
      </trkpt>
      <trkpt lat="46.14332" lon="6.46833">
        <ele>645</ele>
        <time>2011-04-30T12:44:34Z</time>
      </trkpt>
      <trkpt lat="46.14346" lon="6.4684">
        <ele>645</ele>
        <time>2011-04-30T12:44:35Z</time>
      </trkpt>
      <trkpt lat="46.1436" lon="6.46845">
        <ele>640</ele>
        <time>2011-04-30T12:44:36Z</time>
      </trkpt>
      <trkpt lat="46.14374" lon="6.46847">
        <ele>640</ele>
        <time>2011-04-30T12:44:37Z</time>
      </trkpt>
      <trkpt lat="46.14389" lon="6.46849">
        <ele>640</ele>
        <time>2011-04-30T12:44:38Z</time>
      </trkpt>
      <trkpt lat="46.14404" lon="6.46849">
        <ele>640</ele>
        <time>2011-04-30T12:44:39Z</time>
      </trkpt>
      <trkpt lat="46.14419" lon="6.4685">
        <ele>640</ele>
        <time>2011-04-30T12:44:40Z</time>
      </trkpt>
      <trkpt lat="46.14433" lon="6.4685">
        <ele>640</ele>
        <time>2011-04-30T12:44:41Z</time>
      </trkpt>
      <trkpt lat="46.14447" lon="6.4685">
        <ele>640</ele>
        <time>2011-04-30T12:44:42Z</time>
      </trkpt>
      <trkpt lat="46.14459" lon="6.4685">
        <ele>640</ele>
        <time>2011-04-30T12:44:43Z</time>
      </trkpt>
      <trkpt lat="46.14472" lon="6.4685">
        <ele>640</ele>
        <time>2011-04-30T12:44:44Z</time>
      </trkpt>
      <trkpt lat="46.14482" lon="6.4685">
        <ele>640</ele>
        <time>2011-04-30T12:44:45Z</time>
      </trkpt>
      <trkpt lat="46.14491" lon="6.46849">
        <ele>640</ele>
        <time>2011-04-30T12:44:46Z</time>
      </trkpt>
      <trkpt lat="46.14504" lon="6.46845">
        <ele>640</ele>
        <time>2011-04-30T12:44:48Z</time>
      </trkpt>
      <trkpt lat="46.14514" lon="6.46848">
        <ele>640</ele>
        <time>2011-04-30T12:44:51Z</time>
      </trkpt>
      <trkpt lat="46.14522" lon="6.46858">
        <ele>640</ele>
        <time>2011-04-30T12:45:07Z</time>
      </trkpt>
      <trkpt lat="46.14531" lon="6.4687">
        <ele>640</ele>
        <time>2011-04-30T12:45:09Z</time>
      </trkpt>
      <trkpt lat="46.14542" lon="6.46886">
        <ele>640</ele>
        <time>2011-04-30T12:45:11Z</time>
      </trkpt>
      <trkpt lat="46.14549" lon="6.46896">
        <ele>640</ele>
        <time>2011-04-30T12:45:12Z</time>
      </trkpt>
      <trkpt lat="46.14555" lon="6.46906">
        <ele>640</ele>
        <time>2011-04-30T12:45:13Z</time>
      </trkpt>
      <trkpt lat="46.14564" lon="6.46918">
        <ele>640</ele>
        <time>2011-04-30T12:45:14Z</time>
      </trkpt>
      <trkpt lat="46.14572" lon="6.46931">
        <ele>640</ele>
        <time>2011-04-30T12:45:15Z</time>
      </trkpt>
      <trkpt lat="46.1458" lon="6.46944">
        <ele>640</ele>
        <time>2011-04-30T12:45:16Z</time>
      </trkpt>
      <trkpt lat="46.14588" lon="6.46959">
        <ele>640</ele>
        <time>2011-04-30T12:45:17Z</time>
      </trkpt>
      <trkpt lat="46.14595" lon="6.46974">
        <ele>640</ele>
        <time>2011-04-30T12:45:18Z</time>
      </trkpt>
      <trkpt lat="46.14602" lon="6.46988">
        <ele>640</ele>
        <time>2011-04-30T12:45:19Z</time>
      </trkpt>
      <trkpt lat="46.14609" lon="6.47002">
        <ele>640</ele>
        <time>2011-04-30T12:45:20Z</time>
      </trkpt>
      <trkpt lat="46.14615" lon="6.47014">
        <ele>640</ele>
        <time>2011-04-30T12:45:21Z</time>
      </trkpt>
      <trkpt lat="46.14622" lon="6.47028">
        <ele>640</ele>
        <time>2011-04-30T12:45:22Z</time>
      </trkpt>
      <trkpt lat="46.14628" lon="6.4704">
        <ele>640</ele>
        <time>2011-04-30T12:45:23Z</time>
      </trkpt>
      <trkpt lat="46.14634" lon="6.47052">
        <ele>640</ele>
        <time>2011-04-30T12:45:24Z</time>
      </trkpt>
      <trkpt lat="46.14641" lon="6.47064">
        <ele>635</ele>
        <time>2011-04-30T12:45:25Z</time>
      </trkpt>
      <trkpt lat="46.14649" lon="6.47075">
        <ele>635</ele>
        <time>2011-04-30T12:45:26Z</time>
      </trkpt>
      <trkpt lat="46.14657" lon="6.47083">
        <ele>635</ele>
        <time>2011-04-30T12:45:27Z</time>
      </trkpt>
      <trkpt lat="46.14667" lon="6.47092">
        <ele>635</ele>
        <time>2011-04-30T12:45:28Z</time>
      </trkpt>
      <trkpt lat="46.14676" lon="6.47097">
        <ele>635</ele>
        <time>2011-04-30T12:45:29Z</time>
      </trkpt>
      <trkpt lat="46.14685" lon="6.47101">
        <ele>635</ele>
        <time>2011-04-30T12:45:30Z</time>
      </trkpt>
      <trkpt lat="46.14702" lon="6.47099">
        <ele>630</ele>
        <time>2011-04-30T12:45:32Z</time>
      </trkpt>
      <trkpt lat="46.14711" lon="6.47093">
        <ele>630</ele>
        <time>2011-04-30T12:45:33Z</time>
      </trkpt>
      <trkpt lat="46.1472" lon="6.47085">
        <ele>630</ele>
        <time>2011-04-30T12:45:34Z</time>
      </trkpt>
      <trkpt lat="46.14736" lon="6.47075">
        <ele>630</ele>
        <time>2011-04-30T12:45:36Z</time>
      </trkpt>
      <trkpt lat="46.14745" lon="6.47071">
        <ele>630</ele>
        <time>2011-04-30T12:45:37Z</time>
      </trkpt>
      <trkpt lat="46.14753" lon="6.47065">
        <ele>630</ele>
        <time>2011-04-30T12:45:38Z</time>
      </trkpt>
      <trkpt lat="46.14761" lon="6.47057">
        <ele>630</ele>
        <time>2011-04-30T12:45:39Z</time>
      </trkpt>
      <trkpt lat="46.14773" lon="6.47039">
        <ele>630</ele>
        <time>2011-04-30T12:45:41Z</time>
      </trkpt>
      <trkpt lat="46.14786" lon="6.47021">
        <ele>636</ele>
        <time>2011-04-30T12:45:43Z</time>
      </trkpt>
      <trkpt lat="46.148" lon="6.47003">
        <ele>636</ele>
        <time>2011-04-30T12:45:45Z</time>
      </trkpt>
      <trkpt lat="46.14808" lon="6.46994">
        <ele>636</ele>
        <time>2011-04-30T12:45:46Z</time>
      </trkpt>
      <trkpt lat="46.14817" lon="6.46986">
        <ele>636</ele>
        <time>2011-04-30T12:45:47Z</time>
      </trkpt>
      <trkpt lat="46.14832" lon="6.46977">
        <ele>636</ele>
        <time>2011-04-30T12:45:49Z</time>
      </trkpt>
      <trkpt lat="46.14845" lon="6.46969">
        <ele>641</ele>
        <time>2011-04-30T12:45:51Z</time>
      </trkpt>
      <trkpt lat="46.14857" lon="6.4696">
        <ele>641</ele>
        <time>2011-04-30T12:45:53Z</time>
      </trkpt>
      <trkpt lat="46.1487" lon="6.4695">
        <ele>641</ele>
        <time>2011-04-30T12:45:55Z</time>
      </trkpt>
      <trkpt lat="46.1488" lon="6.46935">
        <ele>641</ele>
        <time>2011-04-30T12:45:57Z</time>
      </trkpt>
      <trkpt lat="46.14886" lon="6.46925">
        <ele>641</ele>
        <time>2011-04-30T12:45:59Z</time>
      </trkpt>
      <trkpt lat="46.14896" lon="6.4693">
        <ele>641</ele>
        <time>2011-04-30T12:46:03Z</time>
      </trkpt>
      <trkpt lat="46.14907" lon="6.46947">
        <ele>641</ele>
        <time>2011-04-30T12:46:05Z</time>
      </trkpt>
      <trkpt lat="46.14913" lon="6.46957">
        <ele>641</ele>
        <time>2011-04-30T12:46:06Z</time>
      </trkpt>
      <trkpt lat="46.1492" lon="6.46966">
        <ele>641</ele>
        <time>2011-04-30T12:46:07Z</time>
      </trkpt>
      <trkpt lat="46.14928" lon="6.46974">
        <ele>641</ele>
        <time>2011-04-30T12:46:08Z</time>
      </trkpt>
      <trkpt lat="46.14935" lon="6.46983">
        <ele>641</ele>
        <time>2011-04-30T12:46:09Z</time>
      </trkpt>
      <trkpt lat="46.14942" lon="6.46993">
        <ele>641</ele>
        <time>2011-04-30T12:46:10Z</time>
      </trkpt>
      <trkpt lat="46.14953" lon="6.47013">
        <ele>641</ele>
        <time>2011-04-30T12:46:12Z</time>
      </trkpt>
      <trkpt lat="46.14965" lon="6.47029">
        <ele>641</ele>
        <time>2011-04-30T12:46:14Z</time>
      </trkpt>
      <trkpt lat="46.14974" lon="6.47041">
        <ele>641</ele>
        <time>2011-04-30T12:46:16Z</time>
      </trkpt>
      <trkpt lat="46.14986" lon="6.47053">
        <ele>641</ele>
        <time>2011-04-30T12:46:18Z</time>
      </trkpt>
      <trkpt lat="46.15" lon="6.47066">
        <ele>641</ele>
        <time>2011-04-30T12:46:20Z</time>
      </trkpt>
      <trkpt lat="46.15014" lon="6.47079">
        <ele>641</ele>
        <time>2011-04-30T12:46:22Z</time>
      </trkpt>
      <trkpt lat="46.15023" lon="6.47087">
        <ele>641</ele>
        <time>2011-04-30T12:46:23Z</time>
      </trkpt>
      <trkpt lat="46.15029" lon="6.47097">
        <ele>641</ele>
        <time>2011-04-30T12:46:24Z</time>
      </trkpt>
      <trkpt lat="46.15036" lon="6.47107">
        <ele>641</ele>
        <time>2011-04-30T12:46:25Z</time>
      </trkpt>
      <trkpt lat="46.15041" lon="6.47118">
        <ele>641</ele>
        <time>2011-04-30T12:46:26Z</time>
      </trkpt>
      <trkpt lat="46.15049" lon="6.47139">
        <ele>641</ele>
        <time>2011-04-30T12:46:28Z</time>
      </trkpt>
      <trkpt lat="46.15054" lon="6.47163">
        <ele>641</ele>
        <time>2011-04-30T12:46:30Z</time>
      </trkpt>
      <trkpt lat="46.15057" lon="6.47189">
        <ele>641</ele>
        <time>2011-04-30T12:46:32Z</time>
      </trkpt>
      <trkpt lat="46.15062" lon="6.47202">
        <ele>636</ele>
        <time>2011-04-30T12:46:33Z</time>
      </trkpt>
      <trkpt lat="46.15067" lon="6.47216">
        <ele>636</ele>
        <time>2011-04-30T12:46:34Z</time>
      </trkpt>
      <trkpt lat="46.15072" lon="6.47232">
        <ele>636</ele>
        <time>2011-04-30T12:46:35Z</time>
      </trkpt>
      <trkpt lat="46.1508" lon="6.47245">
        <ele>636</ele>
        <time>2011-04-30T12:46:36Z</time>
      </trkpt>
      <trkpt lat="46.15087" lon="6.47258">
        <ele>636</ele>
        <time>2011-04-30T12:46:37Z</time>
      </trkpt>
      <trkpt lat="46.15093" lon="6.4727">
        <ele>636</ele>
        <time>2011-04-30T12:46:38Z</time>
      </trkpt>
      <trkpt lat="46.15099" lon="6.47282">
        <ele>636</ele>
        <time>2011-04-30T12:46:39Z</time>
      </trkpt>
      <trkpt lat="46.15109" lon="6.47299">
        <ele>631</ele>
        <time>2011-04-30T12:46:41Z</time>
      </trkpt>
      <trkpt lat="46.15119" lon="6.47313">
        <ele>631</ele>
        <time>2011-04-30T12:46:43Z</time>
      </trkpt>
      <trkpt lat="46.15136" lon="6.47314">
        <ele>631</ele>
        <time>2011-04-30T12:46:45Z</time>
      </trkpt>
      <trkpt lat="46.15149" lon="6.47314">
        <ele>622</ele>
        <time>2011-04-30T12:46:46Z</time>
      </trkpt>
      <trkpt lat="46.15162" lon="6.47313">
        <ele>622</ele>
        <time>2011-04-30T12:46:47Z</time>
      </trkpt>
      <trkpt lat="46.15175" lon="6.47311">
        <ele>622</ele>
        <time>2011-04-30T12:46:48Z</time>
      </trkpt>
      <trkpt lat="46.15187" lon="6.47308">
        <ele>614</ele>
        <time>2011-04-30T12:46:49Z</time>
      </trkpt>
      <trkpt lat="46.15198" lon="6.47307">
        <ele>614</ele>
        <time>2011-04-30T12:46:50Z</time>
      </trkpt>
      <trkpt lat="46.15207" lon="6.4731">
        <ele>614</ele>
        <time>2011-04-30T12:46:51Z</time>
      </trkpt>
      <trkpt lat="46.15217" lon="6.47313">
        <ele>609</ele>
        <time>2011-04-30T12:46:52Z</time>
      </trkpt>
      <trkpt lat="46.15231" lon="6.47323">
        <ele>609</ele>
        <time>2011-04-30T12:46:54Z</time>
      </trkpt>
      <trkpt lat="46.15245" lon="6.47334">
        <ele>609</ele>
        <time>2011-04-30T12:46:56Z</time>
      </trkpt>
      <trkpt lat="46.15257" lon="6.47346">
        <ele>604</ele>
        <time>2011-04-30T12:46:58Z</time>
      </trkpt>
      <trkpt lat="46.1527" lon="6.47356">
        <ele>604</ele>
        <time>2011-04-30T12:47:00Z</time>
      </trkpt>
      <trkpt lat="46.15275" lon="6.47367">
        <ele>604</ele>
        <time>2011-04-30T12:47:02Z</time>
      </trkpt>
      <trkpt lat="46.15275" lon="6.47382">
        <ele>604</ele>
        <time>2011-04-30T12:47:04Z</time>
      </trkpt>
      <trkpt lat="46.15277" lon="6.474">
        <ele>604</ele>
        <time>2011-04-30T12:47:06Z</time>
      </trkpt>
      <trkpt lat="46.15282" lon="6.47421">
        <ele>604</ele>
        <time>2011-04-30T12:47:08Z</time>
      </trkpt>
      <trkpt lat="46.15293" lon="6.47443">
        <ele>604</ele>
        <time>2011-04-30T12:47:10Z</time>
      </trkpt>
      <trkpt lat="46.15302" lon="6.47455">
        <ele>604</ele>
        <time>2011-04-30T12:47:11Z</time>
      </trkpt>
      <trkpt lat="46.1531" lon="6.47467">
        <ele>604</ele>
        <time>2011-04-30T12:47:12Z</time>
      </trkpt>
      <trkpt lat="46.15318" lon="6.4748">
        <ele>604</ele>
        <time>2011-04-30T12:47:13Z</time>
      </trkpt>
      <trkpt lat="46.15327" lon="6.4749">
        <ele>604</ele>
        <time>2011-04-30T12:47:14Z</time>
      </trkpt>
      <trkpt lat="46.15333" lon="6.475">
        <ele>609</ele>
        <time>2011-04-30T12:47:15Z</time>
      </trkpt>
      <trkpt lat="46.1534" lon="6.4751">
        <ele>609</ele>
        <time>2011-04-30T12:47:16Z</time>
      </trkpt>
      <trkpt lat="46.15353" lon="6.47527">
        <ele>609</ele>
        <time>2011-04-30T12:47:18Z</time>
      </trkpt>
      <trkpt lat="46.1536" lon="6.47538">
        <ele>609</ele>
        <time>2011-04-30T12:47:19Z</time>
      </trkpt>
      <trkpt lat="46.15367" lon="6.47549">
        <ele>609</ele>
        <time>2011-04-30T12:47:20Z</time>
      </trkpt>
      <trkpt lat="46.15375" lon="6.47559">
        <ele>615</ele>
        <time>2011-04-30T12:47:21Z</time>
      </trkpt>
      <trkpt lat="46.15382" lon="6.47568">
        <ele>615</ele>
        <time>2011-04-30T12:47:22Z</time>
      </trkpt>
      <trkpt lat="46.1539" lon="6.47577">
        <ele>615</ele>
        <time>2011-04-30T12:47:23Z</time>
      </trkpt>
      <trkpt lat="46.15404" lon="6.47589">
        <ele>615</ele>
        <time>2011-04-30T12:47:25Z</time>
      </trkpt>
      <trkpt lat="46.15415" lon="6.47603">
        <ele>615</ele>
        <time>2011-04-30T12:47:27Z</time>
      </trkpt>
      <trkpt lat="46.15426" lon="6.47612">
        <ele>615</ele>
        <time>2011-04-30T12:47:29Z</time>
      </trkpt>
      <trkpt lat="46.15437" lon="6.47623">
        <ele>622</ele>
        <time>2011-04-30T12:47:31Z</time>
      </trkpt>
      <trkpt lat="46.15448" lon="6.47632">
        <ele>622</ele>
        <time>2011-04-30T12:47:33Z</time>
      </trkpt>
      <trkpt lat="46.15456" lon="6.4764">
        <ele>622</ele>
        <time>2011-04-30T12:47:35Z</time>
      </trkpt>
      <trkpt lat="46.15458" lon="6.47656">
        <ele>622</ele>
        <time>2011-04-30T12:47:38Z</time>
      </trkpt>
      <trkpt lat="46.15452" lon="6.47671">
        <ele>622</ele>
        <time>2011-04-30T12:47:41Z</time>
      </trkpt>
      <trkpt lat="46.15444" lon="6.47665">
        <ele>622</ele>
        <time>2011-04-30T12:48:00Z</time>
      </trkpt>
      <trkpt lat="46.15451" lon="6.47681">
        <ele>628</ele>
        <time>2011-04-30T12:48:04Z</time>
      </trkpt>
      <trkpt lat="46.15465" lon="6.47687">
        <ele>628</ele>
        <time>2011-04-30T12:48:06Z</time>
      </trkpt>
      <trkpt lat="46.15479" lon="6.47689">
        <ele>628</ele>
        <time>2011-04-30T12:48:08Z</time>
      </trkpt>
      <trkpt lat="46.15493" lon="6.47693">
        <ele>628</ele>
        <time>2011-04-30T12:48:10Z</time>
      </trkpt>
      <trkpt lat="46.15501" lon="6.47684">
        <ele>639</ele>
        <time>2011-04-30T12:48:13Z</time>
      </trkpt>
      <trkpt lat="46.1551" lon="6.47685">
        <ele>639</ele>
        <time>2011-04-30T12:48:16Z</time>
      </trkpt>
      <trkpt lat="46.15521" lon="6.47689">
        <ele>646</ele>
        <time>2011-04-30T12:48:20Z</time>
      </trkpt>
      <trkpt lat="46.15533" lon="6.4769">
        <ele>655</ele>
        <time>2011-04-30T12:48:24Z</time>
      </trkpt>
      <trkpt lat="46.15544" lon="6.47692">
        <ele>665</ele>
        <time>2011-04-30T12:48:28Z</time>
      </trkpt>
      <trkpt lat="46.15531" lon="6.47697">
        <ele>677</ele>
        <time>2011-04-30T12:48:31Z</time>
      </trkpt>
      <trkpt lat="46.15519" lon="6.47705">
        <ele>677</ele>
        <time>2011-04-30T12:48:33Z</time>
      </trkpt>
      <trkpt lat="46.15511" lon="6.47714">
        <ele>677</ele>
        <time>2011-04-30T12:48:34Z</time>
      </trkpt>
      <trkpt lat="46.15498" lon="6.47729">
        <ele>677</ele>
        <time>2011-04-30T12:48:36Z</time>
      </trkpt>
      <trkpt lat="46.15481" lon="6.47739">
        <ele>677</ele>
        <time>2011-04-30T12:48:38Z</time>
      </trkpt>
      <trkpt lat="46.15473" lon="6.47743">
        <ele>677</ele>
        <time>2011-04-30T12:48:39Z</time>
      </trkpt>
      <trkpt lat="46.15456" lon="6.47749">
        <ele>677</ele>
        <time>2011-04-30T12:48:41Z</time>
      </trkpt>
      <trkpt lat="46.15443" lon="6.47758">
        <ele>677</ele>
        <time>2011-04-30T12:48:43Z</time>
      </trkpt>
      <trkpt lat="46.15434" lon="6.47774">
        <ele>677</ele>
        <time>2011-04-30T12:48:45Z</time>
      </trkpt>
      <trkpt lat="46.15423" lon="6.47792">
        <ele>677</ele>
        <time>2011-04-30T12:48:47Z</time>
      </trkpt>
      <trkpt lat="46.15416" lon="6.47811">
        <ele>677</ele>
        <time>2011-04-30T12:48:49Z</time>
      </trkpt>
      <trkpt lat="46.15408" lon="6.47826">
        <ele>677</ele>
        <time>2011-04-30T12:48:51Z</time>
      </trkpt>
      <trkpt lat="46.15401" lon="6.47839">
        <ele>677</ele>
        <time>2011-04-30T12:48:53Z</time>
      </trkpt>
      <trkpt lat="46.15393" lon="6.47848">
        <ele>677</ele>
        <time>2011-04-30T12:48:55Z</time>
      </trkpt>
      <trkpt lat="46.15383" lon="6.47857">
        <ele>677</ele>
        <time>2011-04-30T12:48:57Z</time>
      </trkpt>
      <trkpt lat="46.1537" lon="6.47869">
        <ele>677</ele>
        <time>2011-04-30T12:48:59Z</time>
      </trkpt>
      <trkpt lat="46.15356" lon="6.47883">
        <ele>677</ele>
        <time>2011-04-30T12:49:01Z</time>
      </trkpt>
      <trkpt lat="46.15343" lon="6.479">
        <ele>684</ele>
        <time>2011-04-30T12:49:03Z</time>
      </trkpt>
      <trkpt lat="46.15335" lon="6.47908">
        <ele>684</ele>
        <time>2011-04-30T12:49:04Z</time>
      </trkpt>
      <trkpt lat="46.1532" lon="6.47918">
        <ele>690</ele>
        <time>2011-04-30T12:49:06Z</time>
      </trkpt>
      <trkpt lat="46.15311" lon="6.47927">
        <ele>690</ele>
        <time>2011-04-30T12:49:08Z</time>
      </trkpt>
      <trkpt lat="46.15308" lon="6.47941">
        <ele>690</ele>
        <time>2011-04-30T12:49:10Z</time>
      </trkpt>
      <trkpt lat="46.15305" lon="6.47959">
        <ele>690</ele>
        <time>2011-04-30T12:49:12Z</time>
      </trkpt>
      <trkpt lat="46.15302" lon="6.47979">
        <ele>690</ele>
        <time>2011-04-30T12:49:14Z</time>
      </trkpt>
      <trkpt lat="46.153" lon="6.47993">
        <ele>690</ele>
        <time>2011-04-30T12:49:15Z</time>
      </trkpt>
      <trkpt lat="46.153" lon="6.48007">
        <ele>690</ele>
        <time>2011-04-30T12:49:16Z</time>
      </trkpt>
      <trkpt lat="46.153" lon="6.48021">
        <ele>690</ele>
        <time>2011-04-30T12:49:17Z</time>
      </trkpt>
      <trkpt lat="46.153" lon="6.48035">
        <ele>690</ele>
        <time>2011-04-30T12:49:18Z</time>
      </trkpt>
      <trkpt lat="46.15298" lon="6.48048">
        <ele>690</ele>
        <time>2011-04-30T12:49:19Z</time>
      </trkpt>
      <trkpt lat="46.15297" lon="6.48073">
        <ele>690</ele>
        <time>2011-04-30T12:49:21Z</time>
      </trkpt>
      <trkpt lat="46.15297" lon="6.48097">
        <ele>690</ele>
        <time>2011-04-30T12:49:23Z</time>
      </trkpt>
      <trkpt lat="46.15298" lon="6.48117">
        <ele>690</ele>
        <time>2011-04-30T12:49:25Z</time>
      </trkpt>
      <trkpt lat="46.15302" lon="6.48136">
        <ele>690</ele>
        <time>2011-04-30T12:49:27Z</time>
      </trkpt>
      <trkpt lat="46.15303" lon="6.48158">
        <ele>690</ele>
        <time>2011-04-30T12:49:29Z</time>
      </trkpt>
      <trkpt lat="46.15303" lon="6.48182">
        <ele>690</ele>
        <time>2011-04-30T12:49:31Z</time>
      </trkpt>
      <trkpt lat="46.15302" lon="6.48202">
        <ele>690</ele>
        <time>2011-04-30T12:49:33Z</time>
      </trkpt>
      <trkpt lat="46.15299" lon="6.48221">
        <ele>690</ele>
        <time>2011-04-30T12:49:35Z</time>
      </trkpt>
      <trkpt lat="46.15295" lon="6.48242">
        <ele>690</ele>
        <time>2011-04-30T12:49:37Z</time>
      </trkpt>
      <trkpt lat="46.15293" lon="6.48256">
        <ele>690</ele>
        <time>2011-04-30T12:49:38Z</time>
      </trkpt>
      <trkpt lat="46.15291" lon="6.48272">
        <ele>690</ele>
        <time>2011-04-30T12:49:39Z</time>
      </trkpt>
      <trkpt lat="46.1529" lon="6.48287">
        <ele>690</ele>
        <time>2011-04-30T12:49:40Z</time>
      </trkpt>
      <trkpt lat="46.1529" lon="6.48303">
        <ele>690</ele>
        <time>2011-04-30T12:49:41Z</time>
      </trkpt>
      <trkpt lat="46.15289" lon="6.48317">
        <ele>690</ele>
        <time>2011-04-30T12:49:42Z</time>
      </trkpt>
      <trkpt lat="46.15288" lon="6.4833">
        <ele>690</ele>
        <time>2011-04-30T12:49:43Z</time>
      </trkpt>
      <trkpt lat="46.15283" lon="6.48353">
        <ele>690</ele>
        <time>2011-04-30T12:49:45Z</time>
      </trkpt>
      <trkpt lat="46.1528" lon="6.48369">
        <ele>690</ele>
        <time>2011-04-30T12:49:46Z</time>
      </trkpt>
      <trkpt lat="46.15279" lon="6.48383">
        <ele>690</ele>
        <time>2011-04-30T12:49:47Z</time>
      </trkpt>
      <trkpt lat="46.15277" lon="6.48399">
        <ele>690</ele>
        <time>2011-04-30T12:49:48Z</time>
      </trkpt>
      <trkpt lat="46.15276" lon="6.48414">
        <ele>690</ele>
        <time>2011-04-30T12:49:49Z</time>
      </trkpt>
      <trkpt lat="46.15275" lon="6.48429">
        <ele>690</ele>
        <time>2011-04-30T12:49:50Z</time>
      </trkpt>
      <trkpt lat="46.15274" lon="6.48444">
        <ele>690</ele>
        <time>2011-04-30T12:49:51Z</time>
      </trkpt>
      <trkpt lat="46.15276" lon="6.48468">
        <ele>690</ele>
        <time>2011-04-30T12:49:53Z</time>
      </trkpt>
      <trkpt lat="46.15277" lon="6.48487">
        <ele>690</ele>
        <time>2011-04-30T12:49:55Z</time>
      </trkpt>
      <trkpt lat="46.15277" lon="6.48507">
        <ele>696</ele>
        <time>2011-04-30T12:49:57Z</time>
      </trkpt>
      <trkpt lat="46.15276" lon="6.4853">
        <ele>696</ele>
        <time>2011-04-30T12:49:59Z</time>
      </trkpt>
      <trkpt lat="46.15277" lon="6.48553">
        <ele>696</ele>
        <time>2011-04-30T12:50:01Z</time>
      </trkpt>
      <trkpt lat="46.15278" lon="6.48579">
        <ele>696</ele>
        <time>2011-04-30T12:50:03Z</time>
      </trkpt>
      <trkpt lat="46.15277" lon="6.48599">
        <ele>696</ele>
        <time>2011-04-30T12:50:04Z</time>
      </trkpt>
      <trkpt lat="46.15277" lon="6.48615">
        <ele>696</ele>
        <time>2011-04-30T12:50:05Z</time>
      </trkpt>
      <trkpt lat="46.15277" lon="6.48632">
        <ele>696</ele>
        <time>2011-04-30T12:50:06Z</time>
      </trkpt>
      <trkpt lat="46.15277" lon="6.48646">
        <ele>702</ele>
        <time>2011-04-30T12:50:07Z</time>
      </trkpt>
      <trkpt lat="46.15278" lon="6.48659">
        <ele>702</ele>
        <time>2011-04-30T12:50:08Z</time>
      </trkpt>
      <trkpt lat="46.15283" lon="6.48678">
        <ele>702</ele>
        <time>2011-04-30T12:50:10Z</time>
      </trkpt>
      <trkpt lat="46.15289" lon="6.48696">
        <ele>702</ele>
        <time>2011-04-30T12:50:12Z</time>
      </trkpt>
      <trkpt lat="46.15297" lon="6.48712">
        <ele>708</ele>
        <time>2011-04-30T12:50:14Z</time>
      </trkpt>
      <trkpt lat="46.153" lon="6.48725">
        <ele>708</ele>
        <time>2011-04-30T12:50:17Z</time>
      </trkpt>
      <trkpt lat="46.15293" lon="6.48734">
        <ele>715</ele>
        <time>2011-04-30T12:50:19Z</time>
      </trkpt>
      <trkpt lat="46.15285" lon="6.48743">
        <ele>715</ele>
        <time>2011-04-30T12:50:21Z</time>
      </trkpt>
      <trkpt lat="46.15275" lon="6.48756">
        <ele>720</ele>
        <time>2011-04-30T12:50:23Z</time>
      </trkpt>
      <trkpt lat="46.15265" lon="6.48769">
        <ele>720</ele>
        <time>2011-04-30T12:50:25Z</time>
      </trkpt>
      <trkpt lat="46.15254" lon="6.48788">
        <ele>727</ele>
        <time>2011-04-30T12:50:27Z</time>
      </trkpt>
      <trkpt lat="46.15244" lon="6.48808">
        <ele>733</ele>
        <time>2011-04-30T12:50:29Z</time>
      </trkpt>
      <trkpt lat="46.15242" lon="6.48828">
        <ele>733</ele>
        <time>2011-04-30T12:50:31Z</time>
      </trkpt>
      <trkpt lat="46.15242" lon="6.48855">
        <ele>738</ele>
        <time>2011-04-30T12:50:33Z</time>
      </trkpt>
      <trkpt lat="46.15241" lon="6.48869">
        <ele>738</ele>
        <time>2011-04-30T12:50:34Z</time>
      </trkpt>
      <trkpt lat="46.15238" lon="6.48883">
        <ele>738</ele>
        <time>2011-04-30T12:50:35Z</time>
      </trkpt>
      <trkpt lat="46.1523" lon="6.48906">
        <ele>744</ele>
        <time>2011-04-30T12:50:37Z</time>
      </trkpt>
      <trkpt lat="46.15226" lon="6.48918">
        <ele>744</ele>
        <time>2011-04-30T12:50:38Z</time>
      </trkpt>
      <trkpt lat="46.15216" lon="6.48939">
        <ele>744</ele>
        <time>2011-04-30T12:50:40Z</time>
      </trkpt>
      <trkpt lat="46.15204" lon="6.48961">
        <ele>750</ele>
        <time>2011-04-30T12:50:42Z</time>
      </trkpt>
      <trkpt lat="46.15199" lon="6.48973">
        <ele>750</ele>
        <time>2011-04-30T12:50:43Z</time>
      </trkpt>
      <trkpt lat="46.15193" lon="6.48985">
        <ele>750</ele>
        <time>2011-04-30T12:50:44Z</time>
      </trkpt>
      <trkpt lat="46.15189" lon="6.48998">
        <ele>750</ele>
        <time>2011-04-30T12:50:45Z</time>
      </trkpt>
      <trkpt lat="46.15185" lon="6.4901">
        <ele>756</ele>
        <time>2011-04-30T12:50:46Z</time>
      </trkpt>
      <trkpt lat="46.15183" lon="6.49026">
        <ele>756</ele>
        <time>2011-04-30T12:50:47Z</time>
      </trkpt>
      <trkpt lat="46.15181" lon="6.49042">
        <ele>756</ele>
        <time>2011-04-30T12:50:48Z</time>
      </trkpt>
      <trkpt lat="46.15178" lon="6.49058">
        <ele>756</ele>
        <time>2011-04-30T12:50:49Z</time>
      </trkpt>
      <trkpt lat="46.15174" lon="6.49071">
        <ele>756</ele>
        <time>2011-04-30T12:50:50Z</time>
      </trkpt>
      <trkpt lat="46.15169" lon="6.49085">
        <ele>756</ele>
        <time>2011-04-30T12:50:51Z</time>
      </trkpt>
      <trkpt lat="46.15164" lon="6.49096">
        <ele>756</ele>
        <time>2011-04-30T12:50:52Z</time>
      </trkpt>
      <trkpt lat="46.15154" lon="6.49109">
        <ele>756</ele>
        <time>2011-04-30T12:50:54Z</time>
      </trkpt>
      <trkpt lat="46.1515" lon="6.49121">
        <ele>756</ele>
        <time>2011-04-30T12:56:29Z</time>
      </trkpt>
      <trkpt lat="46.15153" lon="6.49139">
        <ele>756</ele>
        <time>2011-04-30T12:56:33Z</time>
      </trkpt>
      <trkpt lat="46.15156" lon="6.49158">
        <ele>756</ele>
        <time>2011-04-30T12:56:35Z</time>
      </trkpt>
      <trkpt lat="46.1516" lon="6.4918">
        <ele>756</ele>
        <time>2011-04-30T12:56:37Z</time>
      </trkpt>
      <trkpt lat="46.15163" lon="6.49205">
        <ele>756</ele>
        <time>2011-04-30T12:56:39Z</time>
      </trkpt>
      <trkpt lat="46.15164" lon="6.49231">
        <ele>756</ele>
        <time>2011-04-30T12:56:41Z</time>
      </trkpt>
      <trkpt lat="46.15169" lon="6.49257">
        <ele>756</ele>
        <time>2011-04-30T12:56:43Z</time>
      </trkpt>
      <trkpt lat="46.15173" lon="6.49269">
        <ele>756</ele>
        <time>2011-04-30T12:56:44Z</time>
      </trkpt>
      <trkpt lat="46.15177" lon="6.49281">
        <ele>756</ele>
        <time>2011-04-30T12:56:45Z</time>
      </trkpt>
      <trkpt lat="46.15184" lon="6.49301">
        <ele>756</ele>
        <time>2011-04-30T12:56:47Z</time>
      </trkpt>
      <trkpt lat="46.15192" lon="6.49324">
        <ele>756</ele>
        <time>2011-04-30T12:56:49Z</time>
      </trkpt>
      <trkpt lat="46.15196" lon="6.49336">
        <ele>756</ele>
        <time>2011-04-30T12:56:50Z</time>
      </trkpt>
      <trkpt lat="46.15202" lon="6.49346">
        <ele>761</ele>
        <time>2011-04-30T12:56:51Z</time>
      </trkpt>
      <trkpt lat="46.15212" lon="6.49367">
        <ele>761</ele>
        <time>2011-04-30T12:56:53Z</time>
      </trkpt>
      <trkpt lat="46.15224" lon="6.49383">
        <ele>761</ele>
        <time>2011-04-30T12:56:55Z</time>
      </trkpt>
      <trkpt lat="46.15237" lon="6.4939">
        <ele>761</ele>
        <time>2011-04-30T12:56:57Z</time>
      </trkpt>
      <trkpt lat="46.15247" lon="6.49389">
        <ele>761</ele>
        <time>2011-04-30T12:57:01Z</time>
      </trkpt>
      <trkpt lat="46.15261" lon="6.4938">
        <ele>766</ele>
        <time>2011-04-30T12:57:04Z</time>
      </trkpt>
      <trkpt lat="46.15275" lon="6.49375">
        <ele>766</ele>
        <time>2011-04-30T12:57:06Z</time>
      </trkpt>
      <trkpt lat="46.1529" lon="6.4937">
        <ele>766</ele>
        <time>2011-04-30T12:57:08Z</time>
      </trkpt>
      <trkpt lat="46.15303" lon="6.49363">
        <ele>766</ele>
        <time>2011-04-30T12:57:10Z</time>
      </trkpt>
      <trkpt lat="46.15315" lon="6.49366">
        <ele>766</ele>
        <time>2011-04-30T12:57:12Z</time>
      </trkpt>
      <trkpt lat="46.15328" lon="6.49373">
        <ele>772</ele>
        <time>2011-04-30T12:57:14Z</time>
      </trkpt>
      <trkpt lat="46.1534" lon="6.49378">
        <ele>772</ele>
        <time>2011-04-30T12:57:16Z</time>
      </trkpt>
      <trkpt lat="46.15352" lon="6.49385">
        <ele>772</ele>
        <time>2011-04-30T12:57:18Z</time>
      </trkpt>
      <trkpt lat="46.15368" lon="6.4939">
        <ele>778</ele>
        <time>2011-04-30T12:57:20Z</time>
      </trkpt>
      <trkpt lat="46.15378" lon="6.49393">
        <ele>778</ele>
        <time>2011-04-30T12:57:21Z</time>
      </trkpt>
      <trkpt lat="46.15393" lon="6.49398">
        <ele>778</ele>
        <time>2011-04-30T12:57:23Z</time>
      </trkpt>
      <trkpt lat="46.15403" lon="6.49403">
        <ele>778</ele>
        <time>2011-04-30T12:57:25Z</time>
      </trkpt>
      <trkpt lat="46.15415" lon="6.49409">
        <ele>785</ele>
        <time>2011-04-30T12:57:29Z</time>
      </trkpt>
      <trkpt lat="46.15425" lon="6.49407">
        <ele>785</ele>
        <time>2011-04-30T12:57:31Z</time>
      </trkpt>
      <trkpt lat="46.15437" lon="6.49406">
        <ele>785</ele>
        <time>2011-04-30T12:57:33Z</time>
      </trkpt>
      <trkpt lat="46.1545" lon="6.49402">
        <ele>785</ele>
        <time>2011-04-30T12:57:35Z</time>
      </trkpt>
      <trkpt lat="46.1546" lon="6.49398">
        <ele>785</ele>
        <time>2011-04-30T12:57:37Z</time>
      </trkpt>
      <trkpt lat="46.1547" lon="6.49396">
        <ele>791</ele>
        <time>2011-04-30T12:57:39Z</time>
      </trkpt>
      <trkpt lat="46.15483" lon="6.49391">
        <ele>791</ele>
        <time>2011-04-30T12:57:41Z</time>
      </trkpt>
      <trkpt lat="46.15495" lon="6.49386">
        <ele>791</ele>
        <time>2011-04-30T12:57:43Z</time>
      </trkpt>
      <trkpt lat="46.15507" lon="6.4938">
        <ele>791</ele>
        <time>2011-04-30T12:57:45Z</time>
      </trkpt>
      <trkpt lat="46.15516" lon="6.49377">
        <ele>797</ele>
        <time>2011-04-30T12:57:47Z</time>
      </trkpt>
      <trkpt lat="46.15526" lon="6.49378">
        <ele>797</ele>
        <time>2011-04-30T12:58:08Z</time>
      </trkpt>
      <trkpt lat="46.15535" lon="6.49379">
        <ele>797</ele>
        <time>2011-04-30T12:58:10Z</time>
      </trkpt>
      <trkpt lat="46.15547" lon="6.4938">
        <ele>802</ele>
        <time>2011-04-30T12:58:12Z</time>
      </trkpt>
      <trkpt lat="46.15561" lon="6.49386">
        <ele>802</ele>
        <time>2011-04-30T12:58:14Z</time>
      </trkpt>
      <trkpt lat="46.15578" lon="6.49392">
        <ele>802</ele>
        <time>2011-04-30T12:58:16Z</time>
      </trkpt>
      <trkpt lat="46.15586" lon="6.49398">
        <ele>802</ele>
        <time>2011-04-30T12:58:17Z</time>
      </trkpt>
      <trkpt lat="46.15601" lon="6.4941">
        <ele>809</ele>
        <time>2011-04-30T12:58:19Z</time>
      </trkpt>
      <trkpt lat="46.15609" lon="6.49419">
        <ele>809</ele>
        <time>2011-04-30T12:58:20Z</time>
      </trkpt>
      <trkpt lat="46.15617" lon="6.49426">
        <ele>809</ele>
        <time>2011-04-30T12:58:21Z</time>
      </trkpt>
      <trkpt lat="46.15632" lon="6.49438">
        <ele>816</ele>
        <time>2011-04-30T12:58:23Z</time>
      </trkpt>
      <trkpt lat="46.1564" lon="6.49449">
        <ele>816</ele>
        <time>2011-04-30T12:58:25Z</time>
      </trkpt>
      <trkpt lat="46.15651" lon="6.49459">
        <ele>824</ele>
        <time>2011-04-30T12:58:28Z</time>
      </trkpt>
      <trkpt lat="46.15659" lon="6.49471">
        <ele>824</ele>
        <time>2011-04-30T12:58:31Z</time>
      </trkpt>
      <trkpt lat="46.15664" lon="6.49484">
        <ele>829</ele>
        <time>2011-04-30T12:58:33Z</time>
      </trkpt>
      <trkpt lat="46.15668" lon="6.49498">
        <ele>829</ele>
        <time>2011-04-30T12:58:36Z</time>
      </trkpt>
      <trkpt lat="46.15672" lon="6.49514">
        <ele>829</ele>
        <time>2011-04-30T12:58:40Z</time>
      </trkpt>
      <trkpt lat="46.15676" lon="6.49527">
        <ele>829</ele>
        <time>2011-04-30T12:58:43Z</time>
      </trkpt>
      <trkpt lat="46.15669" lon="6.49538">
        <ele>842</ele>
        <time>2011-04-30T12:58:58Z</time>
      </trkpt>
      <trkpt lat="46.15656" lon="6.49541">
        <ele>842</ele>
        <time>2011-04-30T12:59:01Z</time>
      </trkpt>
      <trkpt lat="46.15645" lon="6.49543">
        <ele>842</ele>
        <time>2011-04-30T12:59:03Z</time>
      </trkpt>
      <trkpt lat="46.15634" lon="6.49547">
        <ele>848</ele>
        <time>2011-04-30T12:59:05Z</time>
      </trkpt>
      <trkpt lat="46.15622" lon="6.49549">
        <ele>848</ele>
        <time>2011-04-30T12:59:07Z</time>
      </trkpt>
      <trkpt lat="46.15615" lon="6.49557">
        <ele>835</ele>
        <time>2011-04-30T12:59:45Z</time>
      </trkpt>
      <trkpt lat="46.15622" lon="6.49548">
        <ele>857</ele>
        <time>2011-04-30T13:00:11Z</time>
      </trkpt>
      <trkpt lat="46.15613" lon="6.49542">
        <ele>857</ele>
        <time>2011-04-30T13:00:26Z</time>
      </trkpt>
      <trkpt lat="46.1562" lon="6.49551">
        <ele>852</ele>
        <time>2011-04-30T13:00:32Z</time>
      </trkpt>
      <trkpt lat="46.15609" lon="6.49555">
        <ele>852</ele>
        <time>2011-04-30T13:00:40Z</time>
      </trkpt>
      <trkpt lat="46.15599" lon="6.49554">
        <ele>852</ele>
        <time>2011-04-30T13:00:44Z</time>
      </trkpt>
      <trkpt lat="46.15609" lon="6.49549">
        <ele>842</ele>
        <time>2011-04-30T13:00:49Z</time>
      </trkpt>
      <trkpt lat="46.15618" lon="6.49547">
        <ele>842</ele>
        <time>2011-04-30T13:00:59Z</time>
      </trkpt>
      <trkpt lat="46.15608" lon="6.49541">
        <ele>853</ele>
        <time>2011-04-30T13:01:08Z</time>
      </trkpt>
      <trkpt lat="46.156" lon="6.49534">
        <ele>847</ele>
        <time>2011-04-30T13:01:12Z</time>
      </trkpt>
      <trkpt lat="46.15591" lon="6.4953">
        <ele>847</ele>
        <time>2011-04-30T13:01:16Z</time>
      </trkpt>
      <trkpt lat="46.15587" lon="6.49518">
        <ele>847</ele>
        <time>2011-04-30T13:01:19Z</time>
      </trkpt>
      <trkpt lat="46.15584" lon="6.49502">
        <ele>838</ele>
        <time>2011-04-30T13:01:23Z</time>
      </trkpt>
      <trkpt lat="46.15581" lon="6.49489">
        <ele>838</ele>
        <time>2011-04-30T13:01:26Z</time>
      </trkpt>
      <trkpt lat="46.15569" lon="6.49494">
        <ele>831</ele>
        <time>2011-04-30T13:01:37Z</time>
      </trkpt>
      <trkpt lat="46.15562" lon="6.49507">
        <ele>831</ele>
        <time>2011-04-30T13:01:39Z</time>
      </trkpt>
      <trkpt lat="46.15554" lon="6.49523">
        <ele>831</ele>
        <time>2011-04-30T13:01:41Z</time>
      </trkpt>
      <trkpt lat="46.15546" lon="6.49541">
        <ele>831</ele>
        <time>2011-04-30T13:01:43Z</time>
      </trkpt>
      <trkpt lat="46.15536" lon="6.4956">
        <ele>831</ele>
        <time>2011-04-30T13:01:45Z</time>
      </trkpt>
      <trkpt lat="46.15528" lon="6.49577">
        <ele>831</ele>
        <time>2011-04-30T13:01:47Z</time>
      </trkpt>
      <trkpt lat="46.15518" lon="6.49592">
        <ele>831</ele>
        <time>2011-04-30T13:01:49Z</time>
      </trkpt>
      <trkpt lat="46.15507" lon="6.49603">
        <ele>831</ele>
        <time>2011-04-30T13:01:51Z</time>
      </trkpt>
      <trkpt lat="46.15495" lon="6.49612">
        <ele>831</ele>
        <time>2011-04-30T13:01:53Z</time>
      </trkpt>
      <trkpt lat="46.15481" lon="6.49624">
        <ele>826</ele>
        <time>2011-04-30T13:01:55Z</time>
      </trkpt>
      <trkpt lat="46.15469" lon="6.4964">
        <ele>826</ele>
        <time>2011-04-30T13:01:57Z</time>
      </trkpt>
      <trkpt lat="46.15457" lon="6.49656">
        <ele>826</ele>
        <time>2011-04-30T13:01:59Z</time>
      </trkpt>
      <trkpt lat="46.15446" lon="6.49668">
        <ele>826</ele>
        <time>2011-04-30T13:02:01Z</time>
      </trkpt>
      <trkpt lat="46.15436" lon="6.49674">
        <ele>826</ele>
        <time>2011-04-30T13:02:04Z</time>
      </trkpt>
      <trkpt lat="46.15446" lon="6.49671">
        <ele>826</ele>
        <time>2011-04-30T13:02:14Z</time>
      </trkpt>
      <trkpt lat="46.15457" lon="6.49659">
        <ele>826</ele>
        <time>2011-04-30T13:02:16Z</time>
      </trkpt>
      <trkpt lat="46.15469" lon="6.49645">
        <ele>826</ele>
        <time>2011-04-30T13:02:18Z</time>
      </trkpt>
      <trkpt lat="46.15482" lon="6.49628">
        <ele>826</ele>
        <time>2011-04-30T13:02:20Z</time>
      </trkpt>
      <trkpt lat="46.15496" lon="6.49612">
        <ele>826</ele>
        <time>2011-04-30T13:02:22Z</time>
      </trkpt>
      <trkpt lat="46.15504" lon="6.49606">
        <ele>826</ele>
        <time>2011-04-30T13:02:23Z</time>
      </trkpt>
      <trkpt lat="46.15513" lon="6.496">
        <ele>826</ele>
        <time>2011-04-30T13:02:24Z</time>
      </trkpt>
      <trkpt lat="46.15522" lon="6.49595">
        <ele>826</ele>
        <time>2011-04-30T13:02:25Z</time>
      </trkpt>
      <trkpt lat="46.15531" lon="6.49591">
        <ele>826</ele>
        <time>2011-04-30T13:02:26Z</time>
      </trkpt>
      <trkpt lat="46.15542" lon="6.49586">
        <ele>826</ele>
        <time>2011-04-30T13:02:27Z</time>
      </trkpt>
      <trkpt lat="46.15553" lon="6.49581">
        <ele>832</ele>
        <time>2011-04-30T13:02:28Z</time>
      </trkpt>
      <trkpt lat="46.15563" lon="6.49575">
        <ele>832</ele>
        <time>2011-04-30T13:02:29Z</time>
      </trkpt>
      <trkpt lat="46.15574" lon="6.49569">
        <ele>832</ele>
        <time>2011-04-30T13:02:30Z</time>
      </trkpt>
      <trkpt lat="46.15583" lon="6.49564">
        <ele>832</ele>
        <time>2011-04-30T13:02:31Z</time>
      </trkpt>
      <trkpt lat="46.15591" lon="6.4956">
        <ele>832</ele>
        <time>2011-04-30T13:02:32Z</time>
      </trkpt>
      <trkpt lat="46.15604" lon="6.49553">
        <ele>838</ele>
        <time>2011-04-30T13:02:34Z</time>
      </trkpt>
      <trkpt lat="46.15612" lon="6.49548">
        <ele>838</ele>
        <time>2011-04-30T13:02:37Z</time>
      </trkpt>
      <trkpt lat="46.1562" lon="6.49557">
        <ele>838</ele>
        <time>2011-04-30T13:04:02Z</time>
      </trkpt>
      <trkpt lat="46.15614" lon="6.49547">
        <ele>862</ele>
        <time>2011-04-30T13:05:11Z</time>
      </trkpt>
      <trkpt lat="46.15616" lon="6.4956">
        <ele>845</ele>
        <time>2011-04-30T13:05:32Z</time>
      </trkpt>
      <trkpt lat="46.15609" lon="6.49569">
        <ele>845</ele>
        <time>2011-04-30T13:06:03Z</time>
      </trkpt>
      <trkpt lat="46.15601" lon="6.49575">
        <ele>845</ele>
        <time>2011-04-30T13:06:05Z</time>
      </trkpt>
      <trkpt lat="46.1559" lon="6.49585">
        <ele>845</ele>
        <time>2011-04-30T13:06:07Z</time>
      </trkpt>
      <trkpt lat="46.15577" lon="6.49594">
        <ele>840</ele>
        <time>2011-04-30T13:06:09Z</time>
      </trkpt>
      <trkpt lat="46.15561" lon="6.49601">
        <ele>840</ele>
        <time>2011-04-30T13:06:11Z</time>
      </trkpt>
      <trkpt lat="46.15543" lon="6.49606">
        <ele>833</ele>
        <time>2011-04-30T13:06:13Z</time>
      </trkpt>
      <trkpt lat="46.15527" lon="6.49611">
        <ele>833</ele>
        <time>2011-04-30T13:06:15Z</time>
      </trkpt>
      <trkpt lat="46.15511" lon="6.49617">
        <ele>827</ele>
        <time>2011-04-30T13:06:17Z</time>
      </trkpt>
      <trkpt lat="46.15496" lon="6.49624">
        <ele>827</ele>
        <time>2011-04-30T13:06:19Z</time>
      </trkpt>
      <trkpt lat="46.15482" lon="6.49632">
        <ele>827</ele>
        <time>2011-04-30T13:06:21Z</time>
      </trkpt>
      <trkpt lat="46.1547" lon="6.49645">
        <ele>821</ele>
        <time>2011-04-30T13:06:23Z</time>
      </trkpt>
      <trkpt lat="46.15459" lon="6.4966">
        <ele>821</ele>
        <time>2011-04-30T13:06:25Z</time>
      </trkpt>
      <trkpt lat="46.15449" lon="6.49672">
        <ele>821</ele>
        <time>2011-04-30T13:06:27Z</time>
      </trkpt>
      <trkpt lat="46.15439" lon="6.49681">
        <ele>821</ele>
        <time>2011-04-30T13:06:30Z</time>
      </trkpt>
      <trkpt lat="46.1543" lon="6.49677">
        <ele>853</ele>
        <time>2011-04-30T13:07:57Z</time>
      </trkpt>
      <trkpt lat="46.15421" lon="6.49681">
        <ele>853</ele>
        <time>2011-04-30T13:08:17Z</time>
      </trkpt>
      <trkpt lat="46.15412" lon="6.4969">
        <ele>845</ele>
        <time>2011-04-30T13:08:21Z</time>
      </trkpt>
      <trkpt lat="46.15404" lon="6.49698">
        <ele>845</ele>
        <time>2011-04-30T13:08:26Z</time>
      </trkpt>
      <trkpt lat="46.15392" lon="6.49707">
        <ele>845</ele>
        <time>2011-04-30T13:08:29Z</time>
      </trkpt>
      <trkpt lat="46.15383" lon="6.49713">
        <ele>840</ele>
        <time>2011-04-30T13:08:31Z</time>
      </trkpt>
      <trkpt lat="46.15373" lon="6.49717">
        <ele>840</ele>
        <time>2011-04-30T13:08:33Z</time>
      </trkpt>
      <trkpt lat="46.15363" lon="6.4972">
        <ele>840</ele>
        <time>2011-04-30T13:08:35Z</time>
      </trkpt>
      <trkpt lat="46.15353" lon="6.49726">
        <ele>840</ele>
        <time>2011-04-30T13:08:37Z</time>
      </trkpt>
      <trkpt lat="46.15342" lon="6.49733">
        <ele>840</ele>
        <time>2011-04-30T13:08:39Z</time>
      </trkpt>
      <trkpt lat="46.15333" lon="6.49737">
        <ele>834</ele>
        <time>2011-04-30T13:08:41Z</time>
      </trkpt>
      <trkpt lat="46.15322" lon="6.49743">
        <ele>834</ele>
        <time>2011-04-30T13:08:44Z</time>
      </trkpt>
      <trkpt lat="46.15312" lon="6.49747">
        <ele>834</ele>
        <time>2011-04-30T13:08:48Z</time>
      </trkpt>
      <trkpt lat="46.153" lon="6.49752">
        <ele>834</ele>
        <time>2011-04-30T13:08:51Z</time>
      </trkpt>
      <trkpt lat="46.15289" lon="6.49758">
        <ele>834</ele>
        <time>2011-04-30T13:08:53Z</time>
      </trkpt>
      <trkpt lat="46.15275" lon="6.49766">
        <ele>828</ele>
        <time>2011-04-30T13:08:55Z</time>
      </trkpt>
      <trkpt lat="46.15262" lon="6.49772">
        <ele>828</ele>
        <time>2011-04-30T13:08:57Z</time>
      </trkpt>
      <trkpt lat="46.15249" lon="6.49776">
        <ele>828</ele>
        <time>2011-04-30T13:08:59Z</time>
      </trkpt>
      <trkpt lat="46.1524" lon="6.49781">
        <ele>828</ele>
        <time>2011-04-30T13:09:01Z</time>
      </trkpt>
      <trkpt lat="46.1523" lon="6.49785">
        <ele>835</ele>
        <time>2011-04-30T13:10:17Z</time>
      </trkpt>
      <trkpt lat="46.15224" lon="6.49796">
        <ele>835</ele>
        <time>2011-04-30T13:10:22Z</time>
      </trkpt>
      <trkpt lat="46.15214" lon="6.49794">
        <ele>835</ele>
        <time>2011-04-30T13:10:32Z</time>
      </trkpt>
      <trkpt lat="46.15205" lon="6.49794">
        <ele>842</ele>
        <time>2011-04-30T13:10:41Z</time>
      </trkpt>
      <trkpt lat="46.15197" lon="6.49801">
        <ele>842</ele>
        <time>2011-04-30T13:10:52Z</time>
      </trkpt>
      <trkpt lat="46.15187" lon="6.49804">
        <ele>842</ele>
        <time>2011-04-30T13:10:56Z</time>
      </trkpt>
      <trkpt lat="46.15177" lon="6.49805">
        <ele>842</ele>
        <time>2011-04-30T13:10:59Z</time>
      </trkpt>
      <trkpt lat="46.15168" lon="6.4981">
        <ele>842</ele>
        <time>2011-04-30T13:11:02Z</time>
      </trkpt>
      <trkpt lat="46.15159" lon="6.49813">
        <ele>842</ele>
        <time>2011-04-30T13:11:05Z</time>
      </trkpt>
      <trkpt lat="46.15149" lon="6.49819">
        <ele>842</ele>
        <time>2011-04-30T13:11:08Z</time>
      </trkpt>
      <trkpt lat="46.15139" lon="6.49822">
        <ele>842</ele>
        <time>2011-04-30T13:11:11Z</time>
      </trkpt>
      <trkpt lat="46.15127" lon="6.49824">
        <ele>836</ele>
        <time>2011-04-30T13:11:14Z</time>
      </trkpt>
      <trkpt lat="46.15117" lon="6.49828">
        <ele>836</ele>
        <time>2011-04-30T13:11:17Z</time>
      </trkpt>
      <trkpt lat="46.15107" lon="6.49833">
        <ele>836</ele>
        <time>2011-04-30T13:11:20Z</time>
      </trkpt>
      <trkpt lat="46.15099" lon="6.49827">
        <ele>846</ele>
        <time>2011-04-30T13:12:19Z</time>
      </trkpt>
      <trkpt lat="46.15091" lon="6.49831">
        <ele>831</ele>
        <time>2011-04-30T13:14:48Z</time>
      </trkpt>
      <trkpt lat="46.15082" lon="6.49838">
        <ele>841</ele>
        <time>2011-04-30T13:15:12Z</time>
      </trkpt>
      <trkpt lat="46.15072" lon="6.4984">
        <ele>841</ele>
        <time>2011-04-30T13:15:17Z</time>
      </trkpt>
      <trkpt lat="46.15063" lon="6.49838">
        <ele>841</ele>
        <time>2011-04-30T13:15:25Z</time>
      </trkpt>
      <trkpt lat="46.15053" lon="6.49845">
        <ele>841</ele>
        <time>2011-04-30T13:15:51Z</time>
      </trkpt>
      <trkpt lat="46.15046" lon="6.49854">
        <ele>846</ele>
        <time>2011-04-30T13:16:04Z</time>
      </trkpt>
      <trkpt lat="46.15036" lon="6.49853">
        <ele>846</ele>
        <time>2011-04-30T13:16:32Z</time>
      </trkpt>
      <trkpt lat="46.15025" lon="6.49857">
        <ele>846</ele>
        <time>2011-04-30T13:16:35Z</time>
      </trkpt>
      <trkpt lat="46.15016" lon="6.49861">
        <ele>846</ele>
        <time>2011-04-30T13:16:37Z</time>
      </trkpt>
      <trkpt lat="46.15005" lon="6.49862">
        <ele>840</ele>
        <time>2011-04-30T13:16:40Z</time>
      </trkpt>
      <trkpt lat="46.14996" lon="6.49864">
        <ele>840</ele>
        <time>2011-04-30T13:16:43Z</time>
      </trkpt>
      <trkpt lat="46.14986" lon="6.49866">
        <ele>833</ele>
        <time>2011-04-30T13:16:47Z</time>
      </trkpt>
      <trkpt lat="46.14976" lon="6.49868">
        <ele>833</ele>
        <time>2011-04-30T13:16:50Z</time>
      </trkpt>
      <trkpt lat="46.14966" lon="6.49869">
        <ele>827</ele>
        <time>2011-04-30T13:16:53Z</time>
      </trkpt>
      <trkpt lat="46.14955" lon="6.4987">
        <ele>827</ele>
        <time>2011-04-30T13:16:57Z</time>
      </trkpt>
      <trkpt lat="46.14944" lon="6.49867">
        <ele>821</ele>
        <time>2011-04-30T13:17:00Z</time>
      </trkpt>
      <trkpt lat="46.14933" lon="6.49869">
        <ele>821</ele>
        <time>2011-04-30T13:17:03Z</time>
      </trkpt>
      <trkpt lat="46.14925" lon="6.4988">
        <ele>811</ele>
        <time>2011-04-30T13:17:07Z</time>
      </trkpt>
      <trkpt lat="46.14915" lon="6.49888">
        <ele>811</ele>
        <time>2011-04-30T13:17:11Z</time>
      </trkpt>
      <trkpt lat="46.14907" lon="6.49894">
        <ele>811</ele>
        <time>2011-04-30T13:17:14Z</time>
      </trkpt>
      <trkpt lat="46.14896" lon="6.49901">
        <ele>811</ele>
        <time>2011-04-30T13:17:17Z</time>
      </trkpt>
      <trkpt lat="46.14884" lon="6.49905">
        <ele>806</ele>
        <time>2011-04-30T13:17:20Z</time>
      </trkpt>
      <trkpt lat="46.14871" lon="6.49909">
        <ele>806</ele>
        <time>2011-04-30T13:17:23Z</time>
      </trkpt>
      <trkpt lat="46.14861" lon="6.49911">
        <ele>801</ele>
        <time>2011-04-30T13:17:27Z</time>
      </trkpt>
      <trkpt lat="46.14853" lon="6.49918">
        <ele>801</ele>
        <time>2011-04-30T13:17:30Z</time>
      </trkpt>
      <trkpt lat="46.14844" lon="6.49929">
        <ele>801</ele>
        <time>2011-04-30T13:17:33Z</time>
      </trkpt>
      <trkpt lat="46.14837" lon="6.49941">
        <ele>801</ele>
        <time>2011-04-30T13:17:37Z</time>
      </trkpt>
      <trkpt lat="46.14831" lon="6.49953">
        <ele>808</ele>
        <time>2011-04-30T13:17:41Z</time>
      </trkpt>
      <trkpt lat="46.14821" lon="6.4996">
        <ele>808</ele>
        <time>2011-04-30T13:17:45Z</time>
      </trkpt>
      <trkpt lat="46.14814" lon="6.49972">
        <ele>815</ele>
        <time>2011-04-30T13:17:48Z</time>
      </trkpt>
      <trkpt lat="46.14807" lon="6.49984">
        <ele>815</ele>
        <time>2011-04-30T13:17:50Z</time>
      </trkpt>
      <trkpt lat="46.148" lon="6.49996">
        <ele>815</ele>
        <time>2011-04-30T13:17:52Z</time>
      </trkpt>
      <trkpt lat="46.14794" lon="6.50008">
        <ele>815</ele>
        <time>2011-04-30T13:17:54Z</time>
      </trkpt>
      <trkpt lat="46.14785" lon="6.50025">
        <ele>815</ele>
        <time>2011-04-30T13:17:57Z</time>
      </trkpt>
      <trkpt lat="46.14779" lon="6.50035">
        <ele>821</ele>
        <time>2011-04-30T13:17:58Z</time>
      </trkpt>
      <trkpt lat="46.14773" lon="6.50046">
        <ele>821</ele>
        <time>2011-04-30T13:17:59Z</time>
      </trkpt>
      <trkpt lat="46.14764" lon="6.50068">
        <ele>821</ele>
        <time>2011-04-30T13:18:01Z</time>
      </trkpt>
      <trkpt lat="46.14758" lon="6.50083">
        <ele>821</ele>
        <time>2011-04-30T13:18:03Z</time>
      </trkpt>
      <trkpt lat="46.14754" lon="6.50096">
        <ele>821</ele>
        <time>2011-04-30T13:18:05Z</time>
      </trkpt>
      <trkpt lat="46.14753" lon="6.50114">
        <ele>821</ele>
        <time>2011-04-30T13:18:08Z</time>
      </trkpt>
      <trkpt lat="46.14753" lon="6.50131">
        <ele>821</ele>
        <time>2011-04-30T13:18:10Z</time>
      </trkpt>
      <trkpt lat="46.14755" lon="6.50147">
        <ele>827</ele>
        <time>2011-04-30T13:18:12Z</time>
      </trkpt>
      <trkpt lat="46.14757" lon="6.50165">
        <ele>827</ele>
        <time>2011-04-30T13:18:14Z</time>
      </trkpt>
      <trkpt lat="46.14757" lon="6.50181">
        <ele>833</ele>
        <time>2011-04-30T13:18:16Z</time>
      </trkpt>
      <trkpt lat="46.14754" lon="6.50198">
        <ele>833</ele>
        <time>2011-04-30T13:18:18Z</time>
      </trkpt>
      <trkpt lat="46.1475" lon="6.50214">
        <ele>833</ele>
        <time>2011-04-30T13:18:20Z</time>
      </trkpt>
      <trkpt lat="46.14742" lon="6.50233">
        <ele>833</ele>
        <time>2011-04-30T13:18:22Z</time>
      </trkpt>
      <trkpt lat="46.14737" lon="6.50253">
        <ele>839</ele>
        <time>2011-04-30T13:18:24Z</time>
      </trkpt>
      <trkpt lat="46.1473" lon="6.50272">
        <ele>839</ele>
        <time>2011-04-30T13:18:26Z</time>
      </trkpt>
      <trkpt lat="46.14723" lon="6.50284">
        <ele>839</ele>
        <time>2011-04-30T13:18:28Z</time>
      </trkpt>
      <trkpt lat="46.14717" lon="6.50295">
        <ele>839</ele>
        <time>2011-04-30T13:18:30Z</time>
      </trkpt>
      <trkpt lat="46.14713" lon="6.50308">
        <ele>839</ele>
        <time>2011-04-30T13:18:32Z</time>
      </trkpt>
      <trkpt lat="46.1471" lon="6.50322">
        <ele>839</ele>
        <time>2011-04-30T13:18:34Z</time>
      </trkpt>
      <trkpt lat="46.14708" lon="6.50336">
        <ele>839</ele>
        <time>2011-04-30T13:18:36Z</time>
      </trkpt>
      <trkpt lat="46.14705" lon="6.50356">
        <ele>839</ele>
        <time>2011-04-30T13:18:39Z</time>
      </trkpt>
      <trkpt lat="46.14698" lon="6.50369">
        <ele>839</ele>
        <time>2011-04-30T13:18:41Z</time>
      </trkpt>
      <trkpt lat="46.14693" lon="6.50379">
        <ele>839</ele>
        <time>2011-04-30T13:18:45Z</time>
      </trkpt>
      <trkpt lat="46.14685" lon="6.50386">
        <ele>839</ele>
        <time>2011-04-30T13:19:31Z</time>
      </trkpt>
      <trkpt lat="46.14677" lon="6.50396">
        <ele>839</ele>
        <time>2011-04-30T13:19:39Z</time>
      </trkpt>
      <trkpt lat="46.1467" lon="6.50405">
        <ele>839</ele>
        <time>2011-04-30T13:19:42Z</time>
      </trkpt>
      <trkpt lat="46.1466" lon="6.50415">
        <ele>839</ele>
        <time>2011-04-30T13:19:45Z</time>
      </trkpt>
      <trkpt lat="46.14652" lon="6.50424">
        <ele>839</ele>
        <time>2011-04-30T13:19:47Z</time>
      </trkpt>
      <trkpt lat="46.14644" lon="6.50431">
        <ele>831</ele>
        <time>2011-04-30T13:19:50Z</time>
      </trkpt>
      <trkpt lat="46.14636" lon="6.50438">
        <ele>831</ele>
        <time>2011-04-30T13:20:00Z</time>
      </trkpt>
      <trkpt lat="46.14632" lon="6.50452">
        <ele>831</ele>
        <time>2011-04-30T13:20:10Z</time>
      </trkpt>
      <trkpt lat="46.14637" lon="6.50469">
        <ele>826</ele>
        <time>2011-04-30T13:20:13Z</time>
      </trkpt>
      <trkpt lat="46.14638" lon="6.50484">
        <ele>826</ele>
        <time>2011-04-30T13:20:15Z</time>
      </trkpt>
      <trkpt lat="46.1464" lon="6.50499">
        <ele>826</ele>
        <time>2011-04-30T13:20:17Z</time>
      </trkpt>
      <trkpt lat="46.14642" lon="6.50514">
        <ele>826</ele>
        <time>2011-04-30T13:20:19Z</time>
      </trkpt>
      <trkpt lat="46.14645" lon="6.50529">
        <ele>826</ele>
        <time>2011-04-30T13:20:21Z</time>
      </trkpt>
      <trkpt lat="46.14649" lon="6.50543">
        <ele>826</ele>
        <time>2011-04-30T13:20:23Z</time>
      </trkpt>
      <trkpt lat="46.14654" lon="6.50557">
        <ele>826</ele>
        <time>2011-04-30T13:20:25Z</time>
      </trkpt>
      <trkpt lat="46.14657" lon="6.50571">
        <ele>826</ele>
        <time>2011-04-30T13:20:27Z</time>
      </trkpt>
      <trkpt lat="46.14661" lon="6.50587">
        <ele>826</ele>
        <time>2011-04-30T13:20:30Z</time>
      </trkpt>
      <trkpt lat="46.14667" lon="6.50598">
        <ele>826</ele>
        <time>2011-04-30T13:20:40Z</time>
      </trkpt>
      <trkpt lat="46.14669" lon="6.50612">
        <ele>826</ele>
        <time>2011-04-30T13:20:43Z</time>
      </trkpt>
      <trkpt lat="46.14665" lon="6.50628">
        <ele>826</ele>
        <time>2011-04-30T13:20:46Z</time>
      </trkpt>
      <trkpt lat="46.14669" lon="6.50642">
        <ele>826</ele>
        <time>2011-04-30T13:21:50Z</time>
      </trkpt>
      <trkpt lat="46.14679" lon="6.50651">
        <ele>826</ele>
        <time>2011-04-30T13:21:53Z</time>
      </trkpt>
      <trkpt lat="46.14688" lon="6.50661">
        <ele>826</ele>
        <time>2011-04-30T13:21:57Z</time>
      </trkpt>
      <trkpt lat="46.14693" lon="6.50677">
        <ele>826</ele>
        <time>2011-04-30T13:22:01Z</time>
      </trkpt>
      <trkpt lat="46.14684" lon="6.50694">
        <ele>826</ele>
        <time>2011-04-30T13:22:16Z</time>
      </trkpt>
      <trkpt lat="46.14673" lon="6.50706">
        <ele>826</ele>
        <time>2011-04-30T13:22:18Z</time>
      </trkpt>
      <trkpt lat="46.14662" lon="6.50723">
        <ele>826</ele>
        <time>2011-04-30T13:22:20Z</time>
      </trkpt>
      <trkpt lat="46.14652" lon="6.50736">
        <ele>826</ele>
        <time>2011-04-30T13:22:22Z</time>
      </trkpt>
      <trkpt lat="46.14644" lon="6.5075">
        <ele>826</ele>
        <time>2011-04-30T13:22:24Z</time>
      </trkpt>
      <trkpt lat="46.14639" lon="6.50765">
        <ele>826</ele>
        <time>2011-04-30T13:22:26Z</time>
      </trkpt>
      <trkpt lat="46.14636" lon="6.5078">
        <ele>826</ele>
        <time>2011-04-30T13:22:28Z</time>
      </trkpt>
      <trkpt lat="46.14635" lon="6.50798">
        <ele>826</ele>
        <time>2011-04-30T13:22:31Z</time>
      </trkpt>
      <trkpt lat="46.14636" lon="6.50814">
        <ele>826</ele>
        <time>2011-04-30T13:22:33Z</time>
      </trkpt>
      <trkpt lat="46.14638" lon="6.50831">
        <ele>826</ele>
        <time>2011-04-30T13:22:35Z</time>
      </trkpt>
      <trkpt lat="46.1464" lon="6.50852">
        <ele>826</ele>
        <time>2011-04-30T13:22:37Z</time>
      </trkpt>
      <trkpt lat="46.14641" lon="6.50872">
        <ele>826</ele>
        <time>2011-04-30T13:22:39Z</time>
      </trkpt>
      <trkpt lat="46.14642" lon="6.50891">
        <ele>826</ele>
        <time>2011-04-30T13:22:41Z</time>
      </trkpt>
      <trkpt lat="46.14644" lon="6.50906">
        <ele>826</ele>
        <time>2011-04-30T13:22:43Z</time>
      </trkpt>
      <trkpt lat="46.14642" lon="6.50923">
        <ele>826</ele>
        <time>2011-04-30T13:22:46Z</time>
      </trkpt>
      <trkpt lat="46.14634" lon="6.50937">
        <ele>820</ele>
        <time>2011-04-30T13:22:50Z</time>
      </trkpt>
      <trkpt lat="46.14642" lon="6.50926">
        <ele>820</ele>
        <time>2011-04-30T13:24:31Z</time>
      </trkpt>
      <trkpt lat="46.14653" lon="6.50922">
        <ele>826</ele>
        <time>2011-04-30T13:24:33Z</time>
      </trkpt>
      <trkpt lat="46.14666" lon="6.50921">
        <ele>826</ele>
        <time>2011-04-30T13:24:35Z</time>
      </trkpt>
      <trkpt lat="46.14679" lon="6.50921">
        <ele>826</ele>
        <time>2011-04-30T13:24:37Z</time>
      </trkpt>
      <trkpt lat="46.14691" lon="6.50922">
        <ele>826</ele>
        <time>2011-04-30T13:24:39Z</time>
      </trkpt>
      <trkpt lat="46.147" lon="6.50919">
        <ele>833</ele>
        <time>2011-04-30T13:24:41Z</time>
      </trkpt>
      <trkpt lat="46.1471" lon="6.50914">
        <ele>833</ele>
        <time>2011-04-30T13:24:45Z</time>
      </trkpt>
      <trkpt lat="46.147" lon="6.50919">
        <ele>839</ele>
        <time>2011-04-30T13:25:03Z</time>
      </trkpt>
      <trkpt lat="46.14691" lon="6.50923">
        <ele>839</ele>
        <time>2011-04-30T13:25:06Z</time>
      </trkpt>
      <trkpt lat="46.14682" lon="6.5092">
        <ele>833</ele>
        <time>2011-04-30T13:25:09Z</time>
      </trkpt>
      <trkpt lat="46.14672" lon="6.50921">
        <ele>833</ele>
        <time>2011-04-30T13:25:12Z</time>
      </trkpt>
      <trkpt lat="46.14662" lon="6.50922">
        <ele>827</ele>
        <time>2011-04-30T13:25:15Z</time>
      </trkpt>
      <trkpt lat="46.14649" lon="6.50924">
        <ele>827</ele>
        <time>2011-04-30T13:25:18Z</time>
      </trkpt>
      <trkpt lat="46.1464" lon="6.50928">
        <ele>827</ele>
        <time>2011-04-30T13:25:20Z</time>
      </trkpt>
      <trkpt lat="46.14632" lon="6.5094">
        <ele>822</ele>
        <time>2011-04-30T13:25:23Z</time>
      </trkpt>
      <trkpt lat="46.14629" lon="6.50955">
        <ele>822</ele>
        <time>2011-04-30T13:25:27Z</time>
      </trkpt>
      <trkpt lat="46.14632" lon="6.50973">
        <ele>822</ele>
        <time>2011-04-30T13:25:30Z</time>
      </trkpt>
      <trkpt lat="46.14639" lon="6.5099">
        <ele>816</ele>
        <time>2011-04-30T13:25:32Z</time>
      </trkpt>
      <trkpt lat="46.14647" lon="6.51008">
        <ele>816</ele>
        <time>2011-04-30T13:25:34Z</time>
      </trkpt>
      <trkpt lat="46.14654" lon="6.51028">
        <ele>816</ele>
        <time>2011-04-30T13:25:36Z</time>
      </trkpt>
      <trkpt lat="46.1466" lon="6.5105">
        <ele>816</ele>
        <time>2011-04-30T13:25:38Z</time>
      </trkpt>
      <trkpt lat="46.14665" lon="6.51072">
        <ele>816</ele>
        <time>2011-04-30T13:25:40Z</time>
      </trkpt>
      <trkpt lat="46.1467" lon="6.5109">
        <ele>816</ele>
        <time>2011-04-30T13:25:42Z</time>
      </trkpt>
      <trkpt lat="46.14672" lon="6.51105">
        <ele>816</ele>
        <time>2011-04-30T13:25:44Z</time>
      </trkpt>
      <trkpt lat="46.14673" lon="6.5112">
        <ele>816</ele>
        <time>2011-04-30T13:25:46Z</time>
      </trkpt>
      <trkpt lat="46.1467" lon="6.51138">
        <ele>816</ele>
        <time>2011-04-30T13:25:48Z</time>
      </trkpt>
      <trkpt lat="46.14664" lon="6.51155">
        <ele>816</ele>
        <time>2011-04-30T13:25:50Z</time>
      </trkpt>
      <trkpt lat="46.14655" lon="6.51171">
        <ele>816</ele>
        <time>2011-04-30T13:25:52Z</time>
      </trkpt>
      <trkpt lat="46.14648" lon="6.5118">
        <ele>816</ele>
        <time>2011-04-30T13:25:53Z</time>
      </trkpt>
      <trkpt lat="46.14642" lon="6.5119">
        <ele>816</ele>
        <time>2011-04-30T13:25:54Z</time>
      </trkpt>
      <trkpt lat="46.1463" lon="6.51207">
        <ele>816</ele>
        <time>2011-04-30T13:25:56Z</time>
      </trkpt>
      <trkpt lat="46.14622" lon="6.51222">
        <ele>816</ele>
        <time>2011-04-30T13:25:58Z</time>
      </trkpt>
      <trkpt lat="46.14614" lon="6.51236">
        <ele>816</ele>
        <time>2011-04-30T13:26:00Z</time>
      </trkpt>
      <trkpt lat="46.14609" lon="6.51248">
        <ele>816</ele>
        <time>2011-04-30T13:26:02Z</time>
      </trkpt>
      <trkpt lat="46.14605" lon="6.51262">
        <ele>816</ele>
        <time>2011-04-30T13:26:14Z</time>
      </trkpt>
      <trkpt lat="46.14617" lon="6.51259">
        <ele>816</ele>
        <time>2011-04-30T13:26:17Z</time>
      </trkpt>
      <trkpt lat="46.1463" lon="6.51252">
        <ele>816</ele>
        <time>2011-04-30T13:26:19Z</time>
      </trkpt>
      <trkpt lat="46.14645" lon="6.51246">
        <ele>816</ele>
        <time>2011-04-30T13:26:21Z</time>
      </trkpt>
      <trkpt lat="46.14662" lon="6.51244">
        <ele>816</ele>
        <time>2011-04-30T13:26:23Z</time>
      </trkpt>
      <trkpt lat="46.14679" lon="6.51253">
        <ele>816</ele>
        <time>2011-04-30T13:26:25Z</time>
      </trkpt>
      <trkpt lat="46.14688" lon="6.5126">
        <ele>816</ele>
        <time>2011-04-30T13:26:26Z</time>
      </trkpt>
      <trkpt lat="46.14696" lon="6.51271">
        <ele>816</ele>
        <time>2011-04-30T13:26:27Z</time>
      </trkpt>
      <trkpt lat="46.14703" lon="6.51285">
        <ele>816</ele>
        <time>2011-04-30T13:26:28Z</time>
      </trkpt>
      <trkpt lat="46.14712" lon="6.51298">
        <ele>816</ele>
        <time>2011-04-30T13:26:29Z</time>
      </trkpt>
      <trkpt lat="46.14719" lon="6.51314">
        <ele>816</ele>
        <time>2011-04-30T13:26:30Z</time>
      </trkpt>
      <trkpt lat="46.14725" lon="6.51333">
        <ele>816</ele>
        <time>2011-04-30T13:26:31Z</time>
      </trkpt>
      <trkpt lat="46.1473" lon="6.51352">
        <ele>822</ele>
        <time>2011-04-30T13:26:32Z</time>
      </trkpt>
      <trkpt lat="46.14735" lon="6.51373">
        <ele>822</ele>
        <time>2011-04-30T13:26:33Z</time>
      </trkpt>
      <trkpt lat="46.14805" lon="6.51567">
        <ele>839</ele>
        <time>2011-04-30T13:28:07Z</time>
      </trkpt>
      <trkpt lat="46.14812" lon="6.51554">
        <ele>839</ele>
        <time>2011-04-30T13:29:00Z</time>
      </trkpt>
      <trkpt lat="46.14816" lon="6.51537">
        <ele>839</ele>
        <time>2011-04-30T13:29:02Z</time>
      </trkpt>
      <trkpt lat="46.14812" lon="6.51517">
        <ele>839</ele>
        <time>2011-04-30T13:29:04Z</time>
      </trkpt>
      <trkpt lat="46.14803" lon="6.51494">
        <ele>839</ele>
        <time>2011-04-30T13:29:06Z</time>
      </trkpt>
      <trkpt lat="46.14798" lon="6.51483">
        <ele>839</ele>
        <time>2011-04-30T13:29:07Z</time>
      </trkpt>
      <trkpt lat="46.14793" lon="6.5147">
        <ele>839</ele>
        <time>2011-04-30T13:29:08Z</time>
      </trkpt>
      <trkpt lat="46.14789" lon="6.51456">
        <ele>845</ele>
        <time>2011-04-30T13:29:09Z</time>
      </trkpt>
      <trkpt lat="46.14786" lon="6.51441">
        <ele>845</ele>
        <time>2011-04-30T13:29:10Z</time>
      </trkpt>
      <trkpt lat="46.14785" lon="6.51428">
        <ele>845</ele>
        <time>2011-04-30T13:29:11Z</time>
      </trkpt>
      <trkpt lat="46.14785" lon="6.51408">
        <ele>845</ele>
        <time>2011-04-30T13:29:13Z</time>
      </trkpt>
      <trkpt lat="46.14796" lon="6.5141">
        <ele>845</ele>
        <time>2011-04-30T13:29:26Z</time>
      </trkpt>
      <trkpt lat="46.14804" lon="6.51424">
        <ele>845</ele>
        <time>2011-04-30T13:29:28Z</time>
      </trkpt>
      <trkpt lat="46.14808" lon="6.51445">
        <ele>845</ele>
        <time>2011-04-30T13:29:30Z</time>
      </trkpt>
      <trkpt lat="46.14816" lon="6.5146">
        <ele>845</ele>
        <time>2011-04-30T13:29:32Z</time>
      </trkpt>
      <trkpt lat="46.14826" lon="6.51471">
        <ele>851</ele>
        <time>2011-04-30T13:29:34Z</time>
      </trkpt>
      <trkpt lat="46.14833" lon="6.51456">
        <ele>851</ele>
        <time>2011-04-30T13:29:38Z</time>
      </trkpt>
      <trkpt lat="46.14836" lon="6.51443">
        <ele>851</ele>
        <time>2011-04-30T13:29:40Z</time>
      </trkpt>
      <trkpt lat="46.14844" lon="6.51432">
        <ele>851</ele>
        <time>2011-04-30T13:29:42Z</time>
      </trkpt>
      <trkpt lat="46.14854" lon="6.5142">
        <ele>858</ele>
        <time>2011-04-30T13:29:44Z</time>
      </trkpt>
      <trkpt lat="46.14866" lon="6.51406">
        <ele>858</ele>
        <time>2011-04-30T13:29:46Z</time>
      </trkpt>
      <trkpt lat="46.14875" lon="6.51393">
        <ele>863</ele>
        <time>2011-04-30T13:29:48Z</time>
      </trkpt>
      <trkpt lat="46.14877" lon="6.51375">
        <ele>863</ele>
        <time>2011-04-30T13:29:50Z</time>
      </trkpt>
      <trkpt lat="46.14879" lon="6.51359">
        <ele>870</ele>
        <time>2011-04-30T13:29:52Z</time>
      </trkpt>
      <trkpt lat="46.14885" lon="6.51347">
        <ele>870</ele>
        <time>2011-04-30T13:29:55Z</time>
      </trkpt>
      <trkpt lat="46.14895" lon="6.51335">
        <ele>880</ele>
        <time>2011-04-30T13:30:16Z</time>
      </trkpt>
      <trkpt lat="46.14903" lon="6.51324">
        <ele>880</ele>
        <time>2011-04-30T13:30:18Z</time>
      </trkpt>
      <trkpt lat="46.14911" lon="6.51316">
        <ele>880</ele>
        <time>2011-04-30T13:30:20Z</time>
      </trkpt>
      <trkpt lat="46.14922" lon="6.51315">
        <ele>880</ele>
        <time>2011-04-30T13:30:22Z</time>
      </trkpt>
      <trkpt lat="46.14938" lon="6.5132">
        <ele>880</ele>
        <time>2011-04-30T13:30:24Z</time>
      </trkpt>
      <trkpt lat="46.14947" lon="6.51324">
        <ele>885</ele>
        <time>2011-04-30T13:30:25Z</time>
      </trkpt>
      <trkpt lat="46.14963" lon="6.5133">
        <ele>885</ele>
        <time>2011-04-30T13:30:27Z</time>
      </trkpt>
      <trkpt lat="46.14974" lon="6.51334">
        <ele>885</ele>
        <time>2011-04-30T13:30:29Z</time>
      </trkpt>
      <trkpt lat="46.1498" lon="6.51344">
        <ele>909</ele>
        <time>2011-04-30T13:39:10Z</time>
      </trkpt>
      <trkpt lat="46.15372" lon="6.52261">
        <ele>962</ele>
        <time>2011-04-30T14:17:31Z</time>
      </trkpt>
      <trkpt lat="46.15376" lon="6.52274">
        <ele>962</ele>
        <time>2011-04-30T14:18:53Z</time>
      </trkpt>
      <trkpt lat="46.1538" lon="6.52294">
        <ele>962</ele>
        <time>2011-04-30T14:18:56Z</time>
      </trkpt>
      <trkpt lat="46.15378" lon="6.52316">
        <ele>962</ele>
        <time>2011-04-30T14:18:58Z</time>
      </trkpt>
      <trkpt lat="46.15375" lon="6.5233">
        <ele>962</ele>
        <time>2011-04-30T14:18:59Z</time>
      </trkpt>
      <trkpt lat="46.15372" lon="6.52343">
        <ele>962</ele>
        <time>2011-04-30T14:19:00Z</time>
      </trkpt>
      <trkpt lat="46.15368" lon="6.52357">
        <ele>962</ele>
        <time>2011-04-30T14:19:01Z</time>
      </trkpt>
      <trkpt lat="46.15364" lon="6.52369">
        <ele>962</ele>
        <time>2011-04-30T14:19:02Z</time>
      </trkpt>
      <trkpt lat="46.1536" lon="6.52389">
        <ele>967</ele>
        <time>2011-04-30T14:19:04Z</time>
      </trkpt>
      <trkpt lat="46.1536" lon="6.52402">
        <ele>967</ele>
        <time>2011-04-30T14:19:06Z</time>
      </trkpt>
      <trkpt lat="46.15367" lon="6.5242">
        <ele>967</ele>
        <time>2011-04-30T14:19:09Z</time>
      </trkpt>
      <trkpt lat="46.15372" lon="6.52438">
        <ele>973</ele>
        <time>2011-04-30T14:19:11Z</time>
      </trkpt>
      <trkpt lat="46.15378" lon="6.52461">
        <ele>973</ele>
        <time>2011-04-30T14:19:13Z</time>
      </trkpt>
      <trkpt lat="46.15384" lon="6.52483">
        <ele>979</ele>
        <time>2011-04-30T14:19:15Z</time>
      </trkpt>
      <trkpt lat="46.15388" lon="6.52499">
        <ele>979</ele>
        <time>2011-04-30T14:19:17Z</time>
      </trkpt>
      <trkpt lat="46.15392" lon="6.52519">
        <ele>985</ele>
        <time>2011-04-30T14:19:19Z</time>
      </trkpt>
      <trkpt lat="46.15399" lon="6.52536">
        <ele>985</ele>
        <time>2011-04-30T14:19:21Z</time>
      </trkpt>
      <trkpt lat="46.15405" lon="6.52549">
        <ele>992</ele>
        <time>2011-04-30T14:19:23Z</time>
      </trkpt>
      <trkpt lat="46.15411" lon="6.5256">
        <ele>992</ele>
        <time>2011-04-30T14:19:25Z</time>
      </trkpt>
      <trkpt lat="46.15415" lon="6.52573">
        <ele>1000</ele>
        <time>2011-04-30T14:19:27Z</time>
      </trkpt>
      <trkpt lat="46.15418" lon="6.52587">
        <ele>1000</ele>
        <time>2011-04-30T14:19:29Z</time>
      </trkpt>
      <trkpt lat="46.15421" lon="6.52605">
        <ele>1010</ele>
        <time>2011-04-30T14:19:32Z</time>
      </trkpt>
      <trkpt lat="46.15425" lon="6.5262">
        <ele>1010</ele>
        <time>2011-04-30T14:19:34Z</time>
      </trkpt>
      <trkpt lat="46.15429" lon="6.52638">
        <ele>1010</ele>
        <time>2011-04-30T14:19:36Z</time>
      </trkpt>
      <trkpt lat="46.15435" lon="6.52658">
        <ele>1015</ele>
        <time>2011-04-30T14:19:38Z</time>
      </trkpt>
      <trkpt lat="46.1544" lon="6.52684">
        <ele>1015</ele>
        <time>2011-04-30T14:19:40Z</time>
      </trkpt>
      <trkpt lat="46.15443" lon="6.5271">
        <ele>1015</ele>
        <time>2011-04-30T14:19:42Z</time>
      </trkpt>
      <trkpt lat="46.15445" lon="6.52723">
        <ele>1020</ele>
        <time>2011-04-30T14:19:43Z</time>
      </trkpt>
      <trkpt lat="46.15448" lon="6.52737">
        <ele>1020</ele>
        <time>2011-04-30T14:19:44Z</time>
      </trkpt>
      <trkpt lat="46.15451" lon="6.52752">
        <ele>1020</ele>
        <time>2011-04-30T14:19:45Z</time>
      </trkpt>
      <trkpt lat="46.15456" lon="6.52771">
        <ele>1020</ele>
        <time>2011-04-30T14:19:47Z</time>
      </trkpt>
      <trkpt lat="46.15462" lon="6.52788">
        <ele>1028</ele>
        <time>2011-04-30T14:19:49Z</time>
      </trkpt>
      <trkpt lat="46.15469" lon="6.52802">
        <ele>1028</ele>
        <time>2011-04-30T14:19:51Z</time>
      </trkpt>
      <trkpt lat="46.15477" lon="6.52815">
        <ele>1028</ele>
        <time>2011-04-30T14:19:53Z</time>
      </trkpt>
      <trkpt lat="46.15488" lon="6.52832">
        <ele>1037</ele>
        <time>2011-04-30T14:19:55Z</time>
      </trkpt>
      <trkpt lat="46.15498" lon="6.52846">
        <ele>1037</ele>
        <time>2011-04-30T14:19:57Z</time>
      </trkpt>
      <trkpt lat="46.15508" lon="6.52861">
        <ele>1037</ele>
        <time>2011-04-30T14:19:59Z</time>
      </trkpt>
      <trkpt lat="46.15514" lon="6.5287">
        <ele>1044</ele>
        <time>2011-04-30T14:20:02Z</time>
      </trkpt>
      <trkpt lat="46.15521" lon="6.52886">
        <ele>1044</ele>
        <time>2011-04-30T14:21:08Z</time>
      </trkpt>
      <trkpt lat="46.15527" lon="6.52896">
        <ele>1044</ele>
        <time>2011-04-30T14:21:10Z</time>
      </trkpt>
      <trkpt lat="46.15534" lon="6.52906">
        <ele>1044</ele>
        <time>2011-04-30T14:21:12Z</time>
      </trkpt>
      <trkpt lat="46.15546" lon="6.52905">
        <ele>1044</ele>
        <time>2011-04-30T14:21:15Z</time>
      </trkpt>
      <trkpt lat="46.15555" lon="6.52896">
        <ele>1050</ele>
        <time>2011-04-30T14:21:17Z</time>
      </trkpt>
      <trkpt lat="46.15563" lon="6.52889">
        <ele>1050</ele>
        <time>2011-04-30T14:21:19Z</time>
      </trkpt>
      <trkpt lat="46.15566" lon="6.52872">
        <ele>1050</ele>
        <time>2011-04-30T14:21:22Z</time>
      </trkpt>
      <trkpt lat="46.15569" lon="6.52854">
        <ele>1050</ele>
        <time>2011-04-30T14:21:24Z</time>
      </trkpt>
      <trkpt lat="46.15576" lon="6.52842">
        <ele>1050</ele>
        <time>2011-04-30T14:21:25Z</time>
      </trkpt>
      <trkpt lat="46.15582" lon="6.52829">
        <ele>1055</ele>
        <time>2011-04-30T14:21:26Z</time>
      </trkpt>
      <trkpt lat="46.1559" lon="6.52817">
        <ele>1055</ele>
        <time>2011-04-30T14:21:27Z</time>
      </trkpt>
      <trkpt lat="46.15599" lon="6.52807">
        <ele>1055</ele>
        <time>2011-04-30T14:21:28Z</time>
      </trkpt>
      <trkpt lat="46.15607" lon="6.52797">
        <ele>1055</ele>
        <time>2011-04-30T14:21:29Z</time>
      </trkpt>
      <trkpt lat="46.15619" lon="6.52783">
        <ele>1063</ele>
        <time>2011-04-30T14:21:31Z</time>
      </trkpt>
      <trkpt lat="46.15624" lon="6.52765">
        <ele>1063</ele>
        <time>2011-04-30T14:21:33Z</time>
      </trkpt>
      <trkpt lat="46.15625" lon="6.52752">
        <ele>1069</ele>
        <time>2011-04-30T14:21:35Z</time>
      </trkpt>
      <trkpt lat="46.15616" lon="6.52753">
        <ele>1069</ele>
        <time>2011-04-30T14:21:41Z</time>
      </trkpt>
      <trkpt lat="46.15618" lon="6.52765">
        <ele>1069</ele>
        <time>2011-04-30T14:22:06Z</time>
      </trkpt>
      <trkpt lat="46.15617" lon="6.52782">
        <ele>1069</ele>
        <time>2011-04-30T14:22:10Z</time>
      </trkpt>
      <trkpt lat="46.15609" lon="6.52793">
        <ele>1069</ele>
        <time>2011-04-30T14:22:13Z</time>
      </trkpt>
      <trkpt lat="46.15601" lon="6.52799">
        <ele>1069</ele>
        <time>2011-04-30T14:22:15Z</time>
      </trkpt>
      <trkpt lat="46.15592" lon="6.52808">
        <ele>1064</ele>
        <time>2011-04-30T14:22:17Z</time>
      </trkpt>
      <trkpt lat="46.15584" lon="6.52818">
        <ele>1064</ele>
        <time>2011-04-30T14:22:19Z</time>
      </trkpt>
      <trkpt lat="46.15576" lon="6.5283">
        <ele>1064</ele>
        <time>2011-04-30T14:22:21Z</time>
      </trkpt>
      <trkpt lat="46.1557" lon="6.52842">
        <ele>1058</ele>
        <time>2011-04-30T14:22:23Z</time>
      </trkpt>
      <trkpt lat="46.15563" lon="6.52851">
        <ele>1058</ele>
        <time>2011-04-30T14:22:26Z</time>
      </trkpt>
      <trkpt lat="46.15556" lon="6.52836">
        <ele>1051</ele>
        <time>2011-04-30T14:22:44Z</time>
      </trkpt>
      <trkpt lat="46.15553" lon="6.52817">
        <ele>1051</ele>
        <time>2011-04-30T14:22:46Z</time>
      </trkpt>
      <trkpt lat="46.15551" lon="6.52804">
        <ele>1051</ele>
        <time>2011-04-30T14:22:47Z</time>
      </trkpt>
      <trkpt lat="46.15549" lon="6.52788">
        <ele>1051</ele>
        <time>2011-04-30T14:22:48Z</time>
      </trkpt>
      <trkpt lat="46.15546" lon="6.52772">
        <ele>1051</ele>
        <time>2011-04-30T14:22:49Z</time>
      </trkpt>
      <trkpt lat="46.15544" lon="6.52756">
        <ele>1051</ele>
        <time>2011-04-30T14:22:50Z</time>
      </trkpt>
      <trkpt lat="46.15542" lon="6.52741">
        <ele>1051</ele>
        <time>2011-04-30T14:22:51Z</time>
      </trkpt>
      <trkpt lat="46.1554" lon="6.52725">
        <ele>1051</ele>
        <time>2011-04-30T14:22:52Z</time>
      </trkpt>
      <trkpt lat="46.15538" lon="6.5271">
        <ele>1051</ele>
        <time>2011-04-30T14:22:53Z</time>
      </trkpt>
      <trkpt lat="46.15536" lon="6.52693">
        <ele>1057</ele>
        <time>2011-04-30T14:22:54Z</time>
      </trkpt>
      <trkpt lat="46.15534" lon="6.52678">
        <ele>1057</ele>
        <time>2011-04-30T14:22:55Z</time>
      </trkpt>
      <trkpt lat="46.15534" lon="6.52663">
        <ele>1057</ele>
        <time>2011-04-30T14:22:56Z</time>
      </trkpt>
      <trkpt lat="46.15534" lon="6.52649">
        <ele>1057</ele>
        <time>2011-04-30T14:22:57Z</time>
      </trkpt>
      <trkpt lat="46.15534" lon="6.52632">
        <ele>1057</ele>
        <time>2011-04-30T14:22:58Z</time>
      </trkpt>
      <trkpt lat="46.15536" lon="6.52616">
        <ele>1057</ele>
        <time>2011-04-30T14:22:59Z</time>
      </trkpt>
      <trkpt lat="46.15536" lon="6.52599">
        <ele>1057</ele>
        <time>2011-04-30T14:23:00Z</time>
      </trkpt>
      <trkpt lat="46.15536" lon="6.52583">
        <ele>1057</ele>
        <time>2011-04-30T14:23:01Z</time>
      </trkpt>
      <trkpt lat="46.15534" lon="6.52567">
        <ele>1063</ele>
        <time>2011-04-30T14:23:02Z</time>
      </trkpt>
      <trkpt lat="46.15531" lon="6.52552">
        <ele>1063</ele>
        <time>2011-04-30T14:23:03Z</time>
      </trkpt>
      <trkpt lat="46.15529" lon="6.52536">
        <ele>1063</ele>
        <time>2011-04-30T14:23:04Z</time>
      </trkpt>
      <trkpt lat="46.15528" lon="6.52522">
        <ele>1063</ele>
        <time>2011-04-30T14:23:05Z</time>
      </trkpt>
      <trkpt lat="46.15528" lon="6.52505">
        <ele>1063</ele>
        <time>2011-04-30T14:23:06Z</time>
      </trkpt>
      <trkpt lat="46.15529" lon="6.52489">
        <ele>1063</ele>
        <time>2011-04-30T14:23:07Z</time>
      </trkpt>
      <trkpt lat="46.15532" lon="6.52473">
        <ele>1068</ele>
        <time>2011-04-30T14:23:08Z</time>
      </trkpt>
      <trkpt lat="46.15534" lon="6.52459">
        <ele>1068</ele>
        <time>2011-04-30T14:23:09Z</time>
      </trkpt>
      <trkpt lat="46.15536" lon="6.52446">
        <ele>1068</ele>
        <time>2011-04-30T14:23:10Z</time>
      </trkpt>
      <trkpt lat="46.15542" lon="6.52425">
        <ele>1068</ele>
        <time>2011-04-30T14:23:12Z</time>
      </trkpt>
      <trkpt lat="46.15553" lon="6.52408">
        <ele>1068</ele>
        <time>2011-04-30T14:23:14Z</time>
      </trkpt>
      <trkpt lat="46.15564" lon="6.52392">
        <ele>1074</ele>
        <time>2011-04-30T14:23:16Z</time>
      </trkpt>
      <trkpt lat="46.15574" lon="6.52375">
        <ele>1074</ele>
        <time>2011-04-30T14:23:18Z</time>
      </trkpt>
      <trkpt lat="46.1558" lon="6.52361">
        <ele>1074</ele>
        <time>2011-04-30T14:23:20Z</time>
      </trkpt>
      <trkpt lat="46.15584" lon="6.5238">
        <ele>1074</ele>
        <time>2011-04-30T14:23:32Z</time>
      </trkpt>
      <trkpt lat="46.1558" lon="6.52394">
        <ele>1074</ele>
        <time>2011-04-30T14:23:33Z</time>
      </trkpt>
      <trkpt lat="46.15578" lon="6.52411">
        <ele>1074</ele>
        <time>2011-04-30T14:23:34Z</time>
      </trkpt>
      <trkpt lat="46.15576" lon="6.52429">
        <ele>1074</ele>
        <time>2011-04-30T14:23:35Z</time>
      </trkpt>
      <trkpt lat="46.15577" lon="6.52449">
        <ele>1074</ele>
        <time>2011-04-30T14:23:36Z</time>
      </trkpt>
      <trkpt lat="46.15578" lon="6.52467">
        <ele>1074</ele>
        <time>2011-04-30T14:23:37Z</time>
      </trkpt>
      <trkpt lat="46.15579" lon="6.52483">
        <ele>1074</ele>
        <time>2011-04-30T14:23:38Z</time>
      </trkpt>
      <trkpt lat="46.15581" lon="6.52498">
        <ele>1080</ele>
        <time>2011-04-30T14:23:39Z</time>
      </trkpt>
      <trkpt lat="46.15583" lon="6.52523">
        <ele>1080</ele>
        <time>2011-04-30T14:23:41Z</time>
      </trkpt>
      <trkpt lat="46.15585" lon="6.52536">
        <ele>1080</ele>
        <time>2011-04-30T14:23:42Z</time>
      </trkpt>
      <trkpt lat="46.15588" lon="6.5255">
        <ele>1080</ele>
        <time>2011-04-30T14:23:43Z</time>
      </trkpt>
      <trkpt lat="46.15591" lon="6.52562">
        <ele>1080</ele>
        <time>2011-04-30T14:23:44Z</time>
      </trkpt>
      <trkpt lat="46.15596" lon="6.52575">
        <ele>1080</ele>
        <time>2011-04-30T14:23:45Z</time>
      </trkpt>
      <trkpt lat="46.156" lon="6.52587">
        <ele>1080</ele>
        <time>2011-04-30T14:23:46Z</time>
      </trkpt>
      <trkpt lat="46.15608" lon="6.52609">
        <ele>1085</ele>
        <time>2011-04-30T14:23:48Z</time>
      </trkpt>
      <trkpt lat="46.15616" lon="6.52627">
        <ele>1085</ele>
        <time>2011-04-30T14:23:50Z</time>
      </trkpt>
      <trkpt lat="46.15626" lon="6.5264">
        <ele>1085</ele>
        <time>2011-04-30T14:23:52Z</time>
      </trkpt>
      <trkpt lat="46.15638" lon="6.5264">
        <ele>1085</ele>
        <time>2011-04-30T14:23:54Z</time>
      </trkpt>
      <trkpt lat="46.15646" lon="6.52623">
        <ele>1085</ele>
        <time>2011-04-30T14:23:56Z</time>
      </trkpt>
      <trkpt lat="46.15645" lon="6.5261">
        <ele>1085</ele>
        <time>2011-04-30T14:23:57Z</time>
      </trkpt>
      <trkpt lat="46.15642" lon="6.52596">
        <ele>1091</ele>
        <time>2011-04-30T14:23:58Z</time>
      </trkpt>
      <trkpt lat="46.15641" lon="6.52582">
        <ele>1091</ele>
        <time>2011-04-30T14:23:59Z</time>
      </trkpt>
      <trkpt lat="46.1564" lon="6.52566">
        <ele>1091</ele>
        <time>2011-04-30T14:24:00Z</time>
      </trkpt>
      <trkpt lat="46.15642" lon="6.52551">
        <ele>1091</ele>
        <time>2011-04-30T14:24:01Z</time>
      </trkpt>
      <trkpt lat="46.15647" lon="6.52534">
        <ele>1091</ele>
        <time>2011-04-30T14:24:02Z</time>
      </trkpt>
      <trkpt lat="46.15656" lon="6.52519">
        <ele>1091</ele>
        <time>2011-04-30T14:24:03Z</time>
      </trkpt>
      <trkpt lat="46.15665" lon="6.52505">
        <ele>1097</ele>
        <time>2011-04-30T14:24:04Z</time>
      </trkpt>
      <trkpt lat="46.15674" lon="6.52493">
        <ele>1097</ele>
        <time>2011-04-30T14:24:05Z</time>
      </trkpt>
      <trkpt lat="46.15684" lon="6.52482">
        <ele>1097</ele>
        <time>2011-04-30T14:24:06Z</time>
      </trkpt>
      <trkpt lat="46.15694" lon="6.52472">
        <ele>1097</ele>
        <time>2011-04-30T14:24:07Z</time>
      </trkpt>
      <trkpt lat="46.15703" lon="6.52463">
        <ele>1097</ele>
        <time>2011-04-30T14:24:08Z</time>
      </trkpt>
      <trkpt lat="46.15712" lon="6.52452">
        <ele>1102</ele>
        <time>2011-04-30T14:24:09Z</time>
      </trkpt>
      <trkpt lat="46.1572" lon="6.52442">
        <ele>1102</ele>
        <time>2011-04-30T14:24:10Z</time>
      </trkpt>
      <trkpt lat="46.1573" lon="6.52432">
        <ele>1102</ele>
        <time>2011-04-30T14:24:11Z</time>
      </trkpt>
      <trkpt lat="46.15739" lon="6.52422">
        <ele>1102</ele>
        <time>2011-04-30T14:24:12Z</time>
      </trkpt>
      <trkpt lat="46.15749" lon="6.52412">
        <ele>1102</ele>
        <time>2011-04-30T14:24:13Z</time>
      </trkpt>
      <trkpt lat="46.15759" lon="6.52403">
        <ele>1108</ele>
        <time>2011-04-30T14:24:14Z</time>
      </trkpt>
      <trkpt lat="46.15768" lon="6.52393">
        <ele>1108</ele>
        <time>2011-04-30T14:24:15Z</time>
      </trkpt>
      <trkpt lat="46.15778" lon="6.52384">
        <ele>1108</ele>
        <time>2011-04-30T14:24:16Z</time>
      </trkpt>
      <trkpt lat="46.15788" lon="6.52376">
        <ele>1108</ele>
        <time>2011-04-30T14:24:17Z</time>
      </trkpt>
      <trkpt lat="46.15799" lon="6.52368">
        <ele>1108</ele>
        <time>2011-04-30T14:24:18Z</time>
      </trkpt>
      <trkpt lat="46.15809" lon="6.5236">
        <ele>1114</ele>
        <time>2011-04-30T14:24:19Z</time>
      </trkpt>
      <trkpt lat="46.15821" lon="6.52352">
        <ele>1114</ele>
        <time>2011-04-30T14:24:20Z</time>
      </trkpt>
      <trkpt lat="46.15833" lon="6.52344">
        <ele>1114</ele>
        <time>2011-04-30T14:24:21Z</time>
      </trkpt>
      <trkpt lat="46.15847" lon="6.52336">
        <ele>1114</ele>
        <time>2011-04-30T14:24:22Z</time>
      </trkpt>
      <trkpt lat="46.1586" lon="6.52328">
        <ele>1119</ele>
        <time>2011-04-30T14:24:23Z</time>
      </trkpt>
      <trkpt lat="46.15873" lon="6.5232">
        <ele>1119</ele>
        <time>2011-04-30T14:24:24Z</time>
      </trkpt>
      <trkpt lat="46.15885" lon="6.52313">
        <ele>1119</ele>
        <time>2011-04-30T14:24:25Z</time>
      </trkpt>
      <trkpt lat="46.15897" lon="6.52306">
        <ele>1119</ele>
        <time>2011-04-30T14:24:26Z</time>
      </trkpt>
      <trkpt lat="46.15905" lon="6.52302">
        <ele>1124</ele>
        <time>2011-04-30T14:24:27Z</time>
      </trkpt>
      <trkpt lat="46.15914" lon="6.52297">
        <ele>1124</ele>
        <time>2011-04-30T14:24:28Z</time>
      </trkpt>
      <trkpt lat="46.15929" lon="6.52295">
        <ele>1124</ele>
        <time>2011-04-30T14:24:30Z</time>
      </trkpt>
      <trkpt lat="46.15941" lon="6.52305">
        <ele>1124</ele>
        <time>2011-04-30T14:24:32Z</time>
      </trkpt>
      <trkpt lat="46.15935" lon="6.52329">
        <ele>1130</ele>
        <time>2011-04-30T14:24:34Z</time>
      </trkpt>
      <trkpt lat="46.15924" lon="6.52336">
        <ele>1130</ele>
        <time>2011-04-30T14:24:35Z</time>
      </trkpt>
      <trkpt lat="46.15912" lon="6.52343">
        <ele>1130</ele>
        <time>2011-04-30T14:24:36Z</time>
      </trkpt>
      <trkpt lat="46.159" lon="6.52354">
        <ele>1130</ele>
        <time>2011-04-30T14:24:37Z</time>
      </trkpt>
      <trkpt lat="46.1589" lon="6.52367">
        <ele>1130</ele>
        <time>2011-04-30T14:24:38Z</time>
      </trkpt>
      <trkpt lat="46.1588" lon="6.52383">
        <ele>1130</ele>
        <time>2011-04-30T14:24:39Z</time>
      </trkpt>
      <trkpt lat="46.15871" lon="6.52401">
        <ele>1130</ele>
        <time>2011-04-30T14:24:40Z</time>
      </trkpt>
      <trkpt lat="46.15865" lon="6.52422">
        <ele>1130</ele>
        <time>2011-04-30T14:24:41Z</time>
      </trkpt>
      <trkpt lat="46.15858" lon="6.52445">
        <ele>1136</ele>
        <time>2011-04-30T14:24:42Z</time>
      </trkpt>
      <trkpt lat="46.15852" lon="6.52469">
        <ele>1136</ele>
        <time>2011-04-30T14:24:43Z</time>
      </trkpt>
      <trkpt lat="46.15846" lon="6.52495">
        <ele>1136</ele>
        <time>2011-04-30T14:24:44Z</time>
      </trkpt>
      <trkpt lat="46.15839" lon="6.5252">
        <ele>1136</ele>
        <time>2011-04-30T14:24:45Z</time>
      </trkpt>
      <trkpt lat="46.15833" lon="6.52542">
        <ele>1142</ele>
        <time>2011-04-30T14:24:46Z</time>
      </trkpt>
      <trkpt lat="46.15828" lon="6.52561">
        <ele>1142</ele>
        <time>2011-04-30T14:24:47Z</time>
      </trkpt>
      <trkpt lat="46.15825" lon="6.52577">
        <ele>1142</ele>
        <time>2011-04-30T14:24:48Z</time>
      </trkpt>
      <trkpt lat="46.15823" lon="6.5259">
        <ele>1142</ele>
        <time>2011-04-30T14:24:49Z</time>
      </trkpt>
      <trkpt lat="46.15827" lon="6.52612">
        <ele>1142</ele>
        <time>2011-04-30T14:24:51Z</time>
      </trkpt>
      <trkpt lat="46.15843" lon="6.52612">
        <ele>1148</ele>
        <time>2011-04-30T14:24:53Z</time>
      </trkpt>
      <trkpt lat="46.15852" lon="6.52603">
        <ele>1148</ele>
        <time>2011-04-30T14:24:54Z</time>
      </trkpt>
      <trkpt lat="46.1586" lon="6.5259">
        <ele>1148</ele>
        <time>2011-04-30T14:24:55Z</time>
      </trkpt>
      <trkpt lat="46.15868" lon="6.52576">
        <ele>1148</ele>
        <time>2011-04-30T14:24:56Z</time>
      </trkpt>
      <trkpt lat="46.1588" lon="6.52561">
        <ele>1148</ele>
        <time>2011-04-30T14:24:57Z</time>
      </trkpt>
      <trkpt lat="46.15895" lon="6.52546">
        <ele>1148</ele>
        <time>2011-04-30T14:24:58Z</time>
      </trkpt>
      <trkpt lat="46.15912" lon="6.5253">
        <ele>1154</ele>
        <time>2011-04-30T14:24:59Z</time>
      </trkpt>
      <trkpt lat="46.15934" lon="6.52514">
        <ele>1154</ele>
        <time>2011-04-30T14:25:00Z</time>
      </trkpt>
      <trkpt lat="46.15953" lon="6.52499">
        <ele>1154</ele>
        <time>2011-04-30T14:25:01Z</time>
      </trkpt>
      <trkpt lat="46.15971" lon="6.52485">
        <ele>1160</ele>
        <time>2011-04-30T14:25:02Z</time>
      </trkpt>
      <trkpt lat="46.15986" lon="6.52473">
        <ele>1160</ele>
        <time>2011-04-30T14:25:03Z</time>
      </trkpt>
      <trkpt lat="46.15998" lon="6.52464">
        <ele>1160</ele>
        <time>2011-04-30T14:25:04Z</time>
      </trkpt>
      <trkpt lat="46.1601" lon="6.52456">
        <ele>1167</ele>
        <time>2011-04-30T14:25:05Z</time>
      </trkpt>
      <trkpt lat="46.1602" lon="6.52447">
        <ele>1167</ele>
        <time>2011-04-30T14:25:06Z</time>
      </trkpt>
      <trkpt lat="46.16029" lon="6.52437">
        <ele>1167</ele>
        <time>2011-04-30T14:25:07Z</time>
      </trkpt>
      <trkpt lat="46.16037" lon="6.52422">
        <ele>1167</ele>
        <time>2011-04-30T14:25:08Z</time>
      </trkpt>
      <trkpt lat="46.16042" lon="6.52406">
        <ele>1173</ele>
        <time>2011-04-30T14:25:09Z</time>
      </trkpt>
      <trkpt lat="46.16043" lon="6.52384">
        <ele>1173</ele>
        <time>2011-04-30T14:25:10Z</time>
      </trkpt>
      <trkpt lat="46.16042" lon="6.52362">
        <ele>1173</ele>
        <time>2011-04-30T14:25:11Z</time>
      </trkpt>
      <trkpt lat="46.16039" lon="6.5234">
        <ele>1179</ele>
        <time>2011-04-30T14:25:12Z</time>
      </trkpt>
      <trkpt lat="46.16034" lon="6.52321">
        <ele>1179</ele>
        <time>2011-04-30T14:25:13Z</time>
      </trkpt>
      <trkpt lat="46.16033" lon="6.52304">
        <ele>1179</ele>
        <time>2011-04-30T14:25:14Z</time>
      </trkpt>
      <trkpt lat="46.16033" lon="6.52288">
        <ele>1179</ele>
        <time>2011-04-30T14:25:15Z</time>
      </trkpt>
      <trkpt lat="46.16034" lon="6.52274">
        <ele>1185</ele>
        <time>2011-04-30T14:25:16Z</time>
      </trkpt>
      <trkpt lat="46.16037" lon="6.5225">
        <ele>1185</ele>
        <time>2011-04-30T14:25:18Z</time>
      </trkpt>
      <trkpt lat="46.16046" lon="6.52235">
        <ele>1185</ele>
        <time>2011-04-30T14:25:20Z</time>
      </trkpt>
      <trkpt lat="46.16057" lon="6.52225">
        <ele>1185</ele>
        <time>2011-04-30T14:25:22Z</time>
      </trkpt>
      <trkpt lat="46.16063" lon="6.52215">
        <ele>1193</ele>
        <time>2011-04-30T14:29:35Z</time>
      </trkpt>
      <trkpt lat="46.16069" lon="6.52198">
        <ele>1193</ele>
        <time>2011-04-30T14:29:37Z</time>
      </trkpt>
      <trkpt lat="46.16074" lon="6.52172">
        <ele>1193</ele>
        <time>2011-04-30T14:29:39Z</time>
      </trkpt>
      <trkpt lat="46.16076" lon="6.52157">
        <ele>1193</ele>
        <time>2011-04-30T14:29:40Z</time>
      </trkpt>
      <trkpt lat="46.1608" lon="6.52141">
        <ele>1193</ele>
        <time>2011-04-30T14:29:41Z</time>
      </trkpt>
      <trkpt lat="46.16083" lon="6.52127">
        <ele>1188</ele>
        <time>2011-04-30T14:29:42Z</time>
      </trkpt>
      <trkpt lat="46.16087" lon="6.52113">
        <ele>1188</ele>
        <time>2011-04-30T14:29:43Z</time>
      </trkpt>
      <trkpt lat="46.16091" lon="6.52101">
        <ele>1188</ele>
        <time>2011-04-30T14:29:44Z</time>
      </trkpt>
      <trkpt lat="46.16095" lon="6.52088">
        <ele>1188</ele>
        <time>2011-04-30T14:29:45Z</time>
      </trkpt>
      <trkpt lat="46.16098" lon="6.52075">
        <ele>1188</ele>
        <time>2011-04-30T14:29:46Z</time>
      </trkpt>
      <trkpt lat="46.16101" lon="6.52062">
        <ele>1188</ele>
        <time>2011-04-30T14:29:47Z</time>
      </trkpt>
      <trkpt lat="46.16104" lon="6.52039">
        <ele>1188</ele>
        <time>2011-04-30T14:29:49Z</time>
      </trkpt>
      <trkpt lat="46.16105" lon="6.52019">
        <ele>1188</ele>
        <time>2011-04-30T14:29:51Z</time>
      </trkpt>
      <trkpt lat="46.16105" lon="6.51999">
        <ele>1188</ele>
        <time>2011-04-30T14:29:53Z</time>
      </trkpt>
      <trkpt lat="46.16106" lon="6.51979">
        <ele>1188</ele>
        <time>2011-04-30T14:29:55Z</time>
      </trkpt>
      <trkpt lat="46.16104" lon="6.51962">
        <ele>1188</ele>
        <time>2011-04-30T14:29:57Z</time>
      </trkpt>
      <trkpt lat="46.161" lon="6.51949">
        <ele>1182</ele>
        <time>2011-04-30T14:29:59Z</time>
      </trkpt>
      <trkpt lat="46.16097" lon="6.51934">
        <ele>1182</ele>
        <time>2011-04-30T14:30:01Z</time>
      </trkpt>
      <trkpt lat="46.16096" lon="6.51915">
        <ele>1182</ele>
        <time>2011-04-30T14:30:03Z</time>
      </trkpt>
      <trkpt lat="46.161" lon="6.51896">
        <ele>1175</ele>
        <time>2011-04-30T14:30:05Z</time>
      </trkpt>
      <trkpt lat="46.16108" lon="6.51872">
        <ele>1175</ele>
        <time>2011-04-30T14:30:07Z</time>
      </trkpt>
      <trkpt lat="46.16113" lon="6.51859">
        <ele>1175</ele>
        <time>2011-04-30T14:30:08Z</time>
      </trkpt>
      <trkpt lat="46.16119" lon="6.51846">
        <ele>1175</ele>
        <time>2011-04-30T14:30:09Z</time>
      </trkpt>
      <trkpt lat="46.16124" lon="6.51834">
        <ele>1175</ele>
        <time>2011-04-30T14:30:10Z</time>
      </trkpt>
      <trkpt lat="46.16128" lon="6.51819">
        <ele>1169</ele>
        <time>2011-04-30T14:30:11Z</time>
      </trkpt>
      <trkpt lat="46.16133" lon="6.51806">
        <ele>1169</ele>
        <time>2011-04-30T14:30:12Z</time>
      </trkpt>
      <trkpt lat="46.16137" lon="6.51791">
        <ele>1169</ele>
        <time>2011-04-30T14:30:13Z</time>
      </trkpt>
      <trkpt lat="46.16141" lon="6.51776">
        <ele>1169</ele>
        <time>2011-04-30T14:30:14Z</time>
      </trkpt>
      <trkpt lat="46.16144" lon="6.51762">
        <ele>1169</ele>
        <time>2011-04-30T14:30:15Z</time>
      </trkpt>
      <trkpt lat="46.16148" lon="6.51748">
        <ele>1169</ele>
        <time>2011-04-30T14:30:16Z</time>
      </trkpt>
      <trkpt lat="46.1615" lon="6.51731">
        <ele>1169</ele>
        <time>2011-04-30T14:30:17Z</time>
      </trkpt>
      <trkpt lat="46.16151" lon="6.51717">
        <ele>1169</ele>
        <time>2011-04-30T14:30:18Z</time>
      </trkpt>
      <trkpt lat="46.16156" lon="6.51693">
        <ele>1169</ele>
        <time>2011-04-30T14:30:20Z</time>
      </trkpt>
      <trkpt lat="46.16164" lon="6.51674">
        <ele>1161</ele>
        <time>2011-04-30T14:30:22Z</time>
      </trkpt>
      <trkpt lat="46.16174" lon="6.51654">
        <ele>1161</ele>
        <time>2011-04-30T14:30:24Z</time>
      </trkpt>
      <trkpt lat="46.16182" lon="6.51638">
        <ele>1161</ele>
        <time>2011-04-30T14:30:26Z</time>
      </trkpt>
      <trkpt lat="46.16189" lon="6.51621">
        <ele>1161</ele>
        <time>2011-04-30T14:30:28Z</time>
      </trkpt>
      <trkpt lat="46.16197" lon="6.51598">
        <ele>1161</ele>
        <time>2011-04-30T14:30:30Z</time>
      </trkpt>
      <trkpt lat="46.16202" lon="6.51587">
        <ele>1161</ele>
        <time>2011-04-30T14:30:31Z</time>
      </trkpt>
      <trkpt lat="46.16212" lon="6.51569">
        <ele>1155</ele>
        <time>2011-04-30T14:30:33Z</time>
      </trkpt>
      <trkpt lat="46.16219" lon="6.51553">
        <ele>1155</ele>
        <time>2011-04-30T14:30:35Z</time>
      </trkpt>
      <trkpt lat="46.16226" lon="6.51537">
        <ele>1155</ele>
        <time>2011-04-30T14:30:37Z</time>
      </trkpt>
      <trkpt lat="46.16236" lon="6.51522">
        <ele>1155</ele>
        <time>2011-04-30T14:30:39Z</time>
      </trkpt>
      <trkpt lat="46.16247" lon="6.51503">
        <ele>1155</ele>
        <time>2011-04-30T14:30:41Z</time>
      </trkpt>
      <trkpt lat="46.16258" lon="6.51484">
        <ele>1155</ele>
        <time>2011-04-30T14:30:43Z</time>
      </trkpt>
      <trkpt lat="46.16272" lon="6.51465">
        <ele>1155</ele>
        <time>2011-04-30T14:30:45Z</time>
      </trkpt>
      <trkpt lat="46.16279" lon="6.51456">
        <ele>1155</ele>
        <time>2011-04-30T14:30:46Z</time>
      </trkpt>
      <trkpt lat="46.16287" lon="6.51447">
        <ele>1155</ele>
        <time>2011-04-30T14:30:47Z</time>
      </trkpt>
      <trkpt lat="46.16294" lon="6.51437">
        <ele>1161</ele>
        <time>2011-04-30T14:30:48Z</time>
      </trkpt>
      <trkpt lat="46.16304" lon="6.5142">
        <ele>1161</ele>
        <time>2011-04-30T14:30:50Z</time>
      </trkpt>
      <trkpt lat="46.16318" lon="6.51404">
        <ele>1168</ele>
        <time>2011-04-30T14:30:52Z</time>
      </trkpt>
      <trkpt lat="46.16326" lon="6.51398">
        <ele>1168</ele>
        <time>2011-04-30T14:30:53Z</time>
      </trkpt>
      <trkpt lat="46.16338" lon="6.51386">
        <ele>1168</ele>
        <time>2011-04-30T14:30:55Z</time>
      </trkpt>
      <trkpt lat="46.16345" lon="6.51374">
        <ele>1168</ele>
        <time>2011-04-30T14:30:57Z</time>
      </trkpt>
      <trkpt lat="46.16353" lon="6.5136">
        <ele>1168</ele>
        <time>2011-04-30T14:30:59Z</time>
      </trkpt>
      <trkpt lat="46.16364" lon="6.51347">
        <ele>1168</ele>
        <time>2011-04-30T14:31:01Z</time>
      </trkpt>
      <trkpt lat="46.16377" lon="6.51332">
        <ele>1173</ele>
        <time>2011-04-30T14:31:03Z</time>
      </trkpt>
      <trkpt lat="46.16391" lon="6.51319">
        <ele>1173</ele>
        <time>2011-04-30T14:31:05Z</time>
      </trkpt>
      <trkpt lat="46.164" lon="6.51314">
        <ele>1173</ele>
        <time>2011-04-30T14:31:06Z</time>
      </trkpt>
      <trkpt lat="46.16415" lon="6.51302">
        <ele>1173</ele>
        <time>2011-04-30T14:31:08Z</time>
      </trkpt>
      <trkpt lat="46.1642" lon="6.5129">
        <ele>1173</ele>
        <time>2011-04-30T14:31:11Z</time>
      </trkpt>
      <trkpt lat="46.16424" lon="6.51277">
        <ele>1173</ele>
        <time>2011-04-30T14:31:17Z</time>
      </trkpt>
      <trkpt lat="46.16432" lon="6.5127">
        <ele>1173</ele>
        <time>2011-04-30T14:31:24Z</time>
      </trkpt>
      <trkpt lat="46.16441" lon="6.51263">
        <ele>1166</ele>
        <time>2011-04-30T14:31:46Z</time>
      </trkpt>
      <trkpt lat="46.1645" lon="6.51254">
        <ele>1171</ele>
        <time>2011-04-30T14:31:51Z</time>
      </trkpt>
      <trkpt lat="46.1646" lon="6.51251">
        <ele>1171</ele>
        <time>2011-04-30T14:31:53Z</time>
      </trkpt>
      <trkpt lat="46.16469" lon="6.51246">
        <ele>1171</ele>
        <time>2011-04-30T14:31:55Z</time>
      </trkpt>
      <trkpt lat="46.16483" lon="6.51242">
        <ele>1171</ele>
        <time>2011-04-30T14:31:57Z</time>
      </trkpt>
      <trkpt lat="46.165" lon="6.51237">
        <ele>1171</ele>
        <time>2011-04-30T14:31:59Z</time>
      </trkpt>
      <trkpt lat="46.16511" lon="6.51226">
        <ele>1171</ele>
        <time>2011-04-30T14:32:01Z</time>
      </trkpt>
      <trkpt lat="46.16524" lon="6.51214">
        <ele>1171</ele>
        <time>2011-04-30T14:32:03Z</time>
      </trkpt>
      <trkpt lat="46.16538" lon="6.51206">
        <ele>1171</ele>
        <time>2011-04-30T14:32:05Z</time>
      </trkpt>
      <trkpt lat="46.16548" lon="6.51212">
        <ele>1171</ele>
        <time>2011-04-30T14:32:07Z</time>
      </trkpt>
      <trkpt lat="46.16558" lon="6.5123">
        <ele>1176</ele>
        <time>2011-04-30T14:32:09Z</time>
      </trkpt>
      <trkpt lat="46.16566" lon="6.51239">
        <ele>1176</ele>
        <time>2011-04-30T14:32:10Z</time>
      </trkpt>
      <trkpt lat="46.16573" lon="6.51248">
        <ele>1176</ele>
        <time>2011-04-30T14:32:11Z</time>
      </trkpt>
      <trkpt lat="46.16586" lon="6.51264">
        <ele>1182</ele>
        <time>2011-04-30T14:32:13Z</time>
      </trkpt>
      <trkpt lat="46.16594" lon="6.5128">
        <ele>1182</ele>
        <time>2011-04-30T14:32:15Z</time>
      </trkpt>
      <trkpt lat="46.16598" lon="6.51296">
        <ele>1187</ele>
        <time>2011-04-30T14:32:17Z</time>
      </trkpt>
      <trkpt lat="46.16589" lon="6.51315">
        <ele>1187</ele>
        <time>2011-04-30T14:32:19Z</time>
      </trkpt>
      <trkpt lat="46.16581" lon="6.51331">
        <ele>1187</ele>
        <time>2011-04-30T14:32:21Z</time>
      </trkpt>
      <trkpt lat="46.16576" lon="6.51349">
        <ele>1196</ele>
        <time>2011-04-30T14:32:23Z</time>
      </trkpt>
      <trkpt lat="46.16571" lon="6.51366">
        <ele>1196</ele>
        <time>2011-04-30T14:32:25Z</time>
      </trkpt>
      <trkpt lat="46.16562" lon="6.51379">
        <ele>1201</ele>
        <time>2011-04-30T14:32:28Z</time>
      </trkpt>
      <trkpt lat="46.16556" lon="6.51391">
        <ele>1201</ele>
        <time>2011-04-30T14:32:31Z</time>
      </trkpt>
      <trkpt lat="46.16557" lon="6.51404">
        <ele>1201</ele>
        <time>2011-04-30T14:32:34Z</time>
      </trkpt>
      <trkpt lat="46.16558" lon="6.51419">
        <ele>1201</ele>
        <time>2011-04-30T14:32:38Z</time>
      </trkpt>
      <trkpt lat="46.16558" lon="6.51437">
        <ele>1201</ele>
        <time>2011-04-30T14:32:40Z</time>
      </trkpt>
      <trkpt lat="46.16556" lon="6.51451">
        <ele>1201</ele>
        <time>2011-04-30T14:32:42Z</time>
      </trkpt>
      <trkpt lat="46.16554" lon="6.5147">
        <ele>1201</ele>
        <time>2011-04-30T14:32:44Z</time>
      </trkpt>
      <trkpt lat="46.16553" lon="6.51494">
        <ele>1201</ele>
        <time>2011-04-30T14:32:46Z</time>
      </trkpt>
      <trkpt lat="46.16551" lon="6.51521">
        <ele>1195</ele>
        <time>2011-04-30T14:32:48Z</time>
      </trkpt>
      <trkpt lat="46.16549" lon="6.51536">
        <ele>1195</ele>
        <time>2011-04-30T14:32:49Z</time>
      </trkpt>
      <trkpt lat="46.16546" lon="6.51558">
        <ele>1195</ele>
        <time>2011-04-30T14:32:51Z</time>
      </trkpt>
      <trkpt lat="46.1655" lon="6.51571">
        <ele>1200</ele>
        <time>2011-04-30T14:32:55Z</time>
      </trkpt>
      <trkpt lat="46.16545" lon="6.51585">
        <ele>1200</ele>
        <time>2011-04-30T14:32:58Z</time>
      </trkpt>
      <trkpt lat="46.1654" lon="6.51598">
        <ele>1205</ele>
        <time>2011-04-30T14:33:01Z</time>
      </trkpt>
      <trkpt lat="46.16534" lon="6.51613">
        <ele>1205</ele>
        <time>2011-04-30T14:33:04Z</time>
      </trkpt>
      <trkpt lat="46.16531" lon="6.51629">
        <ele>1205</ele>
        <time>2011-04-30T14:33:07Z</time>
      </trkpt>
      <trkpt lat="46.16531" lon="6.51644">
        <ele>1205</ele>
        <time>2011-04-30T14:33:09Z</time>
      </trkpt>
      <trkpt lat="46.16528" lon="6.51661">
        <ele>1205</ele>
        <time>2011-04-30T14:33:11Z</time>
      </trkpt>
      <trkpt lat="46.16523" lon="6.51676">
        <ele>1210</ele>
        <time>2011-04-30T14:33:13Z</time>
      </trkpt>
      <trkpt lat="46.16519" lon="6.51691">
        <ele>1210</ele>
        <time>2011-04-30T14:33:15Z</time>
      </trkpt>
      <trkpt lat="46.16519" lon="6.51708">
        <ele>1210</ele>
        <time>2011-04-30T14:33:17Z</time>
      </trkpt>
      <trkpt lat="46.16516" lon="6.51723">
        <ele>1210</ele>
        <time>2011-04-30T14:33:20Z</time>
      </trkpt>
      <trkpt lat="46.16516" lon="6.51737">
        <ele>1210</ele>
        <time>2011-04-30T14:34:03Z</time>
      </trkpt>
      <trkpt lat="46.16521" lon="6.51725">
        <ele>1210</ele>
        <time>2011-04-30T14:34:42Z</time>
      </trkpt>
      <trkpt lat="46.16512" lon="6.51732">
        <ele>1219</ele>
        <time>2011-04-30T14:35:49Z</time>
      </trkpt>
      <trkpt lat="46.16509" lon="6.51747">
        <ele>1219</ele>
        <time>2011-04-30T14:35:52Z</time>
      </trkpt>
      <trkpt lat="46.16507" lon="6.51765">
        <ele>1219</ele>
        <time>2011-04-30T14:35:55Z</time>
      </trkpt>
      <trkpt lat="46.16501" lon="6.5178">
        <ele>1219</ele>
        <time>2011-04-30T14:35:57Z</time>
      </trkpt>
      <trkpt lat="46.16499" lon="6.51795">
        <ele>1219</ele>
        <time>2011-04-30T14:35:59Z</time>
      </trkpt>
      <trkpt lat="46.165" lon="6.5181">
        <ele>1211</ele>
        <time>2011-04-30T14:36:01Z</time>
      </trkpt>
      <trkpt lat="46.16499" lon="6.51828">
        <ele>1211</ele>
        <time>2011-04-30T14:36:03Z</time>
      </trkpt>
      <trkpt lat="46.16493" lon="6.51843">
        <ele>1211</ele>
        <time>2011-04-30T14:36:05Z</time>
      </trkpt>
      <trkpt lat="46.16487" lon="6.51856">
        <ele>1205</ele>
        <time>2011-04-30T14:36:07Z</time>
      </trkpt>
      <trkpt lat="46.1648" lon="6.51871">
        <ele>1205</ele>
        <time>2011-04-30T14:36:09Z</time>
      </trkpt>
      <trkpt lat="46.16476" lon="6.51885">
        <ele>1205</ele>
        <time>2011-04-30T14:36:11Z</time>
      </trkpt>
      <trkpt lat="46.16474" lon="6.51898">
        <ele>1205</ele>
        <time>2011-04-30T14:36:13Z</time>
      </trkpt>
      <trkpt lat="46.16468" lon="6.51912">
        <ele>1205</ele>
        <time>2011-04-30T14:36:15Z</time>
      </trkpt>
      <trkpt lat="46.16463" lon="6.51925">
        <ele>1212</ele>
        <time>2011-04-30T14:36:17Z</time>
      </trkpt>
      <trkpt lat="46.1646" lon="6.51937">
        <ele>1212</ele>
        <time>2011-04-30T14:36:19Z</time>
      </trkpt>
      <trkpt lat="46.16458" lon="6.51951">
        <ele>1212</ele>
        <time>2011-04-30T14:36:21Z</time>
      </trkpt>
      <trkpt lat="46.16457" lon="6.51964">
        <ele>1218</ele>
        <time>2011-04-30T14:36:23Z</time>
      </trkpt>
      <trkpt lat="46.16454" lon="6.51984">
        <ele>1218</ele>
        <time>2011-04-30T14:36:26Z</time>
      </trkpt>
      <trkpt lat="46.1645" lon="6.51996">
        <ele>1225</ele>
        <time>2011-04-30T14:36:28Z</time>
      </trkpt>
      <trkpt lat="46.16449" lon="6.52011">
        <ele>1225</ele>
        <time>2011-04-30T14:36:30Z</time>
      </trkpt>
      <trkpt lat="46.1645" lon="6.52027">
        <ele>1225</ele>
        <time>2011-04-30T14:36:32Z</time>
      </trkpt>
      <trkpt lat="46.1645" lon="6.5204">
        <ele>1231</ele>
        <time>2011-04-30T14:36:34Z</time>
      </trkpt>
      <trkpt lat="46.16449" lon="6.52057">
        <ele>1238</ele>
        <time>2011-04-30T14:36:37Z</time>
      </trkpt>
      <trkpt lat="46.16441" lon="6.52051">
        <ele>1246</ele>
        <time>2011-04-30T14:36:49Z</time>
      </trkpt>
      <trkpt lat="46.16435" lon="6.52038">
        <ele>1246</ele>
        <time>2011-04-30T14:37:15Z</time>
      </trkpt>
      <trkpt lat="46.16433" lon="6.52055">
        <ele>1246</ele>
        <time>2011-04-30T14:37:22Z</time>
      </trkpt>
      <trkpt lat="46.16441" lon="6.52081">
        <ele>1246</ele>
        <time>2011-04-30T14:37:24Z</time>
      </trkpt>
      <trkpt lat="46.16446" lon="6.52101">
        <ele>1246</ele>
        <time>2011-04-30T14:37:25Z</time>
      </trkpt>
      <trkpt lat="46.16449" lon="6.52126">
        <ele>1246</ele>
        <time>2011-04-30T14:37:26Z</time>
      </trkpt>
      <trkpt lat="46.16452" lon="6.52149">
        <ele>1246</ele>
        <time>2011-04-30T14:37:27Z</time>
      </trkpt>
      <trkpt lat="46.16456" lon="6.52172">
        <ele>1246</ele>
        <time>2011-04-30T14:37:28Z</time>
      </trkpt>
      <trkpt lat="46.16458" lon="6.52191">
        <ele>1246</ele>
        <time>2011-04-30T14:37:29Z</time>
      </trkpt>
      <trkpt lat="46.16463" lon="6.52209">
        <ele>1246</ele>
        <time>2011-04-30T14:37:30Z</time>
      </trkpt>
      <trkpt lat="46.16468" lon="6.52225">
        <ele>1246</ele>
        <time>2011-04-30T14:37:31Z</time>
      </trkpt>
      <trkpt lat="46.16473" lon="6.5224">
        <ele>1246</ele>
        <time>2011-04-30T14:37:32Z</time>
      </trkpt>
      <trkpt lat="46.16482" lon="6.52252">
        <ele>1246</ele>
        <time>2011-04-30T14:37:33Z</time>
      </trkpt>
      <trkpt lat="46.1649" lon="6.52267">
        <ele>1246</ele>
        <time>2011-04-30T14:37:34Z</time>
      </trkpt>
      <trkpt lat="46.16498" lon="6.52282">
        <ele>1246</ele>
        <time>2011-04-30T14:37:35Z</time>
      </trkpt>
      <trkpt lat="46.1651" lon="6.52297">
        <ele>1246</ele>
        <time>2011-04-30T14:37:36Z</time>
      </trkpt>
      <trkpt lat="46.16522" lon="6.52313">
        <ele>1246</ele>
        <time>2011-04-30T14:37:37Z</time>
      </trkpt>
      <trkpt lat="46.1654" lon="6.52328">
        <ele>1254</ele>
        <time>2011-04-30T14:37:38Z</time>
      </trkpt>
      <trkpt lat="46.16551" lon="6.52345">
        <ele>1254</ele>
        <time>2011-04-30T14:37:39Z</time>
      </trkpt>
      <trkpt lat="46.16561" lon="6.52362">
        <ele>1254</ele>
        <time>2011-04-30T14:37:40Z</time>
      </trkpt>
      <trkpt lat="46.16569" lon="6.52378">
        <ele>1254</ele>
        <time>2011-04-30T14:37:41Z</time>
      </trkpt>
      <trkpt lat="46.16576" lon="6.52393">
        <ele>1254</ele>
        <time>2011-04-30T14:37:42Z</time>
      </trkpt>
      <trkpt lat="46.16581" lon="6.52406">
        <ele>1254</ele>
        <time>2011-04-30T14:37:43Z</time>
      </trkpt>
      <trkpt lat="46.16587" lon="6.52419">
        <ele>1254</ele>
        <time>2011-04-30T14:37:44Z</time>
      </trkpt>
      <trkpt lat="46.16594" lon="6.52433">
        <ele>1254</ele>
        <time>2011-04-30T14:37:45Z</time>
      </trkpt>
      <trkpt lat="46.16597" lon="6.5245">
        <ele>1260</ele>
        <time>2011-04-30T14:37:46Z</time>
      </trkpt>
      <trkpt lat="46.166" lon="6.52467">
        <ele>1260</ele>
        <time>2011-04-30T14:37:47Z</time>
      </trkpt>
      <trkpt lat="46.16601" lon="6.52486">
        <ele>1260</ele>
        <time>2011-04-30T14:37:48Z</time>
      </trkpt>
      <trkpt lat="46.16604" lon="6.52505">
        <ele>1260</ele>
        <time>2011-04-30T14:37:49Z</time>
      </trkpt>
      <trkpt lat="46.16607" lon="6.52523">
        <ele>1260</ele>
        <time>2011-04-30T14:37:50Z</time>
      </trkpt>
      <trkpt lat="46.16609" lon="6.52541">
        <ele>1260</ele>
        <time>2011-04-30T14:37:51Z</time>
      </trkpt>
      <trkpt lat="46.16609" lon="6.52559">
        <ele>1260</ele>
        <time>2011-04-30T14:37:52Z</time>
      </trkpt>
      <trkpt lat="46.16609" lon="6.52578">
        <ele>1266</ele>
        <time>2011-04-30T14:37:53Z</time>
      </trkpt>
      <trkpt lat="46.16609" lon="6.52599">
        <ele>1266</ele>
        <time>2011-04-30T14:37:54Z</time>
      </trkpt>
      <trkpt lat="46.16609" lon="6.5262">
        <ele>1266</ele>
        <time>2011-04-30T14:37:55Z</time>
      </trkpt>
      <trkpt lat="46.16608" lon="6.5264">
        <ele>1266</ele>
        <time>2011-04-30T14:37:56Z</time>
      </trkpt>
      <trkpt lat="46.16608" lon="6.52661">
        <ele>1266</ele>
        <time>2011-04-30T14:37:57Z</time>
      </trkpt>
      <trkpt lat="46.1661" lon="6.5268">
        <ele>1266</ele>
        <time>2011-04-30T14:37:58Z</time>
      </trkpt>
      <trkpt lat="46.16612" lon="6.52695">
        <ele>1266</ele>
        <time>2011-04-30T14:37:59Z</time>
      </trkpt>
      <trkpt lat="46.16616" lon="6.52713">
        <ele>1266</ele>
        <time>2011-04-30T14:38:01Z</time>
      </trkpt>
      <trkpt lat="46.16615" lon="6.52733">
        <ele>1273</ele>
        <time>2011-04-30T14:38:03Z</time>
      </trkpt>
      <trkpt lat="46.16617" lon="6.52756">
        <ele>1278</ele>
        <time>2011-04-30T14:38:05Z</time>
      </trkpt>
      <trkpt lat="46.1662" lon="6.52782">
        <ele>1278</ele>
        <time>2011-04-30T14:38:07Z</time>
      </trkpt>
      <trkpt lat="46.16621" lon="6.52796">
        <ele>1286</ele>
        <time>2011-04-30T14:38:08Z</time>
      </trkpt>
      <trkpt lat="46.16622" lon="6.52811">
        <ele>1286</ele>
        <time>2011-04-30T14:38:09Z</time>
      </trkpt>
      <trkpt lat="46.16622" lon="6.52825">
        <ele>1291</ele>
        <time>2011-04-30T14:38:10Z</time>
      </trkpt>
      <trkpt lat="46.16623" lon="6.52838">
        <ele>1291</ele>
        <time>2011-04-30T14:38:11Z</time>
      </trkpt>
      <trkpt lat="46.16624" lon="6.52853">
        <ele>1291</ele>
        <time>2011-04-30T14:38:12Z</time>
      </trkpt>
      <trkpt lat="46.16625" lon="6.52869">
        <ele>1291</ele>
        <time>2011-04-30T14:38:13Z</time>
      </trkpt>
      <trkpt lat="46.16625" lon="6.52884">
        <ele>1291</ele>
        <time>2011-04-30T14:38:14Z</time>
      </trkpt>
      <trkpt lat="46.16622" lon="6.52901">
        <ele>1291</ele>
        <time>2011-04-30T14:38:15Z</time>
      </trkpt>
      <trkpt lat="46.1662" lon="6.52917">
        <ele>1291</ele>
        <time>2011-04-30T14:38:16Z</time>
      </trkpt>
      <trkpt lat="46.16618" lon="6.52933">
        <ele>1291</ele>
        <time>2011-04-30T14:38:17Z</time>
      </trkpt>
      <trkpt lat="46.16618" lon="6.52979">
        <ele>1291</ele>
        <time>2011-04-30T14:38:20Z</time>
      </trkpt>
      <trkpt lat="46.16629" lon="6.53">
        <ele>1285</ele>
        <time>2011-04-30T14:38:22Z</time>
      </trkpt>
      <trkpt lat="46.16632" lon="6.53012">
        <ele>1285</ele>
        <time>2011-04-30T14:38:23Z</time>
      </trkpt>
      <trkpt lat="46.16638" lon="6.53035">
        <ele>1285</ele>
        <time>2011-04-30T14:38:25Z</time>
      </trkpt>
      <trkpt lat="46.16642" lon="6.53048">
        <ele>1285</ele>
        <time>2011-04-30T14:38:27Z</time>
      </trkpt>
      <trkpt lat="46.1665" lon="6.53058">
        <ele>1285</ele>
        <time>2011-04-30T14:38:30Z</time>
      </trkpt>
      <trkpt lat="46.1666" lon="6.53071">
        <ele>1285</ele>
        <time>2011-04-30T14:38:33Z</time>
      </trkpt>
      <trkpt lat="46.16672" lon="6.53084">
        <ele>1285</ele>
        <time>2011-04-30T14:38:36Z</time>
      </trkpt>
      <trkpt lat="46.16682" lon="6.5309">
        <ele>1285</ele>
        <time>2011-04-30T14:38:38Z</time>
      </trkpt>
      <trkpt lat="46.16694" lon="6.53096">
        <ele>1285</ele>
        <time>2011-04-30T14:38:40Z</time>
      </trkpt>
      <trkpt lat="46.16703" lon="6.53101">
        <ele>1285</ele>
        <time>2011-04-30T14:38:42Z</time>
      </trkpt>
      <trkpt lat="46.16714" lon="6.53101">
        <ele>1293</ele>
        <time>2011-04-30T14:38:45Z</time>
      </trkpt>
      <trkpt lat="46.1671" lon="6.53085">
        <ele>1300</ele>
        <time>2011-04-30T14:38:49Z</time>
      </trkpt>
      <trkpt lat="46.16702" lon="6.53078">
        <ele>1344</ele>
        <time>2011-04-30T14:39:15Z</time>
      </trkpt>
      <trkpt lat="46.16692" lon="6.53073">
        <ele>1344</ele>
        <time>2011-04-30T14:39:29Z</time>
      </trkpt>
      <trkpt lat="46.16701" lon="6.53067">
        <ele>1328</ele>
        <time>2011-04-30T14:39:56Z</time>
      </trkpt>
      <trkpt lat="46.16697" lon="6.53079">
        <ele>1341</ele>
        <time>2011-04-30T14:40:10Z</time>
      </trkpt>
      <trkpt lat="46.16691" lon="6.53091">
        <ele>1356</ele>
        <time>2011-04-30T14:40:45Z</time>
      </trkpt>
      <trkpt lat="46.16699" lon="6.53086">
        <ele>1365</ele>
        <time>2011-04-30T14:41:14Z</time>
      </trkpt>
      <trkpt lat="46.16702" lon="6.53073">
        <ele>1345</ele>
        <time>2011-04-30T14:41:29Z</time>
      </trkpt>
      <trkpt lat="46.16702" lon="6.5306">
        <ele>1345</ele>
        <time>2011-04-30T14:41:33Z</time>
      </trkpt>
      <trkpt lat="46.16706" lon="6.53044">
        <ele>1326</ele>
        <time>2011-04-30T14:41:36Z</time>
      </trkpt>
      <trkpt lat="46.16714" lon="6.53034">
        <ele>1312</ele>
        <time>2011-04-30T14:41:40Z</time>
      </trkpt>
      <trkpt lat="46.16722" lon="6.5304">
        <ele>1298</ele>
        <time>2011-04-30T14:41:51Z</time>
      </trkpt>
      <trkpt lat="46.16727" lon="6.53028">
        <ele>1298</ele>
        <time>2011-04-30T14:42:00Z</time>
      </trkpt>
      <trkpt lat="46.16735" lon="6.53017">
        <ele>1298</ele>
        <time>2011-04-30T14:42:03Z</time>
      </trkpt>
      <trkpt lat="46.16747" lon="6.53007">
        <ele>1298</ele>
        <time>2011-04-30T14:42:06Z</time>
      </trkpt>
      <trkpt lat="46.16757" lon="6.53002">
        <ele>1298</ele>
        <time>2011-04-30T14:42:08Z</time>
      </trkpt>
      <trkpt lat="46.16767" lon="6.52993">
        <ele>1298</ele>
        <time>2011-04-30T14:42:10Z</time>
      </trkpt>
      <trkpt lat="46.16775" lon="6.52982">
        <ele>1298</ele>
        <time>2011-04-30T14:42:12Z</time>
      </trkpt>
      <trkpt lat="46.16779" lon="6.52967">
        <ele>1289</ele>
        <time>2011-04-30T14:42:16Z</time>
      </trkpt>
      <trkpt lat="46.16788" lon="6.52955">
        <ele>1289</ele>
        <time>2011-04-30T14:42:19Z</time>
      </trkpt>
      <trkpt lat="46.16797" lon="6.52942">
        <ele>1289</ele>
        <time>2011-04-30T14:42:21Z</time>
      </trkpt>
      <trkpt lat="46.16805" lon="6.52933">
        <ele>1289</ele>
        <time>2011-04-30T14:42:24Z</time>
      </trkpt>
      <trkpt lat="46.16813" lon="6.52921">
        <ele>1289</ele>
        <time>2011-04-30T14:42:36Z</time>
      </trkpt>
      <trkpt lat="46.16822" lon="6.52911">
        <ele>1289</ele>
        <time>2011-04-30T14:42:39Z</time>
      </trkpt>
      <trkpt lat="46.1683" lon="6.52898">
        <ele>1289</ele>
        <time>2011-04-30T14:42:42Z</time>
      </trkpt>
      <trkpt lat="46.16835" lon="6.52887">
        <ele>1289</ele>
        <time>2011-04-30T14:42:44Z</time>
      </trkpt>
      <trkpt lat="46.16841" lon="6.52872">
        <ele>1289</ele>
        <time>2011-04-30T14:42:46Z</time>
      </trkpt>
      <trkpt lat="46.16847" lon="6.52861">
        <ele>1289</ele>
        <time>2011-04-30T14:42:48Z</time>
      </trkpt>
      <trkpt lat="46.16853" lon="6.52852">
        <ele>1289</ele>
        <time>2011-04-30T14:42:50Z</time>
      </trkpt>
      <trkpt lat="46.16864" lon="6.52842">
        <ele>1289</ele>
        <time>2011-04-30T14:42:53Z</time>
      </trkpt>
      <trkpt lat="46.16868" lon="6.52827">
        <ele>1289</ele>
        <time>2011-04-30T14:42:56Z</time>
      </trkpt>
      <trkpt lat="46.1687" lon="6.52807">
        <ele>1295</ele>
        <time>2011-04-30T14:42:59Z</time>
      </trkpt>
      <trkpt lat="46.16875" lon="6.52788">
        <ele>1295</ele>
        <time>2011-04-30T14:43:01Z</time>
      </trkpt>
      <trkpt lat="46.16882" lon="6.52772">
        <ele>1295</ele>
        <time>2011-04-30T14:43:03Z</time>
      </trkpt>
      <trkpt lat="46.16886" lon="6.52755">
        <ele>1295</ele>
        <time>2011-04-30T14:43:05Z</time>
      </trkpt>
      <trkpt lat="46.16892" lon="6.5274">
        <ele>1295</ele>
        <time>2011-04-30T14:43:07Z</time>
      </trkpt>
      <trkpt lat="46.169" lon="6.52721">
        <ele>1295</ele>
        <time>2011-04-30T14:43:09Z</time>
      </trkpt>
      <trkpt lat="46.16908" lon="6.52703">
        <ele>1295</ele>
        <time>2011-04-30T14:43:11Z</time>
      </trkpt>
      <trkpt lat="46.16915" lon="6.52689">
        <ele>1295</ele>
        <time>2011-04-30T14:43:13Z</time>
      </trkpt>
      <trkpt lat="46.16921" lon="6.52676">
        <ele>1295</ele>
        <time>2011-04-30T14:43:15Z</time>
      </trkpt>
      <trkpt lat="46.16928" lon="6.52661">
        <ele>1295</ele>
        <time>2011-04-30T14:43:17Z</time>
      </trkpt>
      <trkpt lat="46.16936" lon="6.52648">
        <ele>1295</ele>
        <time>2011-04-30T14:43:19Z</time>
      </trkpt>
      <trkpt lat="46.16948" lon="6.52637">
        <ele>1295</ele>
        <time>2011-04-30T14:43:21Z</time>
      </trkpt>
      <trkpt lat="46.16961" lon="6.52629">
        <ele>1295</ele>
        <time>2011-04-30T14:43:23Z</time>
      </trkpt>
      <trkpt lat="46.16973" lon="6.52623">
        <ele>1287</ele>
        <time>2011-04-30T14:43:25Z</time>
      </trkpt>
      <trkpt lat="46.16983" lon="6.52621">
        <ele>1287</ele>
        <time>2011-04-30T14:43:27Z</time>
      </trkpt>
      <trkpt lat="46.16992" lon="6.52616">
        <ele>1287</ele>
        <time>2011-04-30T14:43:29Z</time>
      </trkpt>
      <trkpt lat="46.17" lon="6.52609">
        <ele>1287</ele>
        <time>2011-04-30T14:43:31Z</time>
      </trkpt>
      <trkpt lat="46.16998" lon="6.52596">
        <ele>1310</ele>
        <time>2011-04-30T14:43:51Z</time>
      </trkpt>
      <trkpt lat="46.17004" lon="6.52587">
        <ele>1304</ele>
        <time>2011-04-30T14:43:58Z</time>
      </trkpt>
      <trkpt lat="46.17014" lon="6.52585">
        <ele>1304</ele>
        <time>2011-04-30T14:44:03Z</time>
      </trkpt>
      <trkpt lat="46.17024" lon="6.52581">
        <ele>1291</ele>
        <time>2011-04-30T14:44:08Z</time>
      </trkpt>
      <trkpt lat="46.1703" lon="6.52571">
        <ele>1284</ele>
        <time>2011-04-30T14:44:14Z</time>
      </trkpt>
      <trkpt lat="46.17039" lon="6.52565">
        <ele>1270</ele>
        <time>2011-04-30T14:44:20Z</time>
      </trkpt>
      <trkpt lat="46.17046" lon="6.52557">
        <ele>1281</ele>
        <time>2011-04-30T14:44:40Z</time>
      </trkpt>
      <trkpt lat="46.17053" lon="6.52545">
        <ele>1295</ele>
        <time>2011-04-30T14:44:55Z</time>
      </trkpt>
      <trkpt lat="46.17064" lon="6.52542">
        <ele>1287</ele>
        <time>2011-04-30T14:45:00Z</time>
      </trkpt>
      <trkpt lat="46.17072" lon="6.52533">
        <ele>1287</ele>
        <time>2011-04-30T14:45:06Z</time>
      </trkpt>
      <trkpt lat="46.17079" lon="6.52523">
        <ele>1277</ele>
        <time>2011-04-30T14:45:11Z</time>
      </trkpt>
      <trkpt lat="46.17087" lon="6.52516">
        <ele>1277</ele>
        <time>2011-04-30T14:45:20Z</time>
      </trkpt>
      <trkpt lat="46.17096" lon="6.52509">
        <ele>1277</ele>
        <time>2011-04-30T14:45:26Z</time>
      </trkpt>
      <trkpt lat="46.17106" lon="6.52504">
        <ele>1271</ele>
        <time>2011-04-30T14:45:32Z</time>
      </trkpt>
      <trkpt lat="46.17115" lon="6.52495">
        <ele>1271</ele>
        <time>2011-04-30T14:45:36Z</time>
      </trkpt>
      <trkpt lat="46.17126" lon="6.52485">
        <ele>1271</ele>
        <time>2011-04-30T14:45:41Z</time>
      </trkpt>
      <trkpt lat="46.17135" lon="6.5248">
        <ele>1271</ele>
        <time>2011-04-30T14:45:45Z</time>
      </trkpt>
      <trkpt lat="46.17144" lon="6.52472">
        <ele>1271</ele>
        <time>2011-04-30T14:45:51Z</time>
      </trkpt>
      <trkpt lat="46.1715" lon="6.52462">
        <ele>1271</ele>
        <time>2011-04-30T14:45:56Z</time>
      </trkpt>
      <trkpt lat="46.1716" lon="6.52455">
        <ele>1277</ele>
        <time>2011-04-30T14:46:00Z</time>
      </trkpt>
      <trkpt lat="46.1717" lon="6.52459">
        <ele>1277</ele>
        <time>2011-04-30T14:46:03Z</time>
      </trkpt>
      <trkpt lat="46.1718" lon="6.52466">
        <ele>1277</ele>
        <time>2011-04-30T14:46:05Z</time>
      </trkpt>
      <trkpt lat="46.17187" lon="6.52456">
        <ele>1277</ele>
        <time>2011-04-30T14:46:23Z</time>
      </trkpt>
      <trkpt lat="46.17187" lon="6.5244">
        <ele>1277</ele>
        <time>2011-04-30T14:46:28Z</time>
      </trkpt>
      <trkpt lat="46.17192" lon="6.52428">
        <ele>1277</ele>
        <time>2011-04-30T14:46:32Z</time>
      </trkpt>
      <trkpt lat="46.172" lon="6.52418">
        <ele>1277</ele>
        <time>2011-04-30T14:46:36Z</time>
      </trkpt>
      <trkpt lat="46.17207" lon="6.52406">
        <ele>1277</ele>
        <time>2011-04-30T14:46:40Z</time>
      </trkpt>
      <trkpt lat="46.17211" lon="6.52392">
        <ele>1277</ele>
        <time>2011-04-30T14:46:44Z</time>
      </trkpt>
      <trkpt lat="46.17209" lon="6.52376">
        <ele>1270</ele>
        <time>2011-04-30T14:46:49Z</time>
      </trkpt>
      <trkpt lat="46.17217" lon="6.52362">
        <ele>1270</ele>
        <time>2011-04-30T14:46:52Z</time>
      </trkpt>
      <trkpt lat="46.17233" lon="6.52353">
        <ele>1270</ele>
        <time>2011-04-30T14:46:54Z</time>
      </trkpt>
      <trkpt lat="46.17243" lon="6.52346">
        <ele>1270</ele>
        <time>2011-04-30T14:46:55Z</time>
      </trkpt>
      <trkpt lat="46.17257" lon="6.52333">
        <ele>1270</ele>
        <time>2011-04-30T14:46:57Z</time>
      </trkpt>
      <trkpt lat="46.17265" lon="6.52323">
        <ele>1270</ele>
        <time>2011-04-30T14:46:59Z</time>
      </trkpt>
      <trkpt lat="46.17263" lon="6.52305">
        <ele>1270</ele>
        <time>2011-04-30T14:47:01Z</time>
      </trkpt>
      <trkpt lat="46.1726" lon="6.52285">
        <ele>1270</ele>
        <time>2011-04-30T14:47:03Z</time>
      </trkpt>
      <trkpt lat="46.17265" lon="6.52265">
        <ele>1270</ele>
        <time>2011-04-30T14:47:05Z</time>
      </trkpt>
      <trkpt lat="46.17275" lon="6.52238">
        <ele>1270</ele>
        <time>2011-04-30T14:47:07Z</time>
      </trkpt>
      <trkpt lat="46.17285" lon="6.52228">
        <ele>1270</ele>
        <time>2011-04-30T14:47:08Z</time>
      </trkpt>
      <trkpt lat="46.17295" lon="6.52223">
        <ele>1270</ele>
        <time>2011-04-30T14:47:09Z</time>
      </trkpt>
      <trkpt lat="46.17304" lon="6.52216">
        <ele>1270</ele>
        <time>2011-04-30T14:47:10Z</time>
      </trkpt>
      <trkpt lat="46.17312" lon="6.5221">
        <ele>1270</ele>
        <time>2011-04-30T14:47:11Z</time>
      </trkpt>
      <trkpt lat="46.17321" lon="6.52205">
        <ele>1270</ele>
        <time>2011-04-30T14:47:12Z</time>
      </trkpt>
      <trkpt lat="46.17335" lon="6.52207">
        <ele>1270</ele>
        <time>2011-04-30T14:47:14Z</time>
      </trkpt>
      <trkpt lat="46.17344" lon="6.52217">
        <ele>1270</ele>
        <time>2011-04-30T14:47:16Z</time>
      </trkpt>
      <trkpt lat="46.1735" lon="6.52234">
        <ele>1270</ele>
        <time>2011-04-30T14:47:18Z</time>
      </trkpt>
      <trkpt lat="46.17362" lon="6.52248">
        <ele>1270</ele>
        <time>2011-04-30T14:47:20Z</time>
      </trkpt>
      <trkpt lat="46.17375" lon="6.52256">
        <ele>1270</ele>
        <time>2011-04-30T14:47:22Z</time>
      </trkpt>
      <trkpt lat="46.17385" lon="6.52268">
        <ele>1279</ele>
        <time>2011-04-30T14:47:24Z</time>
      </trkpt>
      <trkpt lat="46.17394" lon="6.52283">
        <ele>1279</ele>
        <time>2011-04-30T14:47:26Z</time>
      </trkpt>
      <trkpt lat="46.17404" lon="6.52297">
        <ele>1289</ele>
        <time>2011-04-30T14:47:28Z</time>
      </trkpt>
      <trkpt lat="46.17414" lon="6.52317">
        <ele>1289</ele>
        <time>2011-04-30T14:47:30Z</time>
      </trkpt>
      <trkpt lat="46.17421" lon="6.52328">
        <ele>1296</ele>
        <time>2011-04-30T14:47:32Z</time>
      </trkpt>
      <trkpt lat="46.17429" lon="6.52334">
        <ele>1296</ele>
        <time>2011-04-30T14:47:34Z</time>
      </trkpt>
      <trkpt lat="46.17441" lon="6.52345">
        <ele>1302</ele>
        <time>2011-04-30T14:47:36Z</time>
      </trkpt>
      <trkpt lat="46.17452" lon="6.52358">
        <ele>1302</ele>
        <time>2011-04-30T14:47:38Z</time>
      </trkpt>
      <trkpt lat="46.17459" lon="6.52369">
        <ele>1307</ele>
        <time>2011-04-30T14:47:40Z</time>
      </trkpt>
      <trkpt lat="46.17468" lon="6.52375">
        <ele>1307</ele>
        <time>2011-04-30T14:48:12Z</time>
      </trkpt>
      <trkpt lat="46.17478" lon="6.52386">
        <ele>1307</ele>
        <time>2011-04-30T14:48:14Z</time>
      </trkpt>
      <trkpt lat="46.1749" lon="6.52406">
        <ele>1307</ele>
        <time>2011-04-30T14:48:16Z</time>
      </trkpt>
      <trkpt lat="46.17497" lon="6.52419">
        <ele>1312</ele>
        <time>2011-04-30T14:48:17Z</time>
      </trkpt>
      <trkpt lat="46.17504" lon="6.52433">
        <ele>1312</ele>
        <time>2011-04-30T14:48:18Z</time>
      </trkpt>
      <trkpt lat="46.17511" lon="6.52446">
        <ele>1312</ele>
        <time>2011-04-30T14:48:19Z</time>
      </trkpt>
      <trkpt lat="46.17517" lon="6.52458">
        <ele>1318</ele>
        <time>2011-04-30T14:48:20Z</time>
      </trkpt>
      <trkpt lat="46.17528" lon="6.52473">
        <ele>1318</ele>
        <time>2011-04-30T14:48:22Z</time>
      </trkpt>
      <trkpt lat="46.17536" lon="6.52481">
        <ele>1336</ele>
        <time>2011-04-30T14:48:53Z</time>
      </trkpt>
      <trkpt lat="46.17541" lon="6.52466">
        <ele>1336</ele>
        <time>2011-04-30T14:49:18Z</time>
      </trkpt>
      <trkpt lat="46.17551" lon="6.52461">
        <ele>1336</ele>
        <time>2011-04-30T14:49:21Z</time>
      </trkpt>
      <trkpt lat="46.17556" lon="6.52472">
        <ele>1336</ele>
        <time>2011-04-30T14:49:24Z</time>
      </trkpt>
      <trkpt lat="46.17556" lon="6.52487">
        <ele>1336</ele>
        <time>2011-04-30T14:49:26Z</time>
      </trkpt>
      <trkpt lat="46.17555" lon="6.52504">
        <ele>1344</ele>
        <time>2011-04-30T14:49:28Z</time>
      </trkpt>
      <trkpt lat="46.17556" lon="6.52523">
        <ele>1344</ele>
        <time>2011-04-30T14:49:30Z</time>
      </trkpt>
      <trkpt lat="46.17558" lon="6.52543">
        <ele>1352</ele>
        <time>2011-04-30T14:49:32Z</time>
      </trkpt>
      <trkpt lat="46.17561" lon="6.52559">
        <ele>1352</ele>
        <time>2011-04-30T14:49:34Z</time>
      </trkpt>
      <trkpt lat="46.17564" lon="6.52576">
        <ele>1361</ele>
        <time>2011-04-30T14:49:36Z</time>
      </trkpt>
      <trkpt lat="46.17567" lon="6.5259">
        <ele>1361</ele>
        <time>2011-04-30T14:49:38Z</time>
      </trkpt>
      <trkpt lat="46.17572" lon="6.52602">
        <ele>1369</ele>
        <time>2011-04-30T14:49:58Z</time>
      </trkpt>
      <trkpt lat="46.17572" lon="6.5262">
        <ele>1369</ele>
        <time>2011-04-30T14:50:01Z</time>
      </trkpt>
      <trkpt lat="46.17572" lon="6.52634">
        <ele>1369</ele>
        <time>2011-04-30T14:50:03Z</time>
      </trkpt>
      <trkpt lat="46.17571" lon="6.52652">
        <ele>1375</ele>
        <time>2011-04-30T14:50:06Z</time>
      </trkpt>
      <trkpt lat="46.17575" lon="6.52665">
        <ele>1375</ele>
        <time>2011-04-30T14:50:08Z</time>
      </trkpt>
      <trkpt lat="46.17579" lon="6.52678">
        <ele>1375</ele>
        <time>2011-04-30T14:50:10Z</time>
      </trkpt>
      <trkpt lat="46.17582" lon="6.52693">
        <ele>1382</ele>
        <time>2011-04-30T14:50:12Z</time>
      </trkpt>
      <trkpt lat="46.17584" lon="6.52707">
        <ele>1382</ele>
        <time>2011-04-30T14:50:14Z</time>
      </trkpt>
      <trkpt lat="46.17587" lon="6.52722">
        <ele>1388</ele>
        <time>2011-04-30T14:50:16Z</time>
      </trkpt>
      <trkpt lat="46.17591" lon="6.52737">
        <ele>1388</ele>
        <time>2011-04-30T14:50:18Z</time>
      </trkpt>
      <trkpt lat="46.17597" lon="6.52747">
        <ele>1396</ele>
        <time>2011-04-30T14:50:20Z</time>
      </trkpt>
      <trkpt lat="46.17601" lon="6.52759">
        <ele>1396</ele>
        <time>2011-04-30T14:50:22Z</time>
      </trkpt>
      <trkpt lat="46.17592" lon="6.52769">
        <ele>1410</ele>
        <time>2011-04-30T14:51:17Z</time>
      </trkpt>
      <trkpt lat="46.17596" lon="6.52781">
        <ele>1410</ele>
        <time>2011-04-30T14:52:12Z</time>
      </trkpt>
      <trkpt lat="46.18619" lon="6.51327">
        <ele>1093</ele>
        <time>2011-04-30T15:11:50Z</time>
      </trkpt>
      <trkpt lat="46.18628" lon="6.51321">
        <ele>1103</ele>
        <time>2011-04-30T15:13:28Z</time>
      </trkpt>
      <trkpt lat="46.18641" lon="6.51327">
        <ele>1103</ele>
        <time>2011-04-30T15:14:03Z</time>
      </trkpt>
      <trkpt lat="46.18657" lon="6.51337">
        <ele>1096</ele>
        <time>2011-04-30T15:14:05Z</time>
      </trkpt>
      <trkpt lat="46.18666" lon="6.51342">
        <ele>1096</ele>
        <time>2011-04-30T15:14:06Z</time>
      </trkpt>
      <trkpt lat="46.18682" lon="6.51348">
        <ele>1096</ele>
        <time>2011-04-30T15:14:08Z</time>
      </trkpt>
      <trkpt lat="46.18697" lon="6.51347">
        <ele>1090</ele>
        <time>2011-04-30T15:14:10Z</time>
      </trkpt>
      <trkpt lat="46.1871" lon="6.51339">
        <ele>1090</ele>
        <time>2011-04-30T15:14:12Z</time>
      </trkpt>
      <trkpt lat="46.18716" lon="6.51321">
        <ele>1085</ele>
        <time>2011-04-30T15:14:14Z</time>
      </trkpt>
      <trkpt lat="46.18717" lon="6.51301">
        <ele>1085</ele>
        <time>2011-04-30T15:14:16Z</time>
      </trkpt>
      <trkpt lat="46.18714" lon="6.51282">
        <ele>1078</ele>
        <time>2011-04-30T15:14:18Z</time>
      </trkpt>
      <trkpt lat="46.18715" lon="6.51264">
        <ele>1078</ele>
        <time>2011-04-30T15:14:20Z</time>
      </trkpt>
      <trkpt lat="46.18729" lon="6.51244">
        <ele>1071</ele>
        <time>2011-04-30T15:14:22Z</time>
      </trkpt>
      <trkpt lat="46.18737" lon="6.51236">
        <ele>1071</ele>
        <time>2011-04-30T15:14:23Z</time>
      </trkpt>
      <trkpt lat="46.18745" lon="6.51226">
        <ele>1071</ele>
        <time>2011-04-30T15:14:24Z</time>
      </trkpt>
      <trkpt lat="46.18753" lon="6.51214">
        <ele>1066</ele>
        <time>2011-04-30T15:14:25Z</time>
      </trkpt>
      <trkpt lat="46.1876" lon="6.51203">
        <ele>1066</ele>
        <time>2011-04-30T15:14:26Z</time>
      </trkpt>
      <trkpt lat="46.18768" lon="6.51193">
        <ele>1066</ele>
        <time>2011-04-30T15:14:27Z</time>
      </trkpt>
      <trkpt lat="46.18774" lon="6.51182">
        <ele>1061</ele>
        <time>2011-04-30T15:14:28Z</time>
      </trkpt>
      <trkpt lat="46.18783" lon="6.51161">
        <ele>1061</ele>
        <time>2011-04-30T15:14:30Z</time>
      </trkpt>
      <trkpt lat="46.18787" lon="6.51142">
        <ele>1051</ele>
        <time>2011-04-30T15:14:32Z</time>
      </trkpt>
      <trkpt lat="46.18783" lon="6.51126">
        <ele>1051</ele>
        <time>2011-04-30T15:14:34Z</time>
      </trkpt>
      <trkpt lat="46.1878" lon="6.5111">
        <ele>1045</ele>
        <time>2011-04-30T15:14:37Z</time>
      </trkpt>
      <trkpt lat="46.18769" lon="6.51115">
        <ele>1045</ele>
        <time>2011-04-30T15:14:42Z</time>
      </trkpt>
      <trkpt lat="46.18761" lon="6.51129">
        <ele>1035</ele>
        <time>2011-04-30T15:14:44Z</time>
      </trkpt>
      <trkpt lat="46.1875" lon="6.5114">
        <ele>1035</ele>
        <time>2011-04-30T15:14:46Z</time>
      </trkpt>
      <trkpt lat="46.18741" lon="6.51148">
        <ele>1035</ele>
        <time>2011-04-30T15:14:48Z</time>
      </trkpt>
      <trkpt lat="46.18731" lon="6.51156">
        <ele>1035</ele>
        <time>2011-04-30T15:14:50Z</time>
      </trkpt>
      <trkpt lat="46.18715" lon="6.51161">
        <ele>1028</ele>
        <time>2011-04-30T15:14:52Z</time>
      </trkpt>
      <trkpt lat="46.18706" lon="6.51164">
        <ele>1028</ele>
        <time>2011-04-30T15:14:53Z</time>
      </trkpt>
      <trkpt lat="46.18691" lon="6.51167">
        <ele>1028</ele>
        <time>2011-04-30T15:14:55Z</time>
      </trkpt>
      <trkpt lat="46.18675" lon="6.51165">
        <ele>1028</ele>
        <time>2011-04-30T15:14:57Z</time>
      </trkpt>
      <trkpt lat="46.1866" lon="6.51158">
        <ele>1028</ele>
        <time>2011-04-30T15:14:59Z</time>
      </trkpt>
      <trkpt lat="46.18642" lon="6.5115">
        <ele>1021</ele>
        <time>2011-04-30T15:15:02Z</time>
      </trkpt>
      <trkpt lat="46.18633" lon="6.51141">
        <ele>1021</ele>
        <time>2011-04-30T15:15:06Z</time>
      </trkpt>
      <trkpt lat="46.18624" lon="6.51132">
        <ele>1021</ele>
        <time>2011-04-30T15:15:09Z</time>
      </trkpt>
      <trkpt lat="46.18618" lon="6.51116">
        <ele>1021</ele>
        <time>2011-04-30T15:15:12Z</time>
      </trkpt>
      <trkpt lat="46.18615" lon="6.51102">
        <ele>1021</ele>
        <time>2011-04-30T15:15:14Z</time>
      </trkpt>
      <trkpt lat="46.18608" lon="6.51091">
        <ele>1021</ele>
        <time>2011-04-30T15:15:16Z</time>
      </trkpt>
      <trkpt lat="46.18601" lon="6.5108">
        <ele>1021</ele>
        <time>2011-04-30T15:15:19Z</time>
      </trkpt>
      <trkpt lat="46.18606" lon="6.51096">
        <ele>1021</ele>
        <time>2011-04-30T15:16:04Z</time>
      </trkpt>
      <trkpt lat="46.18615" lon="6.51111">
        <ele>1021</ele>
        <time>2011-04-30T15:16:06Z</time>
      </trkpt>
      <trkpt lat="46.18623" lon="6.51124">
        <ele>1021</ele>
        <time>2011-04-30T15:16:08Z</time>
      </trkpt>
      <trkpt lat="46.18624" lon="6.51138">
        <ele>1021</ele>
        <time>2011-04-30T15:16:12Z</time>
      </trkpt>
      <trkpt lat="46.18616" lon="6.51152">
        <ele>1021</ele>
        <time>2011-04-30T15:16:41Z</time>
      </trkpt>
      <trkpt lat="46.1861" lon="6.51165">
        <ele>1026</ele>
        <time>2011-04-30T15:16:43Z</time>
      </trkpt>
      <trkpt lat="46.18601" lon="6.51171">
        <ele>1026</ele>
        <time>2011-04-30T15:16:45Z</time>
      </trkpt>
      <trkpt lat="46.18587" lon="6.51167">
        <ele>1026</ele>
        <time>2011-04-30T15:16:47Z</time>
      </trkpt>
      <trkpt lat="46.18572" lon="6.51162">
        <ele>1032</ele>
        <time>2011-04-30T15:16:49Z</time>
      </trkpt>
      <trkpt lat="46.18555" lon="6.51161">
        <ele>1032</ele>
        <time>2011-04-30T15:16:51Z</time>
      </trkpt>
      <trkpt lat="46.18544" lon="6.51163">
        <ele>1032</ele>
        <time>2011-04-30T15:16:52Z</time>
      </trkpt>
      <trkpt lat="46.18533" lon="6.51166">
        <ele>1032</ele>
        <time>2011-04-30T15:16:53Z</time>
      </trkpt>
      <trkpt lat="46.18523" lon="6.51171">
        <ele>1032</ele>
        <time>2011-04-30T15:16:54Z</time>
      </trkpt>
      <trkpt lat="46.18513" lon="6.51175">
        <ele>1032</ele>
        <time>2011-04-30T15:16:55Z</time>
      </trkpt>
      <trkpt lat="46.18505" lon="6.5118">
        <ele>1032</ele>
        <time>2011-04-30T15:16:56Z</time>
      </trkpt>
      <trkpt lat="46.18488" lon="6.51191">
        <ele>1032</ele>
        <time>2011-04-30T15:16:58Z</time>
      </trkpt>
      <trkpt lat="46.18479" lon="6.51199">
        <ele>1037</ele>
        <time>2011-04-30T15:16:59Z</time>
      </trkpt>
      <trkpt lat="46.1847" lon="6.51205">
        <ele>1037</ele>
        <time>2011-04-30T15:17:00Z</time>
      </trkpt>
      <trkpt lat="46.18462" lon="6.5121">
        <ele>1037</ele>
        <time>2011-04-30T15:17:01Z</time>
      </trkpt>
      <trkpt lat="46.18445" lon="6.51217">
        <ele>1037</ele>
        <time>2011-04-30T15:17:03Z</time>
      </trkpt>
      <trkpt lat="46.1843" lon="6.51226">
        <ele>1037</ele>
        <time>2011-04-30T15:17:05Z</time>
      </trkpt>
      <trkpt lat="46.18415" lon="6.51235">
        <ele>1037</ele>
        <time>2011-04-30T15:17:07Z</time>
      </trkpt>
      <trkpt lat="46.184" lon="6.51243">
        <ele>1037</ele>
        <time>2011-04-30T15:17:09Z</time>
      </trkpt>
      <trkpt lat="46.18388" lon="6.51253">
        <ele>1037</ele>
        <time>2011-04-30T15:17:11Z</time>
      </trkpt>
      <trkpt lat="46.18381" lon="6.51265">
        <ele>1037</ele>
        <time>2011-04-30T15:17:13Z</time>
      </trkpt>
      <trkpt lat="46.18377" lon="6.51278">
        <ele>1037</ele>
        <time>2011-04-30T15:17:15Z</time>
      </trkpt>
      <trkpt lat="46.18372" lon="6.51291">
        <ele>1042</ele>
        <time>2011-04-30T15:17:18Z</time>
      </trkpt>
      <trkpt lat="46.1838" lon="6.51282">
        <ele>1042</ele>
        <time>2011-04-30T15:17:50Z</time>
      </trkpt>
      <trkpt lat="46.18385" lon="6.5126">
        <ele>1042</ele>
        <time>2011-04-30T15:17:52Z</time>
      </trkpt>
      <trkpt lat="46.18392" lon="6.51236">
        <ele>1042</ele>
        <time>2011-04-30T15:17:54Z</time>
      </trkpt>
      <trkpt lat="46.18397" lon="6.51212">
        <ele>1042</ele>
        <time>2011-04-30T15:17:56Z</time>
      </trkpt>
      <trkpt lat="46.18395" lon="6.51188">
        <ele>1042</ele>
        <time>2011-04-30T15:17:58Z</time>
      </trkpt>
      <trkpt lat="46.1839" lon="6.51171">
        <ele>1042</ele>
        <time>2011-04-30T15:18:00Z</time>
      </trkpt>
      <trkpt lat="46.18385" lon="6.51158">
        <ele>1042</ele>
        <time>2011-04-30T15:18:03Z</time>
      </trkpt>
      <trkpt lat="46.18378" lon="6.51145">
        <ele>1042</ele>
        <time>2011-04-30T15:18:07Z</time>
      </trkpt>
      <trkpt lat="46.18369" lon="6.5113">
        <ele>1042</ele>
        <time>2011-04-30T15:18:11Z</time>
      </trkpt>
      <trkpt lat="46.18362" lon="6.51118">
        <ele>1037</ele>
        <time>2011-04-30T15:18:13Z</time>
      </trkpt>
      <trkpt lat="46.18352" lon="6.51109">
        <ele>1037</ele>
        <time>2011-04-30T15:18:15Z</time>
      </trkpt>
      <trkpt lat="46.18342" lon="6.51106">
        <ele>1037</ele>
        <time>2011-04-30T15:18:17Z</time>
      </trkpt>
      <trkpt lat="46.18331" lon="6.51111">
        <ele>1037</ele>
        <time>2011-04-30T15:18:19Z</time>
      </trkpt>
      <trkpt lat="46.18319" lon="6.51116">
        <ele>1030</ele>
        <time>2011-04-30T15:18:21Z</time>
      </trkpt>
      <trkpt lat="46.18305" lon="6.51121">
        <ele>1030</ele>
        <time>2011-04-30T15:18:23Z</time>
      </trkpt>
      <trkpt lat="46.18291" lon="6.51128">
        <ele>1030</ele>
        <time>2011-04-30T15:18:25Z</time>
      </trkpt>
      <trkpt lat="46.18276" lon="6.51134">
        <ele>1023</ele>
        <time>2011-04-30T15:18:27Z</time>
      </trkpt>
      <trkpt lat="46.18261" lon="6.51142">
        <ele>1023</ele>
        <time>2011-04-30T15:18:29Z</time>
      </trkpt>
      <trkpt lat="46.18246" lon="6.51153">
        <ele>1017</ele>
        <time>2011-04-30T15:18:31Z</time>
      </trkpt>
      <trkpt lat="46.18231" lon="6.51165">
        <ele>1017</ele>
        <time>2011-04-30T15:18:33Z</time>
      </trkpt>
      <trkpt lat="46.18223" lon="6.51171">
        <ele>1017</ele>
        <time>2011-04-30T15:18:34Z</time>
      </trkpt>
      <trkpt lat="46.18208" lon="6.51183">
        <ele>1010</ele>
        <time>2011-04-30T15:18:36Z</time>
      </trkpt>
      <trkpt lat="46.18193" lon="6.51196">
        <ele>1010</ele>
        <time>2011-04-30T15:18:38Z</time>
      </trkpt>
      <trkpt lat="46.18179" lon="6.51209">
        <ele>1003</ele>
        <time>2011-04-30T15:18:40Z</time>
      </trkpt>
      <trkpt lat="46.18166" lon="6.51218">
        <ele>1003</ele>
        <time>2011-04-30T15:18:42Z</time>
      </trkpt>
      <trkpt lat="46.18156" lon="6.51219">
        <ele>997</ele>
        <time>2011-04-30T15:18:44Z</time>
      </trkpt>
      <trkpt lat="46.18148" lon="6.51203">
        <ele>997</ele>
        <time>2011-04-30T15:18:46Z</time>
      </trkpt>
      <trkpt lat="46.18144" lon="6.51191">
        <ele>997</ele>
        <time>2011-04-30T15:18:47Z</time>
      </trkpt>
      <trkpt lat="46.1814" lon="6.51178">
        <ele>997</ele>
        <time>2011-04-30T15:18:48Z</time>
      </trkpt>
      <trkpt lat="46.1813" lon="6.51159">
        <ele>997</ele>
        <time>2011-04-30T15:18:50Z</time>
      </trkpt>
      <trkpt lat="46.18122" lon="6.51152">
        <ele>992</ele>
        <time>2011-04-30T15:18:51Z</time>
      </trkpt>
      <trkpt lat="46.18107" lon="6.5114">
        <ele>992</ele>
        <time>2011-04-30T15:18:53Z</time>
      </trkpt>
      <trkpt lat="46.1809" lon="6.5113">
        <ele>992</ele>
        <time>2011-04-30T15:18:55Z</time>
      </trkpt>
      <trkpt lat="46.18073" lon="6.51123">
        <ele>992</ele>
        <time>2011-04-30T15:18:57Z</time>
      </trkpt>
      <trkpt lat="46.18063" lon="6.51122">
        <ele>992</ele>
        <time>2011-04-30T15:18:58Z</time>
      </trkpt>
      <trkpt lat="46.18046" lon="6.51119">
        <ele>986</ele>
        <time>2011-04-30T15:19:00Z</time>
      </trkpt>
      <trkpt lat="46.18031" lon="6.51114">
        <ele>986</ele>
        <time>2011-04-30T15:19:02Z</time>
      </trkpt>
      <trkpt lat="46.18022" lon="6.51109">
        <ele>986</ele>
        <time>2011-04-30T15:19:09Z</time>
      </trkpt>
      <trkpt lat="46.18014" lon="6.51103">
        <ele>994</ele>
        <time>2011-04-30T15:19:21Z</time>
      </trkpt>
      <trkpt lat="46.17999" lon="6.51098">
        <ele>994</ele>
        <time>2011-04-30T15:19:24Z</time>
      </trkpt>
      <trkpt lat="46.17984" lon="6.51091">
        <ele>994</ele>
        <time>2011-04-30T15:19:26Z</time>
      </trkpt>
      <trkpt lat="46.17972" lon="6.51079">
        <ele>994</ele>
        <time>2011-04-30T15:19:28Z</time>
      </trkpt>
      <trkpt lat="46.17971" lon="6.51061">
        <ele>987</ele>
        <time>2011-04-30T15:19:30Z</time>
      </trkpt>
      <trkpt lat="46.17967" lon="6.51044">
        <ele>987</ele>
        <time>2011-04-30T15:19:32Z</time>
      </trkpt>
      <trkpt lat="46.17959" lon="6.51026">
        <ele>980</ele>
        <time>2011-04-30T15:19:34Z</time>
      </trkpt>
      <trkpt lat="46.17942" lon="6.51013">
        <ele>980</ele>
        <time>2011-04-30T15:19:36Z</time>
      </trkpt>
      <trkpt lat="46.17932" lon="6.51006">
        <ele>973</ele>
        <time>2011-04-30T15:19:37Z</time>
      </trkpt>
      <trkpt lat="46.17923" lon="6.51">
        <ele>973</ele>
        <time>2011-04-30T15:19:38Z</time>
      </trkpt>
      <trkpt lat="46.17913" lon="6.50995">
        <ele>973</ele>
        <time>2011-04-30T15:19:39Z</time>
      </trkpt>
      <trkpt lat="46.17904" lon="6.5099">
        <ele>967</ele>
        <time>2011-04-30T15:19:40Z</time>
      </trkpt>
      <trkpt lat="46.17894" lon="6.50988">
        <ele>967</ele>
        <time>2011-04-30T15:19:41Z</time>
      </trkpt>
      <trkpt lat="46.17885" lon="6.50985">
        <ele>967</ele>
        <time>2011-04-30T15:19:42Z</time>
      </trkpt>
      <trkpt lat="46.17867" lon="6.50979">
        <ele>960</ele>
        <time>2011-04-30T15:19:44Z</time>
      </trkpt>
      <trkpt lat="46.17858" lon="6.50976">
        <ele>960</ele>
        <time>2011-04-30T15:19:45Z</time>
      </trkpt>
      <trkpt lat="46.17849" lon="6.50971">
        <ele>960</ele>
        <time>2011-04-30T15:19:46Z</time>
      </trkpt>
      <trkpt lat="46.17835" lon="6.50958">
        <ele>954</ele>
        <time>2011-04-30T15:19:48Z</time>
      </trkpt>
      <trkpt lat="46.17825" lon="6.50942">
        <ele>954</ele>
        <time>2011-04-30T15:19:50Z</time>
      </trkpt>
      <trkpt lat="46.1782" lon="6.50924">
        <ele>949</ele>
        <time>2011-04-30T15:19:52Z</time>
      </trkpt>
      <trkpt lat="46.17818" lon="6.50907">
        <ele>949</ele>
        <time>2011-04-30T15:19:54Z</time>
      </trkpt>
      <trkpt lat="46.17811" lon="6.50893">
        <ele>949</ele>
        <time>2011-04-30T15:19:56Z</time>
      </trkpt>
      <trkpt lat="46.17798" lon="6.50886">
        <ele>942</ele>
        <time>2011-04-30T15:19:58Z</time>
      </trkpt>
      <trkpt lat="46.1778" lon="6.50882">
        <ele>942</ele>
        <time>2011-04-30T15:20:00Z</time>
      </trkpt>
      <trkpt lat="46.17763" lon="6.50879">
        <ele>942</ele>
        <time>2011-04-30T15:20:02Z</time>
      </trkpt>
      <trkpt lat="46.17746" lon="6.50877">
        <ele>935</ele>
        <time>2011-04-30T15:20:04Z</time>
      </trkpt>
      <trkpt lat="46.1773" lon="6.50873">
        <ele>935</ele>
        <time>2011-04-30T15:20:06Z</time>
      </trkpt>
      <trkpt lat="46.17715" lon="6.50866">
        <ele>935</ele>
        <time>2011-04-30T15:20:08Z</time>
      </trkpt>
      <trkpt lat="46.17702" lon="6.50859">
        <ele>929</ele>
        <time>2011-04-30T15:20:10Z</time>
      </trkpt>
      <trkpt lat="46.17691" lon="6.50853">
        <ele>929</ele>
        <time>2011-04-30T15:20:12Z</time>
      </trkpt>
      <trkpt lat="46.17682" lon="6.50839">
        <ele>929</ele>
        <time>2011-04-30T15:20:14Z</time>
      </trkpt>
      <trkpt lat="46.17673" lon="6.50823">
        <ele>923</ele>
        <time>2011-04-30T15:20:16Z</time>
      </trkpt>
      <trkpt lat="46.17665" lon="6.50806">
        <ele>923</ele>
        <time>2011-04-30T15:20:18Z</time>
      </trkpt>
      <trkpt lat="46.17656" lon="6.50787">
        <ele>923</ele>
        <time>2011-04-30T15:20:20Z</time>
      </trkpt>
      <trkpt lat="46.17646" lon="6.50769">
        <ele>916</ele>
        <time>2011-04-30T15:20:22Z</time>
      </trkpt>
      <trkpt lat="46.17635" lon="6.50753">
        <ele>916</ele>
        <time>2011-04-30T15:20:24Z</time>
      </trkpt>
      <trkpt lat="46.17632" lon="6.50732">
        <ele>916</ele>
        <time>2011-04-30T15:20:26Z</time>
      </trkpt>
      <trkpt lat="46.17642" lon="6.50709">
        <ele>909</ele>
        <time>2011-04-30T15:20:28Z</time>
      </trkpt>
      <trkpt lat="46.17648" lon="6.50697">
        <ele>909</ele>
        <time>2011-04-30T15:20:29Z</time>
      </trkpt>
      <trkpt lat="46.17654" lon="6.50686">
        <ele>909</ele>
        <time>2011-04-30T15:20:30Z</time>
      </trkpt>
      <trkpt lat="46.1766" lon="6.50673">
        <ele>909</ele>
        <time>2011-04-30T15:20:31Z</time>
      </trkpt>
      <trkpt lat="46.17664" lon="6.50661">
        <ele>909</ele>
        <time>2011-04-30T15:20:32Z</time>
      </trkpt>
      <trkpt lat="46.17669" lon="6.5065">
        <ele>904</ele>
        <time>2011-04-30T15:20:33Z</time>
      </trkpt>
      <trkpt lat="46.17675" lon="6.50639">
        <ele>904</ele>
        <time>2011-04-30T15:20:34Z</time>
      </trkpt>
      <trkpt lat="46.1769" lon="6.50626">
        <ele>904</ele>
        <time>2011-04-30T15:20:36Z</time>
      </trkpt>
      <trkpt lat="46.17698" lon="6.50621">
        <ele>899</ele>
        <time>2011-04-30T15:20:37Z</time>
      </trkpt>
      <trkpt lat="46.17707" lon="6.50617">
        <ele>899</ele>
        <time>2011-04-30T15:20:38Z</time>
      </trkpt>
      <trkpt lat="46.17724" lon="6.50608">
        <ele>899</ele>
        <time>2011-04-30T15:20:40Z</time>
      </trkpt>
      <trkpt lat="46.17734" lon="6.50606">
        <ele>893</ele>
        <time>2011-04-30T15:20:41Z</time>
      </trkpt>
      <trkpt lat="46.17743" lon="6.50603">
        <ele>893</ele>
        <time>2011-04-30T15:20:42Z</time>
      </trkpt>
      <trkpt lat="46.17753" lon="6.50601">
        <ele>893</ele>
        <time>2011-04-30T15:20:43Z</time>
      </trkpt>
      <trkpt lat="46.17762" lon="6.506">
        <ele>893</ele>
        <time>2011-04-30T15:20:44Z</time>
      </trkpt>
      <trkpt lat="46.1778" lon="6.50599">
        <ele>885</ele>
        <time>2011-04-30T15:20:46Z</time>
      </trkpt>
      <trkpt lat="46.17796" lon="6.50596">
        <ele>885</ele>
        <time>2011-04-30T15:20:48Z</time>
      </trkpt>
      <trkpt lat="46.17812" lon="6.50591">
        <ele>885</ele>
        <time>2011-04-30T15:20:50Z</time>
      </trkpt>
      <trkpt lat="46.17826" lon="6.50583">
        <ele>880</ele>
        <time>2011-04-30T15:20:52Z</time>
      </trkpt>
      <trkpt lat="46.17836" lon="6.5057">
        <ele>880</ele>
        <time>2011-04-30T15:20:54Z</time>
      </trkpt>
      <trkpt lat="46.17839" lon="6.50557">
        <ele>880</ele>
        <time>2011-04-30T15:20:57Z</time>
      </trkpt>
      <trkpt lat="46.17829" lon="6.50548">
        <ele>889</ele>
        <time>2011-04-30T15:24:25Z</time>
      </trkpt>
      <trkpt lat="46.17814" lon="6.50545">
        <ele>889</ele>
        <time>2011-04-30T15:24:27Z</time>
      </trkpt>
      <trkpt lat="46.17804" lon="6.50542">
        <ele>889</ele>
        <time>2011-04-30T15:24:28Z</time>
      </trkpt>
      <trkpt lat="46.17795" lon="6.50539">
        <ele>889</ele>
        <time>2011-04-30T15:24:29Z</time>
      </trkpt>
      <trkpt lat="46.17784" lon="6.50537">
        <ele>889</ele>
        <time>2011-04-30T15:24:30Z</time>
      </trkpt>
      <trkpt lat="46.17772" lon="6.50534">
        <ele>889</ele>
        <time>2011-04-30T15:24:31Z</time>
      </trkpt>
      <trkpt lat="46.1776" lon="6.50533">
        <ele>889</ele>
        <time>2011-04-30T15:24:32Z</time>
      </trkpt>
      <trkpt lat="46.17746" lon="6.50532">
        <ele>889</ele>
        <time>2011-04-30T15:24:33Z</time>
      </trkpt>
      <trkpt lat="46.17733" lon="6.50533">
        <ele>889</ele>
        <time>2011-04-30T15:24:34Z</time>
      </trkpt>
      <trkpt lat="46.17719" lon="6.50535">
        <ele>889</ele>
        <time>2011-04-30T15:24:35Z</time>
      </trkpt>
      <trkpt lat="46.17705" lon="6.50537">
        <ele>883</ele>
        <time>2011-04-30T15:24:36Z</time>
      </trkpt>
      <trkpt lat="46.17692" lon="6.50538">
        <ele>883</ele>
        <time>2011-04-30T15:24:37Z</time>
      </trkpt>
      <trkpt lat="46.17679" lon="6.50537">
        <ele>883</ele>
        <time>2011-04-30T15:24:38Z</time>
      </trkpt>
      <trkpt lat="46.17667" lon="6.50535">
        <ele>883</ele>
        <time>2011-04-30T15:24:39Z</time>
      </trkpt>
      <trkpt lat="46.17656" lon="6.50531">
        <ele>883</ele>
        <time>2011-04-30T15:24:40Z</time>
      </trkpt>
      <trkpt lat="46.17647" lon="6.50527">
        <ele>883</ele>
        <time>2011-04-30T15:24:41Z</time>
      </trkpt>
      <trkpt lat="46.17638" lon="6.50523">
        <ele>883</ele>
        <time>2011-04-30T15:24:42Z</time>
      </trkpt>
      <trkpt lat="46.17624" lon="6.50519">
        <ele>878</ele>
        <time>2011-04-30T15:24:44Z</time>
      </trkpt>
      <trkpt lat="46.17607" lon="6.50523">
        <ele>878</ele>
        <time>2011-04-30T15:24:46Z</time>
      </trkpt>
      <trkpt lat="46.17597" lon="6.50528">
        <ele>878</ele>
        <time>2011-04-30T15:24:47Z</time>
      </trkpt>
      <trkpt lat="46.17587" lon="6.50536">
        <ele>878</ele>
        <time>2011-04-30T15:24:48Z</time>
      </trkpt>
      <trkpt lat="46.17579" lon="6.50546">
        <ele>878</ele>
        <time>2011-04-30T15:24:49Z</time>
      </trkpt>
      <trkpt lat="46.17571" lon="6.50557">
        <ele>872</ele>
        <time>2011-04-30T15:24:50Z</time>
      </trkpt>
      <trkpt lat="46.17565" lon="6.5057">
        <ele>872</ele>
        <time>2011-04-30T15:24:51Z</time>
      </trkpt>
      <trkpt lat="46.17559" lon="6.50582">
        <ele>872</ele>
        <time>2011-04-30T15:24:52Z</time>
      </trkpt>
      <trkpt lat="46.17551" lon="6.50602">
        <ele>872</ele>
        <time>2011-04-30T15:24:54Z</time>
      </trkpt>
      <trkpt lat="46.17544" lon="6.50617">
        <ele>872</ele>
        <time>2011-04-30T15:24:56Z</time>
      </trkpt>
      <trkpt lat="46.17541" lon="6.50634">
        <ele>872</ele>
        <time>2011-04-30T15:25:11Z</time>
      </trkpt>
      <trkpt lat="46.17539" lon="6.50652">
        <ele>872</ele>
        <time>2011-04-30T15:25:13Z</time>
      </trkpt>
      <trkpt lat="46.17538" lon="6.50678">
        <ele>878</ele>
        <time>2011-04-30T15:25:15Z</time>
      </trkpt>
      <trkpt lat="46.17536" lon="6.50692">
        <ele>878</ele>
        <time>2011-04-30T15:25:16Z</time>
      </trkpt>
      <trkpt lat="46.17532" lon="6.50706">
        <ele>878</ele>
        <time>2011-04-30T15:25:17Z</time>
      </trkpt>
      <trkpt lat="46.17529" lon="6.50721">
        <ele>878</ele>
        <time>2011-04-30T15:25:18Z</time>
      </trkpt>
      <trkpt lat="46.17526" lon="6.50734">
        <ele>878</ele>
        <time>2011-04-30T15:25:19Z</time>
      </trkpt>
      <trkpt lat="46.17522" lon="6.50748">
        <ele>878</ele>
        <time>2011-04-30T15:25:20Z</time>
      </trkpt>
      <trkpt lat="46.17512" lon="6.50768">
        <ele>878</ele>
        <time>2011-04-30T15:25:22Z</time>
      </trkpt>
      <trkpt lat="46.17504" lon="6.50777">
        <ele>878</ele>
        <time>2011-04-30T15:25:23Z</time>
      </trkpt>
      <trkpt lat="46.17495" lon="6.50781">
        <ele>884</ele>
        <time>2011-04-30T15:25:24Z</time>
      </trkpt>
      <trkpt lat="46.17486" lon="6.50781">
        <ele>884</ele>
        <time>2011-04-30T15:25:25Z</time>
      </trkpt>
      <trkpt lat="46.17476" lon="6.50779">
        <ele>884</ele>
        <time>2011-04-30T15:25:26Z</time>
      </trkpt>
      <trkpt lat="46.17466" lon="6.50775">
        <ele>884</ele>
        <time>2011-04-30T15:25:27Z</time>
      </trkpt>
      <trkpt lat="46.17456" lon="6.50769">
        <ele>884</ele>
        <time>2011-04-30T15:25:28Z</time>
      </trkpt>
      <trkpt lat="46.17449" lon="6.5076">
        <ele>884</ele>
        <time>2011-04-30T15:25:29Z</time>
      </trkpt>
      <trkpt lat="46.17444" lon="6.50747">
        <ele>884</ele>
        <time>2011-04-30T15:25:30Z</time>
      </trkpt>
      <trkpt lat="46.17442" lon="6.50732">
        <ele>884</ele>
        <time>2011-04-30T15:25:31Z</time>
      </trkpt>
      <trkpt lat="46.17442" lon="6.50715">
        <ele>884</ele>
        <time>2011-04-30T15:25:32Z</time>
      </trkpt>
      <trkpt lat="46.17443" lon="6.50698">
        <ele>884</ele>
        <time>2011-04-30T15:25:33Z</time>
      </trkpt>
      <trkpt lat="46.17441" lon="6.5068">
        <ele>884</ele>
        <time>2011-04-30T15:25:34Z</time>
      </trkpt>
      <trkpt lat="46.17439" lon="6.50663">
        <ele>891</ele>
        <time>2011-04-30T15:25:35Z</time>
      </trkpt>
      <trkpt lat="46.17436" lon="6.50646">
        <ele>891</ele>
        <time>2011-04-30T15:25:36Z</time>
      </trkpt>
      <trkpt lat="46.17432" lon="6.50632">
        <ele>891</ele>
        <time>2011-04-30T15:25:37Z</time>
      </trkpt>
      <trkpt lat="46.17426" lon="6.50619">
        <ele>891</ele>
        <time>2011-04-30T15:25:38Z</time>
      </trkpt>
      <trkpt lat="46.17419" lon="6.50609">
        <ele>891</ele>
        <time>2011-04-30T15:25:39Z</time>
      </trkpt>
      <trkpt lat="46.1741" lon="6.50602">
        <ele>891</ele>
        <time>2011-04-30T15:25:40Z</time>
      </trkpt>
      <trkpt lat="46.17399" lon="6.50597">
        <ele>891</ele>
        <time>2011-04-30T15:25:41Z</time>
      </trkpt>
      <trkpt lat="46.1739" lon="6.50591">
        <ele>891</ele>
        <time>2011-04-30T15:25:42Z</time>
      </trkpt>
      <trkpt lat="46.17381" lon="6.50582">
        <ele>891</ele>
        <time>2011-04-30T15:25:43Z</time>
      </trkpt>
      <trkpt lat="46.17373" lon="6.50571">
        <ele>891</ele>
        <time>2011-04-30T15:25:44Z</time>
      </trkpt>
      <trkpt lat="46.17368" lon="6.50555">
        <ele>891</ele>
        <time>2011-04-30T15:25:45Z</time>
      </trkpt>
      <trkpt lat="46.17363" lon="6.5054">
        <ele>891</ele>
        <time>2011-04-30T15:25:46Z</time>
      </trkpt>
      <trkpt lat="46.17358" lon="6.50524">
        <ele>891</ele>
        <time>2011-04-30T15:25:47Z</time>
      </trkpt>
      <trkpt lat="46.17353" lon="6.50507">
        <ele>891</ele>
        <time>2011-04-30T15:25:48Z</time>
      </trkpt>
      <trkpt lat="46.17348" lon="6.5049">
        <ele>891</ele>
        <time>2011-04-30T15:25:49Z</time>
      </trkpt>
      <trkpt lat="46.17341" lon="6.50473">
        <ele>891</ele>
        <time>2011-04-30T15:25:50Z</time>
      </trkpt>
      <trkpt lat="46.17333" lon="6.50457">
        <ele>891</ele>
        <time>2011-04-30T15:25:51Z</time>
      </trkpt>
      <trkpt lat="46.17324" lon="6.50441">
        <ele>891</ele>
        <time>2011-04-30T15:25:52Z</time>
      </trkpt>
      <trkpt lat="46.17316" lon="6.50425">
        <ele>891</ele>
        <time>2011-04-30T15:25:53Z</time>
      </trkpt>
      <trkpt lat="46.17308" lon="6.50411">
        <ele>891</ele>
        <time>2011-04-30T15:25:54Z</time>
      </trkpt>
      <trkpt lat="46.173" lon="6.50399">
        <ele>891</ele>
        <time>2011-04-30T15:25:55Z</time>
      </trkpt>
      <trkpt lat="46.1729" lon="6.50388">
        <ele>891</ele>
        <time>2011-04-30T15:25:56Z</time>
      </trkpt>
      <trkpt lat="46.17281" lon="6.50379">
        <ele>891</ele>
        <time>2011-04-30T15:25:57Z</time>
      </trkpt>
      <trkpt lat="46.17272" lon="6.50371">
        <ele>891</ele>
        <time>2011-04-30T15:25:58Z</time>
      </trkpt>
      <trkpt lat="46.17263" lon="6.50366">
        <ele>891</ele>
        <time>2011-04-30T15:25:59Z</time>
      </trkpt>
      <trkpt lat="46.17252" lon="6.50361">
        <ele>891</ele>
        <time>2011-04-30T15:26:00Z</time>
      </trkpt>
      <trkpt lat="46.17241" lon="6.50359">
        <ele>891</ele>
        <time>2011-04-30T15:26:01Z</time>
      </trkpt>
      <trkpt lat="46.1723" lon="6.50356">
        <ele>891</ele>
        <time>2011-04-30T15:26:02Z</time>
      </trkpt>
      <trkpt lat="46.17219" lon="6.50353">
        <ele>891</ele>
        <time>2011-04-30T15:26:03Z</time>
      </trkpt>
      <trkpt lat="46.17209" lon="6.50351">
        <ele>891</ele>
        <time>2011-04-30T15:26:04Z</time>
      </trkpt>
      <trkpt lat="46.17199" lon="6.50349">
        <ele>891</ele>
        <time>2011-04-30T15:26:05Z</time>
      </trkpt>
      <trkpt lat="46.17189" lon="6.50346">
        <ele>891</ele>
        <time>2011-04-30T15:26:06Z</time>
      </trkpt>
      <trkpt lat="46.1718" lon="6.50343">
        <ele>891</ele>
        <time>2011-04-30T15:26:07Z</time>
      </trkpt>
      <trkpt lat="46.1717" lon="6.50337">
        <ele>891</ele>
        <time>2011-04-30T15:26:08Z</time>
      </trkpt>
      <trkpt lat="46.17162" lon="6.50331">
        <ele>891</ele>
        <time>2011-04-30T15:26:09Z</time>
      </trkpt>
      <trkpt lat="46.17155" lon="6.50322">
        <ele>891</ele>
        <time>2011-04-30T15:26:10Z</time>
      </trkpt>
      <trkpt lat="46.17148" lon="6.50312">
        <ele>891</ele>
        <time>2011-04-30T15:26:11Z</time>
      </trkpt>
      <trkpt lat="46.17142" lon="6.50301">
        <ele>891</ele>
        <time>2011-04-30T15:26:12Z</time>
      </trkpt>
      <trkpt lat="46.17137" lon="6.50289">
        <ele>885</ele>
        <time>2011-04-30T15:26:13Z</time>
      </trkpt>
      <trkpt lat="46.17131" lon="6.50264">
        <ele>885</ele>
        <time>2011-04-30T15:26:15Z</time>
      </trkpt>
      <trkpt lat="46.17135" lon="6.5024">
        <ele>885</ele>
        <time>2011-04-30T15:26:17Z</time>
      </trkpt>
      <trkpt lat="46.1714" lon="6.50229">
        <ele>879</ele>
        <time>2011-04-30T15:26:18Z</time>
      </trkpt>
      <trkpt lat="46.17147" lon="6.50219">
        <ele>879</ele>
        <time>2011-04-30T15:26:19Z</time>
      </trkpt>
      <trkpt lat="46.17153" lon="6.50208">
        <ele>879</ele>
        <time>2011-04-30T15:26:20Z</time>
      </trkpt>
      <trkpt lat="46.17164" lon="6.50187">
        <ele>879</ele>
        <time>2011-04-30T15:26:22Z</time>
      </trkpt>
      <trkpt lat="46.17167" lon="6.50164">
        <ele>872</ele>
        <time>2011-04-30T15:26:24Z</time>
      </trkpt>
      <trkpt lat="46.17155" lon="6.50141">
        <ele>872</ele>
        <time>2011-04-30T15:26:26Z</time>
      </trkpt>
      <trkpt lat="46.17146" lon="6.50131">
        <ele>872</ele>
        <time>2011-04-30T15:26:27Z</time>
      </trkpt>
      <trkpt lat="46.17136" lon="6.50122">
        <ele>872</ele>
        <time>2011-04-30T15:26:28Z</time>
      </trkpt>
      <trkpt lat="46.17126" lon="6.50114">
        <ele>872</ele>
        <time>2011-04-30T15:26:29Z</time>
      </trkpt>
      <trkpt lat="46.17117" lon="6.50106">
        <ele>866</ele>
        <time>2011-04-30T15:26:30Z</time>
      </trkpt>
      <trkpt lat="46.17109" lon="6.50098">
        <ele>866</ele>
        <time>2011-04-30T15:26:31Z</time>
      </trkpt>
      <trkpt lat="46.17099" lon="6.5008">
        <ele>866</ele>
        <time>2011-04-30T15:26:33Z</time>
      </trkpt>
      <trkpt lat="46.17094" lon="6.50057">
        <ele>866</ele>
        <time>2011-04-30T15:26:35Z</time>
      </trkpt>
      <trkpt lat="46.17091" lon="6.50034">
        <ele>861</ele>
        <time>2011-04-30T15:26:37Z</time>
      </trkpt>
      <trkpt lat="46.17087" lon="6.50016">
        <ele>861</ele>
        <time>2011-04-30T15:26:39Z</time>
      </trkpt>
      <trkpt lat="46.17084" lon="6.50001">
        <ele>861</ele>
        <time>2011-04-30T15:26:41Z</time>
      </trkpt>
      <trkpt lat="46.17085" lon="6.50022">
        <ele>861</ele>
        <time>2011-04-30T15:26:56Z</time>
      </trkpt>
      <trkpt lat="46.17087" lon="6.50036">
        <ele>861</ele>
        <time>2011-04-30T15:26:57Z</time>
      </trkpt>
      <trkpt lat="46.17089" lon="6.50053">
        <ele>861</ele>
        <time>2011-04-30T15:26:58Z</time>
      </trkpt>
      <trkpt lat="46.17092" lon="6.50069">
        <ele>861</ele>
        <time>2011-04-30T15:26:59Z</time>
      </trkpt>
      <trkpt lat="46.17096" lon="6.50086">
        <ele>861</ele>
        <time>2011-04-30T15:27:00Z</time>
      </trkpt>
      <trkpt lat="46.17102" lon="6.50099">
        <ele>861</ele>
        <time>2011-04-30T15:27:01Z</time>
      </trkpt>
      <trkpt lat="46.17109" lon="6.50109">
        <ele>861</ele>
        <time>2011-04-30T15:27:02Z</time>
      </trkpt>
      <trkpt lat="46.17121" lon="6.50122">
        <ele>861</ele>
        <time>2011-04-30T15:27:04Z</time>
      </trkpt>
      <trkpt lat="46.17132" lon="6.50124">
        <ele>861</ele>
        <time>2011-04-30T15:27:06Z</time>
      </trkpt>
      <trkpt lat="46.17144" lon="6.50118">
        <ele>861</ele>
        <time>2011-04-30T15:27:08Z</time>
      </trkpt>
      <trkpt lat="46.17158" lon="6.50117">
        <ele>861</ele>
        <time>2011-04-30T15:27:10Z</time>
      </trkpt>
      <trkpt lat="46.17174" lon="6.50114">
        <ele>861</ele>
        <time>2011-04-30T15:27:12Z</time>
      </trkpt>
      <trkpt lat="46.1719" lon="6.50107">
        <ele>861</ele>
        <time>2011-04-30T15:27:14Z</time>
      </trkpt>
      <trkpt lat="46.17209" lon="6.50103">
        <ele>861</ele>
        <time>2011-04-30T15:27:16Z</time>
      </trkpt>
      <trkpt lat="46.17218" lon="6.50102">
        <ele>861</ele>
        <time>2011-04-30T15:27:17Z</time>
      </trkpt>
      <trkpt lat="46.17236" lon="6.50103">
        <ele>861</ele>
        <time>2011-04-30T15:27:19Z</time>
      </trkpt>
      <trkpt lat="46.17254" lon="6.50101">
        <ele>861</ele>
        <time>2011-04-30T15:27:21Z</time>
      </trkpt>
      <trkpt lat="46.17264" lon="6.50096">
        <ele>861</ele>
        <time>2011-04-30T15:27:22Z</time>
      </trkpt>
      <trkpt lat="46.17273" lon="6.50088">
        <ele>855</ele>
        <time>2011-04-30T15:27:23Z</time>
      </trkpt>
      <trkpt lat="46.17283" lon="6.50078">
        <ele>855</ele>
        <time>2011-04-30T15:27:24Z</time>
      </trkpt>
      <trkpt lat="46.17294" lon="6.50069">
        <ele>855</ele>
        <time>2011-04-30T15:27:25Z</time>
      </trkpt>
      <trkpt lat="46.17305" lon="6.50057">
        <ele>855</ele>
        <time>2011-04-30T15:27:26Z</time>
      </trkpt>
      <trkpt lat="46.17315" lon="6.50046">
        <ele>855</ele>
        <time>2011-04-30T15:27:27Z</time>
      </trkpt>
      <trkpt lat="46.17326" lon="6.50034">
        <ele>850</ele>
        <time>2011-04-30T15:27:28Z</time>
      </trkpt>
      <trkpt lat="46.17336" lon="6.50025">
        <ele>850</ele>
        <time>2011-04-30T15:27:29Z</time>
      </trkpt>
      <trkpt lat="46.17345" lon="6.50015">
        <ele>850</ele>
        <time>2011-04-30T15:27:30Z</time>
      </trkpt>
      <trkpt lat="46.17354" lon="6.50006">
        <ele>850</ele>
        <time>2011-04-30T15:27:31Z</time>
      </trkpt>
      <trkpt lat="46.17363" lon="6.49997">
        <ele>850</ele>
        <time>2011-04-30T15:27:32Z</time>
      </trkpt>
      <trkpt lat="46.17371" lon="6.49988">
        <ele>850</ele>
        <time>2011-04-30T15:27:33Z</time>
      </trkpt>
      <trkpt lat="46.17379" lon="6.4998">
        <ele>845</ele>
        <time>2011-04-30T15:27:34Z</time>
      </trkpt>
      <trkpt lat="46.17392" lon="6.49963">
        <ele>845</ele>
        <time>2011-04-30T15:27:36Z</time>
      </trkpt>
      <trkpt lat="46.17401" lon="6.49948">
        <ele>845</ele>
        <time>2011-04-30T15:27:38Z</time>
      </trkpt>
      <trkpt lat="46.17408" lon="6.49929">
        <ele>845</ele>
        <time>2011-04-30T15:27:40Z</time>
      </trkpt>
      <trkpt lat="46.17409" lon="6.49909">
        <ele>845</ele>
        <time>2011-04-30T15:27:42Z</time>
      </trkpt>
      <trkpt lat="46.17411" lon="6.49893">
        <ele>838</ele>
        <time>2011-04-30T15:27:45Z</time>
      </trkpt>
      <trkpt lat="46.17407" lon="6.49908">
        <ele>838</ele>
        <time>2011-04-30T15:27:54Z</time>
      </trkpt>
      <trkpt lat="46.17406" lon="6.49926">
        <ele>838</ele>
        <time>2011-04-30T15:27:56Z</time>
      </trkpt>
      <trkpt lat="46.17404" lon="6.49941">
        <ele>838</ele>
        <time>2011-04-30T15:27:58Z</time>
      </trkpt>
      <trkpt lat="46.17415" lon="6.49946">
        <ele>838</ele>
        <time>2011-04-30T15:28:02Z</time>
      </trkpt>
      <trkpt lat="46.17428" lon="6.49945">
        <ele>838</ele>
        <time>2011-04-30T15:28:04Z</time>
      </trkpt>
      <trkpt lat="46.17441" lon="6.49947">
        <ele>838</ele>
        <time>2011-04-30T15:28:06Z</time>
      </trkpt>
      <trkpt lat="46.17451" lon="6.49952">
        <ele>838</ele>
        <time>2011-04-30T15:28:08Z</time>
      </trkpt>
      <trkpt lat="46.17464" lon="6.49952">
        <ele>832</ele>
        <time>2011-04-30T15:28:11Z</time>
      </trkpt>
      <trkpt lat="46.17469" lon="6.4994">
        <ele>832</ele>
        <time>2011-04-30T15:28:13Z</time>
      </trkpt>
      <trkpt lat="46.17475" lon="6.49915">
        <ele>832</ele>
        <time>2011-04-30T15:28:15Z</time>
      </trkpt>
      <trkpt lat="46.17478" lon="6.49902">
        <ele>832</ele>
        <time>2011-04-30T15:28:16Z</time>
      </trkpt>
      <trkpt lat="46.17481" lon="6.49889">
        <ele>832</ele>
        <time>2011-04-30T15:28:17Z</time>
      </trkpt>
      <trkpt lat="46.17484" lon="6.49875">
        <ele>832</ele>
        <time>2011-04-30T15:28:18Z</time>
      </trkpt>
      <trkpt lat="46.17487" lon="6.49861">
        <ele>832</ele>
        <time>2011-04-30T15:28:19Z</time>
      </trkpt>
      <trkpt lat="46.1749" lon="6.49848">
        <ele>827</ele>
        <time>2011-04-30T15:28:20Z</time>
      </trkpt>
      <trkpt lat="46.17492" lon="6.49834">
        <ele>827</ele>
        <time>2011-04-30T15:28:21Z</time>
      </trkpt>
      <trkpt lat="46.17497" lon="6.49811">
        <ele>827</ele>
        <time>2011-04-30T15:28:23Z</time>
      </trkpt>
      <trkpt lat="46.17498" lon="6.49788">
        <ele>827</ele>
        <time>2011-04-30T15:28:25Z</time>
      </trkpt>
      <trkpt lat="46.17498" lon="6.49768">
        <ele>827</ele>
        <time>2011-04-30T15:28:27Z</time>
      </trkpt>
      <trkpt lat="46.17498" lon="6.49753">
        <ele>827</ele>
        <time>2011-04-30T15:28:29Z</time>
      </trkpt>
      <trkpt lat="46.17492" lon="6.49765">
        <ele>827</ele>
        <time>2011-04-30T15:28:40Z</time>
      </trkpt>
      <trkpt lat="46.17494" lon="6.49785">
        <ele>827</ele>
        <time>2011-04-30T15:28:42Z</time>
      </trkpt>
      <trkpt lat="46.17492" lon="6.4981">
        <ele>827</ele>
        <time>2011-04-30T15:28:44Z</time>
      </trkpt>
      <trkpt lat="46.17489" lon="6.49825">
        <ele>827</ele>
        <time>2011-04-30T15:28:45Z</time>
      </trkpt>
      <trkpt lat="46.17486" lon="6.49844">
        <ele>827</ele>
        <time>2011-04-30T15:28:46Z</time>
      </trkpt>
      <trkpt lat="46.17481" lon="6.49865">
        <ele>833</ele>
        <time>2011-04-30T15:28:47Z</time>
      </trkpt>
      <trkpt lat="46.17477" lon="6.49885">
        <ele>833</ele>
        <time>2011-04-30T15:28:48Z</time>
      </trkpt>
      <trkpt lat="46.17473" lon="6.49904">
        <ele>833</ele>
        <time>2011-04-30T15:28:49Z</time>
      </trkpt>
      <trkpt lat="46.17469" lon="6.49921">
        <ele>833</ele>
        <time>2011-04-30T15:28:50Z</time>
      </trkpt>
      <trkpt lat="46.17466" lon="6.49935">
        <ele>833</ele>
        <time>2011-04-30T15:28:51Z</time>
      </trkpt>
      <trkpt lat="46.17461" lon="6.49954">
        <ele>833</ele>
        <time>2011-04-30T15:28:53Z</time>
      </trkpt>
      <trkpt lat="46.17464" lon="6.49966">
        <ele>833</ele>
        <time>2011-04-30T15:28:57Z</time>
      </trkpt>
      <trkpt lat="46.17472" lon="6.49974">
        <ele>833</ele>
        <time>2011-04-30T15:28:59Z</time>
      </trkpt>
      <trkpt lat="46.17486" lon="6.49985">
        <ele>833</ele>
        <time>2011-04-30T15:29:01Z</time>
      </trkpt>
      <trkpt lat="46.17494" lon="6.49989">
        <ele>833</ele>
        <time>2011-04-30T15:29:02Z</time>
      </trkpt>
      <trkpt lat="46.17509" lon="6.49991">
        <ele>833</ele>
        <time>2011-04-30T15:29:04Z</time>
      </trkpt>
      <trkpt lat="46.17526" lon="6.49981">
        <ele>828</ele>
        <time>2011-04-30T15:29:06Z</time>
      </trkpt>
      <trkpt lat="46.17532" lon="6.49971">
        <ele>828</ele>
        <time>2011-04-30T15:29:07Z</time>
      </trkpt>
      <trkpt lat="46.17539" lon="6.49959">
        <ele>828</ele>
        <time>2011-04-30T15:29:08Z</time>
      </trkpt>
      <trkpt lat="46.17544" lon="6.49947">
        <ele>828</ele>
        <time>2011-04-30T15:29:09Z</time>
      </trkpt>
      <trkpt lat="46.17549" lon="6.49933">
        <ele>822</ele>
        <time>2011-04-30T15:29:10Z</time>
      </trkpt>
      <trkpt lat="46.17551" lon="6.49919">
        <ele>822</ele>
        <time>2011-04-30T15:29:11Z</time>
      </trkpt>
      <trkpt lat="46.17551" lon="6.49895">
        <ele>822</ele>
        <time>2011-04-30T15:29:13Z</time>
      </trkpt>
      <trkpt lat="46.17547" lon="6.49883">
        <ele>822</ele>
        <time>2011-04-30T15:29:14Z</time>
      </trkpt>
      <trkpt lat="46.17544" lon="6.4987">
        <ele>822</ele>
        <time>2011-04-30T15:29:15Z</time>
      </trkpt>
      <trkpt lat="46.17541" lon="6.49857">
        <ele>816</ele>
        <time>2011-04-30T15:29:16Z</time>
      </trkpt>
      <trkpt lat="46.17536" lon="6.49834">
        <ele>816</ele>
        <time>2011-04-30T15:29:18Z</time>
      </trkpt>
      <trkpt lat="46.17536" lon="6.49821">
        <ele>816</ele>
        <time>2011-04-30T15:29:19Z</time>
      </trkpt>
      <trkpt lat="46.1754" lon="6.49795">
        <ele>809</ele>
        <time>2011-04-30T15:29:21Z</time>
      </trkpt>
      <trkpt lat="46.17542" lon="6.49781">
        <ele>809</ele>
        <time>2011-04-30T15:29:22Z</time>
      </trkpt>
      <trkpt lat="46.17544" lon="6.49768">
        <ele>809</ele>
        <time>2011-04-30T15:29:23Z</time>
      </trkpt>
      <trkpt lat="46.17544" lon="6.49753">
        <ele>809</ele>
        <time>2011-04-30T15:29:24Z</time>
      </trkpt>
      <trkpt lat="46.17544" lon="6.49737">
        <ele>809</ele>
        <time>2011-04-30T15:29:25Z</time>
      </trkpt>
      <trkpt lat="46.17543" lon="6.49721">
        <ele>809</ele>
        <time>2011-04-30T15:29:26Z</time>
      </trkpt>
      <trkpt lat="46.17542" lon="6.49706">
        <ele>804</ele>
        <time>2011-04-30T15:29:27Z</time>
      </trkpt>
      <trkpt lat="46.17538" lon="6.49683">
        <ele>804</ele>
        <time>2011-04-30T15:29:29Z</time>
      </trkpt>
      <trkpt lat="46.17528" lon="6.49668">
        <ele>804</ele>
        <time>2011-04-30T15:29:31Z</time>
      </trkpt>
      <trkpt lat="46.17514" lon="6.49658">
        <ele>804</ele>
        <time>2011-04-30T15:29:33Z</time>
      </trkpt>
      <trkpt lat="46.17499" lon="6.49649">
        <ele>804</ele>
        <time>2011-04-30T15:29:35Z</time>
      </trkpt>
      <trkpt lat="46.17489" lon="6.49637">
        <ele>804</ele>
        <time>2011-04-30T15:29:37Z</time>
      </trkpt>
      <trkpt lat="46.17484" lon="6.49623">
        <ele>804</ele>
        <time>2011-04-30T15:29:39Z</time>
      </trkpt>
      <trkpt lat="46.17484" lon="6.49605">
        <ele>804</ele>
        <time>2011-04-30T15:29:41Z</time>
      </trkpt>
      <trkpt lat="46.17486" lon="6.49586">
        <ele>798</ele>
        <time>2011-04-30T15:29:43Z</time>
      </trkpt>
      <trkpt lat="46.17489" lon="6.49566">
        <ele>798</ele>
        <time>2011-04-30T15:29:45Z</time>
      </trkpt>
      <trkpt lat="46.17493" lon="6.4955">
        <ele>798</ele>
        <time>2011-04-30T15:29:47Z</time>
      </trkpt>
      <trkpt lat="46.175" lon="6.49537">
        <ele>798</ele>
        <time>2011-04-30T15:29:49Z</time>
      </trkpt>
      <trkpt lat="46.17505" lon="6.49525">
        <ele>798</ele>
        <time>2011-04-30T15:29:51Z</time>
      </trkpt>
      <trkpt lat="46.17498" lon="6.49509">
        <ele>798</ele>
        <time>2011-04-30T15:29:54Z</time>
      </trkpt>
      <trkpt lat="46.17487" lon="6.49493">
        <ele>792</ele>
        <time>2011-04-30T15:29:56Z</time>
      </trkpt>
      <trkpt lat="46.17481" lon="6.49482">
        <ele>792</ele>
        <time>2011-04-30T15:29:57Z</time>
      </trkpt>
      <trkpt lat="46.17474" lon="6.49471">
        <ele>792</ele>
        <time>2011-04-30T15:29:58Z</time>
      </trkpt>
      <trkpt lat="46.17463" lon="6.49453">
        <ele>792</ele>
        <time>2011-04-30T15:30:00Z</time>
      </trkpt>
      <trkpt lat="46.17449" lon="6.49437">
        <ele>792</ele>
        <time>2011-04-30T15:30:02Z</time>
      </trkpt>
      <trkpt lat="46.17442" lon="6.49428">
        <ele>792</ele>
        <time>2011-04-30T15:30:03Z</time>
      </trkpt>
      <trkpt lat="46.17434" lon="6.49419">
        <ele>792</ele>
        <time>2011-04-30T15:30:04Z</time>
      </trkpt>
      <trkpt lat="46.17426" lon="6.49408">
        <ele>792</ele>
        <time>2011-04-30T15:30:05Z</time>
      </trkpt>
      <trkpt lat="46.17417" lon="6.49398">
        <ele>792</ele>
        <time>2011-04-30T15:30:06Z</time>
      </trkpt>
      <trkpt lat="46.17408" lon="6.49386">
        <ele>792</ele>
        <time>2011-04-30T15:30:07Z</time>
      </trkpt>
      <trkpt lat="46.17399" lon="6.49374">
        <ele>792</ele>
        <time>2011-04-30T15:30:08Z</time>
      </trkpt>
      <trkpt lat="46.17391" lon="6.49365">
        <ele>792</ele>
        <time>2011-04-30T15:30:09Z</time>
      </trkpt>
      <trkpt lat="46.17384" lon="6.49357">
        <ele>792</ele>
        <time>2011-04-30T15:30:10Z</time>
      </trkpt>
      <trkpt lat="46.17376" lon="6.49349">
        <ele>792</ele>
        <time>2011-04-30T15:30:11Z</time>
      </trkpt>
      <trkpt lat="46.17367" lon="6.49342">
        <ele>792</ele>
        <time>2011-04-30T15:30:12Z</time>
      </trkpt>
      <trkpt lat="46.17356" lon="6.49335">
        <ele>798</ele>
        <time>2011-04-30T15:30:13Z</time>
      </trkpt>
      <trkpt lat="46.17345" lon="6.49327">
        <ele>798</ele>
        <time>2011-04-30T15:30:14Z</time>
      </trkpt>
      <trkpt lat="46.17333" lon="6.49319">
        <ele>798</ele>
        <time>2011-04-30T15:30:15Z</time>
      </trkpt>
      <trkpt lat="46.17323" lon="6.49312">
        <ele>798</ele>
        <time>2011-04-30T15:30:16Z</time>
      </trkpt>
      <trkpt lat="46.17315" lon="6.49306">
        <ele>798</ele>
        <time>2011-04-30T15:30:17Z</time>
      </trkpt>
      <trkpt lat="46.17302" lon="6.49292">
        <ele>798</ele>
        <time>2011-04-30T15:30:19Z</time>
      </trkpt>
      <trkpt lat="46.17292" lon="6.49282">
        <ele>804</ele>
        <time>2011-04-30T15:30:21Z</time>
      </trkpt>
      <trkpt lat="46.17281" lon="6.49274">
        <ele>804</ele>
        <time>2011-04-30T15:30:23Z</time>
      </trkpt>
      <trkpt lat="46.1727" lon="6.49266">
        <ele>804</ele>
        <time>2011-04-30T15:30:25Z</time>
      </trkpt>
      <trkpt lat="46.17262" lon="6.49257">
        <ele>804</ele>
        <time>2011-04-30T15:30:28Z</time>
      </trkpt>
      <trkpt lat="46.17268" lon="6.49266">
        <ele>825</ele>
        <time>2011-04-30T15:31:07Z</time>
      </trkpt>
      <trkpt lat="46.17266" lon="6.49251">
        <ele>825</ele>
        <time>2011-04-30T15:31:37Z</time>
      </trkpt>
      <trkpt lat="46.17265" lon="6.49265">
        <ele>825</ele>
        <time>2011-04-30T15:31:44Z</time>
      </trkpt>
      <trkpt lat="46.17275" lon="6.49273">
        <ele>815</ele>
        <time>2011-04-30T15:31:49Z</time>
      </trkpt>
      <trkpt lat="46.17285" lon="6.49276">
        <ele>815</ele>
        <time>2011-04-30T15:31:52Z</time>
      </trkpt>
      <trkpt lat="46.17295" lon="6.49282">
        <ele>815</ele>
        <time>2011-04-30T15:31:55Z</time>
      </trkpt>
      <trkpt lat="46.17303" lon="6.49288">
        <ele>815</ele>
        <time>2011-04-30T15:31:58Z</time>
      </trkpt>
      <trkpt lat="46.17312" lon="6.49297">
        <ele>806</ele>
        <time>2011-04-30T15:32:00Z</time>
      </trkpt>
      <trkpt lat="46.17323" lon="6.49308">
        <ele>806</ele>
        <time>2011-04-30T15:32:03Z</time>
      </trkpt>
      <trkpt lat="46.17333" lon="6.49314">
        <ele>799</ele>
        <time>2011-04-30T15:32:07Z</time>
      </trkpt>
      <trkpt lat="46.17342" lon="6.49323">
        <ele>799</ele>
        <time>2011-04-30T15:32:10Z</time>
      </trkpt>
      <trkpt lat="46.17349" lon="6.49335">
        <ele>799</ele>
        <time>2011-04-30T15:32:23Z</time>
      </trkpt>
      <trkpt lat="46.17358" lon="6.49343">
        <ele>799</ele>
        <time>2011-04-30T15:32:25Z</time>
      </trkpt>
      <trkpt lat="46.17368" lon="6.49346">
        <ele>794</ele>
        <time>2011-04-30T15:32:27Z</time>
      </trkpt>
      <trkpt lat="46.17377" lon="6.49353">
        <ele>794</ele>
        <time>2011-04-30T15:32:29Z</time>
      </trkpt>
      <trkpt lat="46.17388" lon="6.49363">
        <ele>794</ele>
        <time>2011-04-30T15:32:31Z</time>
      </trkpt>
      <trkpt lat="46.174" lon="6.49378">
        <ele>794</ele>
        <time>2011-04-30T15:32:33Z</time>
      </trkpt>
      <trkpt lat="46.17413" lon="6.49395">
        <ele>794</ele>
        <time>2011-04-30T15:32:35Z</time>
      </trkpt>
      <trkpt lat="46.17419" lon="6.49404">
        <ele>794</ele>
        <time>2011-04-30T15:32:36Z</time>
      </trkpt>
      <trkpt lat="46.17433" lon="6.49418">
        <ele>794</ele>
        <time>2011-04-30T15:32:38Z</time>
      </trkpt>
      <trkpt lat="46.17443" lon="6.49428">
        <ele>794</ele>
        <time>2011-04-30T15:32:40Z</time>
      </trkpt>
      <trkpt lat="46.17451" lon="6.4944">
        <ele>794</ele>
        <time>2011-04-30T15:32:42Z</time>
      </trkpt>
      <trkpt lat="46.17459" lon="6.49451">
        <ele>794</ele>
        <time>2011-04-30T15:32:44Z</time>
      </trkpt>
      <trkpt lat="46.17467" lon="6.4946">
        <ele>794</ele>
        <time>2011-04-30T15:32:54Z</time>
      </trkpt>
      <trkpt lat="46.17472" lon="6.49474">
        <ele>794</ele>
        <time>2011-04-30T15:33:35Z</time>
      </trkpt>
      <trkpt lat="46.17476" lon="6.49487">
        <ele>794</ele>
        <time>2011-04-30T15:33:37Z</time>
      </trkpt>
      <trkpt lat="46.17484" lon="6.49497">
        <ele>794</ele>
        <time>2011-04-30T15:33:40Z</time>
      </trkpt>
      <trkpt lat="46.17484" lon="6.49483">
        <ele>794</ele>
        <time>2011-04-30T15:34:10Z</time>
      </trkpt>
      <trkpt lat="46.17477" lon="6.49468">
        <ele>794</ele>
        <time>2011-04-30T15:34:12Z</time>
      </trkpt>
      <trkpt lat="46.17467" lon="6.49454">
        <ele>794</ele>
        <time>2011-04-30T15:34:14Z</time>
      </trkpt>
      <trkpt lat="46.17458" lon="6.49443">
        <ele>794</ele>
        <time>2011-04-30T15:34:16Z</time>
      </trkpt>
      <trkpt lat="46.17445" lon="6.49428">
        <ele>794</ele>
        <time>2011-04-30T15:34:18Z</time>
      </trkpt>
      <trkpt lat="46.17438" lon="6.49419">
        <ele>794</ele>
        <time>2011-04-30T15:34:19Z</time>
      </trkpt>
      <trkpt lat="46.17428" lon="6.4941">
        <ele>794</ele>
        <time>2011-04-30T15:34:20Z</time>
      </trkpt>
      <trkpt lat="46.17419" lon="6.49399">
        <ele>794</ele>
        <time>2011-04-30T15:34:21Z</time>
      </trkpt>
      <trkpt lat="46.17411" lon="6.49389">
        <ele>794</ele>
        <time>2011-04-30T15:34:22Z</time>
      </trkpt>
      <trkpt lat="46.17403" lon="6.49378">
        <ele>794</ele>
        <time>2011-04-30T15:34:23Z</time>
      </trkpt>
      <trkpt lat="46.17395" lon="6.49367">
        <ele>794</ele>
        <time>2011-04-30T15:34:24Z</time>
      </trkpt>
      <trkpt lat="46.17388" lon="6.49358">
        <ele>799</ele>
        <time>2011-04-30T15:34:25Z</time>
      </trkpt>
      <trkpt lat="46.1738" lon="6.4935">
        <ele>799</ele>
        <time>2011-04-30T15:34:26Z</time>
      </trkpt>
      <trkpt lat="46.17372" lon="6.49344">
        <ele>799</ele>
        <time>2011-04-30T15:34:27Z</time>
      </trkpt>
      <trkpt lat="46.17363" lon="6.49336">
        <ele>799</ele>
        <time>2011-04-30T15:34:28Z</time>
      </trkpt>
      <trkpt lat="46.17353" lon="6.49328">
        <ele>799</ele>
        <time>2011-04-30T15:34:29Z</time>
      </trkpt>
      <trkpt lat="46.17343" lon="6.4932">
        <ele>799</ele>
        <time>2011-04-30T15:34:30Z</time>
      </trkpt>
      <trkpt lat="46.17334" lon="6.49314">
        <ele>799</ele>
        <time>2011-04-30T15:34:31Z</time>
      </trkpt>
      <trkpt lat="46.17325" lon="6.49308">
        <ele>799</ele>
        <time>2011-04-30T15:34:32Z</time>
      </trkpt>
      <trkpt lat="46.1731" lon="6.49293">
        <ele>799</ele>
        <time>2011-04-30T15:34:34Z</time>
      </trkpt>
      <trkpt lat="46.17294" lon="6.49281">
        <ele>799</ele>
        <time>2011-04-30T15:34:36Z</time>
      </trkpt>
      <trkpt lat="46.17278" lon="6.49272">
        <ele>804</ele>
        <time>2011-04-30T15:34:38Z</time>
      </trkpt>
      <trkpt lat="46.17267" lon="6.49266">
        <ele>804</ele>
        <time>2011-04-30T15:34:40Z</time>
      </trkpt>
      <trkpt lat="46.17265" lon="6.49247">
        <ele>804</ele>
        <time>2011-04-30T15:34:43Z</time>
      </trkpt>
      <trkpt lat="46.17265" lon="6.4922">
        <ele>804</ele>
        <time>2011-04-30T15:34:45Z</time>
      </trkpt>
      <trkpt lat="46.17263" lon="6.49199">
        <ele>804</ele>
        <time>2011-04-30T15:34:47Z</time>
      </trkpt>
      <trkpt lat="46.17262" lon="6.49183">
        <ele>804</ele>
        <time>2011-04-30T15:34:49Z</time>
      </trkpt>
      <trkpt lat="46.17256" lon="6.49167">
        <ele>804</ele>
        <time>2011-04-30T15:34:52Z</time>
      </trkpt>
      <trkpt lat="46.17247" lon="6.49158">
        <ele>804</ele>
        <time>2011-04-30T15:34:55Z</time>
      </trkpt>
      <trkpt lat="46.17237" lon="6.49148">
        <ele>804</ele>
        <time>2011-04-30T15:34:58Z</time>
      </trkpt>
      <trkpt lat="46.17237" lon="6.49134">
        <ele>804</ele>
        <time>2011-04-30T15:35:00Z</time>
      </trkpt>
      <trkpt lat="46.17237" lon="6.49115">
        <ele>804</ele>
        <time>2011-04-30T15:35:02Z</time>
      </trkpt>
      <trkpt lat="46.17237" lon="6.49099">
        <ele>798</ele>
        <time>2011-04-30T15:35:04Z</time>
      </trkpt>
      <trkpt lat="46.17229" lon="6.49082">
        <ele>793</ele>
        <time>2011-04-30T15:35:07Z</time>
      </trkpt>
      <trkpt lat="46.1722" lon="6.49075">
        <ele>793</ele>
        <time>2011-04-30T15:35:09Z</time>
      </trkpt>
      <trkpt lat="46.17212" lon="6.49067">
        <ele>793</ele>
        <time>2011-04-30T15:35:11Z</time>
      </trkpt>
      <trkpt lat="46.17204" lon="6.49057">
        <ele>786</ele>
        <time>2011-04-30T15:35:13Z</time>
      </trkpt>
      <trkpt lat="46.17195" lon="6.49049">
        <ele>786</ele>
        <time>2011-04-30T15:35:15Z</time>
      </trkpt>
      <trkpt lat="46.17188" lon="6.49039">
        <ele>779</ele>
        <time>2011-04-30T15:35:17Z</time>
      </trkpt>
      <trkpt lat="46.17183" lon="6.49026">
        <ele>779</ele>
        <time>2011-04-30T15:35:19Z</time>
      </trkpt>
      <trkpt lat="46.17175" lon="6.49013">
        <ele>779</ele>
        <time>2011-04-30T15:35:21Z</time>
      </trkpt>
      <trkpt lat="46.17165" lon="6.49001">
        <ele>769</ele>
        <time>2011-04-30T15:35:23Z</time>
      </trkpt>
      <trkpt lat="46.17154" lon="6.48988">
        <ele>769</ele>
        <time>2011-04-30T15:35:25Z</time>
      </trkpt>
      <trkpt lat="46.17139" lon="6.48976">
        <ele>769</ele>
        <time>2011-04-30T15:35:27Z</time>
      </trkpt>
      <trkpt lat="46.1713" lon="6.48971">
        <ele>769</ele>
        <time>2011-04-30T15:35:28Z</time>
      </trkpt>
      <trkpt lat="46.17114" lon="6.48963">
        <ele>769</ele>
        <time>2011-04-30T15:35:30Z</time>
      </trkpt>
      <trkpt lat="46.171" lon="6.48956">
        <ele>769</ele>
        <time>2011-04-30T15:35:32Z</time>
      </trkpt>
      <trkpt lat="46.17088" lon="6.48952">
        <ele>769</ele>
        <time>2011-04-30T15:35:34Z</time>
      </trkpt>
      <trkpt lat="46.17076" lon="6.48951">
        <ele>769</ele>
        <time>2011-04-30T15:35:36Z</time>
      </trkpt>
      <trkpt lat="46.17062" lon="6.48953">
        <ele>769</ele>
        <time>2011-04-30T15:35:38Z</time>
      </trkpt>
      <trkpt lat="46.1705" lon="6.48952">
        <ele>769</ele>
        <time>2011-04-30T15:35:40Z</time>
      </trkpt>
      <trkpt lat="46.17036" lon="6.48948">
        <ele>769</ele>
        <time>2011-04-30T15:35:42Z</time>
      </trkpt>
      <trkpt lat="46.17022" lon="6.48942">
        <ele>769</ele>
        <time>2011-04-30T15:35:44Z</time>
      </trkpt>
      <trkpt lat="46.17008" lon="6.48936">
        <ele>769</ele>
        <time>2011-04-30T15:35:46Z</time>
      </trkpt>
      <trkpt lat="46.16993" lon="6.48932">
        <ele>775</ele>
        <time>2011-04-30T15:35:48Z</time>
      </trkpt>
      <trkpt lat="46.16981" lon="6.4893">
        <ele>775</ele>
        <time>2011-04-30T15:35:50Z</time>
      </trkpt>
      <trkpt lat="46.16971" lon="6.48927">
        <ele>775</ele>
        <time>2011-04-30T15:35:53Z</time>
      </trkpt>
      <trkpt lat="46.16958" lon="6.48926">
        <ele>780</ele>
        <time>2011-04-30T15:35:56Z</time>
      </trkpt>
      <trkpt lat="46.16948" lon="6.48927">
        <ele>780</ele>
        <time>2011-04-30T15:35:58Z</time>
      </trkpt>
      <trkpt lat="46.16938" lon="6.48925">
        <ele>780</ele>
        <time>2011-04-30T15:36:00Z</time>
      </trkpt>
      <trkpt lat="46.16924" lon="6.48918">
        <ele>780</ele>
        <time>2011-04-30T15:36:02Z</time>
      </trkpt>
      <trkpt lat="46.16909" lon="6.4891">
        <ele>780</ele>
        <time>2011-04-30T15:36:04Z</time>
      </trkpt>
      <trkpt lat="46.16893" lon="6.48907">
        <ele>780</ele>
        <time>2011-04-30T15:36:06Z</time>
      </trkpt>
      <trkpt lat="46.16875" lon="6.48914">
        <ele>780</ele>
        <time>2011-04-30T15:36:08Z</time>
      </trkpt>
      <trkpt lat="46.16866" lon="6.48921">
        <ele>780</ele>
        <time>2011-04-30T15:36:09Z</time>
      </trkpt>
      <trkpt lat="46.16857" lon="6.48929">
        <ele>785</ele>
        <time>2011-04-30T15:36:10Z</time>
      </trkpt>
      <trkpt lat="46.16848" lon="6.48938">
        <ele>785</ele>
        <time>2011-04-30T15:36:11Z</time>
      </trkpt>
      <trkpt lat="46.16839" lon="6.48947">
        <ele>785</ele>
        <time>2011-04-30T15:36:12Z</time>
      </trkpt>
      <trkpt lat="46.1683" lon="6.48956">
        <ele>785</ele>
        <time>2011-04-30T15:36:13Z</time>
      </trkpt>
      <trkpt lat="46.1682" lon="6.48965">
        <ele>785</ele>
        <time>2011-04-30T15:36:14Z</time>
      </trkpt>
      <trkpt lat="46.16809" lon="6.48973">
        <ele>785</ele>
        <time>2011-04-30T15:36:15Z</time>
      </trkpt>
      <trkpt lat="46.16798" lon="6.48979">
        <ele>785</ele>
        <time>2011-04-30T15:36:16Z</time>
      </trkpt>
      <trkpt lat="46.16786" lon="6.48983">
        <ele>785</ele>
        <time>2011-04-30T15:36:17Z</time>
      </trkpt>
      <trkpt lat="46.16774" lon="6.48988">
        <ele>785</ele>
        <time>2011-04-30T15:36:18Z</time>
      </trkpt>
      <trkpt lat="46.16762" lon="6.4899">
        <ele>785</ele>
        <time>2011-04-30T15:36:19Z</time>
      </trkpt>
      <trkpt lat="46.16751" lon="6.48991">
        <ele>785</ele>
        <time>2011-04-30T15:36:20Z</time>
      </trkpt>
      <trkpt lat="46.1674" lon="6.48991">
        <ele>791</ele>
        <time>2011-04-30T15:36:21Z</time>
      </trkpt>
      <trkpt lat="46.1673" lon="6.4899">
        <ele>791</ele>
        <time>2011-04-30T15:36:22Z</time>
      </trkpt>
      <trkpt lat="46.1672" lon="6.48988">
        <ele>791</ele>
        <time>2011-04-30T15:36:23Z</time>
      </trkpt>
      <trkpt lat="46.16705" lon="6.48989">
        <ele>791</ele>
        <time>2011-04-30T15:36:25Z</time>
      </trkpt>
      <trkpt lat="46.16694" lon="6.49">
        <ele>791</ele>
        <time>2011-04-30T15:36:27Z</time>
      </trkpt>
      <trkpt lat="46.16689" lon="6.4901">
        <ele>791</ele>
        <time>2011-04-30T15:36:29Z</time>
      </trkpt>
      <trkpt lat="46.16687" lon="6.49025">
        <ele>791</ele>
        <time>2011-04-30T15:36:51Z</time>
      </trkpt>
      <trkpt lat="46.16681" lon="6.49042">
        <ele>791</ele>
        <time>2011-04-30T15:36:53Z</time>
      </trkpt>
      <trkpt lat="46.16667" lon="6.49058">
        <ele>791</ele>
        <time>2011-04-30T15:36:55Z</time>
      </trkpt>
      <trkpt lat="46.16657" lon="6.49064">
        <ele>791</ele>
        <time>2011-04-30T15:36:56Z</time>
      </trkpt>
      <trkpt lat="46.16644" lon="6.49068">
        <ele>796</ele>
        <time>2011-04-30T15:36:57Z</time>
      </trkpt>
      <trkpt lat="46.16632" lon="6.49071">
        <ele>796</ele>
        <time>2011-04-30T15:36:58Z</time>
      </trkpt>
      <trkpt lat="46.16618" lon="6.49072">
        <ele>796</ele>
        <time>2011-04-30T15:36:59Z</time>
      </trkpt>
      <trkpt lat="46.16606" lon="6.49073">
        <ele>796</ele>
        <time>2011-04-30T15:37:00Z</time>
      </trkpt>
      <trkpt lat="46.16593" lon="6.49076">
        <ele>802</ele>
        <time>2011-04-30T15:37:01Z</time>
      </trkpt>
      <trkpt lat="46.16579" lon="6.49081">
        <ele>802</ele>
        <time>2011-04-30T15:37:02Z</time>
      </trkpt>
      <trkpt lat="46.16564" lon="6.49088">
        <ele>802</ele>
        <time>2011-04-30T15:37:03Z</time>
      </trkpt>
      <trkpt lat="46.16548" lon="6.49095">
        <ele>802</ele>
        <time>2011-04-30T15:37:04Z</time>
      </trkpt>
      <trkpt lat="46.16533" lon="6.49102">
        <ele>808</ele>
        <time>2011-04-30T15:37:05Z</time>
      </trkpt>
      <trkpt lat="46.16519" lon="6.49109">
        <ele>808</ele>
        <time>2011-04-30T15:37:06Z</time>
      </trkpt>
      <trkpt lat="46.16506" lon="6.49115">
        <ele>808</ele>
        <time>2011-04-30T15:37:07Z</time>
      </trkpt>
      <trkpt lat="46.16495" lon="6.49122">
        <ele>814</ele>
        <time>2011-04-30T15:37:08Z</time>
      </trkpt>
      <trkpt lat="46.16481" lon="6.49126">
        <ele>814</ele>
        <time>2011-04-30T15:37:09Z</time>
      </trkpt>
      <trkpt lat="46.16469" lon="6.49129">
        <ele>814</ele>
        <time>2011-04-30T15:37:10Z</time>
      </trkpt>
      <trkpt lat="46.16456" lon="6.49132">
        <ele>819</ele>
        <time>2011-04-30T15:37:11Z</time>
      </trkpt>
      <trkpt lat="46.16444" lon="6.49133">
        <ele>819</ele>
        <time>2011-04-30T15:37:12Z</time>
      </trkpt>
      <trkpt lat="46.16431" lon="6.49135">
        <ele>819</ele>
        <time>2011-04-30T15:37:13Z</time>
      </trkpt>
      <trkpt lat="46.16419" lon="6.49137">
        <ele>819</ele>
        <time>2011-04-30T15:37:14Z</time>
      </trkpt>
      <trkpt lat="46.16407" lon="6.4914">
        <ele>825</ele>
        <time>2011-04-30T15:37:15Z</time>
      </trkpt>
      <trkpt lat="46.16397" lon="6.49142">
        <ele>825</ele>
        <time>2011-04-30T15:37:16Z</time>
      </trkpt>
      <trkpt lat="46.16378" lon="6.49144">
        <ele>825</ele>
        <time>2011-04-30T15:37:18Z</time>
      </trkpt>
      <trkpt lat="46.16369" lon="6.49146">
        <ele>830</ele>
        <time>2011-04-30T15:37:19Z</time>
      </trkpt>
      <trkpt lat="46.1636" lon="6.4915">
        <ele>830</ele>
        <time>2011-04-30T15:37:20Z</time>
      </trkpt>
      <trkpt lat="46.16352" lon="6.49154">
        <ele>830</ele>
        <time>2011-04-30T15:37:21Z</time>
      </trkpt>
      <trkpt lat="46.16338" lon="6.49166">
        <ele>830</ele>
        <time>2011-04-30T15:37:23Z</time>
      </trkpt>
      <trkpt lat="46.16327" lon="6.49174">
        <ele>830</ele>
        <time>2011-04-30T15:37:25Z</time>
      </trkpt>
      <trkpt lat="46.16311" lon="6.49175">
        <ele>836</ele>
        <time>2011-04-30T15:37:27Z</time>
      </trkpt>
      <trkpt lat="46.16301" lon="6.49171">
        <ele>836</ele>
        <time>2011-04-30T15:37:28Z</time>
      </trkpt>
      <trkpt lat="46.16289" lon="6.49167">
        <ele>836</ele>
        <time>2011-04-30T15:37:29Z</time>
      </trkpt>
      <trkpt lat="46.16277" lon="6.49161">
        <ele>836</ele>
        <time>2011-04-30T15:37:30Z</time>
      </trkpt>
      <trkpt lat="46.16264" lon="6.49156">
        <ele>836</ele>
        <time>2011-04-30T15:37:31Z</time>
      </trkpt>
      <trkpt lat="46.16252" lon="6.49151">
        <ele>836</ele>
        <time>2011-04-30T15:37:32Z</time>
      </trkpt>
      <trkpt lat="46.16241" lon="6.4915">
        <ele>836</ele>
        <time>2011-04-30T15:37:33Z</time>
      </trkpt>
      <trkpt lat="46.16232" lon="6.49151">
        <ele>836</ele>
        <time>2011-04-30T15:37:34Z</time>
      </trkpt>
      <trkpt lat="46.16222" lon="6.49154">
        <ele>841</ele>
        <time>2011-04-30T15:37:35Z</time>
      </trkpt>
      <trkpt lat="46.16214" lon="6.49161">
        <ele>841</ele>
        <time>2011-04-30T15:37:36Z</time>
      </trkpt>
      <trkpt lat="46.16205" lon="6.4917">
        <ele>841</ele>
        <time>2011-04-30T15:37:37Z</time>
      </trkpt>
      <trkpt lat="46.16196" lon="6.49179">
        <ele>841</ele>
        <time>2011-04-30T15:37:38Z</time>
      </trkpt>
      <trkpt lat="46.16187" lon="6.49188">
        <ele>841</ele>
        <time>2011-04-30T15:37:39Z</time>
      </trkpt>
      <trkpt lat="46.16179" lon="6.49197">
        <ele>841</ele>
        <time>2011-04-30T15:37:40Z</time>
      </trkpt>
      <trkpt lat="46.16171" lon="6.49204">
        <ele>841</ele>
        <time>2011-04-30T15:37:41Z</time>
      </trkpt>
      <trkpt lat="46.16157" lon="6.49213">
        <ele>841</ele>
        <time>2011-04-30T15:37:43Z</time>
      </trkpt>
      <trkpt lat="46.16142" lon="6.49208">
        <ele>841</ele>
        <time>2011-04-30T15:37:45Z</time>
      </trkpt>
      <trkpt lat="46.16132" lon="6.49201">
        <ele>841</ele>
        <time>2011-04-30T15:37:46Z</time>
      </trkpt>
      <trkpt lat="46.16121" lon="6.49195">
        <ele>841</ele>
        <time>2011-04-30T15:37:47Z</time>
      </trkpt>
      <trkpt lat="46.16111" lon="6.49192">
        <ele>841</ele>
        <time>2011-04-30T15:37:48Z</time>
      </trkpt>
      <trkpt lat="46.16102" lon="6.49189">
        <ele>841</ele>
        <time>2011-04-30T15:37:49Z</time>
      </trkpt>
      <trkpt lat="46.16093" lon="6.49187">
        <ele>841</ele>
        <time>2011-04-30T15:37:50Z</time>
      </trkpt>
      <trkpt lat="46.16076" lon="6.49181">
        <ele>841</ele>
        <time>2011-04-30T15:37:52Z</time>
      </trkpt>
      <trkpt lat="46.16068" lon="6.49174">
        <ele>841</ele>
        <time>2011-04-30T15:37:53Z</time>
      </trkpt>
      <trkpt lat="46.16059" lon="6.49164">
        <ele>841</ele>
        <time>2011-04-30T15:37:54Z</time>
      </trkpt>
      <trkpt lat="46.16053" lon="6.49154">
        <ele>841</ele>
        <time>2011-04-30T15:37:55Z</time>
      </trkpt>
      <trkpt lat="46.16046" lon="6.49133">
        <ele>835</ele>
        <time>2011-04-30T15:37:57Z</time>
      </trkpt>
      <trkpt lat="46.16054" lon="6.49108">
        <ele>835</ele>
        <time>2011-04-30T15:37:59Z</time>
      </trkpt>
      <trkpt lat="46.16062" lon="6.49095">
        <ele>835</ele>
        <time>2011-04-30T15:38:00Z</time>
      </trkpt>
      <trkpt lat="46.16068" lon="6.49083">
        <ele>835</ele>
        <time>2011-04-30T15:38:01Z</time>
      </trkpt>
      <trkpt lat="46.16075" lon="6.49062">
        <ele>835</ele>
        <time>2011-04-30T15:38:03Z</time>
      </trkpt>
      <trkpt lat="46.16071" lon="6.49043">
        <ele>835</ele>
        <time>2011-04-30T15:38:05Z</time>
      </trkpt>
      <trkpt lat="46.16055" lon="6.49029">
        <ele>835</ele>
        <time>2011-04-30T15:38:07Z</time>
      </trkpt>
      <trkpt lat="46.16044" lon="6.49024">
        <ele>835</ele>
        <time>2011-04-30T15:38:08Z</time>
      </trkpt>
      <trkpt lat="46.16032" lon="6.49019">
        <ele>835</ele>
        <time>2011-04-30T15:38:09Z</time>
      </trkpt>
      <trkpt lat="46.1602" lon="6.49014">
        <ele>835</ele>
        <time>2011-04-30T15:38:10Z</time>
      </trkpt>
      <trkpt lat="46.16008" lon="6.49009">
        <ele>835</ele>
        <time>2011-04-30T15:38:11Z</time>
      </trkpt>
      <trkpt lat="46.15998" lon="6.49003">
        <ele>835</ele>
        <time>2011-04-30T15:38:12Z</time>
      </trkpt>
      <trkpt lat="46.15988" lon="6.48999">
        <ele>835</ele>
        <time>2011-04-30T15:38:13Z</time>
      </trkpt>
      <trkpt lat="46.15977" lon="6.48992">
        <ele>835</ele>
        <time>2011-04-30T15:38:15Z</time>
      </trkpt>
      <trkpt lat="46.15968" lon="6.49">
        <ele>835</ele>
        <time>2011-04-30T15:38:30Z</time>
      </trkpt>
      <trkpt lat="46.15956" lon="6.49001">
        <ele>829</ele>
        <time>2011-04-30T15:38:32Z</time>
      </trkpt>
      <trkpt lat="46.15944" lon="6.49001">
        <ele>829</ele>
        <time>2011-04-30T15:38:34Z</time>
      </trkpt>
      <trkpt lat="46.15931" lon="6.48998">
        <ele>829</ele>
        <time>2011-04-30T15:38:36Z</time>
      </trkpt>
      <trkpt lat="46.15919" lon="6.48993">
        <ele>829</ele>
        <time>2011-04-30T15:38:38Z</time>
      </trkpt>
      <trkpt lat="46.15907" lon="6.48991">
        <ele>829</ele>
        <time>2011-04-30T15:38:40Z</time>
      </trkpt>
      <trkpt lat="46.15893" lon="6.48993">
        <ele>823</ele>
        <time>2011-04-30T15:38:42Z</time>
      </trkpt>
      <trkpt lat="46.15877" lon="6.48993">
        <ele>823</ele>
        <time>2011-04-30T15:38:44Z</time>
      </trkpt>
      <trkpt lat="46.1586" lon="6.48985">
        <ele>823</ele>
        <time>2011-04-30T15:38:46Z</time>
      </trkpt>
      <trkpt lat="46.1585" lon="6.48979">
        <ele>817</ele>
        <time>2011-04-30T15:38:47Z</time>
      </trkpt>
      <trkpt lat="46.1584" lon="6.48971">
        <ele>817</ele>
        <time>2011-04-30T15:38:48Z</time>
      </trkpt>
      <trkpt lat="46.1583" lon="6.48962">
        <ele>817</ele>
        <time>2011-04-30T15:38:49Z</time>
      </trkpt>
      <trkpt lat="46.15819" lon="6.48954">
        <ele>817</ele>
        <time>2011-04-30T15:38:50Z</time>
      </trkpt>
      <trkpt lat="46.15807" lon="6.48946">
        <ele>817</ele>
        <time>2011-04-30T15:38:51Z</time>
      </trkpt>
      <trkpt lat="46.15794" lon="6.4894">
        <ele>812</ele>
        <time>2011-04-30T15:38:52Z</time>
      </trkpt>
      <trkpt lat="46.1578" lon="6.48935">
        <ele>812</ele>
        <time>2011-04-30T15:38:53Z</time>
      </trkpt>
      <trkpt lat="46.15767" lon="6.48931">
        <ele>812</ele>
        <time>2011-04-30T15:38:54Z</time>
      </trkpt>
      <trkpt lat="46.15755" lon="6.48928">
        <ele>812</ele>
        <time>2011-04-30T15:38:55Z</time>
      </trkpt>
      <trkpt lat="46.15744" lon="6.48924">
        <ele>812</ele>
        <time>2011-04-30T15:38:56Z</time>
      </trkpt>
      <trkpt lat="46.15733" lon="6.48921">
        <ele>812</ele>
        <time>2011-04-30T15:38:57Z</time>
      </trkpt>
      <trkpt lat="46.15723" lon="6.48914">
        <ele>812</ele>
        <time>2011-04-30T15:38:58Z</time>
      </trkpt>
      <trkpt lat="46.15713" lon="6.48907">
        <ele>807</ele>
        <time>2011-04-30T15:38:59Z</time>
      </trkpt>
      <trkpt lat="46.15704" lon="6.48899">
        <ele>807</ele>
        <time>2011-04-30T15:39:00Z</time>
      </trkpt>
      <trkpt lat="46.15696" lon="6.48889">
        <ele>807</ele>
        <time>2011-04-30T15:39:01Z</time>
      </trkpt>
      <trkpt lat="46.15683" lon="6.48873">
        <ele>807</ele>
        <time>2011-04-30T15:39:03Z</time>
      </trkpt>
      <trkpt lat="46.15672" lon="6.48864">
        <ele>807</ele>
        <time>2011-04-30T15:39:05Z</time>
      </trkpt>
      <trkpt lat="46.15664" lon="6.48851">
        <ele>801</ele>
        <time>2011-04-30T15:39:08Z</time>
      </trkpt>
      <trkpt lat="46.15654" lon="6.48847">
        <ele>801</ele>
        <time>2011-04-30T15:41:17Z</time>
      </trkpt>
      <trkpt lat="46.15639" lon="6.48863">
        <ele>801</ele>
        <time>2011-04-30T15:41:19Z</time>
      </trkpt>
      <trkpt lat="46.1563" lon="6.48875">
        <ele>801</ele>
        <time>2011-04-30T15:41:20Z</time>
      </trkpt>
      <trkpt lat="46.15619" lon="6.48888">
        <ele>801</ele>
        <time>2011-04-30T15:41:21Z</time>
      </trkpt>
      <trkpt lat="46.15607" lon="6.48903">
        <ele>801</ele>
        <time>2011-04-30T15:41:22Z</time>
      </trkpt>
      <trkpt lat="46.15593" lon="6.48921">
        <ele>801</ele>
        <time>2011-04-30T15:41:23Z</time>
      </trkpt>
      <trkpt lat="46.15579" lon="6.48938">
        <ele>795</ele>
        <time>2011-04-30T15:41:24Z</time>
      </trkpt>
      <trkpt lat="46.15564" lon="6.48956">
        <ele>795</ele>
        <time>2011-04-30T15:41:25Z</time>
      </trkpt>
      <trkpt lat="46.15549" lon="6.48973">
        <ele>795</ele>
        <time>2011-04-30T15:41:26Z</time>
      </trkpt>
      <trkpt lat="46.15536" lon="6.48989">
        <ele>795</ele>
        <time>2011-04-30T15:41:27Z</time>
      </trkpt>
      <trkpt lat="46.15523" lon="6.49004">
        <ele>789</ele>
        <time>2011-04-30T15:41:28Z</time>
      </trkpt>
      <trkpt lat="46.15511" lon="6.49019">
        <ele>789</ele>
        <time>2011-04-30T15:41:29Z</time>
      </trkpt>
      <trkpt lat="46.15499" lon="6.49034">
        <ele>789</ele>
        <time>2011-04-30T15:41:30Z</time>
      </trkpt>
      <trkpt lat="46.15488" lon="6.49047">
        <ele>789</ele>
        <time>2011-04-30T15:41:31Z</time>
      </trkpt>
      <trkpt lat="46.15477" lon="6.49061">
        <ele>789</ele>
        <time>2011-04-30T15:41:32Z</time>
      </trkpt>
      <trkpt lat="46.15467" lon="6.49073">
        <ele>783</ele>
        <time>2011-04-30T15:41:33Z</time>
      </trkpt>
      <trkpt lat="46.15458" lon="6.49085">
        <ele>783</ele>
        <time>2011-04-30T15:41:34Z</time>
      </trkpt>
      <trkpt lat="46.15449" lon="6.49097">
        <ele>783</ele>
        <time>2011-04-30T15:41:35Z</time>
      </trkpt>
      <trkpt lat="46.1544" lon="6.49107">
        <ele>783</ele>
        <time>2011-04-30T15:41:36Z</time>
      </trkpt>
      <trkpt lat="46.15431" lon="6.49116">
        <ele>783</ele>
        <time>2011-04-30T15:41:37Z</time>
      </trkpt>
      <trkpt lat="46.15423" lon="6.49125">
        <ele>783</ele>
        <time>2011-04-30T15:41:38Z</time>
      </trkpt>
      <trkpt lat="46.15417" lon="6.49135">
        <ele>783</ele>
        <time>2011-04-30T15:41:39Z</time>
      </trkpt>
      <trkpt lat="46.15411" lon="6.49145">
        <ele>778</ele>
        <time>2011-04-30T15:41:40Z</time>
      </trkpt>
      <trkpt lat="46.15406" lon="6.49158">
        <ele>778</ele>
        <time>2011-04-30T15:41:41Z</time>
      </trkpt>
      <trkpt lat="46.15401" lon="6.49172">
        <ele>778</ele>
        <time>2011-04-30T15:41:42Z</time>
      </trkpt>
      <trkpt lat="46.15395" lon="6.49188">
        <ele>778</ele>
        <time>2011-04-30T15:41:43Z</time>
      </trkpt>
      <trkpt lat="46.15388" lon="6.49205">
        <ele>778</ele>
        <time>2011-04-30T15:41:44Z</time>
      </trkpt>
      <trkpt lat="46.15382" lon="6.49221">
        <ele>778</ele>
        <time>2011-04-30T15:41:45Z</time>
      </trkpt>
      <trkpt lat="46.15377" lon="6.49237">
        <ele>778</ele>
        <time>2011-04-30T15:41:46Z</time>
      </trkpt>
      <trkpt lat="46.1537" lon="6.4925">
        <ele>778</ele>
        <time>2011-04-30T15:41:47Z</time>
      </trkpt>
      <trkpt lat="46.15364" lon="6.49263">
        <ele>778</ele>
        <time>2011-04-30T15:41:48Z</time>
      </trkpt>
      <trkpt lat="46.15357" lon="6.49274">
        <ele>778</ele>
        <time>2011-04-30T15:41:49Z</time>
      </trkpt>
      <trkpt lat="46.1535" lon="6.49285">
        <ele>778</ele>
        <time>2011-04-30T15:41:50Z</time>
      </trkpt>
      <trkpt lat="46.15343" lon="6.49296">
        <ele>778</ele>
        <time>2011-04-30T15:41:51Z</time>
      </trkpt>
      <trkpt lat="46.15335" lon="6.49308">
        <ele>778</ele>
        <time>2011-04-30T15:41:52Z</time>
      </trkpt>
      <trkpt lat="46.15327" lon="6.4932">
        <ele>778</ele>
        <time>2011-04-30T15:41:53Z</time>
      </trkpt>
      <trkpt lat="46.1532" lon="6.49332">
        <ele>778</ele>
        <time>2011-04-30T15:41:54Z</time>
      </trkpt>
      <trkpt lat="46.15315" lon="6.49343">
        <ele>778</ele>
        <time>2011-04-30T15:41:55Z</time>
      </trkpt>
      <trkpt lat="46.15303" lon="6.49361">
        <ele>772</ele>
        <time>2011-04-30T15:41:57Z</time>
      </trkpt>
      <trkpt lat="46.1529" lon="6.49371">
        <ele>772</ele>
        <time>2011-04-30T15:41:59Z</time>
      </trkpt>
      <trkpt lat="46.15276" lon="6.49374">
        <ele>772</ele>
        <time>2011-04-30T15:42:01Z</time>
      </trkpt>
      <trkpt lat="46.15262" lon="6.49378">
        <ele>772</ele>
        <time>2011-04-30T15:42:03Z</time>
      </trkpt>
      <trkpt lat="46.15252" lon="6.49381">
        <ele>772</ele>
        <time>2011-04-30T15:42:05Z</time>
      </trkpt>
      <trkpt lat="46.15243" lon="6.49387">
        <ele>772</ele>
        <time>2011-04-30T15:42:09Z</time>
      </trkpt>
      <trkpt lat="46.15233" lon="6.49387">
        <ele>766</ele>
        <time>2011-04-30T15:42:11Z</time>
      </trkpt>
      <trkpt lat="46.1522" lon="6.4938">
        <ele>766</ele>
        <time>2011-04-30T15:42:13Z</time>
      </trkpt>
      <trkpt lat="46.15214" lon="6.49367">
        <ele>766</ele>
        <time>2011-04-30T15:42:14Z</time>
      </trkpt>
      <trkpt lat="46.15207" lon="6.49355">
        <ele>766</ele>
        <time>2011-04-30T15:42:15Z</time>
      </trkpt>
      <trkpt lat="46.15202" lon="6.49344">
        <ele>766</ele>
        <time>2011-04-30T15:42:16Z</time>
      </trkpt>
      <trkpt lat="46.15193" lon="6.49325">
        <ele>766</ele>
        <time>2011-04-30T15:42:18Z</time>
      </trkpt>
      <trkpt lat="46.15186" lon="6.49305">
        <ele>766</ele>
        <time>2011-04-30T15:42:20Z</time>
      </trkpt>
      <trkpt lat="46.15179" lon="6.49283">
        <ele>766</ele>
        <time>2011-04-30T15:42:22Z</time>
      </trkpt>
      <trkpt lat="46.15172" lon="6.49261">
        <ele>766</ele>
        <time>2011-04-30T15:42:24Z</time>
      </trkpt>
      <trkpt lat="46.15168" lon="6.49248">
        <ele>766</ele>
        <time>2011-04-30T15:42:25Z</time>
      </trkpt>
      <trkpt lat="46.15165" lon="6.49233">
        <ele>766</ele>
        <time>2011-04-30T15:42:26Z</time>
      </trkpt>
      <trkpt lat="46.15164" lon="6.49217">
        <ele>761</ele>
        <time>2011-04-30T15:42:27Z</time>
      </trkpt>
      <trkpt lat="46.15162" lon="6.49199">
        <ele>761</ele>
        <time>2011-04-30T15:42:28Z</time>
      </trkpt>
      <trkpt lat="46.1516" lon="6.49181">
        <ele>761</ele>
        <time>2011-04-30T15:42:29Z</time>
      </trkpt>
      <trkpt lat="46.15157" lon="6.49164">
        <ele>761</ele>
        <time>2011-04-30T15:42:30Z</time>
      </trkpt>
      <trkpt lat="46.15155" lon="6.49149">
        <ele>761</ele>
        <time>2011-04-30T15:42:31Z</time>
      </trkpt>
      <trkpt lat="46.15153" lon="6.49125">
        <ele>761</ele>
        <time>2011-04-30T15:42:33Z</time>
      </trkpt>
      <trkpt lat="46.15158" lon="6.49104">
        <ele>761</ele>
        <time>2011-04-30T15:42:35Z</time>
      </trkpt>
      <trkpt lat="46.15164" lon="6.49092">
        <ele>761</ele>
        <time>2011-04-30T15:42:36Z</time>
      </trkpt>
      <trkpt lat="46.15171" lon="6.49081">
        <ele>761</ele>
        <time>2011-04-30T15:42:37Z</time>
      </trkpt>
      <trkpt lat="46.15176" lon="6.49069">
        <ele>761</ele>
        <time>2011-04-30T15:42:38Z</time>
      </trkpt>
      <trkpt lat="46.1518" lon="6.49054">
        <ele>761</ele>
        <time>2011-04-30T15:42:39Z</time>
      </trkpt>
      <trkpt lat="46.15182" lon="6.49041">
        <ele>761</ele>
        <time>2011-04-30T15:42:40Z</time>
      </trkpt>
      <trkpt lat="46.15185" lon="6.49028">
        <ele>761</ele>
        <time>2011-04-30T15:42:41Z</time>
      </trkpt>
      <trkpt lat="46.15187" lon="6.49004">
        <ele>761</ele>
        <time>2011-04-30T15:42:43Z</time>
      </trkpt>
      <trkpt lat="46.1519" lon="6.48992">
        <ele>755</ele>
        <time>2011-04-30T15:42:44Z</time>
      </trkpt>
      <trkpt lat="46.15197" lon="6.48968">
        <ele>755</ele>
        <time>2011-04-30T15:42:46Z</time>
      </trkpt>
      <trkpt lat="46.15207" lon="6.48948">
        <ele>755</ele>
        <time>2011-04-30T15:42:48Z</time>
      </trkpt>
      <trkpt lat="46.15219" lon="6.48928">
        <ele>755</ele>
        <time>2011-04-30T15:42:50Z</time>
      </trkpt>
      <trkpt lat="46.15224" lon="6.48916">
        <ele>750</ele>
        <time>2011-04-30T15:42:51Z</time>
      </trkpt>
      <trkpt lat="46.15234" lon="6.48895">
        <ele>750</ele>
        <time>2011-04-30T15:42:53Z</time>
      </trkpt>
      <trkpt lat="46.15242" lon="6.48878">
        <ele>750</ele>
        <time>2011-04-30T15:42:55Z</time>
      </trkpt>
      <trkpt lat="46.15244" lon="6.4886">
        <ele>741</ele>
        <time>2011-04-30T15:42:57Z</time>
      </trkpt>
      <trkpt lat="46.15244" lon="6.48843">
        <ele>741</ele>
        <time>2011-04-30T15:42:59Z</time>
      </trkpt>
      <trkpt lat="46.15245" lon="6.48825">
        <ele>735</ele>
        <time>2011-04-30T15:43:01Z</time>
      </trkpt>
      <trkpt lat="46.15248" lon="6.48807">
        <ele>735</ele>
        <time>2011-04-30T15:43:03Z</time>
      </trkpt>
      <trkpt lat="46.15257" lon="6.4879">
        <ele>728</ele>
        <time>2011-04-30T15:43:05Z</time>
      </trkpt>
      <trkpt lat="46.15267" lon="6.48771">
        <ele>728</ele>
        <time>2011-04-30T15:43:07Z</time>
      </trkpt>
      <trkpt lat="46.15275" lon="6.48756">
        <ele>722</ele>
        <time>2011-04-30T15:43:09Z</time>
      </trkpt>
      <trkpt lat="46.15282" lon="6.48743">
        <ele>722</ele>
        <time>2011-04-30T15:43:11Z</time>
      </trkpt>
      <trkpt lat="46.15288" lon="6.48732">
        <ele>722</ele>
        <time>2011-04-30T15:43:13Z</time>
      </trkpt>
      <trkpt lat="46.15298" lon="6.48718">
        <ele>711</ele>
        <time>2011-04-30T15:43:16Z</time>
      </trkpt>
      <trkpt lat="46.15299" lon="6.48704">
        <ele>711</ele>
        <time>2011-04-30T15:43:19Z</time>
      </trkpt>
      <trkpt lat="46.15292" lon="6.48689">
        <ele>704</ele>
        <time>2011-04-30T15:43:22Z</time>
      </trkpt>
      <trkpt lat="46.15285" lon="6.48674">
        <ele>704</ele>
        <time>2011-04-30T15:43:24Z</time>
      </trkpt>
      <trkpt lat="46.15282" lon="6.48658">
        <ele>704</ele>
        <time>2011-04-30T15:43:26Z</time>
      </trkpt>
      <trkpt lat="46.15279" lon="6.4864">
        <ele>698</ele>
        <time>2011-04-30T15:43:28Z</time>
      </trkpt>
      <trkpt lat="46.1528" lon="6.48616">
        <ele>698</ele>
        <time>2011-04-30T15:43:30Z</time>
      </trkpt>
      <trkpt lat="46.15283" lon="6.48593">
        <ele>692</ele>
        <time>2011-04-30T15:43:32Z</time>
      </trkpt>
      <trkpt lat="46.15282" lon="6.48565">
        <ele>692</ele>
        <time>2011-04-30T15:43:34Z</time>
      </trkpt>
      <trkpt lat="46.1528" lon="6.4855">
        <ele>692</ele>
        <time>2011-04-30T15:43:35Z</time>
      </trkpt>
      <trkpt lat="46.15278" lon="6.48523">
        <ele>699</ele>
        <time>2011-04-30T15:43:37Z</time>
      </trkpt>
      <trkpt lat="46.15278" lon="6.4851">
        <ele>699</ele>
        <time>2011-04-30T15:43:38Z</time>
      </trkpt>
      <trkpt lat="46.15279" lon="6.48487">
        <ele>699</ele>
        <time>2011-04-30T15:43:40Z</time>
      </trkpt>
      <trkpt lat="46.15279" lon="6.48466">
        <ele>699</ele>
        <time>2011-04-30T15:43:42Z</time>
      </trkpt>
      <trkpt lat="46.1528" lon="6.48449">
        <ele>694</ele>
        <time>2011-04-30T15:43:44Z</time>
      </trkpt>
      <trkpt lat="46.15282" lon="6.48424">
        <ele>694</ele>
        <time>2011-04-30T15:43:46Z</time>
      </trkpt>
      <trkpt lat="46.15283" lon="6.4841">
        <ele>694</ele>
        <time>2011-04-30T15:43:47Z</time>
      </trkpt>
      <trkpt lat="46.15285" lon="6.48394">
        <ele>694</ele>
        <time>2011-04-30T15:43:48Z</time>
      </trkpt>
      <trkpt lat="46.15285" lon="6.48378">
        <ele>694</ele>
        <time>2011-04-30T15:43:49Z</time>
      </trkpt>
      <trkpt lat="46.15288" lon="6.48363">
        <ele>688</ele>
        <time>2011-04-30T15:43:50Z</time>
      </trkpt>
      <trkpt lat="46.15288" lon="6.48346">
        <ele>688</ele>
        <time>2011-04-30T15:43:51Z</time>
      </trkpt>
      <trkpt lat="46.1529" lon="6.48329">
        <ele>688</ele>
        <time>2011-04-30T15:43:52Z</time>
      </trkpt>
      <trkpt lat="46.15293" lon="6.48315">
        <ele>688</ele>
        <time>2011-04-30T15:43:53Z</time>
      </trkpt>
      <trkpt lat="46.15295" lon="6.48301">
        <ele>688</ele>
        <time>2011-04-30T15:43:54Z</time>
      </trkpt>
      <trkpt lat="46.15297" lon="6.48285">
        <ele>681</ele>
        <time>2011-04-30T15:43:55Z</time>
      </trkpt>
      <trkpt lat="46.15298" lon="6.48268">
        <ele>681</ele>
        <time>2011-04-30T15:43:56Z</time>
      </trkpt>
      <trkpt lat="46.15299" lon="6.48254">
        <ele>681</ele>
        <time>2011-04-30T15:43:57Z</time>
      </trkpt>
      <trkpt lat="46.15301" lon="6.4824">
        <ele>681</ele>
        <time>2011-04-30T15:43:58Z</time>
      </trkpt>
      <trkpt lat="46.15302" lon="6.48226">
        <ele>681</ele>
        <time>2011-04-30T15:43:59Z</time>
      </trkpt>
      <trkpt lat="46.15305" lon="6.48204">
        <ele>681</ele>
        <time>2011-04-30T15:44:01Z</time>
      </trkpt>
      <trkpt lat="46.15308" lon="6.4818">
        <ele>681</ele>
        <time>2011-04-30T15:44:03Z</time>
      </trkpt>
      <trkpt lat="46.1531" lon="6.48154">
        <ele>681</ele>
        <time>2011-04-30T15:44:05Z</time>
      </trkpt>
      <trkpt lat="46.1531" lon="6.48141">
        <ele>681</ele>
        <time>2011-04-30T15:44:06Z</time>
      </trkpt>
      <trkpt lat="46.15307" lon="6.48118">
        <ele>681</ele>
        <time>2011-04-30T15:44:08Z</time>
      </trkpt>
      <trkpt lat="46.15303" lon="6.48099">
        <ele>681</ele>
        <time>2011-04-30T15:44:10Z</time>
      </trkpt>
      <trkpt lat="46.15299" lon="6.48078">
        <ele>686</ele>
        <time>2011-04-30T15:44:12Z</time>
      </trkpt>
      <trkpt lat="46.15301" lon="6.48051">
        <ele>686</ele>
        <time>2011-04-30T15:44:14Z</time>
      </trkpt>
      <trkpt lat="46.15303" lon="6.48036">
        <ele>686</ele>
        <time>2011-04-30T15:44:15Z</time>
      </trkpt>
      <trkpt lat="46.15305" lon="6.4802">
        <ele>686</ele>
        <time>2011-04-30T15:44:16Z</time>
      </trkpt>
      <trkpt lat="46.15305" lon="6.48002">
        <ele>686</ele>
        <time>2011-04-30T15:44:17Z</time>
      </trkpt>
      <trkpt lat="46.15304" lon="6.47987">
        <ele>686</ele>
        <time>2011-04-30T15:44:18Z</time>
      </trkpt>
      <trkpt lat="46.15304" lon="6.47964">
        <ele>686</ele>
        <time>2011-04-30T15:44:20Z</time>
      </trkpt>
      <trkpt lat="46.15307" lon="6.47951">
        <ele>680</ele>
        <time>2011-04-30T15:44:21Z</time>
      </trkpt>
      <trkpt lat="46.15312" lon="6.47932">
        <ele>680</ele>
        <time>2011-04-30T15:44:23Z</time>
      </trkpt>
      <trkpt lat="46.15318" lon="6.47916">
        <ele>680</ele>
        <time>2011-04-30T15:44:25Z</time>
      </trkpt>
      <trkpt lat="46.1533" lon="6.47909">
        <ele>680</ele>
        <time>2011-04-30T15:44:27Z</time>
      </trkpt>
      <trkpt lat="46.15342" lon="6.479">
        <ele>680</ele>
        <time>2011-04-30T15:44:29Z</time>
      </trkpt>
      <trkpt lat="46.15355" lon="6.47887">
        <ele>680</ele>
        <time>2011-04-30T15:44:31Z</time>
      </trkpt>
      <trkpt lat="46.1537" lon="6.47878">
        <ele>680</ele>
        <time>2011-04-30T15:44:33Z</time>
      </trkpt>
      <trkpt lat="46.15382" lon="6.47864">
        <ele>680</ele>
        <time>2011-04-30T15:44:35Z</time>
      </trkpt>
      <trkpt lat="46.15391" lon="6.47852">
        <ele>680</ele>
        <time>2011-04-30T15:44:37Z</time>
      </trkpt>
      <trkpt lat="46.15401" lon="6.47843">
        <ele>680</ele>
        <time>2011-04-30T15:44:39Z</time>
      </trkpt>
      <trkpt lat="46.1541" lon="6.47834">
        <ele>680</ele>
        <time>2011-04-30T15:44:41Z</time>
      </trkpt>
      <trkpt lat="46.15416" lon="6.47823">
        <ele>674</ele>
        <time>2011-04-30T15:44:43Z</time>
      </trkpt>
      <trkpt lat="46.15424" lon="6.47809">
        <ele>674</ele>
        <time>2011-04-30T15:44:45Z</time>
      </trkpt>
      <trkpt lat="46.15433" lon="6.47793">
        <ele>674</ele>
        <time>2011-04-30T15:44:47Z</time>
      </trkpt>
      <trkpt lat="46.15441" lon="6.47778">
        <ele>666</ele>
        <time>2011-04-30T15:44:49Z</time>
      </trkpt>
      <trkpt lat="46.15448" lon="6.4776">
        <ele>666</ele>
        <time>2011-04-30T15:44:51Z</time>
      </trkpt>
      <trkpt lat="46.15455" lon="6.47751">
        <ele>666</ele>
        <time>2011-04-30T15:44:53Z</time>
      </trkpt>
      <trkpt lat="46.15466" lon="6.47745">
        <ele>666</ele>
        <time>2011-04-30T15:44:55Z</time>
      </trkpt>
      <trkpt lat="46.15478" lon="6.47738">
        <ele>666</ele>
        <time>2011-04-30T15:44:57Z</time>
      </trkpt>
      <trkpt lat="46.15491" lon="6.47731">
        <ele>666</ele>
        <time>2011-04-30T15:44:59Z</time>
      </trkpt>
      <trkpt lat="46.15507" lon="6.47724">
        <ele>666</ele>
        <time>2011-04-30T15:45:01Z</time>
      </trkpt>
      <trkpt lat="46.15522" lon="6.47718">
        <ele>660</ele>
        <time>2011-04-30T15:45:03Z</time>
      </trkpt>
      <trkpt lat="46.15534" lon="6.4771">
        <ele>660</ele>
        <time>2011-04-30T15:45:05Z</time>
      </trkpt>
      <trkpt lat="46.15544" lon="6.47705">
        <ele>660</ele>
        <time>2011-04-30T15:45:08Z</time>
      </trkpt>
      <trkpt lat="46.15533" lon="6.47696">
        <ele>673</ele>
        <time>2011-04-30T15:45:13Z</time>
      </trkpt>
      <trkpt lat="46.15523" lon="6.47693">
        <ele>673</ele>
        <time>2011-04-30T15:45:15Z</time>
      </trkpt>
      <trkpt lat="46.15513" lon="6.47689">
        <ele>673</ele>
        <time>2011-04-30T15:45:17Z</time>
      </trkpt>
      <trkpt lat="46.15504" lon="6.47686">
        <ele>668</ele>
        <time>2011-04-30T15:45:19Z</time>
      </trkpt>
      <trkpt lat="46.15495" lon="6.47688">
        <ele>668</ele>
        <time>2011-04-30T15:45:21Z</time>
      </trkpt>
      <trkpt lat="46.15485" lon="6.47692">
        <ele>668</ele>
        <time>2011-04-30T15:45:23Z</time>
      </trkpt>
      <trkpt lat="46.15473" lon="6.47693">
        <ele>668</ele>
        <time>2011-04-30T15:45:25Z</time>
      </trkpt>
      <trkpt lat="46.1546" lon="6.47693">
        <ele>659</ele>
        <time>2011-04-30T15:45:28Z</time>
      </trkpt>
      <trkpt lat="46.15451" lon="6.47686">
        <ele>650</ele>
        <time>2011-04-30T15:45:30Z</time>
      </trkpt>
      <trkpt lat="46.15449" lon="6.47673">
        <ele>650</ele>
        <time>2011-04-30T15:45:33Z</time>
      </trkpt>
      <trkpt lat="46.15452" lon="6.4766">
        <ele>650</ele>
        <time>2011-04-30T15:45:35Z</time>
      </trkpt>
      <trkpt lat="46.15452" lon="6.47643">
        <ele>650</ele>
        <time>2011-04-30T15:45:37Z</time>
      </trkpt>
      <trkpt lat="46.15443" lon="6.47624">
        <ele>650</ele>
        <time>2011-04-30T15:45:39Z</time>
      </trkpt>
      <trkpt lat="46.15431" lon="6.47611">
        <ele>650</ele>
        <time>2011-04-30T15:45:41Z</time>
      </trkpt>
      <trkpt lat="46.15416" lon="6.47601">
        <ele>640</ele>
        <time>2011-04-30T15:45:43Z</time>
      </trkpt>
      <trkpt lat="46.15401" lon="6.47587">
        <ele>640</ele>
        <time>2011-04-30T15:45:45Z</time>
      </trkpt>
      <trkpt lat="46.15389" lon="6.47574">
        <ele>633</ele>
        <time>2011-04-30T15:45:47Z</time>
      </trkpt>
      <trkpt lat="46.15378" lon="6.47561">
        <ele>633</ele>
        <time>2011-04-30T15:45:49Z</time>
      </trkpt>
      <trkpt lat="46.15366" lon="6.47545">
        <ele>633</ele>
        <time>2011-04-30T15:45:51Z</time>
      </trkpt>
      <trkpt lat="46.15358" lon="6.47535">
        <ele>633</ele>
        <time>2011-04-30T15:45:52Z</time>
      </trkpt>
      <trkpt lat="46.1535" lon="6.47525">
        <ele>626</ele>
        <time>2011-04-30T15:45:53Z</time>
      </trkpt>
      <trkpt lat="46.15342" lon="6.47514">
        <ele>626</ele>
        <time>2011-04-30T15:45:54Z</time>
      </trkpt>
      <trkpt lat="46.15333" lon="6.47502">
        <ele>626</ele>
        <time>2011-04-30T15:45:55Z</time>
      </trkpt>
      <trkpt lat="46.15326" lon="6.47491">
        <ele>626</ele>
        <time>2011-04-30T15:45:56Z</time>
      </trkpt>
      <trkpt lat="46.15318" lon="6.47481">
        <ele>626</ele>
        <time>2011-04-30T15:45:57Z</time>
      </trkpt>
      <trkpt lat="46.15312" lon="6.47468">
        <ele>626</ele>
        <time>2011-04-30T15:45:58Z</time>
      </trkpt>
      <trkpt lat="46.15305" lon="6.47453">
        <ele>626</ele>
        <time>2011-04-30T15:45:59Z</time>
      </trkpt>
      <trkpt lat="46.15297" lon="6.47439">
        <ele>626</ele>
        <time>2011-04-30T15:46:00Z</time>
      </trkpt>
      <trkpt lat="46.15288" lon="6.47428">
        <ele>626</ele>
        <time>2011-04-30T15:46:01Z</time>
      </trkpt>
      <trkpt lat="46.15282" lon="6.47418">
        <ele>619</ele>
        <time>2011-04-30T15:46:02Z</time>
      </trkpt>
      <trkpt lat="46.15273" lon="6.47399">
        <ele>619</ele>
        <time>2011-04-30T15:46:04Z</time>
      </trkpt>
      <trkpt lat="46.1527" lon="6.4738">
        <ele>619</ele>
        <time>2011-04-30T15:46:06Z</time>
      </trkpt>
      <trkpt lat="46.1527" lon="6.47363">
        <ele>614</ele>
        <time>2011-04-30T15:46:08Z</time>
      </trkpt>
      <trkpt lat="46.15264" lon="6.47349">
        <ele>614</ele>
        <time>2011-04-30T15:46:10Z</time>
      </trkpt>
      <trkpt lat="46.15252" lon="6.47335">
        <ele>608</ele>
        <time>2011-04-30T15:46:12Z</time>
      </trkpt>
      <trkpt lat="46.15243" lon="6.4733">
        <ele>608</ele>
        <time>2011-04-30T15:46:13Z</time>
      </trkpt>
      <trkpt lat="46.15234" lon="6.47324">
        <ele>608</ele>
        <time>2011-04-30T15:46:14Z</time>
      </trkpt>
      <trkpt lat="46.15219" lon="6.47312">
        <ele>608</ele>
        <time>2011-04-30T15:46:16Z</time>
      </trkpt>
      <trkpt lat="46.1521" lon="6.47306">
        <ele>608</ele>
        <time>2011-04-30T15:46:17Z</time>
      </trkpt>
      <trkpt lat="46.15202" lon="6.473">
        <ele>608</ele>
        <time>2011-04-30T15:46:18Z</time>
      </trkpt>
      <trkpt lat="46.15193" lon="6.47296">
        <ele>608</ele>
        <time>2011-04-30T15:46:19Z</time>
      </trkpt>
      <trkpt lat="46.15183" lon="6.47293">
        <ele>608</ele>
        <time>2011-04-30T15:46:20Z</time>
      </trkpt>
      <trkpt lat="46.15173" lon="6.47292">
        <ele>608</ele>
        <time>2011-04-30T15:46:21Z</time>
      </trkpt>
      <trkpt lat="46.1516" lon="6.47293">
        <ele>608</ele>
        <time>2011-04-30T15:46:22Z</time>
      </trkpt>
      <trkpt lat="46.15148" lon="6.47292">
        <ele>608</ele>
        <time>2011-04-30T15:46:23Z</time>
      </trkpt>
      <trkpt lat="46.15136" lon="6.47288">
        <ele>614</ele>
        <time>2011-04-30T15:46:24Z</time>
      </trkpt>
      <trkpt lat="46.15125" lon="6.47283">
        <ele>614</ele>
        <time>2011-04-30T15:46:25Z</time>
      </trkpt>
      <trkpt lat="46.15116" lon="6.47278">
        <ele>614</ele>
        <time>2011-04-30T15:46:26Z</time>
      </trkpt>
      <trkpt lat="46.15107" lon="6.47272">
        <ele>614</ele>
        <time>2011-04-30T15:46:27Z</time>
      </trkpt>
      <trkpt lat="46.15101" lon="6.47263">
        <ele>614</ele>
        <time>2011-04-30T15:46:28Z</time>
      </trkpt>
      <trkpt lat="46.15092" lon="6.47252">
        <ele>614</ele>
        <time>2011-04-30T15:46:29Z</time>
      </trkpt>
      <trkpt lat="46.15082" lon="6.47235">
        <ele>622</ele>
        <time>2011-04-30T15:46:30Z</time>
      </trkpt>
      <trkpt lat="46.15072" lon="6.47216">
        <ele>622</ele>
        <time>2011-04-30T15:46:31Z</time>
      </trkpt>
      <trkpt lat="46.15064" lon="6.47196">
        <ele>622</ele>
        <time>2011-04-30T15:46:32Z</time>
      </trkpt>
      <trkpt lat="46.15057" lon="6.47178">
        <ele>627</ele>
        <time>2011-04-30T15:46:33Z</time>
      </trkpt>
      <trkpt lat="46.15052" lon="6.47161">
        <ele>627</ele>
        <time>2011-04-30T15:46:34Z</time>
      </trkpt>
      <trkpt lat="46.15048" lon="6.47144">
        <ele>627</ele>
        <time>2011-04-30T15:46:35Z</time>
      </trkpt>
      <trkpt lat="46.15044" lon="6.47128">
        <ele>634</ele>
        <time>2011-04-30T15:46:36Z</time>
      </trkpt>
      <trkpt lat="46.15039" lon="6.47112">
        <ele>634</ele>
        <time>2011-04-30T15:46:37Z</time>
      </trkpt>
      <trkpt lat="46.15033" lon="6.47099">
        <ele>640</ele>
        <time>2011-04-30T15:46:38Z</time>
      </trkpt>
      <trkpt lat="46.15027" lon="6.47086">
        <ele>640</ele>
        <time>2011-04-30T15:46:39Z</time>
      </trkpt>
      <trkpt lat="46.15021" lon="6.47075">
        <ele>640</ele>
        <time>2011-04-30T15:46:40Z</time>
      </trkpt>
      <trkpt lat="46.15014" lon="6.47066">
        <ele>640</ele>
        <time>2011-04-30T15:46:41Z</time>
      </trkpt>
      <trkpt lat="46.15006" lon="6.47057">
        <ele>646</ele>
        <time>2011-04-30T15:46:42Z</time>
      </trkpt>
      <trkpt lat="46.14997" lon="6.47055">
        <ele>646</ele>
        <time>2011-04-30T15:46:43Z</time>
      </trkpt>
      <trkpt lat="46.14983" lon="6.47047">
        <ele>652</ele>
        <time>2011-04-30T15:46:45Z</time>
      </trkpt>
      <trkpt lat="46.1497" lon="6.47034">
        <ele>652</ele>
        <time>2011-04-30T15:46:47Z</time>
      </trkpt>
      <trkpt lat="46.14956" lon="6.4702">
        <ele>652</ele>
        <time>2011-04-30T15:46:49Z</time>
      </trkpt>
      <trkpt lat="46.14949" lon="6.47011">
        <ele>652</ele>
        <time>2011-04-30T15:46:50Z</time>
      </trkpt>
      <trkpt lat="46.14942" lon="6.47">
        <ele>652</ele>
        <time>2011-04-30T15:46:51Z</time>
      </trkpt>
      <trkpt lat="46.14935" lon="6.46987">
        <ele>652</ele>
        <time>2011-04-30T15:46:52Z</time>
      </trkpt>
      <trkpt lat="46.14928" lon="6.46976">
        <ele>652</ele>
        <time>2011-04-30T15:46:53Z</time>
      </trkpt>
      <trkpt lat="46.1492" lon="6.46965">
        <ele>652</ele>
        <time>2011-04-30T15:46:54Z</time>
      </trkpt>
      <trkpt lat="46.14911" lon="6.46955">
        <ele>652</ele>
        <time>2011-04-30T15:46:55Z</time>
      </trkpt>
      <trkpt lat="46.14904" lon="6.46946">
        <ele>652</ele>
        <time>2011-04-30T15:46:56Z</time>
      </trkpt>
      <trkpt lat="46.14893" lon="6.46931">
        <ele>652</ele>
        <time>2011-04-30T15:46:58Z</time>
      </trkpt>
      <trkpt lat="46.14885" lon="6.46921">
        <ele>652</ele>
        <time>2011-04-30T15:47:00Z</time>
      </trkpt>
      <trkpt lat="46.14875" lon="6.46926">
        <ele>652</ele>
        <time>2011-04-30T15:47:03Z</time>
      </trkpt>
      <trkpt lat="46.14863" lon="6.46942">
        <ele>652</ele>
        <time>2011-04-30T15:47:05Z</time>
      </trkpt>
      <trkpt lat="46.1485" lon="6.46955">
        <ele>652</ele>
        <time>2011-04-30T15:47:07Z</time>
      </trkpt>
      <trkpt lat="46.14834" lon="6.46966">
        <ele>652</ele>
        <time>2011-04-30T15:47:09Z</time>
      </trkpt>
      <trkpt lat="46.14819" lon="6.46975">
        <ele>652</ele>
        <time>2011-04-30T15:47:11Z</time>
      </trkpt>
      <trkpt lat="46.14803" lon="6.46988">
        <ele>652</ele>
        <time>2011-04-30T15:47:13Z</time>
      </trkpt>
      <trkpt lat="46.14795" lon="6.46996">
        <ele>647</ele>
        <time>2011-04-30T15:47:14Z</time>
      </trkpt>
      <trkpt lat="46.14788" lon="6.47005">
        <ele>647</ele>
        <time>2011-04-30T15:47:15Z</time>
      </trkpt>
      <trkpt lat="46.1478" lon="6.47015">
        <ele>647</ele>
        <time>2011-04-30T15:47:16Z</time>
      </trkpt>
      <trkpt lat="46.14772" lon="6.47025">
        <ele>647</ele>
        <time>2011-04-30T15:47:17Z</time>
      </trkpt>
      <trkpt lat="46.14765" lon="6.47035">
        <ele>647</ele>
        <time>2011-04-30T15:47:18Z</time>
      </trkpt>
      <trkpt lat="46.14757" lon="6.47045">
        <ele>647</ele>
        <time>2011-04-30T15:47:19Z</time>
      </trkpt>
      <trkpt lat="46.14743" lon="6.4706">
        <ele>647</ele>
        <time>2011-04-30T15:47:21Z</time>
      </trkpt>
      <trkpt lat="46.14735" lon="6.47066">
        <ele>642</ele>
        <time>2011-04-30T15:47:22Z</time>
      </trkpt>
      <trkpt lat="46.14726" lon="6.47071">
        <ele>642</ele>
        <time>2011-04-30T15:47:23Z</time>
      </trkpt>
      <trkpt lat="46.1471" lon="6.47081">
        <ele>642</ele>
        <time>2011-04-30T15:47:25Z</time>
      </trkpt>
      <trkpt lat="46.14697" lon="6.47092">
        <ele>642</ele>
        <time>2011-04-30T15:47:27Z</time>
      </trkpt>
      <trkpt lat="46.14682" lon="6.47098">
        <ele>642</ele>
        <time>2011-04-30T15:47:29Z</time>
      </trkpt>
      <trkpt lat="46.14672" lon="6.47097">
        <ele>642</ele>
        <time>2011-04-30T15:47:30Z</time>
      </trkpt>
      <trkpt lat="46.14657" lon="6.47087">
        <ele>636</ele>
        <time>2011-04-30T15:47:32Z</time>
      </trkpt>
      <trkpt lat="46.14649" lon="6.47079">
        <ele>636</ele>
        <time>2011-04-30T15:47:33Z</time>
      </trkpt>
      <trkpt lat="46.14642" lon="6.4707">
        <ele>636</ele>
        <time>2011-04-30T15:47:34Z</time>
      </trkpt>
      <trkpt lat="46.14634" lon="6.47059">
        <ele>636</ele>
        <time>2011-04-30T15:47:35Z</time>
      </trkpt>
      <trkpt lat="46.14627" lon="6.47047">
        <ele>636</ele>
        <time>2011-04-30T15:47:36Z</time>
      </trkpt>
      <trkpt lat="46.14619" lon="6.47032">
        <ele>636</ele>
        <time>2011-04-30T15:47:37Z</time>
      </trkpt>
      <trkpt lat="46.1461" lon="6.47015">
        <ele>636</ele>
        <time>2011-04-30T15:47:38Z</time>
      </trkpt>
      <trkpt lat="46.14602" lon="6.46997">
        <ele>636</ele>
        <time>2011-04-30T15:47:39Z</time>
      </trkpt>
      <trkpt lat="46.14593" lon="6.46978">
        <ele>642</ele>
        <time>2011-04-30T15:47:40Z</time>
      </trkpt>
      <trkpt lat="46.14584" lon="6.4696">
        <ele>642</ele>
        <time>2011-04-30T15:47:41Z</time>
      </trkpt>
      <trkpt lat="46.14574" lon="6.46943">
        <ele>642</ele>
        <time>2011-04-30T15:47:42Z</time>
      </trkpt>
      <trkpt lat="46.14564" lon="6.46927">
        <ele>642</ele>
        <time>2011-04-30T15:47:43Z</time>
      </trkpt>
      <trkpt lat="46.14555" lon="6.46913">
        <ele>642</ele>
        <time>2011-04-30T15:47:44Z</time>
      </trkpt>
      <trkpt lat="46.14547" lon="6.469">
        <ele>642</ele>
        <time>2011-04-30T15:47:45Z</time>
      </trkpt>
      <trkpt lat="46.14539" lon="6.46889">
        <ele>642</ele>
        <time>2011-04-30T15:47:46Z</time>
      </trkpt>
      <trkpt lat="46.14533" lon="6.4688">
        <ele>642</ele>
        <time>2011-04-30T15:47:47Z</time>
      </trkpt>
      <trkpt lat="46.14525" lon="6.46863">
        <ele>647</ele>
        <time>2011-04-30T15:47:49Z</time>
      </trkpt>
      <trkpt lat="46.14519" lon="6.46853">
        <ele>647</ele>
        <time>2011-04-30T15:47:51Z</time>
      </trkpt>
      <trkpt lat="46.14509" lon="6.46845">
        <ele>647</ele>
        <time>2011-04-30T15:47:53Z</time>
      </trkpt>
      <trkpt lat="46.14492" lon="6.46838">
        <ele>647</ele>
        <time>2011-04-30T15:47:55Z</time>
      </trkpt>
      <trkpt lat="46.14483" lon="6.46837">
        <ele>647</ele>
        <time>2011-04-30T15:47:56Z</time>
      </trkpt>
      <trkpt lat="46.14471" lon="6.46837">
        <ele>647</ele>
        <time>2011-04-30T15:47:57Z</time>
      </trkpt>
      <trkpt lat="46.14455" lon="6.46838">
        <ele>647</ele>
        <time>2011-04-30T15:47:58Z</time>
      </trkpt>
      <trkpt lat="46.14438" lon="6.46838">
        <ele>647</ele>
        <time>2011-04-30T15:47:59Z</time>
      </trkpt>
      <trkpt lat="46.14421" lon="6.46838">
        <ele>647</ele>
        <time>2011-04-30T15:48:00Z</time>
      </trkpt>
      <trkpt lat="46.14405" lon="6.46838">
        <ele>647</ele>
        <time>2011-04-30T15:48:01Z</time>
      </trkpt>
      <trkpt lat="46.14391" lon="6.46837">
        <ele>647</ele>
        <time>2011-04-30T15:48:02Z</time>
      </trkpt>
      <trkpt lat="46.14377" lon="6.46836">
        <ele>647</ele>
        <time>2011-04-30T15:48:03Z</time>
      </trkpt>
      <trkpt lat="46.14364" lon="6.46835">
        <ele>647</ele>
        <time>2011-04-30T15:48:04Z</time>
      </trkpt>
      <trkpt lat="46.1435" lon="6.46832">
        <ele>647</ele>
        <time>2011-04-30T15:48:05Z</time>
      </trkpt>
      <trkpt lat="46.14336" lon="6.46827">
        <ele>647</ele>
        <time>2011-04-30T15:48:06Z</time>
      </trkpt>
      <trkpt lat="46.14321" lon="6.46818">
        <ele>642</ele>
        <time>2011-04-30T15:48:07Z</time>
      </trkpt>
      <trkpt lat="46.14306" lon="6.46804">
        <ele>642</ele>
        <time>2011-04-30T15:48:08Z</time>
      </trkpt>
      <trkpt lat="46.14291" lon="6.46788">
        <ele>642</ele>
        <time>2011-04-30T15:48:09Z</time>
      </trkpt>
      <trkpt lat="46.14276" lon="6.4677">
        <ele>642</ele>
        <time>2011-04-30T15:48:10Z</time>
      </trkpt>
      <trkpt lat="46.14261" lon="6.46753">
        <ele>642</ele>
        <time>2011-04-30T15:48:11Z</time>
      </trkpt>
      <trkpt lat="46.14245" lon="6.46736">
        <ele>642</ele>
        <time>2011-04-30T15:48:12Z</time>
      </trkpt>
      <trkpt lat="46.14228" lon="6.4672">
        <ele>642</ele>
        <time>2011-04-30T15:48:13Z</time>
      </trkpt>
      <trkpt lat="46.1421" lon="6.46704">
        <ele>642</ele>
        <time>2011-04-30T15:48:14Z</time>
      </trkpt>
      <trkpt lat="46.14193" lon="6.46692">
        <ele>642</ele>
        <time>2011-04-30T15:48:15Z</time>
      </trkpt>
      <trkpt lat="46.14178" lon="6.46681">
        <ele>642</ele>
        <time>2011-04-30T15:48:16Z</time>
      </trkpt>
      <trkpt lat="46.14165" lon="6.46673">
        <ele>648</ele>
        <time>2011-04-30T15:48:17Z</time>
      </trkpt>
      <trkpt lat="46.14155" lon="6.46667">
        <ele>648</ele>
        <time>2011-04-30T15:48:18Z</time>
      </trkpt>
      <trkpt lat="46.14141" lon="6.46657">
        <ele>648</ele>
        <time>2011-04-30T15:48:20Z</time>
      </trkpt>
      <trkpt lat="46.1413" lon="6.46651">
        <ele>648</ele>
        <time>2011-04-30T15:48:22Z</time>
      </trkpt>
      <trkpt lat="46.14115" lon="6.46644">
        <ele>648</ele>
        <time>2011-04-30T15:48:24Z</time>
      </trkpt>
      <trkpt lat="46.14102" lon="6.46629">
        <ele>654</ele>
        <time>2011-04-30T15:48:26Z</time>
      </trkpt>
      <trkpt lat="46.14095" lon="6.46617">
        <ele>654</ele>
        <time>2011-04-30T15:48:27Z</time>
      </trkpt>
      <trkpt lat="46.14088" lon="6.46604">
        <ele>654</ele>
        <time>2011-04-30T15:48:28Z</time>
      </trkpt>
      <trkpt lat="46.14081" lon="6.4659">
        <ele>654</ele>
        <time>2011-04-30T15:48:29Z</time>
      </trkpt>
      <trkpt lat="46.14075" lon="6.46577">
        <ele>654</ele>
        <time>2011-04-30T15:48:30Z</time>
      </trkpt>
      <trkpt lat="46.14068" lon="6.46563">
        <ele>654</ele>
        <time>2011-04-30T15:48:31Z</time>
      </trkpt>
      <trkpt lat="46.14063" lon="6.46549">
        <ele>654</ele>
        <time>2011-04-30T15:48:32Z</time>
      </trkpt>
      <trkpt lat="46.14058" lon="6.46536">
        <ele>654</ele>
        <time>2011-04-30T15:48:33Z</time>
      </trkpt>
      <trkpt lat="46.14053" lon="6.46523">
        <ele>649</ele>
        <time>2011-04-30T15:48:34Z</time>
      </trkpt>
      <trkpt lat="46.14048" lon="6.46509">
        <ele>649</ele>
        <time>2011-04-30T15:48:35Z</time>
      </trkpt>
      <trkpt lat="46.14043" lon="6.46495">
        <ele>649</ele>
        <time>2011-04-30T15:48:36Z</time>
      </trkpt>
      <trkpt lat="46.14038" lon="6.4648">
        <ele>649</ele>
        <time>2011-04-30T15:48:37Z</time>
      </trkpt>
      <trkpt lat="46.14034" lon="6.46465">
        <ele>649</ele>
        <time>2011-04-30T15:48:38Z</time>
      </trkpt>
      <trkpt lat="46.1403" lon="6.4645">
        <ele>649</ele>
        <time>2011-04-30T15:48:39Z</time>
      </trkpt>
      <trkpt lat="46.14027" lon="6.46437">
        <ele>649</ele>
        <time>2011-04-30T15:48:40Z</time>
      </trkpt>
      <trkpt lat="46.14019" lon="6.46413">
        <ele>649</ele>
        <time>2011-04-30T15:48:42Z</time>
      </trkpt>
      <trkpt lat="46.14012" lon="6.46394">
        <ele>644</ele>
        <time>2011-04-30T15:48:44Z</time>
      </trkpt>
      <trkpt lat="46.14005" lon="6.46378">
        <ele>644</ele>
        <time>2011-04-30T15:48:46Z</time>
      </trkpt>
      <trkpt lat="46.14" lon="6.46359">
        <ele>644</ele>
        <time>2011-04-30T15:48:49Z</time>
      </trkpt>
      <trkpt lat="46.13997" lon="6.46343">
        <ele>638</ele>
        <time>2011-04-30T15:48:51Z</time>
      </trkpt>
      <trkpt lat="46.13994" lon="6.46328">
        <ele>638</ele>
        <time>2011-04-30T15:48:53Z</time>
      </trkpt>
      <trkpt lat="46.1399" lon="6.46314">
        <ele>638</ele>
        <time>2011-04-30T15:48:55Z</time>
      </trkpt>
      <trkpt lat="46.13986" lon="6.46298">
        <ele>633</ele>
        <time>2011-04-30T15:48:57Z</time>
      </trkpt>
      <trkpt lat="46.13982" lon="6.46284">
        <ele>633</ele>
        <time>2011-04-30T15:49:00Z</time>
      </trkpt>
      <trkpt lat="46.13974" lon="6.46273">
        <ele>627</ele>
        <time>2011-04-30T15:49:02Z</time>
      </trkpt>
      <trkpt lat="46.1396" lon="6.46262">
        <ele>627</ele>
        <time>2011-04-30T15:49:04Z</time>
      </trkpt>
      <trkpt lat="46.13947" lon="6.46251">
        <ele>618</ele>
        <time>2011-04-30T15:49:06Z</time>
      </trkpt>
      <trkpt lat="46.13932" lon="6.46238">
        <ele>618</ele>
        <time>2011-04-30T15:49:08Z</time>
      </trkpt>
      <trkpt lat="46.13917" lon="6.46226">
        <ele>611</ele>
        <time>2011-04-30T15:49:10Z</time>
      </trkpt>
      <trkpt lat="46.13903" lon="6.46208">
        <ele>611</ele>
        <time>2011-04-30T15:49:12Z</time>
      </trkpt>
      <trkpt lat="46.13897" lon="6.46196">
        <ele>611</ele>
        <time>2011-04-30T15:49:13Z</time>
      </trkpt>
      <trkpt lat="46.1389" lon="6.46183">
        <ele>611</ele>
        <time>2011-04-30T15:49:14Z</time>
      </trkpt>
      <trkpt lat="46.13885" lon="6.46171">
        <ele>605</ele>
        <time>2011-04-30T15:49:15Z</time>
      </trkpt>
      <trkpt lat="46.1388" lon="6.46159">
        <ele>605</ele>
        <time>2011-04-30T15:49:16Z</time>
      </trkpt>
      <trkpt lat="46.13874" lon="6.46147">
        <ele>605</ele>
        <time>2011-04-30T15:49:17Z</time>
      </trkpt>
      <trkpt lat="46.13864" lon="6.46127">
        <ele>605</ele>
        <time>2011-04-30T15:49:19Z</time>
      </trkpt>
      <trkpt lat="46.13859" lon="6.46115">
        <ele>605</ele>
        <time>2011-04-30T15:49:20Z</time>
      </trkpt>
      <trkpt lat="46.13853" lon="6.46093">
        <ele>605</ele>
        <time>2011-04-30T15:49:22Z</time>
      </trkpt>
      <trkpt lat="46.13851" lon="6.4607">
        <ele>605</ele>
        <time>2011-04-30T15:49:24Z</time>
      </trkpt>
      <trkpt lat="46.13851" lon="6.46047">
        <ele>605</ele>
        <time>2011-04-30T15:49:26Z</time>
      </trkpt>
      <trkpt lat="46.13849" lon="6.46023">
        <ele>605</ele>
        <time>2011-04-30T15:49:28Z</time>
      </trkpt>
      <trkpt lat="46.13849" lon="6.46">
        <ele>599</ele>
        <time>2011-04-30T15:49:30Z</time>
      </trkpt>
      <trkpt lat="46.13849" lon="6.45977">
        <ele>599</ele>
        <time>2011-04-30T15:49:32Z</time>
      </trkpt>
      <trkpt lat="46.13846" lon="6.45959">
        <ele>599</ele>
        <time>2011-04-30T15:49:34Z</time>
      </trkpt>
      <trkpt lat="46.13844" lon="6.45943">
        <ele>599</ele>
        <time>2011-04-30T15:49:36Z</time>
      </trkpt>
      <trkpt lat="46.13843" lon="6.45928">
        <ele>599</ele>
        <time>2011-04-30T15:49:39Z</time>
      </trkpt>
      <trkpt lat="46.13833" lon="6.45926">
        <ele>590</ele>
        <time>2011-04-30T15:49:44Z</time>
      </trkpt>
      <trkpt lat="46.13825" lon="6.45933">
        <ele>590</ele>
        <time>2011-04-30T15:50:02Z</time>
      </trkpt>
      <trkpt lat="46.13817" lon="6.45942">
        <ele>601</ele>
        <time>2011-04-30T15:50:11Z</time>
      </trkpt>
      <trkpt lat="46.13812" lon="6.45954">
        <ele>616</ele>
        <time>2011-04-30T15:51:55Z</time>
      </trkpt>
      <trkpt lat="46.13819" lon="6.45945">
        <ele>599</ele>
        <time>2011-04-30T15:53:17Z</time>
      </trkpt>
      <trkpt lat="46.13827" lon="6.4594">
        <ele>615</ele>
        <time>2011-04-30T15:53:36Z</time>
      </trkpt>
      <trkpt lat="46.13834" lon="6.45931">
        <ele>610</ele>
        <time>2011-04-30T15:53:55Z</time>
      </trkpt>
      <trkpt lat="46.13824" lon="6.45935">
        <ele>610</ele>
        <time>2011-04-30T15:55:19Z</time>
      </trkpt>
      <trkpt lat="46.13834" lon="6.4594">
        <ele>623</ele>
        <time>2011-04-30T15:55:38Z</time>
      </trkpt>
      <trkpt lat="46.13825" lon="6.45937">
        <ele>603</ele>
        <time>2011-04-30T15:55:44Z</time>
      </trkpt>
      <trkpt lat="46.13819" lon="6.45948">
        <ele>612</ele>
        <time>2011-04-30T15:56:23Z</time>
      </trkpt>
      <trkpt lat="46.13812" lon="6.45958">
        <ele>612</ele>
        <time>2011-04-30T15:56:32Z</time>
      </trkpt>
      <trkpt lat="46.13805" lon="6.45968">
        <ele>612</ele>
        <time>2011-04-30T15:56:48Z</time>
      </trkpt>
      <trkpt lat="46.13814" lon="6.45962">
        <ele>618</ele>
        <time>2011-04-30T15:56:54Z</time>
      </trkpt>
      <trkpt lat="46.13819" lon="6.45951">
        <ele>623</ele>
        <time>2011-04-30T15:56:59Z</time>
      </trkpt>
      <trkpt lat="46.13824" lon="6.45936">
        <ele>601</ele>
        <time>2011-04-30T15:57:55Z</time>
      </trkpt>
      <trkpt lat="46.13831" lon="6.45926">
        <ele>601</ele>
        <time>2011-04-30T15:58:50Z</time>
      </trkpt>
      <trkpt lat="46.13824" lon="6.4594">
        <ele>595</ele>
        <time>2011-04-30T15:58:56Z</time>
      </trkpt>
      <trkpt lat="46.13816" lon="6.45944">
        <ele>578</ele>
        <time>2011-04-30T15:59:18Z</time>
      </trkpt>
      <trkpt lat="46.13821" lon="6.45934">
        <ele>578</ele>
        <time>2011-04-30T15:59:35Z</time>
      </trkpt>
      <trkpt lat="46.13824" lon="6.45921">
        <ele>578</ele>
        <time>2011-04-30T15:59:45Z</time>
      </trkpt>
      <trkpt lat="46.13834" lon="6.45918">
        <ele>598</ele>
        <time>2011-04-30T16:00:09Z</time>
      </trkpt>
      <trkpt lat="46.13842" lon="6.4591">
        <ele>598</ele>
        <time>2011-04-30T16:00:23Z</time>
      </trkpt>
      <trkpt lat="46.13847" lon="6.45898">
        <ele>612</ele>
        <time>2011-04-30T16:00:28Z</time>
      </trkpt>
      <trkpt lat="46.13837" lon="6.45909">
        <ele>612</ele>
        <time>2011-04-30T16:00:55Z</time>
      </trkpt>
      <trkpt lat="46.13833" lon="6.45922">
        <ele>604</ele>
        <time>2011-04-30T16:01:01Z</time>
      </trkpt>
      <trkpt lat="46.13826" lon="6.45931">
        <ele>604</ele>
        <time>2011-04-30T16:01:19Z</time>
      </trkpt>
      <trkpt lat="46.13819" lon="6.4594">
        <ele>604</ele>
        <time>2011-04-30T16:02:33Z</time>
      </trkpt>
      <trkpt lat="46.13827" lon="6.45934">
        <ele>604</ele>
        <time>2011-04-30T16:02:50Z</time>
      </trkpt>
      <trkpt lat="46.13837" lon="6.45924">
        <ele>604</ele>
        <time>2011-04-30T16:03:01Z</time>
      </trkpt>
      <trkpt lat="46.13844" lon="6.45916">
        <ele>592</ele>
        <time>2011-04-30T16:03:08Z</time>
      </trkpt>
      <trkpt lat="46.13854" lon="6.45907">
        <ele>592</ele>
        <time>2011-04-30T16:03:23Z</time>
      </trkpt>
      <trkpt lat="46.13861" lon="6.45891">
        <ele>585</ele>
        <time>2011-04-30T16:03:27Z</time>
      </trkpt>
      <trkpt lat="46.1387" lon="6.45884">
        <ele>585</ele>
        <time>2011-04-30T16:03:31Z</time>
      </trkpt>
      <trkpt lat="46.13859" lon="6.45897">
        <ele>585</ele>
        <time>2011-04-30T16:03:36Z</time>
      </trkpt>
      <trkpt lat="46.13851" lon="6.45902">
        <ele>585</ele>
        <time>2011-04-30T16:03:38Z</time>
      </trkpt>
      <trkpt lat="46.13844" lon="6.45914">
        <ele>585</ele>
        <time>2011-04-30T16:03:42Z</time>
      </trkpt>
      <trkpt lat="46.13839" lon="6.45927">
        <ele>592</ele>
        <time>2011-04-30T16:03:48Z</time>
      </trkpt>
      <trkpt lat="46.13837" lon="6.45941">
        <ele>599</ele>
        <time>2011-04-30T16:03:54Z</time>
      </trkpt>
      <trkpt lat="46.13827" lon="6.45938">
        <ele>599</ele>
        <time>2011-04-30T16:04:00Z</time>
      </trkpt>
      <trkpt lat="46.13836" lon="6.4593">
        <ele>599</ele>
        <time>2011-04-30T16:04:12Z</time>
      </trkpt>
      <trkpt lat="46.13837" lon="6.45917">
        <ele>580</ele>
        <time>2011-04-30T16:04:47Z</time>
      </trkpt>
      <trkpt lat="46.13834" lon="6.4593">
        <ele>594</ele>
        <time>2011-04-30T16:05:18Z</time>
      </trkpt>
      <trkpt lat="46.13825" lon="6.45941">
        <ele>614</ele>
        <time>2011-04-30T16:05:24Z</time>
      </trkpt>
      <trkpt lat="46.13817" lon="6.45948">
        <ele>625</ele>
        <time>2011-04-30T16:05:32Z</time>
      </trkpt>
      <trkpt lat="46.13826" lon="6.45953">
        <ele>633</ele>
        <time>2011-04-30T16:05:57Z</time>
      </trkpt>
      <trkpt lat="46.13835" lon="6.45949">
        <ele>633</ele>
        <time>2011-04-30T16:06:06Z</time>
      </trkpt>
      <trkpt lat="46.13834" lon="6.45935">
        <ele>609</ele>
        <time>2011-04-30T16:06:18Z</time>
      </trkpt>
      <trkpt lat="46.13825" lon="6.4594">
        <ele>609</ele>
        <time>2011-04-30T16:06:34Z</time>
      </trkpt>
      <trkpt lat="46.13829" lon="6.45926">
        <ele>601</ele>
        <time>2011-04-30T16:07:09Z</time>
      </trkpt>
      <trkpt lat="46.13829" lon="6.45942">
        <ele>601</ele>
        <time>2011-04-30T16:07:23Z</time>
      </trkpt>
      <trkpt lat="46.1382" lon="6.45945">
        <ele>595</ele>
        <time>2011-04-30T16:07:35Z</time>
      </trkpt>
      <trkpt lat="46.13829" lon="6.45943">
        <ele>608</ele>
        <time>2011-04-30T16:07:55Z</time>
      </trkpt>
      <trkpt lat="46.13827" lon="6.45927">
        <ele>595</ele>
        <time>2011-04-30T16:08:13Z</time>
      </trkpt>
      <trkpt lat="46.13836" lon="6.45923">
        <ele>595</ele>
        <time>2011-04-30T16:08:44Z</time>
      </trkpt>
      <trkpt lat="46.13826" lon="6.45923">
        <ele>586</ele>
        <time>2011-04-30T16:09:09Z</time>
      </trkpt>
      <trkpt lat="46.13835" lon="6.45918">
        <ele>580</ele>
        <time>2011-04-30T16:09:18Z</time>
      </trkpt>
      <trkpt lat="46.13848" lon="6.45912">
        <ele>580</ele>
        <time>2011-04-30T16:09:22Z</time>
      </trkpt>
      <trkpt lat="46.13837" lon="6.45919">
        <ele>580</ele>
        <time>2011-04-30T16:09:26Z</time>
      </trkpt>
      <trkpt lat="46.13829" lon="6.45926">
        <ele>580</ele>
        <time>2011-04-30T16:09:29Z</time>
      </trkpt>
      <trkpt lat="46.13819" lon="6.45926">
        <ele>580</ele>
        <time>2011-04-30T16:09:36Z</time>
      </trkpt>
      <trkpt lat="46.13829" lon="6.45927">
        <ele>597</ele>
        <time>2011-04-30T16:09:58Z</time>
      </trkpt>
      <trkpt lat="46.13838" lon="6.45927">
        <ele>605</ele>
        <time>2011-04-30T16:10:05Z</time>
      </trkpt>
      <trkpt lat="46.13847" lon="6.45923">
        <ele>605</ele>
        <time>2011-04-30T16:10:12Z</time>
      </trkpt>
      <trkpt lat="46.13844" lon="6.45935">
        <ele>605</ele>
        <time>2011-04-30T16:10:27Z</time>
      </trkpt>
      <trkpt lat="46.13834" lon="6.45939">
        <ele>599</ele>
        <time>2011-04-30T16:11:04Z</time>
      </trkpt>
      <trkpt lat="46.13843" lon="6.45935">
        <ele>612</ele>
        <time>2011-04-30T16:11:19Z</time>
      </trkpt>
      <trkpt lat="46.13835" lon="6.45943">
        <ele>612</ele>
        <time>2011-04-30T16:11:55Z</time>
      </trkpt>
      <trkpt lat="46.13825" lon="6.45938">
        <ele>612</ele>
        <time>2011-04-30T16:12:19Z</time>
      </trkpt>
      <trkpt lat="46.13836" lon="6.45943">
        <ele>612</ele>
        <time>2011-04-30T16:12:25Z</time>
      </trkpt>
      <trkpt lat="46.13844" lon="6.45936">
        <ele>612</ele>
        <time>2011-04-30T16:12:30Z</time>
      </trkpt>
      <trkpt lat="46.13854" lon="6.45935">
        <ele>612</ele>
        <time>2011-04-30T16:12:31Z</time>
      </trkpt>
      <trkpt lat="46.13844" lon="6.45938">
        <ele>612</ele>
        <time>2011-04-30T16:12:42Z</time>
      </trkpt>
      <trkpt lat="46.13834" lon="6.4594">
        <ele>612</ele>
        <time>2011-04-30T16:12:51Z</time>
      </trkpt>
      <trkpt lat="46.13828" lon="6.4593">
        <ele>592</ele>
        <time>2011-04-30T16:13:07Z</time>
      </trkpt>
      <trkpt lat="46.13837" lon="6.45921">
        <ele>578</ele>
        <time>2011-04-30T16:13:21Z</time>
      </trkpt>
      <trkpt lat="46.13839" lon="6.45913">
        <ele>580</ele>
        <time>2011-04-30T16:15:08Z</time>
      </trkpt>
      <trkpt lat="46.13825" lon="6.45925">
        <ele>580</ele>
        <time>2011-04-30T16:15:09Z</time>
      </trkpt>
      <trkpt lat="46.13833" lon="6.4591">
        <ele>580</ele>
        <time>2011-04-30T16:15:10Z</time>
      </trkpt>
      <trkpt lat="46.13851" lon="6.45949">
        <ele>626</ele>
        <time>2011-04-30T16:15:11Z</time>
      </trkpt>
      <trkpt lat="46.13863" lon="6.45961">
        <ele>649</ele>
        <time>2011-04-30T16:15:13Z</time>
      </trkpt>
      <trkpt lat="46.13853" lon="6.4596">
        <ele>638</ele>
        <time>2011-04-30T16:15:15Z</time>
      </trkpt>
      <trkpt lat="46.13839" lon="6.45963">
        <ele>638</ele>
        <time>2011-04-30T16:15:35Z</time>
      </trkpt>
      <trkpt lat="46.13826" lon="6.45966">
        <ele>629</ele>
        <time>2011-04-30T16:15:38Z</time>
      </trkpt>
      <trkpt lat="46.13817" lon="6.4597">
        <ele>629</ele>
        <time>2011-04-30T16:15:47Z</time>
      </trkpt>
      <trkpt lat="46.13809" lon="6.4596">
        <ele>600</ele>
        <time>2011-04-30T16:16:11Z</time>
      </trkpt>
      <trkpt lat="46.13819" lon="6.45953">
        <ele>600</ele>
        <time>2011-04-30T16:16:19Z</time>
      </trkpt>
      <trkpt lat="46.13828" lon="6.45944">
        <ele>600</ele>
        <time>2011-04-30T16:16:29Z</time>
      </trkpt>
      <trkpt lat="46.13819" lon="6.45947">
        <ele>600</ele>
        <time>2011-04-30T16:16:43Z</time>
      </trkpt>
      <trkpt lat="46.13814" lon="6.45935">
        <ele>609</ele>
        <time>2011-04-30T16:18:15Z</time>
      </trkpt>
      <trkpt lat="46.13814" lon="6.45913">
        <ele>609</ele>
        <time>2011-04-30T16:18:18Z</time>
      </trkpt>
      <trkpt lat="46.13815" lon="6.45891">
        <ele>609</ele>
        <time>2011-04-30T16:18:20Z</time>
      </trkpt>
      <trkpt lat="46.13818" lon="6.45864">
        <ele>602</ele>
        <time>2011-04-30T16:18:22Z</time>
      </trkpt>
      <trkpt lat="46.13821" lon="6.4585">
        <ele>602</ele>
        <time>2011-04-30T16:18:23Z</time>
      </trkpt>
      <trkpt lat="46.13824" lon="6.45838">
        <ele>602</ele>
        <time>2011-04-30T16:18:24Z</time>
      </trkpt>
      <trkpt lat="46.13831" lon="6.45813">
        <ele>602</ele>
        <time>2011-04-30T16:18:26Z</time>
      </trkpt>
      <trkpt lat="46.13837" lon="6.45788">
        <ele>602</ele>
        <time>2011-04-30T16:18:28Z</time>
      </trkpt>
      <trkpt lat="46.13841" lon="6.45775">
        <ele>602</ele>
        <time>2011-04-30T16:18:29Z</time>
      </trkpt>
      <trkpt lat="46.13844" lon="6.4576">
        <ele>602</ele>
        <time>2011-04-30T16:18:30Z</time>
      </trkpt>
      <trkpt lat="46.13847" lon="6.45744">
        <ele>597</ele>
        <time>2011-04-30T16:18:31Z</time>
      </trkpt>
      <trkpt lat="46.1385" lon="6.45727">
        <ele>597</ele>
        <time>2011-04-30T16:18:32Z</time>
      </trkpt>
      <trkpt lat="46.13852" lon="6.45709">
        <ele>597</ele>
        <time>2011-04-30T16:18:33Z</time>
      </trkpt>
      <trkpt lat="46.13854" lon="6.4569">
        <ele>597</ele>
        <time>2011-04-30T16:18:34Z</time>
      </trkpt>
      <trkpt lat="46.13856" lon="6.45673">
        <ele>597</ele>
        <time>2011-04-30T16:18:35Z</time>
      </trkpt>
      <trkpt lat="46.13856" lon="6.45657">
        <ele>597</ele>
        <time>2011-04-30T16:18:36Z</time>
      </trkpt>
      <trkpt lat="46.13857" lon="6.45642">
        <ele>597</ele>
        <time>2011-04-30T16:18:37Z</time>
      </trkpt>
      <trkpt lat="46.13857" lon="6.45628">
        <ele>597</ele>
        <time>2011-04-30T16:18:38Z</time>
      </trkpt>
      <trkpt lat="46.13856" lon="6.45602">
        <ele>597</ele>
        <time>2011-04-30T16:18:40Z</time>
      </trkpt>
      <trkpt lat="46.13855" lon="6.45586">
        <ele>592</ele>
        <time>2011-04-30T16:18:41Z</time>
      </trkpt>
      <trkpt lat="46.13852" lon="6.45568">
        <ele>592</ele>
        <time>2011-04-30T16:18:42Z</time>
      </trkpt>
      <trkpt lat="46.1385" lon="6.45549">
        <ele>592</ele>
        <time>2011-04-30T16:18:43Z</time>
      </trkpt>
      <trkpt lat="46.13847" lon="6.4553">
        <ele>592</ele>
        <time>2011-04-30T16:18:44Z</time>
      </trkpt>
      <trkpt lat="46.13843" lon="6.45512">
        <ele>592</ele>
        <time>2011-04-30T16:18:45Z</time>
      </trkpt>
      <trkpt lat="46.1384" lon="6.45496">
        <ele>592</ele>
        <time>2011-04-30T16:18:46Z</time>
      </trkpt>
      <trkpt lat="46.13836" lon="6.45479">
        <ele>592</ele>
        <time>2011-04-30T16:18:47Z</time>
      </trkpt>
      <trkpt lat="46.13829" lon="6.4546">
        <ele>592</ele>
        <time>2011-04-30T16:18:48Z</time>
      </trkpt>
      <trkpt lat="46.13821" lon="6.4544">
        <ele>592</ele>
        <time>2011-04-30T16:18:49Z</time>
      </trkpt>
      <trkpt lat="46.13814" lon="6.4542">
        <ele>592</ele>
        <time>2011-04-30T16:18:50Z</time>
      </trkpt>
      <trkpt lat="46.13807" lon="6.454">
        <ele>592</ele>
        <time>2011-04-30T16:18:51Z</time>
      </trkpt>
      <trkpt lat="46.138" lon="6.4538">
        <ele>592</ele>
        <time>2011-04-30T16:18:52Z</time>
      </trkpt>
      <trkpt lat="46.13794" lon="6.45362">
        <ele>592</ele>
        <time>2011-04-30T16:18:53Z</time>
      </trkpt>
      <trkpt lat="46.13787" lon="6.45346">
        <ele>592</ele>
        <time>2011-04-30T16:18:54Z</time>
      </trkpt>
      <trkpt lat="46.13782" lon="6.45333">
        <ele>592</ele>
        <time>2011-04-30T16:18:55Z</time>
      </trkpt>
      <trkpt lat="46.13776" lon="6.4532">
        <ele>592</ele>
        <time>2011-04-30T16:18:56Z</time>
      </trkpt>
      <trkpt lat="46.1377" lon="6.4531">
        <ele>592</ele>
        <time>2011-04-30T16:18:57Z</time>
      </trkpt>
      <trkpt lat="46.13764" lon="6.45299">
        <ele>592</ele>
        <time>2011-04-30T16:18:58Z</time>
      </trkpt>
      <trkpt lat="46.13753" lon="6.45286">
        <ele>592</ele>
        <time>2011-04-30T16:19:00Z</time>
      </trkpt>
      <trkpt lat="46.13743" lon="6.45283">
        <ele>592</ele>
        <time>2011-04-30T16:19:02Z</time>
      </trkpt>
      <trkpt lat="46.13737" lon="6.45293">
        <ele>592</ele>
        <time>2011-04-30T16:19:05Z</time>
      </trkpt>
      <trkpt lat="46.13737" lon="6.45307">
        <ele>592</ele>
        <time>2011-04-30T16:19:08Z</time>
      </trkpt>
      <trkpt lat="46.13737" lon="6.45321">
        <ele>592</ele>
        <time>2011-04-30T16:19:12Z</time>
      </trkpt>
      <trkpt lat="46.13735" lon="6.45336">
        <ele>592</ele>
        <time>2011-04-30T16:19:16Z</time>
      </trkpt>
      <trkpt lat="46.13733" lon="6.45353">
        <ele>592</ele>
        <time>2011-04-30T16:19:18Z</time>
      </trkpt>
      <trkpt lat="46.13728" lon="6.45368">
        <ele>592</ele>
        <time>2011-04-30T16:19:20Z</time>
      </trkpt>
      <trkpt lat="46.13719" lon="6.45378">
        <ele>592</ele>
        <time>2011-04-30T16:19:22Z</time>
      </trkpt>
      <trkpt lat="46.13705" lon="6.45387">
        <ele>592</ele>
        <time>2011-04-30T16:19:24Z</time>
      </trkpt>
      <trkpt lat="46.13689" lon="6.45396">
        <ele>592</ele>
        <time>2011-04-30T16:19:26Z</time>
      </trkpt>
      <trkpt lat="46.13676" lon="6.45401">
        <ele>592</ele>
        <time>2011-04-30T16:19:28Z</time>
      </trkpt>
      <trkpt lat="46.13658" lon="6.45402">
        <ele>592</ele>
        <time>2011-04-30T16:19:30Z</time>
      </trkpt>
      <trkpt lat="46.13647" lon="6.45399">
        <ele>592</ele>
        <time>2011-04-30T16:19:31Z</time>
      </trkpt>
      <trkpt lat="46.13636" lon="6.45395">
        <ele>592</ele>
        <time>2011-04-30T16:19:32Z</time>
      </trkpt>
      <trkpt lat="46.13623" lon="6.45388">
        <ele>592</ele>
        <time>2011-04-30T16:19:33Z</time>
      </trkpt>
      <trkpt lat="46.13609" lon="6.45382">
        <ele>592</ele>
        <time>2011-04-30T16:19:34Z</time>
      </trkpt>
      <trkpt lat="46.13595" lon="6.45377">
        <ele>592</ele>
        <time>2011-04-30T16:19:35Z</time>
      </trkpt>
      <trkpt lat="46.1358" lon="6.4537">
        <ele>592</ele>
        <time>2011-04-30T16:19:36Z</time>
      </trkpt>
      <trkpt lat="46.13564" lon="6.45364">
        <ele>599</ele>
        <time>2011-04-30T16:19:37Z</time>
      </trkpt>
      <trkpt lat="46.13549" lon="6.45358">
        <ele>599</ele>
        <time>2011-04-30T16:19:38Z</time>
      </trkpt>
      <trkpt lat="46.13532" lon="6.45351">
        <ele>599</ele>
        <time>2011-04-30T16:19:39Z</time>
      </trkpt>
      <trkpt lat="46.13516" lon="6.45343">
        <ele>604</ele>
        <time>2011-04-30T16:19:40Z</time>
      </trkpt>
      <trkpt lat="46.13503" lon="6.45339">
        <ele>604</ele>
        <time>2011-04-30T16:19:41Z</time>
      </trkpt>
      <trkpt lat="46.13491" lon="6.45334">
        <ele>604</ele>
        <time>2011-04-30T16:19:42Z</time>
      </trkpt>
      <trkpt lat="46.13475" lon="6.45329">
        <ele>610</ele>
        <time>2011-04-30T16:19:44Z</time>
      </trkpt>
      <trkpt lat="46.13464" lon="6.45326">
        <ele>610</ele>
        <time>2011-04-30T16:19:47Z</time>
      </trkpt>
      <trkpt lat="46.13451" lon="6.45325">
        <ele>610</ele>
        <time>2011-04-30T16:20:03Z</time>
      </trkpt>
      <trkpt lat="46.1344" lon="6.45323">
        <ele>610</ele>
        <time>2011-04-30T16:20:04Z</time>
      </trkpt>
      <trkpt lat="46.13428" lon="6.45319">
        <ele>610</ele>
        <time>2011-04-30T16:20:05Z</time>
      </trkpt>
      <trkpt lat="46.13413" lon="6.45313">
        <ele>616</ele>
        <time>2011-04-30T16:20:06Z</time>
      </trkpt>
      <trkpt lat="46.134" lon="6.45304">
        <ele>616</ele>
        <time>2011-04-30T16:20:07Z</time>
      </trkpt>
      <trkpt lat="46.13385" lon="6.45292">
        <ele>616</ele>
        <time>2011-04-30T16:20:08Z</time>
      </trkpt>
      <trkpt lat="46.13368" lon="6.45278">
        <ele>624</ele>
        <time>2011-04-30T16:20:09Z</time>
      </trkpt>
      <trkpt lat="46.13352" lon="6.45264">
        <ele>624</ele>
        <time>2011-04-30T16:20:10Z</time>
      </trkpt>
      <trkpt lat="46.13335" lon="6.45251">
        <ele>630</ele>
        <time>2011-04-30T16:20:11Z</time>
      </trkpt>
      <trkpt lat="46.13318" lon="6.45237">
        <ele>630</ele>
        <time>2011-04-30T16:20:12Z</time>
      </trkpt>
      <trkpt lat="46.13301" lon="6.4522">
        <ele>636</ele>
        <time>2011-04-30T16:20:13Z</time>
      </trkpt>
      <trkpt lat="46.13285" lon="6.45204">
        <ele>636</ele>
        <time>2011-04-30T16:20:14Z</time>
      </trkpt>
      <trkpt lat="46.13271" lon="6.45188">
        <ele>641</ele>
        <time>2011-04-30T16:20:15Z</time>
      </trkpt>
      <trkpt lat="46.13258" lon="6.45174">
        <ele>641</ele>
        <time>2011-04-30T16:20:16Z</time>
      </trkpt>
      <trkpt lat="46.13247" lon="6.45162">
        <ele>646</ele>
        <time>2011-04-30T16:20:17Z</time>
      </trkpt>
      <trkpt lat="46.13236" lon="6.45152">
        <ele>646</ele>
        <time>2011-04-30T16:20:18Z</time>
      </trkpt>
      <trkpt lat="46.13224" lon="6.45145">
        <ele>651</ele>
        <time>2011-04-30T16:20:19Z</time>
      </trkpt>
      <trkpt lat="46.13211" lon="6.45138">
        <ele>651</ele>
        <time>2011-04-30T16:20:20Z</time>
      </trkpt>
      <trkpt lat="46.13199" lon="6.45131">
        <ele>657</ele>
        <time>2011-04-30T16:20:21Z</time>
      </trkpt>
      <trkpt lat="46.13186" lon="6.45122">
        <ele>657</ele>
        <time>2011-04-30T16:20:22Z</time>
      </trkpt>
      <trkpt lat="46.13174" lon="6.45116">
        <ele>663</ele>
        <time>2011-04-30T16:20:23Z</time>
      </trkpt>
      <trkpt lat="46.13164" lon="6.45111">
        <ele>663</ele>
        <time>2011-04-30T16:20:24Z</time>
      </trkpt>
      <trkpt lat="46.13154" lon="6.45109">
        <ele>669</ele>
        <time>2011-04-30T16:20:25Z</time>
      </trkpt>
      <trkpt lat="46.13145" lon="6.45108">
        <ele>669</ele>
        <time>2011-04-30T16:20:26Z</time>
      </trkpt>
      <trkpt lat="46.13135" lon="6.45107">
        <ele>674</ele>
        <time>2011-04-30T16:20:27Z</time>
      </trkpt>
      <trkpt lat="46.13118" lon="6.45105">
        <ele>674</ele>
        <time>2011-04-30T16:20:29Z</time>
      </trkpt>
      <trkpt lat="46.13109" lon="6.45101">
        <ele>680</ele>
        <time>2011-04-30T16:20:30Z</time>
      </trkpt>
      <trkpt lat="46.13099" lon="6.45097">
        <ele>680</ele>
        <time>2011-04-30T16:20:31Z</time>
      </trkpt>
      <trkpt lat="46.13089" lon="6.45094">
        <ele>680</ele>
        <time>2011-04-30T16:20:32Z</time>
      </trkpt>
      <trkpt lat="46.13078" lon="6.4509">
        <ele>688</ele>
        <time>2011-04-30T16:20:33Z</time>
      </trkpt>
      <trkpt lat="46.13069" lon="6.45086">
        <ele>688</ele>
        <time>2011-04-30T16:20:34Z</time>
      </trkpt>
      <trkpt lat="46.13052" lon="6.45078">
        <ele>693</ele>
        <time>2011-04-30T16:20:36Z</time>
      </trkpt>
      <trkpt lat="46.13046" lon="6.45068">
        <ele>693</ele>
        <time>2011-04-30T16:20:38Z</time>
      </trkpt>
      <trkpt lat="46.13048" lon="6.45046">
        <ele>700</ele>
        <time>2011-04-30T16:20:40Z</time>
      </trkpt>
      <trkpt lat="46.13052" lon="6.45019">
        <ele>700</ele>
        <time>2011-04-30T16:20:42Z</time>
      </trkpt>
      <trkpt lat="46.13056" lon="6.45006">
        <ele>700</ele>
        <time>2011-04-30T16:20:43Z</time>
      </trkpt>
      <trkpt lat="46.1306" lon="6.44986">
        <ele>707</ele>
        <time>2011-04-30T16:20:45Z</time>
      </trkpt>
      <trkpt lat="46.13064" lon="6.44966">
        <ele>707</ele>
        <time>2011-04-30T16:20:47Z</time>
      </trkpt>
      <trkpt lat="46.13069" lon="6.44951">
        <ele>707</ele>
        <time>2011-04-30T16:20:49Z</time>
      </trkpt>
      <trkpt lat="46.13077" lon="6.44939">
        <ele>707</ele>
        <time>2011-04-30T16:21:02Z</time>
      </trkpt>
      <trkpt lat="46.1308" lon="6.44924">
        <ele>707</ele>
        <time>2011-04-30T16:21:04Z</time>
      </trkpt>
      <trkpt lat="46.13078" lon="6.4491">
        <ele>707</ele>
        <time>2011-04-30T16:21:06Z</time>
      </trkpt>
      <trkpt lat="46.13074" lon="6.44896">
        <ele>707</ele>
        <time>2011-04-30T16:21:09Z</time>
      </trkpt>
      <trkpt lat="46.13075" lon="6.44879">
        <ele>707</ele>
        <time>2011-04-30T16:21:12Z</time>
      </trkpt>
      <trkpt lat="46.13084" lon="6.44862">
        <ele>701</ele>
        <time>2011-04-30T16:21:15Z</time>
      </trkpt>
      <trkpt lat="46.13092" lon="6.44846">
        <ele>701</ele>
        <time>2011-04-30T16:21:17Z</time>
      </trkpt>
      <trkpt lat="46.13097" lon="6.44825">
        <ele>701</ele>
        <time>2011-04-30T16:21:19Z</time>
      </trkpt>
      <trkpt lat="46.13101" lon="6.44806">
        <ele>701</ele>
        <time>2011-04-30T16:21:21Z</time>
      </trkpt>
      <trkpt lat="46.13103" lon="6.44791">
        <ele>701</ele>
        <time>2011-04-30T16:21:23Z</time>
      </trkpt>
      <trkpt lat="46.13109" lon="6.44778">
        <ele>701</ele>
        <time>2011-04-30T16:21:25Z</time>
      </trkpt>
      <trkpt lat="46.13115" lon="6.44767">
        <ele>701</ele>
        <time>2011-04-30T16:21:27Z</time>
      </trkpt>
      <trkpt lat="46.1312" lon="6.44754">
        <ele>707</ele>
        <time>2011-04-30T16:21:29Z</time>
      </trkpt>
      <trkpt lat="46.13125" lon="6.44737">
        <ele>707</ele>
        <time>2011-04-30T16:21:32Z</time>
      </trkpt>
      <trkpt lat="46.13132" lon="6.44729">
        <ele>707</ele>
        <time>2011-04-30T16:21:34Z</time>
      </trkpt>
      <trkpt lat="46.13139" lon="6.44715">
        <ele>699</ele>
        <time>2011-04-30T16:21:37Z</time>
      </trkpt>
      <trkpt lat="46.13142" lon="6.44699">
        <ele>691</ele>
        <time>2011-04-30T16:21:39Z</time>
      </trkpt>
      <trkpt lat="46.13145" lon="6.4468">
        <ele>683</ele>
        <time>2011-04-30T16:21:41Z</time>
      </trkpt>
      <trkpt lat="46.13152" lon="6.44663">
        <ele>683</ele>
        <time>2011-04-30T16:21:43Z</time>
      </trkpt>
      <trkpt lat="46.13161" lon="6.44647">
        <ele>677</ele>
        <time>2011-04-30T16:21:45Z</time>
      </trkpt>
      <trkpt lat="46.13164" lon="6.44628">
        <ele>670</ele>
        <time>2011-04-30T16:21:47Z</time>
      </trkpt>
      <trkpt lat="46.13168" lon="6.44606">
        <ele>663</ele>
        <time>2011-04-30T16:21:49Z</time>
      </trkpt>
      <trkpt lat="46.13171" lon="6.44586">
        <ele>658</ele>
        <time>2011-04-30T16:21:51Z</time>
      </trkpt>
      <trkpt lat="46.13175" lon="6.44561">
        <ele>652</ele>
        <time>2011-04-30T16:21:53Z</time>
      </trkpt>
      <trkpt lat="46.13176" lon="6.44547">
        <ele>652</ele>
        <time>2011-04-30T16:21:54Z</time>
      </trkpt>
      <trkpt lat="46.13177" lon="6.4453">
        <ele>645</ele>
        <time>2011-04-30T16:21:55Z</time>
      </trkpt>
      <trkpt lat="46.13179" lon="6.44514">
        <ele>645</ele>
        <time>2011-04-30T16:21:56Z</time>
      </trkpt>
      <trkpt lat="46.13179" lon="6.44498">
        <ele>639</ele>
        <time>2011-04-30T16:21:57Z</time>
      </trkpt>
      <trkpt lat="46.13181" lon="6.44479">
        <ele>639</ele>
        <time>2011-04-30T16:21:58Z</time>
      </trkpt>
      <trkpt lat="46.13182" lon="6.4446">
        <ele>639</ele>
        <time>2011-04-30T16:21:59Z</time>
      </trkpt>
      <trkpt lat="46.13182" lon="6.44442">
        <ele>639</ele>
        <time>2011-04-30T16:22:00Z</time>
      </trkpt>
      <trkpt lat="46.13181" lon="6.44425">
        <ele>639</ele>
        <time>2011-04-30T16:22:01Z</time>
      </trkpt>
      <trkpt lat="46.1318" lon="6.4441">
        <ele>639</ele>
        <time>2011-04-30T16:22:02Z</time>
      </trkpt>
      <trkpt lat="46.13183" lon="6.44396">
        <ele>633</ele>
        <time>2011-04-30T16:22:03Z</time>
      </trkpt>
      <trkpt lat="46.13185" lon="6.44382">
        <ele>633</ele>
        <time>2011-04-30T16:22:04Z</time>
      </trkpt>
      <trkpt lat="46.13187" lon="6.44368">
        <ele>627</ele>
        <time>2011-04-30T16:22:05Z</time>
      </trkpt>
      <trkpt lat="46.13189" lon="6.44351">
        <ele>627</ele>
        <time>2011-04-30T16:22:06Z</time>
      </trkpt>
      <trkpt lat="46.13193" lon="6.44332">
        <ele>621</ele>
        <time>2011-04-30T16:22:07Z</time>
      </trkpt>
      <trkpt lat="46.13197" lon="6.44314">
        <ele>621</ele>
        <time>2011-04-30T16:22:08Z</time>
      </trkpt>
      <trkpt lat="46.13201" lon="6.44297">
        <ele>621</ele>
        <time>2011-04-30T16:22:09Z</time>
      </trkpt>
      <trkpt lat="46.13204" lon="6.4428">
        <ele>616</ele>
        <time>2011-04-30T16:22:10Z</time>
      </trkpt>
      <trkpt lat="46.13205" lon="6.4426">
        <ele>616</ele>
        <time>2011-04-30T16:22:11Z</time>
      </trkpt>
      <trkpt lat="46.13206" lon="6.44236">
        <ele>616</ele>
        <time>2011-04-30T16:22:12Z</time>
      </trkpt>
      <trkpt lat="46.13207" lon="6.44212">
        <ele>616</ele>
        <time>2011-04-30T16:22:13Z</time>
      </trkpt>
      <trkpt lat="46.13207" lon="6.44189">
        <ele>616</ele>
        <time>2011-04-30T16:22:14Z</time>
      </trkpt>
      <trkpt lat="46.13207" lon="6.44169">
        <ele>616</ele>
        <time>2011-04-30T16:22:15Z</time>
      </trkpt>
      <trkpt lat="46.1321" lon="6.4415">
        <ele>616</ele>
        <time>2011-04-30T16:22:16Z</time>
      </trkpt>
      <trkpt lat="46.13214" lon="6.44133">
        <ele>616</ele>
        <time>2011-04-30T16:22:17Z</time>
      </trkpt>
      <trkpt lat="46.13219" lon="6.44117">
        <ele>616</ele>
        <time>2011-04-30T16:22:18Z</time>
      </trkpt>
      <trkpt lat="46.13222" lon="6.44103">
        <ele>616</ele>
        <time>2011-04-30T16:22:19Z</time>
      </trkpt>
      <trkpt lat="46.13224" lon="6.44089">
        <ele>616</ele>
        <time>2011-04-30T16:22:20Z</time>
      </trkpt>
      <trkpt lat="46.13225" lon="6.44073">
        <ele>616</ele>
        <time>2011-04-30T16:22:21Z</time>
      </trkpt>
      <trkpt lat="46.13227" lon="6.44056">
        <ele>616</ele>
        <time>2011-04-30T16:22:22Z</time>
      </trkpt>
      <trkpt lat="46.13228" lon="6.44036">
        <ele>616</ele>
        <time>2011-04-30T16:22:23Z</time>
      </trkpt>
      <trkpt lat="46.13229" lon="6.44017">
        <ele>616</ele>
        <time>2011-04-30T16:22:24Z</time>
      </trkpt>
      <trkpt lat="46.13233" lon="6.43996">
        <ele>616</ele>
        <time>2011-04-30T16:22:25Z</time>
      </trkpt>
      <trkpt lat="46.13235" lon="6.43974">
        <ele>616</ele>
        <time>2011-04-30T16:22:26Z</time>
      </trkpt>
      <trkpt lat="46.13234" lon="6.43948">
        <ele>616</ele>
        <time>2011-04-30T16:22:27Z</time>
      </trkpt>
      <trkpt lat="46.13234" lon="6.43925">
        <ele>616</ele>
        <time>2011-04-30T16:22:28Z</time>
      </trkpt>
      <trkpt lat="46.13233" lon="6.43903">
        <ele>616</ele>
        <time>2011-04-30T16:22:29Z</time>
      </trkpt>
      <trkpt lat="46.13233" lon="6.43882">
        <ele>616</ele>
        <time>2011-04-30T16:22:30Z</time>
      </trkpt>
      <trkpt lat="46.13232" lon="6.43859">
        <ele>616</ele>
        <time>2011-04-30T16:22:31Z</time>
      </trkpt>
      <trkpt lat="46.13233" lon="6.43836">
        <ele>616</ele>
        <time>2011-04-30T16:22:32Z</time>
      </trkpt>
      <trkpt lat="46.13236" lon="6.43812">
        <ele>622</ele>
        <time>2011-04-30T16:22:33Z</time>
      </trkpt>
      <trkpt lat="46.1324" lon="6.43789">
        <ele>622</ele>
        <time>2011-04-30T16:22:34Z</time>
      </trkpt>
      <trkpt lat="46.13247" lon="6.43772">
        <ele>622</ele>
        <time>2011-04-30T16:22:35Z</time>
      </trkpt>
      <trkpt lat="46.13253" lon="6.43758">
        <ele>627</ele>
        <time>2011-04-30T16:22:36Z</time>
      </trkpt>
      <trkpt lat="46.13262" lon="6.43746">
        <ele>627</ele>
        <time>2011-04-30T16:22:37Z</time>
      </trkpt>
      <trkpt lat="46.13275" lon="6.43736">
        <ele>627</ele>
        <time>2011-04-30T16:22:38Z</time>
      </trkpt>
      <trkpt lat="46.13287" lon="6.43728">
        <ele>633</ele>
        <time>2011-04-30T16:22:39Z</time>
      </trkpt>
      <trkpt lat="46.13295" lon="6.43721">
        <ele>633</ele>
        <time>2011-04-30T16:22:40Z</time>
      </trkpt>
      <trkpt lat="46.13302" lon="6.4371">
        <ele>640</ele>
        <time>2011-04-30T16:22:41Z</time>
      </trkpt>
      <trkpt lat="46.13306" lon="6.43697">
        <ele>640</ele>
        <time>2011-04-30T16:22:42Z</time>
      </trkpt>
      <trkpt lat="46.13304" lon="6.4368">
        <ele>640</ele>
        <time>2011-04-30T16:22:43Z</time>
      </trkpt>
      <trkpt lat="46.13304" lon="6.43661">
        <ele>640</ele>
        <time>2011-04-30T16:22:44Z</time>
      </trkpt>
      <trkpt lat="46.13303" lon="6.43641">
        <ele>645</ele>
        <time>2011-04-30T16:22:45Z</time>
      </trkpt>
      <trkpt lat="46.13305" lon="6.43622">
        <ele>645</ele>
        <time>2011-04-30T16:22:46Z</time>
      </trkpt>
      <trkpt lat="46.13305" lon="6.43606">
        <ele>645</ele>
        <time>2011-04-30T16:22:47Z</time>
      </trkpt>
      <trkpt lat="46.13303" lon="6.43591">
        <ele>645</ele>
        <time>2011-04-30T16:22:48Z</time>
      </trkpt>
      <trkpt lat="46.13302" lon="6.43574">
        <ele>645</ele>
        <time>2011-04-30T16:22:49Z</time>
      </trkpt>
      <trkpt lat="46.13296" lon="6.43558">
        <ele>645</ele>
        <time>2011-04-30T16:22:50Z</time>
      </trkpt>
      <trkpt lat="46.1329" lon="6.43541">
        <ele>645</ele>
        <time>2011-04-30T16:22:51Z</time>
      </trkpt>
      <trkpt lat="46.13287" lon="6.43519">
        <ele>650</ele>
        <time>2011-04-30T16:22:53Z</time>
      </trkpt>
      <trkpt lat="46.13283" lon="6.43506">
        <ele>650</ele>
        <time>2011-04-30T16:22:56Z</time>
      </trkpt>
      <trkpt lat="46.13291" lon="6.43481">
        <ele>650</ele>
        <time>2011-04-30T16:23:09Z</time>
      </trkpt>
      <trkpt lat="46.13296" lon="6.43464">
        <ele>650</ele>
        <time>2011-04-30T16:23:10Z</time>
      </trkpt>
      <trkpt lat="46.133" lon="6.43445">
        <ele>650</ele>
        <time>2011-04-30T16:23:11Z</time>
      </trkpt>
      <trkpt lat="46.13303" lon="6.4343">
        <ele>650</ele>
        <time>2011-04-30T16:23:12Z</time>
      </trkpt>
      <trkpt lat="46.13305" lon="6.4341">
        <ele>650</ele>
        <time>2011-04-30T16:23:14Z</time>
      </trkpt>
      <trkpt lat="46.13293" lon="6.434">
        <ele>650</ele>
        <time>2011-04-30T16:23:17Z</time>
      </trkpt>
      <trkpt lat="46.1328" lon="6.43399">
        <ele>650</ele>
        <time>2011-04-30T16:23:18Z</time>
      </trkpt>
      <trkpt lat="46.13267" lon="6.43397">
        <ele>650</ele>
        <time>2011-04-30T16:23:19Z</time>
      </trkpt>
      <trkpt lat="46.13253" lon="6.43393">
        <ele>650</ele>
        <time>2011-04-30T16:23:20Z</time>
      </trkpt>
      <trkpt lat="46.13237" lon="6.43388">
        <ele>650</ele>
        <time>2011-04-30T16:23:21Z</time>
      </trkpt>
      <trkpt lat="46.13224" lon="6.43382">
        <ele>650</ele>
        <time>2011-04-30T16:23:22Z</time>
      </trkpt>
      <trkpt lat="46.1321" lon="6.43372">
        <ele>650</ele>
        <time>2011-04-30T16:23:23Z</time>
      </trkpt>
      <trkpt lat="46.13197" lon="6.4336">
        <ele>650</ele>
        <time>2011-04-30T16:23:24Z</time>
      </trkpt>
      <trkpt lat="46.13187" lon="6.43342">
        <ele>650</ele>
        <time>2011-04-30T16:23:25Z</time>
      </trkpt>
      <trkpt lat="46.13176" lon="6.43329">
        <ele>650</ele>
        <time>2011-04-30T16:23:26Z</time>
      </trkpt>
      <trkpt lat="46.13169" lon="6.43313">
        <ele>650</ele>
        <time>2011-04-30T16:23:27Z</time>
      </trkpt>
      <trkpt lat="46.13164" lon="6.433">
        <ele>650</ele>
        <time>2011-04-30T16:23:28Z</time>
      </trkpt>
      <trkpt lat="46.13158" lon="6.43277">
        <ele>650</ele>
        <time>2011-04-30T16:23:30Z</time>
      </trkpt>
      <trkpt lat="46.13157" lon="6.43262">
        <ele>658</ele>
        <time>2011-04-30T16:23:32Z</time>
      </trkpt>
      <trkpt lat="46.13147" lon="6.43266">
        <ele>658</ele>
        <time>2011-04-30T16:23:36Z</time>
      </trkpt>
      <trkpt lat="46.13143" lon="6.43283">
        <ele>664</ele>
        <time>2011-04-30T16:23:38Z</time>
      </trkpt>
      <trkpt lat="46.13137" lon="6.43297">
        <ele>664</ele>
        <time>2011-04-30T16:23:40Z</time>
      </trkpt>
      <trkpt lat="46.13126" lon="6.43308">
        <ele>664</ele>
        <time>2011-04-30T16:23:42Z</time>
      </trkpt>
      <trkpt lat="46.13109" lon="6.43309">
        <ele>670</ele>
        <time>2011-04-30T16:23:44Z</time>
      </trkpt>
      <trkpt lat="46.13099" lon="6.4331">
        <ele>670</ele>
        <time>2011-04-30T16:23:45Z</time>
      </trkpt>
      <trkpt lat="46.1308" lon="6.43311">
        <ele>670</ele>
        <time>2011-04-30T16:23:47Z</time>
      </trkpt>
      <trkpt lat="46.13069" lon="6.43312">
        <ele>670</ele>
        <time>2011-04-30T16:23:48Z</time>
      </trkpt>
      <trkpt lat="46.13057" lon="6.43314">
        <ele>670</ele>
        <time>2011-04-30T16:23:49Z</time>
      </trkpt>
      <trkpt lat="46.13042" lon="6.43317">
        <ele>676</ele>
        <time>2011-04-30T16:23:51Z</time>
      </trkpt>
      <trkpt lat="46.13028" lon="6.4332">
        <ele>676</ele>
        <time>2011-04-30T16:23:53Z</time>
      </trkpt>
      <trkpt lat="46.13014" lon="6.43323">
        <ele>676</ele>
        <time>2011-04-30T16:23:55Z</time>
      </trkpt>
      <trkpt lat="46.12996" lon="6.43319">
        <ele>685</ele>
        <time>2011-04-30T16:23:57Z</time>
      </trkpt>
      <trkpt lat="46.12982" lon="6.43319">
        <ele>685</ele>
        <time>2011-04-30T16:23:59Z</time>
      </trkpt>
      <trkpt lat="46.12972" lon="6.43313">
        <ele>694</ele>
        <time>2011-04-30T16:24:03Z</time>
      </trkpt>
      <trkpt lat="46.12961" lon="6.43304">
        <ele>700</ele>
        <time>2011-04-30T16:24:08Z</time>
      </trkpt>
      <trkpt lat="46.12946" lon="6.43298">
        <ele>700</ele>
        <time>2011-04-30T16:24:10Z</time>
      </trkpt>
      <trkpt lat="46.1293" lon="6.43291">
        <ele>700</ele>
        <time>2011-04-30T16:24:12Z</time>
      </trkpt>
      <trkpt lat="46.12915" lon="6.4328">
        <ele>700</ele>
        <time>2011-04-30T16:24:14Z</time>
      </trkpt>
      <trkpt lat="46.12902" lon="6.43272">
        <ele>708</ele>
        <time>2011-04-30T16:24:16Z</time>
      </trkpt>
      <trkpt lat="46.12892" lon="6.43267">
        <ele>708</ele>
        <time>2011-04-30T16:24:18Z</time>
      </trkpt>
      <trkpt lat="46.12882" lon="6.43258">
        <ele>708</ele>
        <time>2011-04-30T16:24:22Z</time>
      </trkpt>
      <trkpt lat="46.12871" lon="6.43256">
        <ele>708</ele>
        <time>2011-04-30T16:24:31Z</time>
      </trkpt>
      <trkpt lat="46.12861" lon="6.43255">
        <ele>708</ele>
        <time>2011-04-30T16:24:34Z</time>
      </trkpt>
      <trkpt lat="46.12851" lon="6.43255">
        <ele>699</ele>
        <time>2011-04-30T16:24:37Z</time>
      </trkpt>
      <trkpt lat="46.12838" lon="6.43255">
        <ele>699</ele>
        <time>2011-04-30T16:24:41Z</time>
      </trkpt>
      <trkpt lat="46.12828" lon="6.4325">
        <ele>693</ele>
        <time>2011-04-30T16:24:44Z</time>
      </trkpt>
      <trkpt lat="46.12816" lon="6.43249">
        <ele>693</ele>
        <time>2011-04-30T16:24:47Z</time>
      </trkpt>
      <trkpt lat="46.12808" lon="6.43242">
        <ele>704</ele>
        <time>2011-04-30T16:24:55Z</time>
      </trkpt>
      <trkpt lat="46.12798" lon="6.43238">
        <ele>711</ele>
        <time>2011-04-30T16:25:00Z</time>
      </trkpt>
      <trkpt lat="46.12786" lon="6.43236">
        <ele>711</ele>
        <time>2011-04-30T16:25:04Z</time>
      </trkpt>
      <trkpt lat="46.12777" lon="6.43232">
        <ele>711</ele>
        <time>2011-04-30T16:25:06Z</time>
      </trkpt>
      <trkpt lat="46.12771" lon="6.43218">
        <ele>717</ele>
        <time>2011-04-30T16:25:10Z</time>
      </trkpt>
      <trkpt lat="46.12763" lon="6.43207">
        <ele>717</ele>
        <time>2011-04-30T16:25:14Z</time>
      </trkpt>
      <trkpt lat="46.12753" lon="6.43206">
        <ele>723</ele>
        <time>2011-04-30T16:25:17Z</time>
      </trkpt>
      <trkpt lat="46.12746" lon="6.43193">
        <ele>723</ele>
        <time>2011-04-30T16:25:22Z</time>
      </trkpt>
      <trkpt lat="46.12734" lon="6.43192">
        <ele>728</ele>
        <time>2011-04-30T16:25:26Z</time>
      </trkpt>
      <trkpt lat="46.12728" lon="6.43177">
        <ele>728</ele>
        <time>2011-04-30T16:25:31Z</time>
      </trkpt>
      <trkpt lat="46.12717" lon="6.43171">
        <ele>728</ele>
        <time>2011-04-30T16:25:34Z</time>
      </trkpt>
      <trkpt lat="46.12709" lon="6.43178">
        <ele>728</ele>
        <time>2011-04-30T16:25:37Z</time>
      </trkpt>
      <trkpt lat="46.12698" lon="6.43178">
        <ele>728</ele>
        <time>2011-04-30T16:25:40Z</time>
      </trkpt>
      <trkpt lat="46.12686" lon="6.43182">
        <ele>728</ele>
        <time>2011-04-30T16:25:44Z</time>
      </trkpt>
      <trkpt lat="46.12675" lon="6.43187">
        <ele>728</ele>
        <time>2011-04-30T16:25:47Z</time>
      </trkpt>
      <trkpt lat="46.12666" lon="6.4318">
        <ele>728</ele>
        <time>2011-04-30T16:25:50Z</time>
      </trkpt>
      <trkpt lat="46.12665" lon="6.43166">
        <ele>728</ele>
        <time>2011-04-30T16:25:52Z</time>
      </trkpt>
      <trkpt lat="46.12671" lon="6.43151">
        <ele>733</ele>
        <time>2011-04-30T16:25:55Z</time>
      </trkpt>
      <trkpt lat="46.12661" lon="6.43142">
        <ele>733</ele>
        <time>2011-04-30T16:25:58Z</time>
      </trkpt>
      <trkpt lat="46.12653" lon="6.43136">
        <ele>733</ele>
        <time>2011-04-30T16:26:00Z</time>
      </trkpt>
      <trkpt lat="46.12642" lon="6.4313">
        <ele>733</ele>
        <time>2011-04-30T16:26:03Z</time>
      </trkpt>
      <trkpt lat="46.12634" lon="6.43115">
        <ele>733</ele>
        <time>2011-04-30T16:26:06Z</time>
      </trkpt>
      <trkpt lat="46.12625" lon="6.43105">
        <ele>733</ele>
        <time>2011-04-30T16:26:08Z</time>
      </trkpt>
      <trkpt lat="46.12613" lon="6.43098">
        <ele>742</ele>
        <time>2011-04-30T16:26:11Z</time>
      </trkpt>
      <trkpt lat="46.12604" lon="6.43091">
        <ele>742</ele>
        <time>2011-04-30T16:26:13Z</time>
      </trkpt>
      <trkpt lat="46.12595" lon="6.43081">
        <ele>742</ele>
        <time>2011-04-30T16:26:16Z</time>
      </trkpt>
      <trkpt lat="46.12586" lon="6.43073">
        <ele>742</ele>
        <time>2011-04-30T16:26:18Z</time>
      </trkpt>
      <trkpt lat="46.12576" lon="6.43066">
        <ele>742</ele>
        <time>2011-04-30T16:26:20Z</time>
      </trkpt>
      <trkpt lat="46.12566" lon="6.43064">
        <ele>742</ele>
        <time>2011-04-30T16:26:23Z</time>
      </trkpt>
      <trkpt lat="46.12555" lon="6.43058">
        <ele>747</ele>
        <time>2011-04-30T16:26:26Z</time>
      </trkpt>
      <trkpt lat="46.12548" lon="6.43047">
        <ele>747</ele>
        <time>2011-04-30T16:26:28Z</time>
      </trkpt>
      <trkpt lat="46.12539" lon="6.43036">
        <ele>747</ele>
        <time>2011-04-30T16:26:30Z</time>
      </trkpt>
      <trkpt lat="46.1253" lon="6.43027">
        <ele>755</ele>
        <time>2011-04-30T16:26:33Z</time>
      </trkpt>
      <trkpt lat="46.1252" lon="6.43019">
        <ele>755</ele>
        <time>2011-04-30T16:26:36Z</time>
      </trkpt>
      <trkpt lat="46.12512" lon="6.43011">
        <ele>761</ele>
        <time>2011-04-30T16:26:38Z</time>
      </trkpt>
      <trkpt lat="46.12503" lon="6.43005">
        <ele>761</ele>
        <time>2011-04-30T16:26:40Z</time>
      </trkpt>
      <trkpt lat="46.12495" lon="6.42999">
        <ele>769</ele>
        <time>2011-04-30T16:26:59Z</time>
      </trkpt>
      <trkpt lat="46.12489" lon="6.42985">
        <ele>759</ele>
        <time>2011-04-30T16:27:14Z</time>
      </trkpt>
      <trkpt lat="46.12485" lon="6.42971">
        <ele>759</ele>
        <time>2011-04-30T16:27:15Z</time>
      </trkpt>
      <trkpt lat="46.12481" lon="6.42958">
        <ele>759</ele>
        <time>2011-04-30T16:27:16Z</time>
      </trkpt>
      <trkpt lat="46.12477" lon="6.42944">
        <ele>759</ele>
        <time>2011-04-30T16:27:17Z</time>
      </trkpt>
      <trkpt lat="46.12473" lon="6.42931">
        <ele>759</ele>
        <time>2011-04-30T16:27:18Z</time>
      </trkpt>
      <trkpt lat="46.12467" lon="6.42916">
        <ele>759</ele>
        <time>2011-04-30T16:27:19Z</time>
      </trkpt>
      <trkpt lat="46.1246" lon="6.42904">
        <ele>759</ele>
        <time>2011-04-30T16:27:20Z</time>
      </trkpt>
      <trkpt lat="46.12452" lon="6.42891">
        <ele>759</ele>
        <time>2011-04-30T16:27:21Z</time>
      </trkpt>
      <trkpt lat="46.12447" lon="6.42877">
        <ele>759</ele>
        <time>2011-04-30T16:27:22Z</time>
      </trkpt>
      <trkpt lat="46.1244" lon="6.42861">
        <ele>759</ele>
        <time>2011-04-30T16:27:23Z</time>
      </trkpt>
      <trkpt lat="46.12435" lon="6.42846">
        <ele>759</ele>
        <time>2011-04-30T16:27:24Z</time>
      </trkpt>
      <trkpt lat="46.12431" lon="6.4283">
        <ele>759</ele>
        <time>2011-04-30T16:27:25Z</time>
      </trkpt>
      <trkpt lat="46.12427" lon="6.42814">
        <ele>759</ele>
        <time>2011-04-30T16:27:26Z</time>
      </trkpt>
      <trkpt lat="46.12422" lon="6.42799">
        <ele>759</ele>
        <time>2011-04-30T16:27:27Z</time>
      </trkpt>
      <trkpt lat="46.12417" lon="6.42784">
        <ele>754</ele>
        <time>2011-04-30T16:27:28Z</time>
      </trkpt>
      <trkpt lat="46.12411" lon="6.42769">
        <ele>754</ele>
        <time>2011-04-30T16:27:29Z</time>
      </trkpt>
      <trkpt lat="46.12405" lon="6.42754">
        <ele>754</ele>
        <time>2011-04-30T16:27:30Z</time>
      </trkpt>
      <trkpt lat="46.12401" lon="6.42737">
        <ele>754</ele>
        <time>2011-04-30T16:27:31Z</time>
      </trkpt>
      <trkpt lat="46.12398" lon="6.42721">
        <ele>754</ele>
        <time>2011-04-30T16:27:32Z</time>
      </trkpt>
      <trkpt lat="46.12395" lon="6.42703">
        <ele>748</ele>
        <time>2011-04-30T16:27:33Z</time>
      </trkpt>
      <trkpt lat="46.12392" lon="6.42685">
        <ele>748</ele>
        <time>2011-04-30T16:27:34Z</time>
      </trkpt>
      <trkpt lat="46.12388" lon="6.42669">
        <ele>748</ele>
        <time>2011-04-30T16:27:35Z</time>
      </trkpt>
      <trkpt lat="46.12386" lon="6.42656">
        <ele>748</ele>
        <time>2011-04-30T16:27:36Z</time>
      </trkpt>
      <trkpt lat="46.12382" lon="6.4264">
        <ele>748</ele>
        <time>2011-04-30T16:27:38Z</time>
      </trkpt>
      <trkpt lat="46.12383" lon="6.42623">
        <ele>742</ele>
        <time>2011-04-30T16:27:48Z</time>
      </trkpt>
      <trkpt lat="46.1238" lon="6.426">
        <ele>742</ele>
        <time>2011-04-30T16:27:50Z</time>
      </trkpt>
      <trkpt lat="46.1238" lon="6.42585">
        <ele>742</ele>
        <time>2011-04-30T16:27:51Z</time>
      </trkpt>
      <trkpt lat="46.1238" lon="6.42569">
        <ele>742</ele>
        <time>2011-04-30T16:27:52Z</time>
      </trkpt>
      <trkpt lat="46.12378" lon="6.42552">
        <ele>742</ele>
        <time>2011-04-30T16:27:53Z</time>
      </trkpt>
      <trkpt lat="46.12378" lon="6.42535">
        <ele>742</ele>
        <time>2011-04-30T16:27:54Z</time>
      </trkpt>
      <trkpt lat="46.12375" lon="6.42519">
        <ele>742</ele>
        <time>2011-04-30T16:27:55Z</time>
      </trkpt>
      <trkpt lat="46.12373" lon="6.42503">
        <ele>737</ele>
        <time>2011-04-30T16:27:56Z</time>
      </trkpt>
      <trkpt lat="46.1237" lon="6.42489">
        <ele>737</ele>
        <time>2011-04-30T16:27:57Z</time>
      </trkpt>
      <trkpt lat="46.12366" lon="6.42473">
        <ele>737</ele>
        <time>2011-04-30T16:27:58Z</time>
      </trkpt>
      <trkpt lat="46.12362" lon="6.42457">
        <ele>737</ele>
        <time>2011-04-30T16:27:59Z</time>
      </trkpt>
      <trkpt lat="46.12358" lon="6.42441">
        <ele>737</ele>
        <time>2011-04-30T16:28:00Z</time>
      </trkpt>
      <trkpt lat="46.12354" lon="6.42427">
        <ele>737</ele>
        <time>2011-04-30T16:28:01Z</time>
      </trkpt>
      <trkpt lat="46.12348" lon="6.42405">
        <ele>730</ele>
        <time>2011-04-30T16:28:03Z</time>
      </trkpt>
      <trkpt lat="46.12343" lon="6.42391">
        <ele>730</ele>
        <time>2011-04-30T16:28:05Z</time>
      </trkpt>
      <trkpt lat="46.12342" lon="6.42374">
        <ele>730</ele>
        <time>2011-04-30T16:28:15Z</time>
      </trkpt>
      <trkpt lat="46.12346" lon="6.42354">
        <ele>723</ele>
        <time>2011-04-30T16:28:18Z</time>
      </trkpt>
      <trkpt lat="46.12351" lon="6.42336">
        <ele>723</ele>
        <time>2011-04-30T16:28:20Z</time>
      </trkpt>
      <trkpt lat="46.12358" lon="6.42317">
        <ele>723</ele>
        <time>2011-04-30T16:28:22Z</time>
      </trkpt>
      <trkpt lat="46.12368" lon="6.42299">
        <ele>717</ele>
        <time>2011-04-30T16:28:24Z</time>
      </trkpt>
      <trkpt lat="46.12375" lon="6.42279">
        <ele>717</ele>
        <time>2011-04-30T16:28:26Z</time>
      </trkpt>
      <trkpt lat="46.1238" lon="6.42258">
        <ele>717</ele>
        <time>2011-04-30T16:28:28Z</time>
      </trkpt>
      <trkpt lat="46.12387" lon="6.42235">
        <ele>711</ele>
        <time>2011-04-30T16:28:30Z</time>
      </trkpt>
      <trkpt lat="46.12391" lon="6.42213">
        <ele>711</ele>
        <time>2011-04-30T16:28:32Z</time>
      </trkpt>
      <trkpt lat="46.12393" lon="6.42199">
        <ele>711</ele>
        <time>2011-04-30T16:28:33Z</time>
      </trkpt>
      <trkpt lat="46.12396" lon="6.42186">
        <ele>705</ele>
        <time>2011-04-30T16:28:34Z</time>
      </trkpt>
      <trkpt lat="46.12399" lon="6.42173">
        <ele>705</ele>
        <time>2011-04-30T16:28:35Z</time>
      </trkpt>
      <trkpt lat="46.12402" lon="6.4216">
        <ele>705</ele>
        <time>2011-04-30T16:28:36Z</time>
      </trkpt>
      <trkpt lat="46.12404" lon="6.42136">
        <ele>699</ele>
        <time>2011-04-30T16:28:38Z</time>
      </trkpt>
      <trkpt lat="46.12408" lon="6.42114">
        <ele>699</ele>
        <time>2011-04-30T16:28:40Z</time>
      </trkpt>
      <trkpt lat="46.12412" lon="6.42098">
        <ele>699</ele>
        <time>2011-04-30T16:28:42Z</time>
      </trkpt>
      <trkpt lat="46.12418" lon="6.42088">
        <ele>693</ele>
        <time>2011-04-30T16:28:59Z</time>
      </trkpt>
      <trkpt lat="46.12412" lon="6.42103">
        <ele>693</ele>
        <time>2011-04-30T16:29:05Z</time>
      </trkpt>
      <trkpt lat="46.12407" lon="6.42124">
        <ele>693</ele>
        <time>2011-04-30T16:29:07Z</time>
      </trkpt>
      <trkpt lat="46.12403" lon="6.42139">
        <ele>693</ele>
        <time>2011-04-30T16:29:08Z</time>
      </trkpt>
      <trkpt lat="46.124" lon="6.42158">
        <ele>693</ele>
        <time>2011-04-30T16:29:09Z</time>
      </trkpt>
      <trkpt lat="46.12397" lon="6.42178">
        <ele>699</ele>
        <time>2011-04-30T16:29:10Z</time>
      </trkpt>
      <trkpt lat="46.12393" lon="6.42198">
        <ele>699</ele>
        <time>2011-04-30T16:29:11Z</time>
      </trkpt>
      <trkpt lat="46.12388" lon="6.42219">
        <ele>699</ele>
        <time>2011-04-30T16:29:12Z</time>
      </trkpt>
      <trkpt lat="46.12384" lon="6.42241">
        <ele>699</ele>
        <time>2011-04-30T16:29:13Z</time>
      </trkpt>
      <trkpt lat="46.12377" lon="6.42264">
        <ele>699</ele>
        <time>2011-04-30T16:29:14Z</time>
      </trkpt>
      <trkpt lat="46.1237" lon="6.42288">
        <ele>704</ele>
        <time>2011-04-30T16:29:15Z</time>
      </trkpt>
      <trkpt lat="46.12363" lon="6.42313">
        <ele>704</ele>
        <time>2011-04-30T16:29:16Z</time>
      </trkpt>
      <trkpt lat="46.12356" lon="6.42335">
        <ele>704</ele>
        <time>2011-04-30T16:29:17Z</time>
      </trkpt>
      <trkpt lat="46.1235" lon="6.42355">
        <ele>710</ele>
        <time>2011-04-30T16:29:18Z</time>
      </trkpt>
      <trkpt lat="46.12343" lon="6.42372">
        <ele>710</ele>
        <time>2011-04-30T16:29:19Z</time>
      </trkpt>
      <trkpt lat="46.12338" lon="6.42386">
        <ele>718</ele>
        <time>2011-04-30T16:29:21Z</time>
      </trkpt>
      <trkpt lat="46.12331" lon="6.42378">
        <ele>725</ele>
        <time>2011-04-30T16:29:26Z</time>
      </trkpt>
      <trkpt lat="46.12323" lon="6.42369">
        <ele>725</ele>
        <time>2011-04-30T16:29:31Z</time>
      </trkpt>
      <trkpt lat="46.12311" lon="6.42366">
        <ele>732</ele>
        <time>2011-04-30T16:29:34Z</time>
      </trkpt>
      <trkpt lat="46.12299" lon="6.4236">
        <ele>732</ele>
        <time>2011-04-30T16:29:36Z</time>
      </trkpt>
      <trkpt lat="46.1229" lon="6.42354">
        <ele>732</ele>
        <time>2011-04-30T16:29:37Z</time>
      </trkpt>
      <trkpt lat="46.1228" lon="6.42345">
        <ele>740</ele>
        <time>2011-04-30T16:29:38Z</time>
      </trkpt>
      <trkpt lat="46.12268" lon="6.42332">
        <ele>740</ele>
        <time>2011-04-30T16:29:40Z</time>
      </trkpt>
      <trkpt lat="46.1226" lon="6.42323">
        <ele>749</ele>
        <time>2011-04-30T16:29:42Z</time>
      </trkpt>
      <trkpt lat="46.12251" lon="6.42332">
        <ele>756</ele>
        <time>2011-04-30T16:29:45Z</time>
      </trkpt>
      <trkpt lat="46.1224" lon="6.42336">
        <ele>756</ele>
        <time>2011-04-30T16:29:47Z</time>
      </trkpt>
      <trkpt lat="46.12232" lon="6.42343">
        <ele>764</ele>
        <time>2011-04-30T16:29:50Z</time>
      </trkpt>
      <trkpt lat="46.12221" lon="6.4235">
        <ele>770</ele>
        <time>2011-04-30T16:29:53Z</time>
      </trkpt>
      <trkpt lat="46.1221" lon="6.4236">
        <ele>777</ele>
        <time>2011-04-30T16:29:56Z</time>
      </trkpt>
      <trkpt lat="46.122" lon="6.42369">
        <ele>777</ele>
        <time>2011-04-30T16:29:58Z</time>
      </trkpt>
      <trkpt lat="46.12192" lon="6.42377">
        <ele>787</ele>
        <time>2011-04-30T16:30:00Z</time>
      </trkpt>
      <trkpt lat="46.12185" lon="6.42387">
        <ele>795</ele>
        <time>2011-04-30T16:30:04Z</time>
      </trkpt>
      <trkpt lat="46.12192" lon="6.42376">
        <ele>795</ele>
        <time>2011-04-30T16:30:31Z</time>
      </trkpt>
      <trkpt lat="46.12204" lon="6.42366">
        <ele>795</ele>
        <time>2011-04-30T16:30:34Z</time>
      </trkpt>
      <trkpt lat="46.12214" lon="6.42358">
        <ele>790</ele>
        <time>2011-04-30T16:30:37Z</time>
      </trkpt>
      <trkpt lat="46.12222" lon="6.42348">
        <ele>784</ele>
        <time>2011-04-30T16:30:40Z</time>
      </trkpt>
      <trkpt lat="46.12232" lon="6.42346">
        <ele>777</ele>
        <time>2011-04-30T16:30:43Z</time>
      </trkpt>
      <trkpt lat="46.1224" lon="6.42339">
        <ele>771</ele>
        <time>2011-04-30T16:30:47Z</time>
      </trkpt>
      <trkpt lat="46.1225" lon="6.42335">
        <ele>754</ele>
        <time>2011-04-30T16:30:55Z</time>
      </trkpt>
      <trkpt lat="46.12257" lon="6.42325">
        <ele>754</ele>
        <time>2011-04-30T16:30:59Z</time>
      </trkpt>
      <trkpt lat="46.12262" lon="6.42313">
        <ele>754</ele>
        <time>2011-04-30T16:31:03Z</time>
      </trkpt>
      <trkpt lat="46.12268" lon="6.42301">
        <ele>747</ele>
        <time>2011-04-30T16:31:08Z</time>
      </trkpt>
      <trkpt lat="46.12267" lon="6.42287">
        <ele>747</ele>
        <time>2011-04-30T16:31:16Z</time>
      </trkpt>
      <trkpt lat="46.12262" lon="6.42269">
        <ele>747</ele>
        <time>2011-04-30T16:31:19Z</time>
      </trkpt>
      <trkpt lat="46.12261" lon="6.42252">
        <ele>747</ele>
        <time>2011-04-30T16:31:21Z</time>
      </trkpt>
      <trkpt lat="46.12256" lon="6.42234">
        <ele>747</ele>
        <time>2011-04-30T16:31:23Z</time>
      </trkpt>
      <trkpt lat="46.12254" lon="6.42212">
        <ele>747</ele>
        <time>2011-04-30T16:31:25Z</time>
      </trkpt>
      <trkpt lat="46.12251" lon="6.42188">
        <ele>747</ele>
        <time>2011-04-30T16:31:27Z</time>
      </trkpt>
      <trkpt lat="46.12249" lon="6.42173">
        <ele>747</ele>
        <time>2011-04-30T16:31:28Z</time>
      </trkpt>
      <trkpt lat="46.12249" lon="6.42159">
        <ele>747</ele>
        <time>2011-04-30T16:31:29Z</time>
      </trkpt>
      <trkpt lat="46.12247" lon="6.42144">
        <ele>747</ele>
        <time>2011-04-30T16:31:30Z</time>
      </trkpt>
      <trkpt lat="46.12245" lon="6.42129">
        <ele>747</ele>
        <time>2011-04-30T16:31:31Z</time>
      </trkpt>
      <trkpt lat="46.12247" lon="6.42106">
        <ele>740</ele>
        <time>2011-04-30T16:31:33Z</time>
      </trkpt>
      <trkpt lat="46.12247" lon="6.42082">
        <ele>740</ele>
        <time>2011-04-30T16:31:35Z</time>
      </trkpt>
      <trkpt lat="46.12248" lon="6.42063">
        <ele>740</ele>
        <time>2011-04-30T16:31:37Z</time>
      </trkpt>
      <trkpt lat="46.12246" lon="6.42048">
        <ele>740</ele>
        <time>2011-04-30T16:31:39Z</time>
      </trkpt>
      <trkpt lat="46.12244" lon="6.42031">
        <ele>740</ele>
        <time>2011-04-30T16:31:42Z</time>
      </trkpt>
      <trkpt lat="46.12244" lon="6.42013">
        <ele>735</ele>
        <time>2011-04-30T16:31:44Z</time>
      </trkpt>
      <trkpt lat="46.12245" lon="6.41991">
        <ele>735</ele>
        <time>2011-04-30T16:31:46Z</time>
      </trkpt>
      <trkpt lat="46.12247" lon="6.41969">
        <ele>735</ele>
        <time>2011-04-30T16:31:48Z</time>
      </trkpt>
      <trkpt lat="46.12247" lon="6.41952">
        <ele>735</ele>
        <time>2011-04-30T16:31:50Z</time>
      </trkpt>
      <trkpt lat="46.12244" lon="6.41933">
        <ele>729</ele>
        <time>2011-04-30T16:31:52Z</time>
      </trkpt>
      <trkpt lat="46.12241" lon="6.4192">
        <ele>729</ele>
        <time>2011-04-30T16:31:53Z</time>
      </trkpt>
      <trkpt lat="46.12237" lon="6.41896">
        <ele>729</ele>
        <time>2011-04-30T16:31:55Z</time>
      </trkpt>
      <trkpt lat="46.12236" lon="6.4187">
        <ele>723</ele>
        <time>2011-04-30T16:31:57Z</time>
      </trkpt>
      <trkpt lat="46.12235" lon="6.41842">
        <ele>723</ele>
        <time>2011-04-30T16:31:59Z</time>
      </trkpt>
      <trkpt lat="46.12235" lon="6.41827">
        <ele>723</ele>
        <time>2011-04-30T16:32:00Z</time>
      </trkpt>
      <trkpt lat="46.12234" lon="6.4181">
        <ele>718</ele>
        <time>2011-04-30T16:32:01Z</time>
      </trkpt>
      <trkpt lat="46.12232" lon="6.41794">
        <ele>718</ele>
        <time>2011-04-30T16:32:02Z</time>
      </trkpt>
      <trkpt lat="46.1223" lon="6.41779">
        <ele>718</ele>
        <time>2011-04-30T16:32:03Z</time>
      </trkpt>
      <trkpt lat="46.12227" lon="6.41763">
        <ele>718</ele>
        <time>2011-04-30T16:32:04Z</time>
      </trkpt>
      <trkpt lat="46.12222" lon="6.41747">
        <ele>718</ele>
        <time>2011-04-30T16:32:05Z</time>
      </trkpt>
      <trkpt lat="46.12217" lon="6.41729">
        <ele>718</ele>
        <time>2011-04-30T16:32:06Z</time>
      </trkpt>
      <trkpt lat="46.12211" lon="6.41708">
        <ele>718</ele>
        <time>2011-04-30T16:32:07Z</time>
      </trkpt>
      <trkpt lat="46.12205" lon="6.41686">
        <ele>718</ele>
        <time>2011-04-30T16:32:08Z</time>
      </trkpt>
      <trkpt lat="46.12199" lon="6.41664">
        <ele>718</ele>
        <time>2011-04-30T16:32:09Z</time>
      </trkpt>
      <trkpt lat="46.12192" lon="6.41642">
        <ele>718</ele>
        <time>2011-04-30T16:32:10Z</time>
      </trkpt>
      <trkpt lat="46.12185" lon="6.41621">
        <ele>718</ele>
        <time>2011-04-30T16:32:11Z</time>
      </trkpt>
      <trkpt lat="46.12179" lon="6.416">
        <ele>713</ele>
        <time>2011-04-30T16:32:12Z</time>
      </trkpt>
      <trkpt lat="46.12173" lon="6.4158">
        <ele>713</ele>
        <time>2011-04-30T16:32:13Z</time>
      </trkpt>
      <trkpt lat="46.12167" lon="6.41561">
        <ele>713</ele>
        <time>2011-04-30T16:32:14Z</time>
      </trkpt>
      <trkpt lat="46.12162" lon="6.41544">
        <ele>713</ele>
        <time>2011-04-30T16:32:15Z</time>
      </trkpt>
      <trkpt lat="46.12158" lon="6.41528">
        <ele>713</ele>
        <time>2011-04-30T16:32:16Z</time>
      </trkpt>
      <trkpt lat="46.12154" lon="6.41514">
        <ele>713</ele>
        <time>2011-04-30T16:32:17Z</time>
      </trkpt>
      <trkpt lat="46.1215" lon="6.41495">
        <ele>713</ele>
        <time>2011-04-30T16:32:19Z</time>
      </trkpt>
      <trkpt lat="46.12139" lon="6.41497">
        <ele>713</ele>
        <time>2011-04-30T16:32:31Z</time>
      </trkpt>
      <trkpt lat="46.12127" lon="6.41512">
        <ele>713</ele>
        <time>2011-04-30T16:32:33Z</time>
      </trkpt>
      <trkpt lat="46.12119" lon="6.41523">
        <ele>713</ele>
        <time>2011-04-30T16:32:34Z</time>
      </trkpt>
      <trkpt lat="46.12109" lon="6.41536">
        <ele>713</ele>
        <time>2011-04-30T16:32:35Z</time>
      </trkpt>
      <trkpt lat="46.12099" lon="6.41546">
        <ele>713</ele>
        <time>2011-04-30T16:32:36Z</time>
      </trkpt>
      <trkpt lat="46.1209" lon="6.41556">
        <ele>713</ele>
        <time>2011-04-30T16:32:37Z</time>
      </trkpt>
      <trkpt lat="46.12077" lon="6.41573">
        <ele>720</ele>
        <time>2011-04-30T16:32:39Z</time>
      </trkpt>
      <trkpt lat="46.12066" lon="6.41593">
        <ele>720</ele>
        <time>2011-04-30T16:32:41Z</time>
      </trkpt>
      <trkpt lat="46.1206" lon="6.41605">
        <ele>725</ele>
        <time>2011-04-30T16:32:42Z</time>
      </trkpt>
      <trkpt lat="46.12052" lon="6.41624">
        <ele>725</ele>
        <time>2011-04-30T16:32:44Z</time>
      </trkpt>
      <trkpt lat="46.12042" lon="6.41647">
        <ele>732</ele>
        <time>2011-04-30T16:32:46Z</time>
      </trkpt>
      <trkpt lat="46.12037" lon="6.41659">
        <ele>732</ele>
        <time>2011-04-30T16:32:47Z</time>
      </trkpt>
      <trkpt lat="46.1203" lon="6.41669">
        <ele>732</ele>
        <time>2011-04-30T16:32:48Z</time>
      </trkpt>
      <trkpt lat="46.12023" lon="6.41677">
        <ele>737</ele>
        <time>2011-04-30T16:32:49Z</time>
      </trkpt>
      <trkpt lat="46.12009" lon="6.4169">
        <ele>737</ele>
        <time>2011-04-30T16:32:51Z</time>
      </trkpt>
      <trkpt lat="46.11994" lon="6.41706">
        <ele>744</ele>
        <time>2011-04-30T16:32:53Z</time>
      </trkpt>
      <trkpt lat="46.11987" lon="6.41716">
        <ele>744</ele>
        <time>2011-04-30T16:32:54Z</time>
      </trkpt>
      <trkpt lat="46.11979" lon="6.41727">
        <ele>744</ele>
        <time>2011-04-30T16:32:55Z</time>
      </trkpt>
      <trkpt lat="46.11971" lon="6.41739">
        <ele>750</ele>
        <time>2011-04-30T16:32:56Z</time>
      </trkpt>
      <trkpt lat="46.11963" lon="6.41748">
        <ele>750</ele>
        <time>2011-04-30T16:32:57Z</time>
      </trkpt>
      <trkpt lat="46.11951" lon="6.41764">
        <ele>756</ele>
        <time>2011-04-30T16:32:59Z</time>
      </trkpt>
      <trkpt lat="46.11942" lon="6.41774">
        <ele>756</ele>
        <time>2011-04-30T16:33:01Z</time>
      </trkpt>
      <trkpt lat="46.11939" lon="6.41793">
        <ele>764</ele>
        <time>2011-04-30T16:33:04Z</time>
      </trkpt>
      <trkpt lat="46.11944" lon="6.41806">
        <ele>764</ele>
        <time>2011-04-30T16:33:07Z</time>
      </trkpt>
      <trkpt lat="46.11957" lon="6.41811">
        <ele>774</ele>
        <time>2011-04-30T16:33:10Z</time>
      </trkpt>
      <trkpt lat="46.11967" lon="6.41818">
        <ele>774</ele>
        <time>2011-04-30T16:33:12Z</time>
      </trkpt>
      <trkpt lat="46.11964" lon="6.41832">
        <ele>774</ele>
        <time>2011-04-30T16:33:15Z</time>
      </trkpt>
      <trkpt lat="46.11954" lon="6.41841">
        <ele>774</ele>
        <time>2011-04-30T16:33:17Z</time>
      </trkpt>
      <trkpt lat="46.11946" lon="6.4185">
        <ele>774</ele>
        <time>2011-04-30T16:33:20Z</time>
      </trkpt>
      <trkpt lat="46.11937" lon="6.41848">
        <ele>781</ele>
        <time>2011-04-30T16:33:22Z</time>
      </trkpt>
      <trkpt lat="46.11922" lon="6.41844">
        <ele>781</ele>
        <time>2011-04-30T16:33:24Z</time>
      </trkpt>
      <trkpt lat="46.11912" lon="6.41841">
        <ele>781</ele>
        <time>2011-04-30T16:33:26Z</time>
      </trkpt>
      <trkpt lat="46.11904" lon="6.41854">
        <ele>781</ele>
        <time>2011-04-30T16:33:57Z</time>
      </trkpt>
      <trkpt lat="46.11898" lon="6.41877">
        <ele>781</ele>
        <time>2011-04-30T16:33:59Z</time>
      </trkpt>
      <trkpt lat="46.11894" lon="6.4189">
        <ele>781</ele>
        <time>2011-04-30T16:34:00Z</time>
      </trkpt>
      <trkpt lat="46.1189" lon="6.41904">
        <ele>781</ele>
        <time>2011-04-30T16:34:01Z</time>
      </trkpt>
      <trkpt lat="46.11884" lon="6.41925">
        <ele>781</ele>
        <time>2011-04-30T16:34:03Z</time>
      </trkpt>
      <trkpt lat="46.11877" lon="6.41934">
        <ele>781</ele>
        <time>2011-04-30T16:34:04Z</time>
      </trkpt>
      <trkpt lat="46.11871" lon="6.41943">
        <ele>781</ele>
        <time>2011-04-30T16:34:05Z</time>
      </trkpt>
      <trkpt lat="46.11864" lon="6.41953">
        <ele>781</ele>
        <time>2011-04-30T16:34:06Z</time>
      </trkpt>
      <trkpt lat="46.11853" lon="6.41969">
        <ele>787</ele>
        <time>2011-04-30T16:34:08Z</time>
      </trkpt>
      <trkpt lat="46.1184" lon="6.41974">
        <ele>787</ele>
        <time>2011-04-30T16:34:10Z</time>
      </trkpt>
      <trkpt lat="46.11826" lon="6.41972">
        <ele>787</ele>
        <time>2011-04-30T16:34:12Z</time>
      </trkpt>
      <trkpt lat="46.11813" lon="6.41972">
        <ele>795</ele>
        <time>2011-04-30T16:34:14Z</time>
      </trkpt>
      <trkpt lat="46.11806" lon="6.41986">
        <ele>800</ele>
        <time>2011-04-30T16:34:16Z</time>
      </trkpt>
      <trkpt lat="46.11798" lon="6.41997">
        <ele>808</ele>
        <time>2011-04-30T16:34:18Z</time>
      </trkpt>
      <trkpt lat="46.11794" lon="6.41984">
        <ele>808</ele>
        <time>2011-04-30T16:34:22Z</time>
      </trkpt>
      <trkpt lat="46.11791" lon="6.41957">
        <ele>814</ele>
        <time>2011-04-30T16:34:24Z</time>
      </trkpt>
      <trkpt lat="46.11788" lon="6.41942">
        <ele>814</ele>
        <time>2011-04-30T16:34:25Z</time>
      </trkpt>
      <trkpt lat="46.11787" lon="6.41929">
        <ele>814</ele>
        <time>2011-04-30T16:34:26Z</time>
      </trkpt>
      <trkpt lat="46.11792" lon="6.41905">
        <ele>820</ele>
        <time>2011-04-30T16:34:28Z</time>
      </trkpt>
      <trkpt lat="46.11797" lon="6.41892">
        <ele>820</ele>
        <time>2011-04-30T16:34:29Z</time>
      </trkpt>
      <trkpt lat="46.11801" lon="6.41878">
        <ele>820</ele>
        <time>2011-04-30T16:34:30Z</time>
      </trkpt>
      <trkpt lat="46.11806" lon="6.41864">
        <ele>825</ele>
        <time>2011-04-30T16:34:31Z</time>
      </trkpt>
      <trkpt lat="46.11811" lon="6.41852">
        <ele>825</ele>
        <time>2011-04-30T16:34:32Z</time>
      </trkpt>
      <trkpt lat="46.11817" lon="6.41841">
        <ele>825</ele>
        <time>2011-04-30T16:34:33Z</time>
      </trkpt>
      <trkpt lat="46.11827" lon="6.41823">
        <ele>832</ele>
        <time>2011-04-30T16:34:35Z</time>
      </trkpt>
      <trkpt lat="46.11831" lon="6.41808">
        <ele>832</ele>
        <time>2011-04-30T16:34:37Z</time>
      </trkpt>
      <trkpt lat="46.11822" lon="6.41803">
        <ele>832</ele>
        <time>2011-04-30T16:34:39Z</time>
      </trkpt>
      <trkpt lat="46.11824" lon="6.41817">
        <ele>838</ele>
        <time>2011-04-30T16:34:55Z</time>
      </trkpt>
      <trkpt lat="46.11822" lon="6.41834">
        <ele>838</ele>
        <time>2011-04-30T16:34:58Z</time>
      </trkpt>
      <trkpt lat="46.11812" lon="6.41846">
        <ele>838</ele>
        <time>2011-04-30T16:35:00Z</time>
      </trkpt>
      <trkpt lat="46.11805" lon="6.41857">
        <ele>838</ele>
        <time>2011-04-30T16:35:02Z</time>
      </trkpt>
      <trkpt lat="46.11801" lon="6.41873">
        <ele>838</ele>
        <time>2011-04-30T16:35:04Z</time>
      </trkpt>
      <trkpt lat="46.118" lon="6.41889">
        <ele>831</ele>
        <time>2011-04-30T16:35:06Z</time>
      </trkpt>
      <trkpt lat="46.11796" lon="6.41907">
        <ele>831</ele>
        <time>2011-04-30T16:35:08Z</time>
      </trkpt>
      <trkpt lat="46.11792" lon="6.41928">
        <ele>825</ele>
        <time>2011-04-30T16:35:10Z</time>
      </trkpt>
      <trkpt lat="46.11788" lon="6.4195">
        <ele>825</ele>
        <time>2011-04-30T16:35:12Z</time>
      </trkpt>
      <trkpt lat="46.1179" lon="6.41972">
        <ele>820</ele>
        <time>2011-04-30T16:35:14Z</time>
      </trkpt>
      <trkpt lat="46.11791" lon="6.41992">
        <ele>820</ele>
        <time>2011-04-30T16:35:16Z</time>
      </trkpt>
      <trkpt lat="46.11789" lon="6.42008">
        <ele>820</ele>
        <time>2011-04-30T16:35:18Z</time>
      </trkpt>
      <trkpt lat="46.11784" lon="6.4202">
        <ele>820</ele>
        <time>2011-04-30T16:35:20Z</time>
      </trkpt>
      <trkpt lat="46.11776" lon="6.42032">
        <ele>820</ele>
        <time>2011-04-30T16:35:23Z</time>
      </trkpt>
      <trkpt lat="46.11765" lon="6.42041">
        <ele>820</ele>
        <time>2011-04-30T16:35:26Z</time>
      </trkpt>
      <trkpt lat="46.11751" lon="6.42048">
        <ele>820</ele>
        <time>2011-04-30T16:35:28Z</time>
      </trkpt>
      <trkpt lat="46.1174" lon="6.42057">
        <ele>829</ele>
        <time>2011-04-30T16:35:30Z</time>
      </trkpt>
      <trkpt lat="46.11728" lon="6.42069">
        <ele>829</ele>
        <time>2011-04-30T16:35:32Z</time>
      </trkpt>
      <trkpt lat="46.11718" lon="6.42088">
        <ele>840</ele>
        <time>2011-04-30T16:35:34Z</time>
      </trkpt>
      <trkpt lat="46.1171" lon="6.42098">
        <ele>840</ele>
        <time>2011-04-30T16:35:36Z</time>
      </trkpt>
      <trkpt lat="46.11703" lon="6.42107">
        <ele>848</ele>
        <time>2011-04-30T16:35:38Z</time>
      </trkpt>
      <trkpt lat="46.11711" lon="6.42098">
        <ele>858</ele>
        <time>2011-04-30T16:36:06Z</time>
      </trkpt>
      <trkpt lat="46.11703" lon="6.42092">
        <ele>896</ele>
        <time>2011-04-30T16:36:51Z</time>
      </trkpt>
      <trkpt lat="46.11703" lon="6.42078">
        <ele>905</ele>
        <time>2011-04-30T16:37:01Z</time>
      </trkpt>
      <trkpt lat="46.1171" lon="6.42088">
        <ele>861</ele>
        <time>2011-04-30T16:37:16Z</time>
      </trkpt>
      <trkpt lat="46.11719" lon="6.42083">
        <ele>856</ele>
        <time>2011-04-30T16:38:06Z</time>
      </trkpt>
      <trkpt lat="46.11726" lon="6.42075">
        <ele>856</ele>
        <time>2011-04-30T16:38:09Z</time>
      </trkpt>
      <trkpt lat="46.11736" lon="6.42069">
        <ele>856</ele>
        <time>2011-04-30T16:38:12Z</time>
      </trkpt>
      <trkpt lat="46.11747" lon="6.42065">
        <ele>856</ele>
        <time>2011-04-30T16:38:14Z</time>
      </trkpt>
      <trkpt lat="46.11758" lon="6.42057">
        <ele>856</ele>
        <time>2011-04-30T16:38:17Z</time>
      </trkpt>
      <trkpt lat="46.11769" lon="6.42048">
        <ele>856</ele>
        <time>2011-04-30T16:38:20Z</time>
      </trkpt>
      <trkpt lat="46.11777" lon="6.42041">
        <ele>846</ele>
        <time>2011-04-30T16:38:22Z</time>
      </trkpt>
      <trkpt lat="46.11785" lon="6.4203">
        <ele>846</ele>
        <time>2011-04-30T16:38:24Z</time>
      </trkpt>
      <trkpt lat="46.11794" lon="6.42019">
        <ele>839</ele>
        <time>2011-04-30T16:38:27Z</time>
      </trkpt>
      <trkpt lat="46.11804" lon="6.42006">
        <ele>839</ele>
        <time>2011-04-30T16:38:30Z</time>
      </trkpt>
      <trkpt lat="46.11813" lon="6.41988">
        <ele>829</ele>
        <time>2011-04-30T16:38:33Z</time>
      </trkpt>
      <trkpt lat="46.11822" lon="6.41975">
        <ele>829</ele>
        <time>2011-04-30T16:38:35Z</time>
      </trkpt>
      <trkpt lat="46.11831" lon="6.41968">
        <ele>823</ele>
        <time>2011-04-30T16:38:37Z</time>
      </trkpt>
      <trkpt lat="46.11844" lon="6.41965">
        <ele>816</ele>
        <time>2011-04-30T16:38:40Z</time>
      </trkpt>
      <trkpt lat="46.11855" lon="6.41961">
        <ele>816</ele>
        <time>2011-04-30T16:38:42Z</time>
      </trkpt>
      <trkpt lat="46.11865" lon="6.41953">
        <ele>811</ele>
        <time>2011-04-30T16:38:44Z</time>
      </trkpt>
      <trkpt lat="46.11872" lon="6.4194">
        <ele>811</ele>
        <time>2011-04-30T16:38:46Z</time>
      </trkpt>
      <trkpt lat="46.11882" lon="6.41926">
        <ele>805</ele>
        <time>2011-04-30T16:38:48Z</time>
      </trkpt>
      <trkpt lat="46.11892" lon="6.41915">
        <ele>805</ele>
        <time>2011-04-30T16:38:50Z</time>
      </trkpt>
      <trkpt lat="46.119" lon="6.41901">
        <ele>797</ele>
        <time>2011-04-30T16:38:52Z</time>
      </trkpt>
      <trkpt lat="46.11906" lon="6.41883">
        <ele>797</ele>
        <time>2011-04-30T16:38:54Z</time>
      </trkpt>
      <trkpt lat="46.11909" lon="6.41865">
        <ele>790</ele>
        <time>2011-04-30T16:38:56Z</time>
      </trkpt>
      <trkpt lat="46.11903" lon="6.41851">
        <ele>784</ele>
        <time>2011-04-30T16:39:17Z</time>
      </trkpt>
      <trkpt lat="46.11904" lon="6.41836">
        <ele>784</ele>
        <time>2011-04-30T16:39:19Z</time>
      </trkpt>
      <trkpt lat="46.11907" lon="6.41817">
        <ele>784</ele>
        <time>2011-04-30T16:39:21Z</time>
      </trkpt>
      <trkpt lat="46.1191" lon="6.41789">
        <ele>791</ele>
        <time>2011-04-30T16:39:23Z</time>
      </trkpt>
      <trkpt lat="46.1191" lon="6.41774">
        <ele>791</ele>
        <time>2011-04-30T16:39:24Z</time>
      </trkpt>
      <trkpt lat="46.11911" lon="6.4176">
        <ele>791</ele>
        <time>2011-04-30T16:39:25Z</time>
      </trkpt>
      <trkpt lat="46.1191" lon="6.4174">
        <ele>791</ele>
        <time>2011-04-30T16:39:27Z</time>
      </trkpt>
      <trkpt lat="46.11907" lon="6.41725">
        <ele>791</ele>
        <time>2011-04-30T16:39:29Z</time>
      </trkpt>
      <trkpt lat="46.11898" lon="6.41708">
        <ele>791</ele>
        <time>2011-04-30T16:39:31Z</time>
      </trkpt>
      <trkpt lat="46.11887" lon="6.4169">
        <ele>791</ele>
        <time>2011-04-30T16:39:33Z</time>
      </trkpt>
      <trkpt lat="46.11878" lon="6.41672">
        <ele>791</ele>
        <time>2011-04-30T16:39:35Z</time>
      </trkpt>
      <trkpt lat="46.11869" lon="6.41654">
        <ele>791</ele>
        <time>2011-04-30T16:39:37Z</time>
      </trkpt>
      <trkpt lat="46.11858" lon="6.41636">
        <ele>791</ele>
        <time>2011-04-30T16:39:39Z</time>
      </trkpt>
      <trkpt lat="46.11849" lon="6.41619">
        <ele>791</ele>
        <time>2011-04-30T16:39:41Z</time>
      </trkpt>
      <trkpt lat="46.11847" lon="6.41601">
        <ele>791</ele>
        <time>2011-04-30T16:39:43Z</time>
      </trkpt>
      <trkpt lat="46.11847" lon="6.41582">
        <ele>791</ele>
        <time>2011-04-30T16:39:45Z</time>
      </trkpt>
      <trkpt lat="46.11846" lon="6.41562">
        <ele>791</ele>
        <time>2011-04-30T16:39:47Z</time>
      </trkpt>
      <trkpt lat="46.11843" lon="6.41537">
        <ele>791</ele>
        <time>2011-04-30T16:39:49Z</time>
      </trkpt>
      <trkpt lat="46.11841" lon="6.41524">
        <ele>791</ele>
        <time>2011-04-30T16:39:50Z</time>
      </trkpt>
      <trkpt lat="46.11839" lon="6.41501">
        <ele>791</ele>
        <time>2011-04-30T16:39:52Z</time>
      </trkpt>
      <trkpt lat="46.11835" lon="6.41483">
        <ele>791</ele>
        <time>2011-04-30T16:39:54Z</time>
      </trkpt>
      <trkpt lat="46.11828" lon="6.41469">
        <ele>791</ele>
        <time>2011-04-30T16:39:56Z</time>
      </trkpt>
      <trkpt lat="46.11819" lon="6.41453">
        <ele>791</ele>
        <time>2011-04-30T16:39:58Z</time>
      </trkpt>
      <trkpt lat="46.11811" lon="6.41433">
        <ele>791</ele>
        <time>2011-04-30T16:40:00Z</time>
      </trkpt>
      <trkpt lat="46.11807" lon="6.41418">
        <ele>796</ele>
        <time>2011-04-30T16:40:02Z</time>
      </trkpt>
      <trkpt lat="46.11799" lon="6.4141">
        <ele>796</ele>
        <time>2011-04-30T16:40:30Z</time>
      </trkpt>
      <trkpt lat="46.11789" lon="6.41422">
        <ele>796</ele>
        <time>2011-04-30T16:40:33Z</time>
      </trkpt>
      <trkpt lat="46.11782" lon="6.41436">
        <ele>802</ele>
        <time>2011-04-30T16:40:36Z</time>
      </trkpt>
      <trkpt lat="46.11777" lon="6.41447">
        <ele>802</ele>
        <time>2011-04-30T16:40:39Z</time>
      </trkpt>
      <trkpt lat="46.11769" lon="6.41458">
        <ele>802</ele>
        <time>2011-04-30T16:40:41Z</time>
      </trkpt>
      <trkpt lat="46.11759" lon="6.41472">
        <ele>810</ele>
        <time>2011-04-30T16:40:43Z</time>
      </trkpt>
      <trkpt lat="46.11751" lon="6.41483">
        <ele>810</ele>
        <time>2011-04-30T16:40:45Z</time>
      </trkpt>
      <trkpt lat="46.11743" lon="6.41491">
        <ele>816</ele>
        <time>2011-04-30T16:40:47Z</time>
      </trkpt>
      <trkpt lat="46.11734" lon="6.41501">
        <ele>816</ele>
        <time>2011-04-30T16:40:49Z</time>
      </trkpt>
      <trkpt lat="46.11729" lon="6.41513">
        <ele>822</ele>
        <time>2011-04-30T16:40:51Z</time>
      </trkpt>
      <trkpt lat="46.11723" lon="6.41526">
        <ele>822</ele>
        <time>2011-04-30T16:40:53Z</time>
      </trkpt>
      <trkpt lat="46.11715" lon="6.41536">
        <ele>828</ele>
        <time>2011-04-30T16:40:55Z</time>
      </trkpt>
      <trkpt lat="46.11703" lon="6.41537">
        <ele>834</ele>
        <time>2011-04-30T16:40:58Z</time>
      </trkpt>
      <trkpt lat="46.11694" lon="6.41526">
        <ele>839</ele>
        <time>2011-04-30T16:41:01Z</time>
      </trkpt>
      <trkpt lat="46.11688" lon="6.41509">
        <ele>839</ele>
        <time>2011-04-30T16:41:03Z</time>
      </trkpt>
      <trkpt lat="46.11687" lon="6.41486">
        <ele>839</ele>
        <time>2011-04-30T16:41:05Z</time>
      </trkpt>
      <trkpt lat="46.11686" lon="6.41465">
        <ele>839</ele>
        <time>2011-04-30T16:41:07Z</time>
      </trkpt>
      <trkpt lat="46.11688" lon="6.41447">
        <ele>846</ele>
        <time>2011-04-30T16:41:09Z</time>
      </trkpt>
      <trkpt lat="46.11689" lon="6.41434">
        <ele>846</ele>
        <time>2011-04-30T16:41:11Z</time>
      </trkpt>
      <trkpt lat="46.11688" lon="6.41417">
        <ele>846</ele>
        <time>2011-04-30T16:41:13Z</time>
      </trkpt>
      <trkpt lat="46.11688" lon="6.41399">
        <ele>846</ele>
        <time>2011-04-30T16:41:15Z</time>
      </trkpt>
      <trkpt lat="46.11688" lon="6.41378">
        <ele>846</ele>
        <time>2011-04-30T16:41:17Z</time>
      </trkpt>
      <trkpt lat="46.11689" lon="6.41359">
        <ele>846</ele>
        <time>2011-04-30T16:41:19Z</time>
      </trkpt>
      <trkpt lat="46.11693" lon="6.41335">
        <ele>846</ele>
        <time>2011-04-30T16:41:21Z</time>
      </trkpt>
      <trkpt lat="46.11696" lon="6.41315">
        <ele>841</ele>
        <time>2011-04-30T16:41:23Z</time>
      </trkpt>
      <trkpt lat="46.11698" lon="6.41296">
        <ele>841</ele>
        <time>2011-04-30T16:41:25Z</time>
      </trkpt>
      <trkpt lat="46.117" lon="6.41277">
        <ele>841</ele>
        <time>2011-04-30T16:41:27Z</time>
      </trkpt>
      <trkpt lat="46.11703" lon="6.41259">
        <ele>841</ele>
        <time>2011-04-30T16:41:29Z</time>
      </trkpt>
      <trkpt lat="46.11704" lon="6.41239">
        <ele>841</ele>
        <time>2011-04-30T16:41:31Z</time>
      </trkpt>
      <trkpt lat="46.11706" lon="6.4122">
        <ele>835</ele>
        <time>2011-04-30T16:41:33Z</time>
      </trkpt>
      <trkpt lat="46.11707" lon="6.41204">
        <ele>835</ele>
        <time>2011-04-30T16:41:35Z</time>
      </trkpt>
      <trkpt lat="46.1171" lon="6.41191">
        <ele>835</ele>
        <time>2011-04-30T16:41:37Z</time>
      </trkpt>
      <trkpt lat="46.11716" lon="6.41177">
        <ele>835</ele>
        <time>2011-04-30T16:41:39Z</time>
      </trkpt>
      <trkpt lat="46.11723" lon="6.41164">
        <ele>830</ele>
        <time>2011-04-30T16:41:41Z</time>
      </trkpt>
      <trkpt lat="46.11729" lon="6.41148">
        <ele>830</ele>
        <time>2011-04-30T16:41:44Z</time>
      </trkpt>
      <trkpt lat="46.11735" lon="6.41138">
        <ele>830</ele>
        <time>2011-04-30T16:41:48Z</time>
      </trkpt>
      <trkpt lat="46.1173" lon="6.4115">
        <ele>830</ele>
        <time>2011-04-30T16:42:21Z</time>
      </trkpt>
      <trkpt lat="46.11724" lon="6.41163">
        <ele>830</ele>
        <time>2011-04-30T16:42:23Z</time>
      </trkpt>
      <trkpt lat="46.11718" lon="6.41182">
        <ele>830</ele>
        <time>2011-04-30T16:42:25Z</time>
      </trkpt>
      <trkpt lat="46.11713" lon="6.41197">
        <ele>830</ele>
        <time>2011-04-30T16:42:27Z</time>
      </trkpt>
      <trkpt lat="46.1171" lon="6.41217">
        <ele>830</ele>
        <time>2011-04-30T16:42:30Z</time>
      </trkpt>
      <trkpt lat="46.11709" lon="6.41235">
        <ele>830</ele>
        <time>2011-04-30T16:42:32Z</time>
      </trkpt>
      <trkpt lat="46.11706" lon="6.41256">
        <ele>830</ele>
        <time>2011-04-30T16:42:34Z</time>
      </trkpt>
      <trkpt lat="46.11704" lon="6.41273">
        <ele>830</ele>
        <time>2011-04-30T16:42:36Z</time>
      </trkpt>
      <trkpt lat="46.11701" lon="6.41294">
        <ele>830</ele>
        <time>2011-04-30T16:42:38Z</time>
      </trkpt>
      <trkpt lat="46.11698" lon="6.41315">
        <ele>835</ele>
        <time>2011-04-30T16:42:40Z</time>
      </trkpt>
      <trkpt lat="46.11694" lon="6.41335">
        <ele>835</ele>
        <time>2011-04-30T16:42:42Z</time>
      </trkpt>
      <trkpt lat="46.11691" lon="6.41359">
        <ele>835</ele>
        <time>2011-04-30T16:42:44Z</time>
      </trkpt>
      <trkpt lat="46.11688" lon="6.41381">
        <ele>835</ele>
        <time>2011-04-30T16:42:46Z</time>
      </trkpt>
      <trkpt lat="46.11686" lon="6.41403">
        <ele>835</ele>
        <time>2011-04-30T16:42:48Z</time>
      </trkpt>
      <trkpt lat="46.11685" lon="6.41425">
        <ele>841</ele>
        <time>2011-04-30T16:42:50Z</time>
      </trkpt>
      <trkpt lat="46.11684" lon="6.41445">
        <ele>841</ele>
        <time>2011-04-30T16:42:52Z</time>
      </trkpt>
      <trkpt lat="46.11684" lon="6.41463">
        <ele>841</ele>
        <time>2011-04-30T16:42:54Z</time>
      </trkpt>
      <trkpt lat="46.11684" lon="6.41479">
        <ele>841</ele>
        <time>2011-04-30T16:42:56Z</time>
      </trkpt>
      <trkpt lat="46.11687" lon="6.41492">
        <ele>841</ele>
        <time>2011-04-30T16:42:58Z</time>
      </trkpt>
      <trkpt lat="46.11691" lon="6.41505">
        <ele>841</ele>
        <time>2011-04-30T16:43:00Z</time>
      </trkpt>
      <trkpt lat="46.11695" lon="6.4152">
        <ele>841</ele>
        <time>2011-04-30T16:43:02Z</time>
      </trkpt>
      <trkpt lat="46.11701" lon="6.41531">
        <ele>841</ele>
        <time>2011-04-30T16:43:04Z</time>
      </trkpt>
      <trkpt lat="46.11711" lon="6.41533">
        <ele>836</ele>
        <time>2011-04-30T16:43:08Z</time>
      </trkpt>
      <trkpt lat="46.1172" lon="6.41528">
        <ele>831</ele>
        <time>2011-04-30T16:43:13Z</time>
      </trkpt>
      <trkpt lat="46.11726" lon="6.41518">
        <ele>831</ele>
        <time>2011-04-30T16:43:16Z</time>
      </trkpt>
      <trkpt lat="46.11733" lon="6.41505">
        <ele>823</ele>
        <time>2011-04-30T16:43:19Z</time>
      </trkpt>
      <trkpt lat="46.11742" lon="6.41493">
        <ele>823</ele>
        <time>2011-04-30T16:43:22Z</time>
      </trkpt>
      <trkpt lat="46.11749" lon="6.41483">
        <ele>816</ele>
        <time>2011-04-30T16:43:24Z</time>
      </trkpt>
      <trkpt lat="46.11759" lon="6.41474">
        <ele>816</ele>
        <time>2011-04-30T16:43:26Z</time>
      </trkpt>
      <trkpt lat="46.11768" lon="6.41464">
        <ele>816</ele>
        <time>2011-04-30T16:43:28Z</time>
      </trkpt>
      <trkpt lat="46.11776" lon="6.41451">
        <ele>809</ele>
        <time>2011-04-30T16:43:30Z</time>
      </trkpt>
      <trkpt lat="46.11782" lon="6.41438">
        <ele>809</ele>
        <time>2011-04-30T16:43:32Z</time>
      </trkpt>
      <trkpt lat="46.11791" lon="6.41424">
        <ele>804</ele>
        <time>2011-04-30T16:43:35Z</time>
      </trkpt>
      <trkpt lat="46.11797" lon="6.41412">
        <ele>804</ele>
        <time>2011-04-30T16:43:37Z</time>
      </trkpt>
      <trkpt lat="46.11804" lon="6.41402">
        <ele>804</ele>
        <time>2011-04-30T16:43:39Z</time>
      </trkpt>
      <trkpt lat="46.11811" lon="6.41392">
        <ele>799</ele>
        <time>2011-04-30T16:43:41Z</time>
      </trkpt>
      <trkpt lat="46.11821" lon="6.41383">
        <ele>799</ele>
        <time>2011-04-30T16:43:44Z</time>
      </trkpt>
      <trkpt lat="46.11829" lon="6.41395">
        <ele>793</ele>
        <time>2011-04-30T16:43:48Z</time>
      </trkpt>
      <trkpt lat="46.11831" lon="6.41409">
        <ele>793</ele>
        <time>2011-04-30T16:43:51Z</time>
      </trkpt>
      <trkpt lat="46.11824" lon="6.41419">
        <ele>793</ele>
        <time>2011-04-30T16:43:59Z</time>
      </trkpt>
      <trkpt lat="46.11816" lon="6.41422">
        <ele>793</ele>
        <time>2011-04-30T16:44:02Z</time>
      </trkpt>
      <trkpt lat="46.1181" lon="6.41435">
        <ele>793</ele>
        <time>2011-04-30T16:44:10Z</time>
      </trkpt>
      <trkpt lat="46.11812" lon="6.41448">
        <ele>793</ele>
        <time>2011-04-30T16:44:12Z</time>
      </trkpt>
      <trkpt lat="46.11821" lon="6.41464">
        <ele>793</ele>
        <time>2011-04-30T16:44:14Z</time>
      </trkpt>
      <trkpt lat="46.11829" lon="6.41476">
        <ele>793</ele>
        <time>2011-04-30T16:44:16Z</time>
      </trkpt>
      <trkpt lat="46.11835" lon="6.41489">
        <ele>793</ele>
        <time>2011-04-30T16:44:18Z</time>
      </trkpt>
      <trkpt lat="46.11839" lon="6.41506">
        <ele>793</ele>
        <time>2011-04-30T16:44:20Z</time>
      </trkpt>
      <trkpt lat="46.11842" lon="6.41526">
        <ele>793</ele>
        <time>2011-04-30T16:44:22Z</time>
      </trkpt>
      <trkpt lat="46.11845" lon="6.4155">
        <ele>793</ele>
        <time>2011-04-30T16:44:24Z</time>
      </trkpt>
      <trkpt lat="46.11847" lon="6.41572">
        <ele>793</ele>
        <time>2011-04-30T16:44:26Z</time>
      </trkpt>
      <trkpt lat="46.11849" lon="6.41591">
        <ele>793</ele>
        <time>2011-04-30T16:44:28Z</time>
      </trkpt>
      <trkpt lat="46.11849" lon="6.41611">
        <ele>793</ele>
        <time>2011-04-30T16:44:30Z</time>
      </trkpt>
      <trkpt lat="46.1185" lon="6.4163">
        <ele>793</ele>
        <time>2011-04-30T16:44:32Z</time>
      </trkpt>
      <trkpt lat="46.11859" lon="6.41647">
        <ele>793</ele>
        <time>2011-04-30T16:44:34Z</time>
      </trkpt>
      <trkpt lat="46.11869" lon="6.41664">
        <ele>793</ele>
        <time>2011-04-30T16:44:36Z</time>
      </trkpt>
      <trkpt lat="46.11879" lon="6.41685">
        <ele>793</ele>
        <time>2011-04-30T16:44:38Z</time>
      </trkpt>
      <trkpt lat="46.11889" lon="6.41705">
        <ele>793</ele>
        <time>2011-04-30T16:44:40Z</time>
      </trkpt>
      <trkpt lat="46.11898" lon="6.41723">
        <ele>793</ele>
        <time>2011-04-30T16:44:42Z</time>
      </trkpt>
      <trkpt lat="46.11904" lon="6.41738">
        <ele>793</ele>
        <time>2011-04-30T16:44:44Z</time>
      </trkpt>
      <trkpt lat="46.11906" lon="6.41752">
        <ele>793</ele>
        <time>2011-04-30T16:44:46Z</time>
      </trkpt>
      <trkpt lat="46.11908" lon="6.41769">
        <ele>793</ele>
        <time>2011-04-30T16:44:48Z</time>
      </trkpt>
      <trkpt lat="46.11909" lon="6.41788">
        <ele>788</ele>
        <time>2011-04-30T16:44:50Z</time>
      </trkpt>
      <trkpt lat="46.11909" lon="6.41809">
        <ele>788</ele>
        <time>2011-04-30T16:44:52Z</time>
      </trkpt>
      <trkpt lat="46.11906" lon="6.41829">
        <ele>788</ele>
        <time>2011-04-30T16:44:54Z</time>
      </trkpt>
      <trkpt lat="46.11902" lon="6.41845">
        <ele>782</ele>
        <time>2011-04-30T16:44:56Z</time>
      </trkpt>
      <trkpt lat="46.11903" lon="6.41859">
        <ele>782</ele>
        <time>2011-04-30T16:44:59Z</time>
      </trkpt>
      <trkpt lat="46.11911" lon="6.41843">
        <ele>773</ele>
        <time>2011-04-30T16:45:03Z</time>
      </trkpt>
      <trkpt lat="46.11912" lon="6.41821">
        <ele>773</ele>
        <time>2011-04-30T16:45:05Z</time>
      </trkpt>
      <trkpt lat="46.11917" lon="6.41796">
        <ele>773</ele>
        <time>2011-04-30T16:45:07Z</time>
      </trkpt>
      <trkpt lat="46.11921" lon="6.41783">
        <ele>773</ele>
        <time>2011-04-30T16:45:08Z</time>
      </trkpt>
      <trkpt lat="46.11929" lon="6.41759">
        <ele>773</ele>
        <time>2011-04-30T16:45:10Z</time>
      </trkpt>
      <trkpt lat="46.11935" lon="6.41748">
        <ele>773</ele>
        <time>2011-04-30T16:45:11Z</time>
      </trkpt>
      <trkpt lat="46.1194" lon="6.41736">
        <ele>773</ele>
        <time>2011-04-30T16:45:12Z</time>
      </trkpt>
      <trkpt lat="46.11948" lon="6.41712">
        <ele>773</ele>
        <time>2011-04-30T16:45:14Z</time>
      </trkpt>
      <trkpt lat="46.1195" lon="6.41698">
        <ele>773</ele>
        <time>2011-04-30T16:45:15Z</time>
      </trkpt>
      <trkpt lat="46.11951" lon="6.41684">
        <ele>768</ele>
        <time>2011-04-30T16:45:16Z</time>
      </trkpt>
      <trkpt lat="46.11951" lon="6.41659">
        <ele>768</ele>
        <time>2011-04-30T16:45:18Z</time>
      </trkpt>
      <trkpt lat="46.11949" lon="6.41641">
        <ele>768</ele>
        <time>2011-04-30T16:45:20Z</time>
      </trkpt>
      <trkpt lat="46.11942" lon="6.41622">
        <ele>762</ele>
        <time>2011-04-30T16:45:31Z</time>
      </trkpt>
      <trkpt lat="46.11937" lon="6.41597">
        <ele>762</ele>
        <time>2011-04-30T16:45:33Z</time>
      </trkpt>
      <trkpt lat="46.11934" lon="6.41584">
        <ele>762</ele>
        <time>2011-04-30T16:45:34Z</time>
      </trkpt>
      <trkpt lat="46.11931" lon="6.4157">
        <ele>762</ele>
        <time>2011-04-30T16:45:35Z</time>
      </trkpt>
      <trkpt lat="46.11929" lon="6.41553">
        <ele>762</ele>
        <time>2011-04-30T16:45:36Z</time>
      </trkpt>
      <trkpt lat="46.11929" lon="6.41535">
        <ele>762</ele>
        <time>2011-04-30T16:45:37Z</time>
      </trkpt>
      <trkpt lat="46.11929" lon="6.41516">
        <ele>762</ele>
        <time>2011-04-30T16:45:38Z</time>
      </trkpt>
      <trkpt lat="46.11928" lon="6.41497">
        <ele>762</ele>
        <time>2011-04-30T16:45:39Z</time>
      </trkpt>
      <trkpt lat="46.11927" lon="6.41479">
        <ele>762</ele>
        <time>2011-04-30T16:45:40Z</time>
      </trkpt>
      <trkpt lat="46.11925" lon="6.41463">
        <ele>762</ele>
        <time>2011-04-30T16:45:41Z</time>
      </trkpt>
      <trkpt lat="46.11923" lon="6.41447">
        <ele>762</ele>
        <time>2011-04-30T16:45:42Z</time>
      </trkpt>
      <trkpt lat="46.1192" lon="6.41432">
        <ele>762</ele>
        <time>2011-04-30T16:45:43Z</time>
      </trkpt>
      <trkpt lat="46.11917" lon="6.41417">
        <ele>762</ele>
        <time>2011-04-30T16:45:44Z</time>
      </trkpt>
      <trkpt lat="46.11916" lon="6.414">
        <ele>762</ele>
        <time>2011-04-30T16:45:45Z</time>
      </trkpt>
      <trkpt lat="46.11916" lon="6.41381">
        <ele>762</ele>
        <time>2011-04-30T16:45:46Z</time>
      </trkpt>
      <trkpt lat="46.11914" lon="6.41361">
        <ele>762</ele>
        <time>2011-04-30T16:45:47Z</time>
      </trkpt>
      <trkpt lat="46.11913" lon="6.41341">
        <ele>762</ele>
        <time>2011-04-30T16:45:48Z</time>
      </trkpt>
      <trkpt lat="46.11912" lon="6.41323">
        <ele>762</ele>
        <time>2011-04-30T16:45:49Z</time>
      </trkpt>
      <trkpt lat="46.1191" lon="6.41306">
        <ele>762</ele>
        <time>2011-04-30T16:45:50Z</time>
      </trkpt>
      <trkpt lat="46.11908" lon="6.4129">
        <ele>762</ele>
        <time>2011-04-30T16:45:51Z</time>
      </trkpt>
      <trkpt lat="46.11907" lon="6.41276">
        <ele>762</ele>
        <time>2011-04-30T16:45:52Z</time>
      </trkpt>
      <trkpt lat="46.11904" lon="6.41253">
        <ele>762</ele>
        <time>2011-04-30T16:45:54Z</time>
      </trkpt>
      <trkpt lat="46.11899" lon="6.41229">
        <ele>762</ele>
        <time>2011-04-30T16:45:56Z</time>
      </trkpt>
      <trkpt lat="46.11897" lon="6.41216">
        <ele>762</ele>
        <time>2011-04-30T16:45:57Z</time>
      </trkpt>
      <trkpt lat="46.11894" lon="6.41203">
        <ele>762</ele>
        <time>2011-04-30T16:45:58Z</time>
      </trkpt>
      <trkpt lat="46.11892" lon="6.41191">
        <ele>762</ele>
        <time>2011-04-30T16:45:59Z</time>
      </trkpt>
      <trkpt lat="46.11889" lon="6.41178">
        <ele>762</ele>
        <time>2011-04-30T16:46:00Z</time>
      </trkpt>
      <trkpt lat="46.11886" lon="6.41164">
        <ele>762</ele>
        <time>2011-04-30T16:46:01Z</time>
      </trkpt>
      <trkpt lat="46.11882" lon="6.4115">
        <ele>762</ele>
        <time>2011-04-30T16:46:02Z</time>
      </trkpt>
      <trkpt lat="46.1188" lon="6.41137">
        <ele>762</ele>
        <time>2011-04-30T16:46:03Z</time>
      </trkpt>
      <trkpt lat="46.11877" lon="6.41121">
        <ele>762</ele>
        <time>2011-04-30T16:46:04Z</time>
      </trkpt>
      <trkpt lat="46.11874" lon="6.41106">
        <ele>768</ele>
        <time>2011-04-30T16:46:05Z</time>
      </trkpt>
      <trkpt lat="46.11871" lon="6.41089">
        <ele>768</ele>
        <time>2011-04-30T16:46:06Z</time>
      </trkpt>
      <trkpt lat="46.11867" lon="6.41071">
        <ele>768</ele>
        <time>2011-04-30T16:46:07Z</time>
      </trkpt>
      <trkpt lat="46.11865" lon="6.41053">
        <ele>768</ele>
        <time>2011-04-30T16:46:08Z</time>
      </trkpt>
      <trkpt lat="46.11863" lon="6.41035">
        <ele>768</ele>
        <time>2011-04-30T16:46:09Z</time>
      </trkpt>
      <trkpt lat="46.11862" lon="6.4102">
        <ele>768</ele>
        <time>2011-04-30T16:46:10Z</time>
      </trkpt>
      <trkpt lat="46.11861" lon="6.40997">
        <ele>768</ele>
        <time>2011-04-30T16:46:12Z</time>
      </trkpt>
      <trkpt lat="46.11861" lon="6.4098">
        <ele>773</ele>
        <time>2011-04-30T16:46:14Z</time>
      </trkpt>
      <trkpt lat="46.11859" lon="6.40964">
        <ele>773</ele>
        <time>2011-04-30T16:46:16Z</time>
      </trkpt>
      <trkpt lat="46.11856" lon="6.40948">
        <ele>773</ele>
        <time>2011-04-30T16:46:18Z</time>
      </trkpt>
      <trkpt lat="46.11847" lon="6.40935">
        <ele>779</ele>
        <time>2011-04-30T16:46:20Z</time>
      </trkpt>
      <trkpt lat="46.1184" lon="6.40923">
        <ele>779</ele>
        <time>2011-04-30T16:46:23Z</time>
      </trkpt>
      <trkpt lat="46.11831" lon="6.40933">
        <ele>787</ele>
        <time>2011-04-30T16:48:46Z</time>
      </trkpt>
      <trkpt lat="46.11822" lon="6.4094">
        <ele>787</ele>
        <time>2011-04-30T16:48:48Z</time>
      </trkpt>
      <trkpt lat="46.11808" lon="6.40946">
        <ele>787</ele>
        <time>2011-04-30T16:48:50Z</time>
      </trkpt>
      <trkpt lat="46.11794" lon="6.40959">
        <ele>787</ele>
        <time>2011-04-30T16:48:52Z</time>
      </trkpt>
      <trkpt lat="46.11785" lon="6.40968">
        <ele>787</ele>
        <time>2011-04-30T16:48:53Z</time>
      </trkpt>
      <trkpt lat="46.11777" lon="6.40979">
        <ele>787</ele>
        <time>2011-04-30T16:48:54Z</time>
      </trkpt>
      <trkpt lat="46.11768" lon="6.40988">
        <ele>787</ele>
        <time>2011-04-30T16:48:55Z</time>
      </trkpt>
      <trkpt lat="46.11759" lon="6.40997">
        <ele>787</ele>
        <time>2011-04-30T16:48:56Z</time>
      </trkpt>
      <trkpt lat="46.1175" lon="6.41005">
        <ele>787</ele>
        <time>2011-04-30T16:48:57Z</time>
      </trkpt>
      <trkpt lat="46.11741" lon="6.41012">
        <ele>792</ele>
        <time>2011-04-30T16:48:58Z</time>
      </trkpt>
      <trkpt lat="46.11733" lon="6.41018">
        <ele>792</ele>
        <time>2011-04-30T16:48:59Z</time>
      </trkpt>
      <trkpt lat="46.11724" lon="6.41023">
        <ele>792</ele>
        <time>2011-04-30T16:49:00Z</time>
      </trkpt>
      <trkpt lat="46.11707" lon="6.41032">
        <ele>792</ele>
        <time>2011-04-30T16:49:02Z</time>
      </trkpt>
      <trkpt lat="46.11698" lon="6.41037">
        <ele>792</ele>
        <time>2011-04-30T16:49:03Z</time>
      </trkpt>
      <trkpt lat="46.11689" lon="6.41042">
        <ele>792</ele>
        <time>2011-04-30T16:49:04Z</time>
      </trkpt>
      <trkpt lat="46.11673" lon="6.4105">
        <ele>798</ele>
        <time>2011-04-30T16:49:06Z</time>
      </trkpt>
      <trkpt lat="46.11661" lon="6.41055">
        <ele>798</ele>
        <time>2011-04-30T16:49:08Z</time>
      </trkpt>
      <trkpt lat="46.11647" lon="6.41055">
        <ele>804</ele>
        <time>2011-04-30T16:49:11Z</time>
      </trkpt>
      <trkpt lat="46.11629" lon="6.41056">
        <ele>804</ele>
        <time>2011-04-30T16:49:13Z</time>
      </trkpt>
      <trkpt lat="46.11619" lon="6.41057">
        <ele>804</ele>
        <time>2011-04-30T16:49:14Z</time>
      </trkpt>
      <trkpt lat="46.11607" lon="6.41058">
        <ele>804</ele>
        <time>2011-04-30T16:49:15Z</time>
      </trkpt>
      <trkpt lat="46.11595" lon="6.41058">
        <ele>810</ele>
        <time>2011-04-30T16:49:16Z</time>
      </trkpt>
      <trkpt lat="46.11583" lon="6.4106">
        <ele>810</ele>
        <time>2011-04-30T16:49:17Z</time>
      </trkpt>
      <trkpt lat="46.11571" lon="6.41061">
        <ele>810</ele>
        <time>2011-04-30T16:49:18Z</time>
      </trkpt>
      <trkpt lat="46.11562" lon="6.41063">
        <ele>810</ele>
        <time>2011-04-30T16:49:19Z</time>
      </trkpt>
      <trkpt lat="46.11547" lon="6.41065">
        <ele>810</ele>
        <time>2011-04-30T16:49:21Z</time>
      </trkpt>
      <trkpt lat="46.11533" lon="6.41067">
        <ele>810</ele>
        <time>2011-04-30T16:49:23Z</time>
      </trkpt>
      <trkpt lat="46.11514" lon="6.41072">
        <ele>815</ele>
        <time>2011-04-30T16:49:25Z</time>
      </trkpt>
      <trkpt lat="46.11499" lon="6.41078">
        <ele>815</ele>
        <time>2011-04-30T16:49:27Z</time>
      </trkpt>
      <trkpt lat="46.11484" lon="6.41088">
        <ele>815</ele>
        <time>2011-04-30T16:49:29Z</time>
      </trkpt>
      <trkpt lat="46.11473" lon="6.41096">
        <ele>821</ele>
        <time>2011-04-30T16:49:31Z</time>
      </trkpt>
      <trkpt lat="46.11462" lon="6.41106">
        <ele>821</ele>
        <time>2011-04-30T16:49:33Z</time>
      </trkpt>
      <trkpt lat="46.1145" lon="6.41119">
        <ele>821</ele>
        <time>2011-04-30T16:49:35Z</time>
      </trkpt>
      <trkpt lat="46.11438" lon="6.41132">
        <ele>827</ele>
        <time>2011-04-30T16:49:37Z</time>
      </trkpt>
      <trkpt lat="46.11428" lon="6.41142">
        <ele>827</ele>
        <time>2011-04-30T16:49:39Z</time>
      </trkpt>
      <trkpt lat="46.11419" lon="6.41156">
        <ele>827</ele>
        <time>2011-04-30T16:49:41Z</time>
      </trkpt>
      <trkpt lat="46.11409" lon="6.41173">
        <ele>827</ele>
        <time>2011-04-30T16:49:43Z</time>
      </trkpt>
      <trkpt lat="46.11398" lon="6.4119">
        <ele>827</ele>
        <time>2011-04-30T16:49:45Z</time>
      </trkpt>
      <trkpt lat="46.1139" lon="6.41198">
        <ele>827</ele>
        <time>2011-04-30T16:49:46Z</time>
      </trkpt>
      <trkpt lat="46.1138" lon="6.41206">
        <ele>827</ele>
        <time>2011-04-30T16:49:47Z</time>
      </trkpt>
      <trkpt lat="46.11371" lon="6.41213">
        <ele>833</ele>
        <time>2011-04-30T16:49:48Z</time>
      </trkpt>
      <trkpt lat="46.11362" lon="6.41218">
        <ele>833</ele>
        <time>2011-04-30T16:49:49Z</time>
      </trkpt>
      <trkpt lat="46.11348" lon="6.41228">
        <ele>833</ele>
        <time>2011-04-30T16:49:51Z</time>
      </trkpt>
      <trkpt lat="46.11338" lon="6.41236">
        <ele>833</ele>
        <time>2011-04-30T16:49:53Z</time>
      </trkpt>
      <trkpt lat="46.11344" lon="6.41248">
        <ele>841</ele>
        <time>2011-04-30T16:50:40Z</time>
      </trkpt>
      <trkpt lat="46.1135" lon="6.41262">
        <ele>841</ele>
        <time>2011-04-30T16:50:42Z</time>
      </trkpt>
      <trkpt lat="46.11348" lon="6.41278">
        <ele>841</ele>
        <time>2011-04-30T16:50:44Z</time>
      </trkpt>
      <trkpt lat="46.11336" lon="6.41282">
        <ele>841</ele>
        <time>2011-04-30T16:50:46Z</time>
      </trkpt>
      <trkpt lat="46.11321" lon="6.41274">
        <ele>841</ele>
        <time>2011-04-30T16:50:48Z</time>
      </trkpt>
      <trkpt lat="46.11312" lon="6.4127">
        <ele>841</ele>
        <time>2011-04-30T16:50:49Z</time>
      </trkpt>
      <trkpt lat="46.11302" lon="6.41267">
        <ele>841</ele>
        <time>2011-04-30T16:50:50Z</time>
      </trkpt>
      <trkpt lat="46.11291" lon="6.41267">
        <ele>841</ele>
        <time>2011-04-30T16:50:51Z</time>
      </trkpt>
      <trkpt lat="46.1128" lon="6.41268">
        <ele>841</ele>
        <time>2011-04-30T16:50:52Z</time>
      </trkpt>
      <trkpt lat="46.11268" lon="6.4127">
        <ele>847</ele>
        <time>2011-04-30T16:50:53Z</time>
      </trkpt>
      <trkpt lat="46.11256" lon="6.41272">
        <ele>847</ele>
        <time>2011-04-30T16:50:54Z</time>
      </trkpt>
      <trkpt lat="46.11243" lon="6.41275">
        <ele>847</ele>
        <time>2011-04-30T16:50:55Z</time>
      </trkpt>
      <trkpt lat="46.11229" lon="6.41278">
        <ele>847</ele>
        <time>2011-04-30T16:50:56Z</time>
      </trkpt>
      <trkpt lat="46.11214" lon="6.41281">
        <ele>847</ele>
        <time>2011-04-30T16:50:57Z</time>
      </trkpt>
      <trkpt lat="46.11199" lon="6.41285">
        <ele>847</ele>
        <time>2011-04-30T16:50:58Z</time>
      </trkpt>
      <trkpt lat="46.11186" lon="6.41287">
        <ele>852</ele>
        <time>2011-04-30T16:50:59Z</time>
      </trkpt>
      <trkpt lat="46.11173" lon="6.41287">
        <ele>852</ele>
        <time>2011-04-30T16:51:00Z</time>
      </trkpt>
      <trkpt lat="46.11161" lon="6.41284">
        <ele>852</ele>
        <time>2011-04-30T16:51:01Z</time>
      </trkpt>
      <trkpt lat="46.11151" lon="6.41278">
        <ele>852</ele>
        <time>2011-04-30T16:51:02Z</time>
      </trkpt>
      <trkpt lat="46.11142" lon="6.41271">
        <ele>852</ele>
        <time>2011-04-30T16:51:03Z</time>
      </trkpt>
      <trkpt lat="46.11127" lon="6.41263">
        <ele>852</ele>
        <time>2011-04-30T16:51:05Z</time>
      </trkpt>
      <trkpt lat="46.11116" lon="6.41271">
        <ele>858</ele>
        <time>2011-04-30T16:51:07Z</time>
      </trkpt>
      <trkpt lat="46.11115" lon="6.4129">
        <ele>858</ele>
        <time>2011-04-30T16:51:09Z</time>
      </trkpt>
      <trkpt lat="46.11126" lon="6.41306">
        <ele>858</ele>
        <time>2011-04-30T16:51:11Z</time>
      </trkpt>
      <trkpt lat="46.11134" lon="6.41316">
        <ele>858</ele>
        <time>2011-04-30T16:51:12Z</time>
      </trkpt>
      <trkpt lat="46.11142" lon="6.41331">
        <ele>858</ele>
        <time>2011-04-30T16:51:13Z</time>
      </trkpt>
      <trkpt lat="46.11148" lon="6.41348">
        <ele>858</ele>
        <time>2011-04-30T16:51:14Z</time>
      </trkpt>
      <trkpt lat="46.11153" lon="6.41366">
        <ele>858</ele>
        <time>2011-04-30T16:51:15Z</time>
      </trkpt>
      <trkpt lat="46.1116" lon="6.41383">
        <ele>863</ele>
        <time>2011-04-30T16:51:16Z</time>
      </trkpt>
      <trkpt lat="46.11167" lon="6.41399">
        <ele>863</ele>
        <time>2011-04-30T16:51:17Z</time>
      </trkpt>
      <trkpt lat="46.11176" lon="6.41412">
        <ele>863</ele>
        <time>2011-04-30T16:51:18Z</time>
      </trkpt>
      <trkpt lat="46.11188" lon="6.41423">
        <ele>863</ele>
        <time>2011-04-30T16:51:19Z</time>
      </trkpt>
      <trkpt lat="46.11203" lon="6.41432">
        <ele>863</ele>
        <time>2011-04-30T16:51:20Z</time>
      </trkpt>
      <trkpt lat="46.11218" lon="6.41441">
        <ele>869</ele>
        <time>2011-04-30T16:51:21Z</time>
      </trkpt>
      <trkpt lat="46.11232" lon="6.4145">
        <ele>869</ele>
        <time>2011-04-30T16:51:22Z</time>
      </trkpt>
      <trkpt lat="46.11246" lon="6.41458">
        <ele>869</ele>
        <time>2011-04-30T16:51:23Z</time>
      </trkpt>
      <trkpt lat="46.1126" lon="6.41465">
        <ele>869</ele>
        <time>2011-04-30T16:51:24Z</time>
      </trkpt>
      <trkpt lat="46.11272" lon="6.41469">
        <ele>869</ele>
        <time>2011-04-30T16:51:25Z</time>
      </trkpt>
      <trkpt lat="46.11283" lon="6.41473">
        <ele>875</ele>
        <time>2011-04-30T16:51:26Z</time>
      </trkpt>
      <trkpt lat="46.11293" lon="6.41477">
        <ele>875</ele>
        <time>2011-04-30T16:51:27Z</time>
      </trkpt>
      <trkpt lat="46.11306" lon="6.4149">
        <ele>875</ele>
        <time>2011-04-30T16:51:29Z</time>
      </trkpt>
      <trkpt lat="46.11294" lon="6.41505">
        <ele>875</ele>
        <time>2011-04-30T16:51:31Z</time>
      </trkpt>
      <trkpt lat="46.11283" lon="6.41509">
        <ele>875</ele>
        <time>2011-04-30T16:51:32Z</time>
      </trkpt>
      <trkpt lat="46.1127" lon="6.41509">
        <ele>875</ele>
        <time>2011-04-30T16:51:33Z</time>
      </trkpt>
      <trkpt lat="46.11258" lon="6.41514">
        <ele>881</ele>
        <time>2011-04-30T16:51:34Z</time>
      </trkpt>
      <trkpt lat="46.11247" lon="6.41519">
        <ele>881</ele>
        <time>2011-04-30T16:51:35Z</time>
      </trkpt>
      <trkpt lat="46.11236" lon="6.41528">
        <ele>881</ele>
        <time>2011-04-30T16:51:36Z</time>
      </trkpt>
      <trkpt lat="46.11226" lon="6.41539">
        <ele>881</ele>
        <time>2011-04-30T16:51:37Z</time>
      </trkpt>
      <trkpt lat="46.11215" lon="6.41553">
        <ele>881</ele>
        <time>2011-04-30T16:51:38Z</time>
      </trkpt>
      <trkpt lat="46.11203" lon="6.41569">
        <ele>887</ele>
        <time>2011-04-30T16:51:39Z</time>
      </trkpt>
      <trkpt lat="46.11191" lon="6.41584">
        <ele>887</ele>
        <time>2011-04-30T16:51:40Z</time>
      </trkpt>
      <trkpt lat="46.1118" lon="6.41599">
        <ele>887</ele>
        <time>2011-04-30T16:51:41Z</time>
      </trkpt>
      <trkpt lat="46.11168" lon="6.41613">
        <ele>887</ele>
        <time>2011-04-30T16:51:42Z</time>
      </trkpt>
      <trkpt lat="46.11157" lon="6.41624">
        <ele>892</ele>
        <time>2011-04-30T16:51:43Z</time>
      </trkpt>
      <trkpt lat="46.11145" lon="6.41633">
        <ele>892</ele>
        <time>2011-04-30T16:51:44Z</time>
      </trkpt>
      <trkpt lat="46.11132" lon="6.41642">
        <ele>892</ele>
        <time>2011-04-30T16:51:45Z</time>
      </trkpt>
      <trkpt lat="46.11117" lon="6.41649">
        <ele>892</ele>
        <time>2011-04-30T16:51:46Z</time>
      </trkpt>
      <trkpt lat="46.11102" lon="6.41653">
        <ele>892</ele>
        <time>2011-04-30T16:51:47Z</time>
      </trkpt>
      <trkpt lat="46.11087" lon="6.41656">
        <ele>898</ele>
        <time>2011-04-30T16:51:48Z</time>
      </trkpt>
      <trkpt lat="46.11069" lon="6.41654">
        <ele>898</ele>
        <time>2011-04-30T16:51:49Z</time>
      </trkpt>
      <trkpt lat="46.11052" lon="6.41652">
        <ele>898</ele>
        <time>2011-04-30T16:51:50Z</time>
      </trkpt>
      <trkpt lat="46.11035" lon="6.4165">
        <ele>903</ele>
        <time>2011-04-30T16:51:51Z</time>
      </trkpt>
      <trkpt lat="46.1102" lon="6.41648">
        <ele>903</ele>
        <time>2011-04-30T16:51:52Z</time>
      </trkpt>
      <trkpt lat="46.11007" lon="6.41648">
        <ele>903</ele>
        <time>2011-04-30T16:51:53Z</time>
      </trkpt>
      <trkpt lat="46.10994" lon="6.4165">
        <ele>903</ele>
        <time>2011-04-30T16:51:54Z</time>
      </trkpt>
      <trkpt lat="46.10981" lon="6.41655">
        <ele>903</ele>
        <time>2011-04-30T16:51:55Z</time>
      </trkpt>
      <trkpt lat="46.10969" lon="6.41661">
        <ele>909</ele>
        <time>2011-04-30T16:51:56Z</time>
      </trkpt>
      <trkpt lat="46.10958" lon="6.41668">
        <ele>909</ele>
        <time>2011-04-30T16:51:57Z</time>
      </trkpt>
      <trkpt lat="46.10949" lon="6.41673">
        <ele>909</ele>
        <time>2011-04-30T16:51:58Z</time>
      </trkpt>
      <trkpt lat="46.10936" lon="6.41677">
        <ele>909</ele>
        <time>2011-04-30T16:52:00Z</time>
      </trkpt>
      <trkpt lat="46.10927" lon="6.41663">
        <ele>915</ele>
        <time>2011-04-30T16:52:02Z</time>
      </trkpt>
      <trkpt lat="46.10918" lon="6.41641">
        <ele>915</ele>
        <time>2011-04-30T16:52:04Z</time>
      </trkpt>
      <trkpt lat="46.10914" lon="6.41629">
        <ele>915</ele>
        <time>2011-04-30T16:52:05Z</time>
      </trkpt>
      <trkpt lat="46.10908" lon="6.41618">
        <ele>915</ele>
        <time>2011-04-30T16:52:06Z</time>
      </trkpt>
      <trkpt lat="46.10901" lon="6.41609">
        <ele>915</ele>
        <time>2011-04-30T16:52:07Z</time>
      </trkpt>
      <trkpt lat="46.10892" lon="6.41604">
        <ele>915</ele>
        <time>2011-04-30T16:52:08Z</time>
      </trkpt>
      <trkpt lat="46.10882" lon="6.41602">
        <ele>915</ele>
        <time>2011-04-30T16:52:09Z</time>
      </trkpt>
      <trkpt lat="46.10872" lon="6.41604">
        <ele>915</ele>
        <time>2011-04-30T16:52:10Z</time>
      </trkpt>
      <trkpt lat="46.10861" lon="6.4161">
        <ele>915</ele>
        <time>2011-04-30T16:52:11Z</time>
      </trkpt>
      <trkpt lat="46.10851" lon="6.41621">
        <ele>915</ele>
        <time>2011-04-30T16:52:12Z</time>
      </trkpt>
      <trkpt lat="46.10843" lon="6.41633">
        <ele>909</ele>
        <time>2011-04-30T16:52:13Z</time>
      </trkpt>
      <trkpt lat="46.10837" lon="6.4165">
        <ele>909</ele>
        <time>2011-04-30T16:52:14Z</time>
      </trkpt>
      <trkpt lat="46.10835" lon="6.4167">
        <ele>909</ele>
        <time>2011-04-30T16:52:15Z</time>
      </trkpt>
      <trkpt lat="46.10833" lon="6.41692">
        <ele>909</ele>
        <time>2011-04-30T16:52:16Z</time>
      </trkpt>
      <trkpt lat="46.10829" lon="6.41712">
        <ele>909</ele>
        <time>2011-04-30T16:52:17Z</time>
      </trkpt>
      <trkpt lat="46.10825" lon="6.41733">
        <ele>903</ele>
        <time>2011-04-30T16:52:18Z</time>
      </trkpt>
      <trkpt lat="46.1082" lon="6.41752">
        <ele>903</ele>
        <time>2011-04-30T16:52:19Z</time>
      </trkpt>
      <trkpt lat="46.10814" lon="6.41768">
        <ele>903</ele>
        <time>2011-04-30T16:52:20Z</time>
      </trkpt>
      <trkpt lat="46.10808" lon="6.41782">
        <ele>903</ele>
        <time>2011-04-30T16:52:21Z</time>
      </trkpt>
      <trkpt lat="46.108" lon="6.4179">
        <ele>903</ele>
        <time>2011-04-30T16:52:22Z</time>
      </trkpt>
      <trkpt lat="46.10791" lon="6.41793">
        <ele>903</ele>
        <time>2011-04-30T16:52:23Z</time>
      </trkpt>
      <trkpt lat="46.10776" lon="6.41786">
        <ele>896</ele>
        <time>2011-04-30T16:52:25Z</time>
      </trkpt>
      <trkpt lat="46.10768" lon="6.41773">
        <ele>896</ele>
        <time>2011-04-30T16:52:26Z</time>
      </trkpt>
      <trkpt lat="46.10762" lon="6.41757">
        <ele>896</ele>
        <time>2011-04-30T16:52:27Z</time>
      </trkpt>
      <trkpt lat="46.10754" lon="6.41738">
        <ele>896</ele>
        <time>2011-04-30T16:52:28Z</time>
      </trkpt>
      <trkpt lat="46.10749" lon="6.41718">
        <ele>896</ele>
        <time>2011-04-30T16:52:29Z</time>
      </trkpt>
      <trkpt lat="46.10745" lon="6.417">
        <ele>891</ele>
        <time>2011-04-30T16:52:30Z</time>
      </trkpt>
      <trkpt lat="46.1074" lon="6.41683">
        <ele>891</ele>
        <time>2011-04-30T16:52:31Z</time>
      </trkpt>
      <trkpt lat="46.10737" lon="6.41668">
        <ele>891</ele>
        <time>2011-04-30T16:52:32Z</time>
      </trkpt>
      <trkpt lat="46.10732" lon="6.41655">
        <ele>891</ele>
        <time>2011-04-30T16:52:33Z</time>
      </trkpt>
      <trkpt lat="46.10727" lon="6.41642">
        <ele>885</ele>
        <time>2011-04-30T16:52:34Z</time>
      </trkpt>
      <trkpt lat="46.10722" lon="6.4163">
        <ele>885</ele>
        <time>2011-04-30T16:52:35Z</time>
      </trkpt>
      <trkpt lat="46.10717" lon="6.41618">
        <ele>885</ele>
        <time>2011-04-30T16:52:36Z</time>
      </trkpt>
      <trkpt lat="46.10712" lon="6.41606">
        <ele>885</ele>
        <time>2011-04-30T16:52:37Z</time>
      </trkpt>
      <trkpt lat="46.10707" lon="6.41593">
        <ele>885</ele>
        <time>2011-04-30T16:52:38Z</time>
      </trkpt>
      <trkpt lat="46.10704" lon="6.41578">
        <ele>885</ele>
        <time>2011-04-30T16:52:39Z</time>
      </trkpt>
      <trkpt lat="46.107" lon="6.41562">
        <ele>885</ele>
        <time>2011-04-30T16:52:40Z</time>
      </trkpt>
      <trkpt lat="46.10697" lon="6.41549">
        <ele>885</ele>
        <time>2011-04-30T16:52:41Z</time>
      </trkpt>
      <trkpt lat="46.10695" lon="6.41536">
        <ele>885</ele>
        <time>2011-04-30T16:52:42Z</time>
      </trkpt>
      <trkpt lat="46.10692" lon="6.4151">
        <ele>880</ele>
        <time>2011-04-30T16:52:44Z</time>
      </trkpt>
      <trkpt lat="46.10692" lon="6.41489">
        <ele>880</ele>
        <time>2011-04-30T16:52:46Z</time>
      </trkpt>
      <trkpt lat="46.10693" lon="6.41471">
        <ele>880</ele>
        <time>2011-04-30T16:52:48Z</time>
      </trkpt>
      <trkpt lat="46.10695" lon="6.41458">
        <ele>880</ele>
        <time>2011-04-30T16:52:54Z</time>
      </trkpt>
      <trkpt lat="46.10695" lon="6.41437">
        <ele>886</ele>
        <time>2011-04-30T16:54:05Z</time>
      </trkpt>
      <trkpt lat="46.10694" lon="6.41423">
        <ele>886</ele>
        <time>2011-04-30T16:54:06Z</time>
      </trkpt>
      <trkpt lat="46.10691" lon="6.41407">
        <ele>886</ele>
        <time>2011-04-30T16:54:07Z</time>
      </trkpt>
      <trkpt lat="46.10688" lon="6.41389">
        <ele>886</ele>
        <time>2011-04-30T16:54:08Z</time>
      </trkpt>
      <trkpt lat="46.10684" lon="6.41369">
        <ele>886</ele>
        <time>2011-04-30T16:54:09Z</time>
      </trkpt>
      <trkpt lat="46.10679" lon="6.41349">
        <ele>886</ele>
        <time>2011-04-30T16:54:10Z</time>
      </trkpt>
      <trkpt lat="46.10674" lon="6.41326">
        <ele>886</ele>
        <time>2011-04-30T16:54:11Z</time>
      </trkpt>
      <trkpt lat="46.1067" lon="6.41304">
        <ele>886</ele>
        <time>2011-04-30T16:54:12Z</time>
      </trkpt>
      <trkpt lat="46.10667" lon="6.41281">
        <ele>886</ele>
        <time>2011-04-30T16:54:13Z</time>
      </trkpt>
      <trkpt lat="46.10667" lon="6.41258">
        <ele>886</ele>
        <time>2011-04-30T16:54:14Z</time>
      </trkpt>
      <trkpt lat="46.10667" lon="6.41237">
        <ele>886</ele>
        <time>2011-04-30T16:54:15Z</time>
      </trkpt>
      <trkpt lat="46.1067" lon="6.41217">
        <ele>886</ele>
        <time>2011-04-30T16:54:16Z</time>
      </trkpt>
      <trkpt lat="46.10673" lon="6.41198">
        <ele>886</ele>
        <time>2011-04-30T16:54:17Z</time>
      </trkpt>
      <trkpt lat="46.10678" lon="6.4118">
        <ele>886</ele>
        <time>2011-04-30T16:54:18Z</time>
      </trkpt>
      <trkpt lat="46.10686" lon="6.41163">
        <ele>886</ele>
        <time>2011-04-30T16:54:19Z</time>
      </trkpt>
      <trkpt lat="46.10695" lon="6.41147">
        <ele>886</ele>
        <time>2011-04-30T16:54:20Z</time>
      </trkpt>
      <trkpt lat="46.10707" lon="6.41133">
        <ele>886</ele>
        <time>2011-04-30T16:54:21Z</time>
      </trkpt>
      <trkpt lat="46.10716" lon="6.4112">
        <ele>886</ele>
        <time>2011-04-30T16:54:22Z</time>
      </trkpt>
      <trkpt lat="46.10724" lon="6.41104">
        <ele>886</ele>
        <time>2011-04-30T16:54:23Z</time>
      </trkpt>
      <trkpt lat="46.1073" lon="6.41089">
        <ele>886</ele>
        <time>2011-04-30T16:54:24Z</time>
      </trkpt>
      <trkpt lat="46.10736" lon="6.41074">
        <ele>886</ele>
        <time>2011-04-30T16:54:25Z</time>
      </trkpt>
      <trkpt lat="46.1074" lon="6.41061">
        <ele>886</ele>
        <time>2011-04-30T16:54:26Z</time>
      </trkpt>
      <trkpt lat="46.10747" lon="6.41041">
        <ele>886</ele>
        <time>2011-04-30T16:54:28Z</time>
      </trkpt>
      <trkpt lat="46.10754" lon="6.41017">
        <ele>886</ele>
        <time>2011-04-30T16:54:30Z</time>
      </trkpt>
      <trkpt lat="46.10757" lon="6.41005">
        <ele>886</ele>
        <time>2011-04-30T16:54:31Z</time>
      </trkpt>
      <trkpt lat="46.10762" lon="6.40982">
        <ele>886</ele>
        <time>2011-04-30T16:54:33Z</time>
      </trkpt>
      <trkpt lat="46.10766" lon="6.40962">
        <ele>886</ele>
        <time>2011-04-30T16:54:35Z</time>
      </trkpt>
      <trkpt lat="46.10767" lon="6.4094">
        <ele>886</ele>
        <time>2011-04-30T16:54:37Z</time>
      </trkpt>
      <trkpt lat="46.10768" lon="6.40926">
        <ele>886</ele>
        <time>2011-04-30T16:54:38Z</time>
      </trkpt>
      <trkpt lat="46.10771" lon="6.4091">
        <ele>886</ele>
        <time>2011-04-30T16:54:39Z</time>
      </trkpt>
      <trkpt lat="46.10774" lon="6.40894">
        <ele>886</ele>
        <time>2011-04-30T16:54:40Z</time>
      </trkpt>
      <trkpt lat="46.1078" lon="6.40878">
        <ele>886</ele>
        <time>2011-04-30T16:54:41Z</time>
      </trkpt>
      <trkpt lat="46.10787" lon="6.40861">
        <ele>886</ele>
        <time>2011-04-30T16:54:42Z</time>
      </trkpt>
      <trkpt lat="46.10794" lon="6.40845">
        <ele>880</ele>
        <time>2011-04-30T16:54:43Z</time>
      </trkpt>
      <trkpt lat="46.10802" lon="6.40829">
        <ele>880</ele>
        <time>2011-04-30T16:54:44Z</time>
      </trkpt>
      <trkpt lat="46.10809" lon="6.40813">
        <ele>880</ele>
        <time>2011-04-30T16:54:45Z</time>
      </trkpt>
      <trkpt lat="46.10817" lon="6.40797">
        <ele>880</ele>
        <time>2011-04-30T16:54:46Z</time>
      </trkpt>
      <trkpt lat="46.10823" lon="6.40779">
        <ele>880</ele>
        <time>2011-04-30T16:54:47Z</time>
      </trkpt>
      <trkpt lat="46.10828" lon="6.40762">
        <ele>874</ele>
        <time>2011-04-30T16:54:48Z</time>
      </trkpt>
      <trkpt lat="46.10832" lon="6.40745">
        <ele>874</ele>
        <time>2011-04-30T16:54:49Z</time>
      </trkpt>
      <trkpt lat="46.10835" lon="6.4073">
        <ele>874</ele>
        <time>2011-04-30T16:54:50Z</time>
      </trkpt>
      <trkpt lat="46.10837" lon="6.40716">
        <ele>874</ele>
        <time>2011-04-30T16:54:51Z</time>
      </trkpt>
      <trkpt lat="46.10837" lon="6.40692">
        <ele>874</ele>
        <time>2011-04-30T16:54:53Z</time>
      </trkpt>
      <trkpt lat="46.10831" lon="6.40676">
        <ele>868</ele>
        <time>2011-04-30T16:54:55Z</time>
      </trkpt>
      <trkpt lat="46.10821" lon="6.40671">
        <ele>868</ele>
        <time>2011-04-30T16:54:56Z</time>
      </trkpt>
      <trkpt lat="46.1081" lon="6.40671">
        <ele>868</ele>
        <time>2011-04-30T16:54:57Z</time>
      </trkpt>
      <trkpt lat="46.10797" lon="6.40677">
        <ele>868</ele>
        <time>2011-04-30T16:54:58Z</time>
      </trkpt>
      <trkpt lat="46.10783" lon="6.40686">
        <ele>868</ele>
        <time>2011-04-30T16:54:59Z</time>
      </trkpt>
      <trkpt lat="46.10769" lon="6.40693">
        <ele>862</ele>
        <time>2011-04-30T16:55:00Z</time>
      </trkpt>
      <trkpt lat="46.10756" lon="6.407">
        <ele>862</ele>
        <time>2011-04-30T16:55:01Z</time>
      </trkpt>
      <trkpt lat="46.10744" lon="6.40707">
        <ele>862</ele>
        <time>2011-04-30T16:55:02Z</time>
      </trkpt>
      <trkpt lat="46.10732" lon="6.40714">
        <ele>862</ele>
        <time>2011-04-30T16:55:03Z</time>
      </trkpt>
      <trkpt lat="46.10721" lon="6.4072">
        <ele>862</ele>
        <time>2011-04-30T16:55:04Z</time>
      </trkpt>
      <trkpt lat="46.1071" lon="6.40725">
        <ele>862</ele>
        <time>2011-04-30T16:55:05Z</time>
      </trkpt>
      <trkpt lat="46.107" lon="6.40731">
        <ele>862</ele>
        <time>2011-04-30T16:55:06Z</time>
      </trkpt>
      <trkpt lat="46.10691" lon="6.40738">
        <ele>862</ele>
        <time>2011-04-30T16:55:07Z</time>
      </trkpt>
      <trkpt lat="46.10682" lon="6.40748">
        <ele>862</ele>
        <time>2011-04-30T16:55:08Z</time>
      </trkpt>
      <trkpt lat="46.10672" lon="6.40759">
        <ele>862</ele>
        <time>2011-04-30T16:55:09Z</time>
      </trkpt>
      <trkpt lat="46.10662" lon="6.40772">
        <ele>862</ele>
        <time>2011-04-30T16:55:10Z</time>
      </trkpt>
      <trkpt lat="46.1065" lon="6.40786">
        <ele>862</ele>
        <time>2011-04-30T16:55:11Z</time>
      </trkpt>
      <trkpt lat="46.10637" lon="6.40801">
        <ele>862</ele>
        <time>2011-04-30T16:55:12Z</time>
      </trkpt>
      <trkpt lat="46.10624" lon="6.40815">
        <ele>862</ele>
        <time>2011-04-30T16:55:13Z</time>
      </trkpt>
      <trkpt lat="46.10609" lon="6.40829">
        <ele>862</ele>
        <time>2011-04-30T16:55:14Z</time>
      </trkpt>
      <trkpt lat="46.10597" lon="6.40844">
        <ele>862</ele>
        <time>2011-04-30T16:55:15Z</time>
      </trkpt>
      <trkpt lat="46.10585" lon="6.40857">
        <ele>862</ele>
        <time>2011-04-30T16:55:16Z</time>
      </trkpt>
      <trkpt lat="46.10575" lon="6.4087">
        <ele>862</ele>
        <time>2011-04-30T16:55:17Z</time>
      </trkpt>
      <trkpt lat="46.10565" lon="6.40879">
        <ele>869</ele>
        <time>2011-04-30T16:55:18Z</time>
      </trkpt>
      <trkpt lat="46.10555" lon="6.40886">
        <ele>869</ele>
        <time>2011-04-30T16:55:19Z</time>
      </trkpt>
      <trkpt lat="46.10544" lon="6.40888">
        <ele>869</ele>
        <time>2011-04-30T16:55:20Z</time>
      </trkpt>
      <trkpt lat="46.10532" lon="6.40887">
        <ele>869</ele>
        <time>2011-04-30T16:55:21Z</time>
      </trkpt>
      <trkpt lat="46.10523" lon="6.4088">
        <ele>869</ele>
        <time>2011-04-30T16:55:22Z</time>
      </trkpt>
      <trkpt lat="46.10514" lon="6.4087">
        <ele>876</ele>
        <time>2011-04-30T16:55:23Z</time>
      </trkpt>
      <trkpt lat="46.10505" lon="6.40863">
        <ele>876</ele>
        <time>2011-04-30T16:55:24Z</time>
      </trkpt>
      <trkpt lat="46.10495" lon="6.40857">
        <ele>876</ele>
        <time>2011-04-30T16:55:25Z</time>
      </trkpt>
      <trkpt lat="46.10484" lon="6.40855">
        <ele>882</ele>
        <time>2011-04-30T16:55:26Z</time>
      </trkpt>
      <trkpt lat="46.10472" lon="6.40854">
        <ele>882</ele>
        <time>2011-04-30T16:55:27Z</time>
      </trkpt>
      <trkpt lat="46.1046" lon="6.40855">
        <ele>887</ele>
        <time>2011-04-30T16:55:28Z</time>
      </trkpt>
      <trkpt lat="46.10446" lon="6.40861">
        <ele>887</ele>
        <time>2011-04-30T16:55:29Z</time>
      </trkpt>
      <trkpt lat="46.10432" lon="6.40867">
        <ele>894</ele>
        <time>2011-04-30T16:55:30Z</time>
      </trkpt>
      <trkpt lat="46.10417" lon="6.40873">
        <ele>894</ele>
        <time>2011-04-30T16:55:31Z</time>
      </trkpt>
      <trkpt lat="46.10404" lon="6.40881">
        <ele>900</ele>
        <time>2011-04-30T16:55:32Z</time>
      </trkpt>
      <trkpt lat="46.1039" lon="6.40892">
        <ele>900</ele>
        <time>2011-04-30T16:55:33Z</time>
      </trkpt>
      <trkpt lat="46.10376" lon="6.40901">
        <ele>906</ele>
        <time>2011-04-30T16:55:34Z</time>
      </trkpt>
      <trkpt lat="46.10362" lon="6.4091">
        <ele>906</ele>
        <time>2011-04-30T16:55:35Z</time>
      </trkpt>
      <trkpt lat="46.10352" lon="6.40915">
        <ele>906</ele>
        <time>2011-04-30T16:55:36Z</time>
      </trkpt>
      <trkpt lat="46.10342" lon="6.40915">
        <ele>906</ele>
        <time>2011-04-30T16:55:37Z</time>
      </trkpt>
      <trkpt lat="46.10331" lon="6.40912">
        <ele>912</ele>
        <time>2011-04-30T16:55:38Z</time>
      </trkpt>
      <trkpt lat="46.10319" lon="6.40905">
        <ele>912</ele>
        <time>2011-04-30T16:55:39Z</time>
      </trkpt>
      <trkpt lat="46.10307" lon="6.40899">
        <ele>912</ele>
        <time>2011-04-30T16:55:40Z</time>
      </trkpt>
      <trkpt lat="46.10294" lon="6.40893">
        <ele>912</ele>
        <time>2011-04-30T16:55:41Z</time>
      </trkpt>
      <trkpt lat="46.10279" lon="6.4089">
        <ele>917</ele>
        <time>2011-04-30T16:55:42Z</time>
      </trkpt>
      <trkpt lat="46.10263" lon="6.40885">
        <ele>917</ele>
        <time>2011-04-30T16:55:43Z</time>
      </trkpt>
      <trkpt lat="46.10246" lon="6.40881">
        <ele>917</ele>
        <time>2011-04-30T16:55:44Z</time>
      </trkpt>
      <trkpt lat="46.1023" lon="6.40876">
        <ele>917</ele>
        <time>2011-04-30T16:55:45Z</time>
      </trkpt>
      <trkpt lat="46.10217" lon="6.40873">
        <ele>922</ele>
        <time>2011-04-30T16:55:46Z</time>
      </trkpt>
      <trkpt lat="46.10204" lon="6.4087">
        <ele>922</ele>
        <time>2011-04-30T16:55:47Z</time>
      </trkpt>
      <trkpt lat="46.10189" lon="6.40868">
        <ele>922</ele>
        <time>2011-04-30T16:55:48Z</time>
      </trkpt>
      <trkpt lat="46.10176" lon="6.40867">
        <ele>922</ele>
        <time>2011-04-30T16:55:49Z</time>
      </trkpt>
      <trkpt lat="46.10163" lon="6.40867">
        <ele>922</ele>
        <time>2011-04-30T16:55:50Z</time>
      </trkpt>
      <trkpt lat="46.10151" lon="6.40869">
        <ele>928</ele>
        <time>2011-04-30T16:55:51Z</time>
      </trkpt>
      <trkpt lat="46.10141" lon="6.40873">
        <ele>928</ele>
        <time>2011-04-30T16:55:52Z</time>
      </trkpt>
      <trkpt lat="46.1013" lon="6.40878">
        <ele>928</ele>
        <time>2011-04-30T16:55:53Z</time>
      </trkpt>
      <trkpt lat="46.1012" lon="6.40887">
        <ele>928</ele>
        <time>2011-04-30T16:55:54Z</time>
      </trkpt>
      <trkpt lat="46.10111" lon="6.40899">
        <ele>928</ele>
        <time>2011-04-30T16:55:55Z</time>
      </trkpt>
      <trkpt lat="46.10104" lon="6.40909">
        <ele>934</ele>
        <time>2011-04-30T16:55:56Z</time>
      </trkpt>
      <trkpt lat="46.10097" lon="6.40918">
        <ele>934</ele>
        <time>2011-04-30T16:55:57Z</time>
      </trkpt>
      <trkpt lat="46.10086" lon="6.40934">
        <ele>934</ele>
        <time>2011-04-30T16:55:59Z</time>
      </trkpt>
      <trkpt lat="46.10074" lon="6.40951">
        <ele>934</ele>
        <time>2011-04-30T16:56:01Z</time>
      </trkpt>
      <trkpt lat="46.10067" lon="6.40964">
        <ele>939</ele>
        <time>2011-04-30T16:56:02Z</time>
      </trkpt>
      <trkpt lat="46.10061" lon="6.40977">
        <ele>939</ele>
        <time>2011-04-30T16:56:03Z</time>
      </trkpt>
      <trkpt lat="46.10055" lon="6.40989">
        <ele>939</ele>
        <time>2011-04-30T16:56:04Z</time>
      </trkpt>
      <trkpt lat="46.10051" lon="6.41001">
        <ele>939</ele>
        <time>2011-04-30T16:56:05Z</time>
      </trkpt>
      <trkpt lat="46.10034" lon="6.41014">
        <ele>939</ele>
        <time>2011-04-30T16:56:07Z</time>
      </trkpt>
      <trkpt lat="46.10024" lon="6.41017">
        <ele>939</ele>
        <time>2011-04-30T16:56:08Z</time>
      </trkpt>
      <trkpt lat="46.10006" lon="6.41019">
        <ele>946</ele>
        <time>2011-04-30T16:56:10Z</time>
      </trkpt>
      <trkpt lat="46.09996" lon="6.41016">
        <ele>946</ele>
        <time>2011-04-30T16:56:11Z</time>
      </trkpt>
      <trkpt lat="46.09987" lon="6.41014">
        <ele>946</ele>
        <time>2011-04-30T16:56:12Z</time>
      </trkpt>
      <trkpt lat="46.09977" lon="6.41013">
        <ele>946</ele>
        <time>2011-04-30T16:56:13Z</time>
      </trkpt>
      <trkpt lat="46.09963" lon="6.41012">
        <ele>946</ele>
        <time>2011-04-30T16:56:15Z</time>
      </trkpt>
      <trkpt lat="46.09953" lon="6.41015">
        <ele>952</ele>
        <time>2011-04-30T16:56:18Z</time>
      </trkpt>
      <trkpt lat="46.09962" lon="6.4102">
        <ele>960</ele>
        <time>2011-04-30T16:56:39Z</time>
      </trkpt>
      <trkpt lat="46.0997" lon="6.41013">
        <ele>960</ele>
        <time>2011-04-30T17:02:49Z</time>
      </trkpt>
      <trkpt lat="46.09961" lon="6.41018">
        <ele>960</ele>
        <time>2011-04-30T17:07:42Z</time>
      </trkpt>
      <trkpt lat="46.09973" lon="6.41015">
        <ele>953</ele>
        <time>2011-04-30T17:08:19Z</time>
      </trkpt>
      <trkpt lat="46.09984" lon="6.4101">
        <ele>953</ele>
        <time>2011-04-30T17:08:21Z</time>
      </trkpt>
      <trkpt lat="46.09995" lon="6.4101">
        <ele>953</ele>
        <time>2011-04-30T17:08:23Z</time>
      </trkpt>
      <trkpt lat="46.10007" lon="6.41011">
        <ele>946</ele>
        <time>2011-04-30T17:08:25Z</time>
      </trkpt>
      <trkpt lat="46.1002" lon="6.41012">
        <ele>946</ele>
        <time>2011-04-30T17:08:27Z</time>
      </trkpt>
      <trkpt lat="46.1003" lon="6.41006">
        <ele>946</ele>
        <time>2011-04-30T17:08:29Z</time>
      </trkpt>
      <trkpt lat="46.10041" lon="6.40995">
        <ele>939</ele>
        <time>2011-04-30T17:08:31Z</time>
      </trkpt>
      <trkpt lat="46.10054" lon="6.40975">
        <ele>939</ele>
        <time>2011-04-30T17:08:33Z</time>
      </trkpt>
      <trkpt lat="46.10061" lon="6.40963">
        <ele>933</ele>
        <time>2011-04-30T17:08:34Z</time>
      </trkpt>
      <trkpt lat="46.10067" lon="6.40952">
        <ele>933</ele>
        <time>2011-04-30T17:08:35Z</time>
      </trkpt>
      <trkpt lat="46.10075" lon="6.40942">
        <ele>933</ele>
        <time>2011-04-30T17:08:36Z</time>
      </trkpt>
      <trkpt lat="46.10081" lon="6.4093">
        <ele>933</ele>
        <time>2011-04-30T17:08:37Z</time>
      </trkpt>
      <trkpt lat="46.10089" lon="6.40918">
        <ele>933</ele>
        <time>2011-04-30T17:08:38Z</time>
      </trkpt>
      <trkpt lat="46.10098" lon="6.40908">
        <ele>933</ele>
        <time>2011-04-30T17:08:39Z</time>
      </trkpt>
      <trkpt lat="46.10107" lon="6.40899">
        <ele>933</ele>
        <time>2011-04-30T17:08:40Z</time>
      </trkpt>
      <trkpt lat="46.10114" lon="6.40888">
        <ele>927</ele>
        <time>2011-04-30T17:08:41Z</time>
      </trkpt>
      <trkpt lat="46.10122" lon="6.40879">
        <ele>927</ele>
        <time>2011-04-30T17:08:42Z</time>
      </trkpt>
      <trkpt lat="46.10131" lon="6.40872">
        <ele>927</ele>
        <time>2011-04-30T17:08:43Z</time>
      </trkpt>
      <trkpt lat="46.10144" lon="6.40871">
        <ele>927</ele>
        <time>2011-04-30T17:08:44Z</time>
      </trkpt>
      <trkpt lat="46.10159" lon="6.40868">
        <ele>927</ele>
        <time>2011-04-30T17:08:46Z</time>
      </trkpt>
      <trkpt lat="46.10176" lon="6.40868">
        <ele>927</ele>
        <time>2011-04-30T17:08:48Z</time>
      </trkpt>
      <trkpt lat="46.10186" lon="6.40869">
        <ele>927</ele>
        <time>2011-04-30T17:08:49Z</time>
      </trkpt>
      <trkpt lat="46.10196" lon="6.40869">
        <ele>921</ele>
        <time>2011-04-30T17:08:50Z</time>
      </trkpt>
      <trkpt lat="46.10206" lon="6.4087">
        <ele>921</ele>
        <time>2011-04-30T17:08:51Z</time>
      </trkpt>
      <trkpt lat="46.10222" lon="6.40873">
        <ele>921</ele>
        <time>2011-04-30T17:08:53Z</time>
      </trkpt>
      <trkpt lat="46.10233" lon="6.40877">
        <ele>921</ele>
        <time>2011-04-30T17:08:54Z</time>
      </trkpt>
      <trkpt lat="46.10244" lon="6.40882">
        <ele>921</ele>
        <time>2011-04-30T17:08:55Z</time>
      </trkpt>
      <trkpt lat="46.10255" lon="6.40885">
        <ele>916</ele>
        <time>2011-04-30T17:08:56Z</time>
      </trkpt>
      <trkpt lat="46.10266" lon="6.40889">
        <ele>916</ele>
        <time>2011-04-30T17:08:57Z</time>
      </trkpt>
      <trkpt lat="46.10275" lon="6.40892">
        <ele>916</ele>
        <time>2011-04-30T17:08:58Z</time>
      </trkpt>
      <trkpt lat="46.10285" lon="6.40895">
        <ele>916</ele>
        <time>2011-04-30T17:08:59Z</time>
      </trkpt>
      <trkpt lat="46.10295" lon="6.40897">
        <ele>910</ele>
        <time>2011-04-30T17:09:00Z</time>
      </trkpt>
      <trkpt lat="46.10311" lon="6.40903">
        <ele>910</ele>
        <time>2011-04-30T17:09:02Z</time>
      </trkpt>
      <trkpt lat="46.10321" lon="6.40908">
        <ele>910</ele>
        <time>2011-04-30T17:09:03Z</time>
      </trkpt>
      <trkpt lat="46.1033" lon="6.40913">
        <ele>904</ele>
        <time>2011-04-30T17:09:04Z</time>
      </trkpt>
      <trkpt lat="46.10345" lon="6.40921">
        <ele>904</ele>
        <time>2011-04-30T17:09:06Z</time>
      </trkpt>
      <trkpt lat="46.10357" lon="6.40924">
        <ele>899</ele>
        <time>2011-04-30T17:09:08Z</time>
      </trkpt>
      <trkpt lat="46.10367" lon="6.40919">
        <ele>899</ele>
        <time>2011-04-30T17:09:11Z</time>
      </trkpt>
      <trkpt lat="46.10355" lon="6.40919">
        <ele>924</ele>
        <time>2011-04-30T17:09:30Z</time>
      </trkpt>
      <trkpt lat="46.10345" lon="6.40915">
        <ele>924</ele>
        <time>2011-04-30T17:09:31Z</time>
      </trkpt>
      <trkpt lat="46.10333" lon="6.40908">
        <ele>924</ele>
        <time>2011-04-30T17:09:32Z</time>
      </trkpt>
      <trkpt lat="46.10319" lon="6.409">
        <ele>924</ele>
        <time>2011-04-30T17:09:33Z</time>
      </trkpt>
      <trkpt lat="46.10306" lon="6.40895">
        <ele>924</ele>
        <time>2011-04-30T17:09:34Z</time>
      </trkpt>
      <trkpt lat="46.10294" lon="6.40891">
        <ele>924</ele>
        <time>2011-04-30T17:09:35Z</time>
      </trkpt>
      <trkpt lat="46.1028" lon="6.40888">
        <ele>924</ele>
        <time>2011-04-30T17:09:36Z</time>
      </trkpt>
      <trkpt lat="46.10265" lon="6.40884">
        <ele>924</ele>
        <time>2011-04-30T17:09:37Z</time>
      </trkpt>
      <trkpt lat="46.10249" lon="6.40881">
        <ele>924</ele>
        <time>2011-04-30T17:09:38Z</time>
      </trkpt>
      <trkpt lat="46.10234" lon="6.40875">
        <ele>924</ele>
        <time>2011-04-30T17:09:39Z</time>
      </trkpt>
      <trkpt lat="46.1022" lon="6.40872">
        <ele>924</ele>
        <time>2011-04-30T17:09:40Z</time>
      </trkpt>
      <trkpt lat="46.10207" lon="6.40869">
        <ele>924</ele>
        <time>2011-04-30T17:09:41Z</time>
      </trkpt>
      <trkpt lat="46.10194" lon="6.40867">
        <ele>924</ele>
        <time>2011-04-30T17:09:42Z</time>
      </trkpt>
      <trkpt lat="46.10179" lon="6.40867">
        <ele>924</ele>
        <time>2011-04-30T17:09:43Z</time>
      </trkpt>
      <trkpt lat="46.10164" lon="6.40867">
        <ele>929</ele>
        <time>2011-04-30T17:09:44Z</time>
      </trkpt>
      <trkpt lat="46.10152" lon="6.40869">
        <ele>929</ele>
        <time>2011-04-30T17:09:45Z</time>
      </trkpt>
      <trkpt lat="46.10142" lon="6.40873">
        <ele>929</ele>
        <time>2011-04-30T17:09:46Z</time>
      </trkpt>
      <trkpt lat="46.10132" lon="6.40878">
        <ele>929</ele>
        <time>2011-04-30T17:09:47Z</time>
      </trkpt>
      <trkpt lat="46.10122" lon="6.40886">
        <ele>929</ele>
        <time>2011-04-30T17:09:48Z</time>
      </trkpt>
      <trkpt lat="46.10114" lon="6.40898">
        <ele>934</ele>
        <time>2011-04-30T17:09:49Z</time>
      </trkpt>
      <trkpt lat="46.10103" lon="6.40911">
        <ele>934</ele>
        <time>2011-04-30T17:09:50Z</time>
      </trkpt>
      <trkpt lat="46.10092" lon="6.40926">
        <ele>934</ele>
        <time>2011-04-30T17:09:51Z</time>
      </trkpt>
      <trkpt lat="46.10081" lon="6.4094">
        <ele>934</ele>
        <time>2011-04-30T17:09:52Z</time>
      </trkpt>
      <trkpt lat="46.10071" lon="6.40955">
        <ele>934</ele>
        <time>2011-04-30T17:09:53Z</time>
      </trkpt>
      <trkpt lat="46.10061" lon="6.40969">
        <ele>934</ele>
        <time>2011-04-30T17:09:54Z</time>
      </trkpt>
      <trkpt lat="46.10051" lon="6.40979">
        <ele>934</ele>
        <time>2011-04-30T17:09:55Z</time>
      </trkpt>
      <trkpt lat="46.10042" lon="6.40992">
        <ele>940</ele>
        <time>2011-04-30T17:09:56Z</time>
      </trkpt>
      <trkpt lat="46.10034" lon="6.41003">
        <ele>940</ele>
        <time>2011-04-30T17:09:57Z</time>
      </trkpt>
      <trkpt lat="46.10024" lon="6.4101">
        <ele>940</ele>
        <time>2011-04-30T17:09:58Z</time>
      </trkpt>
      <trkpt lat="46.10015" lon="6.41014">
        <ele>946</ele>
        <time>2011-04-30T17:09:59Z</time>
      </trkpt>
      <trkpt lat="46.09996" lon="6.41013">
        <ele>946</ele>
        <time>2011-04-30T17:10:01Z</time>
      </trkpt>
      <trkpt lat="46.09986" lon="6.41011">
        <ele>946</ele>
        <time>2011-04-30T17:10:02Z</time>
      </trkpt>
      <trkpt lat="46.09977" lon="6.41011">
        <ele>946</ele>
        <time>2011-04-30T17:10:03Z</time>
      </trkpt>
      <trkpt lat="46.09961" lon="6.41012">
        <ele>946</ele>
        <time>2011-04-30T17:10:05Z</time>
      </trkpt>
      <trkpt lat="46.09952" lon="6.41015">
        <ele>946</ele>
        <time>2011-04-30T17:10:07Z</time>
      </trkpt>
      <trkpt lat="46.09959" lon="6.41027">
        <ele>946</ele>
        <time>2011-04-30T17:10:11Z</time>
      </trkpt>
      <trkpt lat="46.09958" lon="6.41014">
        <ele>946</ele>
        <time>2011-04-30T17:13:42Z</time>
      </trkpt>
      <trkpt lat="46.0995" lon="6.41005">
        <ele>946</ele>
        <time>2011-04-30T17:13:54Z</time>
      </trkpt>
      <trkpt lat="46.09939" lon="6.41009">
        <ele>946</ele>
        <time>2011-04-30T17:13:57Z</time>
      </trkpt>
      <trkpt lat="46.0993" lon="6.41014">
        <ele>946</ele>
        <time>2011-04-30T17:13:59Z</time>
      </trkpt>
      <trkpt lat="46.09925" lon="6.41028">
        <ele>946</ele>
        <time>2011-04-30T17:14:02Z</time>
      </trkpt>
      <trkpt lat="46.09927" lon="6.41041">
        <ele>946</ele>
        <time>2011-04-30T17:14:04Z</time>
      </trkpt>
      <trkpt lat="46.09931" lon="6.41055">
        <ele>940</ele>
        <time>2011-04-30T17:14:06Z</time>
      </trkpt>
      <trkpt lat="46.09931" lon="6.41071">
        <ele>940</ele>
        <time>2011-04-30T17:14:08Z</time>
      </trkpt>
      <trkpt lat="46.0993" lon="6.41088">
        <ele>934</ele>
        <time>2011-04-30T17:14:10Z</time>
      </trkpt>
      <trkpt lat="46.09931" lon="6.41108">
        <ele>927</ele>
        <time>2011-04-30T17:14:13Z</time>
      </trkpt>
      <trkpt lat="46.09928" lon="6.41127">
        <ele>922</ele>
        <time>2011-04-30T17:14:16Z</time>
      </trkpt>
      <trkpt lat="46.09927" lon="6.4114">
        <ele>922</ele>
        <time>2011-04-30T17:14:18Z</time>
      </trkpt>
      <trkpt lat="46.09926" lon="6.41155">
        <ele>915</ele>
        <time>2011-04-30T17:14:20Z</time>
      </trkpt>
      <trkpt lat="46.09923" lon="6.41167">
        <ele>915</ele>
        <time>2011-04-30T17:14:22Z</time>
      </trkpt>
      <trkpt lat="46.09916" lon="6.41179">
        <ele>915</ele>
        <time>2011-04-30T17:14:25Z</time>
      </trkpt>
      <trkpt lat="46.09914" lon="6.41196">
        <ele>915</ele>
        <time>2011-04-30T17:14:28Z</time>
      </trkpt>
      <trkpt lat="46.09914" lon="6.41209">
        <ele>915</ele>
        <time>2011-04-30T17:14:30Z</time>
      </trkpt>
      <trkpt lat="46.09912" lon="6.41225">
        <ele>915</ele>
        <time>2011-04-30T17:14:34Z</time>
      </trkpt>
      <trkpt lat="46.09912" lon="6.41243">
        <ele>908</ele>
        <time>2011-04-30T17:14:38Z</time>
      </trkpt>
      <trkpt lat="46.09915" lon="6.41255">
        <ele>908</ele>
        <time>2011-04-30T17:14:40Z</time>
      </trkpt>
      <trkpt lat="46.09919" lon="6.41268">
        <ele>903</ele>
        <time>2011-04-30T17:14:42Z</time>
      </trkpt>
      <trkpt lat="46.09921" lon="6.41283">
        <ele>903</ele>
        <time>2011-04-30T17:14:45Z</time>
      </trkpt>
      <trkpt lat="46.09924" lon="6.41296">
        <ele>903</ele>
        <time>2011-04-30T17:14:48Z</time>
      </trkpt>
      <trkpt lat="46.09924" lon="6.41309">
        <ele>903</ele>
        <time>2011-04-30T17:14:52Z</time>
      </trkpt>
      <trkpt lat="46.09916" lon="6.41299">
        <ele>896</ele>
        <time>2011-04-30T17:15:00Z</time>
      </trkpt>
      <trkpt lat="46.09907" lon="6.41293">
        <ele>896</ele>
        <time>2011-04-30T17:15:05Z</time>
      </trkpt>
      <trkpt lat="46.09899" lon="6.41288">
        <ele>896</ele>
        <time>2011-04-30T17:15:09Z</time>
      </trkpt>
      <trkpt lat="46.09889" lon="6.4128">
        <ele>896</ele>
        <time>2011-04-30T17:15:12Z</time>
      </trkpt>
      <trkpt lat="46.09884" lon="6.41269">
        <ele>888</ele>
        <time>2011-04-30T17:15:16Z</time>
      </trkpt>
      <trkpt lat="46.09882" lon="6.41253">
        <ele>888</ele>
        <time>2011-04-30T17:15:19Z</time>
      </trkpt>
      <trkpt lat="46.09877" lon="6.41239">
        <ele>888</ele>
        <time>2011-04-30T17:15:23Z</time>
      </trkpt>
      <trkpt lat="46.09869" lon="6.41224">
        <ele>894</ele>
        <time>2011-04-30T17:15:26Z</time>
      </trkpt>
      <trkpt lat="46.09862" lon="6.41213">
        <ele>894</ele>
        <time>2011-04-30T17:15:29Z</time>
      </trkpt>
      <trkpt lat="46.09852" lon="6.41209">
        <ele>886</ele>
        <time>2011-04-30T17:15:33Z</time>
      </trkpt>
      <trkpt lat="46.09842" lon="6.41205">
        <ele>880</ele>
        <time>2011-04-30T17:15:41Z</time>
      </trkpt>
      <trkpt lat="46.09834" lon="6.41198">
        <ele>867</ele>
        <time>2011-04-30T17:15:49Z</time>
      </trkpt>
      <trkpt lat="46.09836" lon="6.41184">
        <ele>858</ele>
        <time>2011-04-30T17:15:52Z</time>
      </trkpt>
      <trkpt lat="46.09831" lon="6.41171">
        <ele>849</ele>
        <time>2011-04-30T17:15:56Z</time>
      </trkpt>
      <trkpt lat="46.09819" lon="6.41164">
        <ele>849</ele>
        <time>2011-04-30T17:15:59Z</time>
      </trkpt>
      <trkpt lat="46.0981" lon="6.41153">
        <ele>839</ele>
        <time>2011-04-30T17:16:03Z</time>
      </trkpt>
      <trkpt lat="46.09801" lon="6.41144">
        <ele>839</ele>
        <time>2011-04-30T17:16:07Z</time>
      </trkpt>
      <trkpt lat="46.09792" lon="6.41139">
        <ele>827</ele>
        <time>2011-04-30T17:16:13Z</time>
      </trkpt>
      <trkpt lat="46.09784" lon="6.41132">
        <ele>821</ele>
        <time>2011-04-30T17:16:17Z</time>
      </trkpt>
      <trkpt lat="46.09772" lon="6.41129">
        <ele>821</ele>
        <time>2011-04-30T17:16:20Z</time>
      </trkpt>
      <trkpt lat="46.0976" lon="6.41134">
        <ele>821</ele>
        <time>2011-04-30T17:16:23Z</time>
      </trkpt>
      <trkpt lat="46.09754" lon="6.41144">
        <ele>821</ele>
        <time>2011-04-30T17:16:25Z</time>
      </trkpt>
      <trkpt lat="46.09742" lon="6.41151">
        <ele>821</ele>
        <time>2011-04-30T17:16:28Z</time>
      </trkpt>
      <trkpt lat="46.09732" lon="6.41153">
        <ele>821</ele>
        <time>2011-04-30T17:16:30Z</time>
      </trkpt>
      <trkpt lat="46.09724" lon="6.41161">
        <ele>814</ele>
        <time>2011-04-30T17:16:32Z</time>
      </trkpt>
      <trkpt lat="46.09715" lon="6.4117">
        <ele>814</ele>
        <time>2011-04-30T17:16:34Z</time>
      </trkpt>
      <trkpt lat="46.09707" lon="6.4118">
        <ele>814</ele>
        <time>2011-04-30T17:16:36Z</time>
      </trkpt>
      <trkpt lat="46.09699" lon="6.41194">
        <ele>805</ele>
        <time>2011-04-30T17:16:39Z</time>
      </trkpt>
      <trkpt lat="46.09691" lon="6.41206">
        <ele>805</ele>
        <time>2011-04-30T17:16:42Z</time>
      </trkpt>
      <trkpt lat="46.09687" lon="6.41219">
        <ele>797</ele>
        <time>2011-04-30T17:16:45Z</time>
      </trkpt>
      <trkpt lat="46.09681" lon="6.41232">
        <ele>797</ele>
        <time>2011-04-30T17:16:49Z</time>
      </trkpt>
      <trkpt lat="46.09671" lon="6.41228">
        <ele>791</ele>
        <time>2011-04-30T17:16:53Z</time>
      </trkpt>
      <trkpt lat="46.09661" lon="6.41222">
        <ele>791</ele>
        <time>2011-04-30T17:16:56Z</time>
      </trkpt>
      <trkpt lat="46.09651" lon="6.41217">
        <ele>783</ele>
        <time>2011-04-30T17:16:59Z</time>
      </trkpt>
      <trkpt lat="46.09638" lon="6.41216">
        <ele>783</ele>
        <time>2011-04-30T17:17:02Z</time>
      </trkpt>
      <trkpt lat="46.09626" lon="6.41212">
        <ele>776</ele>
        <time>2011-04-30T17:17:06Z</time>
      </trkpt>
      <trkpt lat="46.09614" lon="6.41213">
        <ele>776</ele>
        <time>2011-04-30T17:17:45Z</time>
      </trkpt>
      <trkpt lat="46.096" lon="6.41217">
        <ele>776</ele>
        <time>2011-04-30T17:17:48Z</time>
      </trkpt>
      <trkpt lat="46.09587" lon="6.41217">
        <ele>776</ele>
        <time>2011-04-30T17:17:50Z</time>
      </trkpt>
      <trkpt lat="46.09574" lon="6.41218">
        <ele>776</ele>
        <time>2011-04-30T17:17:52Z</time>
      </trkpt>
      <trkpt lat="46.09562" lon="6.41225">
        <ele>771</ele>
        <time>2011-04-30T17:17:54Z</time>
      </trkpt>
      <trkpt lat="46.0955" lon="6.4123">
        <ele>771</ele>
        <time>2011-04-30T17:17:56Z</time>
      </trkpt>
      <trkpt lat="46.09537" lon="6.41233">
        <ele>771</ele>
        <time>2011-04-30T17:17:58Z</time>
      </trkpt>
      <trkpt lat="46.09525" lon="6.41232">
        <ele>763</ele>
        <time>2011-04-30T17:18:00Z</time>
      </trkpt>
      <trkpt lat="46.09512" lon="6.41241">
        <ele>763</ele>
        <time>2011-04-30T17:18:02Z</time>
      </trkpt>
      <trkpt lat="46.09503" lon="6.41252">
        <ele>755</ele>
        <time>2011-04-30T17:18:04Z</time>
      </trkpt>
      <trkpt lat="46.09493" lon="6.4126">
        <ele>755</ele>
        <time>2011-04-30T17:18:06Z</time>
      </trkpt>
      <trkpt lat="46.09485" lon="6.41267">
        <ele>747</ele>
        <time>2011-04-30T17:18:08Z</time>
      </trkpt>
      <trkpt lat="46.09478" lon="6.41254">
        <ele>740</ele>
        <time>2011-04-30T17:18:14Z</time>
      </trkpt>
      <trkpt lat="46.09474" lon="6.41242">
        <ele>740</ele>
        <time>2011-04-30T17:18:16Z</time>
      </trkpt>
      <trkpt lat="46.09467" lon="6.41231">
        <ele>734</ele>
        <time>2011-04-30T17:18:20Z</time>
      </trkpt>
      <trkpt lat="46.09457" lon="6.41226">
        <ele>734</ele>
        <time>2011-04-30T17:18:23Z</time>
      </trkpt>
      <trkpt lat="46.09447" lon="6.41226">
        <ele>734</ele>
        <time>2011-04-30T17:18:25Z</time>
      </trkpt>
      <trkpt lat="46.09433" lon="6.41227">
        <ele>729</ele>
        <time>2011-04-30T17:18:27Z</time>
      </trkpt>
      <trkpt lat="46.09423" lon="6.41225">
        <ele>729</ele>
        <time>2011-04-30T17:18:28Z</time>
      </trkpt>
      <trkpt lat="46.09411" lon="6.41219">
        <ele>729</ele>
        <time>2011-04-30T17:18:30Z</time>
      </trkpt>
      <trkpt lat="46.09402" lon="6.41212">
        <ele>720</ele>
        <time>2011-04-30T17:18:32Z</time>
      </trkpt>
      <trkpt lat="46.09392" lon="6.4121">
        <ele>715</ele>
        <time>2011-04-30T17:18:34Z</time>
      </trkpt>
      <trkpt lat="46.09382" lon="6.41202">
        <ele>715</ele>
        <time>2011-04-30T17:18:37Z</time>
      </trkpt>
      <trkpt lat="46.09372" lon="6.41191">
        <ele>704</ele>
        <time>2011-04-30T17:18:40Z</time>
      </trkpt>
      <trkpt lat="46.09364" lon="6.41183">
        <ele>704</ele>
        <time>2011-04-30T17:18:43Z</time>
      </trkpt>
      <trkpt lat="46.09354" lon="6.41188">
        <ele>696</ele>
        <time>2011-04-30T17:18:48Z</time>
      </trkpt>
      <trkpt lat="46.09343" lon="6.41186">
        <ele>696</ele>
        <time>2011-04-30T17:18:52Z</time>
      </trkpt>
      <trkpt lat="46.09333" lon="6.41182">
        <ele>690</ele>
        <time>2011-04-30T17:18:54Z</time>
      </trkpt>
      <trkpt lat="46.09324" lon="6.4118">
        <ele>690</ele>
        <time>2011-04-30T17:18:57Z</time>
      </trkpt>
      <trkpt lat="46.09312" lon="6.41173">
        <ele>690</ele>
        <time>2011-04-30T17:19:00Z</time>
      </trkpt>
      <trkpt lat="46.09301" lon="6.41173">
        <ele>681</ele>
        <time>2011-04-30T17:19:05Z</time>
      </trkpt>
      <trkpt lat="46.09292" lon="6.41183">
        <ele>681</ele>
        <time>2011-04-30T17:19:09Z</time>
      </trkpt>
      <trkpt lat="46.09284" lon="6.4118">
        <ele>681</ele>
        <time>2011-04-30T17:19:16Z</time>
      </trkpt>
      <trkpt lat="46.09274" lon="6.41173">
        <ele>674</ele>
        <time>2011-04-30T17:19:23Z</time>
      </trkpt>
      <trkpt lat="46.09264" lon="6.41158">
        <ele>669</ele>
        <time>2011-04-30T17:19:27Z</time>
      </trkpt>
      <trkpt lat="46.09256" lon="6.41147">
        <ele>669</ele>
        <time>2011-04-30T17:19:29Z</time>
      </trkpt>
      <trkpt lat="46.09245" lon="6.41137">
        <ele>663</ele>
        <time>2011-04-30T17:19:31Z</time>
      </trkpt>
      <trkpt lat="46.09236" lon="6.41132">
        <ele>663</ele>
        <time>2011-04-30T17:19:33Z</time>
      </trkpt>
      <trkpt lat="46.09224" lon="6.41129">
        <ele>658</ele>
        <time>2011-04-30T17:19:35Z</time>
      </trkpt>
      <trkpt lat="46.09214" lon="6.41126">
        <ele>658</ele>
        <time>2011-04-30T17:19:37Z</time>
      </trkpt>
      <trkpt lat="46.09205" lon="6.41129">
        <ele>646</ele>
        <time>2011-04-30T17:19:40Z</time>
      </trkpt>
      <trkpt lat="46.09195" lon="6.41129">
        <ele>646</ele>
        <time>2011-04-30T17:19:42Z</time>
      </trkpt>
      <trkpt lat="46.09186" lon="6.41129">
        <ele>637</ele>
        <time>2011-04-30T17:19:44Z</time>
      </trkpt>
      <trkpt lat="46.09174" lon="6.41123">
        <ele>637</ele>
        <time>2011-04-30T17:19:47Z</time>
      </trkpt>
      <trkpt lat="46.09161" lon="6.41122">
        <ele>632</ele>
        <time>2011-04-30T17:19:50Z</time>
      </trkpt>
      <trkpt lat="46.09147" lon="6.41126">
        <ele>632</ele>
        <time>2011-04-30T17:19:53Z</time>
      </trkpt>
      <trkpt lat="46.09133" lon="6.41139">
        <ele>620</ele>
        <time>2011-04-30T17:19:58Z</time>
      </trkpt>
      <trkpt lat="46.09122" lon="6.41139">
        <ele>620</ele>
        <time>2011-04-30T17:20:01Z</time>
      </trkpt>
      <trkpt lat="46.09112" lon="6.41136">
        <ele>620</ele>
        <time>2011-04-30T17:20:03Z</time>
      </trkpt>
      <trkpt lat="46.09101" lon="6.41131">
        <ele>613</ele>
        <time>2011-04-30T17:20:05Z</time>
      </trkpt>
      <trkpt lat="46.0909" lon="6.41127">
        <ele>613</ele>
        <time>2011-04-30T17:20:07Z</time>
      </trkpt>
      <trkpt lat="46.09079" lon="6.41125">
        <ele>601</ele>
        <time>2011-04-30T17:20:10Z</time>
      </trkpt>
      <trkpt lat="46.09068" lon="6.41125">
        <ele>601</ele>
        <time>2011-04-30T17:20:13Z</time>
      </trkpt>
      <trkpt lat="46.09058" lon="6.41128">
        <ele>601</ele>
        <time>2011-04-30T17:20:16Z</time>
      </trkpt>
      <trkpt lat="46.09047" lon="6.4113">
        <ele>601</ele>
        <time>2011-04-30T17:20:20Z</time>
      </trkpt>
      <trkpt lat="46.09035" lon="6.41135">
        <ele>601</ele>
        <time>2011-04-30T17:20:23Z</time>
      </trkpt>
      <trkpt lat="46.0902" lon="6.41126">
        <ele>601</ele>
        <time>2011-04-30T17:20:25Z</time>
      </trkpt>
      <trkpt lat="46.09007" lon="6.4112">
        <ele>601</ele>
        <time>2011-04-30T17:20:28Z</time>
      </trkpt>
      <trkpt lat="46.08996" lon="6.41116">
        <ele>592</ele>
        <time>2011-04-30T17:20:32Z</time>
      </trkpt>
      <trkpt lat="46.08985" lon="6.41117">
        <ele>592</ele>
        <time>2011-04-30T17:20:34Z</time>
      </trkpt>
      <trkpt lat="46.08974" lon="6.41124">
        <ele>580</ele>
        <time>2011-04-30T17:20:37Z</time>
      </trkpt>
      <trkpt lat="46.08962" lon="6.41124">
        <ele>580</ele>
        <time>2011-04-30T17:20:40Z</time>
      </trkpt>
      <trkpt lat="46.08952" lon="6.41123">
        <ele>572</ele>
        <time>2011-04-30T17:20:44Z</time>
      </trkpt>
      <trkpt lat="46.08944" lon="6.41113">
        <ele>572</ele>
        <time>2011-04-30T17:20:47Z</time>
      </trkpt>
      <trkpt lat="46.08935" lon="6.41113">
        <ele>565</ele>
        <time>2011-04-30T17:20:50Z</time>
      </trkpt>
      <trkpt lat="46.08922" lon="6.4112">
        <ele>557</ele>
        <time>2011-04-30T17:20:53Z</time>
      </trkpt>
      <trkpt lat="46.08917" lon="6.41131">
        <ele>557</ele>
        <time>2011-04-30T17:20:55Z</time>
      </trkpt>
      <trkpt lat="46.08907" lon="6.41139">
        <ele>551</ele>
        <time>2011-04-30T17:20:59Z</time>
      </trkpt>
      <trkpt lat="46.08895" lon="6.41134">
        <ele>551</ele>
        <time>2011-04-30T17:21:02Z</time>
      </trkpt>
      <trkpt lat="46.08885" lon="6.41134">
        <ele>551</ele>
        <time>2011-04-30T17:21:04Z</time>
      </trkpt>
      <trkpt lat="46.08869" lon="6.41136">
        <ele>545</ele>
        <time>2011-04-30T17:21:06Z</time>
      </trkpt>
      <trkpt lat="46.08856" lon="6.41139">
        <ele>545</ele>
        <time>2011-04-30T17:21:08Z</time>
      </trkpt>
      <trkpt lat="46.08842" lon="6.41144">
        <ele>545</ele>
        <time>2011-04-30T17:21:10Z</time>
      </trkpt>
      <trkpt lat="46.08829" lon="6.41148">
        <ele>539</ele>
        <time>2011-04-30T17:21:12Z</time>
      </trkpt>
      <trkpt lat="46.08819" lon="6.41151">
        <ele>539</ele>
        <time>2011-04-30T17:21:14Z</time>
      </trkpt>
      <trkpt lat="46.08808" lon="6.41155">
        <ele>539</ele>
        <time>2011-04-30T17:21:16Z</time>
      </trkpt>
      <trkpt lat="46.08798" lon="6.41157">
        <ele>532</ele>
        <time>2011-04-30T17:21:18Z</time>
      </trkpt>
      <trkpt lat="46.08789" lon="6.41154">
        <ele>532</ele>
        <time>2011-04-30T17:21:20Z</time>
      </trkpt>
      <trkpt lat="46.08779" lon="6.4115">
        <ele>532</ele>
        <time>2011-04-30T17:21:23Z</time>
      </trkpt>
      <trkpt lat="46.08769" lon="6.41143">
        <ele>525</ele>
        <time>2011-04-30T17:21:27Z</time>
      </trkpt>
      <trkpt lat="46.08762" lon="6.41159">
        <ele>525</ele>
        <time>2011-04-30T17:21:56Z</time>
      </trkpt>
      <trkpt lat="46.08757" lon="6.41182">
        <ele>519</ele>
        <time>2011-04-30T17:21:58Z</time>
      </trkpt>
      <trkpt lat="46.08752" lon="6.41204">
        <ele>519</ele>
        <time>2011-04-30T17:22:00Z</time>
      </trkpt>
      <trkpt lat="46.08744" lon="6.41225">
        <ele>519</ele>
        <time>2011-04-30T17:22:02Z</time>
      </trkpt>
      <trkpt lat="46.08733" lon="6.41243">
        <ele>519</ele>
        <time>2011-04-30T17:22:04Z</time>
      </trkpt>
      <trkpt lat="46.08722" lon="6.41261">
        <ele>519</ele>
        <time>2011-04-30T17:22:06Z</time>
      </trkpt>
      <trkpt lat="46.08717" lon="6.4128">
        <ele>519</ele>
        <time>2011-04-30T17:22:08Z</time>
      </trkpt>
      <trkpt lat="46.08715" lon="6.41294">
        <ele>519</ele>
        <time>2011-04-30T17:22:10Z</time>
      </trkpt>
      <trkpt lat="46.08709" lon="6.41304">
        <ele>519</ele>
        <time>2011-04-30T17:22:19Z</time>
      </trkpt>
      <trkpt lat="46.08694" lon="6.41298">
        <ele>513</ele>
        <time>2011-04-30T17:22:22Z</time>
      </trkpt>
      <trkpt lat="46.08685" lon="6.41293">
        <ele>513</ele>
        <time>2011-04-30T17:22:24Z</time>
      </trkpt>
      <trkpt lat="46.08675" lon="6.41282">
        <ele>513</ele>
        <time>2011-04-30T17:22:27Z</time>
      </trkpt>
      <trkpt lat="46.08671" lon="6.41269">
        <ele>506</ele>
        <time>2011-04-30T17:22:29Z</time>
      </trkpt>
      <trkpt lat="46.08671" lon="6.41247">
        <ele>506</ele>
        <time>2011-04-30T17:22:31Z</time>
      </trkpt>
      <trkpt lat="46.08669" lon="6.41225">
        <ele>506</ele>
        <time>2011-04-30T17:22:33Z</time>
      </trkpt>
      <trkpt lat="46.08667" lon="6.41201">
        <ele>501</ele>
        <time>2011-04-30T17:22:35Z</time>
      </trkpt>
      <trkpt lat="46.08668" lon="6.41182">
        <ele>501</ele>
        <time>2011-04-30T17:22:37Z</time>
      </trkpt>
      <trkpt lat="46.08665" lon="6.41168">
        <ele>501</ele>
        <time>2011-04-30T17:22:40Z</time>
      </trkpt>
      <trkpt lat="46.08654" lon="6.41175">
        <ele>501</ele>
        <time>2011-04-30T17:22:42Z</time>
      </trkpt>
      <trkpt lat="46.08641" lon="6.4119">
        <ele>495</ele>
        <time>2011-04-30T17:22:44Z</time>
      </trkpt>
      <trkpt lat="46.08627" lon="6.41198">
        <ele>495</ele>
        <time>2011-04-30T17:22:46Z</time>
      </trkpt>
      <trkpt lat="46.08611" lon="6.41205">
        <ele>490</ele>
        <time>2011-04-30T17:22:48Z</time>
      </trkpt>
      <trkpt lat="46.08595" lon="6.41211">
        <ele>490</ele>
        <time>2011-04-30T17:22:50Z</time>
      </trkpt>
      <trkpt lat="46.08579" lon="6.41209">
        <ele>485</ele>
        <time>2011-04-30T17:22:52Z</time>
      </trkpt>
      <trkpt lat="46.08562" lon="6.41195">
        <ele>485</ele>
        <time>2011-04-30T17:22:54Z</time>
      </trkpt>
      <trkpt lat="46.08554" lon="6.41188">
        <ele>479</ele>
        <time>2011-04-30T17:22:55Z</time>
      </trkpt>
      <trkpt lat="46.08543" lon="6.4118">
        <ele>479</ele>
        <time>2011-04-30T17:22:56Z</time>
      </trkpt>
      <trkpt lat="46.08534" lon="6.41173">
        <ele>479</ele>
        <time>2011-04-30T17:22:57Z</time>
      </trkpt>
      <trkpt lat="46.08524" lon="6.41164">
        <ele>479</ele>
        <time>2011-04-30T17:22:58Z</time>
      </trkpt>
      <trkpt lat="46.08516" lon="6.41157">
        <ele>479</ele>
        <time>2011-04-30T17:22:59Z</time>
      </trkpt>
      <trkpt lat="46.08506" lon="6.41151">
        <ele>473</ele>
        <time>2011-04-30T17:23:00Z</time>
      </trkpt>
      <trkpt lat="46.08497" lon="6.41145">
        <ele>473</ele>
        <time>2011-04-30T17:23:01Z</time>
      </trkpt>
      <trkpt lat="46.08489" lon="6.41138">
        <ele>473</ele>
        <time>2011-04-30T17:23:02Z</time>
      </trkpt>
      <trkpt lat="46.08481" lon="6.41133">
        <ele>473</ele>
        <time>2011-04-30T17:23:03Z</time>
      </trkpt>
      <trkpt lat="46.08472" lon="6.41127">
        <ele>468</ele>
        <time>2011-04-30T17:23:04Z</time>
      </trkpt>
      <trkpt lat="46.08461" lon="6.41119">
        <ele>468</ele>
        <time>2011-04-30T17:23:06Z</time>
      </trkpt>
      <trkpt lat="46.08452" lon="6.41131">
        <ele>468</ele>
        <time>2011-04-30T17:23:13Z</time>
      </trkpt>
      <trkpt lat="46.08447" lon="6.41152">
        <ele>468</ele>
        <time>2011-04-30T17:23:15Z</time>
      </trkpt>
      <trkpt lat="46.08446" lon="6.41166">
        <ele>468</ele>
        <time>2011-04-30T17:23:16Z</time>
      </trkpt>
      <trkpt lat="46.08446" lon="6.41182">
        <ele>468</ele>
        <time>2011-04-30T17:23:17Z</time>
      </trkpt>
      <trkpt lat="46.08446" lon="6.41197">
        <ele>468</ele>
        <time>2011-04-30T17:23:18Z</time>
      </trkpt>
      <trkpt lat="46.08447" lon="6.41212">
        <ele>468</ele>
        <time>2011-04-30T17:23:19Z</time>
      </trkpt>
      <trkpt lat="46.08451" lon="6.41226">
        <ele>468</ele>
        <time>2011-04-30T17:23:20Z</time>
      </trkpt>
      <trkpt lat="46.08456" lon="6.41239">
        <ele>468</ele>
        <time>2011-04-30T17:23:21Z</time>
      </trkpt>
      <trkpt lat="46.08461" lon="6.41252">
        <ele>468</ele>
        <time>2011-04-30T17:23:22Z</time>
      </trkpt>
      <trkpt lat="46.08468" lon="6.41265">
        <ele>468</ele>
        <time>2011-04-30T17:23:23Z</time>
      </trkpt>
      <trkpt lat="46.08475" lon="6.41279">
        <ele>468</ele>
        <time>2011-04-30T17:23:24Z</time>
      </trkpt>
      <trkpt lat="46.08483" lon="6.41294">
        <ele>468</ele>
        <time>2011-04-30T17:23:25Z</time>
      </trkpt>
      <trkpt lat="46.08491" lon="6.41309">
        <ele>468</ele>
        <time>2011-04-30T17:23:26Z</time>
      </trkpt>
      <trkpt lat="46.08498" lon="6.41327">
        <ele>468</ele>
        <time>2011-04-30T17:23:27Z</time>
      </trkpt>
      <trkpt lat="46.08505" lon="6.41345">
        <ele>474</ele>
        <time>2011-04-30T17:23:28Z</time>
      </trkpt>
      <trkpt lat="46.08511" lon="6.41362">
        <ele>474</ele>
        <time>2011-04-30T17:23:29Z</time>
      </trkpt>
      <trkpt lat="46.08516" lon="6.41377">
        <ele>474</ele>
        <time>2011-04-30T17:23:30Z</time>
      </trkpt>
      <trkpt lat="46.08521" lon="6.41391">
        <ele>474</ele>
        <time>2011-04-30T17:23:31Z</time>
      </trkpt>
      <trkpt lat="46.08527" lon="6.41403">
        <ele>479</ele>
        <time>2011-04-30T17:23:32Z</time>
      </trkpt>
      <trkpt lat="46.08537" lon="6.4142">
        <ele>479</ele>
        <time>2011-04-30T17:23:34Z</time>
      </trkpt>
      <trkpt lat="46.0854" lon="6.41433">
        <ele>485</ele>
        <time>2011-04-30T17:23:36Z</time>
      </trkpt>
      <trkpt lat="46.08528" lon="6.41446">
        <ele>485</ele>
        <time>2011-04-30T17:23:39Z</time>
      </trkpt>
      <trkpt lat="46.08519" lon="6.41461">
        <ele>485</ele>
        <time>2011-04-30T17:23:41Z</time>
      </trkpt>
      <trkpt lat="46.08514" lon="6.41482">
        <ele>485</ele>
        <time>2011-04-30T17:23:43Z</time>
      </trkpt>
      <trkpt lat="46.08507" lon="6.415">
        <ele>490</ele>
        <time>2011-04-30T17:23:45Z</time>
      </trkpt>
      <trkpt lat="46.08497" lon="6.41517">
        <ele>490</ele>
        <time>2011-04-30T17:23:47Z</time>
      </trkpt>
      <trkpt lat="46.08487" lon="6.4153">
        <ele>490</ele>
        <time>2011-04-30T17:23:49Z</time>
      </trkpt>
      <trkpt lat="46.08479" lon="6.41542">
        <ele>490</ele>
        <time>2011-04-30T17:23:52Z</time>
      </trkpt>
      <trkpt lat="46.08484" lon="6.41553">
        <ele>490</ele>
        <time>2011-04-30T17:23:55Z</time>
      </trkpt>
      <trkpt lat="46.08491" lon="6.41566">
        <ele>495</ele>
        <time>2011-04-30T17:23:58Z</time>
      </trkpt>
      <trkpt lat="46.0849" lon="6.41587">
        <ele>495</ele>
        <time>2011-04-30T17:24:00Z</time>
      </trkpt>
      <trkpt lat="46.08489" lon="6.41601">
        <ele>495</ele>
        <time>2011-04-30T17:24:01Z</time>
      </trkpt>
      <trkpt lat="46.08487" lon="6.41618">
        <ele>495</ele>
        <time>2011-04-30T17:24:02Z</time>
      </trkpt>
      <trkpt lat="46.08485" lon="6.41636">
        <ele>495</ele>
        <time>2011-04-30T17:24:03Z</time>
      </trkpt>
      <trkpt lat="46.08483" lon="6.41657">
        <ele>495</ele>
        <time>2011-04-30T17:24:04Z</time>
      </trkpt>
      <trkpt lat="46.08481" lon="6.41677">
        <ele>495</ele>
        <time>2011-04-30T17:24:05Z</time>
      </trkpt>
      <trkpt lat="46.08479" lon="6.41698">
        <ele>495</ele>
        <time>2011-04-30T17:24:06Z</time>
      </trkpt>
      <trkpt lat="46.08477" lon="6.4172">
        <ele>495</ele>
        <time>2011-04-30T17:24:07Z</time>
      </trkpt>
      <trkpt lat="46.08474" lon="6.41742">
        <ele>495</ele>
        <time>2011-04-30T17:24:08Z</time>
      </trkpt>
      <trkpt lat="46.08472" lon="6.41764">
        <ele>495</ele>
        <time>2011-04-30T17:24:09Z</time>
      </trkpt>
      <trkpt lat="46.08469" lon="6.41786">
        <ele>495</ele>
        <time>2011-04-30T17:24:10Z</time>
      </trkpt>
      <trkpt lat="46.08467" lon="6.41808">
        <ele>495</ele>
        <time>2011-04-30T17:24:11Z</time>
      </trkpt>
      <trkpt lat="46.08464" lon="6.41827">
        <ele>495</ele>
        <time>2011-04-30T17:24:12Z</time>
      </trkpt>
      <trkpt lat="46.08462" lon="6.41842">
        <ele>501</ele>
        <time>2011-04-30T17:24:13Z</time>
      </trkpt>
      <trkpt lat="46.08457" lon="6.41862">
        <ele>501</ele>
        <time>2011-04-30T17:24:15Z</time>
      </trkpt>
      <trkpt lat="46.08442" lon="6.41853">
        <ele>501</ele>
        <time>2011-04-30T17:24:18Z</time>
      </trkpt>
      <trkpt lat="46.08438" lon="6.41839">
        <ele>501</ele>
        <time>2011-04-30T17:24:19Z</time>
      </trkpt>
      <trkpt lat="46.08435" lon="6.41823">
        <ele>501</ele>
        <time>2011-04-30T17:24:20Z</time>
      </trkpt>
      <trkpt lat="46.08432" lon="6.41807">
        <ele>501</ele>
        <time>2011-04-30T17:24:21Z</time>
      </trkpt>
      <trkpt lat="46.0843" lon="6.41792">
        <ele>501</ele>
        <time>2011-04-30T17:24:22Z</time>
      </trkpt>
      <trkpt lat="46.08429" lon="6.41778">
        <ele>501</ele>
        <time>2011-04-30T17:24:23Z</time>
      </trkpt>
      <trkpt lat="46.08426" lon="6.41765">
        <ele>501</ele>
        <time>2011-04-30T17:24:24Z</time>
      </trkpt>
      <trkpt lat="46.08419" lon="6.41747">
        <ele>501</ele>
        <time>2011-04-30T17:24:26Z</time>
      </trkpt>
      <trkpt lat="46.08404" lon="6.41739">
        <ele>501</ele>
        <time>2011-04-30T17:24:28Z</time>
      </trkpt>
      <trkpt lat="46.08394" lon="6.4174">
        <ele>501</ele>
        <time>2011-04-30T17:24:29Z</time>
      </trkpt>
      <trkpt lat="46.08385" lon="6.41742">
        <ele>506</ele>
        <time>2011-04-30T17:24:30Z</time>
      </trkpt>
      <trkpt lat="46.08375" lon="6.41741">
        <ele>506</ele>
        <time>2011-04-30T17:24:31Z</time>
      </trkpt>
      <trkpt lat="46.08364" lon="6.41737">
        <ele>506</ele>
        <time>2011-04-30T17:24:32Z</time>
      </trkpt>
      <trkpt lat="46.08355" lon="6.4173">
        <ele>506</ele>
        <time>2011-04-30T17:24:33Z</time>
      </trkpt>
      <trkpt lat="46.08347" lon="6.41721">
        <ele>506</ele>
        <time>2011-04-30T17:24:34Z</time>
      </trkpt>
      <trkpt lat="46.08333" lon="6.41708">
        <ele>506</ele>
        <time>2011-04-30T17:24:36Z</time>
      </trkpt>
      <trkpt lat="46.08323" lon="6.41699">
        <ele>506</ele>
        <time>2011-04-30T17:24:38Z</time>
      </trkpt>
      <trkpt lat="46.08312" lon="6.41696">
        <ele>506</ele>
        <time>2011-04-30T17:24:40Z</time>
      </trkpt>
      <trkpt lat="46.08305" lon="6.41711">
        <ele>506</ele>
        <time>2011-04-30T17:24:43Z</time>
      </trkpt>
      <trkpt lat="46.08294" lon="6.41726">
        <ele>512</ele>
        <time>2011-04-30T17:24:46Z</time>
      </trkpt>
      <trkpt lat="46.08288" lon="6.41736">
        <ele>512</ele>
        <time>2011-04-30T17:24:47Z</time>
      </trkpt>
      <trkpt lat="46.08288" lon="6.41754">
        <ele>512</ele>
        <time>2011-04-30T17:24:48Z</time>
      </trkpt>
      <trkpt lat="46.08284" lon="6.4177">
        <ele>512</ele>
        <time>2011-04-30T17:24:49Z</time>
      </trkpt>
      <trkpt lat="46.08279" lon="6.41786">
        <ele>512</ele>
        <time>2011-04-30T17:24:50Z</time>
      </trkpt>
      <trkpt lat="46.08274" lon="6.418">
        <ele>519</ele>
        <time>2011-04-30T17:24:51Z</time>
      </trkpt>
      <trkpt lat="46.0827" lon="6.41813">
        <ele>519</ele>
        <time>2011-04-30T17:24:52Z</time>
      </trkpt>
      <trkpt lat="46.08265" lon="6.41826">
        <ele>519</ele>
        <time>2011-04-30T17:24:53Z</time>
      </trkpt>
      <trkpt lat="46.08259" lon="6.41837">
        <ele>519</ele>
        <time>2011-04-30T17:24:54Z</time>
      </trkpt>
      <trkpt lat="46.08254" lon="6.41851">
        <ele>525</ele>
        <time>2011-04-30T17:24:55Z</time>
      </trkpt>
      <trkpt lat="46.08249" lon="6.41864">
        <ele>525</ele>
        <time>2011-04-30T17:24:56Z</time>
      </trkpt>
      <trkpt lat="46.08246" lon="6.41878">
        <ele>525</ele>
        <time>2011-04-30T17:24:57Z</time>
      </trkpt>
      <trkpt lat="46.08237" lon="6.41898">
        <ele>525</ele>
        <time>2011-04-30T17:24:59Z</time>
      </trkpt>
      <trkpt lat="46.08232" lon="6.41915">
        <ele>531</ele>
        <time>2011-04-30T17:25:01Z</time>
      </trkpt>
      <trkpt lat="46.08234" lon="6.41928">
        <ele>531</ele>
        <time>2011-04-30T17:25:03Z</time>
      </trkpt>
      <trkpt lat="46.08241" lon="6.4194">
        <ele>531</ele>
        <time>2011-04-30T17:25:06Z</time>
      </trkpt>
      <trkpt lat="46.08247" lon="6.41954">
        <ele>537</ele>
        <time>2011-04-30T17:25:10Z</time>
      </trkpt>
      <trkpt lat="46.08247" lon="6.41972">
        <ele>537</ele>
        <time>2011-04-30T17:25:14Z</time>
      </trkpt>
      <trkpt lat="46.08249" lon="6.4199">
        <ele>543</ele>
        <time>2011-04-30T17:25:17Z</time>
      </trkpt>
      <trkpt lat="46.08245" lon="6.42004">
        <ele>543</ele>
        <time>2011-04-30T17:25:19Z</time>
      </trkpt>
      <trkpt lat="46.08242" lon="6.42016">
        <ele>543</ele>
        <time>2011-04-30T17:25:21Z</time>
      </trkpt>
      <trkpt lat="46.0824" lon="6.42032">
        <ele>543</ele>
        <time>2011-04-30T17:25:24Z</time>
      </trkpt>
      <trkpt lat="46.08237" lon="6.42047">
        <ele>543</ele>
        <time>2011-04-30T17:25:26Z</time>
      </trkpt>
      <trkpt lat="46.08238" lon="6.42062">
        <ele>543</ele>
        <time>2011-04-30T17:25:29Z</time>
      </trkpt>
      <trkpt lat="46.08242" lon="6.42076">
        <ele>543</ele>
        <time>2011-04-30T17:25:33Z</time>
      </trkpt>
      <trkpt lat="46.08241" lon="6.42091">
        <ele>543</ele>
        <time>2011-04-30T17:25:37Z</time>
      </trkpt>
      <trkpt lat="46.08239" lon="6.42107">
        <ele>543</ele>
        <time>2011-04-30T17:25:43Z</time>
      </trkpt>
      <trkpt lat="46.08246" lon="6.4212">
        <ele>543</ele>
        <time>2011-04-30T17:25:46Z</time>
      </trkpt>
      <trkpt lat="46.08252" lon="6.42132">
        <ele>543</ele>
        <time>2011-04-30T17:25:48Z</time>
      </trkpt>
      <trkpt lat="46.08258" lon="6.42144">
        <ele>543</ele>
        <time>2011-04-30T17:25:50Z</time>
      </trkpt>
      <trkpt lat="46.08262" lon="6.42156">
        <ele>543</ele>
        <time>2011-04-30T17:25:52Z</time>
      </trkpt>
      <trkpt lat="46.08268" lon="6.4217">
        <ele>543</ele>
        <time>2011-04-30T17:25:55Z</time>
      </trkpt>
      <trkpt lat="46.08272" lon="6.42181">
        <ele>543</ele>
        <time>2011-04-30T17:25:57Z</time>
      </trkpt>
      <trkpt lat="46.08276" lon="6.42194">
        <ele>543</ele>
        <time>2011-04-30T17:25:59Z</time>
      </trkpt>
      <trkpt lat="46.08287" lon="6.42209">
        <ele>537</ele>
        <time>2011-04-30T17:26:01Z</time>
      </trkpt>
      <trkpt lat="46.08297" lon="6.42224">
        <ele>537</ele>
        <time>2011-04-30T17:26:03Z</time>
      </trkpt>
      <trkpt lat="46.08304" lon="6.42241">
        <ele>537</ele>
        <time>2011-04-30T17:26:05Z</time>
      </trkpt>
      <trkpt lat="46.08311" lon="6.4226">
        <ele>537</ele>
        <time>2011-04-30T17:26:07Z</time>
      </trkpt>
      <trkpt lat="46.08316" lon="6.42272">
        <ele>537</ele>
        <time>2011-04-30T17:26:09Z</time>
      </trkpt>
      <trkpt lat="46.08324" lon="6.42282">
        <ele>537</ele>
        <time>2011-04-30T17:26:12Z</time>
      </trkpt>
      <trkpt lat="46.08334" lon="6.42294">
        <ele>537</ele>
        <time>2011-04-30T17:26:14Z</time>
      </trkpt>
      <trkpt lat="46.08341" lon="6.4231">
        <ele>537</ele>
        <time>2011-04-30T17:26:16Z</time>
      </trkpt>
      <trkpt lat="46.08347" lon="6.42331">
        <ele>537</ele>
        <time>2011-04-30T17:26:18Z</time>
      </trkpt>
      <trkpt lat="46.08349" lon="6.42346">
        <ele>537</ele>
        <time>2011-04-30T17:26:19Z</time>
      </trkpt>
      <trkpt lat="46.08351" lon="6.4236">
        <ele>543</ele>
        <time>2011-04-30T17:26:20Z</time>
      </trkpt>
      <trkpt lat="46.08352" lon="6.42374">
        <ele>543</ele>
        <time>2011-04-30T17:26:21Z</time>
      </trkpt>
      <trkpt lat="46.08354" lon="6.42387">
        <ele>543</ele>
        <time>2011-04-30T17:26:22Z</time>
      </trkpt>
      <trkpt lat="46.08356" lon="6.42401">
        <ele>543</ele>
        <time>2011-04-30T17:26:23Z</time>
      </trkpt>
      <trkpt lat="46.08357" lon="6.42416">
        <ele>543</ele>
        <time>2011-04-30T17:26:24Z</time>
      </trkpt>
      <trkpt lat="46.08358" lon="6.42439">
        <ele>543</ele>
        <time>2011-04-30T17:26:26Z</time>
      </trkpt>
      <trkpt lat="46.08361" lon="6.42462">
        <ele>543</ele>
        <time>2011-04-30T17:26:28Z</time>
      </trkpt>
      <trkpt lat="46.08366" lon="6.42485">
        <ele>543</ele>
        <time>2011-04-30T17:26:30Z</time>
      </trkpt>
      <trkpt lat="46.08367" lon="6.42507">
        <ele>543</ele>
        <time>2011-04-30T17:26:32Z</time>
      </trkpt>
      <trkpt lat="46.08369" lon="6.4253">
        <ele>543</ele>
        <time>2011-04-30T17:26:34Z</time>
      </trkpt>
      <trkpt lat="46.08371" lon="6.42551">
        <ele>543</ele>
        <time>2011-04-30T17:26:36Z</time>
      </trkpt>
      <trkpt lat="46.08374" lon="6.42572">
        <ele>543</ele>
        <time>2011-04-30T17:26:38Z</time>
      </trkpt>
      <trkpt lat="46.08378" lon="6.42593">
        <ele>543</ele>
        <time>2011-04-30T17:26:40Z</time>
      </trkpt>
      <trkpt lat="46.08386" lon="6.42614">
        <ele>543</ele>
        <time>2011-04-30T17:26:42Z</time>
      </trkpt>
      <trkpt lat="46.08391" lon="6.42626">
        <ele>543</ele>
        <time>2011-04-30T17:26:43Z</time>
      </trkpt>
      <trkpt lat="46.08396" lon="6.42639">
        <ele>543</ele>
        <time>2011-04-30T17:26:44Z</time>
      </trkpt>
      <trkpt lat="46.08401" lon="6.42652">
        <ele>543</ele>
        <time>2011-04-30T17:26:45Z</time>
      </trkpt>
      <trkpt lat="46.08406" lon="6.42667">
        <ele>538</ele>
        <time>2011-04-30T17:26:46Z</time>
      </trkpt>
      <trkpt lat="46.08409" lon="6.42682">
        <ele>538</ele>
        <time>2011-04-30T17:26:47Z</time>
      </trkpt>
      <trkpt lat="46.08412" lon="6.42695">
        <ele>538</ele>
        <time>2011-04-30T17:26:48Z</time>
      </trkpt>
      <trkpt lat="46.08416" lon="6.42709">
        <ele>538</ele>
        <time>2011-04-30T17:26:49Z</time>
      </trkpt>
      <trkpt lat="46.08419" lon="6.42722">
        <ele>538</ele>
        <time>2011-04-30T17:26:50Z</time>
      </trkpt>
      <trkpt lat="46.0842" lon="6.42736">
        <ele>538</ele>
        <time>2011-04-30T17:26:51Z</time>
      </trkpt>
      <trkpt lat="46.08423" lon="6.42759">
        <ele>538</ele>
        <time>2011-04-30T17:26:53Z</time>
      </trkpt>
      <trkpt lat="46.08422" lon="6.42779">
        <ele>538</ele>
        <time>2011-04-30T17:26:55Z</time>
      </trkpt>
      <trkpt lat="46.08418" lon="6.42796">
        <ele>531</ele>
        <time>2011-04-30T17:26:57Z</time>
      </trkpt>
      <trkpt lat="46.08414" lon="6.42816">
        <ele>531</ele>
        <time>2011-04-30T17:26:59Z</time>
      </trkpt>
      <trkpt lat="46.08416" lon="6.4283">
        <ele>531</ele>
        <time>2011-04-30T17:27:01Z</time>
      </trkpt>
      <trkpt lat="46.08413" lon="6.42843">
        <ele>526</ele>
        <time>2011-04-30T17:27:05Z</time>
      </trkpt>
      <trkpt lat="46.08406" lon="6.42834">
        <ele>526</ele>
        <time>2011-04-30T17:27:07Z</time>
      </trkpt>
      <trkpt lat="46.08401" lon="6.42815">
        <ele>526</ele>
        <time>2011-04-30T17:27:09Z</time>
      </trkpt>
      <trkpt lat="46.08393" lon="6.42796">
        <ele>526</ele>
        <time>2011-04-30T17:27:11Z</time>
      </trkpt>
      <trkpt lat="46.08382" lon="6.42787">
        <ele>526</ele>
        <time>2011-04-30T17:27:13Z</time>
      </trkpt>
      <trkpt lat="46.08372" lon="6.42797">
        <ele>521</ele>
        <time>2011-04-30T17:27:15Z</time>
      </trkpt>
      <trkpt lat="46.08374" lon="6.42822">
        <ele>521</ele>
        <time>2011-04-30T17:27:17Z</time>
      </trkpt>
      <trkpt lat="46.08379" lon="6.42838">
        <ele>521</ele>
        <time>2011-04-30T17:27:18Z</time>
      </trkpt>
      <trkpt lat="46.08386" lon="6.42858">
        <ele>521</ele>
        <time>2011-04-30T17:27:19Z</time>
      </trkpt>
      <trkpt lat="46.08391" lon="6.42879">
        <ele>521</ele>
        <time>2011-04-30T17:27:20Z</time>
      </trkpt>
      <trkpt lat="46.08398" lon="6.42901">
        <ele>515</ele>
        <time>2011-04-30T17:27:21Z</time>
      </trkpt>
      <trkpt lat="46.08404" lon="6.42921">
        <ele>515</ele>
        <time>2011-04-30T17:27:22Z</time>
      </trkpt>
      <trkpt lat="46.08411" lon="6.42939">
        <ele>515</ele>
        <time>2011-04-30T17:27:23Z</time>
      </trkpt>
      <trkpt lat="46.08419" lon="6.42955">
        <ele>515</ele>
        <time>2011-04-30T17:27:24Z</time>
      </trkpt>
      <trkpt lat="46.08429" lon="6.42968">
        <ele>510</ele>
        <time>2011-04-30T17:27:25Z</time>
      </trkpt>
      <trkpt lat="46.08437" lon="6.42979">
        <ele>510</ele>
        <time>2011-04-30T17:27:26Z</time>
      </trkpt>
      <trkpt lat="46.08447" lon="6.42991">
        <ele>510</ele>
        <time>2011-04-30T17:27:27Z</time>
      </trkpt>
      <trkpt lat="46.08452" lon="6.43008">
        <ele>510</ele>
        <time>2011-04-30T17:27:28Z</time>
      </trkpt>
      <trkpt lat="46.08457" lon="6.43028">
        <ele>504</ele>
        <time>2011-04-30T17:27:29Z</time>
      </trkpt>
      <trkpt lat="46.08459" lon="6.43049">
        <ele>504</ele>
        <time>2011-04-30T17:27:30Z</time>
      </trkpt>
      <trkpt lat="46.08462" lon="6.43071">
        <ele>504</ele>
        <time>2011-04-30T17:27:31Z</time>
      </trkpt>
      <trkpt lat="46.08464" lon="6.43091">
        <ele>504</ele>
        <time>2011-04-30T17:27:32Z</time>
      </trkpt>
      <trkpt lat="46.08467" lon="6.43111">
        <ele>504</ele>
        <time>2011-04-30T17:27:33Z</time>
      </trkpt>
      <trkpt lat="46.08469" lon="6.4313">
        <ele>504</ele>
        <time>2011-04-30T17:27:34Z</time>
      </trkpt>
      <trkpt lat="46.08472" lon="6.43149">
        <ele>504</ele>
        <time>2011-04-30T17:27:35Z</time>
      </trkpt>
      <trkpt lat="46.08474" lon="6.43167">
        <ele>499</ele>
        <time>2011-04-30T17:27:36Z</time>
      </trkpt>
      <trkpt lat="46.08477" lon="6.43185">
        <ele>499</ele>
        <time>2011-04-30T17:27:37Z</time>
      </trkpt>
      <trkpt lat="46.08479" lon="6.43201">
        <ele>499</ele>
        <time>2011-04-30T17:27:38Z</time>
      </trkpt>
      <trkpt lat="46.08479" lon="6.43218">
        <ele>499</ele>
        <time>2011-04-30T17:27:39Z</time>
      </trkpt>
      <trkpt lat="46.08479" lon="6.43237">
        <ele>499</ele>
        <time>2011-04-30T17:27:40Z</time>
      </trkpt>
      <trkpt lat="46.08478" lon="6.43257">
        <ele>499</ele>
        <time>2011-04-30T17:27:41Z</time>
      </trkpt>
      <trkpt lat="46.08478" lon="6.43278">
        <ele>493</ele>
        <time>2011-04-30T17:27:42Z</time>
      </trkpt>
      <trkpt lat="46.08478" lon="6.43301">
        <ele>493</ele>
        <time>2011-04-30T17:27:43Z</time>
      </trkpt>
      <trkpt lat="46.08478" lon="6.43323">
        <ele>493</ele>
        <time>2011-04-30T17:27:44Z</time>
      </trkpt>
      <trkpt lat="46.08478" lon="6.43346">
        <ele>493</ele>
        <time>2011-04-30T17:27:45Z</time>
      </trkpt>
      <trkpt lat="46.08477" lon="6.43367">
        <ele>493</ele>
        <time>2011-04-30T17:27:46Z</time>
      </trkpt>
      <trkpt lat="46.08474" lon="6.43388">
        <ele>493</ele>
        <time>2011-04-30T17:27:47Z</time>
      </trkpt>
      <trkpt lat="46.08469" lon="6.43408">
        <ele>488</ele>
        <time>2011-04-30T17:27:48Z</time>
      </trkpt>
      <trkpt lat="46.08464" lon="6.43428">
        <ele>488</ele>
        <time>2011-04-30T17:27:49Z</time>
      </trkpt>
      <trkpt lat="46.08458" lon="6.43447">
        <ele>488</ele>
        <time>2011-04-30T17:27:50Z</time>
      </trkpt>
      <trkpt lat="46.08451" lon="6.43464">
        <ele>488</ele>
        <time>2011-04-30T17:27:51Z</time>
      </trkpt>
      <trkpt lat="46.08444" lon="6.43479">
        <ele>488</ele>
        <time>2011-04-30T17:27:52Z</time>
      </trkpt>
      <trkpt lat="46.08437" lon="6.43494">
        <ele>482</ele>
        <time>2011-04-30T17:27:53Z</time>
      </trkpt>
      <trkpt lat="46.08431" lon="6.43506">
        <ele>482</ele>
        <time>2011-04-30T17:27:54Z</time>
      </trkpt>
      <trkpt lat="46.08423" lon="6.43517">
        <ele>482</ele>
        <time>2011-04-30T17:27:55Z</time>
      </trkpt>
      <trkpt lat="46.08414" lon="6.43527">
        <ele>482</ele>
        <time>2011-04-30T17:27:56Z</time>
      </trkpt>
      <trkpt lat="46.08406" lon="6.43536">
        <ele>482</ele>
        <time>2011-04-30T17:27:57Z</time>
      </trkpt>
      <trkpt lat="46.08397" lon="6.43545">
        <ele>482</ele>
        <time>2011-04-30T17:27:58Z</time>
      </trkpt>
      <trkpt lat="46.08389" lon="6.43552">
        <ele>482</ele>
        <time>2011-04-30T17:27:59Z</time>
      </trkpt>
      <trkpt lat="46.08374" lon="6.4356">
        <ele>475</ele>
        <time>2011-04-30T17:28:01Z</time>
      </trkpt>
      <trkpt lat="46.08362" lon="6.43558">
        <ele>475</ele>
        <time>2011-04-30T17:28:03Z</time>
      </trkpt>
      <trkpt lat="46.08356" lon="6.43548">
        <ele>475</ele>
        <time>2011-04-30T17:28:09Z</time>
      </trkpt>
      <trkpt lat="46.08359" lon="6.43532">
        <ele>469</ele>
        <time>2011-04-30T17:28:20Z</time>
      </trkpt>
      <trkpt lat="46.08367" lon="6.43507">
        <ele>469</ele>
        <time>2011-04-30T17:28:22Z</time>
      </trkpt>
      <trkpt lat="46.08373" lon="6.43491">
        <ele>469</ele>
        <time>2011-04-30T17:28:23Z</time>
      </trkpt>
      <trkpt lat="46.08377" lon="6.43473">
        <ele>469</ele>
        <time>2011-04-30T17:28:24Z</time>
      </trkpt>
      <trkpt lat="46.08381" lon="6.43455">
        <ele>469</ele>
        <time>2011-04-30T17:28:25Z</time>
      </trkpt>
      <trkpt lat="46.08384" lon="6.43439">
        <ele>469</ele>
        <time>2011-04-30T17:28:26Z</time>
      </trkpt>
      <trkpt lat="46.08387" lon="6.43424">
        <ele>469</ele>
        <time>2011-04-30T17:28:27Z</time>
      </trkpt>
      <trkpt lat="46.08389" lon="6.43408">
        <ele>469</ele>
        <time>2011-04-30T17:28:28Z</time>
      </trkpt>
      <trkpt lat="46.08391" lon="6.43392">
        <ele>469</ele>
        <time>2011-04-30T17:28:29Z</time>
      </trkpt>
      <trkpt lat="46.08391" lon="6.43375">
        <ele>469</ele>
        <time>2011-04-30T17:28:30Z</time>
      </trkpt>
      <trkpt lat="46.08391" lon="6.43356">
        <ele>469</ele>
        <time>2011-04-30T17:28:31Z</time>
      </trkpt>
      <trkpt lat="46.0839" lon="6.43337">
        <ele>469</ele>
        <time>2011-04-30T17:28:32Z</time>
      </trkpt>
      <trkpt lat="46.08389" lon="6.43317">
        <ele>469</ele>
        <time>2011-04-30T17:28:33Z</time>
      </trkpt>
      <trkpt lat="46.08387" lon="6.43299">
        <ele>469</ele>
        <time>2011-04-30T17:28:34Z</time>
      </trkpt>
      <trkpt lat="46.08386" lon="6.43283">
        <ele>469</ele>
        <time>2011-04-30T17:28:35Z</time>
      </trkpt>
      <trkpt lat="46.08382" lon="6.43268">
        <ele>469</ele>
        <time>2011-04-30T17:28:36Z</time>
      </trkpt>
      <trkpt lat="46.08376" lon="6.43255">
        <ele>469</ele>
        <time>2011-04-30T17:28:37Z</time>
      </trkpt>
      <trkpt lat="46.08369" lon="6.4324">
        <ele>469</ele>
        <time>2011-04-30T17:28:38Z</time>
      </trkpt>
      <trkpt lat="46.08361" lon="6.43224">
        <ele>469</ele>
        <time>2011-04-30T17:28:39Z</time>
      </trkpt>
      <trkpt lat="46.08353" lon="6.43208">
        <ele>469</ele>
        <time>2011-04-30T17:28:40Z</time>
      </trkpt>
      <trkpt lat="46.08346" lon="6.43191">
        <ele>469</ele>
        <time>2011-04-30T17:28:41Z</time>
      </trkpt>
      <trkpt lat="46.08339" lon="6.43173">
        <ele>469</ele>
        <time>2011-04-30T17:28:42Z</time>
      </trkpt>
      <trkpt lat="46.08333" lon="6.43156">
        <ele>469</ele>
        <time>2011-04-30T17:28:43Z</time>
      </trkpt>
      <trkpt lat="46.08327" lon="6.4314">
        <ele>469</ele>
        <time>2011-04-30T17:28:44Z</time>
      </trkpt>
      <trkpt lat="46.08321" lon="6.43123">
        <ele>469</ele>
        <time>2011-04-30T17:28:45Z</time>
      </trkpt>
      <trkpt lat="46.08316" lon="6.43107">
        <ele>469</ele>
        <time>2011-04-30T17:28:46Z</time>
      </trkpt>
      <trkpt lat="46.08311" lon="6.4309">
        <ele>469</ele>
        <time>2011-04-30T17:28:47Z</time>
      </trkpt>
      <trkpt lat="46.08306" lon="6.43074">
        <ele>469</ele>
        <time>2011-04-30T17:28:48Z</time>
      </trkpt>
      <trkpt lat="46.08301" lon="6.4306">
        <ele>469</ele>
        <time>2011-04-30T17:28:49Z</time>
      </trkpt>
      <trkpt lat="46.08296" lon="6.43046">
        <ele>469</ele>
        <time>2011-04-30T17:28:50Z</time>
      </trkpt>
      <trkpt lat="46.08289" lon="6.43037">
        <ele>469</ele>
        <time>2011-04-30T17:28:51Z</time>
      </trkpt>
      <trkpt lat="46.08279" lon="6.43029">
        <ele>469</ele>
        <time>2011-04-30T17:28:52Z</time>
      </trkpt>
      <trkpt lat="46.08267" lon="6.43023">
        <ele>469</ele>
        <time>2011-04-30T17:28:53Z</time>
      </trkpt>
      <trkpt lat="46.08254" lon="6.43019">
        <ele>469</ele>
        <time>2011-04-30T17:28:54Z</time>
      </trkpt>
      <trkpt lat="46.08241" lon="6.43015">
        <ele>469</ele>
        <time>2011-04-30T17:28:55Z</time>
      </trkpt>
      <trkpt lat="46.08228" lon="6.43011">
        <ele>469</ele>
        <time>2011-04-30T17:28:56Z</time>
      </trkpt>
      <trkpt lat="46.08216" lon="6.43006">
        <ele>464</ele>
        <time>2011-04-30T17:28:57Z</time>
      </trkpt>
      <trkpt lat="46.08204" lon="6.43001">
        <ele>464</ele>
        <time>2011-04-30T17:28:58Z</time>
      </trkpt>
      <trkpt lat="46.08192" lon="6.42993">
        <ele>464</ele>
        <time>2011-04-30T17:28:59Z</time>
      </trkpt>
      <trkpt lat="46.08181" lon="6.42983">
        <ele>464</ele>
        <time>2011-04-30T17:29:00Z</time>
      </trkpt>
      <trkpt lat="46.0817" lon="6.4297">
        <ele>464</ele>
        <time>2011-04-30T17:29:01Z</time>
      </trkpt>
      <trkpt lat="46.08161" lon="6.42955">
        <ele>464</ele>
        <time>2011-04-30T17:29:02Z</time>
      </trkpt>
      <trkpt lat="46.08152" lon="6.42938">
        <ele>464</ele>
        <time>2011-04-30T17:29:03Z</time>
      </trkpt>
      <trkpt lat="46.08142" lon="6.42917">
        <ele>464</ele>
        <time>2011-04-30T17:29:04Z</time>
      </trkpt>
      <trkpt lat="46.08134" lon="6.42896">
        <ele>464</ele>
        <time>2011-04-30T17:29:05Z</time>
      </trkpt>
      <trkpt lat="46.08126" lon="6.42875">
        <ele>464</ele>
        <time>2011-04-30T17:29:06Z</time>
      </trkpt>
      <trkpt lat="46.0812" lon="6.42854">
        <ele>464</ele>
        <time>2011-04-30T17:29:07Z</time>
      </trkpt>
      <trkpt lat="46.08114" lon="6.42833">
        <ele>459</ele>
        <time>2011-04-30T17:29:08Z</time>
      </trkpt>
      <trkpt lat="46.08109" lon="6.42813">
        <ele>459</ele>
        <time>2011-04-30T17:29:09Z</time>
      </trkpt>
      <trkpt lat="46.08104" lon="6.42793">
        <ele>459</ele>
        <time>2011-04-30T17:29:10Z</time>
      </trkpt>
      <trkpt lat="46.08099" lon="6.42774">
        <ele>459</ele>
        <time>2011-04-30T17:29:11Z</time>
      </trkpt>
      <trkpt lat="46.08094" lon="6.42757">
        <ele>459</ele>
        <time>2011-04-30T17:29:12Z</time>
      </trkpt>
      <trkpt lat="46.0809" lon="6.42739">
        <ele>459</ele>
        <time>2011-04-30T17:29:13Z</time>
      </trkpt>
      <trkpt lat="46.08085" lon="6.4272">
        <ele>459</ele>
        <time>2011-04-30T17:29:14Z</time>
      </trkpt>
      <trkpt lat="46.0808" lon="6.42701">
        <ele>459</ele>
        <time>2011-04-30T17:29:15Z</time>
      </trkpt>
      <trkpt lat="46.08076" lon="6.4268">
        <ele>459</ele>
        <time>2011-04-30T17:29:16Z</time>
      </trkpt>
      <trkpt lat="46.08072" lon="6.42659">
        <ele>459</ele>
        <time>2011-04-30T17:29:17Z</time>
      </trkpt>
      <trkpt lat="46.08069" lon="6.42638">
        <ele>459</ele>
        <time>2011-04-30T17:29:18Z</time>
      </trkpt>
      <trkpt lat="46.08066" lon="6.42616">
        <ele>459</ele>
        <time>2011-04-30T17:29:19Z</time>
      </trkpt>
      <trkpt lat="46.08064" lon="6.42595">
        <ele>459</ele>
        <time>2011-04-30T17:29:20Z</time>
      </trkpt>
      <trkpt lat="46.08062" lon="6.42572">
        <ele>459</ele>
        <time>2011-04-30T17:29:21Z</time>
      </trkpt>
      <trkpt lat="46.0806" lon="6.42551">
        <ele>459</ele>
        <time>2011-04-30T17:29:22Z</time>
      </trkpt>
      <trkpt lat="46.08057" lon="6.42528">
        <ele>459</ele>
        <time>2011-04-30T17:29:23Z</time>
      </trkpt>
      <trkpt lat="46.08055" lon="6.42506">
        <ele>459</ele>
        <time>2011-04-30T17:29:24Z</time>
      </trkpt>
      <trkpt lat="46.08053" lon="6.42481">
        <ele>459</ele>
        <time>2011-04-30T17:29:25Z</time>
      </trkpt>
      <trkpt lat="46.0805" lon="6.42457">
        <ele>459</ele>
        <time>2011-04-30T17:29:26Z</time>
      </trkpt>
      <trkpt lat="46.08049" lon="6.42434">
        <ele>459</ele>
        <time>2011-04-30T17:29:27Z</time>
      </trkpt>
      <trkpt lat="46.08046" lon="6.4241">
        <ele>459</ele>
        <time>2011-04-30T17:29:28Z</time>
      </trkpt>
      <trkpt lat="46.08044" lon="6.42385">
        <ele>459</ele>
        <time>2011-04-30T17:29:29Z</time>
      </trkpt>
      <trkpt lat="46.08041" lon="6.4236">
        <ele>459</ele>
        <time>2011-04-30T17:29:30Z</time>
      </trkpt>
      <trkpt lat="46.08037" lon="6.42337">
        <ele>459</ele>
        <time>2011-04-30T17:29:31Z</time>
      </trkpt>
      <trkpt lat="46.08032" lon="6.42313">
        <ele>459</ele>
        <time>2011-04-30T17:29:32Z</time>
      </trkpt>
      <trkpt lat="46.08026" lon="6.42291">
        <ele>459</ele>
        <time>2011-04-30T17:29:33Z</time>
      </trkpt>
      <trkpt lat="46.08019" lon="6.42269">
        <ele>459</ele>
        <time>2011-04-30T17:29:34Z</time>
      </trkpt>
      <trkpt lat="46.08012" lon="6.42248">
        <ele>459</ele>
        <time>2011-04-30T17:29:35Z</time>
      </trkpt>
      <trkpt lat="46.08005" lon="6.42227">
        <ele>459</ele>
        <time>2011-04-30T17:29:36Z</time>
      </trkpt>
      <trkpt lat="46.07998" lon="6.42209">
        <ele>459</ele>
        <time>2011-04-30T17:29:37Z</time>
      </trkpt>
      <trkpt lat="46.07992" lon="6.42191">
        <ele>459</ele>
        <time>2011-04-30T17:29:38Z</time>
      </trkpt>
      <trkpt lat="46.07985" lon="6.42173">
        <ele>459</ele>
        <time>2011-04-30T17:29:39Z</time>
      </trkpt>
      <trkpt lat="46.07979" lon="6.42155">
        <ele>459</ele>
        <time>2011-04-30T17:29:40Z</time>
      </trkpt>
      <trkpt lat="46.07973" lon="6.42139">
        <ele>459</ele>
        <time>2011-04-30T17:29:41Z</time>
      </trkpt>
      <trkpt lat="46.07965" lon="6.42125">
        <ele>459</ele>
        <time>2011-04-30T17:29:42Z</time>
      </trkpt>
      <trkpt lat="46.07957" lon="6.42111">
        <ele>459</ele>
        <time>2011-04-30T17:29:43Z</time>
      </trkpt>
      <trkpt lat="46.07947" lon="6.42102">
        <ele>459</ele>
        <time>2011-04-30T17:29:44Z</time>
      </trkpt>
      <trkpt lat="46.07937" lon="6.42096">
        <ele>459</ele>
        <time>2011-04-30T17:29:45Z</time>
      </trkpt>
      <trkpt lat="46.07922" lon="6.42088">
        <ele>459</ele>
        <time>2011-04-30T17:29:47Z</time>
      </trkpt>
      <trkpt lat="46.07912" lon="6.42081">
        <ele>459</ele>
        <time>2011-04-30T17:29:49Z</time>
      </trkpt>
      <trkpt lat="46.079" lon="6.42087">
        <ele>459</ele>
        <time>2011-04-30T17:29:56Z</time>
      </trkpt>
      <trkpt lat="46.07895" lon="6.42105">
        <ele>459</ele>
        <time>2011-04-30T17:29:58Z</time>
      </trkpt>
      <trkpt lat="46.0789" lon="6.42118">
        <ele>459</ele>
        <time>2011-04-30T17:29:59Z</time>
      </trkpt>
      <trkpt lat="46.07885" lon="6.4213">
        <ele>459</ele>
        <time>2011-04-30T17:30:00Z</time>
      </trkpt>
      <trkpt lat="46.07878" lon="6.42143">
        <ele>459</ele>
        <time>2011-04-30T17:30:01Z</time>
      </trkpt>
      <trkpt lat="46.0787" lon="6.42155">
        <ele>459</ele>
        <time>2011-04-30T17:30:02Z</time>
      </trkpt>
      <trkpt lat="46.07862" lon="6.42167">
        <ele>459</ele>
        <time>2011-04-30T17:30:03Z</time>
      </trkpt>
      <trkpt lat="46.07852" lon="6.42181">
        <ele>459</ele>
        <time>2011-04-30T17:30:04Z</time>
      </trkpt>
      <trkpt lat="46.07844" lon="6.42196">
        <ele>459</ele>
        <time>2011-04-30T17:30:05Z</time>
      </trkpt>
      <trkpt lat="46.07835" lon="6.42212">
        <ele>459</ele>
        <time>2011-04-30T17:30:06Z</time>
      </trkpt>
      <trkpt lat="46.07825" lon="6.42228">
        <ele>459</ele>
        <time>2011-04-30T17:30:07Z</time>
      </trkpt>
      <trkpt lat="46.07815" lon="6.42246">
        <ele>459</ele>
        <time>2011-04-30T17:30:08Z</time>
      </trkpt>
      <trkpt lat="46.07806" lon="6.42263">
        <ele>459</ele>
        <time>2011-04-30T17:30:09Z</time>
      </trkpt>
      <trkpt lat="46.07797" lon="6.42279">
        <ele>459</ele>
        <time>2011-04-30T17:30:10Z</time>
      </trkpt>
      <trkpt lat="46.07787" lon="6.42296">
        <ele>459</ele>
        <time>2011-04-30T17:30:11Z</time>
      </trkpt>
      <trkpt lat="46.07778" lon="6.42313">
        <ele>459</ele>
        <time>2011-04-30T17:30:12Z</time>
      </trkpt>
      <trkpt lat="46.07769" lon="6.42329">
        <ele>459</ele>
        <time>2011-04-30T17:30:13Z</time>
      </trkpt>
      <trkpt lat="46.07759" lon="6.42346">
        <ele>459</ele>
        <time>2011-04-30T17:30:14Z</time>
      </trkpt>
      <trkpt lat="46.07749" lon="6.42362">
        <ele>459</ele>
        <time>2011-04-30T17:30:15Z</time>
      </trkpt>
      <trkpt lat="46.0774" lon="6.42378">
        <ele>459</ele>
        <time>2011-04-30T17:30:16Z</time>
      </trkpt>
      <trkpt lat="46.07731" lon="6.42394">
        <ele>459</ele>
        <time>2011-04-30T17:30:17Z</time>
      </trkpt>
      <trkpt lat="46.07722" lon="6.4241">
        <ele>459</ele>
        <time>2011-04-30T17:30:18Z</time>
      </trkpt>
      <trkpt lat="46.07713" lon="6.42428">
        <ele>459</ele>
        <time>2011-04-30T17:30:19Z</time>
      </trkpt>
      <trkpt lat="46.07705" lon="6.42446">
        <ele>459</ele>
        <time>2011-04-30T17:30:20Z</time>
      </trkpt>
      <trkpt lat="46.07698" lon="6.42465">
        <ele>459</ele>
        <time>2011-04-30T17:30:21Z</time>
      </trkpt>
      <trkpt lat="46.07692" lon="6.42485">
        <ele>459</ele>
        <time>2011-04-30T17:30:22Z</time>
      </trkpt>
      <trkpt lat="46.07687" lon="6.42505">
        <ele>459</ele>
        <time>2011-04-30T17:30:23Z</time>
      </trkpt>
      <trkpt lat="46.07683" lon="6.42525">
        <ele>459</ele>
        <time>2011-04-30T17:30:24Z</time>
      </trkpt>
      <trkpt lat="46.07681" lon="6.42547">
        <ele>459</ele>
        <time>2011-04-30T17:30:25Z</time>
      </trkpt>
      <trkpt lat="46.07678" lon="6.42568">
        <ele>459</ele>
        <time>2011-04-30T17:30:26Z</time>
      </trkpt>
      <trkpt lat="46.07675" lon="6.42587">
        <ele>459</ele>
        <time>2011-04-30T17:30:27Z</time>
      </trkpt>
      <trkpt lat="46.07673" lon="6.42608">
        <ele>459</ele>
        <time>2011-04-30T17:30:28Z</time>
      </trkpt>
      <trkpt lat="46.07671" lon="6.42629">
        <ele>459</ele>
        <time>2011-04-30T17:30:29Z</time>
      </trkpt>
      <trkpt lat="46.07669" lon="6.42649">
        <ele>459</ele>
        <time>2011-04-30T17:30:30Z</time>
      </trkpt>
      <trkpt lat="46.07668" lon="6.42669">
        <ele>459</ele>
        <time>2011-04-30T17:30:31Z</time>
      </trkpt>
      <trkpt lat="46.07667" lon="6.42689">
        <ele>459</ele>
        <time>2011-04-30T17:30:32Z</time>
      </trkpt>
      <trkpt lat="46.07668" lon="6.42708">
        <ele>459</ele>
        <time>2011-04-30T17:30:33Z</time>
      </trkpt>
      <trkpt lat="46.0767" lon="6.42726">
        <ele>459</ele>
        <time>2011-04-30T17:30:34Z</time>
      </trkpt>
      <trkpt lat="46.07671" lon="6.42741">
        <ele>459</ele>
        <time>2011-04-30T17:30:35Z</time>
      </trkpt>
      <trkpt lat="46.07672" lon="6.42755">
        <ele>459</ele>
        <time>2011-04-30T17:30:36Z</time>
      </trkpt>
      <trkpt lat="46.07667" lon="6.42777">
        <ele>459</ele>
        <time>2011-04-30T17:30:38Z</time>
      </trkpt>
      <trkpt lat="46.07653" lon="6.42789">
        <ele>459</ele>
        <time>2011-04-30T17:30:40Z</time>
      </trkpt>
      <trkpt lat="46.07643" lon="6.42789">
        <ele>459</ele>
        <time>2011-04-30T17:30:41Z</time>
      </trkpt>
      <trkpt lat="46.07626" lon="6.42783">
        <ele>459</ele>
        <time>2011-04-30T17:30:42Z</time>
      </trkpt>
      <trkpt lat="46.07608" lon="6.42779">
        <ele>459</ele>
        <time>2011-04-30T17:30:43Z</time>
      </trkpt>
      <trkpt lat="46.0759" lon="6.42775">
        <ele>459</ele>
        <time>2011-04-30T17:30:44Z</time>
      </trkpt>
      <trkpt lat="46.07572" lon="6.42772">
        <ele>459</ele>
        <time>2011-04-30T17:30:45Z</time>
      </trkpt>
      <trkpt lat="46.07552" lon="6.42768">
        <ele>459</ele>
        <time>2011-04-30T17:30:46Z</time>
      </trkpt>
      <trkpt lat="46.07532" lon="6.42765">
        <ele>459</ele>
        <time>2011-04-30T17:30:47Z</time>
      </trkpt>
      <trkpt lat="46.07511" lon="6.42761">
        <ele>459</ele>
        <time>2011-04-30T17:30:48Z</time>
      </trkpt>
      <trkpt lat="46.07492" lon="6.42757">
        <ele>459</ele>
        <time>2011-04-30T17:30:49Z</time>
      </trkpt>
      <trkpt lat="46.07473" lon="6.42752">
        <ele>459</ele>
        <time>2011-04-30T17:30:50Z</time>
      </trkpt>
      <trkpt lat="46.07458" lon="6.42747">
        <ele>459</ele>
        <time>2011-04-30T17:30:51Z</time>
      </trkpt>
      <trkpt lat="46.07445" lon="6.42742">
        <ele>459</ele>
        <time>2011-04-30T17:30:52Z</time>
      </trkpt>
      <trkpt lat="46.07433" lon="6.42736">
        <ele>459</ele>
        <time>2011-04-30T17:30:53Z</time>
      </trkpt>
      <trkpt lat="46.07421" lon="6.42729">
        <ele>459</ele>
        <time>2011-04-30T17:30:54Z</time>
      </trkpt>
      <trkpt lat="46.07409" lon="6.42722">
        <ele>459</ele>
        <time>2011-04-30T17:30:55Z</time>
      </trkpt>
      <trkpt lat="46.07397" lon="6.42715">
        <ele>459</ele>
        <time>2011-04-30T17:30:56Z</time>
      </trkpt>
      <trkpt lat="46.07385" lon="6.42708">
        <ele>459</ele>
        <time>2011-04-30T17:30:57Z</time>
      </trkpt>
      <trkpt lat="46.07374" lon="6.42702">
        <ele>459</ele>
        <time>2011-04-30T17:30:58Z</time>
      </trkpt>
      <trkpt lat="46.07365" lon="6.42694">
        <ele>459</ele>
        <time>2011-04-30T17:30:59Z</time>
      </trkpt>
      <trkpt lat="46.07357" lon="6.42687">
        <ele>459</ele>
        <time>2011-04-30T17:31:00Z</time>
      </trkpt>
      <trkpt lat="46.07351" lon="6.42676">
        <ele>459</ele>
        <time>2011-04-30T17:31:01Z</time>
      </trkpt>
      <trkpt lat="46.07347" lon="6.42665">
        <ele>459</ele>
        <time>2011-04-30T17:31:02Z</time>
      </trkpt>
      <trkpt lat="46.07343" lon="6.42651">
        <ele>459</ele>
        <time>2011-04-30T17:31:03Z</time>
      </trkpt>
      <trkpt lat="46.07343" lon="6.42636">
        <ele>453</ele>
        <time>2011-04-30T17:31:04Z</time>
      </trkpt>
      <trkpt lat="46.07345" lon="6.42622">
        <ele>453</ele>
        <time>2011-04-30T17:31:05Z</time>
      </trkpt>
      <trkpt lat="46.07349" lon="6.42606">
        <ele>453</ele>
        <time>2011-04-30T17:31:06Z</time>
      </trkpt>
      <trkpt lat="46.07353" lon="6.42591">
        <ele>453</ele>
        <time>2011-04-30T17:31:07Z</time>
      </trkpt>
      <trkpt lat="46.07357" lon="6.42578">
        <ele>453</ele>
        <time>2011-04-30T17:31:08Z</time>
      </trkpt>
      <trkpt lat="46.07362" lon="6.42566">
        <ele>453</ele>
        <time>2011-04-30T17:31:09Z</time>
      </trkpt>
      <trkpt lat="46.07365" lon="6.42553">
        <ele>453</ele>
        <time>2011-04-30T17:31:10Z</time>
      </trkpt>
      <trkpt lat="46.07368" lon="6.42529">
        <ele>453</ele>
        <time>2011-04-30T17:31:12Z</time>
      </trkpt>
      <trkpt lat="46.07363" lon="6.42507">
        <ele>453</ele>
        <time>2011-04-30T17:31:14Z</time>
      </trkpt>
      <trkpt lat="46.0735" lon="6.42491">
        <ele>453</ele>
        <time>2011-04-30T17:31:16Z</time>
      </trkpt>
      <trkpt lat="46.0734" lon="6.42485">
        <ele>453</ele>
        <time>2011-04-30T17:31:17Z</time>
      </trkpt>
      <trkpt lat="46.07332" lon="6.4248">
        <ele>453</ele>
        <time>2011-04-30T17:31:18Z</time>
      </trkpt>
      <trkpt lat="46.07323" lon="6.42474">
        <ele>453</ele>
        <time>2011-04-30T17:31:19Z</time>
      </trkpt>
      <trkpt lat="46.07314" lon="6.42469">
        <ele>453</ele>
        <time>2011-04-30T17:31:20Z</time>
      </trkpt>
      <trkpt lat="46.07297" lon="6.42459">
        <ele>453</ele>
        <time>2011-04-30T17:31:22Z</time>
      </trkpt>
      <trkpt lat="46.07283" lon="6.42448">
        <ele>453</ele>
        <time>2011-04-30T17:31:24Z</time>
      </trkpt>
      <trkpt lat="46.07272" lon="6.42429">
        <ele>453</ele>
        <time>2011-04-30T17:31:26Z</time>
      </trkpt>
      <trkpt lat="46.07269" lon="6.42404">
        <ele>453</ele>
        <time>2011-04-30T17:31:28Z</time>
      </trkpt>
      <trkpt lat="46.0727" lon="6.42391">
        <ele>453</ele>
        <time>2011-04-30T17:31:29Z</time>
      </trkpt>
      <trkpt lat="46.07271" lon="6.42375">
        <ele>453</ele>
        <time>2011-04-30T17:31:30Z</time>
      </trkpt>
      <trkpt lat="46.07273" lon="6.4236">
        <ele>453</ele>
        <time>2011-04-30T17:31:31Z</time>
      </trkpt>
      <trkpt lat="46.07275" lon="6.42345">
        <ele>453</ele>
        <time>2011-04-30T17:31:32Z</time>
      </trkpt>
      <trkpt lat="46.07277" lon="6.42331">
        <ele>453</ele>
        <time>2011-04-30T17:31:33Z</time>
      </trkpt>
      <trkpt lat="46.07278" lon="6.42318">
        <ele>453</ele>
        <time>2011-04-30T17:31:34Z</time>
      </trkpt>
      <trkpt lat="46.0728" lon="6.42304">
        <ele>453</ele>
        <time>2011-04-30T17:31:35Z</time>
      </trkpt>
      <trkpt lat="46.07285" lon="6.42279">
        <ele>453</ele>
        <time>2011-04-30T17:31:37Z</time>
      </trkpt>
      <trkpt lat="46.07295" lon="6.4226">
        <ele>453</ele>
        <time>2011-04-30T17:31:39Z</time>
      </trkpt>
      <trkpt lat="46.07312" lon="6.42249">
        <ele>453</ele>
        <time>2011-04-30T17:31:41Z</time>
      </trkpt>
      <trkpt lat="46.07329" lon="6.42244">
        <ele>453</ele>
        <time>2011-04-30T17:31:43Z</time>
      </trkpt>
      <trkpt lat="46.07342" lon="6.42233">
        <ele>453</ele>
        <time>2011-04-30T17:31:45Z</time>
      </trkpt>
      <trkpt lat="46.0735" lon="6.42215">
        <ele>453</ele>
        <time>2011-04-30T17:31:47Z</time>
      </trkpt>
      <trkpt lat="46.07353" lon="6.42191">
        <ele>453</ele>
        <time>2011-04-30T17:31:49Z</time>
      </trkpt>
      <trkpt lat="46.07357" lon="6.42169">
        <ele>453</ele>
        <time>2011-04-30T17:31:51Z</time>
      </trkpt>
      <trkpt lat="46.07359" lon="6.42145">
        <ele>453</ele>
        <time>2011-04-30T17:31:53Z</time>
      </trkpt>
      <trkpt lat="46.07361" lon="6.42127">
        <ele>453</ele>
        <time>2011-04-30T17:31:55Z</time>
      </trkpt>
      <trkpt lat="46.07362" lon="6.42113">
        <ele>453</ele>
        <time>2011-04-30T17:31:57Z</time>
      </trkpt>
      <trkpt lat="46.0737" lon="6.42095">
        <ele>453</ele>
        <time>2011-04-30T17:31:59Z</time>
      </trkpt>
      <trkpt lat="46.07382" lon="6.42078">
        <ele>453</ele>
        <time>2011-04-30T17:32:01Z</time>
      </trkpt>
      <trkpt lat="46.07387" lon="6.42057">
        <ele>453</ele>
        <time>2011-04-30T17:32:03Z</time>
      </trkpt>
      <trkpt lat="46.07379" lon="6.42039">
        <ele>453</ele>
        <time>2011-04-30T17:32:05Z</time>
      </trkpt>
      <trkpt lat="46.07365" lon="6.42035">
        <ele>453</ele>
        <time>2011-04-30T17:32:07Z</time>
      </trkpt>
      <trkpt lat="46.07353" lon="6.42043">
        <ele>453</ele>
        <time>2011-04-30T17:32:09Z</time>
      </trkpt>
      <trkpt lat="46.07339" lon="6.42054">
        <ele>453</ele>
        <time>2011-04-30T17:32:11Z</time>
      </trkpt>
      <trkpt lat="46.07322" lon="6.42056">
        <ele>453</ele>
        <time>2011-04-30T17:32:13Z</time>
      </trkpt>
      <trkpt lat="46.07305" lon="6.42053">
        <ele>453</ele>
        <time>2011-04-30T17:32:15Z</time>
      </trkpt>
      <trkpt lat="46.07295" lon="6.42051">
        <ele>453</ele>
        <time>2011-04-30T17:32:16Z</time>
      </trkpt>
      <trkpt lat="46.07285" lon="6.42048">
        <ele>453</ele>
        <time>2011-04-30T17:32:17Z</time>
      </trkpt>
      <trkpt lat="46.07273" lon="6.42047">
        <ele>453</ele>
        <time>2011-04-30T17:32:18Z</time>
      </trkpt>
      <trkpt lat="46.07261" lon="6.42045">
        <ele>453</ele>
        <time>2011-04-30T17:32:19Z</time>
      </trkpt>
      <trkpt lat="46.07248" lon="6.42043">
        <ele>453</ele>
        <time>2011-04-30T17:32:20Z</time>
      </trkpt>
      <trkpt lat="46.07233" lon="6.4204">
        <ele>453</ele>
        <time>2011-04-30T17:32:21Z</time>
      </trkpt>
      <trkpt lat="46.07217" lon="6.42038">
        <ele>453</ele>
        <time>2011-04-30T17:32:22Z</time>
      </trkpt>
      <trkpt lat="46.072" lon="6.42036">
        <ele>453</ele>
        <time>2011-04-30T17:32:23Z</time>
      </trkpt>
      <trkpt lat="46.07182" lon="6.42033">
        <ele>453</ele>
        <time>2011-04-30T17:32:24Z</time>
      </trkpt>
      <trkpt lat="46.07165" lon="6.4203">
        <ele>453</ele>
        <time>2011-04-30T17:32:25Z</time>
      </trkpt>
      <trkpt lat="46.07147" lon="6.42028">
        <ele>453</ele>
        <time>2011-04-30T17:32:26Z</time>
      </trkpt>
      <trkpt lat="46.07131" lon="6.42026">
        <ele>453</ele>
        <time>2011-04-30T17:32:27Z</time>
      </trkpt>
      <trkpt lat="46.07115" lon="6.42023">
        <ele>453</ele>
        <time>2011-04-30T17:32:28Z</time>
      </trkpt>
      <trkpt lat="46.071" lon="6.42021">
        <ele>453</ele>
        <time>2011-04-30T17:32:29Z</time>
      </trkpt>
      <trkpt lat="46.07085" lon="6.42018">
        <ele>453</ele>
        <time>2011-04-30T17:32:30Z</time>
      </trkpt>
      <trkpt lat="46.0707" lon="6.42015">
        <ele>453</ele>
        <time>2011-04-30T17:32:31Z</time>
      </trkpt>
      <trkpt lat="46.07055" lon="6.42013">
        <ele>453</ele>
        <time>2011-04-30T17:32:32Z</time>
      </trkpt>
      <trkpt lat="46.0704" lon="6.4201">
        <ele>453</ele>
        <time>2011-04-30T17:32:33Z</time>
      </trkpt>
      <trkpt lat="46.07026" lon="6.42007">
        <ele>453</ele>
        <time>2011-04-30T17:32:34Z</time>
      </trkpt>
      <trkpt lat="46.07013" lon="6.42004">
        <ele>453</ele>
        <time>2011-04-30T17:32:35Z</time>
      </trkpt>
      <trkpt lat="46.07" lon="6.42003">
        <ele>453</ele>
        <time>2011-04-30T17:32:36Z</time>
      </trkpt>
      <trkpt lat="46.06989" lon="6.41999">
        <ele>453</ele>
        <time>2011-04-30T17:32:37Z</time>
      </trkpt>
      <trkpt lat="46.0698" lon="6.41995">
        <ele>453</ele>
        <time>2011-04-30T17:32:38Z</time>
      </trkpt>
      <trkpt lat="46.06971" lon="6.4199">
        <ele>453</ele>
        <time>2011-04-30T17:32:39Z</time>
      </trkpt>
      <trkpt lat="46.06955" lon="6.41987">
        <ele>453</ele>
        <time>2011-04-30T17:32:41Z</time>
      </trkpt>
      <trkpt lat="46.06942" lon="6.42003">
        <ele>453</ele>
        <time>2011-04-30T17:32:43Z</time>
      </trkpt>
      <trkpt lat="46.06938" lon="6.42015">
        <ele>453</ele>
        <time>2011-04-30T17:32:44Z</time>
      </trkpt>
      <trkpt lat="46.06936" lon="6.4203">
        <ele>453</ele>
        <time>2011-04-30T17:32:45Z</time>
      </trkpt>
      <trkpt lat="46.06934" lon="6.42048">
        <ele>453</ele>
        <time>2011-04-30T17:32:46Z</time>
      </trkpt>
      <trkpt lat="46.06933" lon="6.42069">
        <ele>453</ele>
        <time>2011-04-30T17:32:47Z</time>
      </trkpt>
      <trkpt lat="46.06931" lon="6.42092">
        <ele>453</ele>
        <time>2011-04-30T17:32:48Z</time>
      </trkpt>
      <trkpt lat="46.06928" lon="6.42115">
        <ele>453</ele>
        <time>2011-04-30T17:32:49Z</time>
      </trkpt>
      <trkpt lat="46.06925" lon="6.42136">
        <ele>453</ele>
        <time>2011-04-30T17:32:50Z</time>
      </trkpt>
      <trkpt lat="46.0692" lon="6.42154">
        <ele>453</ele>
        <time>2011-04-30T17:32:51Z</time>
      </trkpt>
      <trkpt lat="46.06914" lon="6.42172">
        <ele>453</ele>
        <time>2011-04-30T17:32:52Z</time>
      </trkpt>
      <trkpt lat="46.06906" lon="6.42188">
        <ele>453</ele>
        <time>2011-04-30T17:32:53Z</time>
      </trkpt>
      <trkpt lat="46.06897" lon="6.42203">
        <ele>453</ele>
        <time>2011-04-30T17:32:54Z</time>
      </trkpt>
      <trkpt lat="46.06886" lon="6.42216">
        <ele>453</ele>
        <time>2011-04-30T17:32:55Z</time>
      </trkpt>
      <trkpt lat="46.06874" lon="6.42228">
        <ele>453</ele>
        <time>2011-04-30T17:32:56Z</time>
      </trkpt>
      <trkpt lat="46.06859" lon="6.42238">
        <ele>453</ele>
        <time>2011-04-30T17:32:57Z</time>
      </trkpt>
      <trkpt lat="46.06843" lon="6.42247">
        <ele>453</ele>
        <time>2011-04-30T17:32:58Z</time>
      </trkpt>
      <trkpt lat="46.06825" lon="6.42254">
        <ele>453</ele>
        <time>2011-04-30T17:32:59Z</time>
      </trkpt>
      <trkpt lat="46.06811" lon="6.42262">
        <ele>453</ele>
        <time>2011-04-30T17:33:00Z</time>
      </trkpt>
      <trkpt lat="46.06796" lon="6.42269">
        <ele>453</ele>
        <time>2011-04-30T17:33:01Z</time>
      </trkpt>
      <trkpt lat="46.06782" lon="6.42276">
        <ele>459</ele>
        <time>2011-04-30T17:33:02Z</time>
      </trkpt>
      <trkpt lat="46.0677" lon="6.42283">
        <ele>459</ele>
        <time>2011-04-30T17:33:03Z</time>
      </trkpt>
      <trkpt lat="46.06758" lon="6.4229">
        <ele>459</ele>
        <time>2011-04-30T17:33:04Z</time>
      </trkpt>
      <trkpt lat="46.06746" lon="6.42297">
        <ele>459</ele>
        <time>2011-04-30T17:33:05Z</time>
      </trkpt>
      <trkpt lat="46.06734" lon="6.42304">
        <ele>459</ele>
        <time>2011-04-30T17:33:06Z</time>
      </trkpt>
      <trkpt lat="46.06722" lon="6.42312">
        <ele>459</ele>
        <time>2011-04-30T17:33:07Z</time>
      </trkpt>
      <trkpt lat="46.06709" lon="6.42318">
        <ele>459</ele>
        <time>2011-04-30T17:33:08Z</time>
      </trkpt>
      <trkpt lat="46.06698" lon="6.42325">
        <ele>459</ele>
        <time>2011-04-30T17:33:09Z</time>
      </trkpt>
      <trkpt lat="46.06686" lon="6.42333">
        <ele>459</ele>
        <time>2011-04-30T17:33:10Z</time>
      </trkpt>
      <trkpt lat="46.06673" lon="6.42341">
        <ele>459</ele>
        <time>2011-04-30T17:33:11Z</time>
      </trkpt>
      <trkpt lat="46.06661" lon="6.4235">
        <ele>459</ele>
        <time>2011-04-30T17:33:12Z</time>
      </trkpt>
      <trkpt lat="46.0665" lon="6.42361">
        <ele>459</ele>
        <time>2011-04-30T17:33:13Z</time>
      </trkpt>
      <trkpt lat="46.0664" lon="6.42374">
        <ele>459</ele>
        <time>2011-04-30T17:33:14Z</time>
      </trkpt>
      <trkpt lat="46.06635" lon="6.4239">
        <ele>459</ele>
        <time>2011-04-30T17:33:15Z</time>
      </trkpt>
      <trkpt lat="46.06629" lon="6.42405">
        <ele>459</ele>
        <time>2011-04-30T17:33:16Z</time>
      </trkpt>
      <trkpt lat="46.06625" lon="6.42419">
        <ele>459</ele>
        <time>2011-04-30T17:33:17Z</time>
      </trkpt>
      <trkpt lat="46.06622" lon="6.42431">
        <ele>459</ele>
        <time>2011-04-30T17:33:18Z</time>
      </trkpt>
      <trkpt lat="46.06614" lon="6.42447">
        <ele>459</ele>
        <time>2011-04-30T17:33:20Z</time>
      </trkpt>
      <trkpt lat="46.06603" lon="6.42444">
        <ele>459</ele>
        <time>2011-04-30T17:33:22Z</time>
      </trkpt>
      <trkpt lat="46.06594" lon="6.42418">
        <ele>459</ele>
        <time>2011-04-30T17:33:24Z</time>
      </trkpt>
      <trkpt lat="46.06589" lon="6.42399">
        <ele>459</ele>
        <time>2011-04-30T17:33:25Z</time>
      </trkpt>
      <trkpt lat="46.06587" lon="6.42378">
        <ele>459</ele>
        <time>2011-04-30T17:33:26Z</time>
      </trkpt>
      <trkpt lat="46.06585" lon="6.42355">
        <ele>459</ele>
        <time>2011-04-30T17:33:27Z</time>
      </trkpt>
      <trkpt lat="46.06586" lon="6.42331">
        <ele>459</ele>
        <time>2011-04-30T17:33:28Z</time>
      </trkpt>
      <trkpt lat="46.06586" lon="6.42306">
        <ele>459</ele>
        <time>2011-04-30T17:33:29Z</time>
      </trkpt>
      <trkpt lat="46.06587" lon="6.42282">
        <ele>459</ele>
        <time>2011-04-30T17:33:30Z</time>
      </trkpt>
      <trkpt lat="46.06591" lon="6.42259">
        <ele>459</ele>
        <time>2011-04-30T17:33:31Z</time>
      </trkpt>
      <trkpt lat="46.06597" lon="6.42237">
        <ele>459</ele>
        <time>2011-04-30T17:33:32Z</time>
      </trkpt>
      <trkpt lat="46.06604" lon="6.42216">
        <ele>459</ele>
        <time>2011-04-30T17:33:33Z</time>
      </trkpt>
      <trkpt lat="46.06611" lon="6.42196">
        <ele>459</ele>
        <time>2011-04-30T17:33:34Z</time>
      </trkpt>
      <trkpt lat="46.06616" lon="6.42176">
        <ele>459</ele>
        <time>2011-04-30T17:33:35Z</time>
      </trkpt>
      <trkpt lat="46.0662" lon="6.42158">
        <ele>459</ele>
        <time>2011-04-30T17:33:36Z</time>
      </trkpt>
      <trkpt lat="46.06622" lon="6.4214">
        <ele>459</ele>
        <time>2011-04-30T17:33:37Z</time>
      </trkpt>
      <trkpt lat="46.06622" lon="6.42123">
        <ele>459</ele>
        <time>2011-04-30T17:33:38Z</time>
      </trkpt>
      <trkpt lat="46.0662" lon="6.42106">
        <ele>459</ele>
        <time>2011-04-30T17:33:39Z</time>
      </trkpt>
      <trkpt lat="46.06615" lon="6.42089">
        <ele>459</ele>
        <time>2011-04-30T17:33:40Z</time>
      </trkpt>
      <trkpt lat="46.06607" lon="6.42073">
        <ele>459</ele>
        <time>2011-04-30T17:33:41Z</time>
      </trkpt>
      <trkpt lat="46.06598" lon="6.42057">
        <ele>459</ele>
        <time>2011-04-30T17:33:42Z</time>
      </trkpt>
      <trkpt lat="46.0659" lon="6.42042">
        <ele>459</ele>
        <time>2011-04-30T17:33:43Z</time>
      </trkpt>
      <trkpt lat="46.06584" lon="6.4203">
        <ele>459</ele>
        <time>2011-04-30T17:33:44Z</time>
      </trkpt>
      <trkpt lat="46.06579" lon="6.42011">
        <ele>459</ele>
        <time>2011-04-30T17:33:46Z</time>
      </trkpt>
      <trkpt lat="46.06569" lon="6.42003">
        <ele>459</ele>
        <time>2011-04-30T17:33:48Z</time>
      </trkpt>
      <trkpt lat="46.06559" lon="6.42003">
        <ele>459</ele>
        <time>2011-04-30T17:33:49Z</time>
      </trkpt>
      <trkpt lat="46.06547" lon="6.42004">
        <ele>459</ele>
        <time>2011-04-30T17:33:50Z</time>
      </trkpt>
      <trkpt lat="46.06536" lon="6.42006">
        <ele>459</ele>
        <time>2011-04-30T17:33:51Z</time>
      </trkpt>
      <trkpt lat="46.06524" lon="6.42009">
        <ele>459</ele>
        <time>2011-04-30T17:33:52Z</time>
      </trkpt>
      <trkpt lat="46.06512" lon="6.42012">
        <ele>459</ele>
        <time>2011-04-30T17:33:53Z</time>
      </trkpt>
      <trkpt lat="46.06502" lon="6.42017">
        <ele>459</ele>
        <time>2011-04-30T17:33:54Z</time>
      </trkpt>
      <trkpt lat="46.06494" lon="6.42023">
        <ele>459</ele>
        <time>2011-04-30T17:33:55Z</time>
      </trkpt>
      <trkpt lat="46.06487" lon="6.42032">
        <ele>459</ele>
        <time>2011-04-30T17:33:56Z</time>
      </trkpt>
      <trkpt lat="46.0648" lon="6.42044">
        <ele>459</ele>
        <time>2011-04-30T17:33:57Z</time>
      </trkpt>
      <trkpt lat="46.06472" lon="6.42058">
        <ele>459</ele>
        <time>2011-04-30T17:33:58Z</time>
      </trkpt>
      <trkpt lat="46.06463" lon="6.42074">
        <ele>459</ele>
        <time>2011-04-30T17:33:59Z</time>
      </trkpt>
      <trkpt lat="46.06454" lon="6.42093">
        <ele>459</ele>
        <time>2011-04-30T17:34:00Z</time>
      </trkpt>
      <trkpt lat="46.06444" lon="6.42113">
        <ele>459</ele>
        <time>2011-04-30T17:34:01Z</time>
      </trkpt>
      <trkpt lat="46.06436" lon="6.42133">
        <ele>459</ele>
        <time>2011-04-30T17:34:02Z</time>
      </trkpt>
      <trkpt lat="46.06427" lon="6.42154">
        <ele>459</ele>
        <time>2011-04-30T17:34:03Z</time>
      </trkpt>
      <trkpt lat="46.06418" lon="6.42174">
        <ele>459</ele>
        <time>2011-04-30T17:34:04Z</time>
      </trkpt>
      <trkpt lat="46.06409" lon="6.42194">
        <ele>459</ele>
        <time>2011-04-30T17:34:05Z</time>
      </trkpt>
      <trkpt lat="46.06398" lon="6.42214">
        <ele>459</ele>
        <time>2011-04-30T17:34:06Z</time>
      </trkpt>
      <trkpt lat="46.06387" lon="6.42232">
        <ele>459</ele>
        <time>2011-04-30T17:34:07Z</time>
      </trkpt>
      <trkpt lat="46.06376" lon="6.42249">
        <ele>459</ele>
        <time>2011-04-30T17:34:08Z</time>
      </trkpt>
      <trkpt lat="46.06366" lon="6.42264">
        <ele>459</ele>
        <time>2011-04-30T17:34:09Z</time>
      </trkpt>
      <trkpt lat="46.06357" lon="6.42275">
        <ele>459</ele>
        <time>2011-04-30T17:34:10Z</time>
      </trkpt>
      <trkpt lat="46.06346" lon="6.42283">
        <ele>459</ele>
        <time>2011-04-30T17:34:12Z</time>
      </trkpt>
      <trkpt lat="46.06337" lon="6.4229">
        <ele>459</ele>
        <time>2011-04-30T17:34:15Z</time>
      </trkpt>
      <trkpt lat="46.06329" lon="6.42295">
        <ele>453</ele>
        <time>2011-04-30T17:35:00Z</time>
      </trkpt>
      <trkpt lat="46.06319" lon="6.42302">
        <ele>453</ele>
        <time>2011-04-30T17:35:02Z</time>
      </trkpt>
      <trkpt lat="46.06309" lon="6.42302">
        <ele>453</ele>
        <time>2011-04-30T17:35:05Z</time>
      </trkpt>
      <trkpt lat="46.06307" lon="6.42315">
        <ele>453</ele>
        <time>2011-04-30T17:35:13Z</time>
      </trkpt>
      <trkpt lat="46.06316" lon="6.42317">
        <ele>462</ele>
        <time>2011-04-30T17:37:39Z</time>
      </trkpt>
      <trkpt lat="46.06326" lon="6.42315">
        <ele>480</ele>
        <time>2011-04-30T17:38:00Z</time>
      </trkpt>
      <trkpt lat="46.06334" lon="6.42307">
        <ele>480</ele>
        <time>2011-04-30T17:38:04Z</time>
      </trkpt>
      <trkpt lat="46.06345" lon="6.42293">
        <ele>475</ele>
        <time>2011-04-30T17:38:07Z</time>
      </trkpt>
      <trkpt lat="46.06355" lon="6.42282">
        <ele>475</ele>
        <time>2011-04-30T17:38:08Z</time>
      </trkpt>
      <trkpt lat="46.06368" lon="6.42269">
        <ele>475</ele>
        <time>2011-04-30T17:38:09Z</time>
      </trkpt>
      <trkpt lat="46.06379" lon="6.42258">
        <ele>475</ele>
        <time>2011-04-30T17:38:10Z</time>
      </trkpt>
      <trkpt lat="46.06389" lon="6.42244">
        <ele>475</ele>
        <time>2011-04-30T17:38:11Z</time>
      </trkpt>
      <trkpt lat="46.06399" lon="6.42229">
        <ele>475</ele>
        <time>2011-04-30T17:38:12Z</time>
      </trkpt>
      <trkpt lat="46.06409" lon="6.42212">
        <ele>475</ele>
        <time>2011-04-30T17:38:13Z</time>
      </trkpt>
      <trkpt lat="46.06418" lon="6.42192">
        <ele>475</ele>
        <time>2011-04-30T17:38:14Z</time>
      </trkpt>
      <trkpt lat="46.06426" lon="6.42174">
        <ele>467</ele>
        <time>2011-04-30T17:38:15Z</time>
      </trkpt>
      <trkpt lat="46.06432" lon="6.42159">
        <ele>467</ele>
        <time>2011-04-30T17:38:16Z</time>
      </trkpt>
      <trkpt lat="46.06438" lon="6.42145">
        <ele>467</ele>
        <time>2011-04-30T17:38:17Z</time>
      </trkpt>
      <trkpt lat="46.06444" lon="6.4213">
        <ele>467</ele>
        <time>2011-04-30T17:38:18Z</time>
      </trkpt>
      <trkpt lat="46.06449" lon="6.42118">
        <ele>462</ele>
        <time>2011-04-30T17:38:19Z</time>
      </trkpt>
      <trkpt lat="46.06459" lon="6.42097">
        <ele>462</ele>
        <time>2011-04-30T17:38:21Z</time>
      </trkpt>
      <trkpt lat="46.06467" lon="6.42081">
        <ele>462</ele>
        <time>2011-04-30T17:38:23Z</time>
      </trkpt>
      <trkpt lat="46.06472" lon="6.42067">
        <ele>462</ele>
        <time>2011-04-30T17:38:25Z</time>
      </trkpt>
      <trkpt lat="46.06467" lon="6.42056">
        <ele>462</ele>
        <time>2011-04-30T17:38:28Z</time>
      </trkpt>
      <trkpt lat="46.06458" lon="6.42051">
        <ele>462</ele>
        <time>2011-04-30T17:38:32Z</time>
      </trkpt>
      <trkpt lat="46.06449" lon="6.42048">
        <ele>462</ele>
        <time>2011-04-30T17:38:49Z</time>
      </trkpt>
      <trkpt lat="46.06436" lon="6.42041">
        <ele>462</ele>
        <time>2011-04-30T17:38:51Z</time>
      </trkpt>
      <trkpt lat="46.06427" lon="6.42037">
        <ele>456</ele>
        <time>2011-04-30T17:38:52Z</time>
      </trkpt>
      <trkpt lat="46.06419" lon="6.42032">
        <ele>456</ele>
        <time>2011-04-30T17:38:53Z</time>
      </trkpt>
      <trkpt lat="46.06402" lon="6.42028">
        <ele>456</ele>
        <time>2011-04-30T17:38:55Z</time>
      </trkpt>
      <trkpt lat="46.06384" lon="6.42029">
        <ele>456</ele>
        <time>2011-04-30T17:38:57Z</time>
      </trkpt>
      <trkpt lat="46.06367" lon="6.42033">
        <ele>456</ele>
        <time>2011-04-30T17:38:59Z</time>
      </trkpt>
      <trkpt lat="46.0635" lon="6.42038">
        <ele>456</ele>
        <time>2011-04-30T17:39:01Z</time>
      </trkpt>
      <trkpt lat="46.06334" lon="6.42039">
        <ele>456</ele>
        <time>2011-04-30T17:39:03Z</time>
      </trkpt>
      <trkpt lat="46.06322" lon="6.42035">
        <ele>456</ele>
        <time>2011-04-30T17:39:05Z</time>
      </trkpt>
      <trkpt lat="46.0631" lon="6.42023">
        <ele>456</ele>
        <time>2011-04-30T17:39:07Z</time>
      </trkpt>
      <trkpt lat="46.06302" lon="6.4201">
        <ele>456</ele>
        <time>2011-04-30T17:39:09Z</time>
      </trkpt>
      <trkpt lat="46.06293" lon="6.41995">
        <ele>456</ele>
        <time>2011-04-30T17:39:11Z</time>
      </trkpt>
      <trkpt lat="46.06283" lon="6.41986">
        <ele>456</ele>
        <time>2011-04-30T17:39:13Z</time>
      </trkpt>
      <trkpt lat="46.06271" lon="6.41977">
        <ele>456</ele>
        <time>2011-04-30T17:39:17Z</time>
      </trkpt>
      <trkpt lat="46.0626" lon="6.41974">
        <ele>456</ele>
        <time>2011-04-30T17:39:20Z</time>
      </trkpt>
      <trkpt lat="46.06252" lon="6.41978">
        <ele>456</ele>
        <time>2011-04-30T17:39:24Z</time>
      </trkpt>
      <trkpt lat="46.06244" lon="6.41986">
        <ele>456</ele>
        <time>2011-04-30T17:39:27Z</time>
      </trkpt>
      <trkpt lat="46.0624" lon="6.41965">
        <ele>456</ele>
        <time>2011-04-30T17:39:33Z</time>
      </trkpt>
      <trkpt lat="46.06235" lon="6.41948">
        <ele>456</ele>
        <time>2011-04-30T17:39:35Z</time>
      </trkpt>
      <trkpt lat="46.06227" lon="6.41927">
        <ele>456</ele>
        <time>2011-04-30T17:39:37Z</time>
      </trkpt>
      <trkpt lat="46.06222" lon="6.41915">
        <ele>456</ele>
        <time>2011-04-30T17:39:38Z</time>
      </trkpt>
      <trkpt lat="46.06217" lon="6.41904">
        <ele>451</ele>
        <time>2011-04-30T17:39:39Z</time>
      </trkpt>
      <trkpt lat="46.06217" lon="6.4188">
        <ele>451</ele>
        <time>2011-04-30T17:39:41Z</time>
      </trkpt>
      <trkpt lat="46.06219" lon="6.41855">
        <ele>451</ele>
        <time>2011-04-30T17:39:43Z</time>
      </trkpt>
      <trkpt lat="46.06219" lon="6.41833">
        <ele>451</ele>
        <time>2011-04-30T17:39:45Z</time>
      </trkpt>
      <trkpt lat="46.06219" lon="6.41809">
        <ele>451</ele>
        <time>2011-04-30T17:39:47Z</time>
      </trkpt>
      <trkpt lat="46.06219" lon="6.41792">
        <ele>458</ele>
        <time>2011-04-30T17:39:49Z</time>
      </trkpt>
      <trkpt lat="46.06215" lon="6.41771">
        <ele>458</ele>
        <time>2011-04-30T17:39:51Z</time>
      </trkpt>
      <trkpt lat="46.06216" lon="6.41751">
        <ele>458</ele>
        <time>2011-04-30T17:39:53Z</time>
      </trkpt>
      <trkpt lat="46.06214" lon="6.41728">
        <ele>458</ele>
        <time>2011-04-30T17:39:55Z</time>
      </trkpt>
      <trkpt lat="46.06211" lon="6.41707">
        <ele>458</ele>
        <time>2011-04-30T17:39:57Z</time>
      </trkpt>
      <trkpt lat="46.06211" lon="6.41686">
        <ele>463</ele>
        <time>2011-04-30T17:39:59Z</time>
      </trkpt>
      <trkpt lat="46.0621" lon="6.41662">
        <ele>463</ele>
        <time>2011-04-30T17:40:01Z</time>
      </trkpt>
      <trkpt lat="46.06214" lon="6.4164">
        <ele>463</ele>
        <time>2011-04-30T17:40:03Z</time>
      </trkpt>
      <trkpt lat="46.06214" lon="6.41618">
        <ele>463</ele>
        <time>2011-04-30T17:40:05Z</time>
      </trkpt>
      <trkpt lat="46.06211" lon="6.41599">
        <ele>463</ele>
        <time>2011-04-30T17:40:07Z</time>
      </trkpt>
      <trkpt lat="46.06211" lon="6.41585">
        <ele>463</ele>
        <time>2011-04-30T17:40:09Z</time>
      </trkpt>
      <trkpt lat="46.06212" lon="6.41571">
        <ele>456</ele>
        <time>2011-04-30T17:40:11Z</time>
      </trkpt>
      <trkpt lat="46.0621" lon="6.4155">
        <ele>456</ele>
        <time>2011-04-30T17:40:13Z</time>
      </trkpt>
      <trkpt lat="46.06208" lon="6.41534">
        <ele>456</ele>
        <time>2011-04-30T17:40:14Z</time>
      </trkpt>
      <trkpt lat="46.06206" lon="6.4152">
        <ele>456</ele>
        <time>2011-04-30T17:40:15Z</time>
      </trkpt>
      <trkpt lat="46.06202" lon="6.41498">
        <ele>456</ele>
        <time>2011-04-30T17:40:17Z</time>
      </trkpt>
      <trkpt lat="46.06198" lon="6.41477">
        <ele>456</ele>
        <time>2011-04-30T17:40:19Z</time>
      </trkpt>
      <trkpt lat="46.06195" lon="6.41456">
        <ele>456</ele>
        <time>2011-04-30T17:40:21Z</time>
      </trkpt>
      <trkpt lat="46.06192" lon="6.41428">
        <ele>456</ele>
        <time>2011-04-30T17:40:23Z</time>
      </trkpt>
      <trkpt lat="46.06189" lon="6.4141">
        <ele>456</ele>
        <time>2011-04-30T17:40:24Z</time>
      </trkpt>
      <trkpt lat="46.06186" lon="6.41393">
        <ele>456</ele>
        <time>2011-04-30T17:40:25Z</time>
      </trkpt>
      <trkpt lat="46.06184" lon="6.41377">
        <ele>456</ele>
        <time>2011-04-30T17:40:26Z</time>
      </trkpt>
      <trkpt lat="46.06183" lon="6.41362">
        <ele>456</ele>
        <time>2011-04-30T17:40:27Z</time>
      </trkpt>
      <trkpt lat="46.06183" lon="6.41344">
        <ele>456</ele>
        <time>2011-04-30T17:40:28Z</time>
      </trkpt>
      <trkpt lat="46.06182" lon="6.41327">
        <ele>456</ele>
        <time>2011-04-30T17:40:29Z</time>
      </trkpt>
      <trkpt lat="46.0618" lon="6.41311">
        <ele>456</ele>
        <time>2011-04-30T17:40:30Z</time>
      </trkpt>
      <trkpt lat="46.06179" lon="6.41296">
        <ele>456</ele>
        <time>2011-04-30T17:40:31Z</time>
      </trkpt>
      <trkpt lat="46.06178" lon="6.41282">
        <ele>456</ele>
        <time>2011-04-30T17:40:32Z</time>
      </trkpt>
      <trkpt lat="46.06178" lon="6.41256">
        <ele>456</ele>
        <time>2011-04-30T17:40:34Z</time>
      </trkpt>
      <trkpt lat="46.06176" lon="6.41235">
        <ele>456</ele>
        <time>2011-04-30T17:40:36Z</time>
      </trkpt>
      <trkpt lat="46.0617" lon="6.41215">
        <ele>456</ele>
        <time>2011-04-30T17:40:38Z</time>
      </trkpt>
      <trkpt lat="46.06166" lon="6.41198">
        <ele>456</ele>
        <time>2011-04-30T17:40:40Z</time>
      </trkpt>
      <trkpt lat="46.06162" lon="6.41173">
        <ele>456</ele>
        <time>2011-04-30T17:40:42Z</time>
      </trkpt>
      <trkpt lat="46.0616" lon="6.4115">
        <ele>463</ele>
        <time>2011-04-30T17:40:44Z</time>
      </trkpt>
      <trkpt lat="46.06158" lon="6.41126">
        <ele>463</ele>
        <time>2011-04-30T17:40:46Z</time>
      </trkpt>
      <trkpt lat="46.06156" lon="6.41111">
        <ele>463</ele>
        <time>2011-04-30T17:40:47Z</time>
      </trkpt>
      <trkpt lat="46.06153" lon="6.41089">
        <ele>463</ele>
        <time>2011-04-30T17:40:49Z</time>
      </trkpt>
      <trkpt lat="46.06149" lon="6.41071">
        <ele>463</ele>
        <time>2011-04-30T17:40:51Z</time>
      </trkpt>
      <trkpt lat="46.06144" lon="6.41051">
        <ele>463</ele>
        <time>2011-04-30T17:40:53Z</time>
      </trkpt>
      <trkpt lat="46.06142" lon="6.41032">
        <ele>463</ele>
        <time>2011-04-30T17:40:55Z</time>
      </trkpt>
      <trkpt lat="46.06144" lon="6.41016">
        <ele>463</ele>
        <time>2011-04-30T17:40:57Z</time>
      </trkpt>
      <trkpt lat="46.06142" lon="6.41">
        <ele>463</ele>
        <time>2011-04-30T17:40:59Z</time>
      </trkpt>
      <trkpt lat="46.06138" lon="6.40981">
        <ele>457</ele>
        <time>2011-04-30T17:41:01Z</time>
      </trkpt>
      <trkpt lat="46.06135" lon="6.40957">
        <ele>457</ele>
        <time>2011-04-30T17:41:03Z</time>
      </trkpt>
      <trkpt lat="46.06131" lon="6.40933">
        <ele>457</ele>
        <time>2011-04-30T17:41:05Z</time>
      </trkpt>
      <trkpt lat="46.06127" lon="6.40905">
        <ele>457</ele>
        <time>2011-04-30T17:41:07Z</time>
      </trkpt>
      <trkpt lat="46.06125" lon="6.40891">
        <ele>457</ele>
        <time>2011-04-30T17:41:08Z</time>
      </trkpt>
      <trkpt lat="46.06123" lon="6.40876">
        <ele>457</ele>
        <time>2011-04-30T17:41:09Z</time>
      </trkpt>
      <trkpt lat="46.06121" lon="6.40861">
        <ele>457</ele>
        <time>2011-04-30T17:41:10Z</time>
      </trkpt>
      <trkpt lat="46.06119" lon="6.40846">
        <ele>457</ele>
        <time>2011-04-30T17:41:11Z</time>
      </trkpt>
      <trkpt lat="46.06117" lon="6.40822">
        <ele>463</ele>
        <time>2011-04-30T17:41:13Z</time>
      </trkpt>
      <trkpt lat="46.06112" lon="6.408">
        <ele>463</ele>
        <time>2011-04-30T17:41:15Z</time>
      </trkpt>
      <trkpt lat="46.06108" lon="6.40775">
        <ele>463</ele>
        <time>2011-04-30T17:41:17Z</time>
      </trkpt>
      <trkpt lat="46.06105" lon="6.40762">
        <ele>463</ele>
        <time>2011-04-30T17:41:18Z</time>
      </trkpt>
      <trkpt lat="46.06102" lon="6.40748">
        <ele>463</ele>
        <time>2011-04-30T17:41:19Z</time>
      </trkpt>
      <trkpt lat="46.061" lon="6.40727">
        <ele>463</ele>
        <time>2011-04-30T17:41:21Z</time>
      </trkpt>
      <trkpt lat="46.06097" lon="6.40714">
        <ele>463</ele>
        <time>2011-04-30T17:41:22Z</time>
      </trkpt>
      <trkpt lat="46.06093" lon="6.407">
        <ele>463</ele>
        <time>2011-04-30T17:41:23Z</time>
      </trkpt>
      <trkpt lat="46.0609" lon="6.40687">
        <ele>463</ele>
        <time>2011-04-30T17:41:24Z</time>
      </trkpt>
      <trkpt lat="46.06088" lon="6.40661">
        <ele>463</ele>
        <time>2011-04-30T17:41:26Z</time>
      </trkpt>
      <trkpt lat="46.06086" lon="6.40646">
        <ele>463</ele>
        <time>2011-04-30T17:41:27Z</time>
      </trkpt>
      <trkpt lat="46.06085" lon="6.40632">
        <ele>463</ele>
        <time>2011-04-30T17:41:28Z</time>
      </trkpt>
      <trkpt lat="46.06088" lon="6.40618">
        <ele>463</ele>
        <time>2011-04-30T17:41:29Z</time>
      </trkpt>
      <trkpt lat="46.06088" lon="6.40595">
        <ele>463</ele>
        <time>2011-04-30T17:41:31Z</time>
      </trkpt>
      <trkpt lat="46.06085" lon="6.40575">
        <ele>463</ele>
        <time>2011-04-30T17:41:33Z</time>
      </trkpt>
      <trkpt lat="46.0608" lon="6.40553">
        <ele>463</ele>
        <time>2011-04-30T17:41:35Z</time>
      </trkpt>
      <trkpt lat="46.06078" lon="6.4054">
        <ele>463</ele>
        <time>2011-04-30T17:41:36Z</time>
      </trkpt>
      <trkpt lat="46.06073" lon="6.40527">
        <ele>463</ele>
        <time>2011-04-30T17:41:37Z</time>
      </trkpt>
      <trkpt lat="46.06068" lon="6.40502">
        <ele>463</ele>
        <time>2011-04-30T17:41:39Z</time>
      </trkpt>
      <trkpt lat="46.06064" lon="6.4049">
        <ele>463</ele>
        <time>2011-04-30T17:41:40Z</time>
      </trkpt>
      <trkpt lat="46.06056" lon="6.40475">
        <ele>463</ele>
        <time>2011-04-30T17:41:41Z</time>
      </trkpt>
      <trkpt lat="46.06049" lon="6.4046">
        <ele>463</ele>
        <time>2011-04-30T17:41:42Z</time>
      </trkpt>
      <trkpt lat="46.06043" lon="6.40447">
        <ele>463</ele>
        <time>2011-04-30T17:41:43Z</time>
      </trkpt>
      <trkpt lat="46.06039" lon="6.40431">
        <ele>463</ele>
        <time>2011-04-30T17:41:44Z</time>
      </trkpt>
      <trkpt lat="46.06029" lon="6.40405">
        <ele>463</ele>
        <time>2011-04-30T17:41:46Z</time>
      </trkpt>
      <trkpt lat="46.06023" lon="6.40388">
        <ele>463</ele>
        <time>2011-04-30T17:41:47Z</time>
      </trkpt>
      <trkpt lat="46.06018" lon="6.4037">
        <ele>463</ele>
        <time>2011-04-30T17:41:48Z</time>
      </trkpt>
      <trkpt lat="46.0601" lon="6.40352">
        <ele>463</ele>
        <time>2011-04-30T17:41:49Z</time>
      </trkpt>
      <trkpt lat="46.06003" lon="6.40336">
        <ele>463</ele>
        <time>2011-04-30T17:41:50Z</time>
      </trkpt>
      <trkpt lat="46.05998" lon="6.40323">
        <ele>463</ele>
        <time>2011-04-30T17:41:51Z</time>
      </trkpt>
      <trkpt lat="46.0599" lon="6.40306">
        <ele>463</ele>
        <time>2011-04-30T17:41:52Z</time>
      </trkpt>
      <trkpt lat="46.05984" lon="6.40294">
        <ele>463</ele>
        <time>2011-04-30T17:41:53Z</time>
      </trkpt>
      <trkpt lat="46.0598" lon="6.40281">
        <ele>463</ele>
        <time>2011-04-30T17:41:54Z</time>
      </trkpt>
      <trkpt lat="46.05977" lon="6.40262">
        <ele>463</ele>
        <time>2011-04-30T17:41:56Z</time>
      </trkpt>
      <trkpt lat="46.05978" lon="6.40243">
        <ele>470</ele>
        <time>2011-04-30T17:41:58Z</time>
      </trkpt>
      <trkpt lat="46.05979" lon="6.40222">
        <ele>470</ele>
        <time>2011-04-30T17:42:00Z</time>
      </trkpt>
      <trkpt lat="46.05983" lon="6.40201">
        <ele>470</ele>
        <time>2011-04-30T17:42:02Z</time>
      </trkpt>
      <trkpt lat="46.05989" lon="6.40181">
        <ele>470</ele>
        <time>2011-04-30T17:42:04Z</time>
      </trkpt>
      <trkpt lat="46.05993" lon="6.4016">
        <ele>470</ele>
        <time>2011-04-30T17:42:06Z</time>
      </trkpt>
      <trkpt lat="46.05995" lon="6.40133">
        <ele>470</ele>
        <time>2011-04-30T17:42:08Z</time>
      </trkpt>
      <trkpt lat="46.05995" lon="6.4012">
        <ele>470</ele>
        <time>2011-04-30T17:42:09Z</time>
      </trkpt>
      <trkpt lat="46.05993" lon="6.40096">
        <ele>470</ele>
        <time>2011-04-30T17:42:11Z</time>
      </trkpt>
      <trkpt lat="46.0599" lon="6.40074">
        <ele>470</ele>
        <time>2011-04-30T17:42:13Z</time>
      </trkpt>
      <trkpt lat="46.05983" lon="6.40051">
        <ele>470</ele>
        <time>2011-04-30T17:42:15Z</time>
      </trkpt>
      <trkpt lat="46.0598" lon="6.40037">
        <ele>470</ele>
        <time>2011-04-30T17:42:16Z</time>
      </trkpt>
      <trkpt lat="46.05978" lon="6.40023">
        <ele>470</ele>
        <time>2011-04-30T17:42:17Z</time>
      </trkpt>
      <trkpt lat="46.05975" lon="6.40003">
        <ele>470</ele>
        <time>2011-04-30T17:42:18Z</time>
      </trkpt>
      <trkpt lat="46.05975" lon="6.39984">
        <ele>470</ele>
        <time>2011-04-30T17:42:19Z</time>
      </trkpt>
      <trkpt lat="46.05975" lon="6.39965">
        <ele>470</ele>
        <time>2011-04-30T17:42:20Z</time>
      </trkpt>
      <trkpt lat="46.05975" lon="6.39946">
        <ele>470</ele>
        <time>2011-04-30T17:42:21Z</time>
      </trkpt>
      <trkpt lat="46.05975" lon="6.39928">
        <ele>470</ele>
        <time>2011-04-30T17:42:22Z</time>
      </trkpt>
      <trkpt lat="46.05974" lon="6.3991">
        <ele>470</ele>
        <time>2011-04-30T17:42:23Z</time>
      </trkpt>
      <trkpt lat="46.05973" lon="6.39892">
        <ele>470</ele>
        <time>2011-04-30T17:42:24Z</time>
      </trkpt>
      <trkpt lat="46.0597" lon="6.39875">
        <ele>470</ele>
        <time>2011-04-30T17:42:25Z</time>
      </trkpt>
      <trkpt lat="46.05969" lon="6.3986">
        <ele>464</ele>
        <time>2011-04-30T17:42:26Z</time>
      </trkpt>
      <trkpt lat="46.05966" lon="6.39833">
        <ele>464</ele>
        <time>2011-04-30T17:42:28Z</time>
      </trkpt>
      <trkpt lat="46.05963" lon="6.39819">
        <ele>464</ele>
        <time>2011-04-30T17:42:29Z</time>
      </trkpt>
      <trkpt lat="46.05961" lon="6.39804">
        <ele>464</ele>
        <time>2011-04-30T17:42:30Z</time>
      </trkpt>
      <trkpt lat="46.0596" lon="6.39789">
        <ele>464</ele>
        <time>2011-04-30T17:42:31Z</time>
      </trkpt>
      <trkpt lat="46.0596" lon="6.39774">
        <ele>464</ele>
        <time>2011-04-30T17:42:32Z</time>
      </trkpt>
      <trkpt lat="46.0596" lon="6.39759">
        <ele>464</ele>
        <time>2011-04-30T17:42:33Z</time>
      </trkpt>
      <trkpt lat="46.05961" lon="6.39744">
        <ele>464</ele>
        <time>2011-04-30T17:42:34Z</time>
      </trkpt>
      <trkpt lat="46.05961" lon="6.3973">
        <ele>464</ele>
        <time>2011-04-30T17:42:35Z</time>
      </trkpt>
      <trkpt lat="46.05966" lon="6.39706">
        <ele>464</ele>
        <time>2011-04-30T17:42:37Z</time>
      </trkpt>
      <trkpt lat="46.05967" lon="6.39691">
        <ele>464</ele>
        <time>2011-04-30T17:42:38Z</time>
      </trkpt>
      <trkpt lat="46.05971" lon="6.39676">
        <ele>464</ele>
        <time>2011-04-30T17:42:39Z</time>
      </trkpt>
      <trkpt lat="46.05977" lon="6.39662">
        <ele>464</ele>
        <time>2011-04-30T17:42:40Z</time>
      </trkpt>
      <trkpt lat="46.05983" lon="6.39648">
        <ele>464</ele>
        <time>2011-04-30T17:42:41Z</time>
      </trkpt>
      <trkpt lat="46.05989" lon="6.39636">
        <ele>464</ele>
        <time>2011-04-30T17:42:42Z</time>
      </trkpt>
      <trkpt lat="46.05994" lon="6.39623">
        <ele>464</ele>
        <time>2011-04-30T17:42:43Z</time>
      </trkpt>
      <trkpt lat="46.06001" lon="6.39605">
        <ele>464</ele>
        <time>2011-04-30T17:42:45Z</time>
      </trkpt>
      <trkpt lat="46.06008" lon="6.39591">
        <ele>464</ele>
        <time>2011-04-30T17:42:48Z</time>
      </trkpt>
      <trkpt lat="46.06019" lon="6.39592">
        <ele>464</ele>
        <time>2011-04-30T17:42:50Z</time>
      </trkpt>
      <trkpt lat="46.06028" lon="6.39591">
        <ele>464</ele>
        <time>2011-04-30T17:42:52Z</time>
      </trkpt>
      <trkpt lat="46.06035" lon="6.3957">
        <ele>464</ele>
        <time>2011-04-30T17:42:55Z</time>
      </trkpt>
      <trkpt lat="46.06038" lon="6.39557">
        <ele>464</ele>
        <time>2011-04-30T17:42:56Z</time>
      </trkpt>
      <trkpt lat="46.0604" lon="6.39542">
        <ele>464</ele>
        <time>2011-04-30T17:42:57Z</time>
      </trkpt>
      <trkpt lat="46.06043" lon="6.39527">
        <ele>464</ele>
        <time>2011-04-30T17:42:58Z</time>
      </trkpt>
      <trkpt lat="46.06045" lon="6.39512">
        <ele>464</ele>
        <time>2011-04-30T17:42:59Z</time>
      </trkpt>
      <trkpt lat="46.06047" lon="6.39495">
        <ele>464</ele>
        <time>2011-04-30T17:43:00Z</time>
      </trkpt>
      <trkpt lat="46.06048" lon="6.39478">
        <ele>464</ele>
        <time>2011-04-30T17:43:01Z</time>
      </trkpt>
      <trkpt lat="46.06048" lon="6.3946">
        <ele>464</ele>
        <time>2011-04-30T17:43:02Z</time>
      </trkpt>
      <trkpt lat="46.06047" lon="6.39442">
        <ele>464</ele>
        <time>2011-04-30T17:43:03Z</time>
      </trkpt>
      <trkpt lat="46.06045" lon="6.39425">
        <ele>464</ele>
        <time>2011-04-30T17:43:04Z</time>
      </trkpt>
      <trkpt lat="46.06042" lon="6.39409">
        <ele>464</ele>
        <time>2011-04-30T17:43:05Z</time>
      </trkpt>
      <trkpt lat="46.0604" lon="6.39395">
        <ele>464</ele>
        <time>2011-04-30T17:43:06Z</time>
      </trkpt>
      <trkpt lat="46.06037" lon="6.39382">
        <ele>464</ele>
        <time>2011-04-30T17:43:07Z</time>
      </trkpt>
      <trkpt lat="46.06036" lon="6.39364">
        <ele>464</ele>
        <time>2011-04-30T17:43:09Z</time>
      </trkpt>
      <trkpt lat="46.06046" lon="6.3936">
        <ele>464</ele>
        <time>2011-04-30T17:43:13Z</time>
      </trkpt>
      <trkpt lat="46.06058" lon="6.39365">
        <ele>464</ele>
        <time>2011-04-30T17:43:15Z</time>
      </trkpt>
      <trkpt lat="46.06068" lon="6.39368">
        <ele>464</ele>
        <time>2011-04-30T17:43:16Z</time>
      </trkpt>
      <trkpt lat="46.0608" lon="6.39371">
        <ele>464</ele>
        <time>2011-04-30T17:43:17Z</time>
      </trkpt>
      <trkpt lat="46.06093" lon="6.39373">
        <ele>464</ele>
        <time>2011-04-30T17:43:18Z</time>
      </trkpt>
      <trkpt lat="46.06106" lon="6.39374">
        <ele>464</ele>
        <time>2011-04-30T17:43:19Z</time>
      </trkpt>
      <trkpt lat="46.0612" lon="6.39373">
        <ele>464</ele>
        <time>2011-04-30T17:43:20Z</time>
      </trkpt>
      <trkpt lat="46.06133" lon="6.39371">
        <ele>464</ele>
        <time>2011-04-30T17:43:21Z</time>
      </trkpt>
      <trkpt lat="46.06144" lon="6.39368">
        <ele>464</ele>
        <time>2011-04-30T17:43:22Z</time>
      </trkpt>
      <trkpt lat="46.06156" lon="6.39364">
        <ele>464</ele>
        <time>2011-04-30T17:43:23Z</time>
      </trkpt>
      <trkpt lat="46.06168" lon="6.39362">
        <ele>464</ele>
        <time>2011-04-30T17:43:24Z</time>
      </trkpt>
      <trkpt lat="46.0618" lon="6.39358">
        <ele>464</ele>
        <time>2011-04-30T17:43:25Z</time>
      </trkpt>
      <trkpt lat="46.06192" lon="6.39356">
        <ele>464</ele>
        <time>2011-04-30T17:43:26Z</time>
      </trkpt>
      <trkpt lat="46.06201" lon="6.39354">
        <ele>464</ele>
        <time>2011-04-30T17:43:27Z</time>
      </trkpt>
      <trkpt lat="46.06215" lon="6.3935">
        <ele>464</ele>
        <time>2011-04-30T17:43:29Z</time>
      </trkpt>
      <trkpt lat="46.06224" lon="6.39341">
        <ele>464</ele>
        <time>2011-04-30T17:43:32Z</time>
      </trkpt>
      <trkpt lat="46.0622" lon="6.39326">
        <ele>464</ele>
        <time>2011-04-30T17:43:34Z</time>
      </trkpt>
      <trkpt lat="46.0621" lon="6.393">
        <ele>464</ele>
        <time>2011-04-30T17:43:36Z</time>
      </trkpt>
      <trkpt lat="46.06202" lon="6.39281">
        <ele>464</ele>
        <time>2011-04-30T17:43:37Z</time>
      </trkpt>
      <trkpt lat="46.06194" lon="6.3926">
        <ele>464</ele>
        <time>2011-04-30T17:43:38Z</time>
      </trkpt>
      <trkpt lat="46.06185" lon="6.39239">
        <ele>464</ele>
        <time>2011-04-30T17:43:39Z</time>
      </trkpt>
      <trkpt lat="46.06176" lon="6.39217">
        <ele>464</ele>
        <time>2011-04-30T17:43:40Z</time>
      </trkpt>
      <trkpt lat="46.06167" lon="6.39196">
        <ele>464</ele>
        <time>2011-04-30T17:43:41Z</time>
      </trkpt>
      <trkpt lat="46.06157" lon="6.39176">
        <ele>464</ele>
        <time>2011-04-30T17:43:42Z</time>
      </trkpt>
      <trkpt lat="46.06147" lon="6.39158">
        <ele>464</ele>
        <time>2011-04-30T17:43:43Z</time>
      </trkpt>
      <trkpt lat="46.06136" lon="6.3914">
        <ele>464</ele>
        <time>2011-04-30T17:43:44Z</time>
      </trkpt>
      <trkpt lat="46.06124" lon="6.39124">
        <ele>464</ele>
        <time>2011-04-30T17:43:45Z</time>
      </trkpt>
      <trkpt lat="46.06112" lon="6.3911">
        <ele>464</ele>
        <time>2011-04-30T17:43:46Z</time>
      </trkpt>
      <trkpt lat="46.06098" lon="6.39097">
        <ele>464</ele>
        <time>2011-04-30T17:43:47Z</time>
      </trkpt>
      <trkpt lat="46.06083" lon="6.39084">
        <ele>464</ele>
        <time>2011-04-30T17:43:48Z</time>
      </trkpt>
      <trkpt lat="46.06069" lon="6.39072">
        <ele>464</ele>
        <time>2011-04-30T17:43:49Z</time>
      </trkpt>
      <trkpt lat="46.06056" lon="6.3906">
        <ele>464</ele>
        <time>2011-04-30T17:43:50Z</time>
      </trkpt>
      <trkpt lat="46.06044" lon="6.39048">
        <ele>464</ele>
        <time>2011-04-30T17:43:51Z</time>
      </trkpt>
      <trkpt lat="46.06033" lon="6.39034">
        <ele>464</ele>
        <time>2011-04-30T17:43:52Z</time>
      </trkpt>
      <trkpt lat="46.06022" lon="6.39017">
        <ele>470</ele>
        <time>2011-04-30T17:43:53Z</time>
      </trkpt>
      <trkpt lat="46.06012" lon="6.38998">
        <ele>470</ele>
        <time>2011-04-30T17:43:54Z</time>
      </trkpt>
      <trkpt lat="46.06001" lon="6.38977">
        <ele>470</ele>
        <time>2011-04-30T17:43:55Z</time>
      </trkpt>
      <trkpt lat="46.0599" lon="6.38956">
        <ele>470</ele>
        <time>2011-04-30T17:43:56Z</time>
      </trkpt>
      <trkpt lat="46.05978" lon="6.38935">
        <ele>470</ele>
        <time>2011-04-30T17:43:57Z</time>
      </trkpt>
      <trkpt lat="46.05967" lon="6.38917">
        <ele>470</ele>
        <time>2011-04-30T17:43:58Z</time>
      </trkpt>
      <trkpt lat="46.05957" lon="6.38901">
        <ele>470</ele>
        <time>2011-04-30T17:43:59Z</time>
      </trkpt>
      <trkpt lat="46.05946" lon="6.38884">
        <ele>470</ele>
        <time>2011-04-30T17:44:00Z</time>
      </trkpt>
      <trkpt lat="46.05935" lon="6.38867">
        <ele>475</ele>
        <time>2011-04-30T17:44:01Z</time>
      </trkpt>
      <trkpt lat="46.05924" lon="6.3885">
        <ele>475</ele>
        <time>2011-04-30T17:44:02Z</time>
      </trkpt>
      <trkpt lat="46.05913" lon="6.38831">
        <ele>475</ele>
        <time>2011-04-30T17:44:03Z</time>
      </trkpt>
      <trkpt lat="46.05902" lon="6.38811">
        <ele>475</ele>
        <time>2011-04-30T17:44:04Z</time>
      </trkpt>
      <trkpt lat="46.05891" lon="6.3879">
        <ele>475</ele>
        <time>2011-04-30T17:44:05Z</time>
      </trkpt>
      <trkpt lat="46.05883" lon="6.38768">
        <ele>475</ele>
        <time>2011-04-30T17:44:06Z</time>
      </trkpt>
      <trkpt lat="46.05875" lon="6.38744">
        <ele>475</ele>
        <time>2011-04-30T17:44:07Z</time>
      </trkpt>
      <trkpt lat="46.05868" lon="6.38718">
        <ele>475</ele>
        <time>2011-04-30T17:44:08Z</time>
      </trkpt>
      <trkpt lat="46.05861" lon="6.38692">
        <ele>475</ele>
        <time>2011-04-30T17:44:09Z</time>
      </trkpt>
      <trkpt lat="46.05854" lon="6.38668">
        <ele>475</ele>
        <time>2011-04-30T17:44:10Z</time>
      </trkpt>
      <trkpt lat="46.05848" lon="6.38645">
        <ele>475</ele>
        <time>2011-04-30T17:44:11Z</time>
      </trkpt>
      <trkpt lat="46.05843" lon="6.38622">
        <ele>475</ele>
        <time>2011-04-30T17:44:12Z</time>
      </trkpt>
      <trkpt lat="46.05836" lon="6.386">
        <ele>475</ele>
        <time>2011-04-30T17:44:13Z</time>
      </trkpt>
      <trkpt lat="46.05831" lon="6.38576">
        <ele>475</ele>
        <time>2011-04-30T17:44:14Z</time>
      </trkpt>
      <trkpt lat="46.05827" lon="6.38555">
        <ele>475</ele>
        <time>2011-04-30T17:44:15Z</time>
      </trkpt>
      <trkpt lat="46.05824" lon="6.38532">
        <ele>475</ele>
        <time>2011-04-30T17:44:16Z</time>
      </trkpt>
      <trkpt lat="46.05823" lon="6.38513">
        <ele>475</ele>
        <time>2011-04-30T17:44:17Z</time>
      </trkpt>
      <trkpt lat="46.05821" lon="6.38495">
        <ele>475</ele>
        <time>2011-04-30T17:44:18Z</time>
      </trkpt>
      <trkpt lat="46.05821" lon="6.38478">
        <ele>475</ele>
        <time>2011-04-30T17:44:19Z</time>
      </trkpt>
      <trkpt lat="46.0582" lon="6.38463">
        <ele>475</ele>
        <time>2011-04-30T17:44:20Z</time>
      </trkpt>
      <trkpt lat="46.0582" lon="6.3845">
        <ele>475</ele>
        <time>2011-04-30T17:44:21Z</time>
      </trkpt>
      <trkpt lat="46.0582" lon="6.38428">
        <ele>475</ele>
        <time>2011-04-30T17:44:23Z</time>
      </trkpt>
      <trkpt lat="46.05821" lon="6.38409">
        <ele>475</ele>
        <time>2011-04-30T17:44:25Z</time>
      </trkpt>
      <trkpt lat="46.05825" lon="6.38388">
        <ele>475</ele>
        <time>2011-04-30T17:44:27Z</time>
      </trkpt>
      <trkpt lat="46.05829" lon="6.38365">
        <ele>475</ele>
        <time>2011-04-30T17:44:29Z</time>
      </trkpt>
      <trkpt lat="46.05836" lon="6.38342">
        <ele>475</ele>
        <time>2011-04-30T17:44:31Z</time>
      </trkpt>
      <trkpt lat="46.05843" lon="6.38321">
        <ele>475</ele>
        <time>2011-04-30T17:44:33Z</time>
      </trkpt>
      <trkpt lat="46.05849" lon="6.38307">
        <ele>475</ele>
        <time>2011-04-30T17:44:35Z</time>
      </trkpt>
      <trkpt lat="46.05858" lon="6.38289">
        <ele>475</ele>
        <time>2011-04-30T17:44:37Z</time>
      </trkpt>
      <trkpt lat="46.05869" lon="6.38268">
        <ele>475</ele>
        <time>2011-04-30T17:44:39Z</time>
      </trkpt>
      <trkpt lat="46.05874" lon="6.38257">
        <ele>475</ele>
        <time>2011-04-30T17:44:40Z</time>
      </trkpt>
      <trkpt lat="46.0588" lon="6.38246">
        <ele>475</ele>
        <time>2011-04-30T17:44:41Z</time>
      </trkpt>
      <trkpt lat="46.0589" lon="6.38225">
        <ele>475</ele>
        <time>2011-04-30T17:44:43Z</time>
      </trkpt>
      <trkpt lat="46.05896" lon="6.38214">
        <ele>475</ele>
        <time>2011-04-30T17:44:44Z</time>
      </trkpt>
      <trkpt lat="46.05906" lon="6.38194">
        <ele>475</ele>
        <time>2011-04-30T17:44:46Z</time>
      </trkpt>
      <trkpt lat="46.05916" lon="6.38175">
        <ele>475</ele>
        <time>2011-04-30T17:44:48Z</time>
      </trkpt>
      <trkpt lat="46.05925" lon="6.3816">
        <ele>475</ele>
        <time>2011-04-30T17:44:50Z</time>
      </trkpt>
      <trkpt lat="46.05931" lon="6.38148">
        <ele>475</ele>
        <time>2011-04-30T17:44:52Z</time>
      </trkpt>
      <trkpt lat="46.05938" lon="6.38139">
        <ele>475</ele>
        <time>2011-04-30T17:44:55Z</time>
      </trkpt>
      <trkpt lat="46.05942" lon="6.38124">
        <ele>475</ele>
        <time>2011-04-30T17:45:03Z</time>
      </trkpt>
      <trkpt lat="46.05935" lon="6.38107">
        <ele>475</ele>
        <time>2011-04-30T17:45:05Z</time>
      </trkpt>
      <trkpt lat="46.05928" lon="6.38095">
        <ele>475</ele>
        <time>2011-04-30T17:45:06Z</time>
      </trkpt>
      <trkpt lat="46.0592" lon="6.38081">
        <ele>475</ele>
        <time>2011-04-30T17:45:07Z</time>
      </trkpt>
      <trkpt lat="46.05911" lon="6.38067">
        <ele>475</ele>
        <time>2011-04-30T17:45:08Z</time>
      </trkpt>
      <trkpt lat="46.05903" lon="6.38052">
        <ele>475</ele>
        <time>2011-04-30T17:45:09Z</time>
      </trkpt>
      <trkpt lat="46.05894" lon="6.38036">
        <ele>475</ele>
        <time>2011-04-30T17:45:10Z</time>
      </trkpt>
      <trkpt lat="46.05885" lon="6.38019">
        <ele>475</ele>
        <time>2011-04-30T17:45:11Z</time>
      </trkpt>
      <trkpt lat="46.05876" lon="6.38003">
        <ele>475</ele>
        <time>2011-04-30T17:45:12Z</time>
      </trkpt>
      <trkpt lat="46.05867" lon="6.37987">
        <ele>475</ele>
        <time>2011-04-30T17:45:13Z</time>
      </trkpt>
      <trkpt lat="46.05859" lon="6.37973">
        <ele>475</ele>
        <time>2011-04-30T17:45:14Z</time>
      </trkpt>
      <trkpt lat="46.0585" lon="6.37958">
        <ele>475</ele>
        <time>2011-04-30T17:45:15Z</time>
      </trkpt>
      <trkpt lat="46.05841" lon="6.37943">
        <ele>475</ele>
        <time>2011-04-30T17:45:16Z</time>
      </trkpt>
      <trkpt lat="46.05833" lon="6.37928">
        <ele>475</ele>
        <time>2011-04-30T17:45:17Z</time>
      </trkpt>
      <trkpt lat="46.05826" lon="6.37914">
        <ele>475</ele>
        <time>2011-04-30T17:45:18Z</time>
      </trkpt>
      <trkpt lat="46.05819" lon="6.37901">
        <ele>480</ele>
        <time>2011-04-30T17:45:19Z</time>
      </trkpt>
      <trkpt lat="46.05813" lon="6.37887">
        <ele>480</ele>
        <time>2011-04-30T17:45:20Z</time>
      </trkpt>
      <trkpt lat="46.05808" lon="6.37872">
        <ele>480</ele>
        <time>2011-04-30T17:45:21Z</time>
      </trkpt>
      <trkpt lat="46.05805" lon="6.37858">
        <ele>480</ele>
        <time>2011-04-30T17:45:22Z</time>
      </trkpt>
      <trkpt lat="46.05801" lon="6.37843">
        <ele>480</ele>
        <time>2011-04-30T17:45:23Z</time>
      </trkpt>
      <trkpt lat="46.05798" lon="6.37826">
        <ele>480</ele>
        <time>2011-04-30T17:45:24Z</time>
      </trkpt>
      <trkpt lat="46.05796" lon="6.37809">
        <ele>480</ele>
        <time>2011-04-30T17:45:25Z</time>
      </trkpt>
      <trkpt lat="46.05795" lon="6.37793">
        <ele>480</ele>
        <time>2011-04-30T17:45:26Z</time>
      </trkpt>
      <trkpt lat="46.05795" lon="6.37776">
        <ele>480</ele>
        <time>2011-04-30T17:45:27Z</time>
      </trkpt>
      <trkpt lat="46.05794" lon="6.3776">
        <ele>480</ele>
        <time>2011-04-30T17:45:28Z</time>
      </trkpt>
      <trkpt lat="46.05793" lon="6.37745">
        <ele>480</ele>
        <time>2011-04-30T17:45:29Z</time>
      </trkpt>
      <trkpt lat="46.05791" lon="6.37729">
        <ele>480</ele>
        <time>2011-04-30T17:45:30Z</time>
      </trkpt>
      <trkpt lat="46.05788" lon="6.37715">
        <ele>480</ele>
        <time>2011-04-30T17:45:31Z</time>
      </trkpt>
      <trkpt lat="46.05783" lon="6.37701">
        <ele>480</ele>
        <time>2011-04-30T17:45:32Z</time>
      </trkpt>
      <trkpt lat="46.05778" lon="6.37686">
        <ele>480</ele>
        <time>2011-04-30T17:45:33Z</time>
      </trkpt>
      <trkpt lat="46.05772" lon="6.37672">
        <ele>480</ele>
        <time>2011-04-30T17:45:34Z</time>
      </trkpt>
      <trkpt lat="46.05766" lon="6.37657">
        <ele>480</ele>
        <time>2011-04-30T17:45:35Z</time>
      </trkpt>
      <trkpt lat="46.0576" lon="6.37642">
        <ele>480</ele>
        <time>2011-04-30T17:45:36Z</time>
      </trkpt>
      <trkpt lat="46.05754" lon="6.37628">
        <ele>480</ele>
        <time>2011-04-30T17:45:37Z</time>
      </trkpt>
      <trkpt lat="46.05749" lon="6.37613">
        <ele>480</ele>
        <time>2011-04-30T17:45:38Z</time>
      </trkpt>
      <trkpt lat="46.05744" lon="6.37597">
        <ele>480</ele>
        <time>2011-04-30T17:45:39Z</time>
      </trkpt>
      <trkpt lat="46.05739" lon="6.37584">
        <ele>480</ele>
        <time>2011-04-30T17:45:40Z</time>
      </trkpt>
      <trkpt lat="46.05736" lon="6.3757">
        <ele>486</ele>
        <time>2011-04-30T17:45:41Z</time>
      </trkpt>
      <trkpt lat="46.05732" lon="6.37549">
        <ele>486</ele>
        <time>2011-04-30T17:45:43Z</time>
      </trkpt>
      <trkpt lat="46.05731" lon="6.3753">
        <ele>486</ele>
        <time>2011-04-30T17:45:45Z</time>
      </trkpt>
      <trkpt lat="46.05734" lon="6.37512">
        <ele>486</ele>
        <time>2011-04-30T17:45:47Z</time>
      </trkpt>
      <trkpt lat="46.05748" lon="6.37499">
        <ele>486</ele>
        <time>2011-04-30T17:45:49Z</time>
      </trkpt>
      <trkpt lat="46.05758" lon="6.37496">
        <ele>486</ele>
        <time>2011-04-30T17:45:50Z</time>
      </trkpt>
      <trkpt lat="46.0577" lon="6.37493">
        <ele>486</ele>
        <time>2011-04-30T17:45:51Z</time>
      </trkpt>
      <trkpt lat="46.05783" lon="6.3749">
        <ele>486</ele>
        <time>2011-04-30T17:45:52Z</time>
      </trkpt>
      <trkpt lat="46.05796" lon="6.37486">
        <ele>486</ele>
        <time>2011-04-30T17:45:53Z</time>
      </trkpt>
      <trkpt lat="46.0581" lon="6.3748">
        <ele>486</ele>
        <time>2011-04-30T17:45:54Z</time>
      </trkpt>
      <trkpt lat="46.05822" lon="6.37472">
        <ele>486</ele>
        <time>2011-04-30T17:45:55Z</time>
      </trkpt>
      <trkpt lat="46.05835" lon="6.37463">
        <ele>486</ele>
        <time>2011-04-30T17:45:56Z</time>
      </trkpt>
      <trkpt lat="46.05846" lon="6.37453">
        <ele>486</ele>
        <time>2011-04-30T17:45:57Z</time>
      </trkpt>
      <trkpt lat="46.05858" lon="6.37443">
        <ele>486</ele>
        <time>2011-04-30T17:45:58Z</time>
      </trkpt>
      <trkpt lat="46.05869" lon="6.37434">
        <ele>486</ele>
        <time>2011-04-30T17:45:59Z</time>
      </trkpt>
      <trkpt lat="46.05879" lon="6.37425">
        <ele>486</ele>
        <time>2011-04-30T17:46:00Z</time>
      </trkpt>
      <trkpt lat="46.05888" lon="6.37417">
        <ele>486</ele>
        <time>2011-04-30T17:46:01Z</time>
      </trkpt>
      <trkpt lat="46.05896" lon="6.37407">
        <ele>486</ele>
        <time>2011-04-30T17:46:02Z</time>
      </trkpt>
      <trkpt lat="46.05903" lon="6.37394">
        <ele>486</ele>
        <time>2011-04-30T17:46:03Z</time>
      </trkpt>
      <trkpt lat="46.0591" lon="6.37381">
        <ele>486</ele>
        <time>2011-04-30T17:46:04Z</time>
      </trkpt>
      <trkpt lat="46.05917" lon="6.37368">
        <ele>486</ele>
        <time>2011-04-30T17:46:05Z</time>
      </trkpt>
      <trkpt lat="46.05925" lon="6.37357">
        <ele>486</ele>
        <time>2011-04-30T17:46:06Z</time>
      </trkpt>
      <trkpt lat="46.05931" lon="6.37346">
        <ele>486</ele>
        <time>2011-04-30T17:46:07Z</time>
      </trkpt>
      <trkpt lat="46.0594" lon="6.37337">
        <ele>486</ele>
        <time>2011-04-30T17:46:08Z</time>
      </trkpt>
      <trkpt lat="46.05953" lon="6.37328">
        <ele>486</ele>
        <time>2011-04-30T17:46:10Z</time>
      </trkpt>
      <trkpt lat="46.05961" lon="6.37334">
        <ele>486</ele>
        <time>2011-04-30T17:46:12Z</time>
      </trkpt>
      <trkpt lat="46.05959" lon="6.37351">
        <ele>486</ele>
        <time>2011-04-30T17:46:15Z</time>
      </trkpt>
      <trkpt lat="46.05951" lon="6.37357">
        <ele>486</ele>
        <time>2011-04-30T17:47:01Z</time>
      </trkpt>
      <trkpt lat="46.0596" lon="6.37352">
        <ele>486</ele>
        <time>2011-04-30T17:48:47Z</time>
      </trkpt>
      <trkpt lat="46.0597" lon="6.37359">
        <ele>486</ele>
        <time>2011-04-30T17:48:52Z</time>
      </trkpt>
      <trkpt lat="46.05968" lon="6.37343">
        <ele>486</ele>
        <time>2011-04-30T17:49:04Z</time>
      </trkpt>
      <trkpt lat="46.05965" lon="6.37324">
        <ele>486</ele>
        <time>2011-04-30T17:49:07Z</time>
      </trkpt>
      <trkpt lat="46.0596" lon="6.37309">
        <ele>486</ele>
        <time>2011-04-30T17:49:10Z</time>
      </trkpt>
      <trkpt lat="46.05958" lon="6.37295">
        <ele>486</ele>
        <time>2011-04-30T17:49:13Z</time>
      </trkpt>
      <trkpt lat="46.05958" lon="6.37326">
        <ele>494</ele>
        <time>2011-04-30T17:49:27Z</time>
      </trkpt>
      <trkpt lat="46.05959" lon="6.37313">
        <ele>494</ele>
        <time>2011-04-30T17:49:33Z</time>
      </trkpt>
      <trkpt lat="46.05955" lon="6.37325">
        <ele>494</ele>
        <time>2011-04-30T17:49:40Z</time>
      </trkpt>
      <trkpt lat="46.05961" lon="6.37366">
        <ele>483</ele>
        <time>2011-04-30T17:49:53Z</time>
      </trkpt>
      <trkpt lat="46.05951" lon="6.37354">
        <ele>466</ele>
        <time>2011-04-30T17:50:20Z</time>
      </trkpt>
      <trkpt lat="46.05936" lon="6.37353">
        <ele>466</ele>
        <time>2011-04-30T17:50:43Z</time>
      </trkpt>
      <trkpt lat="46.05931" lon="6.37341">
        <ele>466</ele>
        <time>2011-04-30T17:50:48Z</time>
      </trkpt>
      <trkpt lat="46.05941" lon="6.37341">
        <ele>466</ele>
        <time>2011-04-30T17:50:56Z</time>
      </trkpt>
      <trkpt lat="46.05928" lon="6.37347">
        <ele>466</ele>
        <time>2011-04-30T17:51:01Z</time>
      </trkpt>
    </trkseg>
  </trk>
</gpx>